<?xml version="1.0" encoding="UTF-8" standalone="no" ?>
<gpx xmlns="http://www.topografix.com/GPX/1/1" xmlns:xsi="http://www.w3.org/2001/XMLSchema-instance" xsi:schemaLocation="http://www.topografix.com/GPX/1/1 http://www.topografix.com/GPX/1/1/gpx.xsd" version="1.1" creator="VisuGPX - https://www.visugpx.com">
  <metadata>
    <name>Mille Cols 2026 J3 : Pic Cascavelier par la crête de Curlet</name>
    <desc><![CDATA[Oulala, le vent sur la crête.

Sur une préco de la tauliere des mille Cols, Carole. Les mêmes. Patrick et Yves ont poussé jusqu'à l'arête pour Marcelette.

La crête est vraiment belle, mais que de vent.]]></desc>
  </metadata>
  <trk>
    <name><![CDATA[Mille Cols 2026 J3 : Pic Cascavelier par la crête de Curlet_1]]></name>
    <trkseg>
      <trkpt lat="44.71156" lon="6.84953">
        <ele>1773.7</ele>
        <time>2026-03-25T08:10:41Z</time>
      </trkpt>
      <trkpt lat="44.71156" lon="6.84954">
        <ele>1773.7</ele>
        <time>2026-03-25T08:10:42Z</time>
      </trkpt>
      <trkpt lat="44.71157" lon="6.84953">
        <ele>1773.7</ele>
        <time>2026-03-25T08:10:43Z</time>
      </trkpt>
      <trkpt lat="44.71162" lon="6.84952">
        <ele>1773.7</ele>
        <time>2026-03-25T08:10:45Z</time>
      </trkpt>
      <trkpt lat="44.71165" lon="6.84953">
        <ele>1773.7</ele>
        <time>2026-03-25T08:10:46Z</time>
      </trkpt>
      <trkpt lat="44.71163" lon="6.84952">
        <ele>1773.7</ele>
        <time>2026-03-25T08:10:47Z</time>
      </trkpt>
      <trkpt lat="44.71164" lon="6.84953">
        <ele>1773.7</ele>
        <time>2026-03-25T08:10:48Z</time>
      </trkpt>
      <trkpt lat="44.71164" lon="6.84955">
        <ele>1773.7</ele>
        <time>2026-03-25T08:10:49Z</time>
      </trkpt>
      <trkpt lat="44.71165" lon="6.84955">
        <ele>1773.7</ele>
        <time>2026-03-25T08:10:50Z</time>
      </trkpt>
      <trkpt lat="44.71164" lon="6.84956">
        <ele>1773.7</ele>
        <time>2026-03-25T08:10:51Z</time>
      </trkpt>
      <trkpt lat="44.71163" lon="6.84956">
        <ele>1773.7</ele>
        <time>2026-03-25T08:10:52Z</time>
      </trkpt>
      <trkpt lat="44.71162" lon="6.84955">
        <ele>1773.7</ele>
        <time>2026-03-25T08:10:53Z</time>
      </trkpt>
      <trkpt lat="44.7116" lon="6.84953">
        <ele>1773.7</ele>
        <time>2026-03-25T08:10:54Z</time>
      </trkpt>
      <trkpt lat="44.71159" lon="6.84951">
        <ele>1773.7</ele>
        <time>2026-03-25T08:10:55Z</time>
      </trkpt>
      <trkpt lat="44.71157" lon="6.84946">
        <ele>1773.7</ele>
        <time>2026-03-25T08:10:56Z</time>
      </trkpt>
      <trkpt lat="44.71156" lon="6.84944">
        <ele>1773.7</ele>
        <time>2026-03-25T08:10:57Z</time>
      </trkpt>
      <trkpt lat="44.71154" lon="6.8494">
        <ele>1773.7</ele>
        <time>2026-03-25T08:10:58Z</time>
      </trkpt>
      <trkpt lat="44.71152" lon="6.84937">
        <ele>1773.7</ele>
        <time>2026-03-25T08:10:59Z</time>
      </trkpt>
      <trkpt lat="44.7115" lon="6.84938">
        <ele>1773.7</ele>
        <time>2026-03-25T08:11:00Z</time>
      </trkpt>
      <trkpt lat="44.7115" lon="6.84939">
        <ele>1773.7</ele>
        <time>2026-03-25T08:11:01Z</time>
      </trkpt>
      <trkpt lat="44.7115" lon="6.8494">
        <ele>1773.7</ele>
        <time>2026-03-25T08:11:02Z</time>
      </trkpt>
      <trkpt lat="44.7115" lon="6.84941">
        <ele>1773.7</ele>
        <time>2026-03-25T08:11:03Z</time>
      </trkpt>
      <trkpt lat="44.7115" lon="6.84942">
        <ele>1773.7</ele>
        <time>2026-03-25T08:11:04Z</time>
      </trkpt>
      <trkpt lat="44.71149" lon="6.84942">
        <ele>1773.7</ele>
        <time>2026-03-25T08:11:05Z</time>
      </trkpt>
      <trkpt lat="44.71148" lon="6.84941">
        <ele>1773.7</ele>
        <time>2026-03-25T08:11:06Z</time>
      </trkpt>
      <trkpt lat="44.71147" lon="6.84939">
        <ele>1773.7</ele>
        <time>2026-03-25T08:11:07Z</time>
      </trkpt>
      <trkpt lat="44.71148" lon="6.84938">
        <ele>1773.7</ele>
        <time>2026-03-25T08:11:08Z</time>
      </trkpt>
      <trkpt lat="44.71148" lon="6.84937">
        <ele>1773.7</ele>
        <time>2026-03-25T08:11:09Z</time>
      </trkpt>
      <trkpt lat="44.7115" lon="6.84941">
        <ele>1773.7</ele>
        <time>2026-03-25T08:11:10Z</time>
      </trkpt>
      <trkpt lat="44.71151" lon="6.84946">
        <ele>1773.8</ele>
        <time>2026-03-25T08:11:11Z</time>
      </trkpt>
      <trkpt lat="44.71152" lon="6.84949">
        <ele>1773.8</ele>
        <time>2026-03-25T08:11:12Z</time>
      </trkpt>
      <trkpt lat="44.71151" lon="6.8495">
        <ele>1773.8</ele>
        <time>2026-03-25T08:11:13Z</time>
      </trkpt>
      <trkpt lat="44.7115" lon="6.84951">
        <ele>1773.8</ele>
        <time>2026-03-25T08:11:14Z</time>
      </trkpt>
      <trkpt lat="44.7115" lon="6.84951">
        <ele>1773.8</ele>
        <time>2026-03-25T08:11:15Z</time>
      </trkpt>
      <trkpt lat="44.7115" lon="6.8495">
        <ele>1773.8</ele>
        <time>2026-03-25T08:11:16Z</time>
      </trkpt>
      <trkpt lat="44.7115" lon="6.8495">
        <ele>1773.8</ele>
        <time>2026-03-25T08:11:17Z</time>
      </trkpt>
      <trkpt lat="44.71151" lon="6.8495">
        <ele>1773.8</ele>
        <time>2026-03-25T08:11:18Z</time>
      </trkpt>
      <trkpt lat="44.71151" lon="6.8495">
        <ele>1773.8</ele>
        <time>2026-03-25T08:11:19Z</time>
      </trkpt>
      <trkpt lat="44.71152" lon="6.84949">
        <ele>1773.8</ele>
        <time>2026-03-25T08:11:20Z</time>
      </trkpt>
      <trkpt lat="44.71152" lon="6.84948">
        <ele>1773.8</ele>
        <time>2026-03-25T08:11:21Z</time>
      </trkpt>
      <trkpt lat="44.71153" lon="6.84947">
        <ele>1773.8</ele>
        <time>2026-03-25T08:11:22Z</time>
      </trkpt>
      <trkpt lat="44.71153" lon="6.84946">
        <ele>1773.8</ele>
        <time>2026-03-25T08:11:23Z</time>
      </trkpt>
      <trkpt lat="44.71154" lon="6.84946">
        <ele>1773.8</ele>
        <time>2026-03-25T08:11:24Z</time>
      </trkpt>
      <trkpt lat="44.71152" lon="6.84944">
        <ele>1773.8</ele>
        <time>2026-03-25T08:11:25Z</time>
      </trkpt>
      <trkpt lat="44.71151" lon="6.84943">
        <ele>1773.8</ele>
        <time>2026-03-25T08:11:26Z</time>
      </trkpt>
      <trkpt lat="44.7115" lon="6.84941">
        <ele>1773.8</ele>
        <time>2026-03-25T08:11:27Z</time>
      </trkpt>
      <trkpt lat="44.7115" lon="6.84941">
        <ele>1773.8</ele>
        <time>2026-03-25T08:11:28Z</time>
      </trkpt>
      <trkpt lat="44.7115" lon="6.8494">
        <ele>1773.8</ele>
        <time>2026-03-25T08:11:29Z</time>
      </trkpt>
      <trkpt lat="44.7115" lon="6.8494">
        <ele>1773.8</ele>
        <time>2026-03-25T08:11:30Z</time>
      </trkpt>
      <trkpt lat="44.7115" lon="6.84939">
        <ele>1773.8</ele>
        <time>2026-03-25T08:11:31Z</time>
      </trkpt>
      <trkpt lat="44.7115" lon="6.84939">
        <ele>1773.8</ele>
        <time>2026-03-25T08:11:32Z</time>
      </trkpt>
      <trkpt lat="44.7115" lon="6.84938">
        <ele>1773.8</ele>
        <time>2026-03-25T08:11:33Z</time>
      </trkpt>
      <trkpt lat="44.7115" lon="6.84938">
        <ele>1773.8</ele>
        <time>2026-03-25T08:11:34Z</time>
      </trkpt>
      <trkpt lat="44.7115" lon="6.84937">
        <ele>1773.8</ele>
        <time>2026-03-25T08:11:35Z</time>
      </trkpt>
      <trkpt lat="44.71149" lon="6.84936">
        <ele>1773.8</ele>
        <time>2026-03-25T08:11:36Z</time>
      </trkpt>
      <trkpt lat="44.71151" lon="6.84938">
        <ele>1773.8</ele>
        <time>2026-03-25T08:11:37Z</time>
      </trkpt>
      <trkpt lat="44.71151" lon="6.84939">
        <ele>1773.8</ele>
        <time>2026-03-25T08:11:38Z</time>
      </trkpt>
      <trkpt lat="44.7115" lon="6.84939">
        <ele>1773.8</ele>
        <time>2026-03-25T08:11:39Z</time>
      </trkpt>
      <trkpt lat="44.71148" lon="6.84939">
        <ele>1773.8</ele>
        <time>2026-03-25T08:11:40Z</time>
      </trkpt>
      <trkpt lat="44.71148" lon="6.84939">
        <ele>1773.8</ele>
        <time>2026-03-25T08:11:41Z</time>
      </trkpt>
      <trkpt lat="44.71149" lon="6.84939">
        <ele>1773.8</ele>
        <time>2026-03-25T08:11:42Z</time>
      </trkpt>
      <trkpt lat="44.7115" lon="6.8494">
        <ele>1773.8</ele>
        <time>2026-03-25T08:11:43Z</time>
      </trkpt>
      <trkpt lat="44.71149" lon="6.8494">
        <ele>1773.8</ele>
        <time>2026-03-25T08:11:44Z</time>
      </trkpt>
      <trkpt lat="44.7115" lon="6.84942">
        <ele>1773.8</ele>
        <time>2026-03-25T08:11:45Z</time>
      </trkpt>
      <trkpt lat="44.71151" lon="6.84941">
        <ele>1773.8</ele>
        <time>2026-03-25T08:11:46Z</time>
      </trkpt>
      <trkpt lat="44.71151" lon="6.84941">
        <ele>1773.8</ele>
        <time>2026-03-25T08:11:47Z</time>
      </trkpt>
      <trkpt lat="44.71151" lon="6.84941">
        <ele>1773.8</ele>
        <time>2026-03-25T08:11:48Z</time>
      </trkpt>
      <trkpt lat="44.71151" lon="6.8494">
        <ele>1773.8</ele>
        <time>2026-03-25T08:11:49Z</time>
      </trkpt>
      <trkpt lat="44.71152" lon="6.8494">
        <ele>1773.8</ele>
        <time>2026-03-25T08:11:50Z</time>
      </trkpt>
      <trkpt lat="44.71152" lon="6.8494">
        <ele>1773.8</ele>
        <time>2026-03-25T08:11:51Z</time>
      </trkpt>
      <trkpt lat="44.71152" lon="6.84939">
        <ele>1773.8</ele>
        <time>2026-03-25T08:11:52Z</time>
      </trkpt>
      <trkpt lat="44.71152" lon="6.84939">
        <ele>1773.8</ele>
        <time>2026-03-25T08:11:53Z</time>
      </trkpt>
      <trkpt lat="44.71152" lon="6.84938">
        <ele>1773.8</ele>
        <time>2026-03-25T08:11:54Z</time>
      </trkpt>
      <trkpt lat="44.71153" lon="6.84938">
        <ele>1773.8</ele>
        <time>2026-03-25T08:11:55Z</time>
      </trkpt>
      <trkpt lat="44.71153" lon="6.84938">
        <ele>1773.8</ele>
        <time>2026-03-25T08:11:56Z</time>
      </trkpt>
      <trkpt lat="44.71154" lon="6.84938">
        <ele>1773.8</ele>
        <time>2026-03-25T08:11:57Z</time>
      </trkpt>
      <trkpt lat="44.71155" lon="6.84938">
        <ele>1773.8</ele>
        <time>2026-03-25T08:11:58Z</time>
      </trkpt>
      <trkpt lat="44.71156" lon="6.84939">
        <ele>1773.8</ele>
        <time>2026-03-25T08:11:59Z</time>
      </trkpt>
      <trkpt lat="44.71156" lon="6.84939">
        <ele>1773.8</ele>
        <time>2026-03-25T08:12:00Z</time>
      </trkpt>
      <trkpt lat="44.71156" lon="6.84941">
        <ele>1773.8</ele>
        <time>2026-03-25T08:12:01Z</time>
      </trkpt>
      <trkpt lat="44.71155" lon="6.8494">
        <ele>1773.8</ele>
        <time>2026-03-25T08:12:02Z</time>
      </trkpt>
      <trkpt lat="44.71154" lon="6.84939">
        <ele>1773.8</ele>
        <time>2026-03-25T08:12:03Z</time>
      </trkpt>
      <trkpt lat="44.71154" lon="6.8494">
        <ele>1773.8</ele>
        <time>2026-03-25T08:12:04Z</time>
      </trkpt>
      <trkpt lat="44.71155" lon="6.84941">
        <ele>1773.8</ele>
        <time>2026-03-25T08:12:05Z</time>
      </trkpt>
      <trkpt lat="44.71156" lon="6.84941">
        <ele>1773.8</ele>
        <time>2026-03-25T08:12:06Z</time>
      </trkpt>
      <trkpt lat="44.71155" lon="6.84941">
        <ele>1773.8</ele>
        <time>2026-03-25T08:12:07Z</time>
      </trkpt>
      <trkpt lat="44.71156" lon="6.84942">
        <ele>1773.8</ele>
        <time>2026-03-25T08:12:08Z</time>
      </trkpt>
      <trkpt lat="44.71157" lon="6.84943">
        <ele>1773.8</ele>
        <time>2026-03-25T08:12:09Z</time>
      </trkpt>
      <trkpt lat="44.71157" lon="6.84944">
        <ele>1773.8</ele>
        <time>2026-03-25T08:12:10Z</time>
      </trkpt>
      <trkpt lat="44.71157" lon="6.84944">
        <ele>1773.8</ele>
        <time>2026-03-25T08:12:11Z</time>
      </trkpt>
      <trkpt lat="44.71156" lon="6.84944">
        <ele>1773.8</ele>
        <time>2026-03-25T08:12:12Z</time>
      </trkpt>
      <trkpt lat="44.71156" lon="6.84944">
        <ele>1773.8</ele>
        <time>2026-03-25T08:12:13Z</time>
      </trkpt>
      <trkpt lat="44.71155" lon="6.84944">
        <ele>1773.8</ele>
        <time>2026-03-25T08:12:14Z</time>
      </trkpt>
      <trkpt lat="44.71155" lon="6.84944">
        <ele>1773.9</ele>
        <time>2026-03-25T08:12:15Z</time>
      </trkpt>
      <trkpt lat="44.71155" lon="6.84944">
        <ele>1773.9</ele>
        <time>2026-03-25T08:12:16Z</time>
      </trkpt>
      <trkpt lat="44.71155" lon="6.84944">
        <ele>1773.9</ele>
        <time>2026-03-25T08:12:17Z</time>
      </trkpt>
      <trkpt lat="44.71154" lon="6.84944">
        <ele>1773.9</ele>
        <time>2026-03-25T08:12:18Z</time>
      </trkpt>
      <trkpt lat="44.71154" lon="6.84944">
        <ele>1773.9</ele>
        <time>2026-03-25T08:12:19Z</time>
      </trkpt>
      <trkpt lat="44.71155" lon="6.84944">
        <ele>1773.9</ele>
        <time>2026-03-25T08:12:20Z</time>
      </trkpt>
      <trkpt lat="44.71155" lon="6.84944">
        <ele>1773.9</ele>
        <time>2026-03-25T08:12:21Z</time>
      </trkpt>
      <trkpt lat="44.71155" lon="6.84943">
        <ele>1773.9</ele>
        <time>2026-03-25T08:12:22Z</time>
      </trkpt>
      <trkpt lat="44.71156" lon="6.84944">
        <ele>1773.9</ele>
        <time>2026-03-25T08:12:23Z</time>
      </trkpt>
      <trkpt lat="44.71156" lon="6.84945">
        <ele>1773.9</ele>
        <time>2026-03-25T08:12:24Z</time>
      </trkpt>
      <trkpt lat="44.71156" lon="6.84945">
        <ele>1773.9</ele>
        <time>2026-03-25T08:12:25Z</time>
      </trkpt>
      <trkpt lat="44.71155" lon="6.84945">
        <ele>1773.9</ele>
        <time>2026-03-25T08:12:26Z</time>
      </trkpt>
      <trkpt lat="44.71155" lon="6.84946">
        <ele>1773.9</ele>
        <time>2026-03-25T08:12:27Z</time>
      </trkpt>
      <trkpt lat="44.71155" lon="6.84947">
        <ele>1773.9</ele>
        <time>2026-03-25T08:12:28Z</time>
      </trkpt>
      <trkpt lat="44.71157" lon="6.84948">
        <ele>1773.9</ele>
        <time>2026-03-25T08:12:29Z</time>
      </trkpt>
      <trkpt lat="44.71157" lon="6.84948">
        <ele>1773.9</ele>
        <time>2026-03-25T08:12:30Z</time>
      </trkpt>
      <trkpt lat="44.71157" lon="6.84948">
        <ele>1773.9</ele>
        <time>2026-03-25T08:12:31Z</time>
      </trkpt>
      <trkpt lat="44.71157" lon="6.84948">
        <ele>1773.9</ele>
        <time>2026-03-25T08:12:32Z</time>
      </trkpt>
      <trkpt lat="44.71156" lon="6.84949">
        <ele>1773.9</ele>
        <time>2026-03-25T08:12:33Z</time>
      </trkpt>
      <trkpt lat="44.71156" lon="6.84949">
        <ele>1773.9</ele>
        <time>2026-03-25T08:12:34Z</time>
      </trkpt>
      <trkpt lat="44.71156" lon="6.8495">
        <ele>1773.9</ele>
        <time>2026-03-25T08:12:35Z</time>
      </trkpt>
      <trkpt lat="44.71157" lon="6.84951">
        <ele>1773.9</ele>
        <time>2026-03-25T08:12:36Z</time>
      </trkpt>
      <trkpt lat="44.71158" lon="6.84953">
        <ele>1773.9</ele>
        <time>2026-03-25T08:12:37Z</time>
      </trkpt>
      <trkpt lat="44.71159" lon="6.84953">
        <ele>1773.9</ele>
        <time>2026-03-25T08:12:38Z</time>
      </trkpt>
      <trkpt lat="44.71159" lon="6.84953">
        <ele>1773.9</ele>
        <time>2026-03-25T08:12:39Z</time>
      </trkpt>
      <trkpt lat="44.71159" lon="6.84953">
        <ele>1773.9</ele>
        <time>2026-03-25T08:12:40Z</time>
      </trkpt>
      <trkpt lat="44.71159" lon="6.84951">
        <ele>1773.9</ele>
        <time>2026-03-25T08:12:41Z</time>
      </trkpt>
      <trkpt lat="44.71159" lon="6.8495">
        <ele>1772.9</ele>
        <time>2026-03-25T08:12:42Z</time>
      </trkpt>
      <trkpt lat="44.71159" lon="6.8495">
        <ele>1772.9</ele>
        <time>2026-03-25T08:12:43Z</time>
      </trkpt>
      <trkpt lat="44.71158" lon="6.84949">
        <ele>1772.9</ele>
        <time>2026-03-25T08:12:44Z</time>
      </trkpt>
      <trkpt lat="44.71157" lon="6.84948">
        <ele>1773</ele>
        <time>2026-03-25T08:12:45Z</time>
      </trkpt>
      <trkpt lat="44.71156" lon="6.84947">
        <ele>1773</ele>
        <time>2026-03-25T08:12:46Z</time>
      </trkpt>
      <trkpt lat="44.71156" lon="6.84947">
        <ele>1773</ele>
        <time>2026-03-25T08:12:47Z</time>
      </trkpt>
      <trkpt lat="44.71157" lon="6.84946">
        <ele>1773</ele>
        <time>2026-03-25T08:12:48Z</time>
      </trkpt>
      <trkpt lat="44.71157" lon="6.84946">
        <ele>1772</ele>
        <time>2026-03-25T08:12:49Z</time>
      </trkpt>
      <trkpt lat="44.71158" lon="6.84945">
        <ele>1772</ele>
        <time>2026-03-25T08:12:50Z</time>
      </trkpt>
      <trkpt lat="44.71159" lon="6.84947">
        <ele>1773</ele>
        <time>2026-03-25T08:12:51Z</time>
      </trkpt>
      <trkpt lat="44.71159" lon="6.84949">
        <ele>1773</ele>
        <time>2026-03-25T08:12:52Z</time>
      </trkpt>
      <trkpt lat="44.71159" lon="6.84951">
        <ele>1774.1</ele>
        <time>2026-03-25T08:12:53Z</time>
      </trkpt>
      <trkpt lat="44.71159" lon="6.84953">
        <ele>1774.1</ele>
        <time>2026-03-25T08:12:54Z</time>
      </trkpt>
      <trkpt lat="44.71159" lon="6.84954">
        <ele>1774.1</ele>
        <time>2026-03-25T08:12:55Z</time>
      </trkpt>
      <trkpt lat="44.7116" lon="6.84956">
        <ele>1775.2</ele>
        <time>2026-03-25T08:12:56Z</time>
      </trkpt>
      <trkpt lat="44.71161" lon="6.84958">
        <ele>1775.2</ele>
        <time>2026-03-25T08:12:57Z</time>
      </trkpt>
      <trkpt lat="44.71161" lon="6.84959">
        <ele>1776.3</ele>
        <time>2026-03-25T08:12:58Z</time>
      </trkpt>
      <trkpt lat="44.71161" lon="6.8496">
        <ele>1776.3</ele>
        <time>2026-03-25T08:12:59Z</time>
      </trkpt>
      <trkpt lat="44.71162" lon="6.84961">
        <ele>1776.3</ele>
        <time>2026-03-25T08:13:00Z</time>
      </trkpt>
      <trkpt lat="44.71164" lon="6.84967">
        <ele>1777.4</ele>
        <time>2026-03-25T08:13:01Z</time>
      </trkpt>
      <trkpt lat="44.71166" lon="6.84973">
        <ele>1779.5</ele>
        <time>2026-03-25T08:13:02Z</time>
      </trkpt>
      <trkpt lat="44.71167" lon="6.84978">
        <ele>1780.5</ele>
        <time>2026-03-25T08:13:03Z</time>
      </trkpt>
      <trkpt lat="44.71169" lon="6.84983">
        <ele>1781.7</ele>
        <time>2026-03-25T08:13:04Z</time>
      </trkpt>
      <trkpt lat="44.71169" lon="6.84985">
        <ele>1782.9</ele>
        <time>2026-03-25T08:13:05Z</time>
      </trkpt>
      <trkpt lat="44.71168" lon="6.84985">
        <ele>1782.9</ele>
        <time>2026-03-25T08:13:06Z</time>
      </trkpt>
      <trkpt lat="44.71167" lon="6.84984">
        <ele>1781.7</ele>
        <time>2026-03-25T08:13:07Z</time>
      </trkpt>
      <trkpt lat="44.71167" lon="6.84986">
        <ele>1782.9</ele>
        <time>2026-03-25T08:13:08Z</time>
      </trkpt>
      <trkpt lat="44.71169" lon="6.84987">
        <ele>1783</ele>
        <time>2026-03-25T08:13:09Z</time>
      </trkpt>
      <trkpt lat="44.7117" lon="6.84988">
        <ele>1783</ele>
        <time>2026-03-25T08:13:10Z</time>
      </trkpt>
      <trkpt lat="44.71169" lon="6.84984">
        <ele>1781.8</ele>
        <time>2026-03-25T08:13:11Z</time>
      </trkpt>
      <trkpt lat="44.71169" lon="6.84982">
        <ele>1781.8</ele>
        <time>2026-03-25T08:13:12Z</time>
      </trkpt>
      <trkpt lat="44.71168" lon="6.84977">
        <ele>1780.7</ele>
        <time>2026-03-25T08:13:13Z</time>
      </trkpt>
      <trkpt lat="44.71167" lon="6.84976">
        <ele>1779.7</ele>
        <time>2026-03-25T08:13:14Z</time>
      </trkpt>
      <trkpt lat="44.71166" lon="6.84972">
        <ele>1779.7</ele>
        <time>2026-03-25T08:13:15Z</time>
      </trkpt>
      <trkpt lat="44.71164" lon="6.84967">
        <ele>1777.6</ele>
        <time>2026-03-25T08:13:16Z</time>
      </trkpt>
      <trkpt lat="44.71163" lon="6.84963">
        <ele>1776.5</ele>
        <time>2026-03-25T08:13:17Z</time>
      </trkpt>
      <trkpt lat="44.71162" lon="6.84962">
        <ele>1776.5</ele>
        <time>2026-03-25T08:13:18Z</time>
      </trkpt>
      <trkpt lat="44.71161" lon="6.84959">
        <ele>1776.6</ele>
        <time>2026-03-25T08:13:19Z</time>
      </trkpt>
      <trkpt lat="44.71161" lon="6.84957">
        <ele>1775.6</ele>
        <time>2026-03-25T08:13:20Z</time>
      </trkpt>
      <trkpt lat="44.71161" lon="6.84958">
        <ele>1775.6</ele>
        <time>2026-03-25T08:13:21Z</time>
      </trkpt>
      <trkpt lat="44.7116" lon="6.84958">
        <ele>1775.6</ele>
        <time>2026-03-25T08:13:22Z</time>
      </trkpt>
      <trkpt lat="44.71159" lon="6.84959">
        <ele>1775.6</ele>
        <time>2026-03-25T08:13:23Z</time>
      </trkpt>
      <trkpt lat="44.71159" lon="6.84959">
        <ele>1775.6</ele>
        <time>2026-03-25T08:13:24Z</time>
      </trkpt>
      <trkpt lat="44.71158" lon="6.84959">
        <ele>1775.6</ele>
        <time>2026-03-25T08:13:25Z</time>
      </trkpt>
      <trkpt lat="44.71157" lon="6.84957">
        <ele>1775.7</ele>
        <time>2026-03-25T08:13:26Z</time>
      </trkpt>
      <trkpt lat="44.71157" lon="6.84956">
        <ele>1775.7</ele>
        <time>2026-03-25T08:13:27Z</time>
      </trkpt>
      <trkpt lat="44.71157" lon="6.84955">
        <ele>1775.8</ele>
        <time>2026-03-25T08:13:28Z</time>
      </trkpt>
      <trkpt lat="44.71159" lon="6.84953">
        <ele>1774.6</ele>
        <time>2026-03-25T08:13:29Z</time>
      </trkpt>
      <trkpt lat="44.7116" lon="6.84953">
        <ele>1774.6</ele>
        <time>2026-03-25T08:13:30Z</time>
      </trkpt>
      <trkpt lat="44.71162" lon="6.84953">
        <ele>1774.6</ele>
        <time>2026-03-25T08:13:31Z</time>
      </trkpt>
      <trkpt lat="44.71161" lon="6.84952">
        <ele>1774.6</ele>
        <time>2026-03-25T08:13:32Z</time>
      </trkpt>
      <trkpt lat="44.71161" lon="6.84951">
        <ele>1774.7</ele>
        <time>2026-03-25T08:13:33Z</time>
      </trkpt>
      <trkpt lat="44.71161" lon="6.84949">
        <ele>1773.6</ele>
        <time>2026-03-25T08:13:34Z</time>
      </trkpt>
      <trkpt lat="44.7116" lon="6.84949">
        <ele>1773.6</ele>
        <time>2026-03-25T08:13:35Z</time>
      </trkpt>
      <trkpt lat="44.71159" lon="6.84949">
        <ele>1773.6</ele>
        <time>2026-03-25T08:13:36Z</time>
      </trkpt>
      <trkpt lat="44.71159" lon="6.84949">
        <ele>1773.7</ele>
        <time>2026-03-25T08:13:37Z</time>
      </trkpt>
      <trkpt lat="44.71159" lon="6.84948">
        <ele>1773.7</ele>
        <time>2026-03-25T08:13:38Z</time>
      </trkpt>
      <trkpt lat="44.7116" lon="6.84949">
        <ele>1773.7</ele>
        <time>2026-03-25T08:13:39Z</time>
      </trkpt>
      <trkpt lat="44.7116" lon="6.84951">
        <ele>1774.8</ele>
        <time>2026-03-25T08:13:40Z</time>
      </trkpt>
      <trkpt lat="44.71159" lon="6.84952">
        <ele>1774.8</ele>
        <time>2026-03-25T08:13:41Z</time>
      </trkpt>
      <trkpt lat="44.71159" lon="6.84953">
        <ele>1774.8</ele>
        <time>2026-03-25T08:13:42Z</time>
      </trkpt>
      <trkpt lat="44.71161" lon="6.84954">
        <ele>1774.8</ele>
        <time>2026-03-25T08:13:43Z</time>
      </trkpt>
      <trkpt lat="44.71162" lon="6.84955">
        <ele>1775.8</ele>
        <time>2026-03-25T08:13:44Z</time>
      </trkpt>
      <trkpt lat="44.71164" lon="6.84956">
        <ele>1775.8</ele>
        <time>2026-03-25T08:13:45Z</time>
      </trkpt>
      <trkpt lat="44.71166" lon="6.84956">
        <ele>1775.8</ele>
        <time>2026-03-25T08:13:46Z</time>
      </trkpt>
      <trkpt lat="44.71168" lon="6.84957">
        <ele>1775.7</ele>
        <time>2026-03-25T08:13:47Z</time>
      </trkpt>
      <trkpt lat="44.71168" lon="6.84957">
        <ele>1775.7</ele>
        <time>2026-03-25T08:13:48Z</time>
      </trkpt>
      <trkpt lat="44.71168" lon="6.84956">
        <ele>1775.7</ele>
        <time>2026-03-25T08:13:49Z</time>
      </trkpt>
      <trkpt lat="44.71168" lon="6.84956">
        <ele>1775.8</ele>
        <time>2026-03-25T08:13:50Z</time>
      </trkpt>
      <trkpt lat="44.71168" lon="6.84954">
        <ele>1774.7</ele>
        <time>2026-03-25T08:13:51Z</time>
      </trkpt>
      <trkpt lat="44.71168" lon="6.84953">
        <ele>1774.7</ele>
        <time>2026-03-25T08:13:52Z</time>
      </trkpt>
      <trkpt lat="44.71167" lon="6.84951">
        <ele>1774.7</ele>
        <time>2026-03-25T08:13:53Z</time>
      </trkpt>
      <trkpt lat="44.71167" lon="6.84948">
        <ele>1773.7</ele>
        <time>2026-03-25T08:13:54Z</time>
      </trkpt>
      <trkpt lat="44.71167" lon="6.84947">
        <ele>1773.8</ele>
        <time>2026-03-25T08:13:55Z</time>
      </trkpt>
      <trkpt lat="44.71167" lon="6.84946">
        <ele>1772.7</ele>
        <time>2026-03-25T08:13:56Z</time>
      </trkpt>
      <trkpt lat="44.71167" lon="6.84946">
        <ele>1772.7</ele>
        <time>2026-03-25T08:13:57Z</time>
      </trkpt>
      <trkpt lat="44.71167" lon="6.84945">
        <ele>1772.8</ele>
        <time>2026-03-25T08:13:58Z</time>
      </trkpt>
      <trkpt lat="44.71167" lon="6.84945">
        <ele>1772.8</ele>
        <time>2026-03-25T08:13:59Z</time>
      </trkpt>
      <trkpt lat="44.71166" lon="6.84944">
        <ele>1772.8</ele>
        <time>2026-03-25T08:14:00Z</time>
      </trkpt>
      <trkpt lat="44.71166" lon="6.84944">
        <ele>1772.8</ele>
        <time>2026-03-25T08:14:01Z</time>
      </trkpt>
      <trkpt lat="44.71166" lon="6.84944">
        <ele>1772.8</ele>
        <time>2026-03-25T08:14:02Z</time>
      </trkpt>
      <trkpt lat="44.71166" lon="6.84943">
        <ele>1772.8</ele>
        <time>2026-03-25T08:14:03Z</time>
      </trkpt>
      <trkpt lat="44.71166" lon="6.84942">
        <ele>1772.8</ele>
        <time>2026-03-25T08:14:04Z</time>
      </trkpt>
      <trkpt lat="44.71166" lon="6.84942">
        <ele>1771.8</ele>
        <time>2026-03-25T08:14:05Z</time>
      </trkpt>
      <trkpt lat="44.71166" lon="6.84941">
        <ele>1771.9</ele>
        <time>2026-03-25T08:14:06Z</time>
      </trkpt>
      <trkpt lat="44.71166" lon="6.8494">
        <ele>1771.9</ele>
        <time>2026-03-25T08:14:07Z</time>
      </trkpt>
      <trkpt lat="44.71166" lon="6.8494">
        <ele>1771.9</ele>
        <time>2026-03-25T08:14:08Z</time>
      </trkpt>
      <trkpt lat="44.71166" lon="6.84939">
        <ele>1771.9</ele>
        <time>2026-03-25T08:14:09Z</time>
      </trkpt>
      <trkpt lat="44.71166" lon="6.84939">
        <ele>1771.9</ele>
        <time>2026-03-25T08:14:10Z</time>
      </trkpt>
      <trkpt lat="44.71166" lon="6.84938">
        <ele>1771.9</ele>
        <time>2026-03-25T08:14:11Z</time>
      </trkpt>
      <trkpt lat="44.71166" lon="6.84938">
        <ele>1771.9</ele>
        <time>2026-03-25T08:14:12Z</time>
      </trkpt>
      <trkpt lat="44.71167" lon="6.84937">
        <ele>1771</ele>
        <time>2026-03-25T08:14:13Z</time>
      </trkpt>
      <trkpt lat="44.71167" lon="6.84936">
        <ele>1771</ele>
        <time>2026-03-25T08:14:14Z</time>
      </trkpt>
      <trkpt lat="44.71167" lon="6.84934">
        <ele>1771</ele>
        <time>2026-03-25T08:14:15Z</time>
      </trkpt>
      <trkpt lat="44.71167" lon="6.84933">
        <ele>1770.1</ele>
        <time>2026-03-25T08:14:16Z</time>
      </trkpt>
      <trkpt lat="44.71166" lon="6.84931">
        <ele>1770.1</ele>
        <time>2026-03-25T08:14:17Z</time>
      </trkpt>
      <trkpt lat="44.71166" lon="6.8493">
        <ele>1770.1</ele>
        <time>2026-03-25T08:14:18Z</time>
      </trkpt>
      <trkpt lat="44.71166" lon="6.84928">
        <ele>1769.3</ele>
        <time>2026-03-25T08:14:19Z</time>
      </trkpt>
      <trkpt lat="44.71165" lon="6.84927">
        <ele>1769.3</ele>
        <time>2026-03-25T08:14:20Z</time>
      </trkpt>
      <trkpt lat="44.71165" lon="6.84927">
        <ele>1769.3</ele>
        <time>2026-03-25T08:14:21Z</time>
      </trkpt>
      <trkpt lat="44.71165" lon="6.84926">
        <ele>1769.3</ele>
        <time>2026-03-25T08:14:22Z</time>
      </trkpt>
      <trkpt lat="44.71165" lon="6.84926">
        <ele>1769.3</ele>
        <time>2026-03-25T08:14:23Z</time>
      </trkpt>
      <trkpt lat="44.71165" lon="6.84926">
        <ele>1769.3</ele>
        <time>2026-03-25T08:14:24Z</time>
      </trkpt>
      <trkpt lat="44.71165" lon="6.84926">
        <ele>1769.4</ele>
        <time>2026-03-25T08:14:25Z</time>
      </trkpt>
      <trkpt lat="44.71165" lon="6.84927">
        <ele>1769.4</ele>
        <time>2026-03-25T08:14:26Z</time>
      </trkpt>
      <trkpt lat="44.71165" lon="6.84927">
        <ele>1769.4</ele>
        <time>2026-03-25T08:14:27Z</time>
      </trkpt>
      <trkpt lat="44.71165" lon="6.84927">
        <ele>1769.4</ele>
        <time>2026-03-25T08:14:28Z</time>
      </trkpt>
      <trkpt lat="44.71165" lon="6.84927">
        <ele>1769.4</ele>
        <time>2026-03-25T08:14:29Z</time>
      </trkpt>
      <trkpt lat="44.71165" lon="6.84927">
        <ele>1769.4</ele>
        <time>2026-03-25T08:14:30Z</time>
      </trkpt>
      <trkpt lat="44.71165" lon="6.84926">
        <ele>1769.4</ele>
        <time>2026-03-25T08:14:31Z</time>
      </trkpt>
      <trkpt lat="44.71165" lon="6.84927">
        <ele>1769.5</ele>
        <time>2026-03-25T08:14:32Z</time>
      </trkpt>
      <trkpt lat="44.71165" lon="6.84926">
        <ele>1769.5</ele>
        <time>2026-03-25T08:14:33Z</time>
      </trkpt>
      <trkpt lat="44.71164" lon="6.84926">
        <ele>1769.5</ele>
        <time>2026-03-25T08:14:34Z</time>
      </trkpt>
      <trkpt lat="44.71164" lon="6.84926">
        <ele>1769.6</ele>
        <time>2026-03-25T08:14:35Z</time>
      </trkpt>
      <trkpt lat="44.71164" lon="6.84926">
        <ele>1769.6</ele>
        <time>2026-03-25T08:14:36Z</time>
      </trkpt>
      <trkpt lat="44.71164" lon="6.84926">
        <ele>1769.6</ele>
        <time>2026-03-25T08:14:37Z</time>
      </trkpt>
      <trkpt lat="44.71164" lon="6.84926">
        <ele>1769.6</ele>
        <time>2026-03-25T08:14:38Z</time>
      </trkpt>
      <trkpt lat="44.71164" lon="6.84926">
        <ele>1769.6</ele>
        <time>2026-03-25T08:14:39Z</time>
      </trkpt>
      <trkpt lat="44.71164" lon="6.84926">
        <ele>1769.6</ele>
        <time>2026-03-25T08:14:40Z</time>
      </trkpt>
      <trkpt lat="44.71164" lon="6.84926">
        <ele>1769.7</ele>
        <time>2026-03-25T08:14:41Z</time>
      </trkpt>
      <trkpt lat="44.71163" lon="6.84925">
        <ele>1769.7</ele>
        <time>2026-03-25T08:14:42Z</time>
      </trkpt>
      <trkpt lat="44.71163" lon="6.84925">
        <ele>1769.7</ele>
        <time>2026-03-25T08:14:43Z</time>
      </trkpt>
      <trkpt lat="44.71163" lon="6.84925">
        <ele>1769.7</ele>
        <time>2026-03-25T08:14:44Z</time>
      </trkpt>
      <trkpt lat="44.71163" lon="6.84924">
        <ele>1768.8</ele>
        <time>2026-03-25T08:14:45Z</time>
      </trkpt>
      <trkpt lat="44.71163" lon="6.84923">
        <ele>1768.9</ele>
        <time>2026-03-25T08:14:46Z</time>
      </trkpt>
      <trkpt lat="44.71162" lon="6.84922">
        <ele>1768.9</ele>
        <time>2026-03-25T08:14:47Z</time>
      </trkpt>
      <trkpt lat="44.71162" lon="6.84921">
        <ele>1768.9</ele>
        <time>2026-03-25T08:14:48Z</time>
      </trkpt>
      <trkpt lat="44.71158" lon="6.84921">
        <ele>1769</ele>
        <time>2026-03-25T08:14:49Z</time>
      </trkpt>
      <trkpt lat="44.71157" lon="6.8492">
        <ele>1768.2</ele>
        <time>2026-03-25T08:14:50Z</time>
      </trkpt>
      <trkpt lat="44.71157" lon="6.84919">
        <ele>1768.2</ele>
        <time>2026-03-25T08:14:51Z</time>
      </trkpt>
      <trkpt lat="44.71156" lon="6.84918">
        <ele>1768.2</ele>
        <time>2026-03-25T08:14:52Z</time>
      </trkpt>
      <trkpt lat="44.71155" lon="6.84917">
        <ele>1768.2</ele>
        <time>2026-03-25T08:14:53Z</time>
      </trkpt>
      <trkpt lat="44.71154" lon="6.84916">
        <ele>1768.3</ele>
        <time>2026-03-25T08:14:54Z</time>
      </trkpt>
      <trkpt lat="44.71154" lon="6.84916">
        <ele>1767.4</ele>
        <time>2026-03-25T08:14:55Z</time>
      </trkpt>
      <trkpt lat="44.71153" lon="6.84915">
        <ele>1767.4</ele>
        <time>2026-03-25T08:14:56Z</time>
      </trkpt>
      <trkpt lat="44.71152" lon="6.84915">
        <ele>1767.4</ele>
        <time>2026-03-25T08:14:57Z</time>
      </trkpt>
      <trkpt lat="44.71151" lon="6.84914">
        <ele>1767.5</ele>
        <time>2026-03-25T08:14:58Z</time>
      </trkpt>
      <trkpt lat="44.7115" lon="6.84914">
        <ele>1767.5</ele>
        <time>2026-03-25T08:14:59Z</time>
      </trkpt>
      <trkpt lat="44.7115" lon="6.84912">
        <ele>1766.7</ele>
        <time>2026-03-25T08:15:00Z</time>
      </trkpt>
      <trkpt lat="44.71149" lon="6.8491">
        <ele>1766.7</ele>
        <time>2026-03-25T08:15:01Z</time>
      </trkpt>
      <trkpt lat="44.71148" lon="6.8491">
        <ele>1766.8</ele>
        <time>2026-03-25T08:15:02Z</time>
      </trkpt>
      <trkpt lat="44.71148" lon="6.84909">
        <ele>1766.8</ele>
        <time>2026-03-25T08:15:03Z</time>
      </trkpt>
      <trkpt lat="44.71147" lon="6.84908">
        <ele>1766.8</ele>
        <time>2026-03-25T08:15:04Z</time>
      </trkpt>
      <trkpt lat="44.71147" lon="6.84909">
        <ele>1766.8</ele>
        <time>2026-03-25T08:15:05Z</time>
      </trkpt>
      <trkpt lat="44.71147" lon="6.84909">
        <ele>1766.9</ele>
        <time>2026-03-25T08:15:06Z</time>
      </trkpt>
      <trkpt lat="44.71147" lon="6.8491">
        <ele>1766.9</ele>
        <time>2026-03-25T08:15:07Z</time>
      </trkpt>
      <trkpt lat="44.71146" lon="6.8491">
        <ele>1766.9</ele>
        <time>2026-03-25T08:15:08Z</time>
      </trkpt>
      <trkpt lat="44.71146" lon="6.84911">
        <ele>1766.9</ele>
        <time>2026-03-25T08:15:09Z</time>
      </trkpt>
      <trkpt lat="44.71146" lon="6.84912">
        <ele>1767.7</ele>
        <time>2026-03-25T08:15:10Z</time>
      </trkpt>
      <trkpt lat="44.71146" lon="6.84912">
        <ele>1767</ele>
        <time>2026-03-25T08:15:11Z</time>
      </trkpt>
      <trkpt lat="44.71146" lon="6.84912">
        <ele>1767.8</ele>
        <time>2026-03-25T08:15:12Z</time>
      </trkpt>
      <trkpt lat="44.71147" lon="6.84913">
        <ele>1767.8</ele>
        <time>2026-03-25T08:15:13Z</time>
      </trkpt>
      <trkpt lat="44.71148" lon="6.84914">
        <ele>1767.8</ele>
        <time>2026-03-25T08:15:14Z</time>
      </trkpt>
      <trkpt lat="44.71149" lon="6.84915">
        <ele>1767.7</ele>
        <time>2026-03-25T08:15:15Z</time>
      </trkpt>
      <trkpt lat="44.71149" lon="6.84915">
        <ele>1767.8</ele>
        <time>2026-03-25T08:15:16Z</time>
      </trkpt>
      <trkpt lat="44.7115" lon="6.84916">
        <ele>1767.8</ele>
        <time>2026-03-25T08:15:17Z</time>
      </trkpt>
      <trkpt lat="44.7115" lon="6.84916">
        <ele>1767.8</ele>
        <time>2026-03-25T08:15:18Z</time>
      </trkpt>
      <trkpt lat="44.7115" lon="6.84916">
        <ele>1767.8</ele>
        <time>2026-03-25T08:15:19Z</time>
      </trkpt>
      <trkpt lat="44.7115" lon="6.84915">
        <ele>1767.8</ele>
        <time>2026-03-25T08:15:20Z</time>
      </trkpt>
      <trkpt lat="44.7115" lon="6.84915">
        <ele>1767.8</ele>
        <time>2026-03-25T08:15:21Z</time>
      </trkpt>
      <trkpt lat="44.7115" lon="6.84915">
        <ele>1767.8</ele>
        <time>2026-03-25T08:15:22Z</time>
      </trkpt>
      <trkpt lat="44.7115" lon="6.84915">
        <ele>1767.9</ele>
        <time>2026-03-25T08:15:23Z</time>
      </trkpt>
      <trkpt lat="44.7115" lon="6.84914">
        <ele>1767.9</ele>
        <time>2026-03-25T08:15:24Z</time>
      </trkpt>
      <trkpt lat="44.7115" lon="6.84914">
        <ele>1767.9</ele>
        <time>2026-03-25T08:15:25Z</time>
      </trkpt>
      <trkpt lat="44.7115" lon="6.84913">
        <ele>1767.9</ele>
        <time>2026-03-25T08:15:26Z</time>
      </trkpt>
      <trkpt lat="44.7115" lon="6.84913">
        <ele>1767.9</ele>
        <time>2026-03-25T08:15:27Z</time>
      </trkpt>
      <trkpt lat="44.7115" lon="6.84913">
        <ele>1767.9</ele>
        <time>2026-03-25T08:15:28Z</time>
      </trkpt>
      <trkpt lat="44.7115" lon="6.84912">
        <ele>1767.9</ele>
        <time>2026-03-25T08:15:29Z</time>
      </trkpt>
      <trkpt lat="44.7115" lon="6.84912">
        <ele>1768</ele>
        <time>2026-03-25T08:15:30Z</time>
      </trkpt>
      <trkpt lat="44.71149" lon="6.84911">
        <ele>1767.2</ele>
        <time>2026-03-25T08:15:31Z</time>
      </trkpt>
      <trkpt lat="44.71149" lon="6.84911">
        <ele>1767.2</ele>
        <time>2026-03-25T08:15:32Z</time>
      </trkpt>
      <trkpt lat="44.71149" lon="6.8491">
        <ele>1767.2</ele>
        <time>2026-03-25T08:15:33Z</time>
      </trkpt>
      <trkpt lat="44.71149" lon="6.8491">
        <ele>1767.2</ele>
        <time>2026-03-25T08:15:34Z</time>
      </trkpt>
      <trkpt lat="44.71149" lon="6.8491">
        <ele>1767.2</ele>
        <time>2026-03-25T08:15:35Z</time>
      </trkpt>
      <trkpt lat="44.71149" lon="6.84911">
        <ele>1767.3</ele>
        <time>2026-03-25T08:15:36Z</time>
      </trkpt>
      <trkpt lat="44.71149" lon="6.84912">
        <ele>1768.1</ele>
        <time>2026-03-25T08:15:37Z</time>
      </trkpt>
      <trkpt lat="44.71149" lon="6.84912">
        <ele>1768.1</ele>
        <time>2026-03-25T08:15:38Z</time>
      </trkpt>
      <trkpt lat="44.71148" lon="6.84913">
        <ele>1768.1</ele>
        <time>2026-03-25T08:15:39Z</time>
      </trkpt>
      <trkpt lat="44.71148" lon="6.84914">
        <ele>1768.2</ele>
        <time>2026-03-25T08:15:40Z</time>
      </trkpt>
      <trkpt lat="44.71148" lon="6.84914">
        <ele>1768.2</ele>
        <time>2026-03-25T08:15:41Z</time>
      </trkpt>
      <trkpt lat="44.71148" lon="6.84914">
        <ele>1768.2</ele>
        <time>2026-03-25T08:15:42Z</time>
      </trkpt>
      <trkpt lat="44.71149" lon="6.84912">
        <ele>1768.2</ele>
        <time>2026-03-25T08:15:43Z</time>
      </trkpt>
      <trkpt lat="44.71149" lon="6.84912">
        <ele>1768.2</ele>
        <time>2026-03-25T08:15:44Z</time>
      </trkpt>
      <trkpt lat="44.71149" lon="6.84912">
        <ele>1768.2</ele>
        <time>2026-03-25T08:15:45Z</time>
      </trkpt>
      <trkpt lat="44.71151" lon="6.84913">
        <ele>1768.2</ele>
        <time>2026-03-25T08:15:46Z</time>
      </trkpt>
      <trkpt lat="44.71151" lon="6.84913">
        <ele>1768.2</ele>
        <time>2026-03-25T08:15:47Z</time>
      </trkpt>
      <trkpt lat="44.71152" lon="6.84912">
        <ele>1768.2</ele>
        <time>2026-03-25T08:15:48Z</time>
      </trkpt>
      <trkpt lat="44.71153" lon="6.84911">
        <ele>1767.4</ele>
        <time>2026-03-25T08:15:49Z</time>
      </trkpt>
      <trkpt lat="44.71153" lon="6.84911">
        <ele>1767.4</ele>
        <time>2026-03-25T08:15:50Z</time>
      </trkpt>
      <trkpt lat="44.71153" lon="6.8491">
        <ele>1767.4</ele>
        <time>2026-03-25T08:15:51Z</time>
      </trkpt>
      <trkpt lat="44.71153" lon="6.8491">
        <ele>1767.4</ele>
        <time>2026-03-25T08:15:52Z</time>
      </trkpt>
      <trkpt lat="44.71153" lon="6.84909">
        <ele>1767.4</ele>
        <time>2026-03-25T08:15:53Z</time>
      </trkpt>
      <trkpt lat="44.71153" lon="6.84908">
        <ele>1767.4</ele>
        <time>2026-03-25T08:15:54Z</time>
      </trkpt>
      <trkpt lat="44.71153" lon="6.84907">
        <ele>1766.7</ele>
        <time>2026-03-25T08:15:55Z</time>
      </trkpt>
      <trkpt lat="44.71152" lon="6.84907">
        <ele>1766.7</ele>
        <time>2026-03-25T08:15:56Z</time>
      </trkpt>
      <trkpt lat="44.71152" lon="6.84906">
        <ele>1766.7</ele>
        <time>2026-03-25T08:15:57Z</time>
      </trkpt>
      <trkpt lat="44.71152" lon="6.84905">
        <ele>1766.7</ele>
        <time>2026-03-25T08:15:58Z</time>
      </trkpt>
      <trkpt lat="44.71152" lon="6.84904">
        <ele>1766.8</ele>
        <time>2026-03-25T08:15:59Z</time>
      </trkpt>
      <trkpt lat="44.71152" lon="6.84904">
        <ele>1766.8</ele>
        <time>2026-03-25T08:16:00Z</time>
      </trkpt>
      <trkpt lat="44.71152" lon="6.84905">
        <ele>1766.8</ele>
        <time>2026-03-25T08:16:01Z</time>
      </trkpt>
      <trkpt lat="44.71153" lon="6.84905">
        <ele>1766.8</ele>
        <time>2026-03-25T08:16:02Z</time>
      </trkpt>
      <trkpt lat="44.71152" lon="6.84906">
        <ele>1766.8</ele>
        <time>2026-03-25T08:16:03Z</time>
      </trkpt>
      <trkpt lat="44.71152" lon="6.84906">
        <ele>1766.8</ele>
        <time>2026-03-25T08:16:04Z</time>
      </trkpt>
      <trkpt lat="44.71152" lon="6.84906">
        <ele>1766.8</ele>
        <time>2026-03-25T08:16:05Z</time>
      </trkpt>
      <trkpt lat="44.71152" lon="6.84906">
        <ele>1766.9</ele>
        <time>2026-03-25T08:16:06Z</time>
      </trkpt>
      <trkpt lat="44.71152" lon="6.84905">
        <ele>1766.9</ele>
        <time>2026-03-25T08:16:07Z</time>
      </trkpt>
      <trkpt lat="44.71153" lon="6.84904">
        <ele>1766.9</ele>
        <time>2026-03-25T08:16:08Z</time>
      </trkpt>
      <trkpt lat="44.71152" lon="6.84903">
        <ele>1766.2</ele>
        <time>2026-03-25T08:16:09Z</time>
      </trkpt>
      <trkpt lat="44.71152" lon="6.84902">
        <ele>1766.3</ele>
        <time>2026-03-25T08:16:10Z</time>
      </trkpt>
      <trkpt lat="44.71151" lon="6.84901">
        <ele>1766.3</ele>
        <time>2026-03-25T08:16:11Z</time>
      </trkpt>
      <trkpt lat="44.7115" lon="6.849">
        <ele>1766.3</ele>
        <time>2026-03-25T08:16:12Z</time>
      </trkpt>
      <trkpt lat="44.7115" lon="6.84899">
        <ele>1766.3</ele>
        <time>2026-03-25T08:16:13Z</time>
      </trkpt>
      <trkpt lat="44.71151" lon="6.849">
        <ele>1766.4</ele>
        <time>2026-03-25T08:16:14Z</time>
      </trkpt>
      <trkpt lat="44.71151" lon="6.849">
        <ele>1766.4</ele>
        <time>2026-03-25T08:16:15Z</time>
      </trkpt>
      <trkpt lat="44.71151" lon="6.849">
        <ele>1766.4</ele>
        <time>2026-03-25T08:16:16Z</time>
      </trkpt>
      <trkpt lat="44.71151" lon="6.849">
        <ele>1766.4</ele>
        <time>2026-03-25T08:16:17Z</time>
      </trkpt>
      <trkpt lat="44.71151" lon="6.849">
        <ele>1766.4</ele>
        <time>2026-03-25T08:16:20Z</time>
      </trkpt>
      <trkpt lat="44.71151" lon="6.84901">
        <ele>1766.4</ele>
        <time>2026-03-25T08:16:21Z</time>
      </trkpt>
      <trkpt lat="44.71152" lon="6.849">
        <ele>1766.4</ele>
        <time>2026-03-25T08:16:23Z</time>
      </trkpt>
      <trkpt lat="44.71152" lon="6.84899">
        <ele>1766.4</ele>
        <time>2026-03-25T08:16:26Z</time>
      </trkpt>
      <trkpt lat="44.71152" lon="6.849">
        <ele>1766.4</ele>
        <time>2026-03-25T08:16:27Z</time>
      </trkpt>
      <trkpt lat="44.71155" lon="6.84904">
        <ele>1767.1</ele>
        <time>2026-03-25T08:16:29Z</time>
      </trkpt>
      <trkpt lat="44.71155" lon="6.84905">
        <ele>1767.1</ele>
        <time>2026-03-25T08:16:30Z</time>
      </trkpt>
      <trkpt lat="44.71154" lon="6.84903">
        <ele>1766.5</ele>
        <time>2026-03-25T08:16:31Z</time>
      </trkpt>
      <trkpt lat="44.71153" lon="6.84902">
        <ele>1766.5</ele>
        <time>2026-03-25T08:16:32Z</time>
      </trkpt>
      <trkpt lat="44.71151" lon="6.849">
        <ele>1766.5</ele>
        <time>2026-03-25T08:16:33Z</time>
      </trkpt>
      <trkpt lat="44.7115" lon="6.849">
        <ele>1766.6</ele>
        <time>2026-03-25T08:16:34Z</time>
      </trkpt>
      <trkpt lat="44.71151" lon="6.84901">
        <ele>1766.6</ele>
        <time>2026-03-25T08:16:35Z</time>
      </trkpt>
      <trkpt lat="44.7115" lon="6.849">
        <ele>1766.6</ele>
        <time>2026-03-25T08:16:36Z</time>
      </trkpt>
      <trkpt lat="44.71149" lon="6.84899">
        <ele>1766.6</ele>
        <time>2026-03-25T08:16:37Z</time>
      </trkpt>
      <trkpt lat="44.71149" lon="6.84899">
        <ele>1766.7</ele>
        <time>2026-03-25T08:16:38Z</time>
      </trkpt>
      <trkpt lat="44.71148" lon="6.84899">
        <ele>1766.1</ele>
        <time>2026-03-25T08:16:39Z</time>
      </trkpt>
      <trkpt lat="44.71148" lon="6.84898">
        <ele>1766.2</ele>
        <time>2026-03-25T08:16:40Z</time>
      </trkpt>
      <trkpt lat="44.71147" lon="6.84898">
        <ele>1766.2</ele>
        <time>2026-03-25T08:16:41Z</time>
      </trkpt>
      <trkpt lat="44.71148" lon="6.84898">
        <ele>1766.2</ele>
        <time>2026-03-25T08:16:42Z</time>
      </trkpt>
      <trkpt lat="44.71147" lon="6.84897">
        <ele>1766.2</ele>
        <time>2026-03-25T08:16:43Z</time>
      </trkpt>
      <trkpt lat="44.71147" lon="6.84896">
        <ele>1766.2</ele>
        <time>2026-03-25T08:16:44Z</time>
      </trkpt>
      <trkpt lat="44.71146" lon="6.84895">
        <ele>1766.2</ele>
        <time>2026-03-25T08:16:45Z</time>
      </trkpt>
      <trkpt lat="44.71145" lon="6.84895">
        <ele>1766.3</ele>
        <time>2026-03-25T08:16:46Z</time>
      </trkpt>
      <trkpt lat="44.71145" lon="6.84894">
        <ele>1765.9</ele>
        <time>2026-03-25T08:16:47Z</time>
      </trkpt>
      <trkpt lat="44.71144" lon="6.84893">
        <ele>1765.9</ele>
        <time>2026-03-25T08:16:48Z</time>
      </trkpt>
      <trkpt lat="44.71144" lon="6.84893">
        <ele>1765.9</ele>
        <time>2026-03-25T08:16:49Z</time>
      </trkpt>
      <trkpt lat="44.71143" lon="6.84891">
        <ele>1766</ele>
        <time>2026-03-25T08:16:50Z</time>
      </trkpt>
      <trkpt lat="44.71142" lon="6.8489">
        <ele>1766.1</ele>
        <time>2026-03-25T08:16:51Z</time>
      </trkpt>
      <trkpt lat="44.71141" lon="6.8489">
        <ele>1765.8</ele>
        <time>2026-03-25T08:16:52Z</time>
      </trkpt>
      <trkpt lat="44.71141" lon="6.84889">
        <ele>1765.8</ele>
        <time>2026-03-25T08:16:53Z</time>
      </trkpt>
      <trkpt lat="44.71141" lon="6.84889">
        <ele>1765.8</ele>
        <time>2026-03-25T08:16:54Z</time>
      </trkpt>
      <trkpt lat="44.7114" lon="6.84889">
        <ele>1765.8</ele>
        <time>2026-03-25T08:16:55Z</time>
      </trkpt>
      <trkpt lat="44.7114" lon="6.84888">
        <ele>1765.8</ele>
        <time>2026-03-25T08:16:56Z</time>
      </trkpt>
      <trkpt lat="44.7114" lon="6.84888">
        <ele>1765.9</ele>
        <time>2026-03-25T08:16:57Z</time>
      </trkpt>
      <trkpt lat="44.7114" lon="6.84888">
        <ele>1765.9</ele>
        <time>2026-03-25T08:16:58Z</time>
      </trkpt>
      <trkpt lat="44.71139" lon="6.84887">
        <ele>1766</ele>
        <time>2026-03-25T08:16:59Z</time>
      </trkpt>
      <trkpt lat="44.71139" lon="6.84886">
        <ele>1766</ele>
        <time>2026-03-25T08:17:00Z</time>
      </trkpt>
      <trkpt lat="44.71139" lon="6.84886">
        <ele>1765.8</ele>
        <time>2026-03-25T08:17:01Z</time>
      </trkpt>
      <trkpt lat="44.71138" lon="6.84885">
        <ele>1765.8</ele>
        <time>2026-03-25T08:17:02Z</time>
      </trkpt>
      <trkpt lat="44.71138" lon="6.84884">
        <ele>1765.9</ele>
        <time>2026-03-25T08:17:03Z</time>
      </trkpt>
      <trkpt lat="44.71139" lon="6.84884">
        <ele>1765.9</ele>
        <time>2026-03-25T08:17:04Z</time>
      </trkpt>
      <trkpt lat="44.71137" lon="6.84882">
        <ele>1765.7</ele>
        <time>2026-03-25T08:17:05Z</time>
      </trkpt>
      <trkpt lat="44.71136" lon="6.84878">
        <ele>1765.9</ele>
        <time>2026-03-25T08:17:06Z</time>
      </trkpt>
      <trkpt lat="44.71135" lon="6.84875">
        <ele>1765.8</ele>
        <time>2026-03-25T08:17:08Z</time>
      </trkpt>
      <trkpt lat="44.71134" lon="6.84873">
        <ele>1765.7</ele>
        <time>2026-03-25T08:17:09Z</time>
      </trkpt>
      <trkpt lat="44.71133" lon="6.84871">
        <ele>1765.9</ele>
        <time>2026-03-25T08:17:10Z</time>
      </trkpt>
      <trkpt lat="44.71132" lon="6.84868">
        <ele>1765.8</ele>
        <time>2026-03-25T08:17:11Z</time>
      </trkpt>
      <trkpt lat="44.71131" lon="6.84867">
        <ele>1765.8</ele>
        <time>2026-03-25T08:17:12Z</time>
      </trkpt>
      <trkpt lat="44.7113" lon="6.84866">
        <ele>1766</ele>
        <time>2026-03-25T08:17:13Z</time>
      </trkpt>
      <trkpt lat="44.7113" lon="6.84865">
        <ele>1765.9</ele>
        <time>2026-03-25T08:17:15Z</time>
      </trkpt>
      <trkpt lat="44.71129" lon="6.84864">
        <ele>1765.9</ele>
        <time>2026-03-25T08:17:16Z</time>
      </trkpt>
      <trkpt lat="44.71122" lon="6.84861">
        <ele>1766.2</ele>
        <time>2026-03-25T08:17:17Z</time>
      </trkpt>
      <trkpt lat="44.71115" lon="6.84859">
        <ele>1766.6</ele>
        <time>2026-03-25T08:17:18Z</time>
      </trkpt>
      <trkpt lat="44.71108" lon="6.84858">
        <ele>1766.9</ele>
        <time>2026-03-25T08:17:19Z</time>
      </trkpt>
      <trkpt lat="44.71102" lon="6.84856">
        <ele>1767</ele>
        <time>2026-03-25T08:17:20Z</time>
      </trkpt>
      <trkpt lat="44.711" lon="6.84855">
        <ele>1767.1</ele>
        <time>2026-03-25T08:17:21Z</time>
      </trkpt>
      <trkpt lat="44.71099" lon="6.84854">
        <ele>1767.1</ele>
        <time>2026-03-25T08:17:22Z</time>
      </trkpt>
      <trkpt lat="44.71097" lon="6.84853">
        <ele>1767.2</ele>
        <time>2026-03-25T08:17:23Z</time>
      </trkpt>
      <trkpt lat="44.71095" lon="6.84852">
        <ele>1767.3</ele>
        <time>2026-03-25T08:17:24Z</time>
      </trkpt>
      <trkpt lat="44.71092" lon="6.84851">
        <ele>1767.3</ele>
        <time>2026-03-25T08:17:26Z</time>
      </trkpt>
      <trkpt lat="44.71092" lon="6.8485">
        <ele>1767.3</ele>
        <time>2026-03-25T08:17:27Z</time>
      </trkpt>
      <trkpt lat="44.71091" lon="6.8485">
        <ele>1767.3</ele>
        <time>2026-03-25T08:17:28Z</time>
      </trkpt>
      <trkpt lat="44.7109" lon="6.8485">
        <ele>1767.4</ele>
        <time>2026-03-25T08:17:29Z</time>
      </trkpt>
      <trkpt lat="44.71089" lon="6.84849">
        <ele>1767.4</ele>
        <time>2026-03-25T08:17:30Z</time>
      </trkpt>
      <trkpt lat="44.71087" lon="6.84848">
        <ele>1767.5</ele>
        <time>2026-03-25T08:17:31Z</time>
      </trkpt>
      <trkpt lat="44.71085" lon="6.84848">
        <ele>1767.5</ele>
        <time>2026-03-25T08:17:33Z</time>
      </trkpt>
      <trkpt lat="44.71083" lon="6.84846">
        <ele>1767.7</ele>
        <time>2026-03-25T08:17:34Z</time>
      </trkpt>
      <trkpt lat="44.71082" lon="6.84846">
        <ele>1767.7</ele>
        <time>2026-03-25T08:17:35Z</time>
      </trkpt>
      <trkpt lat="44.71081" lon="6.84845">
        <ele>1767.8</ele>
        <time>2026-03-25T08:17:36Z</time>
      </trkpt>
      <trkpt lat="44.71079" lon="6.84844">
        <ele>1767.8</ele>
        <time>2026-03-25T08:17:38Z</time>
      </trkpt>
      <trkpt lat="44.71079" lon="6.84843">
        <ele>1768</ele>
        <time>2026-03-25T08:17:39Z</time>
      </trkpt>
      <trkpt lat="44.71077" lon="6.84842">
        <ele>1768</ele>
        <time>2026-03-25T08:17:40Z</time>
      </trkpt>
      <trkpt lat="44.71075" lon="6.8484">
        <ele>1768.1</ele>
        <time>2026-03-25T08:17:42Z</time>
      </trkpt>
      <trkpt lat="44.71074" lon="6.8484">
        <ele>1768.1</ele>
        <time>2026-03-25T08:17:43Z</time>
      </trkpt>
      <trkpt lat="44.71073" lon="6.8484">
        <ele>1768.1</ele>
        <time>2026-03-25T08:17:44Z</time>
      </trkpt>
      <trkpt lat="44.71071" lon="6.84839">
        <ele>1768.4</ele>
        <time>2026-03-25T08:17:45Z</time>
      </trkpt>
      <trkpt lat="44.7107" lon="6.84838">
        <ele>1768.4</ele>
        <time>2026-03-25T08:17:46Z</time>
      </trkpt>
      <trkpt lat="44.71069" lon="6.84838">
        <ele>1768.5</ele>
        <time>2026-03-25T08:17:47Z</time>
      </trkpt>
      <trkpt lat="44.71067" lon="6.84837">
        <ele>1768.5</ele>
        <time>2026-03-25T08:17:48Z</time>
      </trkpt>
      <trkpt lat="44.71065" lon="6.84836">
        <ele>1768.6</ele>
        <time>2026-03-25T08:17:50Z</time>
      </trkpt>
      <trkpt lat="44.71064" lon="6.84836">
        <ele>1768.6</ele>
        <time>2026-03-25T08:17:51Z</time>
      </trkpt>
      <trkpt lat="44.71062" lon="6.84835">
        <ele>1768.7</ele>
        <time>2026-03-25T08:17:52Z</time>
      </trkpt>
      <trkpt lat="44.71061" lon="6.84835">
        <ele>1768.7</ele>
        <time>2026-03-25T08:17:53Z</time>
      </trkpt>
      <trkpt lat="44.7106" lon="6.84834">
        <ele>1769</ele>
        <time>2026-03-25T08:17:54Z</time>
      </trkpt>
      <trkpt lat="44.71059" lon="6.84834">
        <ele>1769</ele>
        <time>2026-03-25T08:17:55Z</time>
      </trkpt>
      <trkpt lat="44.71057" lon="6.84833">
        <ele>1769.1</ele>
        <time>2026-03-25T08:17:56Z</time>
      </trkpt>
      <trkpt lat="44.71056" lon="6.84833">
        <ele>1769.2</ele>
        <time>2026-03-25T08:17:58Z</time>
      </trkpt>
      <trkpt lat="44.71055" lon="6.84833">
        <ele>1769.2</ele>
        <time>2026-03-25T08:17:59Z</time>
      </trkpt>
      <trkpt lat="44.71054" lon="6.84833">
        <ele>1769.3</ele>
        <time>2026-03-25T08:18:00Z</time>
      </trkpt>
      <trkpt lat="44.71053" lon="6.84833">
        <ele>1769.3</ele>
        <time>2026-03-25T08:18:01Z</time>
      </trkpt>
      <trkpt lat="44.71052" lon="6.84833">
        <ele>1769.3</ele>
        <time>2026-03-25T08:18:02Z</time>
      </trkpt>
      <trkpt lat="44.71051" lon="6.84833">
        <ele>1769.4</ele>
        <time>2026-03-25T08:18:03Z</time>
      </trkpt>
      <trkpt lat="44.7105" lon="6.84833">
        <ele>1769.4</ele>
        <time>2026-03-25T08:18:04Z</time>
      </trkpt>
      <trkpt lat="44.71049" lon="6.84834">
        <ele>1769.5</ele>
        <time>2026-03-25T08:18:05Z</time>
      </trkpt>
      <trkpt lat="44.71048" lon="6.84834">
        <ele>1769.6</ele>
        <time>2026-03-25T08:18:06Z</time>
      </trkpt>
      <trkpt lat="44.71048" lon="6.84834">
        <ele>1769.6</ele>
        <time>2026-03-25T08:18:07Z</time>
      </trkpt>
      <trkpt lat="44.71047" lon="6.84834">
        <ele>1769.6</ele>
        <time>2026-03-25T08:18:08Z</time>
      </trkpt>
      <trkpt lat="44.71046" lon="6.84834">
        <ele>1769.6</ele>
        <time>2026-03-25T08:18:09Z</time>
      </trkpt>
      <trkpt lat="44.71044" lon="6.84835">
        <ele>1769.5</ele>
        <time>2026-03-25T08:18:10Z</time>
      </trkpt>
      <trkpt lat="44.71044" lon="6.84835">
        <ele>1769.5</ele>
        <time>2026-03-25T08:18:12Z</time>
      </trkpt>
      <trkpt lat="44.71043" lon="6.84835">
        <ele>1769.6</ele>
        <time>2026-03-25T08:18:13Z</time>
      </trkpt>
      <trkpt lat="44.71042" lon="6.84836">
        <ele>1769.7</ele>
        <time>2026-03-25T08:18:14Z</time>
      </trkpt>
      <trkpt lat="44.71041" lon="6.84836">
        <ele>1769.7</ele>
        <time>2026-03-25T08:18:15Z</time>
      </trkpt>
      <trkpt lat="44.7104" lon="6.84836">
        <ele>1769.7</ele>
        <time>2026-03-25T08:18:16Z</time>
      </trkpt>
      <trkpt lat="44.71039" lon="6.84837">
        <ele>1769.7</ele>
        <time>2026-03-25T08:18:17Z</time>
      </trkpt>
      <trkpt lat="44.71039" lon="6.84837">
        <ele>1769.8</ele>
        <time>2026-03-25T08:18:18Z</time>
      </trkpt>
      <trkpt lat="44.71038" lon="6.84837">
        <ele>1769.9</ele>
        <time>2026-03-25T08:18:19Z</time>
      </trkpt>
      <trkpt lat="44.71037" lon="6.84837">
        <ele>1769.9</ele>
        <time>2026-03-25T08:18:20Z</time>
      </trkpt>
      <trkpt lat="44.71036" lon="6.84837">
        <ele>1769.9</ele>
        <time>2026-03-25T08:18:21Z</time>
      </trkpt>
      <trkpt lat="44.71035" lon="6.84837">
        <ele>1770</ele>
        <time>2026-03-25T08:18:22Z</time>
      </trkpt>
      <trkpt lat="44.71035" lon="6.84837">
        <ele>1770</ele>
        <time>2026-03-25T08:18:23Z</time>
      </trkpt>
      <trkpt lat="44.71033" lon="6.84837">
        <ele>1770.1</ele>
        <time>2026-03-25T08:18:24Z</time>
      </trkpt>
      <trkpt lat="44.71032" lon="6.84837">
        <ele>1770.2</ele>
        <time>2026-03-25T08:18:25Z</time>
      </trkpt>
      <trkpt lat="44.7103" lon="6.84837">
        <ele>1770.2</ele>
        <time>2026-03-25T08:18:26Z</time>
      </trkpt>
      <trkpt lat="44.71029" lon="6.84837">
        <ele>1770.4</ele>
        <time>2026-03-25T08:18:28Z</time>
      </trkpt>
      <trkpt lat="44.71028" lon="6.84838">
        <ele>1770.4</ele>
        <time>2026-03-25T08:18:29Z</time>
      </trkpt>
      <trkpt lat="44.71027" lon="6.84838">
        <ele>1770.4</ele>
        <time>2026-03-25T08:18:30Z</time>
      </trkpt>
      <trkpt lat="44.71026" lon="6.84838">
        <ele>1770.6</ele>
        <time>2026-03-25T08:18:31Z</time>
      </trkpt>
      <trkpt lat="44.71025" lon="6.84839">
        <ele>1770.6</ele>
        <time>2026-03-25T08:18:32Z</time>
      </trkpt>
      <trkpt lat="44.71025" lon="6.84839">
        <ele>1770.5</ele>
        <time>2026-03-25T08:18:33Z</time>
      </trkpt>
      <trkpt lat="44.71024" lon="6.84839">
        <ele>1770.5</ele>
        <time>2026-03-25T08:18:34Z</time>
      </trkpt>
      <trkpt lat="44.71023" lon="6.84839">
        <ele>1770.7</ele>
        <time>2026-03-25T08:18:35Z</time>
      </trkpt>
      <trkpt lat="44.71022" lon="6.84839">
        <ele>1770.7</ele>
        <time>2026-03-25T08:18:36Z</time>
      </trkpt>
      <trkpt lat="44.71021" lon="6.8484">
        <ele>1770.9</ele>
        <time>2026-03-25T08:18:38Z</time>
      </trkpt>
      <trkpt lat="44.7102" lon="6.8484">
        <ele>1770.9</ele>
        <time>2026-03-25T08:18:39Z</time>
      </trkpt>
      <trkpt lat="44.71019" lon="6.8484">
        <ele>1770.9</ele>
        <time>2026-03-25T08:18:40Z</time>
      </trkpt>
      <trkpt lat="44.71018" lon="6.84841">
        <ele>1771</ele>
        <time>2026-03-25T08:18:41Z</time>
      </trkpt>
      <trkpt lat="44.71017" lon="6.84841">
        <ele>1771.1</ele>
        <time>2026-03-25T08:18:43Z</time>
      </trkpt>
      <trkpt lat="44.71016" lon="6.84841">
        <ele>1771.1</ele>
        <time>2026-03-25T08:18:44Z</time>
      </trkpt>
      <trkpt lat="44.71015" lon="6.84842">
        <ele>1771.1</ele>
        <time>2026-03-25T08:18:45Z</time>
      </trkpt>
      <trkpt lat="44.71014" lon="6.84842">
        <ele>1771.2</ele>
        <time>2026-03-25T08:18:46Z</time>
      </trkpt>
      <trkpt lat="44.71014" lon="6.84842">
        <ele>1771.3</ele>
        <time>2026-03-25T08:18:47Z</time>
      </trkpt>
      <trkpt lat="44.71013" lon="6.84843">
        <ele>1771.3</ele>
        <time>2026-03-25T08:18:48Z</time>
      </trkpt>
      <trkpt lat="44.71012" lon="6.84843">
        <ele>1771.4</ele>
        <time>2026-03-25T08:18:49Z</time>
      </trkpt>
      <trkpt lat="44.71011" lon="6.84843">
        <ele>1771.5</ele>
        <time>2026-03-25T08:18:50Z</time>
      </trkpt>
      <trkpt lat="44.7101" lon="6.84843">
        <ele>1771.5</ele>
        <time>2026-03-25T08:18:51Z</time>
      </trkpt>
      <trkpt lat="44.71009" lon="6.84843">
        <ele>1771.5</ele>
        <time>2026-03-25T08:18:52Z</time>
      </trkpt>
      <trkpt lat="44.71008" lon="6.84843">
        <ele>1771.6</ele>
        <time>2026-03-25T08:18:53Z</time>
      </trkpt>
      <trkpt lat="44.71007" lon="6.84843">
        <ele>1771.6</ele>
        <time>2026-03-25T08:18:54Z</time>
      </trkpt>
      <trkpt lat="44.71006" lon="6.84843">
        <ele>1771.6</ele>
        <time>2026-03-25T08:18:55Z</time>
      </trkpt>
      <trkpt lat="44.71006" lon="6.84843">
        <ele>1771.6</ele>
        <time>2026-03-25T08:18:56Z</time>
      </trkpt>
      <trkpt lat="44.71005" lon="6.84843">
        <ele>1771.7</ele>
        <time>2026-03-25T08:18:57Z</time>
      </trkpt>
      <trkpt lat="44.71004" lon="6.84843">
        <ele>1771.7</ele>
        <time>2026-03-25T08:18:58Z</time>
      </trkpt>
      <trkpt lat="44.71002" lon="6.84843">
        <ele>1771.8</ele>
        <time>2026-03-25T08:18:59Z</time>
      </trkpt>
      <trkpt lat="44.71002" lon="6.84843">
        <ele>1771.8</ele>
        <time>2026-03-25T08:19:01Z</time>
      </trkpt>
      <trkpt lat="44.71001" lon="6.84843">
        <ele>1771.8</ele>
        <time>2026-03-25T08:19:02Z</time>
      </trkpt>
      <trkpt lat="44.70999" lon="6.84843">
        <ele>1771.9</ele>
        <time>2026-03-25T08:19:03Z</time>
      </trkpt>
      <trkpt lat="44.70998" lon="6.84843">
        <ele>1771.9</ele>
        <time>2026-03-25T08:19:05Z</time>
      </trkpt>
      <trkpt lat="44.70997" lon="6.84843">
        <ele>1772</ele>
        <time>2026-03-25T08:19:06Z</time>
      </trkpt>
      <trkpt lat="44.70997" lon="6.84843">
        <ele>1772</ele>
        <time>2026-03-25T08:19:07Z</time>
      </trkpt>
      <trkpt lat="44.70996" lon="6.84843">
        <ele>1772</ele>
        <time>2026-03-25T08:19:08Z</time>
      </trkpt>
      <trkpt lat="44.70995" lon="6.84843">
        <ele>1772</ele>
        <time>2026-03-25T08:19:09Z</time>
      </trkpt>
      <trkpt lat="44.70993" lon="6.84843">
        <ele>1772.1</ele>
        <time>2026-03-25T08:19:11Z</time>
      </trkpt>
      <trkpt lat="44.70993" lon="6.84843">
        <ele>1772.1</ele>
        <time>2026-03-25T08:19:12Z</time>
      </trkpt>
      <trkpt lat="44.70991" lon="6.84844">
        <ele>1772.2</ele>
        <time>2026-03-25T08:19:13Z</time>
      </trkpt>
      <trkpt lat="44.7099" lon="6.84844">
        <ele>1772.2</ele>
        <time>2026-03-25T08:19:15Z</time>
      </trkpt>
      <trkpt lat="44.70989" lon="6.84844">
        <ele>1772.2</ele>
        <time>2026-03-25T08:19:16Z</time>
      </trkpt>
      <trkpt lat="44.70989" lon="6.84844">
        <ele>1772.2</ele>
        <time>2026-03-25T08:19:17Z</time>
      </trkpt>
      <trkpt lat="44.70989" lon="6.84844">
        <ele>1772.2</ele>
        <time>2026-03-25T08:19:18Z</time>
      </trkpt>
      <trkpt lat="44.7099" lon="6.84844">
        <ele>1772.2</ele>
        <time>2026-03-25T08:19:19Z</time>
      </trkpt>
      <trkpt lat="44.7099" lon="6.84844">
        <ele>1772.2</ele>
        <time>2026-03-25T08:19:20Z</time>
      </trkpt>
      <trkpt lat="44.70989" lon="6.84844">
        <ele>1772.3</ele>
        <time>2026-03-25T08:19:21Z</time>
      </trkpt>
      <trkpt lat="44.70989" lon="6.84844">
        <ele>1772.3</ele>
        <time>2026-03-25T08:19:22Z</time>
      </trkpt>
      <trkpt lat="44.70988" lon="6.84844">
        <ele>1772.3</ele>
        <time>2026-03-25T08:19:23Z</time>
      </trkpt>
      <trkpt lat="44.70986" lon="6.84845">
        <ele>1772.4</ele>
        <time>2026-03-25T08:19:24Z</time>
      </trkpt>
      <trkpt lat="44.70985" lon="6.84845">
        <ele>1772.4</ele>
        <time>2026-03-25T08:19:25Z</time>
      </trkpt>
      <trkpt lat="44.70984" lon="6.84845">
        <ele>1772.4</ele>
        <time>2026-03-25T08:19:26Z</time>
      </trkpt>
      <trkpt lat="44.70983" lon="6.84845">
        <ele>1772.5</ele>
        <time>2026-03-25T08:19:27Z</time>
      </trkpt>
      <trkpt lat="44.70983" lon="6.84845">
        <ele>1772.5</ele>
        <time>2026-03-25T08:19:28Z</time>
      </trkpt>
      <trkpt lat="44.70981" lon="6.84846">
        <ele>1772.5</ele>
        <time>2026-03-25T08:19:29Z</time>
      </trkpt>
      <trkpt lat="44.7098" lon="6.84846">
        <ele>1772.6</ele>
        <time>2026-03-25T08:19:31Z</time>
      </trkpt>
      <trkpt lat="44.70979" lon="6.84845">
        <ele>1772.6</ele>
        <time>2026-03-25T08:19:32Z</time>
      </trkpt>
      <trkpt lat="44.70978" lon="6.84845">
        <ele>1772.7</ele>
        <time>2026-03-25T08:19:34Z</time>
      </trkpt>
      <trkpt lat="44.70977" lon="6.84844">
        <ele>1772.7</ele>
        <time>2026-03-25T08:19:35Z</time>
      </trkpt>
      <trkpt lat="44.70977" lon="6.84844">
        <ele>1772.7</ele>
        <time>2026-03-25T08:19:36Z</time>
      </trkpt>
      <trkpt lat="44.70976" lon="6.84843">
        <ele>1772.8</ele>
        <time>2026-03-25T08:19:37Z</time>
      </trkpt>
      <trkpt lat="44.70975" lon="6.84843">
        <ele>1772.8</ele>
        <time>2026-03-25T08:19:38Z</time>
      </trkpt>
      <trkpt lat="44.70974" lon="6.84843">
        <ele>1772.8</ele>
        <time>2026-03-25T08:19:39Z</time>
      </trkpt>
      <trkpt lat="44.70973" lon="6.84842">
        <ele>1772.9</ele>
        <time>2026-03-25T08:19:40Z</time>
      </trkpt>
      <trkpt lat="44.70972" lon="6.84842">
        <ele>1772.9</ele>
        <time>2026-03-25T08:19:41Z</time>
      </trkpt>
      <trkpt lat="44.70971" lon="6.84842">
        <ele>1773</ele>
        <time>2026-03-25T08:19:43Z</time>
      </trkpt>
      <trkpt lat="44.7097" lon="6.84841">
        <ele>1773</ele>
        <time>2026-03-25T08:19:44Z</time>
      </trkpt>
      <trkpt lat="44.70969" lon="6.84841">
        <ele>1773.1</ele>
        <time>2026-03-25T08:19:45Z</time>
      </trkpt>
      <trkpt lat="44.70968" lon="6.84841">
        <ele>1773.1</ele>
        <time>2026-03-25T08:19:46Z</time>
      </trkpt>
      <trkpt lat="44.70967" lon="6.84841">
        <ele>1773.1</ele>
        <time>2026-03-25T08:19:47Z</time>
      </trkpt>
      <trkpt lat="44.70967" lon="6.84841">
        <ele>1773.2</ele>
        <time>2026-03-25T08:19:48Z</time>
      </trkpt>
      <trkpt lat="44.70966" lon="6.84841">
        <ele>1773.2</ele>
        <time>2026-03-25T08:19:49Z</time>
      </trkpt>
      <trkpt lat="44.70965" lon="6.84841">
        <ele>1773.2</ele>
        <time>2026-03-25T08:19:50Z</time>
      </trkpt>
      <trkpt lat="44.70964" lon="6.84841">
        <ele>1773.3</ele>
        <time>2026-03-25T08:19:51Z</time>
      </trkpt>
      <trkpt lat="44.70962" lon="6.84841">
        <ele>1773.4</ele>
        <time>2026-03-25T08:19:52Z</time>
      </trkpt>
      <trkpt lat="44.70961" lon="6.8484">
        <ele>1773.4</ele>
        <time>2026-03-25T08:19:54Z</time>
      </trkpt>
      <trkpt lat="44.70961" lon="6.8484">
        <ele>1773.4</ele>
        <time>2026-03-25T08:19:55Z</time>
      </trkpt>
      <trkpt lat="44.7096" lon="6.8484">
        <ele>1773.5</ele>
        <time>2026-03-25T08:19:56Z</time>
      </trkpt>
      <trkpt lat="44.70958" lon="6.8484">
        <ele>1773.6</ele>
        <time>2026-03-25T08:19:57Z</time>
      </trkpt>
      <trkpt lat="44.70957" lon="6.8484">
        <ele>1773.6</ele>
        <time>2026-03-25T08:19:59Z</time>
      </trkpt>
      <trkpt lat="44.70956" lon="6.8484">
        <ele>1773.7</ele>
        <time>2026-03-25T08:20:00Z</time>
      </trkpt>
      <trkpt lat="44.70955" lon="6.8484">
        <ele>1773.7</ele>
        <time>2026-03-25T08:20:01Z</time>
      </trkpt>
      <trkpt lat="44.70953" lon="6.84839">
        <ele>1773.8</ele>
        <time>2026-03-25T08:20:02Z</time>
      </trkpt>
      <trkpt lat="44.70952" lon="6.84839">
        <ele>1773.8</ele>
        <time>2026-03-25T08:20:04Z</time>
      </trkpt>
      <trkpt lat="44.70951" lon="6.84838">
        <ele>1773.9</ele>
        <time>2026-03-25T08:20:05Z</time>
      </trkpt>
      <trkpt lat="44.70951" lon="6.84838">
        <ele>1773.9</ele>
        <time>2026-03-25T08:20:06Z</time>
      </trkpt>
      <trkpt lat="44.70949" lon="6.84839">
        <ele>1774</ele>
        <time>2026-03-25T08:20:07Z</time>
      </trkpt>
      <trkpt lat="44.70949" lon="6.84839">
        <ele>1774</ele>
        <time>2026-03-25T08:20:09Z</time>
      </trkpt>
      <trkpt lat="44.70948" lon="6.84839">
        <ele>1774</ele>
        <time>2026-03-25T08:20:10Z</time>
      </trkpt>
      <trkpt lat="44.70947" lon="6.84839">
        <ele>1774.1</ele>
        <time>2026-03-25T08:20:11Z</time>
      </trkpt>
      <trkpt lat="44.70946" lon="6.84839">
        <ele>1774.1</ele>
        <time>2026-03-25T08:20:13Z</time>
      </trkpt>
      <trkpt lat="44.70945" lon="6.84839">
        <ele>1774.1</ele>
        <time>2026-03-25T08:20:14Z</time>
      </trkpt>
      <trkpt lat="44.70944" lon="6.84839">
        <ele>1774.2</ele>
        <time>2026-03-25T08:20:15Z</time>
      </trkpt>
      <trkpt lat="44.70943" lon="6.84839">
        <ele>1774.2</ele>
        <time>2026-03-25T08:20:16Z</time>
      </trkpt>
      <trkpt lat="44.70942" lon="6.84839">
        <ele>1774.3</ele>
        <time>2026-03-25T08:20:17Z</time>
      </trkpt>
      <trkpt lat="44.70941" lon="6.84839">
        <ele>1774.3</ele>
        <time>2026-03-25T08:20:18Z</time>
      </trkpt>
      <trkpt lat="44.7094" lon="6.84838">
        <ele>1774.3</ele>
        <time>2026-03-25T08:20:19Z</time>
      </trkpt>
      <trkpt lat="44.70939" lon="6.84838">
        <ele>1774.4</ele>
        <time>2026-03-25T08:20:20Z</time>
      </trkpt>
      <trkpt lat="44.70937" lon="6.84838">
        <ele>1774.4</ele>
        <time>2026-03-25T08:20:22Z</time>
      </trkpt>
      <trkpt lat="44.70936" lon="6.84838">
        <ele>1774.5</ele>
        <time>2026-03-25T08:20:23Z</time>
      </trkpt>
      <trkpt lat="44.70935" lon="6.84838">
        <ele>1774.5</ele>
        <time>2026-03-25T08:20:24Z</time>
      </trkpt>
      <trkpt lat="44.70934" lon="6.84838">
        <ele>1774.6</ele>
        <time>2026-03-25T08:20:25Z</time>
      </trkpt>
      <trkpt lat="44.70933" lon="6.84838">
        <ele>1774.6</ele>
        <time>2026-03-25T08:20:26Z</time>
      </trkpt>
      <trkpt lat="44.70932" lon="6.84838">
        <ele>1774.6</ele>
        <time>2026-03-25T08:20:27Z</time>
      </trkpt>
      <trkpt lat="44.70931" lon="6.84839">
        <ele>1774.7</ele>
        <time>2026-03-25T08:20:28Z</time>
      </trkpt>
      <trkpt lat="44.70929" lon="6.84839">
        <ele>1774.7</ele>
        <time>2026-03-25T08:20:29Z</time>
      </trkpt>
      <trkpt lat="44.70928" lon="6.84839">
        <ele>1774.8</ele>
        <time>2026-03-25T08:20:31Z</time>
      </trkpt>
      <trkpt lat="44.70927" lon="6.84839">
        <ele>1774.8</ele>
        <time>2026-03-25T08:20:32Z</time>
      </trkpt>
      <trkpt lat="44.70925" lon="6.84839">
        <ele>1774.9</ele>
        <time>2026-03-25T08:20:33Z</time>
      </trkpt>
      <trkpt lat="44.70924" lon="6.8484">
        <ele>1774.9</ele>
        <time>2026-03-25T08:20:35Z</time>
      </trkpt>
      <trkpt lat="44.70924" lon="6.8484">
        <ele>1774.9</ele>
        <time>2026-03-25T08:20:36Z</time>
      </trkpt>
      <trkpt lat="44.70923" lon="6.8484">
        <ele>1775</ele>
        <time>2026-03-25T08:20:37Z</time>
      </trkpt>
      <trkpt lat="44.70922" lon="6.8484">
        <ele>1775</ele>
        <time>2026-03-25T08:20:38Z</time>
      </trkpt>
      <trkpt lat="44.70921" lon="6.84841">
        <ele>1775</ele>
        <time>2026-03-25T08:20:39Z</time>
      </trkpt>
      <trkpt lat="44.7092" lon="6.84841">
        <ele>1775.1</ele>
        <time>2026-03-25T08:20:40Z</time>
      </trkpt>
      <trkpt lat="44.70919" lon="6.84841">
        <ele>1775.1</ele>
        <time>2026-03-25T08:20:41Z</time>
      </trkpt>
      <trkpt lat="44.70918" lon="6.84841">
        <ele>1775.1</ele>
        <time>2026-03-25T08:20:42Z</time>
      </trkpt>
      <trkpt lat="44.70917" lon="6.84841">
        <ele>1775.2</ele>
        <time>2026-03-25T08:20:43Z</time>
      </trkpt>
      <trkpt lat="44.70916" lon="6.84841">
        <ele>1775.2</ele>
        <time>2026-03-25T08:20:44Z</time>
      </trkpt>
      <trkpt lat="44.70916" lon="6.84841">
        <ele>1775.2</ele>
        <time>2026-03-25T08:20:45Z</time>
      </trkpt>
      <trkpt lat="44.70915" lon="6.84841">
        <ele>1775.2</ele>
        <time>2026-03-25T08:20:46Z</time>
      </trkpt>
      <trkpt lat="44.70914" lon="6.84841">
        <ele>1775.3</ele>
        <time>2026-03-25T08:20:47Z</time>
      </trkpt>
      <trkpt lat="44.70913" lon="6.84841">
        <ele>1775.3</ele>
        <time>2026-03-25T08:20:48Z</time>
      </trkpt>
      <trkpt lat="44.70912" lon="6.84842">
        <ele>1775.3</ele>
        <time>2026-03-25T08:20:49Z</time>
      </trkpt>
      <trkpt lat="44.70912" lon="6.84842">
        <ele>1775.4</ele>
        <time>2026-03-25T08:20:50Z</time>
      </trkpt>
      <trkpt lat="44.7091" lon="6.84842">
        <ele>1775.4</ele>
        <time>2026-03-25T08:20:51Z</time>
      </trkpt>
      <trkpt lat="44.70909" lon="6.84843">
        <ele>1775.4</ele>
        <time>2026-03-25T08:20:53Z</time>
      </trkpt>
      <trkpt lat="44.70909" lon="6.84843">
        <ele>1775.5</ele>
        <time>2026-03-25T08:20:54Z</time>
      </trkpt>
      <trkpt lat="44.70908" lon="6.84843">
        <ele>1775.5</ele>
        <time>2026-03-25T08:20:55Z</time>
      </trkpt>
      <trkpt lat="44.70907" lon="6.84843">
        <ele>1775.5</ele>
        <time>2026-03-25T08:20:56Z</time>
      </trkpt>
      <trkpt lat="44.70906" lon="6.84844">
        <ele>1775.6</ele>
        <time>2026-03-25T08:20:57Z</time>
      </trkpt>
      <trkpt lat="44.70904" lon="6.84845">
        <ele>1775.7</ele>
        <time>2026-03-25T08:20:59Z</time>
      </trkpt>
      <trkpt lat="44.70903" lon="6.84845">
        <ele>1775.7</ele>
        <time>2026-03-25T08:21:00Z</time>
      </trkpt>
      <trkpt lat="44.70902" lon="6.84846">
        <ele>1775.7</ele>
        <time>2026-03-25T08:21:01Z</time>
      </trkpt>
      <trkpt lat="44.70901" lon="6.84847">
        <ele>1775.8</ele>
        <time>2026-03-25T08:21:02Z</time>
      </trkpt>
      <trkpt lat="44.709" lon="6.84848">
        <ele>1775.9</ele>
        <time>2026-03-25T08:21:04Z</time>
      </trkpt>
      <trkpt lat="44.70899" lon="6.84849">
        <ele>1775.9</ele>
        <time>2026-03-25T08:21:05Z</time>
      </trkpt>
      <trkpt lat="44.70899" lon="6.8485">
        <ele>1776</ele>
        <time>2026-03-25T08:21:06Z</time>
      </trkpt>
      <trkpt lat="44.70898" lon="6.8485">
        <ele>1776</ele>
        <time>2026-03-25T08:21:07Z</time>
      </trkpt>
      <trkpt lat="44.70897" lon="6.84851">
        <ele>1776</ele>
        <time>2026-03-25T08:21:08Z</time>
      </trkpt>
      <trkpt lat="44.70897" lon="6.84852">
        <ele>1776.1</ele>
        <time>2026-03-25T08:21:09Z</time>
      </trkpt>
      <trkpt lat="44.70896" lon="6.84852">
        <ele>1776.1</ele>
        <time>2026-03-25T08:21:10Z</time>
      </trkpt>
      <trkpt lat="44.70895" lon="6.84854">
        <ele>1776.1</ele>
        <time>2026-03-25T08:21:11Z</time>
      </trkpt>
      <trkpt lat="44.70895" lon="6.84854">
        <ele>1776.2</ele>
        <time>2026-03-25T08:21:13Z</time>
      </trkpt>
      <trkpt lat="44.70894" lon="6.84855">
        <ele>1776.2</ele>
        <time>2026-03-25T08:21:14Z</time>
      </trkpt>
      <trkpt lat="44.70893" lon="6.84856">
        <ele>1776.2</ele>
        <time>2026-03-25T08:21:15Z</time>
      </trkpt>
      <trkpt lat="44.70892" lon="6.84858">
        <ele>1776.3</ele>
        <time>2026-03-25T08:21:16Z</time>
      </trkpt>
      <trkpt lat="44.70891" lon="6.84858">
        <ele>1776.3</ele>
        <time>2026-03-25T08:21:18Z</time>
      </trkpt>
      <trkpt lat="44.7089" lon="6.84859">
        <ele>1776.4</ele>
        <time>2026-03-25T08:21:19Z</time>
      </trkpt>
      <trkpt lat="44.7089" lon="6.84859">
        <ele>1776.4</ele>
        <time>2026-03-25T08:21:20Z</time>
      </trkpt>
      <trkpt lat="44.70889" lon="6.8486">
        <ele>1776.4</ele>
        <time>2026-03-25T08:21:21Z</time>
      </trkpt>
      <trkpt lat="44.70888" lon="6.8486">
        <ele>1776.5</ele>
        <time>2026-03-25T08:21:22Z</time>
      </trkpt>
      <trkpt lat="44.70887" lon="6.8486">
        <ele>1776.5</ele>
        <time>2026-03-25T08:21:23Z</time>
      </trkpt>
      <trkpt lat="44.70887" lon="6.84861">
        <ele>1776.5</ele>
        <time>2026-03-25T08:21:24Z</time>
      </trkpt>
      <trkpt lat="44.70885" lon="6.84862">
        <ele>1776.6</ele>
        <time>2026-03-25T08:21:25Z</time>
      </trkpt>
      <trkpt lat="44.70884" lon="6.84863">
        <ele>1776.6</ele>
        <time>2026-03-25T08:21:27Z</time>
      </trkpt>
      <trkpt lat="44.70883" lon="6.84863">
        <ele>1776.7</ele>
        <time>2026-03-25T08:21:28Z</time>
      </trkpt>
      <trkpt lat="44.70883" lon="6.84864">
        <ele>1776.7</ele>
        <time>2026-03-25T08:21:29Z</time>
      </trkpt>
      <trkpt lat="44.70882" lon="6.84864">
        <ele>1776.7</ele>
        <time>2026-03-25T08:21:30Z</time>
      </trkpt>
      <trkpt lat="44.70881" lon="6.84865">
        <ele>1776.8</ele>
        <time>2026-03-25T08:21:31Z</time>
      </trkpt>
      <trkpt lat="44.70881" lon="6.84865">
        <ele>1776.8</ele>
        <time>2026-03-25T08:21:32Z</time>
      </trkpt>
      <trkpt lat="44.7088" lon="6.84866">
        <ele>1776.8</ele>
        <time>2026-03-25T08:21:33Z</time>
      </trkpt>
      <trkpt lat="44.7088" lon="6.84866">
        <ele>1776.8</ele>
        <time>2026-03-25T08:21:34Z</time>
      </trkpt>
      <trkpt lat="44.70879" lon="6.84867">
        <ele>1776.9</ele>
        <time>2026-03-25T08:21:35Z</time>
      </trkpt>
      <trkpt lat="44.70878" lon="6.84867">
        <ele>1776.9</ele>
        <time>2026-03-25T08:21:36Z</time>
      </trkpt>
      <trkpt lat="44.70878" lon="6.84867">
        <ele>1776.9</ele>
        <time>2026-03-25T08:21:37Z</time>
      </trkpt>
      <trkpt lat="44.70877" lon="6.84868">
        <ele>1776.9</ele>
        <time>2026-03-25T08:21:38Z</time>
      </trkpt>
      <trkpt lat="44.70876" lon="6.84868">
        <ele>1777</ele>
        <time>2026-03-25T08:21:39Z</time>
      </trkpt>
      <trkpt lat="44.70875" lon="6.8487">
        <ele>1777</ele>
        <time>2026-03-25T08:21:40Z</time>
      </trkpt>
      <trkpt lat="44.70874" lon="6.84871">
        <ele>1777.1</ele>
        <time>2026-03-25T08:21:42Z</time>
      </trkpt>
      <trkpt lat="44.70874" lon="6.84871">
        <ele>1777.1</ele>
        <time>2026-03-25T08:21:43Z</time>
      </trkpt>
      <trkpt lat="44.70873" lon="6.84872">
        <ele>1777.1</ele>
        <time>2026-03-25T08:21:44Z</time>
      </trkpt>
      <trkpt lat="44.70871" lon="6.84873">
        <ele>1777.2</ele>
        <time>2026-03-25T08:21:45Z</time>
      </trkpt>
      <trkpt lat="44.70871" lon="6.84874">
        <ele>1777.2</ele>
        <time>2026-03-25T08:21:47Z</time>
      </trkpt>
      <trkpt lat="44.7087" lon="6.84875">
        <ele>1777.2</ele>
        <time>2026-03-25T08:21:48Z</time>
      </trkpt>
      <trkpt lat="44.70869" lon="6.84876">
        <ele>1777.3</ele>
        <time>2026-03-25T08:21:49Z</time>
      </trkpt>
      <trkpt lat="44.70868" lon="6.84877">
        <ele>1777.3</ele>
        <time>2026-03-25T08:21:50Z</time>
      </trkpt>
      <trkpt lat="44.70868" lon="6.84877">
        <ele>1777.3</ele>
        <time>2026-03-25T08:21:51Z</time>
      </trkpt>
      <trkpt lat="44.70867" lon="6.84878">
        <ele>1777.4</ele>
        <time>2026-03-25T08:21:52Z</time>
      </trkpt>
      <trkpt lat="44.70866" lon="6.84879">
        <ele>1777.4</ele>
        <time>2026-03-25T08:21:53Z</time>
      </trkpt>
      <trkpt lat="44.70865" lon="6.84879">
        <ele>1777.4</ele>
        <time>2026-03-25T08:21:54Z</time>
      </trkpt>
      <trkpt lat="44.70865" lon="6.8488">
        <ele>1777.4</ele>
        <time>2026-03-25T08:21:55Z</time>
      </trkpt>
      <trkpt lat="44.70863" lon="6.84881">
        <ele>1777.5</ele>
        <time>2026-03-25T08:21:56Z</time>
      </trkpt>
      <trkpt lat="44.70862" lon="6.84881">
        <ele>1777.5</ele>
        <time>2026-03-25T08:21:58Z</time>
      </trkpt>
      <trkpt lat="44.70862" lon="6.84882">
        <ele>1777.6</ele>
        <time>2026-03-25T08:21:59Z</time>
      </trkpt>
      <trkpt lat="44.7086" lon="6.84883">
        <ele>1777.6</ele>
        <time>2026-03-25T08:22:00Z</time>
      </trkpt>
      <trkpt lat="44.7086" lon="6.84883">
        <ele>1777.6</ele>
        <time>2026-03-25T08:22:01Z</time>
      </trkpt>
      <trkpt lat="44.70859" lon="6.84884">
        <ele>1777.6</ele>
        <time>2026-03-25T08:22:02Z</time>
      </trkpt>
      <trkpt lat="44.70859" lon="6.84885">
        <ele>1777.7</ele>
        <time>2026-03-25T08:22:03Z</time>
      </trkpt>
      <trkpt lat="44.70858" lon="6.84886">
        <ele>1777.7</ele>
        <time>2026-03-25T08:22:04Z</time>
      </trkpt>
      <trkpt lat="44.70857" lon="6.84886">
        <ele>1777.7</ele>
        <time>2026-03-25T08:22:05Z</time>
      </trkpt>
      <trkpt lat="44.70857" lon="6.84887">
        <ele>1777.8</ele>
        <time>2026-03-25T08:22:06Z</time>
      </trkpt>
      <trkpt lat="44.70856" lon="6.84887">
        <ele>1777.8</ele>
        <time>2026-03-25T08:22:07Z</time>
      </trkpt>
      <trkpt lat="44.70856" lon="6.84887">
        <ele>1777.8</ele>
        <time>2026-03-25T08:22:08Z</time>
      </trkpt>
      <trkpt lat="44.70856" lon="6.84887">
        <ele>1777.8</ele>
        <time>2026-03-25T08:22:09Z</time>
      </trkpt>
      <trkpt lat="44.70856" lon="6.84887">
        <ele>1777.8</ele>
        <time>2026-03-25T08:22:10Z</time>
      </trkpt>
      <trkpt lat="44.70856" lon="6.84887">
        <ele>1777.8</ele>
        <time>2026-03-25T08:22:11Z</time>
      </trkpt>
      <trkpt lat="44.70856" lon="6.84887">
        <ele>1777.8</ele>
        <time>2026-03-25T08:22:13Z</time>
      </trkpt>
      <trkpt lat="44.70855" lon="6.84887">
        <ele>1777.8</ele>
        <time>2026-03-25T08:22:14Z</time>
      </trkpt>
      <trkpt lat="44.70855" lon="6.84887">
        <ele>1777.8</ele>
        <time>2026-03-25T08:22:15Z</time>
      </trkpt>
      <trkpt lat="44.70855" lon="6.84887">
        <ele>1777.8</ele>
        <time>2026-03-25T08:22:16Z</time>
      </trkpt>
      <trkpt lat="44.70855" lon="6.84887">
        <ele>1777.8</ele>
        <time>2026-03-25T08:22:17Z</time>
      </trkpt>
      <trkpt lat="44.70855" lon="6.84887">
        <ele>1777.8</ele>
        <time>2026-03-25T08:22:18Z</time>
      </trkpt>
      <trkpt lat="44.70855" lon="6.84887">
        <ele>1777.8</ele>
        <time>2026-03-25T08:22:19Z</time>
      </trkpt>
      <trkpt lat="44.70855" lon="6.84886">
        <ele>1777.8</ele>
        <time>2026-03-25T08:22:20Z</time>
      </trkpt>
      <trkpt lat="44.70855" lon="6.84887">
        <ele>1777.8</ele>
        <time>2026-03-25T08:22:21Z</time>
      </trkpt>
      <trkpt lat="44.70856" lon="6.84886">
        <ele>1777.8</ele>
        <time>2026-03-25T08:22:22Z</time>
      </trkpt>
      <trkpt lat="44.70856" lon="6.84886">
        <ele>1777.8</ele>
        <time>2026-03-25T08:22:24Z</time>
      </trkpt>
      <trkpt lat="44.70856" lon="6.84886">
        <ele>1777.8</ele>
        <time>2026-03-25T08:22:25Z</time>
      </trkpt>
      <trkpt lat="44.70856" lon="6.84886">
        <ele>1777.9</ele>
        <time>2026-03-25T08:22:26Z</time>
      </trkpt>
      <trkpt lat="44.70855" lon="6.84887">
        <ele>1777.9</ele>
        <time>2026-03-25T08:22:27Z</time>
      </trkpt>
      <trkpt lat="44.70855" lon="6.84887">
        <ele>1777.9</ele>
        <time>2026-03-25T08:22:28Z</time>
      </trkpt>
      <trkpt lat="44.70855" lon="6.84887">
        <ele>1777.9</ele>
        <time>2026-03-25T08:22:29Z</time>
      </trkpt>
      <trkpt lat="44.70855" lon="6.84887">
        <ele>1777.9</ele>
        <time>2026-03-25T08:22:30Z</time>
      </trkpt>
      <trkpt lat="44.70854" lon="6.84887">
        <ele>1777.9</ele>
        <time>2026-03-25T08:22:31Z</time>
      </trkpt>
      <trkpt lat="44.70854" lon="6.84887">
        <ele>1777.9</ele>
        <time>2026-03-25T08:22:32Z</time>
      </trkpt>
      <trkpt lat="44.70854" lon="6.84887">
        <ele>1777.9</ele>
        <time>2026-03-25T08:22:33Z</time>
      </trkpt>
      <trkpt lat="44.70854" lon="6.84887">
        <ele>1777.9</ele>
        <time>2026-03-25T08:22:34Z</time>
      </trkpt>
      <trkpt lat="44.70854" lon="6.84887">
        <ele>1777.9</ele>
        <time>2026-03-25T08:22:35Z</time>
      </trkpt>
      <trkpt lat="44.70854" lon="6.84887">
        <ele>1777.9</ele>
        <time>2026-03-25T08:22:36Z</time>
      </trkpt>
      <trkpt lat="44.70854" lon="6.84887">
        <ele>1777.9</ele>
        <time>2026-03-25T08:22:37Z</time>
      </trkpt>
      <trkpt lat="44.70854" lon="6.84887">
        <ele>1777.9</ele>
        <time>2026-03-25T08:22:38Z</time>
      </trkpt>
      <trkpt lat="44.70854" lon="6.84887">
        <ele>1777.9</ele>
        <time>2026-03-25T08:22:39Z</time>
      </trkpt>
      <trkpt lat="44.70854" lon="6.84887">
        <ele>1777.9</ele>
        <time>2026-03-25T08:22:40Z</time>
      </trkpt>
      <trkpt lat="44.70854" lon="6.84887">
        <ele>1777.9</ele>
        <time>2026-03-25T08:22:41Z</time>
      </trkpt>
      <trkpt lat="44.70854" lon="6.84887">
        <ele>1777.9</ele>
        <time>2026-03-25T08:22:42Z</time>
      </trkpt>
      <trkpt lat="44.70854" lon="6.84887">
        <ele>1777.9</ele>
        <time>2026-03-25T08:22:43Z</time>
      </trkpt>
      <trkpt lat="44.70854" lon="6.84886">
        <ele>1777.9</ele>
        <time>2026-03-25T08:22:44Z</time>
      </trkpt>
      <trkpt lat="44.70854" lon="6.84886">
        <ele>1777.9</ele>
        <time>2026-03-25T08:22:45Z</time>
      </trkpt>
      <trkpt lat="44.70854" lon="6.84886">
        <ele>1778</ele>
        <time>2026-03-25T08:22:46Z</time>
      </trkpt>
      <trkpt lat="44.70854" lon="6.84886">
        <ele>1778</ele>
        <time>2026-03-25T08:22:47Z</time>
      </trkpt>
      <trkpt lat="44.70854" lon="6.84885">
        <ele>1778</ele>
        <time>2026-03-25T08:22:48Z</time>
      </trkpt>
      <trkpt lat="44.70854" lon="6.84885">
        <ele>1778</ele>
        <time>2026-03-25T08:22:49Z</time>
      </trkpt>
      <trkpt lat="44.70853" lon="6.84885">
        <ele>1778</ele>
        <time>2026-03-25T08:22:50Z</time>
      </trkpt>
      <trkpt lat="44.70853" lon="6.84885">
        <ele>1778</ele>
        <time>2026-03-25T08:22:51Z</time>
      </trkpt>
      <trkpt lat="44.70853" lon="6.84885">
        <ele>1778</ele>
        <time>2026-03-25T08:22:52Z</time>
      </trkpt>
      <trkpt lat="44.70853" lon="6.84885">
        <ele>1778</ele>
        <time>2026-03-25T08:22:53Z</time>
      </trkpt>
      <trkpt lat="44.70853" lon="6.84884">
        <ele>1778</ele>
        <time>2026-03-25T08:22:54Z</time>
      </trkpt>
      <trkpt lat="44.70853" lon="6.84884">
        <ele>1778</ele>
        <time>2026-03-25T08:22:55Z</time>
      </trkpt>
      <trkpt lat="44.70853" lon="6.84884">
        <ele>1778</ele>
        <time>2026-03-25T08:22:56Z</time>
      </trkpt>
      <trkpt lat="44.70853" lon="6.84884">
        <ele>1778</ele>
        <time>2026-03-25T08:22:57Z</time>
      </trkpt>
      <trkpt lat="44.70853" lon="6.84884">
        <ele>1778</ele>
        <time>2026-03-25T08:22:58Z</time>
      </trkpt>
      <trkpt lat="44.70853" lon="6.84884">
        <ele>1778</ele>
        <time>2026-03-25T08:22:59Z</time>
      </trkpt>
      <trkpt lat="44.70853" lon="6.84884">
        <ele>1778</ele>
        <time>2026-03-25T08:23:00Z</time>
      </trkpt>
      <trkpt lat="44.70853" lon="6.84884">
        <ele>1778</ele>
        <time>2026-03-25T08:23:01Z</time>
      </trkpt>
      <trkpt lat="44.70853" lon="6.84884">
        <ele>1778</ele>
        <time>2026-03-25T08:23:02Z</time>
      </trkpt>
      <trkpt lat="44.70853" lon="6.84884">
        <ele>1778</ele>
        <time>2026-03-25T08:23:03Z</time>
      </trkpt>
      <trkpt lat="44.70853" lon="6.84884">
        <ele>1778</ele>
        <time>2026-03-25T08:23:04Z</time>
      </trkpt>
      <trkpt lat="44.70853" lon="6.84884">
        <ele>1778</ele>
        <time>2026-03-25T08:23:05Z</time>
      </trkpt>
      <trkpt lat="44.70853" lon="6.84884">
        <ele>1778</ele>
        <time>2026-03-25T08:23:06Z</time>
      </trkpt>
      <trkpt lat="44.70853" lon="6.84884">
        <ele>1778</ele>
        <time>2026-03-25T08:23:07Z</time>
      </trkpt>
      <trkpt lat="44.70853" lon="6.84884">
        <ele>1778</ele>
        <time>2026-03-25T08:23:08Z</time>
      </trkpt>
      <trkpt lat="44.70853" lon="6.84884">
        <ele>1778</ele>
        <time>2026-03-25T08:23:09Z</time>
      </trkpt>
      <trkpt lat="44.70853" lon="6.84884">
        <ele>1778</ele>
        <time>2026-03-25T08:23:10Z</time>
      </trkpt>
      <trkpt lat="44.70853" lon="6.84884">
        <ele>1778</ele>
        <time>2026-03-25T08:23:11Z</time>
      </trkpt>
      <trkpt lat="44.70853" lon="6.84884">
        <ele>1778</ele>
        <time>2026-03-25T08:23:12Z</time>
      </trkpt>
      <trkpt lat="44.70853" lon="6.84884">
        <ele>1778</ele>
        <time>2026-03-25T08:23:13Z</time>
      </trkpt>
      <trkpt lat="44.70853" lon="6.84884">
        <ele>1778</ele>
        <time>2026-03-25T08:23:14Z</time>
      </trkpt>
      <trkpt lat="44.70853" lon="6.84884">
        <ele>1778</ele>
        <time>2026-03-25T08:23:15Z</time>
      </trkpt>
      <trkpt lat="44.70853" lon="6.84884">
        <ele>1778</ele>
        <time>2026-03-25T08:23:16Z</time>
      </trkpt>
      <trkpt lat="44.70853" lon="6.84884">
        <ele>1778</ele>
        <time>2026-03-25T08:23:17Z</time>
      </trkpt>
      <trkpt lat="44.70853" lon="6.84884">
        <ele>1778.1</ele>
        <time>2026-03-25T08:23:18Z</time>
      </trkpt>
      <trkpt lat="44.70853" lon="6.84884">
        <ele>1778.1</ele>
        <time>2026-03-25T08:23:20Z</time>
      </trkpt>
      <trkpt lat="44.70853" lon="6.84884">
        <ele>1778.1</ele>
        <time>2026-03-25T08:23:21Z</time>
      </trkpt>
      <trkpt lat="44.70853" lon="6.84884">
        <ele>1778.1</ele>
        <time>2026-03-25T08:23:22Z</time>
      </trkpt>
      <trkpt lat="44.70853" lon="6.84884">
        <ele>1778.1</ele>
        <time>2026-03-25T08:23:23Z</time>
      </trkpt>
      <trkpt lat="44.70853" lon="6.84884">
        <ele>1778.1</ele>
        <time>2026-03-25T08:23:24Z</time>
      </trkpt>
      <trkpt lat="44.70853" lon="6.84884">
        <ele>1778.1</ele>
        <time>2026-03-25T08:23:25Z</time>
      </trkpt>
      <trkpt lat="44.70853" lon="6.84884">
        <ele>1778.1</ele>
        <time>2026-03-25T08:23:26Z</time>
      </trkpt>
      <trkpt lat="44.70853" lon="6.84884">
        <ele>1778.1</ele>
        <time>2026-03-25T08:23:27Z</time>
      </trkpt>
      <trkpt lat="44.70853" lon="6.84884">
        <ele>1778.1</ele>
        <time>2026-03-25T08:23:28Z</time>
      </trkpt>
      <trkpt lat="44.70853" lon="6.84884">
        <ele>1778.1</ele>
        <time>2026-03-25T08:23:29Z</time>
      </trkpt>
      <trkpt lat="44.70853" lon="6.84884">
        <ele>1778.1</ele>
        <time>2026-03-25T08:23:30Z</time>
      </trkpt>
      <trkpt lat="44.70853" lon="6.84884">
        <ele>1778.1</ele>
        <time>2026-03-25T08:23:31Z</time>
      </trkpt>
      <trkpt lat="44.70853" lon="6.84884">
        <ele>1778.1</ele>
        <time>2026-03-25T08:23:32Z</time>
      </trkpt>
      <trkpt lat="44.70853" lon="6.84884">
        <ele>1778.1</ele>
        <time>2026-03-25T08:23:33Z</time>
      </trkpt>
      <trkpt lat="44.70853" lon="6.84884">
        <ele>1778.1</ele>
        <time>2026-03-25T08:23:34Z</time>
      </trkpt>
      <trkpt lat="44.70853" lon="6.84884">
        <ele>1778.1</ele>
        <time>2026-03-25T08:23:35Z</time>
      </trkpt>
      <trkpt lat="44.70853" lon="6.84884">
        <ele>1778.1</ele>
        <time>2026-03-25T08:23:36Z</time>
      </trkpt>
      <trkpt lat="44.70853" lon="6.84884">
        <ele>1778.1</ele>
        <time>2026-03-25T08:23:37Z</time>
      </trkpt>
      <trkpt lat="44.70853" lon="6.84884">
        <ele>1778.1</ele>
        <time>2026-03-25T08:23:38Z</time>
      </trkpt>
      <trkpt lat="44.70854" lon="6.84884">
        <ele>1778.1</ele>
        <time>2026-03-25T08:23:39Z</time>
      </trkpt>
      <trkpt lat="44.70854" lon="6.84884">
        <ele>1778.1</ele>
        <time>2026-03-25T08:23:40Z</time>
      </trkpt>
      <trkpt lat="44.70854" lon="6.84884">
        <ele>1778.1</ele>
        <time>2026-03-25T08:23:41Z</time>
      </trkpt>
      <trkpt lat="44.70854" lon="6.84884">
        <ele>1778.1</ele>
        <time>2026-03-25T08:23:42Z</time>
      </trkpt>
      <trkpt lat="44.70854" lon="6.84884">
        <ele>1778.1</ele>
        <time>2026-03-25T08:23:43Z</time>
      </trkpt>
      <trkpt lat="44.70854" lon="6.84884">
        <ele>1778.1</ele>
        <time>2026-03-25T08:23:44Z</time>
      </trkpt>
      <trkpt lat="44.70855" lon="6.84884">
        <ele>1778.1</ele>
        <time>2026-03-25T08:23:45Z</time>
      </trkpt>
      <trkpt lat="44.70855" lon="6.84885">
        <ele>1778.2</ele>
        <time>2026-03-25T08:23:46Z</time>
      </trkpt>
      <trkpt lat="44.70855" lon="6.84885">
        <ele>1778.2</ele>
        <time>2026-03-25T08:23:47Z</time>
      </trkpt>
      <trkpt lat="44.70854" lon="6.84885">
        <ele>1778.2</ele>
        <time>2026-03-25T08:23:49Z</time>
      </trkpt>
      <trkpt lat="44.70854" lon="6.84886">
        <ele>1778.2</ele>
        <time>2026-03-25T08:23:50Z</time>
      </trkpt>
      <trkpt lat="44.70854" lon="6.84886">
        <ele>1778.2</ele>
        <time>2026-03-25T08:23:51Z</time>
      </trkpt>
      <trkpt lat="44.70854" lon="6.84887">
        <ele>1778.3</ele>
        <time>2026-03-25T08:23:52Z</time>
      </trkpt>
      <trkpt lat="44.70853" lon="6.84888">
        <ele>1778.3</ele>
        <time>2026-03-25T08:23:53Z</time>
      </trkpt>
      <trkpt lat="44.70853" lon="6.84889">
        <ele>1778.3</ele>
        <time>2026-03-25T08:23:54Z</time>
      </trkpt>
      <trkpt lat="44.70852" lon="6.8489">
        <ele>1778.4</ele>
        <time>2026-03-25T08:23:55Z</time>
      </trkpt>
      <trkpt lat="44.70852" lon="6.8489">
        <ele>1778.4</ele>
        <time>2026-03-25T08:23:56Z</time>
      </trkpt>
      <trkpt lat="44.70851" lon="6.84891">
        <ele>1778.4</ele>
        <time>2026-03-25T08:23:57Z</time>
      </trkpt>
      <trkpt lat="44.7085" lon="6.84893">
        <ele>1778.5</ele>
        <time>2026-03-25T08:23:58Z</time>
      </trkpt>
      <trkpt lat="44.70849" lon="6.84894">
        <ele>1778.6</ele>
        <time>2026-03-25T08:23:59Z</time>
      </trkpt>
      <trkpt lat="44.70848" lon="6.84895">
        <ele>1778.6</ele>
        <time>2026-03-25T08:24:01Z</time>
      </trkpt>
      <trkpt lat="44.70847" lon="6.84896">
        <ele>1778.7</ele>
        <time>2026-03-25T08:24:02Z</time>
      </trkpt>
      <trkpt lat="44.70846" lon="6.84897">
        <ele>1778.7</ele>
        <time>2026-03-25T08:24:03Z</time>
      </trkpt>
      <trkpt lat="44.70846" lon="6.84897">
        <ele>1778.8</ele>
        <time>2026-03-25T08:24:04Z</time>
      </trkpt>
      <trkpt lat="44.70845" lon="6.84898">
        <ele>1778.8</ele>
        <time>2026-03-25T08:24:05Z</time>
      </trkpt>
      <trkpt lat="44.70844" lon="6.849">
        <ele>1778.9</ele>
        <time>2026-03-25T08:24:06Z</time>
      </trkpt>
      <trkpt lat="44.70843" lon="6.849">
        <ele>1779</ele>
        <time>2026-03-25T08:24:07Z</time>
      </trkpt>
      <trkpt lat="44.70842" lon="6.84901">
        <ele>1779</ele>
        <time>2026-03-25T08:24:08Z</time>
      </trkpt>
      <trkpt lat="44.70842" lon="6.84902">
        <ele>1779.1</ele>
        <time>2026-03-25T08:24:09Z</time>
      </trkpt>
      <trkpt lat="44.70841" lon="6.84903">
        <ele>1779.1</ele>
        <time>2026-03-25T08:24:10Z</time>
      </trkpt>
      <trkpt lat="44.7084" lon="6.84904">
        <ele>1779.2</ele>
        <time>2026-03-25T08:24:11Z</time>
      </trkpt>
      <trkpt lat="44.70839" lon="6.84904">
        <ele>1779.3</ele>
        <time>2026-03-25T08:24:12Z</time>
      </trkpt>
      <trkpt lat="44.70838" lon="6.84905">
        <ele>1779.3</ele>
        <time>2026-03-25T08:24:13Z</time>
      </trkpt>
      <trkpt lat="44.70837" lon="6.84906">
        <ele>1779.4</ele>
        <time>2026-03-25T08:24:14Z</time>
      </trkpt>
      <trkpt lat="44.70836" lon="6.84907">
        <ele>1779.5</ele>
        <time>2026-03-25T08:24:16Z</time>
      </trkpt>
      <trkpt lat="44.70835" lon="6.84907">
        <ele>1779.5</ele>
        <time>2026-03-25T08:24:17Z</time>
      </trkpt>
      <trkpt lat="44.70834" lon="6.84908">
        <ele>1779.6</ele>
        <time>2026-03-25T08:24:18Z</time>
      </trkpt>
      <trkpt lat="44.70834" lon="6.84909">
        <ele>1779.6</ele>
        <time>2026-03-25T08:24:20Z</time>
      </trkpt>
      <trkpt lat="44.70833" lon="6.84909">
        <ele>1779.7</ele>
        <time>2026-03-25T08:24:21Z</time>
      </trkpt>
      <trkpt lat="44.70832" lon="6.8491">
        <ele>1779.7</ele>
        <time>2026-03-25T08:24:22Z</time>
      </trkpt>
      <trkpt lat="44.70831" lon="6.84911">
        <ele>1779.8</ele>
        <time>2026-03-25T08:24:24Z</time>
      </trkpt>
      <trkpt lat="44.70831" lon="6.84912">
        <ele>1779.8</ele>
        <time>2026-03-25T08:24:25Z</time>
      </trkpt>
      <trkpt lat="44.70829" lon="6.84913">
        <ele>1779.9</ele>
        <time>2026-03-25T08:24:26Z</time>
      </trkpt>
      <trkpt lat="44.70828" lon="6.84913">
        <ele>1780</ele>
        <time>2026-03-25T08:24:28Z</time>
      </trkpt>
      <trkpt lat="44.70827" lon="6.84913">
        <ele>1780</ele>
        <time>2026-03-25T08:24:29Z</time>
      </trkpt>
      <trkpt lat="44.70826" lon="6.84914">
        <ele>1780.1</ele>
        <time>2026-03-25T08:24:30Z</time>
      </trkpt>
      <trkpt lat="44.70826" lon="6.84914">
        <ele>1780.1</ele>
        <time>2026-03-25T08:24:31Z</time>
      </trkpt>
      <trkpt lat="44.70825" lon="6.84915">
        <ele>1780.2</ele>
        <time>2026-03-25T08:24:32Z</time>
      </trkpt>
      <trkpt lat="44.70824" lon="6.84915">
        <ele>1780.2</ele>
        <time>2026-03-25T08:24:33Z</time>
      </trkpt>
      <trkpt lat="44.70823" lon="6.84916">
        <ele>1780.2</ele>
        <time>2026-03-25T08:24:34Z</time>
      </trkpt>
      <trkpt lat="44.70821" lon="6.84917">
        <ele>1780.3</ele>
        <time>2026-03-25T08:24:35Z</time>
      </trkpt>
      <trkpt lat="44.7082" lon="6.84918">
        <ele>1780.4</ele>
        <time>2026-03-25T08:24:37Z</time>
      </trkpt>
      <trkpt lat="44.70819" lon="6.84918">
        <ele>1780.4</ele>
        <time>2026-03-25T08:24:38Z</time>
      </trkpt>
      <trkpt lat="44.70818" lon="6.84919">
        <ele>1780.5</ele>
        <time>2026-03-25T08:24:39Z</time>
      </trkpt>
      <trkpt lat="44.70817" lon="6.84919">
        <ele>1780.5</ele>
        <time>2026-03-25T08:24:40Z</time>
      </trkpt>
      <trkpt lat="44.70816" lon="6.84919">
        <ele>1780.5</ele>
        <time>2026-03-25T08:24:41Z</time>
      </trkpt>
      <trkpt lat="44.70816" lon="6.8492">
        <ele>1780.6</ele>
        <time>2026-03-25T08:24:42Z</time>
      </trkpt>
      <trkpt lat="44.70815" lon="6.8492">
        <ele>1780.6</ele>
        <time>2026-03-25T08:24:43Z</time>
      </trkpt>
      <trkpt lat="44.70814" lon="6.8492">
        <ele>1780.6</ele>
        <time>2026-03-25T08:24:44Z</time>
      </trkpt>
      <trkpt lat="44.70813" lon="6.84921">
        <ele>1780.7</ele>
        <time>2026-03-25T08:24:45Z</time>
      </trkpt>
      <trkpt lat="44.70812" lon="6.84921">
        <ele>1780.7</ele>
        <time>2026-03-25T08:24:46Z</time>
      </trkpt>
      <trkpt lat="44.70811" lon="6.84921">
        <ele>1780.7</ele>
        <time>2026-03-25T08:24:47Z</time>
      </trkpt>
      <trkpt lat="44.7081" lon="6.84921">
        <ele>1780.8</ele>
        <time>2026-03-25T08:24:48Z</time>
      </trkpt>
      <trkpt lat="44.70808" lon="6.84922">
        <ele>1780.9</ele>
        <time>2026-03-25T08:24:49Z</time>
      </trkpt>
      <trkpt lat="44.70807" lon="6.84922">
        <ele>1780.9</ele>
        <time>2026-03-25T08:24:51Z</time>
      </trkpt>
      <trkpt lat="44.70806" lon="6.84923">
        <ele>1780.9</ele>
        <time>2026-03-25T08:24:52Z</time>
      </trkpt>
      <trkpt lat="44.70804" lon="6.84923">
        <ele>1781</ele>
        <time>2026-03-25T08:24:53Z</time>
      </trkpt>
      <trkpt lat="44.70803" lon="6.84924">
        <ele>1781</ele>
        <time>2026-03-25T08:24:55Z</time>
      </trkpt>
      <trkpt lat="44.70802" lon="6.84924">
        <ele>1781.1</ele>
        <time>2026-03-25T08:24:56Z</time>
      </trkpt>
      <trkpt lat="44.708" lon="6.84924">
        <ele>1781.2</ele>
        <time>2026-03-25T08:24:57Z</time>
      </trkpt>
      <trkpt lat="44.70799" lon="6.84925">
        <ele>1781.2</ele>
        <time>2026-03-25T08:24:58Z</time>
      </trkpt>
      <trkpt lat="44.70798" lon="6.84925">
        <ele>1781.2</ele>
        <time>2026-03-25T08:24:59Z</time>
      </trkpt>
      <trkpt lat="44.70797" lon="6.84926">
        <ele>1781.3</ele>
        <time>2026-03-25T08:25:00Z</time>
      </trkpt>
      <trkpt lat="44.70796" lon="6.84926">
        <ele>1781.3</ele>
        <time>2026-03-25T08:25:01Z</time>
      </trkpt>
      <trkpt lat="44.70795" lon="6.84926">
        <ele>1781.4</ele>
        <time>2026-03-25T08:25:02Z</time>
      </trkpt>
      <trkpt lat="44.70794" lon="6.84927">
        <ele>1781.4</ele>
        <time>2026-03-25T08:25:03Z</time>
      </trkpt>
      <trkpt lat="44.70793" lon="6.84927">
        <ele>1781.4</ele>
        <time>2026-03-25T08:25:04Z</time>
      </trkpt>
      <trkpt lat="44.70792" lon="6.84928">
        <ele>1781.5</ele>
        <time>2026-03-25T08:25:05Z</time>
      </trkpt>
      <trkpt lat="44.70791" lon="6.84928">
        <ele>1781.5</ele>
        <time>2026-03-25T08:25:06Z</time>
      </trkpt>
      <trkpt lat="44.7079" lon="6.84928">
        <ele>1781.6</ele>
        <time>2026-03-25T08:25:07Z</time>
      </trkpt>
      <trkpt lat="44.70789" lon="6.84929">
        <ele>1781.6</ele>
        <time>2026-03-25T08:25:08Z</time>
      </trkpt>
      <trkpt lat="44.70788" lon="6.84929">
        <ele>1781.6</ele>
        <time>2026-03-25T08:25:09Z</time>
      </trkpt>
      <trkpt lat="44.70787" lon="6.84929">
        <ele>1781.7</ele>
        <time>2026-03-25T08:25:10Z</time>
      </trkpt>
      <trkpt lat="44.70786" lon="6.84929">
        <ele>1781.7</ele>
        <time>2026-03-25T08:25:11Z</time>
      </trkpt>
      <trkpt lat="44.70785" lon="6.8493">
        <ele>1781.8</ele>
        <time>2026-03-25T08:25:12Z</time>
      </trkpt>
      <trkpt lat="44.70783" lon="6.84931">
        <ele>1781.9</ele>
        <time>2026-03-25T08:25:13Z</time>
      </trkpt>
      <trkpt lat="44.70782" lon="6.84931">
        <ele>1781.9</ele>
        <time>2026-03-25T08:25:15Z</time>
      </trkpt>
      <trkpt lat="44.70781" lon="6.84931">
        <ele>1781.9</ele>
        <time>2026-03-25T08:25:16Z</time>
      </trkpt>
      <trkpt lat="44.7078" lon="6.84932">
        <ele>1782</ele>
        <time>2026-03-25T08:25:17Z</time>
      </trkpt>
      <trkpt lat="44.70779" lon="6.84932">
        <ele>1782</ele>
        <time>2026-03-25T08:25:18Z</time>
      </trkpt>
      <trkpt lat="44.70778" lon="6.84933">
        <ele>1782.1</ele>
        <time>2026-03-25T08:25:19Z</time>
      </trkpt>
      <trkpt lat="44.70777" lon="6.84933">
        <ele>1782.1</ele>
        <time>2026-03-25T08:25:20Z</time>
      </trkpt>
      <trkpt lat="44.70776" lon="6.84933">
        <ele>1782.1</ele>
        <time>2026-03-25T08:25:21Z</time>
      </trkpt>
      <trkpt lat="44.70776" lon="6.84933">
        <ele>1782.2</ele>
        <time>2026-03-25T08:25:22Z</time>
      </trkpt>
      <trkpt lat="44.70774" lon="6.84934">
        <ele>1782.2</ele>
        <time>2026-03-25T08:25:23Z</time>
      </trkpt>
      <trkpt lat="44.70773" lon="6.84934">
        <ele>1782.3</ele>
        <time>2026-03-25T08:25:24Z</time>
      </trkpt>
      <trkpt lat="44.70771" lon="6.84935">
        <ele>1782.4</ele>
        <time>2026-03-25T08:25:25Z</time>
      </trkpt>
      <trkpt lat="44.7077" lon="6.84936">
        <ele>1782.5</ele>
        <time>2026-03-25T08:25:27Z</time>
      </trkpt>
      <trkpt lat="44.70769" lon="6.84936">
        <ele>1782.5</ele>
        <time>2026-03-25T08:25:28Z</time>
      </trkpt>
      <trkpt lat="44.70768" lon="6.84937">
        <ele>1782.6</ele>
        <time>2026-03-25T08:25:29Z</time>
      </trkpt>
      <trkpt lat="44.70767" lon="6.84937">
        <ele>1782.6</ele>
        <time>2026-03-25T08:25:30Z</time>
      </trkpt>
      <trkpt lat="44.70767" lon="6.84937">
        <ele>1782.6</ele>
        <time>2026-03-25T08:25:31Z</time>
      </trkpt>
      <trkpt lat="44.70766" lon="6.84937">
        <ele>1782.7</ele>
        <time>2026-03-25T08:25:32Z</time>
      </trkpt>
      <trkpt lat="44.70765" lon="6.84937">
        <ele>1782.7</ele>
        <time>2026-03-25T08:25:33Z</time>
      </trkpt>
      <trkpt lat="44.70764" lon="6.84937">
        <ele>1782.7</ele>
        <time>2026-03-25T08:25:34Z</time>
      </trkpt>
      <trkpt lat="44.70764" lon="6.84938">
        <ele>1782.8</ele>
        <time>2026-03-25T08:25:35Z</time>
      </trkpt>
      <trkpt lat="44.70763" lon="6.84938">
        <ele>1782.8</ele>
        <time>2026-03-25T08:25:36Z</time>
      </trkpt>
      <trkpt lat="44.70762" lon="6.84938">
        <ele>1782.9</ele>
        <time>2026-03-25T08:25:37Z</time>
      </trkpt>
      <trkpt lat="44.70761" lon="6.84939">
        <ele>1782.9</ele>
        <time>2026-03-25T08:25:38Z</time>
      </trkpt>
      <trkpt lat="44.7076" lon="6.84939">
        <ele>1782.9</ele>
        <time>2026-03-25T08:25:39Z</time>
      </trkpt>
      <trkpt lat="44.70759" lon="6.84939">
        <ele>1783</ele>
        <time>2026-03-25T08:25:40Z</time>
      </trkpt>
      <trkpt lat="44.70758" lon="6.8494">
        <ele>1783.1</ele>
        <time>2026-03-25T08:25:41Z</time>
      </trkpt>
      <trkpt lat="44.70757" lon="6.8494">
        <ele>1783.1</ele>
        <time>2026-03-25T08:25:42Z</time>
      </trkpt>
      <trkpt lat="44.70756" lon="6.8494">
        <ele>1783.1</ele>
        <time>2026-03-25T08:25:43Z</time>
      </trkpt>
      <trkpt lat="44.70755" lon="6.84941">
        <ele>1783.2</ele>
        <time>2026-03-25T08:25:44Z</time>
      </trkpt>
      <trkpt lat="44.70755" lon="6.84941">
        <ele>1783.2</ele>
        <time>2026-03-25T08:25:45Z</time>
      </trkpt>
      <trkpt lat="44.70754" lon="6.84941">
        <ele>1783.2</ele>
        <time>2026-03-25T08:25:46Z</time>
      </trkpt>
      <trkpt lat="44.70753" lon="6.84942">
        <ele>1783.3</ele>
        <time>2026-03-25T08:25:47Z</time>
      </trkpt>
      <trkpt lat="44.70752" lon="6.84942">
        <ele>1783.3</ele>
        <time>2026-03-25T08:25:48Z</time>
      </trkpt>
      <trkpt lat="44.70751" lon="6.84942">
        <ele>1783.4</ele>
        <time>2026-03-25T08:25:49Z</time>
      </trkpt>
      <trkpt lat="44.7075" lon="6.84943">
        <ele>1783.4</ele>
        <time>2026-03-25T08:25:50Z</time>
      </trkpt>
      <trkpt lat="44.7075" lon="6.84943">
        <ele>1783.5</ele>
        <time>2026-03-25T08:25:51Z</time>
      </trkpt>
      <trkpt lat="44.70749" lon="6.84943">
        <ele>1783.5</ele>
        <time>2026-03-25T08:25:52Z</time>
      </trkpt>
      <trkpt lat="44.70748" lon="6.84944">
        <ele>1783.6</ele>
        <time>2026-03-25T08:25:53Z</time>
      </trkpt>
      <trkpt lat="44.70747" lon="6.84944">
        <ele>1783.6</ele>
        <time>2026-03-25T08:25:54Z</time>
      </trkpt>
      <trkpt lat="44.70746" lon="6.84944">
        <ele>1783.6</ele>
        <time>2026-03-25T08:25:56Z</time>
      </trkpt>
      <trkpt lat="44.70745" lon="6.84944">
        <ele>1783.7</ele>
        <time>2026-03-25T08:25:57Z</time>
      </trkpt>
      <trkpt lat="44.70744" lon="6.84944">
        <ele>1783.7</ele>
        <time>2026-03-25T08:25:58Z</time>
      </trkpt>
      <trkpt lat="44.70743" lon="6.84945">
        <ele>1783.8</ele>
        <time>2026-03-25T08:25:59Z</time>
      </trkpt>
      <trkpt lat="44.70741" lon="6.84946">
        <ele>1783.9</ele>
        <time>2026-03-25T08:26:00Z</time>
      </trkpt>
      <trkpt lat="44.7074" lon="6.84946">
        <ele>1783.9</ele>
        <time>2026-03-25T08:26:02Z</time>
      </trkpt>
      <trkpt lat="44.70739" lon="6.84947">
        <ele>1784</ele>
        <time>2026-03-25T08:26:03Z</time>
      </trkpt>
      <trkpt lat="44.70738" lon="6.84947">
        <ele>1784</ele>
        <time>2026-03-25T08:26:05Z</time>
      </trkpt>
      <trkpt lat="44.70737" lon="6.84948">
        <ele>1784.1</ele>
        <time>2026-03-25T08:26:06Z</time>
      </trkpt>
      <trkpt lat="44.70736" lon="6.84948">
        <ele>1784.1</ele>
        <time>2026-03-25T08:26:07Z</time>
      </trkpt>
      <trkpt lat="44.70735" lon="6.84948">
        <ele>1784.2</ele>
        <time>2026-03-25T08:26:08Z</time>
      </trkpt>
      <trkpt lat="44.70734" lon="6.84949">
        <ele>1784.2</ele>
        <time>2026-03-25T08:26:09Z</time>
      </trkpt>
      <trkpt lat="44.70734" lon="6.84949">
        <ele>1784.3</ele>
        <time>2026-03-25T08:26:10Z</time>
      </trkpt>
      <trkpt lat="44.70733" lon="6.8495">
        <ele>1784.3</ele>
        <time>2026-03-25T08:26:11Z</time>
      </trkpt>
      <trkpt lat="44.70732" lon="6.8495">
        <ele>1784.4</ele>
        <time>2026-03-25T08:26:12Z</time>
      </trkpt>
      <trkpt lat="44.70731" lon="6.84951">
        <ele>1784.4</ele>
        <time>2026-03-25T08:26:13Z</time>
      </trkpt>
      <trkpt lat="44.70731" lon="6.84951">
        <ele>1784.4</ele>
        <time>2026-03-25T08:26:14Z</time>
      </trkpt>
      <trkpt lat="44.7073" lon="6.84952">
        <ele>1784.5</ele>
        <time>2026-03-25T08:26:15Z</time>
      </trkpt>
      <trkpt lat="44.70729" lon="6.84953">
        <ele>1784.5</ele>
        <time>2026-03-25T08:26:16Z</time>
      </trkpt>
      <trkpt lat="44.70729" lon="6.84953">
        <ele>1784.6</ele>
        <time>2026-03-25T08:26:17Z</time>
      </trkpt>
      <trkpt lat="44.70728" lon="6.84954">
        <ele>1784.6</ele>
        <time>2026-03-25T08:26:18Z</time>
      </trkpt>
      <trkpt lat="44.70726" lon="6.84956">
        <ele>1784.7</ele>
        <time>2026-03-25T08:26:19Z</time>
      </trkpt>
      <trkpt lat="44.70726" lon="6.84957">
        <ele>1784.8</ele>
        <time>2026-03-25T08:26:21Z</time>
      </trkpt>
      <trkpt lat="44.70725" lon="6.84957">
        <ele>1784.8</ele>
        <time>2026-03-25T08:26:22Z</time>
      </trkpt>
      <trkpt lat="44.70724" lon="6.84958">
        <ele>1784.9</ele>
        <time>2026-03-25T08:26:23Z</time>
      </trkpt>
      <trkpt lat="44.70723" lon="6.84959">
        <ele>1784.9</ele>
        <time>2026-03-25T08:26:24Z</time>
      </trkpt>
      <trkpt lat="44.70722" lon="6.8496">
        <ele>1785</ele>
        <time>2026-03-25T08:26:25Z</time>
      </trkpt>
      <trkpt lat="44.70722" lon="6.84961">
        <ele>1785</ele>
        <time>2026-03-25T08:26:26Z</time>
      </trkpt>
      <trkpt lat="44.70721" lon="6.84962">
        <ele>1785.1</ele>
        <time>2026-03-25T08:26:27Z</time>
      </trkpt>
      <trkpt lat="44.7072" lon="6.84963">
        <ele>1785.1</ele>
        <time>2026-03-25T08:26:28Z</time>
      </trkpt>
      <trkpt lat="44.7072" lon="6.84964">
        <ele>1785.1</ele>
        <time>2026-03-25T08:26:29Z</time>
      </trkpt>
      <trkpt lat="44.70719" lon="6.84964">
        <ele>1785.2</ele>
        <time>2026-03-25T08:26:30Z</time>
      </trkpt>
      <trkpt lat="44.70719" lon="6.84965">
        <ele>1785.2</ele>
        <time>2026-03-25T08:26:31Z</time>
      </trkpt>
      <trkpt lat="44.70718" lon="6.84966">
        <ele>1785.3</ele>
        <time>2026-03-25T08:26:32Z</time>
      </trkpt>
      <trkpt lat="44.70717" lon="6.84967">
        <ele>1785.3</ele>
        <time>2026-03-25T08:26:33Z</time>
      </trkpt>
      <trkpt lat="44.70717" lon="6.84967">
        <ele>1785.3</ele>
        <time>2026-03-25T08:26:34Z</time>
      </trkpt>
      <trkpt lat="44.70716" lon="6.84968">
        <ele>1785.4</ele>
        <time>2026-03-25T08:26:35Z</time>
      </trkpt>
      <trkpt lat="44.70716" lon="6.84968">
        <ele>1785.4</ele>
        <time>2026-03-25T08:26:36Z</time>
      </trkpt>
      <trkpt lat="44.70715" lon="6.84969">
        <ele>1785.4</ele>
        <time>2026-03-25T08:26:37Z</time>
      </trkpt>
      <trkpt lat="44.70714" lon="6.8497">
        <ele>1785.5</ele>
        <time>2026-03-25T08:26:38Z</time>
      </trkpt>
      <trkpt lat="44.70714" lon="6.8497">
        <ele>1785.5</ele>
        <time>2026-03-25T08:26:39Z</time>
      </trkpt>
      <trkpt lat="44.70713" lon="6.84971">
        <ele>1785.5</ele>
        <time>2026-03-25T08:26:40Z</time>
      </trkpt>
      <trkpt lat="44.70713" lon="6.84972">
        <ele>1785.5</ele>
        <time>2026-03-25T08:26:41Z</time>
      </trkpt>
      <trkpt lat="44.70712" lon="6.84972">
        <ele>1785.6</ele>
        <time>2026-03-25T08:26:42Z</time>
      </trkpt>
      <trkpt lat="44.70712" lon="6.84972">
        <ele>1785.6</ele>
        <time>2026-03-25T08:26:43Z</time>
      </trkpt>
      <trkpt lat="44.70711" lon="6.84973">
        <ele>1785.6</ele>
        <time>2026-03-25T08:26:44Z</time>
      </trkpt>
      <trkpt lat="44.70711" lon="6.84973">
        <ele>1785.7</ele>
        <time>2026-03-25T08:26:45Z</time>
      </trkpt>
      <trkpt lat="44.7071" lon="6.84974">
        <ele>1785.7</ele>
        <time>2026-03-25T08:26:46Z</time>
      </trkpt>
      <trkpt lat="44.70709" lon="6.84974">
        <ele>1785.7</ele>
        <time>2026-03-25T08:26:47Z</time>
      </trkpt>
      <trkpt lat="44.70709" lon="6.84975">
        <ele>1785.7</ele>
        <time>2026-03-25T08:26:48Z</time>
      </trkpt>
      <trkpt lat="44.70708" lon="6.84975">
        <ele>1785.8</ele>
        <time>2026-03-25T08:26:49Z</time>
      </trkpt>
      <trkpt lat="44.70707" lon="6.84976">
        <ele>1785.8</ele>
        <time>2026-03-25T08:26:50Z</time>
      </trkpt>
      <trkpt lat="44.70706" lon="6.84976">
        <ele>1785.8</ele>
        <time>2026-03-25T08:26:51Z</time>
      </trkpt>
      <trkpt lat="44.70706" lon="6.84977">
        <ele>1785.9</ele>
        <time>2026-03-25T08:26:52Z</time>
      </trkpt>
      <trkpt lat="44.70705" lon="6.84977">
        <ele>1785.9</ele>
        <time>2026-03-25T08:26:53Z</time>
      </trkpt>
      <trkpt lat="44.70704" lon="6.84978">
        <ele>1786</ele>
        <time>2026-03-25T08:26:54Z</time>
      </trkpt>
      <trkpt lat="44.70703" lon="6.84979">
        <ele>1786</ele>
        <time>2026-03-25T08:26:55Z</time>
      </trkpt>
      <trkpt lat="44.70702" lon="6.8498">
        <ele>1786</ele>
        <time>2026-03-25T08:26:56Z</time>
      </trkpt>
      <trkpt lat="44.70701" lon="6.8498">
        <ele>1786.1</ele>
        <time>2026-03-25T08:26:58Z</time>
      </trkpt>
      <trkpt lat="44.70701" lon="6.84981">
        <ele>1786.1</ele>
        <time>2026-03-25T08:26:59Z</time>
      </trkpt>
      <trkpt lat="44.707" lon="6.84981">
        <ele>1786.1</ele>
        <time>2026-03-25T08:27:00Z</time>
      </trkpt>
      <trkpt lat="44.70699" lon="6.84982">
        <ele>1786.1</ele>
        <time>2026-03-25T08:27:01Z</time>
      </trkpt>
      <trkpt lat="44.70699" lon="6.84982">
        <ele>1786.2</ele>
        <time>2026-03-25T08:27:02Z</time>
      </trkpt>
      <trkpt lat="44.70698" lon="6.84983">
        <ele>1786.2</ele>
        <time>2026-03-25T08:27:03Z</time>
      </trkpt>
      <trkpt lat="44.70697" lon="6.84984">
        <ele>1786.2</ele>
        <time>2026-03-25T08:27:04Z</time>
      </trkpt>
      <trkpt lat="44.70696" lon="6.84985">
        <ele>1786.3</ele>
        <time>2026-03-25T08:27:05Z</time>
      </trkpt>
      <trkpt lat="44.70695" lon="6.84986">
        <ele>1786.3</ele>
        <time>2026-03-25T08:27:06Z</time>
      </trkpt>
      <trkpt lat="44.70694" lon="6.84987">
        <ele>1786.4</ele>
        <time>2026-03-25T08:27:08Z</time>
      </trkpt>
      <trkpt lat="44.70693" lon="6.84988">
        <ele>1786.4</ele>
        <time>2026-03-25T08:27:09Z</time>
      </trkpt>
      <trkpt lat="44.70693" lon="6.84989">
        <ele>1786.4</ele>
        <time>2026-03-25T08:27:10Z</time>
      </trkpt>
      <trkpt lat="44.70692" lon="6.84989">
        <ele>1786.4</ele>
        <time>2026-03-25T08:27:11Z</time>
      </trkpt>
      <trkpt lat="44.70691" lon="6.8499">
        <ele>1786.5</ele>
        <time>2026-03-25T08:27:12Z</time>
      </trkpt>
      <trkpt lat="44.7069" lon="6.84991">
        <ele>1786.5</ele>
        <time>2026-03-25T08:27:13Z</time>
      </trkpt>
      <trkpt lat="44.7069" lon="6.84991">
        <ele>1786.5</ele>
        <time>2026-03-25T08:27:14Z</time>
      </trkpt>
      <trkpt lat="44.70688" lon="6.84992">
        <ele>1786.6</ele>
        <time>2026-03-25T08:27:15Z</time>
      </trkpt>
      <trkpt lat="44.70687" lon="6.84993">
        <ele>1786.6</ele>
        <time>2026-03-25T08:27:16Z</time>
      </trkpt>
      <trkpt lat="44.70686" lon="6.84994">
        <ele>1786.6</ele>
        <time>2026-03-25T08:27:17Z</time>
      </trkpt>
      <trkpt lat="44.70686" lon="6.84994">
        <ele>1786.7</ele>
        <time>2026-03-25T08:27:18Z</time>
      </trkpt>
      <trkpt lat="44.70685" lon="6.84995">
        <ele>1786.7</ele>
        <time>2026-03-25T08:27:19Z</time>
      </trkpt>
      <trkpt lat="44.70684" lon="6.84996">
        <ele>1786.7</ele>
        <time>2026-03-25T08:27:20Z</time>
      </trkpt>
      <trkpt lat="44.70683" lon="6.84996">
        <ele>1786.7</ele>
        <time>2026-03-25T08:27:21Z</time>
      </trkpt>
      <trkpt lat="44.70682" lon="6.84997">
        <ele>1786.8</ele>
        <time>2026-03-25T08:27:22Z</time>
      </trkpt>
      <trkpt lat="44.70681" lon="6.84998">
        <ele>1786.8</ele>
        <time>2026-03-25T08:27:23Z</time>
      </trkpt>
      <trkpt lat="44.7068" lon="6.84999">
        <ele>1786.8</ele>
        <time>2026-03-25T08:27:24Z</time>
      </trkpt>
      <trkpt lat="44.7068" lon="6.85">
        <ele>1786.9</ele>
        <time>2026-03-25T08:27:25Z</time>
      </trkpt>
      <trkpt lat="44.70679" lon="6.85001">
        <ele>1786.9</ele>
        <time>2026-03-25T08:27:26Z</time>
      </trkpt>
      <trkpt lat="44.70678" lon="6.85001">
        <ele>1786.9</ele>
        <time>2026-03-25T08:27:27Z</time>
      </trkpt>
      <trkpt lat="44.70678" lon="6.85002">
        <ele>1786.9</ele>
        <time>2026-03-25T08:27:28Z</time>
      </trkpt>
      <trkpt lat="44.70677" lon="6.85002">
        <ele>1786.9</ele>
        <time>2026-03-25T08:27:29Z</time>
      </trkpt>
      <trkpt lat="44.70676" lon="6.85003">
        <ele>1787</ele>
        <time>2026-03-25T08:27:30Z</time>
      </trkpt>
      <trkpt lat="44.70676" lon="6.85004">
        <ele>1787</ele>
        <time>2026-03-25T08:27:31Z</time>
      </trkpt>
      <trkpt lat="44.70675" lon="6.85005">
        <ele>1787</ele>
        <time>2026-03-25T08:27:32Z</time>
      </trkpt>
      <trkpt lat="44.70674" lon="6.85006">
        <ele>1787.1</ele>
        <time>2026-03-25T08:27:34Z</time>
      </trkpt>
      <trkpt lat="44.70673" lon="6.85007">
        <ele>1787.1</ele>
        <time>2026-03-25T08:27:35Z</time>
      </trkpt>
      <trkpt lat="44.70672" lon="6.85008">
        <ele>1787.1</ele>
        <time>2026-03-25T08:27:36Z</time>
      </trkpt>
      <trkpt lat="44.7067" lon="6.8501">
        <ele>1787.2</ele>
        <time>2026-03-25T08:27:37Z</time>
      </trkpt>
      <trkpt lat="44.7067" lon="6.8501">
        <ele>1787.3</ele>
        <time>2026-03-25T08:27:39Z</time>
      </trkpt>
      <trkpt lat="44.70669" lon="6.85011">
        <ele>1787.3</ele>
        <time>2026-03-25T08:27:40Z</time>
      </trkpt>
      <trkpt lat="44.70667" lon="6.85013">
        <ele>1787.4</ele>
        <time>2026-03-25T08:27:41Z</time>
      </trkpt>
      <trkpt lat="44.70667" lon="6.85013">
        <ele>1787.4</ele>
        <time>2026-03-25T08:27:42Z</time>
      </trkpt>
      <trkpt lat="44.70666" lon="6.85014">
        <ele>1787.5</ele>
        <time>2026-03-25T08:27:43Z</time>
      </trkpt>
      <trkpt lat="44.70665" lon="6.85016">
        <ele>1787.6</ele>
        <time>2026-03-25T08:27:44Z</time>
      </trkpt>
      <trkpt lat="44.70664" lon="6.85017">
        <ele>1787.6</ele>
        <time>2026-03-25T08:27:45Z</time>
      </trkpt>
      <trkpt lat="44.70663" lon="6.85018">
        <ele>1787.7</ele>
        <time>2026-03-25T08:27:46Z</time>
      </trkpt>
      <trkpt lat="44.70662" lon="6.8502">
        <ele>1787.8</ele>
        <time>2026-03-25T08:27:47Z</time>
      </trkpt>
      <trkpt lat="44.70661" lon="6.85021">
        <ele>1787.9</ele>
        <time>2026-03-25T08:27:49Z</time>
      </trkpt>
      <trkpt lat="44.7066" lon="6.85022">
        <ele>1787.9</ele>
        <time>2026-03-25T08:27:50Z</time>
      </trkpt>
      <trkpt lat="44.70659" lon="6.85023">
        <ele>1788</ele>
        <time>2026-03-25T08:27:51Z</time>
      </trkpt>
      <trkpt lat="44.70658" lon="6.85023">
        <ele>1788</ele>
        <time>2026-03-25T08:27:52Z</time>
      </trkpt>
      <trkpt lat="44.70657" lon="6.85024">
        <ele>1788.1</ele>
        <time>2026-03-25T08:27:54Z</time>
      </trkpt>
      <trkpt lat="44.70656" lon="6.85025">
        <ele>1788.2</ele>
        <time>2026-03-25T08:27:55Z</time>
      </trkpt>
      <trkpt lat="44.70655" lon="6.85026">
        <ele>1788.2</ele>
        <time>2026-03-25T08:27:56Z</time>
      </trkpt>
      <trkpt lat="44.70655" lon="6.85026">
        <ele>1788.3</ele>
        <time>2026-03-25T08:27:57Z</time>
      </trkpt>
      <trkpt lat="44.70654" lon="6.85027">
        <ele>1788.3</ele>
        <time>2026-03-25T08:27:58Z</time>
      </trkpt>
      <trkpt lat="44.70653" lon="6.85027">
        <ele>1788.4</ele>
        <time>2026-03-25T08:27:59Z</time>
      </trkpt>
      <trkpt lat="44.70652" lon="6.85028">
        <ele>1788.4</ele>
        <time>2026-03-25T08:28:00Z</time>
      </trkpt>
      <trkpt lat="44.70651" lon="6.85029">
        <ele>1788.5</ele>
        <time>2026-03-25T08:28:01Z</time>
      </trkpt>
      <trkpt lat="44.7065" lon="6.8503">
        <ele>1788.6</ele>
        <time>2026-03-25T08:28:03Z</time>
      </trkpt>
      <trkpt lat="44.7065" lon="6.8503">
        <ele>1788.6</ele>
        <time>2026-03-25T08:28:04Z</time>
      </trkpt>
      <trkpt lat="44.70649" lon="6.8503">
        <ele>1788.7</ele>
        <time>2026-03-25T08:28:05Z</time>
      </trkpt>
      <trkpt lat="44.70648" lon="6.85031">
        <ele>1788.7</ele>
        <time>2026-03-25T08:28:06Z</time>
      </trkpt>
      <trkpt lat="44.70647" lon="6.85032">
        <ele>1788.8</ele>
        <time>2026-03-25T08:28:08Z</time>
      </trkpt>
      <trkpt lat="44.70646" lon="6.85032">
        <ele>1788.8</ele>
        <time>2026-03-25T08:28:09Z</time>
      </trkpt>
      <trkpt lat="44.70645" lon="6.85032">
        <ele>1788.9</ele>
        <time>2026-03-25T08:28:10Z</time>
      </trkpt>
      <trkpt lat="44.70644" lon="6.85033">
        <ele>1788.9</ele>
        <time>2026-03-25T08:28:12Z</time>
      </trkpt>
      <trkpt lat="44.70644" lon="6.85033">
        <ele>1789</ele>
        <time>2026-03-25T08:28:13Z</time>
      </trkpt>
      <trkpt lat="44.70643" lon="6.85033">
        <ele>1789</ele>
        <time>2026-03-25T08:28:14Z</time>
      </trkpt>
      <trkpt lat="44.70643" lon="6.85034">
        <ele>1789</ele>
        <time>2026-03-25T08:28:15Z</time>
      </trkpt>
      <trkpt lat="44.70642" lon="6.85034">
        <ele>1789.1</ele>
        <time>2026-03-25T08:28:17Z</time>
      </trkpt>
      <trkpt lat="44.70641" lon="6.85034">
        <ele>1789.1</ele>
        <time>2026-03-25T08:28:18Z</time>
      </trkpt>
      <trkpt lat="44.70641" lon="6.85035">
        <ele>1789.2</ele>
        <time>2026-03-25T08:28:19Z</time>
      </trkpt>
      <trkpt lat="44.7064" lon="6.85035">
        <ele>1789.2</ele>
        <time>2026-03-25T08:28:20Z</time>
      </trkpt>
      <trkpt lat="44.70639" lon="6.85035">
        <ele>1789.2</ele>
        <time>2026-03-25T08:28:21Z</time>
      </trkpt>
      <trkpt lat="44.70639" lon="6.85036">
        <ele>1789.3</ele>
        <time>2026-03-25T08:28:23Z</time>
      </trkpt>
      <trkpt lat="44.70638" lon="6.85037">
        <ele>1789.3</ele>
        <time>2026-03-25T08:28:24Z</time>
      </trkpt>
      <trkpt lat="44.70637" lon="6.85037">
        <ele>1789.4</ele>
        <time>2026-03-25T08:28:25Z</time>
      </trkpt>
      <trkpt lat="44.70636" lon="6.85038">
        <ele>1789.4</ele>
        <time>2026-03-25T08:28:26Z</time>
      </trkpt>
      <trkpt lat="44.70636" lon="6.85038">
        <ele>1789.5</ele>
        <time>2026-03-25T08:28:27Z</time>
      </trkpt>
      <trkpt lat="44.70635" lon="6.85039">
        <ele>1789.5</ele>
        <time>2026-03-25T08:28:28Z</time>
      </trkpt>
      <trkpt lat="44.70634" lon="6.85039">
        <ele>1789.6</ele>
        <time>2026-03-25T08:28:29Z</time>
      </trkpt>
      <trkpt lat="44.70633" lon="6.8504">
        <ele>1789.6</ele>
        <time>2026-03-25T08:28:30Z</time>
      </trkpt>
      <trkpt lat="44.70632" lon="6.8504">
        <ele>1789.7</ele>
        <time>2026-03-25T08:28:31Z</time>
      </trkpt>
      <trkpt lat="44.70631" lon="6.8504">
        <ele>1789.8</ele>
        <time>2026-03-25T08:28:32Z</time>
      </trkpt>
      <trkpt lat="44.70631" lon="6.85041">
        <ele>1789.8</ele>
        <time>2026-03-25T08:28:33Z</time>
      </trkpt>
      <trkpt lat="44.7063" lon="6.85041">
        <ele>1789.8</ele>
        <time>2026-03-25T08:28:34Z</time>
      </trkpt>
      <trkpt lat="44.7063" lon="6.85041">
        <ele>1789.9</ele>
        <time>2026-03-25T08:28:35Z</time>
      </trkpt>
      <trkpt lat="44.70628" lon="6.85042">
        <ele>1789.9</ele>
        <time>2026-03-25T08:28:36Z</time>
      </trkpt>
      <trkpt lat="44.70627" lon="6.85043">
        <ele>1790</ele>
        <time>2026-03-25T08:28:38Z</time>
      </trkpt>
      <trkpt lat="44.70626" lon="6.85043">
        <ele>1790.1</ele>
        <time>2026-03-25T08:28:39Z</time>
      </trkpt>
      <trkpt lat="44.70625" lon="6.85044">
        <ele>1790.1</ele>
        <time>2026-03-25T08:28:40Z</time>
      </trkpt>
      <trkpt lat="44.70625" lon="6.85044">
        <ele>1790.2</ele>
        <time>2026-03-25T08:28:41Z</time>
      </trkpt>
      <trkpt lat="44.70625" lon="6.85045">
        <ele>1790.2</ele>
        <time>2026-03-25T08:28:42Z</time>
      </trkpt>
      <trkpt lat="44.70624" lon="6.85045">
        <ele>1790.2</ele>
        <time>2026-03-25T08:28:43Z</time>
      </trkpt>
      <trkpt lat="44.70623" lon="6.85046">
        <ele>1790.3</ele>
        <time>2026-03-25T08:28:44Z</time>
      </trkpt>
      <trkpt lat="44.70623" lon="6.85047">
        <ele>1790.3</ele>
        <time>2026-03-25T08:28:45Z</time>
      </trkpt>
      <trkpt lat="44.70622" lon="6.85047">
        <ele>1790.4</ele>
        <time>2026-03-25T08:28:46Z</time>
      </trkpt>
      <trkpt lat="44.70622" lon="6.85047">
        <ele>1790.4</ele>
        <time>2026-03-25T08:28:47Z</time>
      </trkpt>
      <trkpt lat="44.7062" lon="6.85048">
        <ele>1790.5</ele>
        <time>2026-03-25T08:28:48Z</time>
      </trkpt>
      <trkpt lat="44.7062" lon="6.85048">
        <ele>1790.5</ele>
        <time>2026-03-25T08:28:49Z</time>
      </trkpt>
      <trkpt lat="44.70619" lon="6.85049">
        <ele>1790.6</ele>
        <time>2026-03-25T08:28:51Z</time>
      </trkpt>
      <trkpt lat="44.70618" lon="6.85049">
        <ele>1790.7</ele>
        <time>2026-03-25T08:28:52Z</time>
      </trkpt>
      <trkpt lat="44.70617" lon="6.8505">
        <ele>1790.7</ele>
        <time>2026-03-25T08:28:53Z</time>
      </trkpt>
      <trkpt lat="44.70616" lon="6.8505">
        <ele>1790.8</ele>
        <time>2026-03-25T08:28:54Z</time>
      </trkpt>
      <trkpt lat="44.70614" lon="6.85051">
        <ele>1790.9</ele>
        <time>2026-03-25T08:28:56Z</time>
      </trkpt>
      <trkpt lat="44.70614" lon="6.85051">
        <ele>1791</ele>
        <time>2026-03-25T08:28:57Z</time>
      </trkpt>
      <trkpt lat="44.70613" lon="6.85052">
        <ele>1791.1</ele>
        <time>2026-03-25T08:28:58Z</time>
      </trkpt>
      <trkpt lat="44.70612" lon="6.85052">
        <ele>1791.1</ele>
        <time>2026-03-25T08:28:59Z</time>
      </trkpt>
      <trkpt lat="44.70611" lon="6.85053">
        <ele>1791.2</ele>
        <time>2026-03-25T08:29:00Z</time>
      </trkpt>
      <trkpt lat="44.70611" lon="6.85053">
        <ele>1791.2</ele>
        <time>2026-03-25T08:29:01Z</time>
      </trkpt>
      <trkpt lat="44.70609" lon="6.85054">
        <ele>1791.3</ele>
        <time>2026-03-25T08:29:02Z</time>
      </trkpt>
      <trkpt lat="44.70609" lon="6.85054">
        <ele>1791.3</ele>
        <time>2026-03-25T08:29:03Z</time>
      </trkpt>
      <trkpt lat="44.70608" lon="6.85055">
        <ele>1791.4</ele>
        <time>2026-03-25T08:29:04Z</time>
      </trkpt>
      <trkpt lat="44.70607" lon="6.85055">
        <ele>1791.4</ele>
        <time>2026-03-25T08:29:05Z</time>
      </trkpt>
      <trkpt lat="44.70607" lon="6.85056">
        <ele>1791.5</ele>
        <time>2026-03-25T08:29:06Z</time>
      </trkpt>
      <trkpt lat="44.70606" lon="6.85056">
        <ele>1791.5</ele>
        <time>2026-03-25T08:29:07Z</time>
      </trkpt>
      <trkpt lat="44.70605" lon="6.85056">
        <ele>1791.6</ele>
        <time>2026-03-25T08:29:08Z</time>
      </trkpt>
      <trkpt lat="44.70604" lon="6.85057">
        <ele>1791.7</ele>
        <time>2026-03-25T08:29:09Z</time>
      </trkpt>
      <trkpt lat="44.70603" lon="6.85058">
        <ele>1791.7</ele>
        <time>2026-03-25T08:29:10Z</time>
      </trkpt>
      <trkpt lat="44.70602" lon="6.85058">
        <ele>1791.8</ele>
        <time>2026-03-25T08:29:11Z</time>
      </trkpt>
      <trkpt lat="44.70602" lon="6.85059">
        <ele>1791.9</ele>
        <time>2026-03-25T08:29:12Z</time>
      </trkpt>
      <trkpt lat="44.70601" lon="6.85059">
        <ele>1791.9</ele>
        <time>2026-03-25T08:29:13Z</time>
      </trkpt>
      <trkpt lat="44.70601" lon="6.8506">
        <ele>1791.9</ele>
        <time>2026-03-25T08:29:14Z</time>
      </trkpt>
      <trkpt lat="44.706" lon="6.8506">
        <ele>1792</ele>
        <time>2026-03-25T08:29:15Z</time>
      </trkpt>
      <trkpt lat="44.70599" lon="6.85061">
        <ele>1792</ele>
        <time>2026-03-25T08:29:16Z</time>
      </trkpt>
      <trkpt lat="44.70599" lon="6.85061">
        <ele>1792.1</ele>
        <time>2026-03-25T08:29:17Z</time>
      </trkpt>
      <trkpt lat="44.70598" lon="6.85061">
        <ele>1792.1</ele>
        <time>2026-03-25T08:29:18Z</time>
      </trkpt>
      <trkpt lat="44.70597" lon="6.85062">
        <ele>1792.2</ele>
        <time>2026-03-25T08:29:19Z</time>
      </trkpt>
      <trkpt lat="44.70597" lon="6.85062">
        <ele>1792.2</ele>
        <time>2026-03-25T08:29:21Z</time>
      </trkpt>
      <trkpt lat="44.70597" lon="6.85062">
        <ele>1792.3</ele>
        <time>2026-03-25T08:29:22Z</time>
      </trkpt>
      <trkpt lat="44.70597" lon="6.85062">
        <ele>1792.3</ele>
        <time>2026-03-25T08:29:23Z</time>
      </trkpt>
      <trkpt lat="44.70597" lon="6.85062">
        <ele>1792.3</ele>
        <time>2026-03-25T08:29:24Z</time>
      </trkpt>
      <trkpt lat="44.70597" lon="6.85062">
        <ele>1792.3</ele>
        <time>2026-03-25T08:29:25Z</time>
      </trkpt>
      <trkpt lat="44.70597" lon="6.85062">
        <ele>1792.3</ele>
        <time>2026-03-25T08:29:26Z</time>
      </trkpt>
      <trkpt lat="44.70597" lon="6.85062">
        <ele>1792.3</ele>
        <time>2026-03-25T08:29:27Z</time>
      </trkpt>
      <trkpt lat="44.70597" lon="6.85061">
        <ele>1792.3</ele>
        <time>2026-03-25T08:29:28Z</time>
      </trkpt>
      <trkpt lat="44.70596" lon="6.85061">
        <ele>1792.3</ele>
        <time>2026-03-25T08:29:29Z</time>
      </trkpt>
      <trkpt lat="44.70596" lon="6.85061">
        <ele>1792.3</ele>
        <time>2026-03-25T08:29:30Z</time>
      </trkpt>
      <trkpt lat="44.70596" lon="6.85061">
        <ele>1792.4</ele>
        <time>2026-03-25T08:29:31Z</time>
      </trkpt>
      <trkpt lat="44.70596" lon="6.85061">
        <ele>1792.4</ele>
        <time>2026-03-25T08:29:32Z</time>
      </trkpt>
      <trkpt lat="44.70596" lon="6.85061">
        <ele>1792.4</ele>
        <time>2026-03-25T08:29:33Z</time>
      </trkpt>
      <trkpt lat="44.70596" lon="6.85062">
        <ele>1792.4</ele>
        <time>2026-03-25T08:29:34Z</time>
      </trkpt>
      <trkpt lat="44.70596" lon="6.85061">
        <ele>1792.4</ele>
        <time>2026-03-25T08:29:35Z</time>
      </trkpt>
      <trkpt lat="44.70596" lon="6.85061">
        <ele>1792.4</ele>
        <time>2026-03-25T08:29:36Z</time>
      </trkpt>
      <trkpt lat="44.70596" lon="6.85061">
        <ele>1792.4</ele>
        <time>2026-03-25T08:29:37Z</time>
      </trkpt>
      <trkpt lat="44.70596" lon="6.85061">
        <ele>1792.4</ele>
        <time>2026-03-25T08:29:38Z</time>
      </trkpt>
      <trkpt lat="44.70596" lon="6.85061">
        <ele>1792.4</ele>
        <time>2026-03-25T08:29:39Z</time>
      </trkpt>
      <trkpt lat="44.70596" lon="6.85061">
        <ele>1792.4</ele>
        <time>2026-03-25T08:29:40Z</time>
      </trkpt>
      <trkpt lat="44.70595" lon="6.85061">
        <ele>1792.4</ele>
        <time>2026-03-25T08:29:41Z</time>
      </trkpt>
      <trkpt lat="44.70595" lon="6.85061">
        <ele>1792.4</ele>
        <time>2026-03-25T08:29:42Z</time>
      </trkpt>
      <trkpt lat="44.70595" lon="6.85061">
        <ele>1792.5</ele>
        <time>2026-03-25T08:29:43Z</time>
      </trkpt>
      <trkpt lat="44.70595" lon="6.85061">
        <ele>1792.5</ele>
        <time>2026-03-25T08:29:44Z</time>
      </trkpt>
      <trkpt lat="44.70595" lon="6.85061">
        <ele>1792.5</ele>
        <time>2026-03-25T08:29:45Z</time>
      </trkpt>
      <trkpt lat="44.70595" lon="6.85061">
        <ele>1792.5</ele>
        <time>2026-03-25T08:29:46Z</time>
      </trkpt>
      <trkpt lat="44.70595" lon="6.85061">
        <ele>1792.5</ele>
        <time>2026-03-25T08:29:47Z</time>
      </trkpt>
      <trkpt lat="44.70595" lon="6.85061">
        <ele>1792.5</ele>
        <time>2026-03-25T08:29:48Z</time>
      </trkpt>
      <trkpt lat="44.70594" lon="6.85061">
        <ele>1792.5</ele>
        <time>2026-03-25T08:29:49Z</time>
      </trkpt>
      <trkpt lat="44.70594" lon="6.85061">
        <ele>1792.5</ele>
        <time>2026-03-25T08:29:50Z</time>
      </trkpt>
      <trkpt lat="44.70594" lon="6.85061">
        <ele>1792.5</ele>
        <time>2026-03-25T08:29:51Z</time>
      </trkpt>
      <trkpt lat="44.70594" lon="6.85061">
        <ele>1792.5</ele>
        <time>2026-03-25T08:29:52Z</time>
      </trkpt>
      <trkpt lat="44.70594" lon="6.85061">
        <ele>1792.5</ele>
        <time>2026-03-25T08:29:53Z</time>
      </trkpt>
      <trkpt lat="44.70594" lon="6.85061">
        <ele>1792.5</ele>
        <time>2026-03-25T08:29:54Z</time>
      </trkpt>
      <trkpt lat="44.70594" lon="6.85061">
        <ele>1792.5</ele>
        <time>2026-03-25T08:29:55Z</time>
      </trkpt>
      <trkpt lat="44.70594" lon="6.85061">
        <ele>1792.5</ele>
        <time>2026-03-25T08:29:56Z</time>
      </trkpt>
      <trkpt lat="44.70594" lon="6.85061">
        <ele>1792.5</ele>
        <time>2026-03-25T08:29:57Z</time>
      </trkpt>
      <trkpt lat="44.70594" lon="6.85061">
        <ele>1792.6</ele>
        <time>2026-03-25T08:29:58Z</time>
      </trkpt>
      <trkpt lat="44.70594" lon="6.85061">
        <ele>1792.6</ele>
        <time>2026-03-25T08:29:59Z</time>
      </trkpt>
      <trkpt lat="44.70594" lon="6.85061">
        <ele>1792.6</ele>
        <time>2026-03-25T08:30:00Z</time>
      </trkpt>
      <trkpt lat="44.70594" lon="6.85061">
        <ele>1792.6</ele>
        <time>2026-03-25T08:30:01Z</time>
      </trkpt>
      <trkpt lat="44.70594" lon="6.85061">
        <ele>1792.6</ele>
        <time>2026-03-25T08:30:02Z</time>
      </trkpt>
      <trkpt lat="44.70594" lon="6.85062">
        <ele>1792.6</ele>
        <time>2026-03-25T08:30:03Z</time>
      </trkpt>
      <trkpt lat="44.70594" lon="6.85062">
        <ele>1792.6</ele>
        <time>2026-03-25T08:30:04Z</time>
      </trkpt>
      <trkpt lat="44.70594" lon="6.85062">
        <ele>1792.6</ele>
        <time>2026-03-25T08:30:05Z</time>
      </trkpt>
      <trkpt lat="44.70594" lon="6.85062">
        <ele>1792.6</ele>
        <time>2026-03-25T08:30:06Z</time>
      </trkpt>
      <trkpt lat="44.70594" lon="6.85062">
        <ele>1792.6</ele>
        <time>2026-03-25T08:30:07Z</time>
      </trkpt>
      <trkpt lat="44.70593" lon="6.85062">
        <ele>1792.6</ele>
        <time>2026-03-25T08:30:08Z</time>
      </trkpt>
      <trkpt lat="44.70593" lon="6.85062">
        <ele>1792.6</ele>
        <time>2026-03-25T08:30:09Z</time>
      </trkpt>
      <trkpt lat="44.70593" lon="6.85062">
        <ele>1792.6</ele>
        <time>2026-03-25T08:30:10Z</time>
      </trkpt>
      <trkpt lat="44.70593" lon="6.85062">
        <ele>1792.6</ele>
        <time>2026-03-25T08:30:11Z</time>
      </trkpt>
      <trkpt lat="44.70592" lon="6.85062">
        <ele>1792.7</ele>
        <time>2026-03-25T08:30:12Z</time>
      </trkpt>
      <trkpt lat="44.70592" lon="6.85063">
        <ele>1792.7</ele>
        <time>2026-03-25T08:30:14Z</time>
      </trkpt>
      <trkpt lat="44.70591" lon="6.85063">
        <ele>1792.8</ele>
        <time>2026-03-25T08:30:15Z</time>
      </trkpt>
      <trkpt lat="44.70589" lon="6.85064">
        <ele>1792.9</ele>
        <time>2026-03-25T08:30:16Z</time>
      </trkpt>
      <trkpt lat="44.70588" lon="6.85064">
        <ele>1793</ele>
        <time>2026-03-25T08:30:18Z</time>
      </trkpt>
      <trkpt lat="44.70587" lon="6.85064">
        <ele>1793.1</ele>
        <time>2026-03-25T08:30:19Z</time>
      </trkpt>
      <trkpt lat="44.70585" lon="6.85065">
        <ele>1793.2</ele>
        <time>2026-03-25T08:30:20Z</time>
      </trkpt>
      <trkpt lat="44.70584" lon="6.85065">
        <ele>1793.3</ele>
        <time>2026-03-25T08:30:22Z</time>
      </trkpt>
      <trkpt lat="44.70582" lon="6.85066">
        <ele>1793.4</ele>
        <time>2026-03-25T08:30:23Z</time>
      </trkpt>
      <trkpt lat="44.70582" lon="6.85066">
        <ele>1793.5</ele>
        <time>2026-03-25T08:30:24Z</time>
      </trkpt>
      <trkpt lat="44.7058" lon="6.85067">
        <ele>1793.6</ele>
        <time>2026-03-25T08:30:25Z</time>
      </trkpt>
      <trkpt lat="44.70579" lon="6.85068">
        <ele>1793.7</ele>
        <time>2026-03-25T08:30:26Z</time>
      </trkpt>
      <trkpt lat="44.70579" lon="6.85068">
        <ele>1793.8</ele>
        <time>2026-03-25T08:30:27Z</time>
      </trkpt>
      <trkpt lat="44.70578" lon="6.85069">
        <ele>1793.8</ele>
        <time>2026-03-25T08:30:28Z</time>
      </trkpt>
      <trkpt lat="44.70578" lon="6.85069">
        <ele>1793.9</ele>
        <time>2026-03-25T08:30:29Z</time>
      </trkpt>
      <trkpt lat="44.70577" lon="6.85071">
        <ele>1794</ele>
        <time>2026-03-25T08:30:30Z</time>
      </trkpt>
      <trkpt lat="44.70576" lon="6.85072">
        <ele>1794.1</ele>
        <time>2026-03-25T08:30:31Z</time>
      </trkpt>
      <trkpt lat="44.70576" lon="6.85073">
        <ele>1794.2</ele>
        <time>2026-03-25T08:30:32Z</time>
      </trkpt>
      <trkpt lat="44.70575" lon="6.85074">
        <ele>1794.3</ele>
        <time>2026-03-25T08:30:33Z</time>
      </trkpt>
      <trkpt lat="44.70575" lon="6.85075">
        <ele>1794.4</ele>
        <time>2026-03-25T08:30:34Z</time>
      </trkpt>
      <trkpt lat="44.70574" lon="6.85076">
        <ele>1794.5</ele>
        <time>2026-03-25T08:30:35Z</time>
      </trkpt>
      <trkpt lat="44.70573" lon="6.85077">
        <ele>1794.6</ele>
        <time>2026-03-25T08:30:36Z</time>
      </trkpt>
      <trkpt lat="44.70572" lon="6.85078">
        <ele>1794.7</ele>
        <time>2026-03-25T08:30:37Z</time>
      </trkpt>
      <trkpt lat="44.70571" lon="6.8508">
        <ele>1794.9</ele>
        <time>2026-03-25T08:30:39Z</time>
      </trkpt>
      <trkpt lat="44.70571" lon="6.85081">
        <ele>1795</ele>
        <time>2026-03-25T08:30:40Z</time>
      </trkpt>
      <trkpt lat="44.7057" lon="6.85082">
        <ele>1795.1</ele>
        <time>2026-03-25T08:30:41Z</time>
      </trkpt>
      <trkpt lat="44.7057" lon="6.85084">
        <ele>1795.2</ele>
        <time>2026-03-25T08:30:43Z</time>
      </trkpt>
      <trkpt lat="44.70569" lon="6.85085">
        <ele>1795.3</ele>
        <time>2026-03-25T08:30:44Z</time>
      </trkpt>
      <trkpt lat="44.70569" lon="6.85086">
        <ele>1795.4</ele>
        <time>2026-03-25T08:30:45Z</time>
      </trkpt>
      <trkpt lat="44.70569" lon="6.85087">
        <ele>1795.5</ele>
        <time>2026-03-25T08:30:46Z</time>
      </trkpt>
      <trkpt lat="44.70568" lon="6.85088">
        <ele>1795.6</ele>
        <time>2026-03-25T08:30:47Z</time>
      </trkpt>
      <trkpt lat="44.70568" lon="6.85089">
        <ele>1795.6</ele>
        <time>2026-03-25T08:30:48Z</time>
      </trkpt>
      <trkpt lat="44.70568" lon="6.8509">
        <ele>1795.7</ele>
        <time>2026-03-25T08:30:49Z</time>
      </trkpt>
      <trkpt lat="44.70567" lon="6.8509">
        <ele>1795.8</ele>
        <time>2026-03-25T08:30:50Z</time>
      </trkpt>
      <trkpt lat="44.70567" lon="6.85091">
        <ele>1795.8</ele>
        <time>2026-03-25T08:30:51Z</time>
      </trkpt>
      <trkpt lat="44.70567" lon="6.85092">
        <ele>1795.9</ele>
        <time>2026-03-25T08:30:52Z</time>
      </trkpt>
      <trkpt lat="44.70566" lon="6.85092">
        <ele>1796</ele>
        <time>2026-03-25T08:30:54Z</time>
      </trkpt>
      <trkpt lat="44.70565" lon="6.85093">
        <ele>1796</ele>
        <time>2026-03-25T08:30:55Z</time>
      </trkpt>
      <trkpt lat="44.70565" lon="6.85094">
        <ele>1796.1</ele>
        <time>2026-03-25T08:30:56Z</time>
      </trkpt>
      <trkpt lat="44.70564" lon="6.85095">
        <ele>1796.2</ele>
        <time>2026-03-25T08:30:57Z</time>
      </trkpt>
      <trkpt lat="44.70563" lon="6.85096">
        <ele>1796.3</ele>
        <time>2026-03-25T08:30:59Z</time>
      </trkpt>
      <trkpt lat="44.70563" lon="6.85096">
        <ele>1796.3</ele>
        <time>2026-03-25T08:31:00Z</time>
      </trkpt>
      <trkpt lat="44.70562" lon="6.85097">
        <ele>1796.4</ele>
        <time>2026-03-25T08:31:01Z</time>
      </trkpt>
      <trkpt lat="44.70562" lon="6.85097">
        <ele>1796.4</ele>
        <time>2026-03-25T08:31:02Z</time>
      </trkpt>
      <trkpt lat="44.70562" lon="6.85098">
        <ele>1796.5</ele>
        <time>2026-03-25T08:31:03Z</time>
      </trkpt>
      <trkpt lat="44.70561" lon="6.85098">
        <ele>1796.5</ele>
        <time>2026-03-25T08:31:04Z</time>
      </trkpt>
      <trkpt lat="44.70561" lon="6.85099">
        <ele>1796.6</ele>
        <time>2026-03-25T08:31:05Z</time>
      </trkpt>
      <trkpt lat="44.7056" lon="6.85099">
        <ele>1796.7</ele>
        <time>2026-03-25T08:31:06Z</time>
      </trkpt>
      <trkpt lat="44.7056" lon="6.851">
        <ele>1796.7</ele>
        <time>2026-03-25T08:31:07Z</time>
      </trkpt>
      <trkpt lat="44.70559" lon="6.85101">
        <ele>1796.8</ele>
        <time>2026-03-25T08:31:08Z</time>
      </trkpt>
      <trkpt lat="44.70558" lon="6.85101">
        <ele>1796.8</ele>
        <time>2026-03-25T08:31:09Z</time>
      </trkpt>
      <trkpt lat="44.70558" lon="6.85102">
        <ele>1796.9</ele>
        <time>2026-03-25T08:31:10Z</time>
      </trkpt>
      <trkpt lat="44.70557" lon="6.85103">
        <ele>1797</ele>
        <time>2026-03-25T08:31:11Z</time>
      </trkpt>
      <trkpt lat="44.70556" lon="6.85103">
        <ele>1797</ele>
        <time>2026-03-25T08:31:12Z</time>
      </trkpt>
      <trkpt lat="44.70556" lon="6.85104">
        <ele>1797.1</ele>
        <time>2026-03-25T08:31:13Z</time>
      </trkpt>
      <trkpt lat="44.70555" lon="6.85105">
        <ele>1797.2</ele>
        <time>2026-03-25T08:31:14Z</time>
      </trkpt>
      <trkpt lat="44.70554" lon="6.85105">
        <ele>1797.2</ele>
        <time>2026-03-25T08:31:15Z</time>
      </trkpt>
      <trkpt lat="44.70554" lon="6.85106">
        <ele>1797.3</ele>
        <time>2026-03-25T08:31:16Z</time>
      </trkpt>
      <trkpt lat="44.70553" lon="6.85106">
        <ele>1797.4</ele>
        <time>2026-03-25T08:31:17Z</time>
      </trkpt>
      <trkpt lat="44.70552" lon="6.85107">
        <ele>1797.4</ele>
        <time>2026-03-25T08:31:18Z</time>
      </trkpt>
      <trkpt lat="44.70552" lon="6.85108">
        <ele>1797.5</ele>
        <time>2026-03-25T08:31:20Z</time>
      </trkpt>
      <trkpt lat="44.70551" lon="6.85109">
        <ele>1797.6</ele>
        <time>2026-03-25T08:31:21Z</time>
      </trkpt>
      <trkpt lat="44.70551" lon="6.85109">
        <ele>1797.6</ele>
        <time>2026-03-25T08:31:22Z</time>
      </trkpt>
      <trkpt lat="44.7055" lon="6.85109">
        <ele>1797.7</ele>
        <time>2026-03-25T08:31:23Z</time>
      </trkpt>
      <trkpt lat="44.7055" lon="6.8511">
        <ele>1797.7</ele>
        <time>2026-03-25T08:31:24Z</time>
      </trkpt>
      <trkpt lat="44.70549" lon="6.85111">
        <ele>1797.8</ele>
        <time>2026-03-25T08:31:26Z</time>
      </trkpt>
      <trkpt lat="44.70548" lon="6.85111">
        <ele>1797.8</ele>
        <time>2026-03-25T08:31:27Z</time>
      </trkpt>
      <trkpt lat="44.70547" lon="6.85111">
        <ele>1798</ele>
        <time>2026-03-25T08:31:28Z</time>
      </trkpt>
      <trkpt lat="44.70546" lon="6.85112">
        <ele>1798</ele>
        <time>2026-03-25T08:31:29Z</time>
      </trkpt>
      <trkpt lat="44.70545" lon="6.85112">
        <ele>1798.2</ele>
        <time>2026-03-25T08:31:30Z</time>
      </trkpt>
      <trkpt lat="44.70543" lon="6.85113">
        <ele>1798.3</ele>
        <time>2026-03-25T08:31:31Z</time>
      </trkpt>
      <trkpt lat="44.70543" lon="6.85113">
        <ele>1798.3</ele>
        <time>2026-03-25T08:31:32Z</time>
      </trkpt>
      <trkpt lat="44.70542" lon="6.85114">
        <ele>1798.4</ele>
        <time>2026-03-25T08:31:33Z</time>
      </trkpt>
      <trkpt lat="44.70541" lon="6.85115">
        <ele>1798.5</ele>
        <time>2026-03-25T08:31:34Z</time>
      </trkpt>
      <trkpt lat="44.7054" lon="6.85115">
        <ele>1798.6</ele>
        <time>2026-03-25T08:31:36Z</time>
      </trkpt>
      <trkpt lat="44.70539" lon="6.85115">
        <ele>1798.7</ele>
        <time>2026-03-25T08:31:37Z</time>
      </trkpt>
      <trkpt lat="44.70538" lon="6.85116">
        <ele>1798.8</ele>
        <time>2026-03-25T08:31:38Z</time>
      </trkpt>
      <trkpt lat="44.70537" lon="6.85117">
        <ele>1798.9</ele>
        <time>2026-03-25T08:31:39Z</time>
      </trkpt>
      <trkpt lat="44.70536" lon="6.85117">
        <ele>1798.9</ele>
        <time>2026-03-25T08:31:40Z</time>
      </trkpt>
      <trkpt lat="44.70535" lon="6.85118">
        <ele>1799</ele>
        <time>2026-03-25T08:31:41Z</time>
      </trkpt>
      <trkpt lat="44.70534" lon="6.85119">
        <ele>1799.1</ele>
        <time>2026-03-25T08:31:42Z</time>
      </trkpt>
      <trkpt lat="44.70534" lon="6.85119">
        <ele>1799.1</ele>
        <time>2026-03-25T08:31:44Z</time>
      </trkpt>
      <trkpt lat="44.70534" lon="6.85119">
        <ele>1799.2</ele>
        <time>2026-03-25T08:31:45Z</time>
      </trkpt>
      <trkpt lat="44.70534" lon="6.85119">
        <ele>1799.2</ele>
        <time>2026-03-25T08:31:46Z</time>
      </trkpt>
      <trkpt lat="44.70534" lon="6.85119">
        <ele>1799.2</ele>
        <time>2026-03-25T08:31:47Z</time>
      </trkpt>
      <trkpt lat="44.70534" lon="6.85119">
        <ele>1799.2</ele>
        <time>2026-03-25T08:31:48Z</time>
      </trkpt>
      <trkpt lat="44.70534" lon="6.85119">
        <ele>1799.2</ele>
        <time>2026-03-25T08:31:49Z</time>
      </trkpt>
      <trkpt lat="44.70534" lon="6.85119">
        <ele>1799.2</ele>
        <time>2026-03-25T08:31:50Z</time>
      </trkpt>
      <trkpt lat="44.70534" lon="6.85119">
        <ele>1799.2</ele>
        <time>2026-03-25T08:31:51Z</time>
      </trkpt>
      <trkpt lat="44.70534" lon="6.85119">
        <ele>1799.2</ele>
        <time>2026-03-25T08:31:52Z</time>
      </trkpt>
      <trkpt lat="44.70534" lon="6.85119">
        <ele>1799.2</ele>
        <time>2026-03-25T08:31:53Z</time>
      </trkpt>
      <trkpt lat="44.70534" lon="6.85119">
        <ele>1799.2</ele>
        <time>2026-03-25T08:31:54Z</time>
      </trkpt>
      <trkpt lat="44.70534" lon="6.85119">
        <ele>1799.2</ele>
        <time>2026-03-25T08:31:55Z</time>
      </trkpt>
      <trkpt lat="44.70534" lon="6.85119">
        <ele>1799.2</ele>
        <time>2026-03-25T08:31:56Z</time>
      </trkpt>
      <trkpt lat="44.70534" lon="6.85119">
        <ele>1799.2</ele>
        <time>2026-03-25T08:31:57Z</time>
      </trkpt>
      <trkpt lat="44.70534" lon="6.85119">
        <ele>1799.2</ele>
        <time>2026-03-25T08:31:58Z</time>
      </trkpt>
      <trkpt lat="44.70534" lon="6.85119">
        <ele>1799.2</ele>
        <time>2026-03-25T08:31:59Z</time>
      </trkpt>
      <trkpt lat="44.70534" lon="6.85119">
        <ele>1799.2</ele>
        <time>2026-03-25T08:32:00Z</time>
      </trkpt>
      <trkpt lat="44.70534" lon="6.85119">
        <ele>1799.2</ele>
        <time>2026-03-25T08:32:01Z</time>
      </trkpt>
      <trkpt lat="44.70534" lon="6.85119">
        <ele>1799.2</ele>
        <time>2026-03-25T08:32:02Z</time>
      </trkpt>
      <trkpt lat="44.70534" lon="6.85119">
        <ele>1799.2</ele>
        <time>2026-03-25T08:32:03Z</time>
      </trkpt>
      <trkpt lat="44.70534" lon="6.85119">
        <ele>1799.2</ele>
        <time>2026-03-25T08:32:04Z</time>
      </trkpt>
      <trkpt lat="44.70533" lon="6.8512">
        <ele>1799.3</ele>
        <time>2026-03-25T08:32:05Z</time>
      </trkpt>
      <trkpt lat="44.70532" lon="6.8512">
        <ele>1799.3</ele>
        <time>2026-03-25T08:32:07Z</time>
      </trkpt>
      <trkpt lat="44.70532" lon="6.85121">
        <ele>1799.4</ele>
        <time>2026-03-25T08:32:08Z</time>
      </trkpt>
      <trkpt lat="44.70531" lon="6.85121">
        <ele>1799.4</ele>
        <time>2026-03-25T08:32:10Z</time>
      </trkpt>
      <trkpt lat="44.70531" lon="6.85122">
        <ele>1799.5</ele>
        <time>2026-03-25T08:32:11Z</time>
      </trkpt>
      <trkpt lat="44.7053" lon="6.85122">
        <ele>1799.6</ele>
        <time>2026-03-25T08:32:12Z</time>
      </trkpt>
      <trkpt lat="44.70529" lon="6.85123">
        <ele>1799.7</ele>
        <time>2026-03-25T08:32:13Z</time>
      </trkpt>
      <trkpt lat="44.70528" lon="6.85123">
        <ele>1799.8</ele>
        <time>2026-03-25T08:32:15Z</time>
      </trkpt>
      <trkpt lat="44.70528" lon="6.85123">
        <ele>1799.8</ele>
        <time>2026-03-25T08:32:16Z</time>
      </trkpt>
      <trkpt lat="44.70527" lon="6.85123">
        <ele>1799.9</ele>
        <time>2026-03-25T08:32:17Z</time>
      </trkpt>
      <trkpt lat="44.70526" lon="6.85123">
        <ele>1799.9</ele>
        <time>2026-03-25T08:32:18Z</time>
      </trkpt>
      <trkpt lat="44.70526" lon="6.85123">
        <ele>1800</ele>
        <time>2026-03-25T08:32:19Z</time>
      </trkpt>
      <trkpt lat="44.70525" lon="6.85123">
        <ele>1800</ele>
        <time>2026-03-25T08:32:20Z</time>
      </trkpt>
      <trkpt lat="44.70525" lon="6.85123">
        <ele>1800</ele>
        <time>2026-03-25T08:32:21Z</time>
      </trkpt>
      <trkpt lat="44.70524" lon="6.85123">
        <ele>1800.1</ele>
        <time>2026-03-25T08:32:22Z</time>
      </trkpt>
      <trkpt lat="44.70524" lon="6.85123">
        <ele>1800.1</ele>
        <time>2026-03-25T08:32:23Z</time>
      </trkpt>
      <trkpt lat="44.70523" lon="6.85124">
        <ele>1800.2</ele>
        <time>2026-03-25T08:32:24Z</time>
      </trkpt>
      <trkpt lat="44.70522" lon="6.85124">
        <ele>1800.3</ele>
        <time>2026-03-25T08:32:25Z</time>
      </trkpt>
      <trkpt lat="44.70522" lon="6.85124">
        <ele>1800.3</ele>
        <time>2026-03-25T08:32:26Z</time>
      </trkpt>
      <trkpt lat="44.70521" lon="6.85124">
        <ele>1800.4</ele>
        <time>2026-03-25T08:32:27Z</time>
      </trkpt>
      <trkpt lat="44.7052" lon="6.85125">
        <ele>1800.4</ele>
        <time>2026-03-25T08:32:28Z</time>
      </trkpt>
      <trkpt lat="44.70519" lon="6.85125">
        <ele>1800.6</ele>
        <time>2026-03-25T08:32:29Z</time>
      </trkpt>
      <trkpt lat="44.70518" lon="6.85125">
        <ele>1800.6</ele>
        <time>2026-03-25T08:32:30Z</time>
      </trkpt>
      <trkpt lat="44.70517" lon="6.85125">
        <ele>1800.7</ele>
        <time>2026-03-25T08:32:31Z</time>
      </trkpt>
      <trkpt lat="44.70517" lon="6.85125">
        <ele>1800.8</ele>
        <time>2026-03-25T08:32:32Z</time>
      </trkpt>
      <trkpt lat="44.70516" lon="6.85125">
        <ele>1800.8</ele>
        <time>2026-03-25T08:32:34Z</time>
      </trkpt>
      <trkpt lat="44.70515" lon="6.85126">
        <ele>1800.9</ele>
        <time>2026-03-25T08:32:35Z</time>
      </trkpt>
      <trkpt lat="44.70514" lon="6.85126">
        <ele>1801</ele>
        <time>2026-03-25T08:32:36Z</time>
      </trkpt>
      <trkpt lat="44.70514" lon="6.85126">
        <ele>1801</ele>
        <time>2026-03-25T08:32:37Z</time>
      </trkpt>
      <trkpt lat="44.70513" lon="6.85126">
        <ele>1801.1</ele>
        <time>2026-03-25T08:32:38Z</time>
      </trkpt>
      <trkpt lat="44.70511" lon="6.85127">
        <ele>1801.3</ele>
        <time>2026-03-25T08:32:39Z</time>
      </trkpt>
      <trkpt lat="44.7051" lon="6.85127">
        <ele>1801.3</ele>
        <time>2026-03-25T08:32:41Z</time>
      </trkpt>
      <trkpt lat="44.7051" lon="6.85128">
        <ele>1801.4</ele>
        <time>2026-03-25T08:32:42Z</time>
      </trkpt>
      <trkpt lat="44.70509" lon="6.85128">
        <ele>1801.5</ele>
        <time>2026-03-25T08:32:43Z</time>
      </trkpt>
      <trkpt lat="44.70508" lon="6.85128">
        <ele>1801.6</ele>
        <time>2026-03-25T08:32:44Z</time>
      </trkpt>
      <trkpt lat="44.70507" lon="6.85129">
        <ele>1801.6</ele>
        <time>2026-03-25T08:32:45Z</time>
      </trkpt>
      <trkpt lat="44.70506" lon="6.85129">
        <ele>1801.7</ele>
        <time>2026-03-25T08:32:46Z</time>
      </trkpt>
      <trkpt lat="44.70505" lon="6.85129">
        <ele>1801.9</ele>
        <time>2026-03-25T08:32:47Z</time>
      </trkpt>
      <trkpt lat="44.70504" lon="6.8513">
        <ele>1801.9</ele>
        <time>2026-03-25T08:32:48Z</time>
      </trkpt>
      <trkpt lat="44.70503" lon="6.8513">
        <ele>1802</ele>
        <time>2026-03-25T08:32:50Z</time>
      </trkpt>
      <trkpt lat="44.70502" lon="6.8513">
        <ele>1802.1</ele>
        <time>2026-03-25T08:32:51Z</time>
      </trkpt>
      <trkpt lat="44.70501" lon="6.85131">
        <ele>1802.2</ele>
        <time>2026-03-25T08:32:52Z</time>
      </trkpt>
      <trkpt lat="44.705" lon="6.85131">
        <ele>1802.3</ele>
        <time>2026-03-25T08:32:53Z</time>
      </trkpt>
      <trkpt lat="44.70499" lon="6.85131">
        <ele>1802.4</ele>
        <time>2026-03-25T08:32:54Z</time>
      </trkpt>
      <trkpt lat="44.70498" lon="6.8513">
        <ele>1802.4</ele>
        <time>2026-03-25T08:32:56Z</time>
      </trkpt>
      <trkpt lat="44.70497" lon="6.8513">
        <ele>1802.5</ele>
        <time>2026-03-25T08:32:57Z</time>
      </trkpt>
      <trkpt lat="44.70496" lon="6.8513">
        <ele>1802.6</ele>
        <time>2026-03-25T08:32:58Z</time>
      </trkpt>
      <trkpt lat="44.70496" lon="6.8513">
        <ele>1802.6</ele>
        <time>2026-03-25T08:32:59Z</time>
      </trkpt>
      <trkpt lat="44.70495" lon="6.8513">
        <ele>1802.7</ele>
        <time>2026-03-25T08:33:00Z</time>
      </trkpt>
      <trkpt lat="44.70494" lon="6.8513">
        <ele>1802.8</ele>
        <time>2026-03-25T08:33:01Z</time>
      </trkpt>
      <trkpt lat="44.70493" lon="6.8513">
        <ele>1802.9</ele>
        <time>2026-03-25T08:33:02Z</time>
      </trkpt>
      <trkpt lat="44.70492" lon="6.8513">
        <ele>1802.9</ele>
        <time>2026-03-25T08:33:03Z</time>
      </trkpt>
      <trkpt lat="44.70491" lon="6.8513">
        <ele>1803</ele>
        <time>2026-03-25T08:33:05Z</time>
      </trkpt>
      <trkpt lat="44.7049" lon="6.8513">
        <ele>1803.1</ele>
        <time>2026-03-25T08:33:06Z</time>
      </trkpt>
      <trkpt lat="44.7049" lon="6.8513">
        <ele>1803.1</ele>
        <time>2026-03-25T08:33:07Z</time>
      </trkpt>
      <trkpt lat="44.70489" lon="6.85131">
        <ele>1803.2</ele>
        <time>2026-03-25T08:33:08Z</time>
      </trkpt>
      <trkpt lat="44.70488" lon="6.85131">
        <ele>1803.3</ele>
        <time>2026-03-25T08:33:09Z</time>
      </trkpt>
      <trkpt lat="44.70487" lon="6.85132">
        <ele>1803.3</ele>
        <time>2026-03-25T08:33:11Z</time>
      </trkpt>
      <trkpt lat="44.70487" lon="6.85132">
        <ele>1803.4</ele>
        <time>2026-03-25T08:33:12Z</time>
      </trkpt>
      <trkpt lat="44.70486" lon="6.85133">
        <ele>1803.4</ele>
        <time>2026-03-25T08:33:13Z</time>
      </trkpt>
      <trkpt lat="44.70486" lon="6.85134">
        <ele>1803.5</ele>
        <time>2026-03-25T08:33:14Z</time>
      </trkpt>
      <trkpt lat="44.70485" lon="6.85134">
        <ele>1803.6</ele>
        <time>2026-03-25T08:33:15Z</time>
      </trkpt>
      <trkpt lat="44.70485" lon="6.85135">
        <ele>1803.6</ele>
        <time>2026-03-25T08:33:16Z</time>
      </trkpt>
      <trkpt lat="44.70484" lon="6.85135">
        <ele>1803.7</ele>
        <time>2026-03-25T08:33:17Z</time>
      </trkpt>
      <trkpt lat="44.70483" lon="6.85136">
        <ele>1803.7</ele>
        <time>2026-03-25T08:33:18Z</time>
      </trkpt>
      <trkpt lat="44.70483" lon="6.85136">
        <ele>1803.8</ele>
        <time>2026-03-25T08:33:19Z</time>
      </trkpt>
      <trkpt lat="44.70482" lon="6.85136">
        <ele>1803.8</ele>
        <time>2026-03-25T08:33:20Z</time>
      </trkpt>
      <trkpt lat="44.70481" lon="6.85136">
        <ele>1803.9</ele>
        <time>2026-03-25T08:33:21Z</time>
      </trkpt>
      <trkpt lat="44.70481" lon="6.85137">
        <ele>1804</ele>
        <time>2026-03-25T08:33:22Z</time>
      </trkpt>
      <trkpt lat="44.7048" lon="6.85138">
        <ele>1804</ele>
        <time>2026-03-25T08:33:23Z</time>
      </trkpt>
      <trkpt lat="44.70479" lon="6.85139">
        <ele>1804.1</ele>
        <time>2026-03-25T08:33:24Z</time>
      </trkpt>
      <trkpt lat="44.70478" lon="6.85139">
        <ele>1804.2</ele>
        <time>2026-03-25T08:33:25Z</time>
      </trkpt>
      <trkpt lat="44.70478" lon="6.8514">
        <ele>1804.2</ele>
        <time>2026-03-25T08:33:27Z</time>
      </trkpt>
      <trkpt lat="44.70477" lon="6.8514">
        <ele>1804.3</ele>
        <time>2026-03-25T08:33:28Z</time>
      </trkpt>
      <trkpt lat="44.70477" lon="6.85141">
        <ele>1804.3</ele>
        <time>2026-03-25T08:33:29Z</time>
      </trkpt>
      <trkpt lat="44.70476" lon="6.85141">
        <ele>1804.4</ele>
        <time>2026-03-25T08:33:30Z</time>
      </trkpt>
      <trkpt lat="44.70475" lon="6.85142">
        <ele>1804.5</ele>
        <time>2026-03-25T08:33:31Z</time>
      </trkpt>
      <trkpt lat="44.70475" lon="6.85142">
        <ele>1804.5</ele>
        <time>2026-03-25T08:33:32Z</time>
      </trkpt>
      <trkpt lat="44.70474" lon="6.85143">
        <ele>1804.6</ele>
        <time>2026-03-25T08:33:33Z</time>
      </trkpt>
      <trkpt lat="44.70473" lon="6.85144">
        <ele>1804.7</ele>
        <time>2026-03-25T08:33:34Z</time>
      </trkpt>
      <trkpt lat="44.70472" lon="6.85144">
        <ele>1804.7</ele>
        <time>2026-03-25T08:33:36Z</time>
      </trkpt>
      <trkpt lat="44.70472" lon="6.85145">
        <ele>1804.8</ele>
        <time>2026-03-25T08:33:37Z</time>
      </trkpt>
      <trkpt lat="44.70471" lon="6.85145">
        <ele>1804.8</ele>
        <time>2026-03-25T08:33:38Z</time>
      </trkpt>
      <trkpt lat="44.70471" lon="6.85145">
        <ele>1804.9</ele>
        <time>2026-03-25T08:33:39Z</time>
      </trkpt>
      <trkpt lat="44.7047" lon="6.85146">
        <ele>1805</ele>
        <time>2026-03-25T08:33:40Z</time>
      </trkpt>
      <trkpt lat="44.70469" lon="6.85147">
        <ele>1805</ele>
        <time>2026-03-25T08:33:41Z</time>
      </trkpt>
      <trkpt lat="44.70468" lon="6.85147">
        <ele>1805.1</ele>
        <time>2026-03-25T08:33:43Z</time>
      </trkpt>
      <trkpt lat="44.70468" lon="6.85147">
        <ele>1805.1</ele>
        <time>2026-03-25T08:33:44Z</time>
      </trkpt>
      <trkpt lat="44.70468" lon="6.85147">
        <ele>1805.2</ele>
        <time>2026-03-25T08:33:45Z</time>
      </trkpt>
      <trkpt lat="44.70467" lon="6.85147">
        <ele>1805.2</ele>
        <time>2026-03-25T08:33:46Z</time>
      </trkpt>
      <trkpt lat="44.70467" lon="6.85147">
        <ele>1805.2</ele>
        <time>2026-03-25T08:33:47Z</time>
      </trkpt>
      <trkpt lat="44.70466" lon="6.85147">
        <ele>1805.3</ele>
        <time>2026-03-25T08:33:48Z</time>
      </trkpt>
      <trkpt lat="44.70465" lon="6.85148">
        <ele>1805.4</ele>
        <time>2026-03-25T08:33:49Z</time>
      </trkpt>
      <trkpt lat="44.70464" lon="6.85147">
        <ele>1805.5</ele>
        <time>2026-03-25T08:33:51Z</time>
      </trkpt>
      <trkpt lat="44.70464" lon="6.85147">
        <ele>1805.5</ele>
        <time>2026-03-25T08:33:52Z</time>
      </trkpt>
      <trkpt lat="44.70463" lon="6.85147">
        <ele>1805.6</ele>
        <time>2026-03-25T08:33:53Z</time>
      </trkpt>
      <trkpt lat="44.70462" lon="6.85147">
        <ele>1805.6</ele>
        <time>2026-03-25T08:33:54Z</time>
      </trkpt>
      <trkpt lat="44.70462" lon="6.85148">
        <ele>1805.6</ele>
        <time>2026-03-25T08:33:55Z</time>
      </trkpt>
      <trkpt lat="44.70461" lon="6.85148">
        <ele>1805.7</ele>
        <time>2026-03-25T08:33:56Z</time>
      </trkpt>
      <trkpt lat="44.70461" lon="6.85148">
        <ele>1805.7</ele>
        <time>2026-03-25T08:33:57Z</time>
      </trkpt>
      <trkpt lat="44.7046" lon="6.85149">
        <ele>1805.8</ele>
        <time>2026-03-25T08:33:58Z</time>
      </trkpt>
      <trkpt lat="44.7046" lon="6.8515">
        <ele>1805.9</ele>
        <time>2026-03-25T08:34:00Z</time>
      </trkpt>
      <trkpt lat="44.70459" lon="6.85151">
        <ele>1806</ele>
        <time>2026-03-25T08:34:01Z</time>
      </trkpt>
      <trkpt lat="44.70459" lon="6.85152">
        <ele>1806</ele>
        <time>2026-03-25T08:34:02Z</time>
      </trkpt>
      <trkpt lat="44.70458" lon="6.85152">
        <ele>1806</ele>
        <time>2026-03-25T08:34:03Z</time>
      </trkpt>
      <trkpt lat="44.70458" lon="6.85153">
        <ele>1806.1</ele>
        <time>2026-03-25T08:34:04Z</time>
      </trkpt>
      <trkpt lat="44.70457" lon="6.85153">
        <ele>1806.2</ele>
        <time>2026-03-25T08:34:05Z</time>
      </trkpt>
      <trkpt lat="44.70457" lon="6.85154">
        <ele>1806.2</ele>
        <time>2026-03-25T08:34:06Z</time>
      </trkpt>
      <trkpt lat="44.70456" lon="6.85154">
        <ele>1806.3</ele>
        <time>2026-03-25T08:34:07Z</time>
      </trkpt>
      <trkpt lat="44.70456" lon="6.85154">
        <ele>1806.3</ele>
        <time>2026-03-25T08:34:08Z</time>
      </trkpt>
      <trkpt lat="44.70456" lon="6.85155">
        <ele>1806.3</ele>
        <time>2026-03-25T08:34:09Z</time>
      </trkpt>
      <trkpt lat="44.70456" lon="6.85155">
        <ele>1806.3</ele>
        <time>2026-03-25T08:34:10Z</time>
      </trkpt>
      <trkpt lat="44.70456" lon="6.85155">
        <ele>1806.3</ele>
        <time>2026-03-25T08:34:11Z</time>
      </trkpt>
      <trkpt lat="44.70455" lon="6.85156">
        <ele>1806.4</ele>
        <time>2026-03-25T08:34:12Z</time>
      </trkpt>
      <trkpt lat="44.70454" lon="6.85156">
        <ele>1806.5</ele>
        <time>2026-03-25T08:34:13Z</time>
      </trkpt>
      <trkpt lat="44.70453" lon="6.85157">
        <ele>1806.6</ele>
        <time>2026-03-25T08:34:15Z</time>
      </trkpt>
      <trkpt lat="44.70452" lon="6.85158">
        <ele>1806.7</ele>
        <time>2026-03-25T08:34:16Z</time>
      </trkpt>
      <trkpt lat="44.70451" lon="6.85158">
        <ele>1806.7</ele>
        <time>2026-03-25T08:34:17Z</time>
      </trkpt>
      <trkpt lat="44.70451" lon="6.85158">
        <ele>1806.8</ele>
        <time>2026-03-25T08:34:18Z</time>
      </trkpt>
      <trkpt lat="44.7045" lon="6.85159">
        <ele>1806.9</ele>
        <time>2026-03-25T08:34:19Z</time>
      </trkpt>
      <trkpt lat="44.7045" lon="6.85159">
        <ele>1806.9</ele>
        <time>2026-03-25T08:34:20Z</time>
      </trkpt>
      <trkpt lat="44.70449" lon="6.85159">
        <ele>1807</ele>
        <time>2026-03-25T08:34:21Z</time>
      </trkpt>
      <trkpt lat="44.70449" lon="6.8516">
        <ele>1807</ele>
        <time>2026-03-25T08:34:22Z</time>
      </trkpt>
      <trkpt lat="44.70448" lon="6.8516">
        <ele>1807.1</ele>
        <time>2026-03-25T08:34:23Z</time>
      </trkpt>
      <trkpt lat="44.70447" lon="6.8516">
        <ele>1807.2</ele>
        <time>2026-03-25T08:34:24Z</time>
      </trkpt>
      <trkpt lat="44.70446" lon="6.8516">
        <ele>1807.2</ele>
        <time>2026-03-25T08:34:25Z</time>
      </trkpt>
      <trkpt lat="44.70446" lon="6.85161">
        <ele>1807.3</ele>
        <time>2026-03-25T08:34:26Z</time>
      </trkpt>
      <trkpt lat="44.70445" lon="6.85162">
        <ele>1807.3</ele>
        <time>2026-03-25T08:34:27Z</time>
      </trkpt>
      <trkpt lat="44.70445" lon="6.85163">
        <ele>1807.4</ele>
        <time>2026-03-25T08:34:28Z</time>
      </trkpt>
      <trkpt lat="44.70444" lon="6.85163">
        <ele>1807.5</ele>
        <time>2026-03-25T08:34:29Z</time>
      </trkpt>
      <trkpt lat="44.70443" lon="6.85164">
        <ele>1807.5</ele>
        <time>2026-03-25T08:34:30Z</time>
      </trkpt>
      <trkpt lat="44.70443" lon="6.85165">
        <ele>1807.6</ele>
        <time>2026-03-25T08:34:31Z</time>
      </trkpt>
      <trkpt lat="44.70442" lon="6.85166">
        <ele>1807.7</ele>
        <time>2026-03-25T08:34:32Z</time>
      </trkpt>
      <trkpt lat="44.70442" lon="6.85166">
        <ele>1807.7</ele>
        <time>2026-03-25T08:34:33Z</time>
      </trkpt>
      <trkpt lat="44.70441" lon="6.85166">
        <ele>1807.8</ele>
        <time>2026-03-25T08:34:34Z</time>
      </trkpt>
      <trkpt lat="44.70441" lon="6.85167">
        <ele>1807.9</ele>
        <time>2026-03-25T08:34:36Z</time>
      </trkpt>
      <trkpt lat="44.7044" lon="6.85168">
        <ele>1807.9</ele>
        <time>2026-03-25T08:34:37Z</time>
      </trkpt>
      <trkpt lat="44.7044" lon="6.85168">
        <ele>1808</ele>
        <time>2026-03-25T08:34:38Z</time>
      </trkpt>
      <trkpt lat="44.70439" lon="6.85169">
        <ele>1808</ele>
        <time>2026-03-25T08:34:39Z</time>
      </trkpt>
      <trkpt lat="44.70439" lon="6.85169">
        <ele>1808.1</ele>
        <time>2026-03-25T08:34:40Z</time>
      </trkpt>
      <trkpt lat="44.70438" lon="6.85169">
        <ele>1808.1</ele>
        <time>2026-03-25T08:34:41Z</time>
      </trkpt>
      <trkpt lat="44.70438" lon="6.85169">
        <ele>1808.2</ele>
        <time>2026-03-25T08:34:42Z</time>
      </trkpt>
      <trkpt lat="44.70437" lon="6.8517">
        <ele>1808.2</ele>
        <time>2026-03-25T08:34:43Z</time>
      </trkpt>
      <trkpt lat="44.70437" lon="6.8517">
        <ele>1808.3</ele>
        <time>2026-03-25T08:34:44Z</time>
      </trkpt>
      <trkpt lat="44.70436" lon="6.8517">
        <ele>1808.3</ele>
        <time>2026-03-25T08:34:45Z</time>
      </trkpt>
      <trkpt lat="44.70436" lon="6.85171">
        <ele>1808.4</ele>
        <time>2026-03-25T08:34:46Z</time>
      </trkpt>
      <trkpt lat="44.70435" lon="6.85171">
        <ele>1808.5</ele>
        <time>2026-03-25T08:34:47Z</time>
      </trkpt>
      <trkpt lat="44.70434" lon="6.85171">
        <ele>1808.5</ele>
        <time>2026-03-25T08:34:48Z</time>
      </trkpt>
      <trkpt lat="44.70433" lon="6.85172">
        <ele>1808.6</ele>
        <time>2026-03-25T08:34:49Z</time>
      </trkpt>
      <trkpt lat="44.70432" lon="6.85173">
        <ele>1808.7</ele>
        <time>2026-03-25T08:34:50Z</time>
      </trkpt>
      <trkpt lat="44.70432" lon="6.85174">
        <ele>1808.8</ele>
        <time>2026-03-25T08:34:51Z</time>
      </trkpt>
      <trkpt lat="44.70431" lon="6.85174">
        <ele>1808.9</ele>
        <time>2026-03-25T08:34:53Z</time>
      </trkpt>
      <trkpt lat="44.7043" lon="6.85175">
        <ele>1809</ele>
        <time>2026-03-25T08:34:54Z</time>
      </trkpt>
      <trkpt lat="44.7043" lon="6.85175">
        <ele>1809.1</ele>
        <time>2026-03-25T08:34:55Z</time>
      </trkpt>
      <trkpt lat="44.70429" lon="6.85176">
        <ele>1809.1</ele>
        <time>2026-03-25T08:34:56Z</time>
      </trkpt>
      <trkpt lat="44.70428" lon="6.85177">
        <ele>1809.2</ele>
        <time>2026-03-25T08:34:57Z</time>
      </trkpt>
      <trkpt lat="44.70428" lon="6.85177">
        <ele>1809.3</ele>
        <time>2026-03-25T08:34:58Z</time>
      </trkpt>
      <trkpt lat="44.70427" lon="6.85178">
        <ele>1809.4</ele>
        <time>2026-03-25T08:34:59Z</time>
      </trkpt>
      <trkpt lat="44.70426" lon="6.85178">
        <ele>1809.4</ele>
        <time>2026-03-25T08:35:00Z</time>
      </trkpt>
      <trkpt lat="44.70425" lon="6.85178">
        <ele>1809.5</ele>
        <time>2026-03-25T08:35:02Z</time>
      </trkpt>
      <trkpt lat="44.70425" lon="6.85178">
        <ele>1809.6</ele>
        <time>2026-03-25T08:35:03Z</time>
      </trkpt>
      <trkpt lat="44.70424" lon="6.85179">
        <ele>1809.6</ele>
        <time>2026-03-25T08:35:04Z</time>
      </trkpt>
      <trkpt lat="44.70423" lon="6.85179">
        <ele>1809.7</ele>
        <time>2026-03-25T08:35:05Z</time>
      </trkpt>
      <trkpt lat="44.70422" lon="6.8518">
        <ele>1809.8</ele>
        <time>2026-03-25T08:35:06Z</time>
      </trkpt>
      <trkpt lat="44.70422" lon="6.8518">
        <ele>1809.9</ele>
        <time>2026-03-25T08:35:07Z</time>
      </trkpt>
      <trkpt lat="44.70421" lon="6.85181">
        <ele>1810</ele>
        <time>2026-03-25T08:35:08Z</time>
      </trkpt>
      <trkpt lat="44.7042" lon="6.85181">
        <ele>1810.1</ele>
        <time>2026-03-25T08:35:09Z</time>
      </trkpt>
      <trkpt lat="44.70418" lon="6.85182">
        <ele>1810.2</ele>
        <time>2026-03-25T08:35:10Z</time>
      </trkpt>
      <trkpt lat="44.70417" lon="6.85182">
        <ele>1810.3</ele>
        <time>2026-03-25T08:35:11Z</time>
      </trkpt>
      <trkpt lat="44.70416" lon="6.85182">
        <ele>1810.4</ele>
        <time>2026-03-25T08:35:13Z</time>
      </trkpt>
      <trkpt lat="44.70415" lon="6.85183">
        <ele>1810.5</ele>
        <time>2026-03-25T08:35:14Z</time>
      </trkpt>
      <trkpt lat="44.70415" lon="6.85183">
        <ele>1810.5</ele>
        <time>2026-03-25T08:35:15Z</time>
      </trkpt>
      <trkpt lat="44.70414" lon="6.85183">
        <ele>1810.6</ele>
        <time>2026-03-25T08:35:16Z</time>
      </trkpt>
      <trkpt lat="44.70413" lon="6.85183">
        <ele>1810.7</ele>
        <time>2026-03-25T08:35:17Z</time>
      </trkpt>
      <trkpt lat="44.70413" lon="6.85184">
        <ele>1810.7</ele>
        <time>2026-03-25T08:35:18Z</time>
      </trkpt>
      <trkpt lat="44.70411" lon="6.85184">
        <ele>1810.8</ele>
        <time>2026-03-25T08:35:19Z</time>
      </trkpt>
      <trkpt lat="44.70411" lon="6.85185">
        <ele>1810.9</ele>
        <time>2026-03-25T08:35:20Z</time>
      </trkpt>
      <trkpt lat="44.7041" lon="6.85186">
        <ele>1811</ele>
        <time>2026-03-25T08:35:22Z</time>
      </trkpt>
      <trkpt lat="44.70409" lon="6.85186">
        <ele>1811.1</ele>
        <time>2026-03-25T08:35:23Z</time>
      </trkpt>
      <trkpt lat="44.70408" lon="6.85187">
        <ele>1811.2</ele>
        <time>2026-03-25T08:35:24Z</time>
      </trkpt>
      <trkpt lat="44.70407" lon="6.85188">
        <ele>1811.3</ele>
        <time>2026-03-25T08:35:25Z</time>
      </trkpt>
      <trkpt lat="44.70407" lon="6.85188">
        <ele>1811.3</ele>
        <time>2026-03-25T08:35:26Z</time>
      </trkpt>
      <trkpt lat="44.70406" lon="6.85189">
        <ele>1811.4</ele>
        <time>2026-03-25T08:35:27Z</time>
      </trkpt>
      <trkpt lat="44.70404" lon="6.85191">
        <ele>1811.6</ele>
        <time>2026-03-25T08:35:28Z</time>
      </trkpt>
      <trkpt lat="44.70403" lon="6.85192">
        <ele>1811.7</ele>
        <time>2026-03-25T08:35:30Z</time>
      </trkpt>
      <trkpt lat="44.70402" lon="6.85193">
        <ele>1811.8</ele>
        <time>2026-03-25T08:35:31Z</time>
      </trkpt>
      <trkpt lat="44.70402" lon="6.85193">
        <ele>1811.8</ele>
        <time>2026-03-25T08:35:32Z</time>
      </trkpt>
      <trkpt lat="44.70401" lon="6.85194">
        <ele>1811.9</ele>
        <time>2026-03-25T08:35:33Z</time>
      </trkpt>
      <trkpt lat="44.704" lon="6.85195">
        <ele>1812</ele>
        <time>2026-03-25T08:35:34Z</time>
      </trkpt>
      <trkpt lat="44.70399" lon="6.85196">
        <ele>1812.1</ele>
        <time>2026-03-25T08:35:35Z</time>
      </trkpt>
      <trkpt lat="44.70398" lon="6.85197">
        <ele>1812.2</ele>
        <time>2026-03-25T08:35:37Z</time>
      </trkpt>
      <trkpt lat="44.70397" lon="6.85198">
        <ele>1812.3</ele>
        <time>2026-03-25T08:35:38Z</time>
      </trkpt>
      <trkpt lat="44.70397" lon="6.85199">
        <ele>1812.3</ele>
        <time>2026-03-25T08:35:39Z</time>
      </trkpt>
      <trkpt lat="44.70396" lon="6.85199">
        <ele>1812.4</ele>
        <time>2026-03-25T08:35:40Z</time>
      </trkpt>
      <trkpt lat="44.70395" lon="6.852">
        <ele>1812.5</ele>
        <time>2026-03-25T08:35:41Z</time>
      </trkpt>
      <trkpt lat="44.70394" lon="6.852">
        <ele>1812.5</ele>
        <time>2026-03-25T08:35:42Z</time>
      </trkpt>
      <trkpt lat="44.70393" lon="6.85201">
        <ele>1812.6</ele>
        <time>2026-03-25T08:35:43Z</time>
      </trkpt>
      <trkpt lat="44.70392" lon="6.85201">
        <ele>1812.7</ele>
        <time>2026-03-25T08:35:44Z</time>
      </trkpt>
      <trkpt lat="44.70392" lon="6.85201">
        <ele>1812.7</ele>
        <time>2026-03-25T08:35:46Z</time>
      </trkpt>
      <trkpt lat="44.70391" lon="6.85201">
        <ele>1812.7</ele>
        <time>2026-03-25T08:35:47Z</time>
      </trkpt>
      <trkpt lat="44.70391" lon="6.85201">
        <ele>1812.8</ele>
        <time>2026-03-25T08:35:48Z</time>
      </trkpt>
      <trkpt lat="44.7039" lon="6.85202">
        <ele>1812.8</ele>
        <time>2026-03-25T08:35:49Z</time>
      </trkpt>
      <trkpt lat="44.7039" lon="6.85202">
        <ele>1812.9</ele>
        <time>2026-03-25T08:35:50Z</time>
      </trkpt>
      <trkpt lat="44.70389" lon="6.85203">
        <ele>1812.9</ele>
        <time>2026-03-25T08:35:51Z</time>
      </trkpt>
      <trkpt lat="44.70389" lon="6.85203">
        <ele>1813</ele>
        <time>2026-03-25T08:35:52Z</time>
      </trkpt>
      <trkpt lat="44.70388" lon="6.85204">
        <ele>1813</ele>
        <time>2026-03-25T08:35:53Z</time>
      </trkpt>
      <trkpt lat="44.70388" lon="6.85205">
        <ele>1813.1</ele>
        <time>2026-03-25T08:35:54Z</time>
      </trkpt>
      <trkpt lat="44.70387" lon="6.85205">
        <ele>1813.1</ele>
        <time>2026-03-25T08:35:55Z</time>
      </trkpt>
      <trkpt lat="44.70387" lon="6.85206">
        <ele>1813.2</ele>
        <time>2026-03-25T08:35:56Z</time>
      </trkpt>
      <trkpt lat="44.70386" lon="6.85206">
        <ele>1813.2</ele>
        <time>2026-03-25T08:35:57Z</time>
      </trkpt>
      <trkpt lat="44.70386" lon="6.85206">
        <ele>1813.2</ele>
        <time>2026-03-25T08:35:58Z</time>
      </trkpt>
      <trkpt lat="44.70386" lon="6.85206">
        <ele>1813.2</ele>
        <time>2026-03-25T08:35:59Z</time>
      </trkpt>
      <trkpt lat="44.70385" lon="6.85207">
        <ele>1813.3</ele>
        <time>2026-03-25T08:36:00Z</time>
      </trkpt>
      <trkpt lat="44.70385" lon="6.85207">
        <ele>1813.3</ele>
        <time>2026-03-25T08:36:01Z</time>
      </trkpt>
      <trkpt lat="44.70384" lon="6.85207">
        <ele>1813.3</ele>
        <time>2026-03-25T08:36:02Z</time>
      </trkpt>
      <trkpt lat="44.70384" lon="6.85207">
        <ele>1813.4</ele>
        <time>2026-03-25T08:36:03Z</time>
      </trkpt>
      <trkpt lat="44.70383" lon="6.85208">
        <ele>1813.4</ele>
        <time>2026-03-25T08:36:04Z</time>
      </trkpt>
      <trkpt lat="44.70383" lon="6.85208">
        <ele>1813.5</ele>
        <time>2026-03-25T08:36:05Z</time>
      </trkpt>
      <trkpt lat="44.70382" lon="6.85208">
        <ele>1813.5</ele>
        <time>2026-03-25T08:36:06Z</time>
      </trkpt>
      <trkpt lat="44.70381" lon="6.85209">
        <ele>1813.6</ele>
        <time>2026-03-25T08:36:07Z</time>
      </trkpt>
      <trkpt lat="44.70381" lon="6.8521">
        <ele>1813.7</ele>
        <time>2026-03-25T08:36:08Z</time>
      </trkpt>
      <trkpt lat="44.7038" lon="6.8521">
        <ele>1813.7</ele>
        <time>2026-03-25T08:36:09Z</time>
      </trkpt>
      <trkpt lat="44.7038" lon="6.8521">
        <ele>1813.7</ele>
        <time>2026-03-25T08:36:10Z</time>
      </trkpt>
      <trkpt lat="44.70379" lon="6.85211">
        <ele>1813.8</ele>
        <time>2026-03-25T08:36:12Z</time>
      </trkpt>
      <trkpt lat="44.70379" lon="6.85211">
        <ele>1813.8</ele>
        <time>2026-03-25T08:36:13Z</time>
      </trkpt>
      <trkpt lat="44.70379" lon="6.85212">
        <ele>1813.9</ele>
        <time>2026-03-25T08:36:14Z</time>
      </trkpt>
      <trkpt lat="44.70378" lon="6.85212">
        <ele>1813.9</ele>
        <time>2026-03-25T08:36:15Z</time>
      </trkpt>
      <trkpt lat="44.70377" lon="6.85213">
        <ele>1814</ele>
        <time>2026-03-25T08:36:17Z</time>
      </trkpt>
      <trkpt lat="44.70377" lon="6.85213">
        <ele>1814</ele>
        <time>2026-03-25T08:36:18Z</time>
      </trkpt>
      <trkpt lat="44.70376" lon="6.85213">
        <ele>1814.1</ele>
        <time>2026-03-25T08:36:19Z</time>
      </trkpt>
      <trkpt lat="44.70376" lon="6.85214">
        <ele>1814.1</ele>
        <time>2026-03-25T08:36:20Z</time>
      </trkpt>
      <trkpt lat="44.70375" lon="6.85214">
        <ele>1814.2</ele>
        <time>2026-03-25T08:36:21Z</time>
      </trkpt>
      <trkpt lat="44.70375" lon="6.85215">
        <ele>1814.2</ele>
        <time>2026-03-25T08:36:22Z</time>
      </trkpt>
      <trkpt lat="44.70374" lon="6.85215">
        <ele>1814.3</ele>
        <time>2026-03-25T08:36:23Z</time>
      </trkpt>
      <trkpt lat="44.70373" lon="6.85215">
        <ele>1814.3</ele>
        <time>2026-03-25T08:36:24Z</time>
      </trkpt>
      <trkpt lat="44.70372" lon="6.85216">
        <ele>1814.4</ele>
        <time>2026-03-25T08:36:25Z</time>
      </trkpt>
      <trkpt lat="44.70372" lon="6.85216">
        <ele>1814.5</ele>
        <time>2026-03-25T08:36:27Z</time>
      </trkpt>
      <trkpt lat="44.70371" lon="6.85217">
        <ele>1814.5</ele>
        <time>2026-03-25T08:36:28Z</time>
      </trkpt>
      <trkpt lat="44.7037" lon="6.85217">
        <ele>1814.6</ele>
        <time>2026-03-25T08:36:29Z</time>
      </trkpt>
      <trkpt lat="44.7037" lon="6.85217">
        <ele>1814.6</ele>
        <time>2026-03-25T08:36:30Z</time>
      </trkpt>
      <trkpt lat="44.70368" lon="6.85218">
        <ele>1814.7</ele>
        <time>2026-03-25T08:36:31Z</time>
      </trkpt>
      <trkpt lat="44.70368" lon="6.85218">
        <ele>1814.8</ele>
        <time>2026-03-25T08:36:33Z</time>
      </trkpt>
      <trkpt lat="44.70367" lon="6.85218">
        <ele>1814.8</ele>
        <time>2026-03-25T08:36:34Z</time>
      </trkpt>
      <trkpt lat="44.70367" lon="6.85219">
        <ele>1814.9</ele>
        <time>2026-03-25T08:36:35Z</time>
      </trkpt>
      <trkpt lat="44.70366" lon="6.85219">
        <ele>1814.9</ele>
        <time>2026-03-25T08:36:36Z</time>
      </trkpt>
      <trkpt lat="44.70365" lon="6.85219">
        <ele>1815</ele>
        <time>2026-03-25T08:36:37Z</time>
      </trkpt>
      <trkpt lat="44.70365" lon="6.85219">
        <ele>1815</ele>
        <time>2026-03-25T08:36:38Z</time>
      </trkpt>
      <trkpt lat="44.70364" lon="6.85219">
        <ele>1815.1</ele>
        <time>2026-03-25T08:36:39Z</time>
      </trkpt>
      <trkpt lat="44.70364" lon="6.8522">
        <ele>1815.1</ele>
        <time>2026-03-25T08:36:40Z</time>
      </trkpt>
      <trkpt lat="44.70363" lon="6.8522">
        <ele>1815.2</ele>
        <time>2026-03-25T08:36:41Z</time>
      </trkpt>
      <trkpt lat="44.70363" lon="6.85221">
        <ele>1815.2</ele>
        <time>2026-03-25T08:36:42Z</time>
      </trkpt>
      <trkpt lat="44.70362" lon="6.85221">
        <ele>1815.3</ele>
        <time>2026-03-25T08:36:43Z</time>
      </trkpt>
      <trkpt lat="44.70361" lon="6.85222">
        <ele>1815.4</ele>
        <time>2026-03-25T08:36:44Z</time>
      </trkpt>
      <trkpt lat="44.7036" lon="6.85222">
        <ele>1815.5</ele>
        <time>2026-03-25T08:36:46Z</time>
      </trkpt>
      <trkpt lat="44.70359" lon="6.85223">
        <ele>1815.5</ele>
        <time>2026-03-25T08:36:47Z</time>
      </trkpt>
      <trkpt lat="44.70358" lon="6.85223">
        <ele>1815.6</ele>
        <time>2026-03-25T08:36:48Z</time>
      </trkpt>
      <trkpt lat="44.70358" lon="6.85224">
        <ele>1815.6</ele>
        <time>2026-03-25T08:36:49Z</time>
      </trkpt>
      <trkpt lat="44.70357" lon="6.85224">
        <ele>1815.7</ele>
        <time>2026-03-25T08:36:50Z</time>
      </trkpt>
      <trkpt lat="44.70356" lon="6.85225">
        <ele>1815.8</ele>
        <time>2026-03-25T08:36:51Z</time>
      </trkpt>
      <trkpt lat="44.70356" lon="6.85225">
        <ele>1815.9</ele>
        <time>2026-03-25T08:36:52Z</time>
      </trkpt>
      <trkpt lat="44.70355" lon="6.85226">
        <ele>1815.9</ele>
        <time>2026-03-25T08:36:53Z</time>
      </trkpt>
      <trkpt lat="44.70354" lon="6.85226">
        <ele>1816</ele>
        <time>2026-03-25T08:36:54Z</time>
      </trkpt>
      <trkpt lat="44.70353" lon="6.85226">
        <ele>1816.1</ele>
        <time>2026-03-25T08:36:55Z</time>
      </trkpt>
      <trkpt lat="44.70353" lon="6.85226">
        <ele>1816.2</ele>
        <time>2026-03-25T08:36:56Z</time>
      </trkpt>
      <trkpt lat="44.70352" lon="6.85226">
        <ele>1816.2</ele>
        <time>2026-03-25T08:36:57Z</time>
      </trkpt>
      <trkpt lat="44.70351" lon="6.85226">
        <ele>1816.3</ele>
        <time>2026-03-25T08:36:58Z</time>
      </trkpt>
      <trkpt lat="44.70349" lon="6.85226">
        <ele>1816.4</ele>
        <time>2026-03-25T08:36:59Z</time>
      </trkpt>
      <trkpt lat="44.70349" lon="6.85227">
        <ele>1816.5</ele>
        <time>2026-03-25T08:37:00Z</time>
      </trkpt>
      <trkpt lat="44.70348" lon="6.85227">
        <ele>1816.6</ele>
        <time>2026-03-25T08:37:02Z</time>
      </trkpt>
      <trkpt lat="44.70347" lon="6.85227">
        <ele>1816.7</ele>
        <time>2026-03-25T08:37:03Z</time>
      </trkpt>
      <trkpt lat="44.70346" lon="6.85228">
        <ele>1816.8</ele>
        <time>2026-03-25T08:37:04Z</time>
      </trkpt>
      <trkpt lat="44.70345" lon="6.85228">
        <ele>1816.9</ele>
        <time>2026-03-25T08:37:05Z</time>
      </trkpt>
      <trkpt lat="44.70345" lon="6.85228">
        <ele>1816.9</ele>
        <time>2026-03-25T08:37:06Z</time>
      </trkpt>
      <trkpt lat="44.70344" lon="6.85229">
        <ele>1817</ele>
        <time>2026-03-25T08:37:07Z</time>
      </trkpt>
      <trkpt lat="44.70343" lon="6.85229">
        <ele>1817</ele>
        <time>2026-03-25T08:37:08Z</time>
      </trkpt>
      <trkpt lat="44.70343" lon="6.8523">
        <ele>1817.1</ele>
        <time>2026-03-25T08:37:09Z</time>
      </trkpt>
      <trkpt lat="44.70343" lon="6.85231">
        <ele>1817.1</ele>
        <time>2026-03-25T08:37:10Z</time>
      </trkpt>
      <trkpt lat="44.70342" lon="6.85231">
        <ele>1817.2</ele>
        <time>2026-03-25T08:37:11Z</time>
      </trkpt>
      <trkpt lat="44.70342" lon="6.85232">
        <ele>1817.3</ele>
        <time>2026-03-25T08:37:12Z</time>
      </trkpt>
      <trkpt lat="44.70341" lon="6.85233">
        <ele>1817.4</ele>
        <time>2026-03-25T08:37:13Z</time>
      </trkpt>
      <trkpt lat="44.70341" lon="6.85233">
        <ele>1817.4</ele>
        <time>2026-03-25T08:37:15Z</time>
      </trkpt>
      <trkpt lat="44.70341" lon="6.85234">
        <ele>1817.4</ele>
        <time>2026-03-25T08:37:16Z</time>
      </trkpt>
      <trkpt lat="44.7034" lon="6.85234">
        <ele>1817.5</ele>
        <time>2026-03-25T08:37:17Z</time>
      </trkpt>
      <trkpt lat="44.7034" lon="6.85234">
        <ele>1817.5</ele>
        <time>2026-03-25T08:37:18Z</time>
      </trkpt>
      <trkpt lat="44.70339" lon="6.85235">
        <ele>1817.6</ele>
        <time>2026-03-25T08:37:19Z</time>
      </trkpt>
      <trkpt lat="44.70339" lon="6.85235">
        <ele>1817.6</ele>
        <time>2026-03-25T08:37:20Z</time>
      </trkpt>
      <trkpt lat="44.70338" lon="6.85236">
        <ele>1817.7</ele>
        <time>2026-03-25T08:37:21Z</time>
      </trkpt>
      <trkpt lat="44.70337" lon="6.85236">
        <ele>1817.8</ele>
        <time>2026-03-25T08:37:22Z</time>
      </trkpt>
      <trkpt lat="44.70337" lon="6.85236">
        <ele>1817.8</ele>
        <time>2026-03-25T08:37:23Z</time>
      </trkpt>
      <trkpt lat="44.70336" lon="6.85237">
        <ele>1817.9</ele>
        <time>2026-03-25T08:37:24Z</time>
      </trkpt>
      <trkpt lat="44.70336" lon="6.85237">
        <ele>1817.9</ele>
        <time>2026-03-25T08:37:25Z</time>
      </trkpt>
      <trkpt lat="44.70335" lon="6.85237">
        <ele>1818</ele>
        <time>2026-03-25T08:37:26Z</time>
      </trkpt>
      <trkpt lat="44.70335" lon="6.85237">
        <ele>1818</ele>
        <time>2026-03-25T08:37:27Z</time>
      </trkpt>
      <trkpt lat="44.70334" lon="6.85238">
        <ele>1818.1</ele>
        <time>2026-03-25T08:37:28Z</time>
      </trkpt>
      <trkpt lat="44.70334" lon="6.85238">
        <ele>1818.1</ele>
        <time>2026-03-25T08:37:29Z</time>
      </trkpt>
      <trkpt lat="44.70333" lon="6.85239">
        <ele>1818.2</ele>
        <time>2026-03-25T08:37:30Z</time>
      </trkpt>
      <trkpt lat="44.70331" lon="6.85239">
        <ele>1818.4</ele>
        <time>2026-03-25T08:37:31Z</time>
      </trkpt>
      <trkpt lat="44.7033" lon="6.8524">
        <ele>1818.5</ele>
        <time>2026-03-25T08:37:32Z</time>
      </trkpt>
      <trkpt lat="44.70329" lon="6.85241">
        <ele>1818.6</ele>
        <time>2026-03-25T08:37:33Z</time>
      </trkpt>
      <trkpt lat="44.70328" lon="6.85242">
        <ele>1818.7</ele>
        <time>2026-03-25T08:37:34Z</time>
      </trkpt>
      <trkpt lat="44.70326" lon="6.85243">
        <ele>1818.9</ele>
        <time>2026-03-25T08:37:35Z</time>
      </trkpt>
      <trkpt lat="44.70325" lon="6.85244">
        <ele>1819</ele>
        <time>2026-03-25T08:37:36Z</time>
      </trkpt>
      <trkpt lat="44.70324" lon="6.85245">
        <ele>1819.1</ele>
        <time>2026-03-25T08:37:37Z</time>
      </trkpt>
      <trkpt lat="44.70323" lon="6.85246">
        <ele>1819.2</ele>
        <time>2026-03-25T08:37:38Z</time>
      </trkpt>
      <trkpt lat="44.70322" lon="6.85247">
        <ele>1819.3</ele>
        <time>2026-03-25T08:37:39Z</time>
      </trkpt>
      <trkpt lat="44.70321" lon="6.85248">
        <ele>1819.4</ele>
        <time>2026-03-25T08:37:40Z</time>
      </trkpt>
      <trkpt lat="44.7032" lon="6.85249">
        <ele>1819.6</ele>
        <time>2026-03-25T08:37:41Z</time>
      </trkpt>
      <trkpt lat="44.70319" lon="6.8525">
        <ele>1819.6</ele>
        <time>2026-03-25T08:37:42Z</time>
      </trkpt>
      <trkpt lat="44.70319" lon="6.8525">
        <ele>1819.7</ele>
        <time>2026-03-25T08:37:43Z</time>
      </trkpt>
      <trkpt lat="44.70319" lon="6.8525">
        <ele>1819.7</ele>
        <time>2026-03-25T08:37:44Z</time>
      </trkpt>
      <trkpt lat="44.70318" lon="6.8525">
        <ele>1819.7</ele>
        <time>2026-03-25T08:37:46Z</time>
      </trkpt>
      <trkpt lat="44.70318" lon="6.8525">
        <ele>1819.8</ele>
        <time>2026-03-25T08:37:47Z</time>
      </trkpt>
      <trkpt lat="44.70317" lon="6.8525">
        <ele>1819.9</ele>
        <time>2026-03-25T08:37:48Z</time>
      </trkpt>
      <trkpt lat="44.70316" lon="6.8525">
        <ele>1819.9</ele>
        <time>2026-03-25T08:37:50Z</time>
      </trkpt>
      <trkpt lat="44.70316" lon="6.8525">
        <ele>1819.9</ele>
        <time>2026-03-25T08:37:51Z</time>
      </trkpt>
      <trkpt lat="44.70315" lon="6.8525">
        <ele>1820</ele>
        <time>2026-03-25T08:37:52Z</time>
      </trkpt>
      <trkpt lat="44.70314" lon="6.8525">
        <ele>1820</ele>
        <time>2026-03-25T08:37:53Z</time>
      </trkpt>
      <trkpt lat="44.70314" lon="6.8525">
        <ele>1820.1</ele>
        <time>2026-03-25T08:37:54Z</time>
      </trkpt>
      <trkpt lat="44.70314" lon="6.8525">
        <ele>1820.1</ele>
        <time>2026-03-25T08:37:55Z</time>
      </trkpt>
      <trkpt lat="44.70313" lon="6.8525">
        <ele>1820.2</ele>
        <time>2026-03-25T08:37:56Z</time>
      </trkpt>
      <trkpt lat="44.70312" lon="6.8525">
        <ele>1820.2</ele>
        <time>2026-03-25T08:37:57Z</time>
      </trkpt>
      <trkpt lat="44.70312" lon="6.8525">
        <ele>1820.3</ele>
        <time>2026-03-25T08:37:58Z</time>
      </trkpt>
      <trkpt lat="44.70311" lon="6.8525">
        <ele>1820.3</ele>
        <time>2026-03-25T08:37:59Z</time>
      </trkpt>
      <trkpt lat="44.70311" lon="6.8525">
        <ele>1820.3</ele>
        <time>2026-03-25T08:38:01Z</time>
      </trkpt>
      <trkpt lat="44.70311" lon="6.8525">
        <ele>1820.4</ele>
        <time>2026-03-25T08:38:02Z</time>
      </trkpt>
      <trkpt lat="44.7031" lon="6.8525">
        <ele>1820.4</ele>
        <time>2026-03-25T08:38:03Z</time>
      </trkpt>
      <trkpt lat="44.70309" lon="6.8525">
        <ele>1820.5</ele>
        <time>2026-03-25T08:38:04Z</time>
      </trkpt>
      <trkpt lat="44.70309" lon="6.8525">
        <ele>1820.5</ele>
        <time>2026-03-25T08:38:05Z</time>
      </trkpt>
      <trkpt lat="44.70308" lon="6.8525">
        <ele>1820.6</ele>
        <time>2026-03-25T08:38:06Z</time>
      </trkpt>
      <trkpt lat="44.70308" lon="6.8525">
        <ele>1820.6</ele>
        <time>2026-03-25T08:38:07Z</time>
      </trkpt>
      <trkpt lat="44.70307" lon="6.85251">
        <ele>1820.7</ele>
        <time>2026-03-25T08:38:08Z</time>
      </trkpt>
      <trkpt lat="44.70307" lon="6.85251">
        <ele>1820.7</ele>
        <time>2026-03-25T08:38:09Z</time>
      </trkpt>
      <trkpt lat="44.70306" lon="6.85251">
        <ele>1820.8</ele>
        <time>2026-03-25T08:38:10Z</time>
      </trkpt>
      <trkpt lat="44.70306" lon="6.85252">
        <ele>1820.9</ele>
        <time>2026-03-25T08:38:11Z</time>
      </trkpt>
      <trkpt lat="44.70305" lon="6.85252">
        <ele>1820.9</ele>
        <time>2026-03-25T08:38:12Z</time>
      </trkpt>
      <trkpt lat="44.70304" lon="6.85252">
        <ele>1821</ele>
        <time>2026-03-25T08:38:13Z</time>
      </trkpt>
      <trkpt lat="44.70304" lon="6.85252">
        <ele>1821</ele>
        <time>2026-03-25T08:38:14Z</time>
      </trkpt>
      <trkpt lat="44.70302" lon="6.85252">
        <ele>1821.2</ele>
        <time>2026-03-25T08:38:15Z</time>
      </trkpt>
      <trkpt lat="44.70302" lon="6.85252">
        <ele>1821.2</ele>
        <time>2026-03-25T08:38:17Z</time>
      </trkpt>
      <trkpt lat="44.70301" lon="6.85252">
        <ele>1821.3</ele>
        <time>2026-03-25T08:38:18Z</time>
      </trkpt>
      <trkpt lat="44.703" lon="6.85253">
        <ele>1821.4</ele>
        <time>2026-03-25T08:38:19Z</time>
      </trkpt>
      <trkpt lat="44.70299" lon="6.85253">
        <ele>1821.5</ele>
        <time>2026-03-25T08:38:20Z</time>
      </trkpt>
      <trkpt lat="44.70298" lon="6.85253">
        <ele>1821.5</ele>
        <time>2026-03-25T08:38:21Z</time>
      </trkpt>
      <trkpt lat="44.70298" lon="6.85253">
        <ele>1821.6</ele>
        <time>2026-03-25T08:38:22Z</time>
      </trkpt>
      <trkpt lat="44.70297" lon="6.85252">
        <ele>1821.7</ele>
        <time>2026-03-25T08:38:23Z</time>
      </trkpt>
      <trkpt lat="44.70296" lon="6.85253">
        <ele>1821.8</ele>
        <time>2026-03-25T08:38:24Z</time>
      </trkpt>
      <trkpt lat="44.70296" lon="6.85253">
        <ele>1821.8</ele>
        <time>2026-03-25T08:38:25Z</time>
      </trkpt>
      <trkpt lat="44.70295" lon="6.85253">
        <ele>1821.9</ele>
        <time>2026-03-25T08:38:26Z</time>
      </trkpt>
      <trkpt lat="44.70294" lon="6.85253">
        <ele>1822</ele>
        <time>2026-03-25T08:38:27Z</time>
      </trkpt>
      <trkpt lat="44.70294" lon="6.85253">
        <ele>1822</ele>
        <time>2026-03-25T08:38:28Z</time>
      </trkpt>
      <trkpt lat="44.70293" lon="6.85253">
        <ele>1822.1</ele>
        <time>2026-03-25T08:38:29Z</time>
      </trkpt>
      <trkpt lat="44.70293" lon="6.85254">
        <ele>1822.2</ele>
        <time>2026-03-25T08:38:30Z</time>
      </trkpt>
      <trkpt lat="44.70292" lon="6.85254">
        <ele>1822.2</ele>
        <time>2026-03-25T08:38:31Z</time>
      </trkpt>
      <trkpt lat="44.70292" lon="6.85254">
        <ele>1822.3</ele>
        <time>2026-03-25T08:38:32Z</time>
      </trkpt>
      <trkpt lat="44.70291" lon="6.85255">
        <ele>1822.3</ele>
        <time>2026-03-25T08:38:33Z</time>
      </trkpt>
      <trkpt lat="44.7029" lon="6.85255">
        <ele>1822.5</ele>
        <time>2026-03-25T08:38:34Z</time>
      </trkpt>
      <trkpt lat="44.7029" lon="6.85256">
        <ele>1822.5</ele>
        <time>2026-03-25T08:38:36Z</time>
      </trkpt>
      <trkpt lat="44.70289" lon="6.85256">
        <ele>1822.6</ele>
        <time>2026-03-25T08:38:37Z</time>
      </trkpt>
      <trkpt lat="44.70289" lon="6.85256">
        <ele>1822.7</ele>
        <time>2026-03-25T08:38:38Z</time>
      </trkpt>
      <trkpt lat="44.70288" lon="6.85256">
        <ele>1822.7</ele>
        <time>2026-03-25T08:38:39Z</time>
      </trkpt>
      <trkpt lat="44.70287" lon="6.85257">
        <ele>1822.9</ele>
        <time>2026-03-25T08:38:40Z</time>
      </trkpt>
      <trkpt lat="44.70286" lon="6.85257">
        <ele>1823</ele>
        <time>2026-03-25T08:38:42Z</time>
      </trkpt>
      <trkpt lat="44.70286" lon="6.85257">
        <ele>1823</ele>
        <time>2026-03-25T08:38:43Z</time>
      </trkpt>
      <trkpt lat="44.70285" lon="6.85258">
        <ele>1823.1</ele>
        <time>2026-03-25T08:38:44Z</time>
      </trkpt>
      <trkpt lat="44.70284" lon="6.85258">
        <ele>1823.2</ele>
        <time>2026-03-25T08:38:45Z</time>
      </trkpt>
      <trkpt lat="44.70284" lon="6.85258">
        <ele>1823.3</ele>
        <time>2026-03-25T08:38:46Z</time>
      </trkpt>
      <trkpt lat="44.70283" lon="6.85259">
        <ele>1823.4</ele>
        <time>2026-03-25T08:38:47Z</time>
      </trkpt>
      <trkpt lat="44.70283" lon="6.8526">
        <ele>1823.4</ele>
        <time>2026-03-25T08:38:48Z</time>
      </trkpt>
      <trkpt lat="44.70282" lon="6.8526">
        <ele>1823.5</ele>
        <time>2026-03-25T08:38:49Z</time>
      </trkpt>
      <trkpt lat="44.70282" lon="6.85261">
        <ele>1823.6</ele>
        <time>2026-03-25T08:38:50Z</time>
      </trkpt>
      <trkpt lat="44.70281" lon="6.85262">
        <ele>1823.6</ele>
        <time>2026-03-25T08:38:51Z</time>
      </trkpt>
      <trkpt lat="44.70281" lon="6.85263">
        <ele>1823.8</ele>
        <time>2026-03-25T08:38:52Z</time>
      </trkpt>
      <trkpt lat="44.7028" lon="6.85264">
        <ele>1823.8</ele>
        <time>2026-03-25T08:38:54Z</time>
      </trkpt>
      <trkpt lat="44.7028" lon="6.85264">
        <ele>1823.9</ele>
        <time>2026-03-25T08:38:55Z</time>
      </trkpt>
      <trkpt lat="44.70279" lon="6.85265">
        <ele>1824</ele>
        <time>2026-03-25T08:38:56Z</time>
      </trkpt>
      <trkpt lat="44.70279" lon="6.85265">
        <ele>1824</ele>
        <time>2026-03-25T08:38:57Z</time>
      </trkpt>
      <trkpt lat="44.70278" lon="6.85265">
        <ele>1824.1</ele>
        <time>2026-03-25T08:38:58Z</time>
      </trkpt>
      <trkpt lat="44.70278" lon="6.85265">
        <ele>1824.1</ele>
        <time>2026-03-25T08:38:59Z</time>
      </trkpt>
      <trkpt lat="44.70278" lon="6.85266">
        <ele>1824.2</ele>
        <time>2026-03-25T08:39:00Z</time>
      </trkpt>
      <trkpt lat="44.70277" lon="6.85266">
        <ele>1824.2</ele>
        <time>2026-03-25T08:39:01Z</time>
      </trkpt>
      <trkpt lat="44.70277" lon="6.85266">
        <ele>1824.3</ele>
        <time>2026-03-25T08:39:02Z</time>
      </trkpt>
      <trkpt lat="44.70276" lon="6.85267">
        <ele>1824.3</ele>
        <time>2026-03-25T08:39:03Z</time>
      </trkpt>
      <trkpt lat="44.70276" lon="6.85267">
        <ele>1824.4</ele>
        <time>2026-03-25T08:39:04Z</time>
      </trkpt>
      <trkpt lat="44.70275" lon="6.85267">
        <ele>1824.4</ele>
        <time>2026-03-25T08:39:05Z</time>
      </trkpt>
      <trkpt lat="44.70274" lon="6.85268">
        <ele>1824.5</ele>
        <time>2026-03-25T08:39:06Z</time>
      </trkpt>
      <trkpt lat="44.70274" lon="6.85268">
        <ele>1824.6</ele>
        <time>2026-03-25T08:39:07Z</time>
      </trkpt>
      <trkpt lat="44.70273" lon="6.85269">
        <ele>1824.6</ele>
        <time>2026-03-25T08:39:08Z</time>
      </trkpt>
      <trkpt lat="44.70273" lon="6.85269">
        <ele>1824.7</ele>
        <time>2026-03-25T08:39:09Z</time>
      </trkpt>
      <trkpt lat="44.70272" lon="6.8527">
        <ele>1824.8</ele>
        <time>2026-03-25T08:39:10Z</time>
      </trkpt>
      <trkpt lat="44.70272" lon="6.8527">
        <ele>1824.8</ele>
        <time>2026-03-25T08:39:12Z</time>
      </trkpt>
      <trkpt lat="44.70271" lon="6.85271">
        <ele>1824.9</ele>
        <time>2026-03-25T08:39:13Z</time>
      </trkpt>
      <trkpt lat="44.70271" lon="6.85271">
        <ele>1824.9</ele>
        <time>2026-03-25T08:39:14Z</time>
      </trkpt>
      <trkpt lat="44.70271" lon="6.85273">
        <ele>1825</ele>
        <time>2026-03-25T08:39:15Z</time>
      </trkpt>
      <trkpt lat="44.7027" lon="6.85274">
        <ele>1825.1</ele>
        <time>2026-03-25T08:39:16Z</time>
      </trkpt>
      <trkpt lat="44.70269" lon="6.85275">
        <ele>1825.2</ele>
        <time>2026-03-25T08:39:18Z</time>
      </trkpt>
      <trkpt lat="44.70268" lon="6.85276">
        <ele>1825.3</ele>
        <time>2026-03-25T08:39:19Z</time>
      </trkpt>
      <trkpt lat="44.70268" lon="6.85276">
        <ele>1825.3</ele>
        <time>2026-03-25T08:39:21Z</time>
      </trkpt>
      <trkpt lat="44.70268" lon="6.85276">
        <ele>1825.3</ele>
        <time>2026-03-25T08:39:22Z</time>
      </trkpt>
      <trkpt lat="44.70267" lon="6.85277">
        <ele>1825.4</ele>
        <time>2026-03-25T08:39:23Z</time>
      </trkpt>
      <trkpt lat="44.70267" lon="6.85277">
        <ele>1825.4</ele>
        <time>2026-03-25T08:39:24Z</time>
      </trkpt>
      <trkpt lat="44.70266" lon="6.85278">
        <ele>1825.5</ele>
        <time>2026-03-25T08:39:25Z</time>
      </trkpt>
      <trkpt lat="44.70266" lon="6.85279">
        <ele>1825.6</ele>
        <time>2026-03-25T08:39:26Z</time>
      </trkpt>
      <trkpt lat="44.70265" lon="6.85279">
        <ele>1825.6</ele>
        <time>2026-03-25T08:39:27Z</time>
      </trkpt>
      <trkpt lat="44.70265" lon="6.8528">
        <ele>1825.7</ele>
        <time>2026-03-25T08:39:28Z</time>
      </trkpt>
      <trkpt lat="44.70264" lon="6.8528">
        <ele>1825.7</ele>
        <time>2026-03-25T08:39:29Z</time>
      </trkpt>
      <trkpt lat="44.70264" lon="6.85281">
        <ele>1825.8</ele>
        <time>2026-03-25T08:39:30Z</time>
      </trkpt>
      <trkpt lat="44.70263" lon="6.85282">
        <ele>1825.9</ele>
        <time>2026-03-25T08:39:31Z</time>
      </trkpt>
      <trkpt lat="44.70262" lon="6.85282">
        <ele>1825.9</ele>
        <time>2026-03-25T08:39:32Z</time>
      </trkpt>
      <trkpt lat="44.70262" lon="6.85282">
        <ele>1826</ele>
        <time>2026-03-25T08:39:33Z</time>
      </trkpt>
      <trkpt lat="44.70261" lon="6.85283">
        <ele>1826</ele>
        <time>2026-03-25T08:39:34Z</time>
      </trkpt>
      <trkpt lat="44.70261" lon="6.85283">
        <ele>1826.1</ele>
        <time>2026-03-25T08:39:35Z</time>
      </trkpt>
      <trkpt lat="44.70261" lon="6.85284">
        <ele>1826.1</ele>
        <time>2026-03-25T08:39:36Z</time>
      </trkpt>
      <trkpt lat="44.7026" lon="6.85285">
        <ele>1826.3</ele>
        <time>2026-03-25T08:39:37Z</time>
      </trkpt>
      <trkpt lat="44.70259" lon="6.85286">
        <ele>1826.3</ele>
        <time>2026-03-25T08:39:38Z</time>
      </trkpt>
      <trkpt lat="44.70259" lon="6.85286">
        <ele>1826.4</ele>
        <time>2026-03-25T08:39:39Z</time>
      </trkpt>
      <trkpt lat="44.70259" lon="6.85287">
        <ele>1826.4</ele>
        <time>2026-03-25T08:39:40Z</time>
      </trkpt>
      <trkpt lat="44.70258" lon="6.85287">
        <ele>1826.5</ele>
        <time>2026-03-25T08:39:42Z</time>
      </trkpt>
      <trkpt lat="44.70258" lon="6.85288">
        <ele>1826.5</ele>
        <time>2026-03-25T08:39:43Z</time>
      </trkpt>
      <trkpt lat="44.70257" lon="6.85288">
        <ele>1826.6</ele>
        <time>2026-03-25T08:39:44Z</time>
      </trkpt>
      <trkpt lat="44.70257" lon="6.85289">
        <ele>1826.6</ele>
        <time>2026-03-25T08:39:45Z</time>
      </trkpt>
      <trkpt lat="44.70256" lon="6.85289">
        <ele>1826.7</ele>
        <time>2026-03-25T08:39:46Z</time>
      </trkpt>
      <trkpt lat="44.70256" lon="6.8529">
        <ele>1826.7</ele>
        <time>2026-03-25T08:39:47Z</time>
      </trkpt>
      <trkpt lat="44.70256" lon="6.8529">
        <ele>1826.8</ele>
        <time>2026-03-25T08:39:48Z</time>
      </trkpt>
      <trkpt lat="44.70255" lon="6.85291">
        <ele>1826.9</ele>
        <time>2026-03-25T08:39:49Z</time>
      </trkpt>
      <trkpt lat="44.70254" lon="6.85292">
        <ele>1827</ele>
        <time>2026-03-25T08:39:50Z</time>
      </trkpt>
      <trkpt lat="44.70254" lon="6.85293">
        <ele>1827</ele>
        <time>2026-03-25T08:39:51Z</time>
      </trkpt>
      <trkpt lat="44.70253" lon="6.85293">
        <ele>1827.1</ele>
        <time>2026-03-25T08:39:53Z</time>
      </trkpt>
      <trkpt lat="44.70253" lon="6.85294">
        <ele>1827.2</ele>
        <time>2026-03-25T08:39:54Z</time>
      </trkpt>
      <trkpt lat="44.70252" lon="6.85294">
        <ele>1827.2</ele>
        <time>2026-03-25T08:39:55Z</time>
      </trkpt>
      <trkpt lat="44.70252" lon="6.85295">
        <ele>1827.3</ele>
        <time>2026-03-25T08:39:56Z</time>
      </trkpt>
      <trkpt lat="44.70251" lon="6.85296">
        <ele>1827.4</ele>
        <time>2026-03-25T08:39:57Z</time>
      </trkpt>
      <trkpt lat="44.70251" lon="6.85296">
        <ele>1827.4</ele>
        <time>2026-03-25T08:39:58Z</time>
      </trkpt>
      <trkpt lat="44.7025" lon="6.85297">
        <ele>1827.5</ele>
        <time>2026-03-25T08:39:59Z</time>
      </trkpt>
      <trkpt lat="44.70249" lon="6.85297">
        <ele>1827.6</ele>
        <time>2026-03-25T08:40:00Z</time>
      </trkpt>
      <trkpt lat="44.70248" lon="6.85298">
        <ele>1827.7</ele>
        <time>2026-03-25T08:40:02Z</time>
      </trkpt>
      <trkpt lat="44.70247" lon="6.85299">
        <ele>1827.8</ele>
        <time>2026-03-25T08:40:03Z</time>
      </trkpt>
      <trkpt lat="44.70247" lon="6.85299">
        <ele>1827.9</ele>
        <time>2026-03-25T08:40:04Z</time>
      </trkpt>
      <trkpt lat="44.70246" lon="6.85299">
        <ele>1828</ele>
        <time>2026-03-25T08:40:05Z</time>
      </trkpt>
      <trkpt lat="44.70246" lon="6.853">
        <ele>1828</ele>
        <time>2026-03-25T08:40:06Z</time>
      </trkpt>
      <trkpt lat="44.70245" lon="6.853">
        <ele>1828.1</ele>
        <time>2026-03-25T08:40:07Z</time>
      </trkpt>
      <trkpt lat="44.70244" lon="6.85301">
        <ele>1828.2</ele>
        <time>2026-03-25T08:40:08Z</time>
      </trkpt>
      <trkpt lat="44.70244" lon="6.85301">
        <ele>1828.3</ele>
        <time>2026-03-25T08:40:09Z</time>
      </trkpt>
      <trkpt lat="44.70243" lon="6.85302">
        <ele>1828.4</ele>
        <time>2026-03-25T08:40:10Z</time>
      </trkpt>
      <trkpt lat="44.70241" lon="6.85303">
        <ele>1828.5</ele>
        <time>2026-03-25T08:40:11Z</time>
      </trkpt>
      <trkpt lat="44.70241" lon="6.85303">
        <ele>1828.6</ele>
        <time>2026-03-25T08:40:13Z</time>
      </trkpt>
      <trkpt lat="44.7024" lon="6.85305">
        <ele>1828.8</ele>
        <time>2026-03-25T08:40:14Z</time>
      </trkpt>
      <trkpt lat="44.70239" lon="6.85305">
        <ele>1828.9</ele>
        <time>2026-03-25T08:40:15Z</time>
      </trkpt>
      <trkpt lat="44.70239" lon="6.85306">
        <ele>1828.9</ele>
        <time>2026-03-25T08:40:16Z</time>
      </trkpt>
      <trkpt lat="44.70238" lon="6.85307">
        <ele>1829</ele>
        <time>2026-03-25T08:40:17Z</time>
      </trkpt>
      <trkpt lat="44.70238" lon="6.85307">
        <ele>1829.1</ele>
        <time>2026-03-25T08:40:18Z</time>
      </trkpt>
      <trkpt lat="44.70237" lon="6.85308">
        <ele>1829.2</ele>
        <time>2026-03-25T08:40:19Z</time>
      </trkpt>
      <trkpt lat="44.70237" lon="6.85308">
        <ele>1829.2</ele>
        <time>2026-03-25T08:40:20Z</time>
      </trkpt>
      <trkpt lat="44.70236" lon="6.85309">
        <ele>1829.3</ele>
        <time>2026-03-25T08:40:21Z</time>
      </trkpt>
      <trkpt lat="44.70235" lon="6.85309">
        <ele>1829.4</ele>
        <time>2026-03-25T08:40:22Z</time>
      </trkpt>
      <trkpt lat="44.70235" lon="6.8531">
        <ele>1829.5</ele>
        <time>2026-03-25T08:40:23Z</time>
      </trkpt>
      <trkpt lat="44.70234" lon="6.8531">
        <ele>1829.6</ele>
        <time>2026-03-25T08:40:25Z</time>
      </trkpt>
      <trkpt lat="44.70234" lon="6.85311">
        <ele>1829.7</ele>
        <time>2026-03-25T08:40:26Z</time>
      </trkpt>
      <trkpt lat="44.70233" lon="6.85312">
        <ele>1829.8</ele>
        <time>2026-03-25T08:40:27Z</time>
      </trkpt>
      <trkpt lat="44.70232" lon="6.85313">
        <ele>1829.9</ele>
        <time>2026-03-25T08:40:28Z</time>
      </trkpt>
      <trkpt lat="44.70232" lon="6.85314">
        <ele>1830</ele>
        <time>2026-03-25T08:40:29Z</time>
      </trkpt>
      <trkpt lat="44.70231" lon="6.85315">
        <ele>1830.1</ele>
        <time>2026-03-25T08:40:30Z</time>
      </trkpt>
      <trkpt lat="44.7023" lon="6.85316">
        <ele>1830.3</ele>
        <time>2026-03-25T08:40:31Z</time>
      </trkpt>
      <trkpt lat="44.7023" lon="6.85316">
        <ele>1830.3</ele>
        <time>2026-03-25T08:40:32Z</time>
      </trkpt>
      <trkpt lat="44.70229" lon="6.85318">
        <ele>1830.5</ele>
        <time>2026-03-25T08:40:33Z</time>
      </trkpt>
      <trkpt lat="44.70229" lon="6.85318">
        <ele>1830.6</ele>
        <time>2026-03-25T08:40:34Z</time>
      </trkpt>
      <trkpt lat="44.70228" lon="6.8532">
        <ele>1830.7</ele>
        <time>2026-03-25T08:40:35Z</time>
      </trkpt>
      <trkpt lat="44.70227" lon="6.85321">
        <ele>1830.9</ele>
        <time>2026-03-25T08:40:36Z</time>
      </trkpt>
      <trkpt lat="44.70227" lon="6.85322">
        <ele>1831</ele>
        <time>2026-03-25T08:40:37Z</time>
      </trkpt>
      <trkpt lat="44.70226" lon="6.85323">
        <ele>1831.1</ele>
        <time>2026-03-25T08:40:38Z</time>
      </trkpt>
      <trkpt lat="44.70226" lon="6.85324">
        <ele>1831.2</ele>
        <time>2026-03-25T08:40:39Z</time>
      </trkpt>
      <trkpt lat="44.70225" lon="6.85325">
        <ele>1831.3</ele>
        <time>2026-03-25T08:40:40Z</time>
      </trkpt>
      <trkpt lat="44.70225" lon="6.85326">
        <ele>1831.4</ele>
        <time>2026-03-25T08:40:41Z</time>
      </trkpt>
      <trkpt lat="44.70224" lon="6.85327">
        <ele>1831.5</ele>
        <time>2026-03-25T08:40:42Z</time>
      </trkpt>
      <trkpt lat="44.70224" lon="6.85328">
        <ele>1831.6</ele>
        <time>2026-03-25T08:40:43Z</time>
      </trkpt>
      <trkpt lat="44.70223" lon="6.85329">
        <ele>1831.7</ele>
        <time>2026-03-25T08:40:44Z</time>
      </trkpt>
      <trkpt lat="44.70223" lon="6.8533">
        <ele>1831.9</ele>
        <time>2026-03-25T08:40:45Z</time>
      </trkpt>
      <trkpt lat="44.70222" lon="6.85331">
        <ele>1832</ele>
        <time>2026-03-25T08:40:46Z</time>
      </trkpt>
      <trkpt lat="44.70222" lon="6.85332">
        <ele>1832.1</ele>
        <time>2026-03-25T08:40:47Z</time>
      </trkpt>
      <trkpt lat="44.70221" lon="6.85332">
        <ele>1832.1</ele>
        <time>2026-03-25T08:40:48Z</time>
      </trkpt>
      <trkpt lat="44.70221" lon="6.85333">
        <ele>1832.2</ele>
        <time>2026-03-25T08:40:49Z</time>
      </trkpt>
      <trkpt lat="44.7022" lon="6.85334">
        <ele>1832.4</ele>
        <time>2026-03-25T08:40:50Z</time>
      </trkpt>
      <trkpt lat="44.70219" lon="6.85335">
        <ele>1832.5</ele>
        <time>2026-03-25T08:40:51Z</time>
      </trkpt>
      <trkpt lat="44.70218" lon="6.85336">
        <ele>1832.6</ele>
        <time>2026-03-25T08:40:53Z</time>
      </trkpt>
      <trkpt lat="44.70217" lon="6.85336">
        <ele>1832.7</ele>
        <time>2026-03-25T08:40:54Z</time>
      </trkpt>
      <trkpt lat="44.70217" lon="6.85337">
        <ele>1832.8</ele>
        <time>2026-03-25T08:40:55Z</time>
      </trkpt>
      <trkpt lat="44.70216" lon="6.85337">
        <ele>1832.9</ele>
        <time>2026-03-25T08:40:56Z</time>
      </trkpt>
      <trkpt lat="44.70215" lon="6.85338">
        <ele>1833</ele>
        <time>2026-03-25T08:40:57Z</time>
      </trkpt>
      <trkpt lat="44.70214" lon="6.85338">
        <ele>1833.1</ele>
        <time>2026-03-25T08:40:58Z</time>
      </trkpt>
      <trkpt lat="44.70213" lon="6.85338">
        <ele>1833.2</ele>
        <time>2026-03-25T08:40:59Z</time>
      </trkpt>
      <trkpt lat="44.70212" lon="6.85338">
        <ele>1833.3</ele>
        <time>2026-03-25T08:41:00Z</time>
      </trkpt>
      <trkpt lat="44.70212" lon="6.85338">
        <ele>1833.4</ele>
        <time>2026-03-25T08:41:01Z</time>
      </trkpt>
      <trkpt lat="44.70212" lon="6.85338">
        <ele>1833.4</ele>
        <time>2026-03-25T08:41:02Z</time>
      </trkpt>
      <trkpt lat="44.70212" lon="6.85338">
        <ele>1833.5</ele>
        <time>2026-03-25T08:41:03Z</time>
      </trkpt>
      <trkpt lat="44.70212" lon="6.85338">
        <ele>1833.5</ele>
        <time>2026-03-25T08:41:04Z</time>
      </trkpt>
      <trkpt lat="44.70212" lon="6.85337">
        <ele>1833.5</ele>
        <time>2026-03-25T08:41:05Z</time>
      </trkpt>
      <trkpt lat="44.70212" lon="6.85337">
        <ele>1833.5</ele>
        <time>2026-03-25T08:41:06Z</time>
      </trkpt>
      <trkpt lat="44.70212" lon="6.85337">
        <ele>1833.5</ele>
        <time>2026-03-25T08:41:07Z</time>
      </trkpt>
      <trkpt lat="44.70211" lon="6.85337">
        <ele>1833.5</ele>
        <time>2026-03-25T08:41:08Z</time>
      </trkpt>
      <trkpt lat="44.70211" lon="6.85338">
        <ele>1833.5</ele>
        <time>2026-03-25T08:41:09Z</time>
      </trkpt>
      <trkpt lat="44.70211" lon="6.85338">
        <ele>1833.6</ele>
        <time>2026-03-25T08:41:10Z</time>
      </trkpt>
      <trkpt lat="44.7021" lon="6.85338">
        <ele>1833.6</ele>
        <time>2026-03-25T08:41:11Z</time>
      </trkpt>
      <trkpt lat="44.7021" lon="6.85338">
        <ele>1833.7</ele>
        <time>2026-03-25T08:41:12Z</time>
      </trkpt>
      <trkpt lat="44.70209" lon="6.85337">
        <ele>1833.8</ele>
        <time>2026-03-25T08:41:13Z</time>
      </trkpt>
      <trkpt lat="44.70208" lon="6.85337">
        <ele>1833.9</ele>
        <time>2026-03-25T08:41:14Z</time>
      </trkpt>
      <trkpt lat="44.70207" lon="6.85337">
        <ele>1834</ele>
        <time>2026-03-25T08:41:15Z</time>
      </trkpt>
      <trkpt lat="44.70206" lon="6.85337">
        <ele>1834.1</ele>
        <time>2026-03-25T08:41:16Z</time>
      </trkpt>
      <trkpt lat="44.70205" lon="6.85336">
        <ele>1834.2</ele>
        <time>2026-03-25T08:41:17Z</time>
      </trkpt>
      <trkpt lat="44.70204" lon="6.85336">
        <ele>1834.4</ele>
        <time>2026-03-25T08:41:19Z</time>
      </trkpt>
      <trkpt lat="44.70202" lon="6.85336">
        <ele>1834.6</ele>
        <time>2026-03-25T08:41:20Z</time>
      </trkpt>
      <trkpt lat="44.70201" lon="6.85336">
        <ele>1834.7</ele>
        <time>2026-03-25T08:41:21Z</time>
      </trkpt>
      <trkpt lat="44.70201" lon="6.85336">
        <ele>1834.8</ele>
        <time>2026-03-25T08:41:22Z</time>
      </trkpt>
      <trkpt lat="44.702" lon="6.85335">
        <ele>1834.9</ele>
        <time>2026-03-25T08:41:23Z</time>
      </trkpt>
      <trkpt lat="44.70199" lon="6.85336">
        <ele>1834.9</ele>
        <time>2026-03-25T08:41:24Z</time>
      </trkpt>
      <trkpt lat="44.70198" lon="6.85336">
        <ele>1835</ele>
        <time>2026-03-25T08:41:25Z</time>
      </trkpt>
      <trkpt lat="44.70197" lon="6.85336">
        <ele>1835.1</ele>
        <time>2026-03-25T08:41:26Z</time>
      </trkpt>
      <trkpt lat="44.70196" lon="6.85337">
        <ele>1835.2</ele>
        <time>2026-03-25T08:41:27Z</time>
      </trkpt>
      <trkpt lat="44.70195" lon="6.85337">
        <ele>1835.3</ele>
        <time>2026-03-25T08:41:29Z</time>
      </trkpt>
      <trkpt lat="44.70195" lon="6.85338">
        <ele>1835.4</ele>
        <time>2026-03-25T08:41:30Z</time>
      </trkpt>
      <trkpt lat="44.70194" lon="6.85338">
        <ele>1835.5</ele>
        <time>2026-03-25T08:41:31Z</time>
      </trkpt>
      <trkpt lat="44.70193" lon="6.85339">
        <ele>1835.6</ele>
        <time>2026-03-25T08:41:32Z</time>
      </trkpt>
      <trkpt lat="44.70192" lon="6.85339">
        <ele>1835.7</ele>
        <time>2026-03-25T08:41:33Z</time>
      </trkpt>
      <trkpt lat="44.70192" lon="6.8534">
        <ele>1835.8</ele>
        <time>2026-03-25T08:41:34Z</time>
      </trkpt>
      <trkpt lat="44.70191" lon="6.8534">
        <ele>1835.8</ele>
        <time>2026-03-25T08:41:35Z</time>
      </trkpt>
      <trkpt lat="44.7019" lon="6.85341">
        <ele>1835.9</ele>
        <time>2026-03-25T08:41:36Z</time>
      </trkpt>
      <trkpt lat="44.7019" lon="6.85341">
        <ele>1836</ele>
        <time>2026-03-25T08:41:37Z</time>
      </trkpt>
      <trkpt lat="44.70188" lon="6.85342">
        <ele>1836.1</ele>
        <time>2026-03-25T08:41:38Z</time>
      </trkpt>
      <trkpt lat="44.70188" lon="6.85342">
        <ele>1836.2</ele>
        <time>2026-03-25T08:41:40Z</time>
      </trkpt>
      <trkpt lat="44.70187" lon="6.85342">
        <ele>1836.3</ele>
        <time>2026-03-25T08:41:41Z</time>
      </trkpt>
      <trkpt lat="44.70186" lon="6.85342">
        <ele>1836.3</ele>
        <time>2026-03-25T08:41:42Z</time>
      </trkpt>
      <trkpt lat="44.70186" lon="6.85342">
        <ele>1836.4</ele>
        <time>2026-03-25T08:41:43Z</time>
      </trkpt>
      <trkpt lat="44.70185" lon="6.85342">
        <ele>1836.5</ele>
        <time>2026-03-25T08:41:44Z</time>
      </trkpt>
      <trkpt lat="44.70184" lon="6.85342">
        <ele>1836.6</ele>
        <time>2026-03-25T08:41:45Z</time>
      </trkpt>
      <trkpt lat="44.70184" lon="6.85342">
        <ele>1836.6</ele>
        <time>2026-03-25T08:41:46Z</time>
      </trkpt>
      <trkpt lat="44.70183" lon="6.85342">
        <ele>1836.7</ele>
        <time>2026-03-25T08:41:47Z</time>
      </trkpt>
      <trkpt lat="44.70182" lon="6.85342">
        <ele>1836.8</ele>
        <time>2026-03-25T08:41:48Z</time>
      </trkpt>
      <trkpt lat="44.70182" lon="6.85342">
        <ele>1836.8</ele>
        <time>2026-03-25T08:41:50Z</time>
      </trkpt>
      <trkpt lat="44.70181" lon="6.85342">
        <ele>1836.9</ele>
        <time>2026-03-25T08:41:51Z</time>
      </trkpt>
      <trkpt lat="44.7018" lon="6.85342">
        <ele>1837</ele>
        <time>2026-03-25T08:41:52Z</time>
      </trkpt>
      <trkpt lat="44.7018" lon="6.85342">
        <ele>1837</ele>
        <time>2026-03-25T08:41:53Z</time>
      </trkpt>
      <trkpt lat="44.70179" lon="6.85342">
        <ele>1837.1</ele>
        <time>2026-03-25T08:41:54Z</time>
      </trkpt>
      <trkpt lat="44.70178" lon="6.85342">
        <ele>1837.2</ele>
        <time>2026-03-25T08:41:55Z</time>
      </trkpt>
      <trkpt lat="44.70178" lon="6.85342">
        <ele>1837.2</ele>
        <time>2026-03-25T08:41:56Z</time>
      </trkpt>
      <trkpt lat="44.70176" lon="6.85342">
        <ele>1837.4</ele>
        <time>2026-03-25T08:41:57Z</time>
      </trkpt>
      <trkpt lat="44.70176" lon="6.85342">
        <ele>1837.4</ele>
        <time>2026-03-25T08:41:59Z</time>
      </trkpt>
      <trkpt lat="44.70175" lon="6.85343">
        <ele>1837.5</ele>
        <time>2026-03-25T08:42:00Z</time>
      </trkpt>
      <trkpt lat="44.70174" lon="6.85343">
        <ele>1837.6</ele>
        <time>2026-03-25T08:42:01Z</time>
      </trkpt>
      <trkpt lat="44.70174" lon="6.85344">
        <ele>1837.7</ele>
        <time>2026-03-25T08:42:02Z</time>
      </trkpt>
      <trkpt lat="44.70173" lon="6.85344">
        <ele>1837.8</ele>
        <time>2026-03-25T08:42:03Z</time>
      </trkpt>
      <trkpt lat="44.70172" lon="6.85345">
        <ele>1837.9</ele>
        <time>2026-03-25T08:42:04Z</time>
      </trkpt>
      <trkpt lat="44.70172" lon="6.85345">
        <ele>1837.9</ele>
        <time>2026-03-25T08:42:05Z</time>
      </trkpt>
      <trkpt lat="44.70171" lon="6.85346">
        <ele>1838</ele>
        <time>2026-03-25T08:42:06Z</time>
      </trkpt>
      <trkpt lat="44.70171" lon="6.85346">
        <ele>1838.1</ele>
        <time>2026-03-25T08:42:07Z</time>
      </trkpt>
      <trkpt lat="44.7017" lon="6.85346">
        <ele>1838.2</ele>
        <time>2026-03-25T08:42:08Z</time>
      </trkpt>
      <trkpt lat="44.70169" lon="6.85347">
        <ele>1838.2</ele>
        <time>2026-03-25T08:42:09Z</time>
      </trkpt>
      <trkpt lat="44.70169" lon="6.85347">
        <ele>1838.3</ele>
        <time>2026-03-25T08:42:10Z</time>
      </trkpt>
      <trkpt lat="44.70168" lon="6.85347">
        <ele>1838.4</ele>
        <time>2026-03-25T08:42:11Z</time>
      </trkpt>
      <trkpt lat="44.70167" lon="6.85347">
        <ele>1838.4</ele>
        <time>2026-03-25T08:42:13Z</time>
      </trkpt>
      <trkpt lat="44.70167" lon="6.85347">
        <ele>1838.5</ele>
        <time>2026-03-25T08:42:14Z</time>
      </trkpt>
      <trkpt lat="44.70166" lon="6.85347">
        <ele>1838.6</ele>
        <time>2026-03-25T08:42:15Z</time>
      </trkpt>
      <trkpt lat="44.70166" lon="6.85347">
        <ele>1838.6</ele>
        <time>2026-03-25T08:42:16Z</time>
      </trkpt>
      <trkpt lat="44.70165" lon="6.85347">
        <ele>1838.7</ele>
        <time>2026-03-25T08:42:17Z</time>
      </trkpt>
      <trkpt lat="44.70165" lon="6.85347">
        <ele>1838.7</ele>
        <time>2026-03-25T08:42:18Z</time>
      </trkpt>
      <trkpt lat="44.70164" lon="6.85347">
        <ele>1838.8</ele>
        <time>2026-03-25T08:42:19Z</time>
      </trkpt>
      <trkpt lat="44.70164" lon="6.85347">
        <ele>1838.8</ele>
        <time>2026-03-25T08:42:20Z</time>
      </trkpt>
      <trkpt lat="44.70163" lon="6.85347">
        <ele>1838.9</ele>
        <time>2026-03-25T08:42:21Z</time>
      </trkpt>
      <trkpt lat="44.70163" lon="6.85347">
        <ele>1839</ele>
        <time>2026-03-25T08:42:22Z</time>
      </trkpt>
      <trkpt lat="44.70162" lon="6.85347">
        <ele>1839</ele>
        <time>2026-03-25T08:42:23Z</time>
      </trkpt>
      <trkpt lat="44.70162" lon="6.85348">
        <ele>1839.1</ele>
        <time>2026-03-25T08:42:24Z</time>
      </trkpt>
      <trkpt lat="44.70161" lon="6.85348">
        <ele>1839.1</ele>
        <time>2026-03-25T08:42:25Z</time>
      </trkpt>
      <trkpt lat="44.70161" lon="6.85348">
        <ele>1839.2</ele>
        <time>2026-03-25T08:42:26Z</time>
      </trkpt>
      <trkpt lat="44.70161" lon="6.85347">
        <ele>1839.2</ele>
        <time>2026-03-25T08:42:27Z</time>
      </trkpt>
      <trkpt lat="44.7016" lon="6.85347">
        <ele>1839.3</ele>
        <time>2026-03-25T08:42:28Z</time>
      </trkpt>
      <trkpt lat="44.70159" lon="6.85347">
        <ele>1839.4</ele>
        <time>2026-03-25T08:42:29Z</time>
      </trkpt>
      <trkpt lat="44.70158" lon="6.85347">
        <ele>1839.5</ele>
        <time>2026-03-25T08:42:31Z</time>
      </trkpt>
      <trkpt lat="44.70157" lon="6.85347">
        <ele>1839.6</ele>
        <time>2026-03-25T08:42:32Z</time>
      </trkpt>
      <trkpt lat="44.70157" lon="6.85347">
        <ele>1839.6</ele>
        <time>2026-03-25T08:42:33Z</time>
      </trkpt>
      <trkpt lat="44.70157" lon="6.85347">
        <ele>1839.7</ele>
        <time>2026-03-25T08:42:34Z</time>
      </trkpt>
      <trkpt lat="44.70155" lon="6.85347">
        <ele>1839.8</ele>
        <time>2026-03-25T08:42:36Z</time>
      </trkpt>
      <trkpt lat="44.70155" lon="6.85347">
        <ele>1839.8</ele>
        <time>2026-03-25T08:42:37Z</time>
      </trkpt>
      <trkpt lat="44.70155" lon="6.85347">
        <ele>1839.9</ele>
        <time>2026-03-25T08:42:38Z</time>
      </trkpt>
      <trkpt lat="44.70154" lon="6.85347">
        <ele>1839.9</ele>
        <time>2026-03-25T08:42:39Z</time>
      </trkpt>
      <trkpt lat="44.70153" lon="6.85347">
        <ele>1840</ele>
        <time>2026-03-25T08:42:40Z</time>
      </trkpt>
      <trkpt lat="44.70152" lon="6.85347">
        <ele>1840.1</ele>
        <time>2026-03-25T08:42:41Z</time>
      </trkpt>
      <trkpt lat="44.70152" lon="6.85347">
        <ele>1840.2</ele>
        <time>2026-03-25T08:42:42Z</time>
      </trkpt>
      <trkpt lat="44.70151" lon="6.85348">
        <ele>1840.3</ele>
        <time>2026-03-25T08:42:43Z</time>
      </trkpt>
      <trkpt lat="44.7015" lon="6.85348">
        <ele>1840.4</ele>
        <time>2026-03-25T08:42:44Z</time>
      </trkpt>
      <trkpt lat="44.7015" lon="6.85348">
        <ele>1840.5</ele>
        <time>2026-03-25T08:42:46Z</time>
      </trkpt>
      <trkpt lat="44.70149" lon="6.85349">
        <ele>1840.5</ele>
        <time>2026-03-25T08:42:47Z</time>
      </trkpt>
      <trkpt lat="44.70148" lon="6.85349">
        <ele>1840.6</ele>
        <time>2026-03-25T08:42:48Z</time>
      </trkpt>
      <trkpt lat="44.70147" lon="6.85349">
        <ele>1840.7</ele>
        <time>2026-03-25T08:42:49Z</time>
      </trkpt>
      <trkpt lat="44.70146" lon="6.8535">
        <ele>1840.8</ele>
        <time>2026-03-25T08:42:50Z</time>
      </trkpt>
      <trkpt lat="44.70146" lon="6.8535">
        <ele>1840.9</ele>
        <time>2026-03-25T08:42:51Z</time>
      </trkpt>
      <trkpt lat="44.70145" lon="6.85351">
        <ele>1841</ele>
        <time>2026-03-25T08:42:53Z</time>
      </trkpt>
      <trkpt lat="44.70144" lon="6.85351">
        <ele>1841.1</ele>
        <time>2026-03-25T08:42:54Z</time>
      </trkpt>
      <trkpt lat="44.70144" lon="6.85351">
        <ele>1841.2</ele>
        <time>2026-03-25T08:42:55Z</time>
      </trkpt>
      <trkpt lat="44.70143" lon="6.85352">
        <ele>1841.3</ele>
        <time>2026-03-25T08:42:56Z</time>
      </trkpt>
      <trkpt lat="44.70142" lon="6.85352">
        <ele>1841.3</ele>
        <time>2026-03-25T08:42:57Z</time>
      </trkpt>
      <trkpt lat="44.70141" lon="6.85353">
        <ele>1841.4</ele>
        <time>2026-03-25T08:42:58Z</time>
      </trkpt>
      <trkpt lat="44.7014" lon="6.85353">
        <ele>1841.6</ele>
        <time>2026-03-25T08:43:00Z</time>
      </trkpt>
      <trkpt lat="44.70139" lon="6.85353">
        <ele>1841.7</ele>
        <time>2026-03-25T08:43:01Z</time>
      </trkpt>
      <trkpt lat="44.70139" lon="6.85354">
        <ele>1841.7</ele>
        <time>2026-03-25T08:43:02Z</time>
      </trkpt>
      <trkpt lat="44.70138" lon="6.85354">
        <ele>1841.8</ele>
        <time>2026-03-25T08:43:03Z</time>
      </trkpt>
      <trkpt lat="44.70138" lon="6.85354">
        <ele>1841.9</ele>
        <time>2026-03-25T08:43:04Z</time>
      </trkpt>
      <trkpt lat="44.70137" lon="6.85355">
        <ele>1842</ele>
        <time>2026-03-25T08:43:05Z</time>
      </trkpt>
      <trkpt lat="44.70136" lon="6.85355">
        <ele>1842.1</ele>
        <time>2026-03-25T08:43:06Z</time>
      </trkpt>
      <trkpt lat="44.70135" lon="6.85355">
        <ele>1842.2</ele>
        <time>2026-03-25T08:43:07Z</time>
      </trkpt>
      <trkpt lat="44.70134" lon="6.85356">
        <ele>1842.3</ele>
        <time>2026-03-25T08:43:09Z</time>
      </trkpt>
      <trkpt lat="44.70133" lon="6.85356">
        <ele>1842.4</ele>
        <time>2026-03-25T08:43:10Z</time>
      </trkpt>
      <trkpt lat="44.70133" lon="6.85356">
        <ele>1842.4</ele>
        <time>2026-03-25T08:43:11Z</time>
      </trkpt>
      <trkpt lat="44.70132" lon="6.85357">
        <ele>1842.6</ele>
        <time>2026-03-25T08:43:12Z</time>
      </trkpt>
      <trkpt lat="44.70131" lon="6.85357">
        <ele>1842.6</ele>
        <time>2026-03-25T08:43:13Z</time>
      </trkpt>
      <trkpt lat="44.70131" lon="6.85357">
        <ele>1842.7</ele>
        <time>2026-03-25T08:43:14Z</time>
      </trkpt>
      <trkpt lat="44.7013" lon="6.85357">
        <ele>1842.8</ele>
        <time>2026-03-25T08:43:15Z</time>
      </trkpt>
      <trkpt lat="44.7013" lon="6.85357">
        <ele>1842.8</ele>
        <time>2026-03-25T08:43:16Z</time>
      </trkpt>
      <trkpt lat="44.70128" lon="6.85357">
        <ele>1842.9</ele>
        <time>2026-03-25T08:43:17Z</time>
      </trkpt>
      <trkpt lat="44.70128" lon="6.85357">
        <ele>1843</ele>
        <time>2026-03-25T08:43:18Z</time>
      </trkpt>
      <trkpt lat="44.70127" lon="6.85357">
        <ele>1843.1</ele>
        <time>2026-03-25T08:43:19Z</time>
      </trkpt>
      <trkpt lat="44.70127" lon="6.85357">
        <ele>1843.1</ele>
        <time>2026-03-25T08:43:20Z</time>
      </trkpt>
      <trkpt lat="44.70126" lon="6.85357">
        <ele>1843.2</ele>
        <time>2026-03-25T08:43:21Z</time>
      </trkpt>
      <trkpt lat="44.70125" lon="6.85357">
        <ele>1843.3</ele>
        <time>2026-03-25T08:43:22Z</time>
      </trkpt>
      <trkpt lat="44.70125" lon="6.85357">
        <ele>1843.3</ele>
        <time>2026-03-25T08:43:23Z</time>
      </trkpt>
      <trkpt lat="44.70124" lon="6.85357">
        <ele>1843.4</ele>
        <time>2026-03-25T08:43:25Z</time>
      </trkpt>
      <trkpt lat="44.70124" lon="6.85357">
        <ele>1843.5</ele>
        <time>2026-03-25T08:43:26Z</time>
      </trkpt>
      <trkpt lat="44.70123" lon="6.85358">
        <ele>1843.5</ele>
        <time>2026-03-25T08:43:27Z</time>
      </trkpt>
      <trkpt lat="44.70122" lon="6.85358">
        <ele>1843.6</ele>
        <time>2026-03-25T08:43:28Z</time>
      </trkpt>
      <trkpt lat="44.70122" lon="6.85358">
        <ele>1843.7</ele>
        <time>2026-03-25T08:43:29Z</time>
      </trkpt>
      <trkpt lat="44.70121" lon="6.85358">
        <ele>1843.7</ele>
        <time>2026-03-25T08:43:30Z</time>
      </trkpt>
      <trkpt lat="44.70121" lon="6.85358">
        <ele>1843.8</ele>
        <time>2026-03-25T08:43:31Z</time>
      </trkpt>
      <trkpt lat="44.7012" lon="6.85358">
        <ele>1843.8</ele>
        <time>2026-03-25T08:43:32Z</time>
      </trkpt>
      <trkpt lat="44.70119" lon="6.85359">
        <ele>1843.9</ele>
        <time>2026-03-25T08:43:33Z</time>
      </trkpt>
      <trkpt lat="44.70119" lon="6.85359">
        <ele>1844</ele>
        <time>2026-03-25T08:43:35Z</time>
      </trkpt>
      <trkpt lat="44.70118" lon="6.85359">
        <ele>1844.1</ele>
        <time>2026-03-25T08:43:36Z</time>
      </trkpt>
      <trkpt lat="44.70117" lon="6.85359">
        <ele>1844.1</ele>
        <time>2026-03-25T08:43:37Z</time>
      </trkpt>
      <trkpt lat="44.70117" lon="6.85359">
        <ele>1844.2</ele>
        <time>2026-03-25T08:43:38Z</time>
      </trkpt>
      <trkpt lat="44.70116" lon="6.85359">
        <ele>1844.2</ele>
        <time>2026-03-25T08:43:39Z</time>
      </trkpt>
      <trkpt lat="44.70115" lon="6.8536">
        <ele>1844.3</ele>
        <time>2026-03-25T08:43:40Z</time>
      </trkpt>
      <trkpt lat="44.70114" lon="6.8536">
        <ele>1844.4</ele>
        <time>2026-03-25T08:43:41Z</time>
      </trkpt>
      <trkpt lat="44.70114" lon="6.8536">
        <ele>1844.5</ele>
        <time>2026-03-25T08:43:43Z</time>
      </trkpt>
      <trkpt lat="44.70114" lon="6.8536">
        <ele>1844.5</ele>
        <time>2026-03-25T08:43:44Z</time>
      </trkpt>
      <trkpt lat="44.70113" lon="6.8536">
        <ele>1844.6</ele>
        <time>2026-03-25T08:43:45Z</time>
      </trkpt>
      <trkpt lat="44.70113" lon="6.8536">
        <ele>1844.6</ele>
        <time>2026-03-25T08:43:46Z</time>
      </trkpt>
      <trkpt lat="44.70112" lon="6.85361">
        <ele>1844.7</ele>
        <time>2026-03-25T08:43:47Z</time>
      </trkpt>
      <trkpt lat="44.70112" lon="6.85361">
        <ele>1844.7</ele>
        <time>2026-03-25T08:43:48Z</time>
      </trkpt>
      <trkpt lat="44.70111" lon="6.85361">
        <ele>1844.8</ele>
        <time>2026-03-25T08:43:49Z</time>
      </trkpt>
      <trkpt lat="44.7011" lon="6.85362">
        <ele>1844.9</ele>
        <time>2026-03-25T08:43:50Z</time>
      </trkpt>
      <trkpt lat="44.70109" lon="6.85362">
        <ele>1845</ele>
        <time>2026-03-25T08:43:51Z</time>
      </trkpt>
      <trkpt lat="44.70109" lon="6.85362">
        <ele>1845.1</ele>
        <time>2026-03-25T08:43:52Z</time>
      </trkpt>
      <trkpt lat="44.70108" lon="6.85363">
        <ele>1845.1</ele>
        <time>2026-03-25T08:43:53Z</time>
      </trkpt>
      <trkpt lat="44.70108" lon="6.85363">
        <ele>1845.2</ele>
        <time>2026-03-25T08:43:54Z</time>
      </trkpt>
      <trkpt lat="44.70107" lon="6.85363">
        <ele>1845.3</ele>
        <time>2026-03-25T08:43:55Z</time>
      </trkpt>
      <trkpt lat="44.70106" lon="6.85363">
        <ele>1845.4</ele>
        <time>2026-03-25T08:43:57Z</time>
      </trkpt>
      <trkpt lat="44.70106" lon="6.85364">
        <ele>1845.4</ele>
        <time>2026-03-25T08:43:58Z</time>
      </trkpt>
      <trkpt lat="44.70105" lon="6.85364">
        <ele>1845.5</ele>
        <time>2026-03-25T08:43:59Z</time>
      </trkpt>
      <trkpt lat="44.70105" lon="6.85364">
        <ele>1845.5</ele>
        <time>2026-03-25T08:44:00Z</time>
      </trkpt>
      <trkpt lat="44.70104" lon="6.85364">
        <ele>1845.6</ele>
        <time>2026-03-25T08:44:01Z</time>
      </trkpt>
      <trkpt lat="44.70104" lon="6.85364">
        <ele>1845.6</ele>
        <time>2026-03-25T08:44:02Z</time>
      </trkpt>
      <trkpt lat="44.70103" lon="6.85364">
        <ele>1845.7</ele>
        <time>2026-03-25T08:44:03Z</time>
      </trkpt>
      <trkpt lat="44.70103" lon="6.85365">
        <ele>1845.8</ele>
        <time>2026-03-25T08:44:04Z</time>
      </trkpt>
      <trkpt lat="44.70102" lon="6.85365">
        <ele>1845.8</ele>
        <time>2026-03-25T08:44:05Z</time>
      </trkpt>
      <trkpt lat="44.70102" lon="6.85365">
        <ele>1845.9</ele>
        <time>2026-03-25T08:44:06Z</time>
      </trkpt>
      <trkpt lat="44.701" lon="6.85367">
        <ele>1846.2</ele>
        <time>2026-03-25T08:44:07Z</time>
      </trkpt>
      <trkpt lat="44.70099" lon="6.85367">
        <ele>1846.3</ele>
        <time>2026-03-25T08:44:08Z</time>
      </trkpt>
      <trkpt lat="44.70098" lon="6.85368">
        <ele>1846.4</ele>
        <time>2026-03-25T08:44:09Z</time>
      </trkpt>
      <trkpt lat="44.70097" lon="6.85369">
        <ele>1846.5</ele>
        <time>2026-03-25T08:44:10Z</time>
      </trkpt>
      <trkpt lat="44.70097" lon="6.85369">
        <ele>1846.6</ele>
        <time>2026-03-25T08:44:11Z</time>
      </trkpt>
      <trkpt lat="44.70096" lon="6.85369">
        <ele>1846.7</ele>
        <time>2026-03-25T08:44:12Z</time>
      </trkpt>
      <trkpt lat="44.70095" lon="6.8537">
        <ele>1846.7</ele>
        <time>2026-03-25T08:44:13Z</time>
      </trkpt>
      <trkpt lat="44.70095" lon="6.8537">
        <ele>1846.8</ele>
        <time>2026-03-25T08:44:14Z</time>
      </trkpt>
      <trkpt lat="44.70094" lon="6.8537">
        <ele>1846.9</ele>
        <time>2026-03-25T08:44:15Z</time>
      </trkpt>
      <trkpt lat="44.70094" lon="6.85371">
        <ele>1847</ele>
        <time>2026-03-25T08:44:16Z</time>
      </trkpt>
      <trkpt lat="44.70093" lon="6.85371">
        <ele>1847</ele>
        <time>2026-03-25T08:44:17Z</time>
      </trkpt>
      <trkpt lat="44.70093" lon="6.85371">
        <ele>1847.1</ele>
        <time>2026-03-25T08:44:18Z</time>
      </trkpt>
      <trkpt lat="44.70092" lon="6.85371">
        <ele>1847.2</ele>
        <time>2026-03-25T08:44:19Z</time>
      </trkpt>
      <trkpt lat="44.70091" lon="6.85371">
        <ele>1847.3</ele>
        <time>2026-03-25T08:44:20Z</time>
      </trkpt>
      <trkpt lat="44.70091" lon="6.85371">
        <ele>1847.4</ele>
        <time>2026-03-25T08:44:21Z</time>
      </trkpt>
      <trkpt lat="44.7009" lon="6.85371">
        <ele>1847.4</ele>
        <time>2026-03-25T08:44:22Z</time>
      </trkpt>
      <trkpt lat="44.7009" lon="6.85371">
        <ele>1847.5</ele>
        <time>2026-03-25T08:44:23Z</time>
      </trkpt>
      <trkpt lat="44.70089" lon="6.85371">
        <ele>1847.6</ele>
        <time>2026-03-25T08:44:24Z</time>
      </trkpt>
      <trkpt lat="44.70088" lon="6.85371">
        <ele>1847.7</ele>
        <time>2026-03-25T08:44:25Z</time>
      </trkpt>
      <trkpt lat="44.70088" lon="6.85371">
        <ele>1847.8</ele>
        <time>2026-03-25T08:44:26Z</time>
      </trkpt>
      <trkpt lat="44.70087" lon="6.85372">
        <ele>1847.8</ele>
        <time>2026-03-25T08:44:27Z</time>
      </trkpt>
      <trkpt lat="44.70086" lon="6.85372">
        <ele>1847.9</ele>
        <time>2026-03-25T08:44:28Z</time>
      </trkpt>
      <trkpt lat="44.70086" lon="6.85372">
        <ele>1848</ele>
        <time>2026-03-25T08:44:29Z</time>
      </trkpt>
      <trkpt lat="44.70085" lon="6.85373">
        <ele>1848.2</ele>
        <time>2026-03-25T08:44:30Z</time>
      </trkpt>
      <trkpt lat="44.70084" lon="6.85373">
        <ele>1848.3</ele>
        <time>2026-03-25T08:44:32Z</time>
      </trkpt>
      <trkpt lat="44.70083" lon="6.85373">
        <ele>1848.4</ele>
        <time>2026-03-25T08:44:33Z</time>
      </trkpt>
      <trkpt lat="44.70083" lon="6.85373">
        <ele>1848.5</ele>
        <time>2026-03-25T08:44:34Z</time>
      </trkpt>
      <trkpt lat="44.70082" lon="6.85373">
        <ele>1848.6</ele>
        <time>2026-03-25T08:44:35Z</time>
      </trkpt>
      <trkpt lat="44.70081" lon="6.85374">
        <ele>1848.7</ele>
        <time>2026-03-25T08:44:36Z</time>
      </trkpt>
      <trkpt lat="44.7008" lon="6.85374">
        <ele>1848.8</ele>
        <time>2026-03-25T08:44:37Z</time>
      </trkpt>
      <trkpt lat="44.70079" lon="6.85374">
        <ele>1848.9</ele>
        <time>2026-03-25T08:44:38Z</time>
      </trkpt>
      <trkpt lat="44.70079" lon="6.85374">
        <ele>1849</ele>
        <time>2026-03-25T08:44:39Z</time>
      </trkpt>
      <trkpt lat="44.70078" lon="6.85374">
        <ele>1849.1</ele>
        <time>2026-03-25T08:44:40Z</time>
      </trkpt>
      <trkpt lat="44.70077" lon="6.85374">
        <ele>1849.1</ele>
        <time>2026-03-25T08:44:41Z</time>
      </trkpt>
      <trkpt lat="44.70077" lon="6.85374">
        <ele>1849.2</ele>
        <time>2026-03-25T08:44:42Z</time>
      </trkpt>
      <trkpt lat="44.70076" lon="6.85374">
        <ele>1849.3</ele>
        <time>2026-03-25T08:44:43Z</time>
      </trkpt>
      <trkpt lat="44.70076" lon="6.85374">
        <ele>1849.3</ele>
        <time>2026-03-25T08:44:44Z</time>
      </trkpt>
      <trkpt lat="44.70075" lon="6.85374">
        <ele>1849.4</ele>
        <time>2026-03-25T08:44:45Z</time>
      </trkpt>
      <trkpt lat="44.70074" lon="6.85374">
        <ele>1849.5</ele>
        <time>2026-03-25T08:44:46Z</time>
      </trkpt>
      <trkpt lat="44.70074" lon="6.85373">
        <ele>1849.6</ele>
        <time>2026-03-25T08:44:47Z</time>
      </trkpt>
      <trkpt lat="44.70073" lon="6.85374">
        <ele>1849.7</ele>
        <time>2026-03-25T08:44:48Z</time>
      </trkpt>
      <trkpt lat="44.70073" lon="6.85374">
        <ele>1849.7</ele>
        <time>2026-03-25T08:44:49Z</time>
      </trkpt>
      <trkpt lat="44.70072" lon="6.85374">
        <ele>1849.8</ele>
        <time>2026-03-25T08:44:50Z</time>
      </trkpt>
      <trkpt lat="44.70072" lon="6.85374">
        <ele>1849.9</ele>
        <time>2026-03-25T08:44:51Z</time>
      </trkpt>
      <trkpt lat="44.70071" lon="6.85374">
        <ele>1849.9</ele>
        <time>2026-03-25T08:44:52Z</time>
      </trkpt>
      <trkpt lat="44.70071" lon="6.85374">
        <ele>1850</ele>
        <time>2026-03-25T08:44:53Z</time>
      </trkpt>
      <trkpt lat="44.7007" lon="6.85374">
        <ele>1850.1</ele>
        <time>2026-03-25T08:44:54Z</time>
      </trkpt>
      <trkpt lat="44.70069" lon="6.85374">
        <ele>1850.2</ele>
        <time>2026-03-25T08:44:55Z</time>
      </trkpt>
      <trkpt lat="44.70069" lon="6.85374">
        <ele>1850.3</ele>
        <time>2026-03-25T08:44:57Z</time>
      </trkpt>
      <trkpt lat="44.70068" lon="6.85375">
        <ele>1850.4</ele>
        <time>2026-03-25T08:44:58Z</time>
      </trkpt>
      <trkpt lat="44.70067" lon="6.85374">
        <ele>1850.5</ele>
        <time>2026-03-25T08:44:59Z</time>
      </trkpt>
      <trkpt lat="44.70067" lon="6.85374">
        <ele>1850.6</ele>
        <time>2026-03-25T08:45:00Z</time>
      </trkpt>
      <trkpt lat="44.70066" lon="6.85374">
        <ele>1850.7</ele>
        <time>2026-03-25T08:45:01Z</time>
      </trkpt>
      <trkpt lat="44.70065" lon="6.85374">
        <ele>1850.8</ele>
        <time>2026-03-25T08:45:02Z</time>
      </trkpt>
      <trkpt lat="44.70064" lon="6.85374">
        <ele>1850.9</ele>
        <time>2026-03-25T08:45:03Z</time>
      </trkpt>
      <trkpt lat="44.70064" lon="6.85374">
        <ele>1850.9</ele>
        <time>2026-03-25T08:45:04Z</time>
      </trkpt>
      <trkpt lat="44.70064" lon="6.85374">
        <ele>1851</ele>
        <time>2026-03-25T08:45:05Z</time>
      </trkpt>
      <trkpt lat="44.70063" lon="6.85374">
        <ele>1851.1</ele>
        <time>2026-03-25T08:45:07Z</time>
      </trkpt>
      <trkpt lat="44.70063" lon="6.85374">
        <ele>1851.1</ele>
        <time>2026-03-25T08:45:08Z</time>
      </trkpt>
      <trkpt lat="44.70062" lon="6.85374">
        <ele>1851.2</ele>
        <time>2026-03-25T08:45:09Z</time>
      </trkpt>
      <trkpt lat="44.70062" lon="6.85374">
        <ele>1851.3</ele>
        <time>2026-03-25T08:45:10Z</time>
      </trkpt>
      <trkpt lat="44.70061" lon="6.85374">
        <ele>1851.3</ele>
        <time>2026-03-25T08:45:11Z</time>
      </trkpt>
      <trkpt lat="44.7006" lon="6.85375">
        <ele>1851.5</ele>
        <time>2026-03-25T08:45:12Z</time>
      </trkpt>
      <trkpt lat="44.70059" lon="6.85376">
        <ele>1851.6</ele>
        <time>2026-03-25T08:45:14Z</time>
      </trkpt>
      <trkpt lat="44.70059" lon="6.85376">
        <ele>1851.8</ele>
        <time>2026-03-25T08:45:15Z</time>
      </trkpt>
      <trkpt lat="44.70058" lon="6.85377">
        <ele>1851.8</ele>
        <time>2026-03-25T08:45:16Z</time>
      </trkpt>
      <trkpt lat="44.70058" lon="6.85378">
        <ele>1852</ele>
        <time>2026-03-25T08:45:17Z</time>
      </trkpt>
      <trkpt lat="44.70057" lon="6.85378">
        <ele>1852</ele>
        <time>2026-03-25T08:45:18Z</time>
      </trkpt>
      <trkpt lat="44.70056" lon="6.85379">
        <ele>1852.2</ele>
        <time>2026-03-25T08:45:19Z</time>
      </trkpt>
      <trkpt lat="44.70056" lon="6.8538">
        <ele>1852.4</ele>
        <time>2026-03-25T08:45:21Z</time>
      </trkpt>
      <trkpt lat="44.70055" lon="6.8538">
        <ele>1852.5</ele>
        <time>2026-03-25T08:45:22Z</time>
      </trkpt>
      <trkpt lat="44.70054" lon="6.8538">
        <ele>1852.6</ele>
        <time>2026-03-25T08:45:23Z</time>
      </trkpt>
      <trkpt lat="44.70053" lon="6.85381">
        <ele>1852.7</ele>
        <time>2026-03-25T08:45:24Z</time>
      </trkpt>
      <trkpt lat="44.70053" lon="6.85381">
        <ele>1852.8</ele>
        <time>2026-03-25T08:45:25Z</time>
      </trkpt>
      <trkpt lat="44.70051" lon="6.85382">
        <ele>1853</ele>
        <time>2026-03-25T08:45:26Z</time>
      </trkpt>
      <trkpt lat="44.7005" lon="6.85382">
        <ele>1853.2</ele>
        <time>2026-03-25T08:45:28Z</time>
      </trkpt>
      <trkpt lat="44.7005" lon="6.85382">
        <ele>1853.3</ele>
        <time>2026-03-25T08:45:29Z</time>
      </trkpt>
      <trkpt lat="44.70049" lon="6.85382">
        <ele>1853.4</ele>
        <time>2026-03-25T08:45:30Z</time>
      </trkpt>
      <trkpt lat="44.70048" lon="6.85382">
        <ele>1853.5</ele>
        <time>2026-03-25T08:45:31Z</time>
      </trkpt>
      <trkpt lat="44.70047" lon="6.85382">
        <ele>1853.6</ele>
        <time>2026-03-25T08:45:32Z</time>
      </trkpt>
      <trkpt lat="44.70046" lon="6.85382">
        <ele>1853.7</ele>
        <time>2026-03-25T08:45:33Z</time>
      </trkpt>
      <trkpt lat="44.70045" lon="6.85382">
        <ele>1853.9</ele>
        <time>2026-03-25T08:45:34Z</time>
      </trkpt>
      <trkpt lat="44.70045" lon="6.85382">
        <ele>1854</ele>
        <time>2026-03-25T08:45:35Z</time>
      </trkpt>
      <trkpt lat="44.70044" lon="6.85382">
        <ele>1854.1</ele>
        <time>2026-03-25T08:45:36Z</time>
      </trkpt>
      <trkpt lat="44.70043" lon="6.85382">
        <ele>1854.2</ele>
        <time>2026-03-25T08:45:37Z</time>
      </trkpt>
      <trkpt lat="44.70042" lon="6.85382">
        <ele>1854.3</ele>
        <time>2026-03-25T08:45:38Z</time>
      </trkpt>
      <trkpt lat="44.70042" lon="6.85383">
        <ele>1854.4</ele>
        <time>2026-03-25T08:45:39Z</time>
      </trkpt>
      <trkpt lat="44.70041" lon="6.85383">
        <ele>1854.5</ele>
        <time>2026-03-25T08:45:40Z</time>
      </trkpt>
      <trkpt lat="44.7004" lon="6.85383">
        <ele>1854.6</ele>
        <time>2026-03-25T08:45:41Z</time>
      </trkpt>
      <trkpt lat="44.70039" lon="6.85383">
        <ele>1854.7</ele>
        <time>2026-03-25T08:45:42Z</time>
      </trkpt>
      <trkpt lat="44.70038" lon="6.85383">
        <ele>1854.8</ele>
        <time>2026-03-25T08:45:43Z</time>
      </trkpt>
      <trkpt lat="44.70038" lon="6.85384">
        <ele>1854.8</ele>
        <time>2026-03-25T08:45:44Z</time>
      </trkpt>
      <trkpt lat="44.70037" lon="6.85384">
        <ele>1854.9</ele>
        <time>2026-03-25T08:45:45Z</time>
      </trkpt>
      <trkpt lat="44.70036" lon="6.85384">
        <ele>1855</ele>
        <time>2026-03-25T08:45:46Z</time>
      </trkpt>
      <trkpt lat="44.70035" lon="6.85384">
        <ele>1855.1</ele>
        <time>2026-03-25T08:45:47Z</time>
      </trkpt>
      <trkpt lat="44.70035" lon="6.85385">
        <ele>1855.1</ele>
        <time>2026-03-25T08:45:48Z</time>
      </trkpt>
      <trkpt lat="44.70034" lon="6.85385">
        <ele>1855.2</ele>
        <time>2026-03-25T08:45:49Z</time>
      </trkpt>
      <trkpt lat="44.70033" lon="6.85384">
        <ele>1855.3</ele>
        <time>2026-03-25T08:45:51Z</time>
      </trkpt>
      <trkpt lat="44.70032" lon="6.85384">
        <ele>1855.4</ele>
        <time>2026-03-25T08:45:52Z</time>
      </trkpt>
      <trkpt lat="44.70032" lon="6.85383">
        <ele>1855.4</ele>
        <time>2026-03-25T08:45:53Z</time>
      </trkpt>
      <trkpt lat="44.7003" lon="6.85383">
        <ele>1855.5</ele>
        <time>2026-03-25T08:45:54Z</time>
      </trkpt>
      <trkpt lat="44.7003" lon="6.85383">
        <ele>1855.5</ele>
        <time>2026-03-25T08:45:55Z</time>
      </trkpt>
      <trkpt lat="44.70029" lon="6.85383">
        <ele>1855.6</ele>
        <time>2026-03-25T08:45:56Z</time>
      </trkpt>
      <trkpt lat="44.70028" lon="6.85382">
        <ele>1855.6</ele>
        <time>2026-03-25T08:45:58Z</time>
      </trkpt>
      <trkpt lat="44.70027" lon="6.85382">
        <ele>1855.7</ele>
        <time>2026-03-25T08:45:59Z</time>
      </trkpt>
      <trkpt lat="44.70027" lon="6.85382">
        <ele>1855.8</ele>
        <time>2026-03-25T08:46:00Z</time>
      </trkpt>
      <trkpt lat="44.70026" lon="6.85382">
        <ele>1855.8</ele>
        <time>2026-03-25T08:46:01Z</time>
      </trkpt>
      <trkpt lat="44.70025" lon="6.85382">
        <ele>1855.8</ele>
        <time>2026-03-25T08:46:02Z</time>
      </trkpt>
      <trkpt lat="44.70024" lon="6.85381">
        <ele>1855.9</ele>
        <time>2026-03-25T08:46:03Z</time>
      </trkpt>
      <trkpt lat="44.70024" lon="6.85381">
        <ele>1855.9</ele>
        <time>2026-03-25T08:46:04Z</time>
      </trkpt>
      <trkpt lat="44.70024" lon="6.85382">
        <ele>1855.9</ele>
        <time>2026-03-25T08:46:06Z</time>
      </trkpt>
      <trkpt lat="44.70023" lon="6.85382">
        <ele>1856</ele>
        <time>2026-03-25T08:46:08Z</time>
      </trkpt>
      <trkpt lat="44.70022" lon="6.85383">
        <ele>1856</ele>
        <time>2026-03-25T08:46:10Z</time>
      </trkpt>
      <trkpt lat="44.70021" lon="6.85383">
        <ele>1856.1</ele>
        <time>2026-03-25T08:46:11Z</time>
      </trkpt>
      <trkpt lat="44.7002" lon="6.85383">
        <ele>1856.1</ele>
        <time>2026-03-25T08:46:13Z</time>
      </trkpt>
      <trkpt lat="44.7002" lon="6.85383">
        <ele>1856.1</ele>
        <time>2026-03-25T08:46:14Z</time>
      </trkpt>
      <trkpt lat="44.7002" lon="6.85384">
        <ele>1856.2</ele>
        <time>2026-03-25T08:46:15Z</time>
      </trkpt>
      <trkpt lat="44.70019" lon="6.85384">
        <ele>1856.2</ele>
        <time>2026-03-25T08:46:16Z</time>
      </trkpt>
      <trkpt lat="44.70018" lon="6.85385">
        <ele>1856.2</ele>
        <time>2026-03-25T08:46:17Z</time>
      </trkpt>
      <trkpt lat="44.70018" lon="6.85385">
        <ele>1856.2</ele>
        <time>2026-03-25T08:46:18Z</time>
      </trkpt>
      <trkpt lat="44.70017" lon="6.85386">
        <ele>1856.2</ele>
        <time>2026-03-25T08:46:19Z</time>
      </trkpt>
      <trkpt lat="44.70016" lon="6.85387">
        <ele>1856.2</ele>
        <time>2026-03-25T08:46:20Z</time>
      </trkpt>
      <trkpt lat="44.70016" lon="6.85388">
        <ele>1856.2</ele>
        <time>2026-03-25T08:46:22Z</time>
      </trkpt>
      <trkpt lat="44.70015" lon="6.85389">
        <ele>1856.2</ele>
        <time>2026-03-25T08:46:23Z</time>
      </trkpt>
      <trkpt lat="44.70015" lon="6.85389">
        <ele>1856.2</ele>
        <time>2026-03-25T08:46:24Z</time>
      </trkpt>
      <trkpt lat="44.70014" lon="6.85389">
        <ele>1856.2</ele>
        <time>2026-03-25T08:46:25Z</time>
      </trkpt>
      <trkpt lat="44.70014" lon="6.85392">
        <ele>1856.3</ele>
        <time>2026-03-25T08:46:26Z</time>
      </trkpt>
      <trkpt lat="44.70014" lon="6.85393">
        <ele>1856.3</ele>
        <time>2026-03-25T08:46:28Z</time>
      </trkpt>
      <trkpt lat="44.70014" lon="6.85394">
        <ele>1856.4</ele>
        <time>2026-03-25T08:46:29Z</time>
      </trkpt>
      <trkpt lat="44.70014" lon="6.85395">
        <ele>1856.4</ele>
        <time>2026-03-25T08:46:30Z</time>
      </trkpt>
      <trkpt lat="44.70014" lon="6.85396">
        <ele>1856.4</ele>
        <time>2026-03-25T08:46:31Z</time>
      </trkpt>
      <trkpt lat="44.70014" lon="6.85398">
        <ele>1856.5</ele>
        <time>2026-03-25T08:46:32Z</time>
      </trkpt>
      <trkpt lat="44.70014" lon="6.85399">
        <ele>1856.6</ele>
        <time>2026-03-25T08:46:34Z</time>
      </trkpt>
      <trkpt lat="44.70014" lon="6.854">
        <ele>1856.7</ele>
        <time>2026-03-25T08:46:35Z</time>
      </trkpt>
      <trkpt lat="44.70014" lon="6.85401">
        <ele>1856.7</ele>
        <time>2026-03-25T08:46:36Z</time>
      </trkpt>
      <trkpt lat="44.70014" lon="6.85402">
        <ele>1856.8</ele>
        <time>2026-03-25T08:46:37Z</time>
      </trkpt>
      <trkpt lat="44.70014" lon="6.85403">
        <ele>1856.8</ele>
        <time>2026-03-25T08:46:38Z</time>
      </trkpt>
      <trkpt lat="44.70014" lon="6.85404">
        <ele>1856.9</ele>
        <time>2026-03-25T08:46:39Z</time>
      </trkpt>
      <trkpt lat="44.70014" lon="6.85405">
        <ele>1856.9</ele>
        <time>2026-03-25T08:46:40Z</time>
      </trkpt>
      <trkpt lat="44.70014" lon="6.85406">
        <ele>1857</ele>
        <time>2026-03-25T08:46:41Z</time>
      </trkpt>
      <trkpt lat="44.70014" lon="6.85407">
        <ele>1857</ele>
        <time>2026-03-25T08:46:42Z</time>
      </trkpt>
      <trkpt lat="44.70014" lon="6.85408">
        <ele>1857.1</ele>
        <time>2026-03-25T08:46:43Z</time>
      </trkpt>
      <trkpt lat="44.70014" lon="6.85409">
        <ele>1857.1</ele>
        <time>2026-03-25T08:46:44Z</time>
      </trkpt>
      <trkpt lat="44.70015" lon="6.85409">
        <ele>1857.1</ele>
        <time>2026-03-25T08:46:45Z</time>
      </trkpt>
      <trkpt lat="44.70015" lon="6.85411">
        <ele>1857.2</ele>
        <time>2026-03-25T08:46:46Z</time>
      </trkpt>
      <trkpt lat="44.70015" lon="6.85411">
        <ele>1857.3</ele>
        <time>2026-03-25T08:46:48Z</time>
      </trkpt>
      <trkpt lat="44.70015" lon="6.85412">
        <ele>1857.3</ele>
        <time>2026-03-25T08:46:49Z</time>
      </trkpt>
      <trkpt lat="44.70015" lon="6.85413">
        <ele>1857.4</ele>
        <time>2026-03-25T08:46:50Z</time>
      </trkpt>
      <trkpt lat="44.70015" lon="6.85414">
        <ele>1857.4</ele>
        <time>2026-03-25T08:46:51Z</time>
      </trkpt>
      <trkpt lat="44.70015" lon="6.85415">
        <ele>1857.4</ele>
        <time>2026-03-25T08:46:52Z</time>
      </trkpt>
      <trkpt lat="44.70015" lon="6.85416">
        <ele>1857.5</ele>
        <time>2026-03-25T08:46:53Z</time>
      </trkpt>
      <trkpt lat="44.70015" lon="6.85417">
        <ele>1857.5</ele>
        <time>2026-03-25T08:46:54Z</time>
      </trkpt>
      <trkpt lat="44.70015" lon="6.85418">
        <ele>1857.6</ele>
        <time>2026-03-25T08:46:55Z</time>
      </trkpt>
      <trkpt lat="44.70015" lon="6.85418">
        <ele>1857.6</ele>
        <time>2026-03-25T08:46:56Z</time>
      </trkpt>
      <trkpt lat="44.70015" lon="6.85419">
        <ele>1857.7</ele>
        <time>2026-03-25T08:46:57Z</time>
      </trkpt>
      <trkpt lat="44.70015" lon="6.8542">
        <ele>1857.7</ele>
        <time>2026-03-25T08:46:58Z</time>
      </trkpt>
      <trkpt lat="44.70015" lon="6.85421">
        <ele>1857.8</ele>
        <time>2026-03-25T08:46:59Z</time>
      </trkpt>
      <trkpt lat="44.70015" lon="6.85421">
        <ele>1857.8</ele>
        <time>2026-03-25T08:47:00Z</time>
      </trkpt>
      <trkpt lat="44.70015" lon="6.85422">
        <ele>1857.8</ele>
        <time>2026-03-25T08:47:01Z</time>
      </trkpt>
      <trkpt lat="44.70015" lon="6.85423">
        <ele>1857.9</ele>
        <time>2026-03-25T08:47:02Z</time>
      </trkpt>
      <trkpt lat="44.70015" lon="6.85424">
        <ele>1857.9</ele>
        <time>2026-03-25T08:47:03Z</time>
      </trkpt>
      <trkpt lat="44.70015" lon="6.85425">
        <ele>1858</ele>
        <time>2026-03-25T08:47:04Z</time>
      </trkpt>
      <trkpt lat="44.70015" lon="6.85426">
        <ele>1858.1</ele>
        <time>2026-03-25T08:47:05Z</time>
      </trkpt>
      <trkpt lat="44.70015" lon="6.85428">
        <ele>1858.1</ele>
        <time>2026-03-25T08:47:06Z</time>
      </trkpt>
      <trkpt lat="44.70014" lon="6.85429">
        <ele>1858.2</ele>
        <time>2026-03-25T08:47:08Z</time>
      </trkpt>
      <trkpt lat="44.70014" lon="6.8543">
        <ele>1858.2</ele>
        <time>2026-03-25T08:47:09Z</time>
      </trkpt>
      <trkpt lat="44.70014" lon="6.85431">
        <ele>1858.3</ele>
        <time>2026-03-25T08:47:10Z</time>
      </trkpt>
      <trkpt lat="44.70014" lon="6.85432">
        <ele>1858.3</ele>
        <time>2026-03-25T08:47:11Z</time>
      </trkpt>
      <trkpt lat="44.70014" lon="6.85433">
        <ele>1858.4</ele>
        <time>2026-03-25T08:47:12Z</time>
      </trkpt>
      <trkpt lat="44.70014" lon="6.85434">
        <ele>1858.4</ele>
        <time>2026-03-25T08:47:13Z</time>
      </trkpt>
      <trkpt lat="44.70014" lon="6.85437">
        <ele>1858.5</ele>
        <time>2026-03-25T08:47:14Z</time>
      </trkpt>
      <trkpt lat="44.70014" lon="6.85438">
        <ele>1858.6</ele>
        <time>2026-03-25T08:47:15Z</time>
      </trkpt>
      <trkpt lat="44.70014" lon="6.85439">
        <ele>1858.7</ele>
        <time>2026-03-25T08:47:17Z</time>
      </trkpt>
      <trkpt lat="44.70014" lon="6.85441">
        <ele>1858.8</ele>
        <time>2026-03-25T08:47:18Z</time>
      </trkpt>
      <trkpt lat="44.70014" lon="6.85442">
        <ele>1858.8</ele>
        <time>2026-03-25T08:47:19Z</time>
      </trkpt>
      <trkpt lat="44.70013" lon="6.85443">
        <ele>1858.8</ele>
        <time>2026-03-25T08:47:20Z</time>
      </trkpt>
      <trkpt lat="44.70013" lon="6.85444">
        <ele>1858.9</ele>
        <time>2026-03-25T08:47:21Z</time>
      </trkpt>
      <trkpt lat="44.70013" lon="6.85445">
        <ele>1858.9</ele>
        <time>2026-03-25T08:47:22Z</time>
      </trkpt>
      <trkpt lat="44.70013" lon="6.85446">
        <ele>1858.9</ele>
        <time>2026-03-25T08:47:23Z</time>
      </trkpt>
      <trkpt lat="44.70013" lon="6.85447">
        <ele>1859</ele>
        <time>2026-03-25T08:47:24Z</time>
      </trkpt>
      <trkpt lat="44.70013" lon="6.85448">
        <ele>1859</ele>
        <time>2026-03-25T08:47:26Z</time>
      </trkpt>
      <trkpt lat="44.70013" lon="6.85449">
        <ele>1859.1</ele>
        <time>2026-03-25T08:47:27Z</time>
      </trkpt>
      <trkpt lat="44.70013" lon="6.8545">
        <ele>1859.1</ele>
        <time>2026-03-25T08:47:28Z</time>
      </trkpt>
      <trkpt lat="44.70013" lon="6.85451">
        <ele>1859.1</ele>
        <time>2026-03-25T08:47:29Z</time>
      </trkpt>
      <trkpt lat="44.70013" lon="6.85452">
        <ele>1859.2</ele>
        <time>2026-03-25T08:47:30Z</time>
      </trkpt>
      <trkpt lat="44.70013" lon="6.85453">
        <ele>1859.2</ele>
        <time>2026-03-25T08:47:31Z</time>
      </trkpt>
      <trkpt lat="44.70013" lon="6.85454">
        <ele>1859.2</ele>
        <time>2026-03-25T08:47:32Z</time>
      </trkpt>
      <trkpt lat="44.70014" lon="6.85456">
        <ele>1859.3</ele>
        <time>2026-03-25T08:47:33Z</time>
      </trkpt>
      <trkpt lat="44.70014" lon="6.85456">
        <ele>1859.3</ele>
        <time>2026-03-25T08:47:34Z</time>
      </trkpt>
      <trkpt lat="44.70012" lon="6.85457">
        <ele>1859.3</ele>
        <time>2026-03-25T08:47:36Z</time>
      </trkpt>
      <trkpt lat="44.70012" lon="6.85457">
        <ele>1859.4</ele>
        <time>2026-03-25T08:47:37Z</time>
      </trkpt>
      <trkpt lat="44.70012" lon="6.85458">
        <ele>1859.4</ele>
        <time>2026-03-25T08:47:38Z</time>
      </trkpt>
      <trkpt lat="44.70012" lon="6.85459">
        <ele>1859.4</ele>
        <time>2026-03-25T08:47:39Z</time>
      </trkpt>
      <trkpt lat="44.70012" lon="6.8546">
        <ele>1859.4</ele>
        <time>2026-03-25T08:47:40Z</time>
      </trkpt>
      <trkpt lat="44.70012" lon="6.85461">
        <ele>1859.4</ele>
        <time>2026-03-25T08:47:41Z</time>
      </trkpt>
      <trkpt lat="44.70013" lon="6.85463">
        <ele>1859.5</ele>
        <time>2026-03-25T08:47:42Z</time>
      </trkpt>
      <trkpt lat="44.70013" lon="6.85464">
        <ele>1859.5</ele>
        <time>2026-03-25T08:47:44Z</time>
      </trkpt>
      <trkpt lat="44.70013" lon="6.85465">
        <ele>1859.5</ele>
        <time>2026-03-25T08:47:45Z</time>
      </trkpt>
      <trkpt lat="44.70013" lon="6.85466">
        <ele>1859.5</ele>
        <time>2026-03-25T08:47:46Z</time>
      </trkpt>
      <trkpt lat="44.70014" lon="6.85467">
        <ele>1859.5</ele>
        <time>2026-03-25T08:47:47Z</time>
      </trkpt>
      <trkpt lat="44.70014" lon="6.85468">
        <ele>1859.5</ele>
        <time>2026-03-25T08:47:48Z</time>
      </trkpt>
      <trkpt lat="44.70014" lon="6.85469">
        <ele>1859.6</ele>
        <time>2026-03-25T08:47:49Z</time>
      </trkpt>
      <trkpt lat="44.70014" lon="6.8547">
        <ele>1859.6</ele>
        <time>2026-03-25T08:47:50Z</time>
      </trkpt>
      <trkpt lat="44.70013" lon="6.85471">
        <ele>1859.6</ele>
        <time>2026-03-25T08:47:51Z</time>
      </trkpt>
      <trkpt lat="44.70013" lon="6.85471">
        <ele>1859.6</ele>
        <time>2026-03-25T08:47:52Z</time>
      </trkpt>
      <trkpt lat="44.70013" lon="6.85473">
        <ele>1859.6</ele>
        <time>2026-03-25T08:47:53Z</time>
      </trkpt>
      <trkpt lat="44.70013" lon="6.85474">
        <ele>1859.6</ele>
        <time>2026-03-25T08:47:54Z</time>
      </trkpt>
      <trkpt lat="44.70013" lon="6.85475">
        <ele>1859.6</ele>
        <time>2026-03-25T08:47:56Z</time>
      </trkpt>
      <trkpt lat="44.70013" lon="6.85476">
        <ele>1859.6</ele>
        <time>2026-03-25T08:47:57Z</time>
      </trkpt>
      <trkpt lat="44.70013" lon="6.85477">
        <ele>1859.6</ele>
        <time>2026-03-25T08:47:58Z</time>
      </trkpt>
      <trkpt lat="44.70012" lon="6.85478">
        <ele>1859.6</ele>
        <time>2026-03-25T08:47:59Z</time>
      </trkpt>
      <trkpt lat="44.70012" lon="6.85479">
        <ele>1859.6</ele>
        <time>2026-03-25T08:48:00Z</time>
      </trkpt>
      <trkpt lat="44.70012" lon="6.85481">
        <ele>1859.7</ele>
        <time>2026-03-25T08:48:01Z</time>
      </trkpt>
      <trkpt lat="44.70012" lon="6.85482">
        <ele>1859.7</ele>
        <time>2026-03-25T08:48:02Z</time>
      </trkpt>
      <trkpt lat="44.70012" lon="6.85484">
        <ele>1859.7</ele>
        <time>2026-03-25T08:48:03Z</time>
      </trkpt>
      <trkpt lat="44.70012" lon="6.85485">
        <ele>1859.7</ele>
        <time>2026-03-25T08:48:04Z</time>
      </trkpt>
      <trkpt lat="44.70011" lon="6.85487">
        <ele>1859.7</ele>
        <time>2026-03-25T08:48:06Z</time>
      </trkpt>
      <trkpt lat="44.70011" lon="6.85489">
        <ele>1859.7</ele>
        <time>2026-03-25T08:48:08Z</time>
      </trkpt>
      <trkpt lat="44.70011" lon="6.85489">
        <ele>1859.7</ele>
        <time>2026-03-25T08:48:09Z</time>
      </trkpt>
      <trkpt lat="44.70011" lon="6.85491">
        <ele>1859.7</ele>
        <time>2026-03-25T08:48:11Z</time>
      </trkpt>
      <trkpt lat="44.70011" lon="6.85492">
        <ele>1859.7</ele>
        <time>2026-03-25T08:48:12Z</time>
      </trkpt>
      <trkpt lat="44.70011" lon="6.85494">
        <ele>1859.7</ele>
        <time>2026-03-25T08:48:13Z</time>
      </trkpt>
      <trkpt lat="44.70011" lon="6.85494">
        <ele>1859.7</ele>
        <time>2026-03-25T08:48:14Z</time>
      </trkpt>
      <trkpt lat="44.70011" lon="6.85495">
        <ele>1859.7</ele>
        <time>2026-03-25T08:48:15Z</time>
      </trkpt>
      <trkpt lat="44.70011" lon="6.85497">
        <ele>1859.7</ele>
        <time>2026-03-25T08:48:16Z</time>
      </trkpt>
      <trkpt lat="44.70011" lon="6.85498">
        <ele>1859.7</ele>
        <time>2026-03-25T08:48:17Z</time>
      </trkpt>
      <trkpt lat="44.70011" lon="6.85499">
        <ele>1859.7</ele>
        <time>2026-03-25T08:48:18Z</time>
      </trkpt>
      <trkpt lat="44.70011" lon="6.85501">
        <ele>1859.7</ele>
        <time>2026-03-25T08:48:19Z</time>
      </trkpt>
      <trkpt lat="44.70011" lon="6.85502">
        <ele>1859.7</ele>
        <time>2026-03-25T08:48:21Z</time>
      </trkpt>
      <trkpt lat="44.7001" lon="6.85503">
        <ele>1859.7</ele>
        <time>2026-03-25T08:48:22Z</time>
      </trkpt>
      <trkpt lat="44.7001" lon="6.85505">
        <ele>1859.7</ele>
        <time>2026-03-25T08:48:23Z</time>
      </trkpt>
      <trkpt lat="44.70009" lon="6.85506">
        <ele>1859.7</ele>
        <time>2026-03-25T08:48:24Z</time>
      </trkpt>
      <trkpt lat="44.70009" lon="6.85506">
        <ele>1859.7</ele>
        <time>2026-03-25T08:48:25Z</time>
      </trkpt>
      <trkpt lat="44.70009" lon="6.85507">
        <ele>1859.7</ele>
        <time>2026-03-25T08:48:26Z</time>
      </trkpt>
      <trkpt lat="44.70009" lon="6.85508">
        <ele>1859.7</ele>
        <time>2026-03-25T08:48:27Z</time>
      </trkpt>
      <trkpt lat="44.70008" lon="6.85508">
        <ele>1859.7</ele>
        <time>2026-03-25T08:48:28Z</time>
      </trkpt>
      <trkpt lat="44.70008" lon="6.85509">
        <ele>1859.7</ele>
        <time>2026-03-25T08:48:29Z</time>
      </trkpt>
      <trkpt lat="44.70007" lon="6.85509">
        <ele>1859.7</ele>
        <time>2026-03-25T08:48:30Z</time>
      </trkpt>
      <trkpt lat="44.70007" lon="6.8551">
        <ele>1859.8</ele>
        <time>2026-03-25T08:48:31Z</time>
      </trkpt>
      <trkpt lat="44.70006" lon="6.85511">
        <ele>1859.8</ele>
        <time>2026-03-25T08:48:32Z</time>
      </trkpt>
      <trkpt lat="44.70005" lon="6.85511">
        <ele>1859.8</ele>
        <time>2026-03-25T08:48:33Z</time>
      </trkpt>
      <trkpt lat="44.70005" lon="6.85512">
        <ele>1859.8</ele>
        <time>2026-03-25T08:48:34Z</time>
      </trkpt>
      <trkpt lat="44.70004" lon="6.85513">
        <ele>1859.8</ele>
        <time>2026-03-25T08:48:35Z</time>
      </trkpt>
      <trkpt lat="44.70003" lon="6.85513">
        <ele>1859.8</ele>
        <time>2026-03-25T08:48:37Z</time>
      </trkpt>
      <trkpt lat="44.70003" lon="6.85514">
        <ele>1859.8</ele>
        <time>2026-03-25T08:48:38Z</time>
      </trkpt>
      <trkpt lat="44.70002" lon="6.85515">
        <ele>1859.8</ele>
        <time>2026-03-25T08:48:39Z</time>
      </trkpt>
      <trkpt lat="44.70001" lon="6.85516">
        <ele>1859.8</ele>
        <time>2026-03-25T08:48:41Z</time>
      </trkpt>
      <trkpt lat="44.70001" lon="6.85517">
        <ele>1859.8</ele>
        <time>2026-03-25T08:48:42Z</time>
      </trkpt>
      <trkpt lat="44.7" lon="6.85519">
        <ele>1859.9</ele>
        <time>2026-03-25T08:48:43Z</time>
      </trkpt>
      <trkpt lat="44.69999" lon="6.8552">
        <ele>1859.9</ele>
        <time>2026-03-25T08:48:44Z</time>
      </trkpt>
      <trkpt lat="44.69998" lon="6.85521">
        <ele>1859.9</ele>
        <time>2026-03-25T08:48:46Z</time>
      </trkpt>
      <trkpt lat="44.69998" lon="6.85522">
        <ele>1859.9</ele>
        <time>2026-03-25T08:48:47Z</time>
      </trkpt>
      <trkpt lat="44.69997" lon="6.85523">
        <ele>1859.9</ele>
        <time>2026-03-25T08:48:48Z</time>
      </trkpt>
      <trkpt lat="44.69996" lon="6.85524">
        <ele>1859.9</ele>
        <time>2026-03-25T08:48:50Z</time>
      </trkpt>
      <trkpt lat="44.69995" lon="6.85524">
        <ele>1860</ele>
        <time>2026-03-25T08:48:51Z</time>
      </trkpt>
      <trkpt lat="44.69994" lon="6.85525">
        <ele>1860</ele>
        <time>2026-03-25T08:48:52Z</time>
      </trkpt>
      <trkpt lat="44.69994" lon="6.85525">
        <ele>1860</ele>
        <time>2026-03-25T08:48:53Z</time>
      </trkpt>
      <trkpt lat="44.69994" lon="6.85526">
        <ele>1860</ele>
        <time>2026-03-25T08:48:54Z</time>
      </trkpt>
      <trkpt lat="44.69993" lon="6.85526">
        <ele>1860</ele>
        <time>2026-03-25T08:48:55Z</time>
      </trkpt>
      <trkpt lat="44.69992" lon="6.85526">
        <ele>1860</ele>
        <time>2026-03-25T08:48:56Z</time>
      </trkpt>
      <trkpt lat="44.69991" lon="6.85526">
        <ele>1860</ele>
        <time>2026-03-25T08:48:57Z</time>
      </trkpt>
      <trkpt lat="44.6999" lon="6.85527">
        <ele>1860.1</ele>
        <time>2026-03-25T08:48:58Z</time>
      </trkpt>
      <trkpt lat="44.6999" lon="6.85527">
        <ele>1860.1</ele>
        <time>2026-03-25T08:48:59Z</time>
      </trkpt>
      <trkpt lat="44.69989" lon="6.85528">
        <ele>1860.1</ele>
        <time>2026-03-25T08:49:00Z</time>
      </trkpt>
      <trkpt lat="44.69988" lon="6.85529">
        <ele>1860.1</ele>
        <time>2026-03-25T08:49:01Z</time>
      </trkpt>
      <trkpt lat="44.69987" lon="6.85529">
        <ele>1860.2</ele>
        <time>2026-03-25T08:49:02Z</time>
      </trkpt>
      <trkpt lat="44.69986" lon="6.8553">
        <ele>1860.2</ele>
        <time>2026-03-25T08:49:03Z</time>
      </trkpt>
      <trkpt lat="44.69985" lon="6.8553">
        <ele>1860.2</ele>
        <time>2026-03-25T08:49:04Z</time>
      </trkpt>
      <trkpt lat="44.69984" lon="6.85531">
        <ele>1860.3</ele>
        <time>2026-03-25T08:49:06Z</time>
      </trkpt>
      <trkpt lat="44.69984" lon="6.8553">
        <ele>1860.3</ele>
        <time>2026-03-25T08:49:07Z</time>
      </trkpt>
      <trkpt lat="44.69984" lon="6.8553">
        <ele>1860.3</ele>
        <time>2026-03-25T08:49:08Z</time>
      </trkpt>
      <trkpt lat="44.69983" lon="6.8553">
        <ele>1860.8</ele>
        <time>2026-03-25T08:49:09Z</time>
      </trkpt>
      <trkpt lat="44.69983" lon="6.8553">
        <ele>1860.8</ele>
        <time>2026-03-25T08:49:10Z</time>
      </trkpt>
      <trkpt lat="44.69982" lon="6.8553">
        <ele>1860.8</ele>
        <time>2026-03-25T08:49:11Z</time>
      </trkpt>
      <trkpt lat="44.69982" lon="6.8553">
        <ele>1860.8</ele>
        <time>2026-03-25T08:49:13Z</time>
      </trkpt>
      <trkpt lat="44.69981" lon="6.8553">
        <ele>1861.2</ele>
        <time>2026-03-25T08:49:14Z</time>
      </trkpt>
      <trkpt lat="44.69981" lon="6.8553">
        <ele>1861.2</ele>
        <time>2026-03-25T08:49:15Z</time>
      </trkpt>
      <trkpt lat="44.6998" lon="6.85529">
        <ele>1861.7</ele>
        <time>2026-03-25T08:49:16Z</time>
      </trkpt>
      <trkpt lat="44.69979" lon="6.85529">
        <ele>1861.7</ele>
        <time>2026-03-25T08:49:17Z</time>
      </trkpt>
      <trkpt lat="44.69979" lon="6.85529">
        <ele>1861.7</ele>
        <time>2026-03-25T08:49:18Z</time>
      </trkpt>
      <trkpt lat="44.69978" lon="6.85529">
        <ele>1861.7</ele>
        <time>2026-03-25T08:49:20Z</time>
      </trkpt>
      <trkpt lat="44.69978" lon="6.85528">
        <ele>1862.3</ele>
        <time>2026-03-25T08:49:21Z</time>
      </trkpt>
      <trkpt lat="44.69977" lon="6.85528">
        <ele>1862.3</ele>
        <time>2026-03-25T08:49:22Z</time>
      </trkpt>
      <trkpt lat="44.69976" lon="6.85528">
        <ele>1862.3</ele>
        <time>2026-03-25T08:49:23Z</time>
      </trkpt>
      <trkpt lat="44.69976" lon="6.85527">
        <ele>1862.3</ele>
        <time>2026-03-25T08:49:24Z</time>
      </trkpt>
      <trkpt lat="44.69976" lon="6.85527">
        <ele>1862.3</ele>
        <time>2026-03-25T08:49:25Z</time>
      </trkpt>
      <trkpt lat="44.69975" lon="6.85527">
        <ele>1862.3</ele>
        <time>2026-03-25T08:49:26Z</time>
      </trkpt>
      <trkpt lat="44.69975" lon="6.85527">
        <ele>1862.3</ele>
        <time>2026-03-25T08:49:27Z</time>
      </trkpt>
      <trkpt lat="44.69974" lon="6.85526">
        <ele>1862.9</ele>
        <time>2026-03-25T08:49:28Z</time>
      </trkpt>
      <trkpt lat="44.69974" lon="6.85526">
        <ele>1862.9</ele>
        <time>2026-03-25T08:49:29Z</time>
      </trkpt>
      <trkpt lat="44.69974" lon="6.85526">
        <ele>1862.9</ele>
        <time>2026-03-25T08:49:30Z</time>
      </trkpt>
      <trkpt lat="44.69973" lon="6.85525">
        <ele>1863.2</ele>
        <time>2026-03-25T08:49:31Z</time>
      </trkpt>
      <trkpt lat="44.69973" lon="6.85525">
        <ele>1863.2</ele>
        <time>2026-03-25T08:49:32Z</time>
      </trkpt>
      <trkpt lat="44.69973" lon="6.85524">
        <ele>1863.2</ele>
        <time>2026-03-25T08:49:33Z</time>
      </trkpt>
      <trkpt lat="44.69973" lon="6.85523">
        <ele>1863.3</ele>
        <time>2026-03-25T08:49:35Z</time>
      </trkpt>
      <trkpt lat="44.69973" lon="6.85523">
        <ele>1863.3</ele>
        <time>2026-03-25T08:49:36Z</time>
      </trkpt>
      <trkpt lat="44.69973" lon="6.85523">
        <ele>1863.3</ele>
        <time>2026-03-25T08:49:37Z</time>
      </trkpt>
      <trkpt lat="44.69972" lon="6.85522">
        <ele>1863.3</ele>
        <time>2026-03-25T08:49:39Z</time>
      </trkpt>
      <trkpt lat="44.69972" lon="6.85522">
        <ele>1863.3</ele>
        <time>2026-03-25T08:49:40Z</time>
      </trkpt>
      <trkpt lat="44.69972" lon="6.85522">
        <ele>1863.3</ele>
        <time>2026-03-25T08:49:41Z</time>
      </trkpt>
      <trkpt lat="44.69971" lon="6.85521">
        <ele>1864.1</ele>
        <time>2026-03-25T08:49:42Z</time>
      </trkpt>
      <trkpt lat="44.69971" lon="6.85521">
        <ele>1864.1</ele>
        <time>2026-03-25T08:49:43Z</time>
      </trkpt>
      <trkpt lat="44.6997" lon="6.85521">
        <ele>1864.1</ele>
        <time>2026-03-25T08:49:44Z</time>
      </trkpt>
      <trkpt lat="44.6997" lon="6.8552">
        <ele>1864.1</ele>
        <time>2026-03-25T08:49:45Z</time>
      </trkpt>
      <trkpt lat="44.6997" lon="6.8552">
        <ele>1864.1</ele>
        <time>2026-03-25T08:49:46Z</time>
      </trkpt>
      <trkpt lat="44.69969" lon="6.8552">
        <ele>1864.2</ele>
        <time>2026-03-25T08:49:47Z</time>
      </trkpt>
      <trkpt lat="44.69968" lon="6.8552">
        <ele>1864.7</ele>
        <time>2026-03-25T08:49:48Z</time>
      </trkpt>
      <trkpt lat="44.69968" lon="6.85519">
        <ele>1864.7</ele>
        <time>2026-03-25T08:49:49Z</time>
      </trkpt>
      <trkpt lat="44.69968" lon="6.85519">
        <ele>1864.7</ele>
        <time>2026-03-25T08:49:50Z</time>
      </trkpt>
      <trkpt lat="44.69965" lon="6.85519">
        <ele>1865.1</ele>
        <time>2026-03-25T08:49:51Z</time>
      </trkpt>
      <trkpt lat="44.69964" lon="6.85518">
        <ele>1865.1</ele>
        <time>2026-03-25T08:49:52Z</time>
      </trkpt>
      <trkpt lat="44.69964" lon="6.85518">
        <ele>1865.2</ele>
        <time>2026-03-25T08:49:53Z</time>
      </trkpt>
      <trkpt lat="44.69963" lon="6.85518">
        <ele>1865.2</ele>
        <time>2026-03-25T08:49:54Z</time>
      </trkpt>
      <trkpt lat="44.69962" lon="6.85517">
        <ele>1865.6</ele>
        <time>2026-03-25T08:49:56Z</time>
      </trkpt>
      <trkpt lat="44.69962" lon="6.85517">
        <ele>1865.6</ele>
        <time>2026-03-25T08:49:57Z</time>
      </trkpt>
      <trkpt lat="44.69961" lon="6.85517">
        <ele>1865.6</ele>
        <time>2026-03-25T08:49:58Z</time>
      </trkpt>
      <trkpt lat="44.69961" lon="6.85517">
        <ele>1865.6</ele>
        <time>2026-03-25T08:49:59Z</time>
      </trkpt>
      <trkpt lat="44.69959" lon="6.85517">
        <ele>1866</ele>
        <time>2026-03-25T08:50:00Z</time>
      </trkpt>
      <trkpt lat="44.69959" lon="6.85517">
        <ele>1866.4</ele>
        <time>2026-03-25T08:50:02Z</time>
      </trkpt>
      <trkpt lat="44.69958" lon="6.85516">
        <ele>1866.4</ele>
        <time>2026-03-25T08:50:03Z</time>
      </trkpt>
      <trkpt lat="44.69958" lon="6.85516">
        <ele>1866.4</ele>
        <time>2026-03-25T08:50:04Z</time>
      </trkpt>
      <trkpt lat="44.69957" lon="6.85516">
        <ele>1866.4</ele>
        <time>2026-03-25T08:50:05Z</time>
      </trkpt>
      <trkpt lat="44.69957" lon="6.85515">
        <ele>1866.4</ele>
        <time>2026-03-25T08:50:06Z</time>
      </trkpt>
      <trkpt lat="44.69956" lon="6.85514">
        <ele>1866.9</ele>
        <time>2026-03-25T08:50:07Z</time>
      </trkpt>
      <trkpt lat="44.69955" lon="6.85514">
        <ele>1866.9</ele>
        <time>2026-03-25T08:50:09Z</time>
      </trkpt>
      <trkpt lat="44.69955" lon="6.85513">
        <ele>1866.9</ele>
        <time>2026-03-25T08:50:10Z</time>
      </trkpt>
      <trkpt lat="44.69954" lon="6.85513">
        <ele>1866.9</ele>
        <time>2026-03-25T08:50:11Z</time>
      </trkpt>
      <trkpt lat="44.69953" lon="6.85512">
        <ele>1867.2</ele>
        <time>2026-03-25T08:50:12Z</time>
      </trkpt>
      <trkpt lat="44.69953" lon="6.85512">
        <ele>1867.7</ele>
        <time>2026-03-25T08:50:13Z</time>
      </trkpt>
      <trkpt lat="44.69952" lon="6.85511">
        <ele>1867.7</ele>
        <time>2026-03-25T08:50:14Z</time>
      </trkpt>
      <trkpt lat="44.69951" lon="6.85511">
        <ele>1867.7</ele>
        <time>2026-03-25T08:50:15Z</time>
      </trkpt>
      <trkpt lat="44.69951" lon="6.8551">
        <ele>1867.7</ele>
        <time>2026-03-25T08:50:17Z</time>
      </trkpt>
      <trkpt lat="44.6995" lon="6.85509">
        <ele>1867.7</ele>
        <time>2026-03-25T08:50:18Z</time>
      </trkpt>
      <trkpt lat="44.6995" lon="6.85509">
        <ele>1868.2</ele>
        <time>2026-03-25T08:50:19Z</time>
      </trkpt>
      <trkpt lat="44.69949" lon="6.85509">
        <ele>1868.2</ele>
        <time>2026-03-25T08:50:20Z</time>
      </trkpt>
      <trkpt lat="44.69949" lon="6.85509">
        <ele>1868.2</ele>
        <time>2026-03-25T08:50:21Z</time>
      </trkpt>
      <trkpt lat="44.69948" lon="6.85509">
        <ele>1868.2</ele>
        <time>2026-03-25T08:50:22Z</time>
      </trkpt>
      <trkpt lat="44.69948" lon="6.85508">
        <ele>1868.2</ele>
        <time>2026-03-25T08:50:23Z</time>
      </trkpt>
      <trkpt lat="44.69947" lon="6.85508">
        <ele>1868.6</ele>
        <time>2026-03-25T08:50:24Z</time>
      </trkpt>
      <trkpt lat="44.69947" lon="6.85508">
        <ele>1869.2</ele>
        <time>2026-03-25T08:50:25Z</time>
      </trkpt>
      <trkpt lat="44.69946" lon="6.85507">
        <ele>1869.2</ele>
        <time>2026-03-25T08:50:26Z</time>
      </trkpt>
      <trkpt lat="44.69946" lon="6.85507">
        <ele>1869.2</ele>
        <time>2026-03-25T08:50:27Z</time>
      </trkpt>
      <trkpt lat="44.69945" lon="6.85506">
        <ele>1869.2</ele>
        <time>2026-03-25T08:50:28Z</time>
      </trkpt>
      <trkpt lat="44.69944" lon="6.85505">
        <ele>1869.2</ele>
        <time>2026-03-25T08:50:29Z</time>
      </trkpt>
      <trkpt lat="44.69944" lon="6.85505">
        <ele>1869.8</ele>
        <time>2026-03-25T08:50:30Z</time>
      </trkpt>
      <trkpt lat="44.69943" lon="6.85504">
        <ele>1869.8</ele>
        <time>2026-03-25T08:50:31Z</time>
      </trkpt>
      <trkpt lat="44.69943" lon="6.85504">
        <ele>1870.2</ele>
        <time>2026-03-25T08:50:32Z</time>
      </trkpt>
      <trkpt lat="44.69942" lon="6.85503">
        <ele>1870.2</ele>
        <time>2026-03-25T08:50:33Z</time>
      </trkpt>
      <trkpt lat="44.69941" lon="6.85503">
        <ele>1870.2</ele>
        <time>2026-03-25T08:50:34Z</time>
      </trkpt>
      <trkpt lat="44.69941" lon="6.85503">
        <ele>1870.9</ele>
        <time>2026-03-25T08:50:35Z</time>
      </trkpt>
      <trkpt lat="44.6994" lon="6.85502">
        <ele>1870.9</ele>
        <time>2026-03-25T08:50:36Z</time>
      </trkpt>
      <trkpt lat="44.69939" lon="6.85502">
        <ele>1870.9</ele>
        <time>2026-03-25T08:50:37Z</time>
      </trkpt>
      <trkpt lat="44.69938" lon="6.85502">
        <ele>1870.9</ele>
        <time>2026-03-25T08:50:38Z</time>
      </trkpt>
      <trkpt lat="44.69937" lon="6.85501">
        <ele>1871.5</ele>
        <time>2026-03-25T08:50:39Z</time>
      </trkpt>
      <trkpt lat="44.69937" lon="6.85501">
        <ele>1871.5</ele>
        <time>2026-03-25T08:50:40Z</time>
      </trkpt>
      <trkpt lat="44.69936" lon="6.85501">
        <ele>1871.5</ele>
        <time>2026-03-25T08:50:41Z</time>
      </trkpt>
      <trkpt lat="44.69935" lon="6.85501">
        <ele>1871.5</ele>
        <time>2026-03-25T08:50:42Z</time>
      </trkpt>
      <trkpt lat="44.69933" lon="6.855">
        <ele>1872.1</ele>
        <time>2026-03-25T08:50:43Z</time>
      </trkpt>
      <trkpt lat="44.69932" lon="6.85499">
        <ele>1872.6</ele>
        <time>2026-03-25T08:50:44Z</time>
      </trkpt>
      <trkpt lat="44.69931" lon="6.85499">
        <ele>1873.2</ele>
        <time>2026-03-25T08:50:46Z</time>
      </trkpt>
      <trkpt lat="44.69929" lon="6.85498">
        <ele>1873.2</ele>
        <time>2026-03-25T08:50:47Z</time>
      </trkpt>
      <trkpt lat="44.69928" lon="6.85497">
        <ele>1873.8</ele>
        <time>2026-03-25T08:50:48Z</time>
      </trkpt>
      <trkpt lat="44.69927" lon="6.85497">
        <ele>1873.8</ele>
        <time>2026-03-25T08:50:49Z</time>
      </trkpt>
      <trkpt lat="44.69927" lon="6.85497">
        <ele>1873.8</ele>
        <time>2026-03-25T08:50:50Z</time>
      </trkpt>
      <trkpt lat="44.69926" lon="6.85497">
        <ele>1873.8</ele>
        <time>2026-03-25T08:50:51Z</time>
      </trkpt>
      <trkpt lat="44.69925" lon="6.85497">
        <ele>1874.5</ele>
        <time>2026-03-25T08:50:52Z</time>
      </trkpt>
      <trkpt lat="44.69924" lon="6.85496">
        <ele>1874.5</ele>
        <time>2026-03-25T08:50:53Z</time>
      </trkpt>
      <trkpt lat="44.69923" lon="6.85496">
        <ele>1874.5</ele>
        <time>2026-03-25T08:50:54Z</time>
      </trkpt>
      <trkpt lat="44.69922" lon="6.85496">
        <ele>1875.2</ele>
        <time>2026-03-25T08:50:55Z</time>
      </trkpt>
      <trkpt lat="44.69921" lon="6.85496">
        <ele>1875.2</ele>
        <time>2026-03-25T08:50:56Z</time>
      </trkpt>
      <trkpt lat="44.6992" lon="6.85496">
        <ele>1875.2</ele>
        <time>2026-03-25T08:50:57Z</time>
      </trkpt>
      <trkpt lat="44.6992" lon="6.85496">
        <ele>1876</ele>
        <time>2026-03-25T08:50:58Z</time>
      </trkpt>
      <trkpt lat="44.69919" lon="6.85496">
        <ele>1876</ele>
        <time>2026-03-25T08:50:59Z</time>
      </trkpt>
      <trkpt lat="44.69918" lon="6.85496">
        <ele>1876</ele>
        <time>2026-03-25T08:51:00Z</time>
      </trkpt>
      <trkpt lat="44.69917" lon="6.85496">
        <ele>1876</ele>
        <time>2026-03-25T08:51:01Z</time>
      </trkpt>
      <trkpt lat="44.69917" lon="6.85496">
        <ele>1876</ele>
        <time>2026-03-25T08:51:02Z</time>
      </trkpt>
      <trkpt lat="44.69916" lon="6.85496">
        <ele>1876.8</ele>
        <time>2026-03-25T08:51:03Z</time>
      </trkpt>
      <trkpt lat="44.69915" lon="6.85496">
        <ele>1876.8</ele>
        <time>2026-03-25T08:51:04Z</time>
      </trkpt>
      <trkpt lat="44.69914" lon="6.85495">
        <ele>1877.3</ele>
        <time>2026-03-25T08:51:05Z</time>
      </trkpt>
      <trkpt lat="44.69914" lon="6.85493">
        <ele>1877.3</ele>
        <time>2026-03-25T08:51:07Z</time>
      </trkpt>
      <trkpt lat="44.69913" lon="6.85492">
        <ele>1878</ele>
        <time>2026-03-25T08:51:08Z</time>
      </trkpt>
      <trkpt lat="44.69913" lon="6.85491">
        <ele>1878.5</ele>
        <time>2026-03-25T08:51:10Z</time>
      </trkpt>
      <trkpt lat="44.69912" lon="6.8549">
        <ele>1878.5</ele>
        <time>2026-03-25T08:51:11Z</time>
      </trkpt>
      <trkpt lat="44.69912" lon="6.85489">
        <ele>1878.5</ele>
        <time>2026-03-25T08:51:12Z</time>
      </trkpt>
      <trkpt lat="44.69912" lon="6.85488">
        <ele>1878.5</ele>
        <time>2026-03-25T08:51:13Z</time>
      </trkpt>
      <trkpt lat="44.69911" lon="6.85487">
        <ele>1879</ele>
        <time>2026-03-25T08:51:14Z</time>
      </trkpt>
      <trkpt lat="44.69911" lon="6.85486">
        <ele>1879</ele>
        <time>2026-03-25T08:51:15Z</time>
      </trkpt>
      <trkpt lat="44.69911" lon="6.85485">
        <ele>1879</ele>
        <time>2026-03-25T08:51:16Z</time>
      </trkpt>
      <trkpt lat="44.6991" lon="6.85485">
        <ele>1879.7</ele>
        <time>2026-03-25T08:51:17Z</time>
      </trkpt>
      <trkpt lat="44.6991" lon="6.85484">
        <ele>1879.7</ele>
        <time>2026-03-25T08:51:18Z</time>
      </trkpt>
      <trkpt lat="44.69909" lon="6.85483">
        <ele>1879.7</ele>
        <time>2026-03-25T08:51:19Z</time>
      </trkpt>
      <trkpt lat="44.69908" lon="6.85482">
        <ele>1880.1</ele>
        <time>2026-03-25T08:51:20Z</time>
      </trkpt>
      <trkpt lat="44.69908" lon="6.85482">
        <ele>1880.1</ele>
        <time>2026-03-25T08:51:21Z</time>
      </trkpt>
      <trkpt lat="44.69907" lon="6.85481">
        <ele>1880.8</ele>
        <time>2026-03-25T08:51:22Z</time>
      </trkpt>
      <trkpt lat="44.69907" lon="6.85481">
        <ele>1880.8</ele>
        <time>2026-03-25T08:51:23Z</time>
      </trkpt>
      <trkpt lat="44.69907" lon="6.85481">
        <ele>1880.8</ele>
        <time>2026-03-25T08:51:24Z</time>
      </trkpt>
      <trkpt lat="44.69907" lon="6.85481">
        <ele>1880.8</ele>
        <time>2026-03-25T08:51:25Z</time>
      </trkpt>
      <trkpt lat="44.69906" lon="6.8548">
        <ele>1880.8</ele>
        <time>2026-03-25T08:51:26Z</time>
      </trkpt>
      <trkpt lat="44.69906" lon="6.8548">
        <ele>1880.8</ele>
        <time>2026-03-25T08:51:27Z</time>
      </trkpt>
      <trkpt lat="44.69906" lon="6.85479">
        <ele>1880.8</ele>
        <time>2026-03-25T08:51:29Z</time>
      </trkpt>
      <trkpt lat="44.69906" lon="6.85479">
        <ele>1880.8</ele>
        <time>2026-03-25T08:51:30Z</time>
      </trkpt>
      <trkpt lat="44.69905" lon="6.85479">
        <ele>1880.8</ele>
        <time>2026-03-25T08:51:31Z</time>
      </trkpt>
      <trkpt lat="44.69905" lon="6.85479">
        <ele>1880.8</ele>
        <time>2026-03-25T08:51:32Z</time>
      </trkpt>
      <trkpt lat="44.69905" lon="6.85479">
        <ele>1880.8</ele>
        <time>2026-03-25T08:51:33Z</time>
      </trkpt>
      <trkpt lat="44.69905" lon="6.85478">
        <ele>1881.3</ele>
        <time>2026-03-25T08:51:34Z</time>
      </trkpt>
      <trkpt lat="44.69905" lon="6.85478">
        <ele>1881.3</ele>
        <time>2026-03-25T08:51:35Z</time>
      </trkpt>
      <trkpt lat="44.69904" lon="6.85478">
        <ele>1881.3</ele>
        <time>2026-03-25T08:51:36Z</time>
      </trkpt>
      <trkpt lat="44.69904" lon="6.85478">
        <ele>1881.9</ele>
        <time>2026-03-25T08:51:37Z</time>
      </trkpt>
      <trkpt lat="44.69904" lon="6.85477">
        <ele>1881.9</ele>
        <time>2026-03-25T08:51:38Z</time>
      </trkpt>
      <trkpt lat="44.69904" lon="6.85477">
        <ele>1881.9</ele>
        <time>2026-03-25T08:51:39Z</time>
      </trkpt>
      <trkpt lat="44.69904" lon="6.85477">
        <ele>1881.9</ele>
        <time>2026-03-25T08:51:40Z</time>
      </trkpt>
      <trkpt lat="44.69904" lon="6.85477">
        <ele>1881.9</ele>
        <time>2026-03-25T08:51:41Z</time>
      </trkpt>
      <trkpt lat="44.69904" lon="6.85477">
        <ele>1881.9</ele>
        <time>2026-03-25T08:51:42Z</time>
      </trkpt>
      <trkpt lat="44.69904" lon="6.85477">
        <ele>1881.9</ele>
        <time>2026-03-25T08:51:43Z</time>
      </trkpt>
      <trkpt lat="44.69903" lon="6.85477">
        <ele>1881.9</ele>
        <time>2026-03-25T08:51:44Z</time>
      </trkpt>
      <trkpt lat="44.69903" lon="6.85477">
        <ele>1881.9</ele>
        <time>2026-03-25T08:51:45Z</time>
      </trkpt>
      <trkpt lat="44.69902" lon="6.85476">
        <ele>1881.9</ele>
        <time>2026-03-25T08:51:46Z</time>
      </trkpt>
      <trkpt lat="44.69902" lon="6.85476">
        <ele>1881.9</ele>
        <time>2026-03-25T08:51:47Z</time>
      </trkpt>
      <trkpt lat="44.69901" lon="6.85476">
        <ele>1882.5</ele>
        <time>2026-03-25T08:51:48Z</time>
      </trkpt>
      <trkpt lat="44.69901" lon="6.85476">
        <ele>1882.5</ele>
        <time>2026-03-25T08:51:49Z</time>
      </trkpt>
      <trkpt lat="44.69901" lon="6.85476">
        <ele>1882.5</ele>
        <time>2026-03-25T08:51:50Z</time>
      </trkpt>
      <trkpt lat="44.69901" lon="6.85476">
        <ele>1882.5</ele>
        <time>2026-03-25T08:51:51Z</time>
      </trkpt>
      <trkpt lat="44.699" lon="6.85476">
        <ele>1882.5</ele>
        <time>2026-03-25T08:51:52Z</time>
      </trkpt>
      <trkpt lat="44.699" lon="6.85475">
        <ele>1882.5</ele>
        <time>2026-03-25T08:51:53Z</time>
      </trkpt>
      <trkpt lat="44.69899" lon="6.85475">
        <ele>1882.5</ele>
        <time>2026-03-25T08:51:54Z</time>
      </trkpt>
      <trkpt lat="44.69899" lon="6.85475">
        <ele>1882.5</ele>
        <time>2026-03-25T08:51:55Z</time>
      </trkpt>
      <trkpt lat="44.69898" lon="6.85475">
        <ele>1883.1</ele>
        <time>2026-03-25T08:51:56Z</time>
      </trkpt>
      <trkpt lat="44.69897" lon="6.85475">
        <ele>1883.1</ele>
        <time>2026-03-25T08:51:57Z</time>
      </trkpt>
      <trkpt lat="44.69896" lon="6.85475">
        <ele>1883.1</ele>
        <time>2026-03-25T08:51:58Z</time>
      </trkpt>
      <trkpt lat="44.69895" lon="6.85474">
        <ele>1883.2</ele>
        <time>2026-03-25T08:51:59Z</time>
      </trkpt>
      <trkpt lat="44.69895" lon="6.85474">
        <ele>1884.1</ele>
        <time>2026-03-25T08:52:00Z</time>
      </trkpt>
      <trkpt lat="44.69894" lon="6.85474">
        <ele>1884.1</ele>
        <time>2026-03-25T08:52:02Z</time>
      </trkpt>
      <trkpt lat="44.69893" lon="6.85473">
        <ele>1884.1</ele>
        <time>2026-03-25T08:52:03Z</time>
      </trkpt>
      <trkpt lat="44.69893" lon="6.85473">
        <ele>1884.1</ele>
        <time>2026-03-25T08:52:04Z</time>
      </trkpt>
      <trkpt lat="44.69892" lon="6.85473">
        <ele>1884.7</ele>
        <time>2026-03-25T08:52:05Z</time>
      </trkpt>
      <trkpt lat="44.69892" lon="6.85473">
        <ele>1884.7</ele>
        <time>2026-03-25T08:52:06Z</time>
      </trkpt>
      <trkpt lat="44.69891" lon="6.85473">
        <ele>1884.7</ele>
        <time>2026-03-25T08:52:07Z</time>
      </trkpt>
      <trkpt lat="44.6989" lon="6.85473">
        <ele>1884.7</ele>
        <time>2026-03-25T08:52:08Z</time>
      </trkpt>
      <trkpt lat="44.6989" lon="6.85473">
        <ele>1884.7</ele>
        <time>2026-03-25T08:52:09Z</time>
      </trkpt>
      <trkpt lat="44.69889" lon="6.85473">
        <ele>1885.3</ele>
        <time>2026-03-25T08:52:10Z</time>
      </trkpt>
      <trkpt lat="44.69888" lon="6.85473">
        <ele>1885.3</ele>
        <time>2026-03-25T08:52:11Z</time>
      </trkpt>
      <trkpt lat="44.69888" lon="6.85473">
        <ele>1885.3</ele>
        <time>2026-03-25T08:52:12Z</time>
      </trkpt>
      <trkpt lat="44.69887" lon="6.85473">
        <ele>1885.3</ele>
        <time>2026-03-25T08:52:14Z</time>
      </trkpt>
      <trkpt lat="44.69887" lon="6.85473">
        <ele>1885.3</ele>
        <time>2026-03-25T08:52:15Z</time>
      </trkpt>
      <trkpt lat="44.69886" lon="6.85473">
        <ele>1885.8</ele>
        <time>2026-03-25T08:52:16Z</time>
      </trkpt>
      <trkpt lat="44.69886" lon="6.85473">
        <ele>1885.8</ele>
        <time>2026-03-25T08:52:17Z</time>
      </trkpt>
      <trkpt lat="44.69885" lon="6.85473">
        <ele>1885.8</ele>
        <time>2026-03-25T08:52:18Z</time>
      </trkpt>
      <trkpt lat="44.69885" lon="6.85473">
        <ele>1885.8</ele>
        <time>2026-03-25T08:52:19Z</time>
      </trkpt>
      <trkpt lat="44.69884" lon="6.85473">
        <ele>1885.8</ele>
        <time>2026-03-25T08:52:20Z</time>
      </trkpt>
      <trkpt lat="44.69884" lon="6.85473">
        <ele>1885.8</ele>
        <time>2026-03-25T08:52:21Z</time>
      </trkpt>
      <trkpt lat="44.69883" lon="6.85473">
        <ele>1885.8</ele>
        <time>2026-03-25T08:52:22Z</time>
      </trkpt>
      <trkpt lat="44.69883" lon="6.85473">
        <ele>1886.2</ele>
        <time>2026-03-25T08:52:23Z</time>
      </trkpt>
      <trkpt lat="44.69882" lon="6.85472">
        <ele>1886.2</ele>
        <time>2026-03-25T08:52:24Z</time>
      </trkpt>
      <trkpt lat="44.69882" lon="6.85472">
        <ele>1886.2</ele>
        <time>2026-03-25T08:52:25Z</time>
      </trkpt>
      <trkpt lat="44.69882" lon="6.85471">
        <ele>1886.3</ele>
        <time>2026-03-25T08:52:26Z</time>
      </trkpt>
      <trkpt lat="44.69881" lon="6.85471">
        <ele>1886.3</ele>
        <time>2026-03-25T08:52:27Z</time>
      </trkpt>
      <trkpt lat="44.69881" lon="6.85471">
        <ele>1886.3</ele>
        <time>2026-03-25T08:52:28Z</time>
      </trkpt>
      <trkpt lat="44.6988" lon="6.8547">
        <ele>1886.3</ele>
        <time>2026-03-25T08:52:29Z</time>
      </trkpt>
      <trkpt lat="44.6988" lon="6.8547">
        <ele>1886.3</ele>
        <time>2026-03-25T08:52:30Z</time>
      </trkpt>
      <trkpt lat="44.69879" lon="6.8547">
        <ele>1886.7</ele>
        <time>2026-03-25T08:52:31Z</time>
      </trkpt>
      <trkpt lat="44.69879" lon="6.8547">
        <ele>1886.9</ele>
        <time>2026-03-25T08:52:32Z</time>
      </trkpt>
      <trkpt lat="44.69879" lon="6.85469">
        <ele>1886.9</ele>
        <time>2026-03-25T08:52:33Z</time>
      </trkpt>
      <trkpt lat="44.69878" lon="6.85469">
        <ele>1886.9</ele>
        <time>2026-03-25T08:52:34Z</time>
      </trkpt>
      <trkpt lat="44.69878" lon="6.85469">
        <ele>1887</ele>
        <time>2026-03-25T08:52:35Z</time>
      </trkpt>
      <trkpt lat="44.69877" lon="6.85469">
        <ele>1887</ele>
        <time>2026-03-25T08:52:36Z</time>
      </trkpt>
      <trkpt lat="44.69877" lon="6.85468">
        <ele>1887</ele>
        <time>2026-03-25T08:52:37Z</time>
      </trkpt>
      <trkpt lat="44.69877" lon="6.85468">
        <ele>1887.3</ele>
        <time>2026-03-25T08:52:38Z</time>
      </trkpt>
      <trkpt lat="44.69876" lon="6.85468">
        <ele>1887.3</ele>
        <time>2026-03-25T08:52:39Z</time>
      </trkpt>
      <trkpt lat="44.69876" lon="6.85468">
        <ele>1887.3</ele>
        <time>2026-03-25T08:52:40Z</time>
      </trkpt>
      <trkpt lat="44.69876" lon="6.85468">
        <ele>1887.3</ele>
        <time>2026-03-25T08:52:41Z</time>
      </trkpt>
      <trkpt lat="44.69875" lon="6.85468">
        <ele>1887.4</ele>
        <time>2026-03-25T08:52:42Z</time>
      </trkpt>
      <trkpt lat="44.69875" lon="6.85467">
        <ele>1887.4</ele>
        <time>2026-03-25T08:52:43Z</time>
      </trkpt>
      <trkpt lat="44.69874" lon="6.85467">
        <ele>1887.4</ele>
        <time>2026-03-25T08:52:44Z</time>
      </trkpt>
      <trkpt lat="44.69873" lon="6.85467">
        <ele>1887.7</ele>
        <time>2026-03-25T08:52:45Z</time>
      </trkpt>
      <trkpt lat="44.69873" lon="6.85467">
        <ele>1887.7</ele>
        <time>2026-03-25T08:52:46Z</time>
      </trkpt>
      <trkpt lat="44.69872" lon="6.85467">
        <ele>1887.7</ele>
        <time>2026-03-25T08:52:47Z</time>
      </trkpt>
      <trkpt lat="44.69872" lon="6.85467">
        <ele>1887.7</ele>
        <time>2026-03-25T08:52:48Z</time>
      </trkpt>
      <trkpt lat="44.69871" lon="6.85466">
        <ele>1888.1</ele>
        <time>2026-03-25T08:52:49Z</time>
      </trkpt>
      <trkpt lat="44.6987" lon="6.85466">
        <ele>1888.1</ele>
        <time>2026-03-25T08:52:50Z</time>
      </trkpt>
      <trkpt lat="44.69869" lon="6.85466">
        <ele>1888.1</ele>
        <time>2026-03-25T08:52:51Z</time>
      </trkpt>
      <trkpt lat="44.69868" lon="6.85465">
        <ele>1888.1</ele>
        <time>2026-03-25T08:52:52Z</time>
      </trkpt>
      <trkpt lat="44.69867" lon="6.85465">
        <ele>1888.7</ele>
        <time>2026-03-25T08:52:54Z</time>
      </trkpt>
      <trkpt lat="44.69867" lon="6.85465">
        <ele>1888.7</ele>
        <time>2026-03-25T08:52:55Z</time>
      </trkpt>
      <trkpt lat="44.69867" lon="6.85465">
        <ele>1888.8</ele>
        <time>2026-03-25T08:52:56Z</time>
      </trkpt>
      <trkpt lat="44.69866" lon="6.85465">
        <ele>1888.8</ele>
        <time>2026-03-25T08:52:57Z</time>
      </trkpt>
      <trkpt lat="44.69866" lon="6.85464">
        <ele>1888.8</ele>
        <time>2026-03-25T08:52:58Z</time>
      </trkpt>
      <trkpt lat="44.69865" lon="6.85464">
        <ele>1888.8</ele>
        <time>2026-03-25T08:52:59Z</time>
      </trkpt>
      <trkpt lat="44.69864" lon="6.85464">
        <ele>1889.1</ele>
        <time>2026-03-25T08:53:00Z</time>
      </trkpt>
      <trkpt lat="44.69863" lon="6.85463">
        <ele>1889.1</ele>
        <time>2026-03-25T08:53:02Z</time>
      </trkpt>
      <trkpt lat="44.69862" lon="6.85462">
        <ele>1889.1</ele>
        <time>2026-03-25T08:53:04Z</time>
      </trkpt>
      <trkpt lat="44.69861" lon="6.85462">
        <ele>1889.4</ele>
        <time>2026-03-25T08:53:05Z</time>
      </trkpt>
      <trkpt lat="44.6986" lon="6.85461">
        <ele>1889.5</ele>
        <time>2026-03-25T08:53:06Z</time>
      </trkpt>
      <trkpt lat="44.69859" lon="6.85461">
        <ele>1889.8</ele>
        <time>2026-03-25T08:53:07Z</time>
      </trkpt>
      <trkpt lat="44.69859" lon="6.85461">
        <ele>1890.1</ele>
        <time>2026-03-25T08:53:08Z</time>
      </trkpt>
      <trkpt lat="44.69858" lon="6.85461">
        <ele>1890.1</ele>
        <time>2026-03-25T08:53:09Z</time>
      </trkpt>
      <trkpt lat="44.69857" lon="6.8546">
        <ele>1890.1</ele>
        <time>2026-03-25T08:53:10Z</time>
      </trkpt>
      <trkpt lat="44.69856" lon="6.8546">
        <ele>1890.1</ele>
        <time>2026-03-25T08:53:11Z</time>
      </trkpt>
      <trkpt lat="44.69856" lon="6.8546">
        <ele>1890.1</ele>
        <time>2026-03-25T08:53:12Z</time>
      </trkpt>
      <trkpt lat="44.69855" lon="6.8546">
        <ele>1890.4</ele>
        <time>2026-03-25T08:53:13Z</time>
      </trkpt>
      <trkpt lat="44.69854" lon="6.85459">
        <ele>1890.4</ele>
        <time>2026-03-25T08:53:14Z</time>
      </trkpt>
      <trkpt lat="44.69853" lon="6.85459">
        <ele>1890.4</ele>
        <time>2026-03-25T08:53:15Z</time>
      </trkpt>
      <trkpt lat="44.69852" lon="6.85459">
        <ele>1890.6</ele>
        <time>2026-03-25T08:53:16Z</time>
      </trkpt>
      <trkpt lat="44.69852" lon="6.85459">
        <ele>1890.6</ele>
        <time>2026-03-25T08:53:17Z</time>
      </trkpt>
      <trkpt lat="44.69852" lon="6.85458">
        <ele>1890.7</ele>
        <time>2026-03-25T08:53:18Z</time>
      </trkpt>
      <trkpt lat="44.69851" lon="6.85458">
        <ele>1890.7</ele>
        <time>2026-03-25T08:53:19Z</time>
      </trkpt>
      <trkpt lat="44.6985" lon="6.85458">
        <ele>1890.7</ele>
        <time>2026-03-25T08:53:20Z</time>
      </trkpt>
      <trkpt lat="44.6985" lon="6.85457">
        <ele>1890.7</ele>
        <time>2026-03-25T08:53:21Z</time>
      </trkpt>
      <trkpt lat="44.69849" lon="6.85457">
        <ele>1890.9</ele>
        <time>2026-03-25T08:53:23Z</time>
      </trkpt>
      <trkpt lat="44.69849" lon="6.85457">
        <ele>1891.3</ele>
        <time>2026-03-25T08:53:24Z</time>
      </trkpt>
      <trkpt lat="44.69848" lon="6.85456">
        <ele>1891.3</ele>
        <time>2026-03-25T08:53:25Z</time>
      </trkpt>
      <trkpt lat="44.69848" lon="6.85456">
        <ele>1891.3</ele>
        <time>2026-03-25T08:53:26Z</time>
      </trkpt>
      <trkpt lat="44.69847" lon="6.85456">
        <ele>1891.3</ele>
        <time>2026-03-25T08:53:27Z</time>
      </trkpt>
      <trkpt lat="44.69847" lon="6.85456">
        <ele>1891.3</ele>
        <time>2026-03-25T08:53:28Z</time>
      </trkpt>
      <trkpt lat="44.69846" lon="6.85456">
        <ele>1891.5</ele>
        <time>2026-03-25T08:53:29Z</time>
      </trkpt>
      <trkpt lat="44.69846" lon="6.85455">
        <ele>1891.5</ele>
        <time>2026-03-25T08:53:30Z</time>
      </trkpt>
      <trkpt lat="44.69845" lon="6.85455">
        <ele>1891.5</ele>
        <time>2026-03-25T08:53:31Z</time>
      </trkpt>
      <trkpt lat="44.69844" lon="6.85455">
        <ele>1891.5</ele>
        <time>2026-03-25T08:53:33Z</time>
      </trkpt>
      <trkpt lat="44.69844" lon="6.85455">
        <ele>1891.5</ele>
        <time>2026-03-25T08:53:34Z</time>
      </trkpt>
      <trkpt lat="44.69843" lon="6.85455">
        <ele>1891.6</ele>
        <time>2026-03-25T08:53:35Z</time>
      </trkpt>
      <trkpt lat="44.69842" lon="6.85455">
        <ele>1891.6</ele>
        <time>2026-03-25T08:53:36Z</time>
      </trkpt>
      <trkpt lat="44.69841" lon="6.85455">
        <ele>1891.6</ele>
        <time>2026-03-25T08:53:37Z</time>
      </trkpt>
      <trkpt lat="44.69841" lon="6.85454">
        <ele>1891.7</ele>
        <time>2026-03-25T08:53:38Z</time>
      </trkpt>
      <trkpt lat="44.6984" lon="6.85454">
        <ele>1891.8</ele>
        <time>2026-03-25T08:53:39Z</time>
      </trkpt>
      <trkpt lat="44.69839" lon="6.85454">
        <ele>1891.8</ele>
        <time>2026-03-25T08:53:40Z</time>
      </trkpt>
      <trkpt lat="44.69838" lon="6.85454">
        <ele>1891.8</ele>
        <time>2026-03-25T08:53:41Z</time>
      </trkpt>
      <trkpt lat="44.69838" lon="6.85454">
        <ele>1891.8</ele>
        <time>2026-03-25T08:53:42Z</time>
      </trkpt>
      <trkpt lat="44.69836" lon="6.85454">
        <ele>1891.9</ele>
        <time>2026-03-25T08:53:43Z</time>
      </trkpt>
      <trkpt lat="44.69836" lon="6.85454">
        <ele>1891.9</ele>
        <time>2026-03-25T08:53:44Z</time>
      </trkpt>
      <trkpt lat="44.69835" lon="6.85453">
        <ele>1891.9</ele>
        <time>2026-03-25T08:53:45Z</time>
      </trkpt>
      <trkpt lat="44.69834" lon="6.85453">
        <ele>1892</ele>
        <time>2026-03-25T08:53:46Z</time>
      </trkpt>
      <trkpt lat="44.69834" lon="6.85453">
        <ele>1892.1</ele>
        <time>2026-03-25T08:53:47Z</time>
      </trkpt>
      <trkpt lat="44.69832" lon="6.85453">
        <ele>1892.1</ele>
        <time>2026-03-25T08:53:49Z</time>
      </trkpt>
      <trkpt lat="44.69832" lon="6.85453">
        <ele>1892.1</ele>
        <time>2026-03-25T08:53:50Z</time>
      </trkpt>
      <trkpt lat="44.69831" lon="6.85453">
        <ele>1892.2</ele>
        <time>2026-03-25T08:53:51Z</time>
      </trkpt>
      <trkpt lat="44.69831" lon="6.85453">
        <ele>1892.2</ele>
        <time>2026-03-25T08:53:52Z</time>
      </trkpt>
      <trkpt lat="44.6983" lon="6.85453">
        <ele>1892.2</ele>
        <time>2026-03-25T08:53:53Z</time>
      </trkpt>
      <trkpt lat="44.69829" lon="6.85452">
        <ele>1892.6</ele>
        <time>2026-03-25T08:53:54Z</time>
      </trkpt>
      <trkpt lat="44.69828" lon="6.85452">
        <ele>1892.7</ele>
        <time>2026-03-25T08:53:56Z</time>
      </trkpt>
      <trkpt lat="44.69828" lon="6.85452">
        <ele>1892.7</ele>
        <time>2026-03-25T08:53:57Z</time>
      </trkpt>
      <trkpt lat="44.69827" lon="6.85452">
        <ele>1892.8</ele>
        <time>2026-03-25T08:53:58Z</time>
      </trkpt>
      <trkpt lat="44.69826" lon="6.85451">
        <ele>1892.8</ele>
        <time>2026-03-25T08:53:59Z</time>
      </trkpt>
      <trkpt lat="44.69826" lon="6.85451">
        <ele>1892.8</ele>
        <time>2026-03-25T08:54:00Z</time>
      </trkpt>
      <trkpt lat="44.69825" lon="6.85451">
        <ele>1892.8</ele>
        <time>2026-03-25T08:54:01Z</time>
      </trkpt>
      <trkpt lat="44.69824" lon="6.85451">
        <ele>1892.8</ele>
        <time>2026-03-25T08:54:02Z</time>
      </trkpt>
      <trkpt lat="44.69823" lon="6.85451">
        <ele>1892.8</ele>
        <time>2026-03-25T08:54:03Z</time>
      </trkpt>
      <trkpt lat="44.69823" lon="6.85451">
        <ele>1892.9</ele>
        <time>2026-03-25T08:54:04Z</time>
      </trkpt>
      <trkpt lat="44.69823" lon="6.85451">
        <ele>1892.9</ele>
        <time>2026-03-25T08:54:06Z</time>
      </trkpt>
      <trkpt lat="44.69822" lon="6.85451">
        <ele>1892.9</ele>
        <time>2026-03-25T08:54:07Z</time>
      </trkpt>
      <trkpt lat="44.69821" lon="6.85451">
        <ele>1892.9</ele>
        <time>2026-03-25T08:54:08Z</time>
      </trkpt>
      <trkpt lat="44.69821" lon="6.8545">
        <ele>1892.9</ele>
        <time>2026-03-25T08:54:09Z</time>
      </trkpt>
      <trkpt lat="44.69821" lon="6.8545">
        <ele>1892.9</ele>
        <time>2026-03-25T08:54:10Z</time>
      </trkpt>
      <trkpt lat="44.6982" lon="6.8545">
        <ele>1892.9</ele>
        <time>2026-03-25T08:54:11Z</time>
      </trkpt>
      <trkpt lat="44.69819" lon="6.8545">
        <ele>1892.9</ele>
        <time>2026-03-25T08:54:12Z</time>
      </trkpt>
      <trkpt lat="44.69819" lon="6.85449">
        <ele>1893</ele>
        <time>2026-03-25T08:54:13Z</time>
      </trkpt>
      <trkpt lat="44.69818" lon="6.85449">
        <ele>1893</ele>
        <time>2026-03-25T08:54:15Z</time>
      </trkpt>
      <trkpt lat="44.69817" lon="6.85449">
        <ele>1893</ele>
        <time>2026-03-25T08:54:16Z</time>
      </trkpt>
      <trkpt lat="44.69817" lon="6.85449">
        <ele>1893</ele>
        <time>2026-03-25T08:54:17Z</time>
      </trkpt>
      <trkpt lat="44.69816" lon="6.85448">
        <ele>1893</ele>
        <time>2026-03-25T08:54:18Z</time>
      </trkpt>
      <trkpt lat="44.69815" lon="6.85448">
        <ele>1893.5</ele>
        <time>2026-03-25T08:54:19Z</time>
      </trkpt>
      <trkpt lat="44.69815" lon="6.85448">
        <ele>1893.5</ele>
        <time>2026-03-25T08:54:20Z</time>
      </trkpt>
      <trkpt lat="44.69813" lon="6.85447">
        <ele>1893.5</ele>
        <time>2026-03-25T08:54:21Z</time>
      </trkpt>
      <trkpt lat="44.69813" lon="6.85447">
        <ele>1893.6</ele>
        <time>2026-03-25T08:54:23Z</time>
      </trkpt>
      <trkpt lat="44.69812" lon="6.85446">
        <ele>1893.6</ele>
        <time>2026-03-25T08:54:24Z</time>
      </trkpt>
      <trkpt lat="44.69812" lon="6.85446">
        <ele>1893.6</ele>
        <time>2026-03-25T08:54:25Z</time>
      </trkpt>
      <trkpt lat="44.69811" lon="6.85446">
        <ele>1893.6</ele>
        <time>2026-03-25T08:54:26Z</time>
      </trkpt>
      <trkpt lat="44.69811" lon="6.85445">
        <ele>1893.6</ele>
        <time>2026-03-25T08:54:27Z</time>
      </trkpt>
      <trkpt lat="44.6981" lon="6.85445">
        <ele>1893.8</ele>
        <time>2026-03-25T08:54:28Z</time>
      </trkpt>
      <trkpt lat="44.69809" lon="6.85444">
        <ele>1893.8</ele>
        <time>2026-03-25T08:54:29Z</time>
      </trkpt>
      <trkpt lat="44.69808" lon="6.85444">
        <ele>1894.2</ele>
        <time>2026-03-25T08:54:31Z</time>
      </trkpt>
      <trkpt lat="44.69808" lon="6.85443">
        <ele>1894.2</ele>
        <time>2026-03-25T08:54:32Z</time>
      </trkpt>
      <trkpt lat="44.69807" lon="6.85443">
        <ele>1894.2</ele>
        <time>2026-03-25T08:54:33Z</time>
      </trkpt>
      <trkpt lat="44.69806" lon="6.85443">
        <ele>1894.4</ele>
        <time>2026-03-25T08:54:34Z</time>
      </trkpt>
      <trkpt lat="44.69806" lon="6.85442">
        <ele>1894.4</ele>
        <time>2026-03-25T08:54:35Z</time>
      </trkpt>
      <trkpt lat="44.69805" lon="6.85442">
        <ele>1894.4</ele>
        <time>2026-03-25T08:54:36Z</time>
      </trkpt>
      <trkpt lat="44.69804" lon="6.85441">
        <ele>1894.4</ele>
        <time>2026-03-25T08:54:37Z</time>
      </trkpt>
      <trkpt lat="44.69803" lon="6.8544">
        <ele>1894.6</ele>
        <time>2026-03-25T08:54:39Z</time>
      </trkpt>
      <trkpt lat="44.69803" lon="6.8544">
        <ele>1894.6</ele>
        <time>2026-03-25T08:54:40Z</time>
      </trkpt>
      <trkpt lat="44.69802" lon="6.85439">
        <ele>1895.1</ele>
        <time>2026-03-25T08:54:41Z</time>
      </trkpt>
      <trkpt lat="44.69802" lon="6.85438">
        <ele>1895.1</ele>
        <time>2026-03-25T08:54:42Z</time>
      </trkpt>
      <trkpt lat="44.69801" lon="6.85438">
        <ele>1895.1</ele>
        <time>2026-03-25T08:54:43Z</time>
      </trkpt>
      <trkpt lat="44.698" lon="6.85436">
        <ele>1895.3</ele>
        <time>2026-03-25T08:54:44Z</time>
      </trkpt>
      <trkpt lat="44.69799" lon="6.85435">
        <ele>1895.3</ele>
        <time>2026-03-25T08:54:45Z</time>
      </trkpt>
      <trkpt lat="44.69799" lon="6.85435">
        <ele>1895.8</ele>
        <time>2026-03-25T08:54:47Z</time>
      </trkpt>
      <trkpt lat="44.69798" lon="6.85434">
        <ele>1895.8</ele>
        <time>2026-03-25T08:54:48Z</time>
      </trkpt>
      <trkpt lat="44.69798" lon="6.85433">
        <ele>1895.8</ele>
        <time>2026-03-25T08:54:49Z</time>
      </trkpt>
      <trkpt lat="44.69798" lon="6.85433">
        <ele>1895.9</ele>
        <time>2026-03-25T08:54:50Z</time>
      </trkpt>
      <trkpt lat="44.69797" lon="6.85432">
        <ele>1895.9</ele>
        <time>2026-03-25T08:54:51Z</time>
      </trkpt>
      <trkpt lat="44.69796" lon="6.85431">
        <ele>1896.4</ele>
        <time>2026-03-25T08:54:52Z</time>
      </trkpt>
      <trkpt lat="44.69796" lon="6.8543">
        <ele>1896.4</ele>
        <time>2026-03-25T08:54:54Z</time>
      </trkpt>
      <trkpt lat="44.69795" lon="6.85429">
        <ele>1896.4</ele>
        <time>2026-03-25T08:54:55Z</time>
      </trkpt>
      <trkpt lat="44.69795" lon="6.85429">
        <ele>1896.4</ele>
        <time>2026-03-25T08:54:56Z</time>
      </trkpt>
      <trkpt lat="44.69795" lon="6.85428">
        <ele>1896.6</ele>
        <time>2026-03-25T08:54:57Z</time>
      </trkpt>
      <trkpt lat="44.69794" lon="6.85428">
        <ele>1896.6</ele>
        <time>2026-03-25T08:54:58Z</time>
      </trkpt>
      <trkpt lat="44.69794" lon="6.85427">
        <ele>1896.6</ele>
        <time>2026-03-25T08:54:59Z</time>
      </trkpt>
      <trkpt lat="44.69793" lon="6.85427">
        <ele>1897.1</ele>
        <time>2026-03-25T08:55:00Z</time>
      </trkpt>
      <trkpt lat="44.69792" lon="6.85426">
        <ele>1897.1</ele>
        <time>2026-03-25T08:55:02Z</time>
      </trkpt>
      <trkpt lat="44.69791" lon="6.85425">
        <ele>1897.2</ele>
        <time>2026-03-25T08:55:03Z</time>
      </trkpt>
      <trkpt lat="44.6979" lon="6.85424">
        <ele>1897.2</ele>
        <time>2026-03-25T08:55:04Z</time>
      </trkpt>
      <trkpt lat="44.69789" lon="6.85424">
        <ele>1897.2</ele>
        <time>2026-03-25T08:55:05Z</time>
      </trkpt>
      <trkpt lat="44.69789" lon="6.85423">
        <ele>1897.2</ele>
        <time>2026-03-25T08:55:06Z</time>
      </trkpt>
      <trkpt lat="44.69788" lon="6.85423">
        <ele>1897.4</ele>
        <time>2026-03-25T08:55:07Z</time>
      </trkpt>
      <trkpt lat="44.69788" lon="6.85423">
        <ele>1897.4</ele>
        <time>2026-03-25T08:55:08Z</time>
      </trkpt>
      <trkpt lat="44.69787" lon="6.85422">
        <ele>1897.9</ele>
        <time>2026-03-25T08:55:09Z</time>
      </trkpt>
      <trkpt lat="44.69787" lon="6.85422">
        <ele>1897.9</ele>
        <time>2026-03-25T08:55:10Z</time>
      </trkpt>
      <trkpt lat="44.69786" lon="6.85422">
        <ele>1897.9</ele>
        <time>2026-03-25T08:55:11Z</time>
      </trkpt>
      <trkpt lat="44.69785" lon="6.85422">
        <ele>1898.1</ele>
        <time>2026-03-25T08:55:12Z</time>
      </trkpt>
      <trkpt lat="44.69784" lon="6.85421">
        <ele>1898.1</ele>
        <time>2026-03-25T08:55:14Z</time>
      </trkpt>
      <trkpt lat="44.69783" lon="6.85421">
        <ele>1898.1</ele>
        <time>2026-03-25T08:55:15Z</time>
      </trkpt>
      <trkpt lat="44.69783" lon="6.8542">
        <ele>1898.1</ele>
        <time>2026-03-25T08:55:16Z</time>
      </trkpt>
      <trkpt lat="44.69782" lon="6.8542">
        <ele>1898.3</ele>
        <time>2026-03-25T08:55:17Z</time>
      </trkpt>
      <trkpt lat="44.69781" lon="6.85419">
        <ele>1898.3</ele>
        <time>2026-03-25T08:55:18Z</time>
      </trkpt>
      <trkpt lat="44.69781" lon="6.85419">
        <ele>1898.3</ele>
        <time>2026-03-25T08:55:19Z</time>
      </trkpt>
      <trkpt lat="44.6978" lon="6.85418">
        <ele>1898.7</ele>
        <time>2026-03-25T08:55:20Z</time>
      </trkpt>
      <trkpt lat="44.69779" lon="6.85417">
        <ele>1898.9</ele>
        <time>2026-03-25T08:55:22Z</time>
      </trkpt>
      <trkpt lat="44.69778" lon="6.85416">
        <ele>1898.9</ele>
        <time>2026-03-25T08:55:23Z</time>
      </trkpt>
      <trkpt lat="44.69778" lon="6.85416">
        <ele>1898.9</ele>
        <time>2026-03-25T08:55:25Z</time>
      </trkpt>
      <trkpt lat="44.69777" lon="6.85416">
        <ele>1898.9</ele>
        <time>2026-03-25T08:55:26Z</time>
      </trkpt>
      <trkpt lat="44.69777" lon="6.85416">
        <ele>1898.9</ele>
        <time>2026-03-25T08:55:27Z</time>
      </trkpt>
      <trkpt lat="44.69776" lon="6.85416">
        <ele>1899.1</ele>
        <time>2026-03-25T08:55:28Z</time>
      </trkpt>
      <trkpt lat="44.69776" lon="6.85416">
        <ele>1899.1</ele>
        <time>2026-03-25T08:55:29Z</time>
      </trkpt>
      <trkpt lat="44.69775" lon="6.85415">
        <ele>1899.1</ele>
        <time>2026-03-25T08:55:30Z</time>
      </trkpt>
      <trkpt lat="44.69775" lon="6.85415">
        <ele>1899.1</ele>
        <time>2026-03-25T08:55:31Z</time>
      </trkpt>
      <trkpt lat="44.69774" lon="6.85415">
        <ele>1899.1</ele>
        <time>2026-03-25T08:55:32Z</time>
      </trkpt>
      <trkpt lat="44.69774" lon="6.85416">
        <ele>1899.1</ele>
        <time>2026-03-25T08:55:33Z</time>
      </trkpt>
      <trkpt lat="44.69773" lon="6.85415">
        <ele>1899.3</ele>
        <time>2026-03-25T08:55:34Z</time>
      </trkpt>
      <trkpt lat="44.69772" lon="6.85415">
        <ele>1899.3</ele>
        <time>2026-03-25T08:55:35Z</time>
      </trkpt>
      <trkpt lat="44.69772" lon="6.85415">
        <ele>1899.3</ele>
        <time>2026-03-25T08:55:36Z</time>
      </trkpt>
      <trkpt lat="44.69771" lon="6.85415">
        <ele>1899.3</ele>
        <time>2026-03-25T08:55:37Z</time>
      </trkpt>
      <trkpt lat="44.6977" lon="6.85415">
        <ele>1899.3</ele>
        <time>2026-03-25T08:55:39Z</time>
      </trkpt>
      <trkpt lat="44.6977" lon="6.85415">
        <ele>1899.5</ele>
        <time>2026-03-25T08:55:40Z</time>
      </trkpt>
      <trkpt lat="44.69769" lon="6.85414">
        <ele>1899.5</ele>
        <time>2026-03-25T08:55:41Z</time>
      </trkpt>
      <trkpt lat="44.69768" lon="6.85414">
        <ele>1899.5</ele>
        <time>2026-03-25T08:55:42Z</time>
      </trkpt>
      <trkpt lat="44.69768" lon="6.85414">
        <ele>1899.8</ele>
        <time>2026-03-25T08:55:43Z</time>
      </trkpt>
      <trkpt lat="44.69767" lon="6.85414">
        <ele>1899.9</ele>
        <time>2026-03-25T08:55:44Z</time>
      </trkpt>
      <trkpt lat="44.69767" lon="6.85413">
        <ele>1900</ele>
        <time>2026-03-25T08:55:45Z</time>
      </trkpt>
      <trkpt lat="44.69766" lon="6.85413">
        <ele>1900</ele>
        <time>2026-03-25T08:55:46Z</time>
      </trkpt>
      <trkpt lat="44.69765" lon="6.85413">
        <ele>1900</ele>
        <time>2026-03-25T08:55:47Z</time>
      </trkpt>
      <trkpt lat="44.69765" lon="6.85413">
        <ele>1900</ele>
        <time>2026-03-25T08:55:48Z</time>
      </trkpt>
      <trkpt lat="44.69763" lon="6.85412">
        <ele>1900.1</ele>
        <time>2026-03-25T08:55:49Z</time>
      </trkpt>
      <trkpt lat="44.69763" lon="6.85411">
        <ele>1900.1</ele>
        <time>2026-03-25T08:55:51Z</time>
      </trkpt>
      <trkpt lat="44.69762" lon="6.85411">
        <ele>1900.1</ele>
        <time>2026-03-25T08:55:52Z</time>
      </trkpt>
      <trkpt lat="44.69762" lon="6.8541">
        <ele>1900.1</ele>
        <time>2026-03-25T08:55:53Z</time>
      </trkpt>
      <trkpt lat="44.69761" lon="6.8541">
        <ele>1900.2</ele>
        <time>2026-03-25T08:55:54Z</time>
      </trkpt>
      <trkpt lat="44.6976" lon="6.85409">
        <ele>1900.6</ele>
        <time>2026-03-25T08:55:55Z</time>
      </trkpt>
      <trkpt lat="44.6976" lon="6.85409">
        <ele>1900.6</ele>
        <time>2026-03-25T08:55:56Z</time>
      </trkpt>
      <trkpt lat="44.69759" lon="6.85408">
        <ele>1900.6</ele>
        <time>2026-03-25T08:55:57Z</time>
      </trkpt>
      <trkpt lat="44.69759" lon="6.85408">
        <ele>1900.6</ele>
        <time>2026-03-25T08:55:58Z</time>
      </trkpt>
      <trkpt lat="44.69758" lon="6.85408">
        <ele>1900.6</ele>
        <time>2026-03-25T08:55:59Z</time>
      </trkpt>
      <trkpt lat="44.69758" lon="6.85407">
        <ele>1900.7</ele>
        <time>2026-03-25T08:56:00Z</time>
      </trkpt>
      <trkpt lat="44.69757" lon="6.85407">
        <ele>1900.7</ele>
        <time>2026-03-25T08:56:01Z</time>
      </trkpt>
      <trkpt lat="44.69756" lon="6.85406">
        <ele>1900.7</ele>
        <time>2026-03-25T08:56:02Z</time>
      </trkpt>
      <trkpt lat="44.69755" lon="6.85406">
        <ele>1900.7</ele>
        <time>2026-03-25T08:56:03Z</time>
      </trkpt>
      <trkpt lat="44.69755" lon="6.85405">
        <ele>1901.1</ele>
        <time>2026-03-25T08:56:05Z</time>
      </trkpt>
      <trkpt lat="44.69754" lon="6.85405">
        <ele>1901.1</ele>
        <time>2026-03-25T08:56:06Z</time>
      </trkpt>
      <trkpt lat="44.69753" lon="6.85405">
        <ele>1901.1</ele>
        <time>2026-03-25T08:56:07Z</time>
      </trkpt>
      <trkpt lat="44.69753" lon="6.85404">
        <ele>1901.2</ele>
        <time>2026-03-25T08:56:08Z</time>
      </trkpt>
      <trkpt lat="44.69752" lon="6.85404">
        <ele>1901.2</ele>
        <time>2026-03-25T08:56:09Z</time>
      </trkpt>
      <trkpt lat="44.69752" lon="6.85404">
        <ele>1901.3</ele>
        <time>2026-03-25T08:56:10Z</time>
      </trkpt>
      <trkpt lat="44.69751" lon="6.85404">
        <ele>1901.3</ele>
        <time>2026-03-25T08:56:11Z</time>
      </trkpt>
      <trkpt lat="44.6975" lon="6.85404">
        <ele>1901.3</ele>
        <time>2026-03-25T08:56:12Z</time>
      </trkpt>
      <trkpt lat="44.6975" lon="6.85403">
        <ele>1901.3</ele>
        <time>2026-03-25T08:56:13Z</time>
      </trkpt>
      <trkpt lat="44.69749" lon="6.85403">
        <ele>1901.3</ele>
        <time>2026-03-25T08:56:14Z</time>
      </trkpt>
      <trkpt lat="44.69749" lon="6.85402">
        <ele>1901.3</ele>
        <time>2026-03-25T08:56:15Z</time>
      </trkpt>
      <trkpt lat="44.69749" lon="6.85402">
        <ele>1901.4</ele>
        <time>2026-03-25T08:56:16Z</time>
      </trkpt>
      <trkpt lat="44.69748" lon="6.85402">
        <ele>1901.4</ele>
        <time>2026-03-25T08:56:17Z</time>
      </trkpt>
      <trkpt lat="44.69748" lon="6.85402">
        <ele>1901.4</ele>
        <time>2026-03-25T08:56:18Z</time>
      </trkpt>
      <trkpt lat="44.69747" lon="6.85402">
        <ele>1901.4</ele>
        <time>2026-03-25T08:56:19Z</time>
      </trkpt>
      <trkpt lat="44.69747" lon="6.85401">
        <ele>1901.4</ele>
        <time>2026-03-25T08:56:20Z</time>
      </trkpt>
      <trkpt lat="44.69746" lon="6.85401">
        <ele>1901.8</ele>
        <time>2026-03-25T08:56:21Z</time>
      </trkpt>
      <trkpt lat="44.69746" lon="6.85401">
        <ele>1901.9</ele>
        <time>2026-03-25T08:56:22Z</time>
      </trkpt>
      <trkpt lat="44.69745" lon="6.854">
        <ele>1901.9</ele>
        <time>2026-03-25T08:56:23Z</time>
      </trkpt>
      <trkpt lat="44.69744" lon="6.854">
        <ele>1901.9</ele>
        <time>2026-03-25T08:56:24Z</time>
      </trkpt>
      <trkpt lat="44.69744" lon="6.854">
        <ele>1901.9</ele>
        <time>2026-03-25T08:56:26Z</time>
      </trkpt>
      <trkpt lat="44.69744" lon="6.854">
        <ele>1901.9</ele>
        <time>2026-03-25T08:56:27Z</time>
      </trkpt>
      <trkpt lat="44.69744" lon="6.854">
        <ele>1901.9</ele>
        <time>2026-03-25T08:56:28Z</time>
      </trkpt>
      <trkpt lat="44.69744" lon="6.854">
        <ele>1901.9</ele>
        <time>2026-03-25T08:56:29Z</time>
      </trkpt>
      <trkpt lat="44.69744" lon="6.854">
        <ele>1901.9</ele>
        <time>2026-03-25T08:56:30Z</time>
      </trkpt>
      <trkpt lat="44.69744" lon="6.854">
        <ele>1901.9</ele>
        <time>2026-03-25T08:56:31Z</time>
      </trkpt>
      <trkpt lat="44.69744" lon="6.854">
        <ele>1901.9</ele>
        <time>2026-03-25T08:56:32Z</time>
      </trkpt>
      <trkpt lat="44.69744" lon="6.854">
        <ele>1901.9</ele>
        <time>2026-03-25T08:56:33Z</time>
      </trkpt>
      <trkpt lat="44.69743" lon="6.854">
        <ele>1901.9</ele>
        <time>2026-03-25T08:56:34Z</time>
      </trkpt>
      <trkpt lat="44.69743" lon="6.854">
        <ele>1901.9</ele>
        <time>2026-03-25T08:56:35Z</time>
      </trkpt>
      <trkpt lat="44.69743" lon="6.854">
        <ele>1901.9</ele>
        <time>2026-03-25T08:56:36Z</time>
      </trkpt>
      <trkpt lat="44.69743" lon="6.854">
        <ele>1902</ele>
        <time>2026-03-25T08:56:37Z</time>
      </trkpt>
      <trkpt lat="44.69743" lon="6.854">
        <ele>1902</ele>
        <time>2026-03-25T08:56:38Z</time>
      </trkpt>
      <trkpt lat="44.69743" lon="6.854">
        <ele>1902</ele>
        <time>2026-03-25T08:56:39Z</time>
      </trkpt>
      <trkpt lat="44.69743" lon="6.854">
        <ele>1902</ele>
        <time>2026-03-25T08:56:40Z</time>
      </trkpt>
      <trkpt lat="44.69743" lon="6.854">
        <ele>1902</ele>
        <time>2026-03-25T08:56:41Z</time>
      </trkpt>
      <trkpt lat="44.69743" lon="6.854">
        <ele>1902</ele>
        <time>2026-03-25T08:56:42Z</time>
      </trkpt>
      <trkpt lat="44.69743" lon="6.854">
        <ele>1902</ele>
        <time>2026-03-25T08:56:43Z</time>
      </trkpt>
      <trkpt lat="44.69743" lon="6.854">
        <ele>1902</ele>
        <time>2026-03-25T08:56:44Z</time>
      </trkpt>
      <trkpt lat="44.69743" lon="6.854">
        <ele>1902</ele>
        <time>2026-03-25T08:56:45Z</time>
      </trkpt>
      <trkpt lat="44.69743" lon="6.854">
        <ele>1902</ele>
        <time>2026-03-25T08:56:46Z</time>
      </trkpt>
      <trkpt lat="44.69743" lon="6.854">
        <ele>1902</ele>
        <time>2026-03-25T08:56:47Z</time>
      </trkpt>
      <trkpt lat="44.69743" lon="6.854">
        <ele>1902</ele>
        <time>2026-03-25T08:56:48Z</time>
      </trkpt>
      <trkpt lat="44.69743" lon="6.854">
        <ele>1902</ele>
        <time>2026-03-25T08:56:49Z</time>
      </trkpt>
      <trkpt lat="44.69743" lon="6.854">
        <ele>1902</ele>
        <time>2026-03-25T08:56:50Z</time>
      </trkpt>
      <trkpt lat="44.69743" lon="6.854">
        <ele>1902</ele>
        <time>2026-03-25T08:56:51Z</time>
      </trkpt>
      <trkpt lat="44.69743" lon="6.854">
        <ele>1902</ele>
        <time>2026-03-25T08:56:52Z</time>
      </trkpt>
      <trkpt lat="44.69743" lon="6.854">
        <ele>1902.1</ele>
        <time>2026-03-25T08:56:54Z</time>
      </trkpt>
      <trkpt lat="44.69743" lon="6.854">
        <ele>1902.1</ele>
        <time>2026-03-25T08:56:55Z</time>
      </trkpt>
      <trkpt lat="44.69743" lon="6.854">
        <ele>1902.1</ele>
        <time>2026-03-25T08:56:56Z</time>
      </trkpt>
      <trkpt lat="44.69743" lon="6.854">
        <ele>1902.1</ele>
        <time>2026-03-25T08:56:57Z</time>
      </trkpt>
      <trkpt lat="44.69743" lon="6.854">
        <ele>1902.1</ele>
        <time>2026-03-25T08:56:58Z</time>
      </trkpt>
      <trkpt lat="44.69743" lon="6.854">
        <ele>1902.1</ele>
        <time>2026-03-25T08:56:59Z</time>
      </trkpt>
      <trkpt lat="44.69743" lon="6.854">
        <ele>1902.1</ele>
        <time>2026-03-25T08:57:00Z</time>
      </trkpt>
      <trkpt lat="44.69743" lon="6.854">
        <ele>1902.1</ele>
        <time>2026-03-25T08:57:01Z</time>
      </trkpt>
      <trkpt lat="44.69743" lon="6.854">
        <ele>1902.1</ele>
        <time>2026-03-25T08:57:02Z</time>
      </trkpt>
      <trkpt lat="44.69743" lon="6.854">
        <ele>1902.1</ele>
        <time>2026-03-25T08:57:03Z</time>
      </trkpt>
      <trkpt lat="44.69743" lon="6.854">
        <ele>1902.1</ele>
        <time>2026-03-25T08:57:04Z</time>
      </trkpt>
      <trkpt lat="44.69743" lon="6.854">
        <ele>1902.1</ele>
        <time>2026-03-25T08:57:05Z</time>
      </trkpt>
      <trkpt lat="44.69743" lon="6.854">
        <ele>1902.1</ele>
        <time>2026-03-25T08:57:06Z</time>
      </trkpt>
      <trkpt lat="44.69743" lon="6.854">
        <ele>1902.1</ele>
        <time>2026-03-25T08:57:07Z</time>
      </trkpt>
      <trkpt lat="44.69743" lon="6.854">
        <ele>1902.1</ele>
        <time>2026-03-25T08:57:08Z</time>
      </trkpt>
      <trkpt lat="44.69743" lon="6.854">
        <ele>1902.1</ele>
        <time>2026-03-25T08:57:09Z</time>
      </trkpt>
      <trkpt lat="44.69743" lon="6.854">
        <ele>1902.2</ele>
        <time>2026-03-25T08:57:10Z</time>
      </trkpt>
      <trkpt lat="44.69743" lon="6.854">
        <ele>1902.2</ele>
        <time>2026-03-25T08:57:11Z</time>
      </trkpt>
      <trkpt lat="44.69743" lon="6.854">
        <ele>1902.2</ele>
        <time>2026-03-25T08:57:12Z</time>
      </trkpt>
      <trkpt lat="44.69743" lon="6.854">
        <ele>1902.2</ele>
        <time>2026-03-25T08:57:13Z</time>
      </trkpt>
      <trkpt lat="44.69743" lon="6.854">
        <ele>1902.2</ele>
        <time>2026-03-25T08:57:14Z</time>
      </trkpt>
      <trkpt lat="44.69743" lon="6.854">
        <ele>1902.2</ele>
        <time>2026-03-25T08:57:15Z</time>
      </trkpt>
      <trkpt lat="44.69743" lon="6.854">
        <ele>1902.2</ele>
        <time>2026-03-25T08:57:16Z</time>
      </trkpt>
      <trkpt lat="44.69743" lon="6.854">
        <ele>1902.2</ele>
        <time>2026-03-25T08:57:17Z</time>
      </trkpt>
      <trkpt lat="44.69743" lon="6.854">
        <ele>1902.2</ele>
        <time>2026-03-25T08:57:18Z</time>
      </trkpt>
      <trkpt lat="44.69743" lon="6.854">
        <ele>1902.2</ele>
        <time>2026-03-25T08:57:19Z</time>
      </trkpt>
      <trkpt lat="44.69743" lon="6.854">
        <ele>1902.2</ele>
        <time>2026-03-25T08:57:20Z</time>
      </trkpt>
      <trkpt lat="44.69743" lon="6.854">
        <ele>1902.3</ele>
        <time>2026-03-25T08:57:21Z</time>
      </trkpt>
      <trkpt lat="44.69743" lon="6.854">
        <ele>1902.3</ele>
        <time>2026-03-25T08:57:22Z</time>
      </trkpt>
      <trkpt lat="44.69743" lon="6.854">
        <ele>1902.3</ele>
        <time>2026-03-25T08:57:23Z</time>
      </trkpt>
      <trkpt lat="44.69743" lon="6.854">
        <ele>1902.3</ele>
        <time>2026-03-25T08:57:24Z</time>
      </trkpt>
      <trkpt lat="44.69743" lon="6.854">
        <ele>1902.3</ele>
        <time>2026-03-25T08:57:25Z</time>
      </trkpt>
      <trkpt lat="44.69743" lon="6.854">
        <ele>1902.3</ele>
        <time>2026-03-25T08:57:26Z</time>
      </trkpt>
      <trkpt lat="44.69743" lon="6.854">
        <ele>1902.3</ele>
        <time>2026-03-25T08:57:27Z</time>
      </trkpt>
      <trkpt lat="44.69743" lon="6.854">
        <ele>1902.4</ele>
        <time>2026-03-25T08:57:28Z</time>
      </trkpt>
      <trkpt lat="44.69742" lon="6.854">
        <ele>1902.4</ele>
        <time>2026-03-25T08:57:29Z</time>
      </trkpt>
      <trkpt lat="44.69742" lon="6.854">
        <ele>1902.4</ele>
        <time>2026-03-25T08:57:30Z</time>
      </trkpt>
      <trkpt lat="44.69742" lon="6.854">
        <ele>1902.4</ele>
        <time>2026-03-25T08:57:31Z</time>
      </trkpt>
      <trkpt lat="44.69742" lon="6.854">
        <ele>1902.4</ele>
        <time>2026-03-25T08:57:32Z</time>
      </trkpt>
      <trkpt lat="44.69742" lon="6.854">
        <ele>1902.4</ele>
        <time>2026-03-25T08:57:33Z</time>
      </trkpt>
      <trkpt lat="44.69742" lon="6.854">
        <ele>1902.4</ele>
        <time>2026-03-25T08:57:34Z</time>
      </trkpt>
      <trkpt lat="44.69742" lon="6.854">
        <ele>1902.4</ele>
        <time>2026-03-25T08:57:35Z</time>
      </trkpt>
      <trkpt lat="44.69742" lon="6.854">
        <ele>1902.4</ele>
        <time>2026-03-25T08:57:36Z</time>
      </trkpt>
      <trkpt lat="44.69742" lon="6.854">
        <ele>1902.4</ele>
        <time>2026-03-25T08:57:37Z</time>
      </trkpt>
      <trkpt lat="44.69742" lon="6.854">
        <ele>1902.4</ele>
        <time>2026-03-25T08:57:38Z</time>
      </trkpt>
      <trkpt lat="44.69742" lon="6.854">
        <ele>1902.4</ele>
        <time>2026-03-25T08:57:39Z</time>
      </trkpt>
      <trkpt lat="44.69742" lon="6.854">
        <ele>1902.4</ele>
        <time>2026-03-25T08:57:40Z</time>
      </trkpt>
      <trkpt lat="44.69742" lon="6.854">
        <ele>1902.4</ele>
        <time>2026-03-25T08:57:41Z</time>
      </trkpt>
      <trkpt lat="44.69742" lon="6.854">
        <ele>1902.4</ele>
        <time>2026-03-25T08:57:42Z</time>
      </trkpt>
      <trkpt lat="44.69742" lon="6.854">
        <ele>1902.4</ele>
        <time>2026-03-25T08:57:43Z</time>
      </trkpt>
      <trkpt lat="44.69742" lon="6.854">
        <ele>1902.5</ele>
        <time>2026-03-25T08:57:44Z</time>
      </trkpt>
      <trkpt lat="44.69742" lon="6.854">
        <ele>1902.5</ele>
        <time>2026-03-25T08:57:45Z</time>
      </trkpt>
      <trkpt lat="44.69742" lon="6.854">
        <ele>1902.5</ele>
        <time>2026-03-25T08:57:46Z</time>
      </trkpt>
      <trkpt lat="44.69742" lon="6.854">
        <ele>1902.5</ele>
        <time>2026-03-25T08:57:47Z</time>
      </trkpt>
      <trkpt lat="44.69742" lon="6.854">
        <ele>1902.5</ele>
        <time>2026-03-25T08:57:48Z</time>
      </trkpt>
      <trkpt lat="44.69742" lon="6.854">
        <ele>1902.5</ele>
        <time>2026-03-25T08:57:49Z</time>
      </trkpt>
      <trkpt lat="44.69742" lon="6.854">
        <ele>1902.5</ele>
        <time>2026-03-25T08:57:50Z</time>
      </trkpt>
      <trkpt lat="44.69742" lon="6.854">
        <ele>1902.5</ele>
        <time>2026-03-25T08:57:51Z</time>
      </trkpt>
      <trkpt lat="44.69742" lon="6.854">
        <ele>1902.5</ele>
        <time>2026-03-25T08:57:52Z</time>
      </trkpt>
      <trkpt lat="44.69742" lon="6.85399">
        <ele>1902.5</ele>
        <time>2026-03-25T08:57:53Z</time>
      </trkpt>
      <trkpt lat="44.69742" lon="6.85399">
        <ele>1902.5</ele>
        <time>2026-03-25T08:57:54Z</time>
      </trkpt>
      <trkpt lat="44.69742" lon="6.85399">
        <ele>1902.5</ele>
        <time>2026-03-25T08:57:55Z</time>
      </trkpt>
      <trkpt lat="44.69742" lon="6.85399">
        <ele>1902.5</ele>
        <time>2026-03-25T08:57:56Z</time>
      </trkpt>
      <trkpt lat="44.69742" lon="6.85399">
        <ele>1902.5</ele>
        <time>2026-03-25T08:57:57Z</time>
      </trkpt>
      <trkpt lat="44.69742" lon="6.85399">
        <ele>1902.5</ele>
        <time>2026-03-25T08:57:58Z</time>
      </trkpt>
      <trkpt lat="44.69742" lon="6.85399">
        <ele>1902.5</ele>
        <time>2026-03-25T08:57:59Z</time>
      </trkpt>
      <trkpt lat="44.69742" lon="6.85399">
        <ele>1902.6</ele>
        <time>2026-03-25T08:58:00Z</time>
      </trkpt>
      <trkpt lat="44.69742" lon="6.85399">
        <ele>1902.6</ele>
        <time>2026-03-25T08:58:01Z</time>
      </trkpt>
      <trkpt lat="44.69742" lon="6.85399">
        <ele>1902.6</ele>
        <time>2026-03-25T08:58:02Z</time>
      </trkpt>
      <trkpt lat="44.69742" lon="6.85399">
        <ele>1902.6</ele>
        <time>2026-03-25T08:58:03Z</time>
      </trkpt>
      <trkpt lat="44.69742" lon="6.85399">
        <ele>1902.6</ele>
        <time>2026-03-25T08:58:04Z</time>
      </trkpt>
      <trkpt lat="44.69742" lon="6.85399">
        <ele>1902.6</ele>
        <time>2026-03-25T08:58:05Z</time>
      </trkpt>
      <trkpt lat="44.69742" lon="6.854">
        <ele>1902.6</ele>
        <time>2026-03-25T08:58:06Z</time>
      </trkpt>
      <trkpt lat="44.69743" lon="6.854">
        <ele>1902.6</ele>
        <time>2026-03-25T08:58:07Z</time>
      </trkpt>
      <trkpt lat="44.69743" lon="6.854">
        <ele>1902.6</ele>
        <time>2026-03-25T08:58:08Z</time>
      </trkpt>
      <trkpt lat="44.69742" lon="6.854">
        <ele>1902.6</ele>
        <time>2026-03-25T08:58:09Z</time>
      </trkpt>
      <trkpt lat="44.69742" lon="6.854">
        <ele>1902.6</ele>
        <time>2026-03-25T08:58:10Z</time>
      </trkpt>
      <trkpt lat="44.69742" lon="6.854">
        <ele>1902.6</ele>
        <time>2026-03-25T08:58:11Z</time>
      </trkpt>
      <trkpt lat="44.69742" lon="6.854">
        <ele>1902.6</ele>
        <time>2026-03-25T08:58:12Z</time>
      </trkpt>
      <trkpt lat="44.69742" lon="6.854">
        <ele>1902.6</ele>
        <time>2026-03-25T08:58:13Z</time>
      </trkpt>
      <trkpt lat="44.69742" lon="6.854">
        <ele>1902.6</ele>
        <time>2026-03-25T08:58:14Z</time>
      </trkpt>
      <trkpt lat="44.69742" lon="6.854">
        <ele>1902.6</ele>
        <time>2026-03-25T08:58:15Z</time>
      </trkpt>
      <trkpt lat="44.69742" lon="6.854">
        <ele>1902.7</ele>
        <time>2026-03-25T08:58:16Z</time>
      </trkpt>
      <trkpt lat="44.69742" lon="6.854">
        <ele>1902.7</ele>
        <time>2026-03-25T08:58:17Z</time>
      </trkpt>
      <trkpt lat="44.69742" lon="6.854">
        <ele>1902.7</ele>
        <time>2026-03-25T08:58:18Z</time>
      </trkpt>
      <trkpt lat="44.69742" lon="6.854">
        <ele>1902.7</ele>
        <time>2026-03-25T08:58:19Z</time>
      </trkpt>
      <trkpt lat="44.69742" lon="6.854">
        <ele>1902.7</ele>
        <time>2026-03-25T08:58:20Z</time>
      </trkpt>
      <trkpt lat="44.69742" lon="6.854">
        <ele>1902.7</ele>
        <time>2026-03-25T08:58:21Z</time>
      </trkpt>
      <trkpt lat="44.69742" lon="6.854">
        <ele>1902.7</ele>
        <time>2026-03-25T08:58:22Z</time>
      </trkpt>
      <trkpt lat="44.69742" lon="6.854">
        <ele>1902.7</ele>
        <time>2026-03-25T08:58:23Z</time>
      </trkpt>
      <trkpt lat="44.69742" lon="6.854">
        <ele>1902.7</ele>
        <time>2026-03-25T08:58:24Z</time>
      </trkpt>
      <trkpt lat="44.69742" lon="6.854">
        <ele>1902.7</ele>
        <time>2026-03-25T08:58:25Z</time>
      </trkpt>
      <trkpt lat="44.69742" lon="6.854">
        <ele>1902.7</ele>
        <time>2026-03-25T08:58:26Z</time>
      </trkpt>
      <trkpt lat="44.69742" lon="6.854">
        <ele>1902.7</ele>
        <time>2026-03-25T08:58:27Z</time>
      </trkpt>
      <trkpt lat="44.69742" lon="6.854">
        <ele>1902.7</ele>
        <time>2026-03-25T08:58:28Z</time>
      </trkpt>
      <trkpt lat="44.69742" lon="6.85399">
        <ele>1902.7</ele>
        <time>2026-03-25T08:58:29Z</time>
      </trkpt>
      <trkpt lat="44.69742" lon="6.85399">
        <ele>1902.7</ele>
        <time>2026-03-25T08:58:30Z</time>
      </trkpt>
      <trkpt lat="44.69742" lon="6.85399">
        <ele>1902.7</ele>
        <time>2026-03-25T08:58:31Z</time>
      </trkpt>
      <trkpt lat="44.69742" lon="6.85399">
        <ele>1902.8</ele>
        <time>2026-03-25T08:58:32Z</time>
      </trkpt>
      <trkpt lat="44.69742" lon="6.85399">
        <ele>1902.8</ele>
        <time>2026-03-25T08:58:33Z</time>
      </trkpt>
      <trkpt lat="44.69742" lon="6.85399">
        <ele>1902.8</ele>
        <time>2026-03-25T08:58:34Z</time>
      </trkpt>
      <trkpt lat="44.69742" lon="6.85399">
        <ele>1902.8</ele>
        <time>2026-03-25T08:58:35Z</time>
      </trkpt>
      <trkpt lat="44.69742" lon="6.85399">
        <ele>1902.8</ele>
        <time>2026-03-25T08:58:36Z</time>
      </trkpt>
      <trkpt lat="44.69742" lon="6.85399">
        <ele>1902.8</ele>
        <time>2026-03-25T08:58:37Z</time>
      </trkpt>
      <trkpt lat="44.69742" lon="6.85399">
        <ele>1902.8</ele>
        <time>2026-03-25T08:58:38Z</time>
      </trkpt>
      <trkpt lat="44.69742" lon="6.85399">
        <ele>1902.8</ele>
        <time>2026-03-25T08:58:39Z</time>
      </trkpt>
      <trkpt lat="44.69742" lon="6.85399">
        <ele>1902.8</ele>
        <time>2026-03-25T08:58:40Z</time>
      </trkpt>
      <trkpt lat="44.69742" lon="6.85399">
        <ele>1902.8</ele>
        <time>2026-03-25T08:58:41Z</time>
      </trkpt>
      <trkpt lat="44.69742" lon="6.85399">
        <ele>1902.8</ele>
        <time>2026-03-25T08:58:42Z</time>
      </trkpt>
      <trkpt lat="44.69742" lon="6.85399">
        <ele>1902.8</ele>
        <time>2026-03-25T08:58:43Z</time>
      </trkpt>
      <trkpt lat="44.69742" lon="6.85399">
        <ele>1902.8</ele>
        <time>2026-03-25T08:58:44Z</time>
      </trkpt>
      <trkpt lat="44.69742" lon="6.85399">
        <ele>1902.8</ele>
        <time>2026-03-25T08:58:45Z</time>
      </trkpt>
      <trkpt lat="44.69742" lon="6.85399">
        <ele>1902.8</ele>
        <time>2026-03-25T08:58:46Z</time>
      </trkpt>
      <trkpt lat="44.69742" lon="6.85399">
        <ele>1902.8</ele>
        <time>2026-03-25T08:58:47Z</time>
      </trkpt>
      <trkpt lat="44.69742" lon="6.85399">
        <ele>1902.9</ele>
        <time>2026-03-25T08:58:48Z</time>
      </trkpt>
      <trkpt lat="44.69742" lon="6.85399">
        <ele>1902.9</ele>
        <time>2026-03-25T08:58:49Z</time>
      </trkpt>
      <trkpt lat="44.69742" lon="6.85399">
        <ele>1902.9</ele>
        <time>2026-03-25T08:58:50Z</time>
      </trkpt>
      <trkpt lat="44.69742" lon="6.85399">
        <ele>1902.9</ele>
        <time>2026-03-25T08:58:51Z</time>
      </trkpt>
      <trkpt lat="44.69742" lon="6.85399">
        <ele>1902.9</ele>
        <time>2026-03-25T08:58:52Z</time>
      </trkpt>
      <trkpt lat="44.69742" lon="6.85399">
        <ele>1902.9</ele>
        <time>2026-03-25T08:58:53Z</time>
      </trkpt>
      <trkpt lat="44.69742" lon="6.85399">
        <ele>1902.9</ele>
        <time>2026-03-25T08:58:54Z</time>
      </trkpt>
      <trkpt lat="44.69742" lon="6.85399">
        <ele>1902.9</ele>
        <time>2026-03-25T08:58:55Z</time>
      </trkpt>
      <trkpt lat="44.69742" lon="6.85399">
        <ele>1902.9</ele>
        <time>2026-03-25T08:58:56Z</time>
      </trkpt>
      <trkpt lat="44.69742" lon="6.85399">
        <ele>1902.9</ele>
        <time>2026-03-25T08:58:57Z</time>
      </trkpt>
      <trkpt lat="44.69742" lon="6.85399">
        <ele>1902.9</ele>
        <time>2026-03-25T08:58:58Z</time>
      </trkpt>
      <trkpt lat="44.69742" lon="6.85399">
        <ele>1902.9</ele>
        <time>2026-03-25T08:58:59Z</time>
      </trkpt>
      <trkpt lat="44.69742" lon="6.85399">
        <ele>1902.9</ele>
        <time>2026-03-25T08:59:00Z</time>
      </trkpt>
      <trkpt lat="44.69742" lon="6.85399">
        <ele>1902.9</ele>
        <time>2026-03-25T08:59:01Z</time>
      </trkpt>
      <trkpt lat="44.69742" lon="6.85399">
        <ele>1902.9</ele>
        <time>2026-03-25T08:59:02Z</time>
      </trkpt>
      <trkpt lat="44.69742" lon="6.85399">
        <ele>1902.9</ele>
        <time>2026-03-25T08:59:03Z</time>
      </trkpt>
      <trkpt lat="44.69742" lon="6.85399">
        <ele>1903</ele>
        <time>2026-03-25T08:59:04Z</time>
      </trkpt>
      <trkpt lat="44.69742" lon="6.85399">
        <ele>1903</ele>
        <time>2026-03-25T08:59:05Z</time>
      </trkpt>
      <trkpt lat="44.69742" lon="6.85399">
        <ele>1903</ele>
        <time>2026-03-25T08:59:06Z</time>
      </trkpt>
      <trkpt lat="44.69742" lon="6.85399">
        <ele>1903</ele>
        <time>2026-03-25T08:59:07Z</time>
      </trkpt>
      <trkpt lat="44.69742" lon="6.85399">
        <ele>1903</ele>
        <time>2026-03-25T08:59:08Z</time>
      </trkpt>
      <trkpt lat="44.69742" lon="6.85399">
        <ele>1903</ele>
        <time>2026-03-25T08:59:09Z</time>
      </trkpt>
      <trkpt lat="44.69742" lon="6.85399">
        <ele>1903</ele>
        <time>2026-03-25T08:59:10Z</time>
      </trkpt>
      <trkpt lat="44.69742" lon="6.85399">
        <ele>1903</ele>
        <time>2026-03-25T08:59:11Z</time>
      </trkpt>
      <trkpt lat="44.69742" lon="6.85399">
        <ele>1903</ele>
        <time>2026-03-25T08:59:12Z</time>
      </trkpt>
      <trkpt lat="44.69742" lon="6.85399">
        <ele>1903</ele>
        <time>2026-03-25T08:59:13Z</time>
      </trkpt>
      <trkpt lat="44.69742" lon="6.85399">
        <ele>1903</ele>
        <time>2026-03-25T08:59:14Z</time>
      </trkpt>
      <trkpt lat="44.69742" lon="6.85398">
        <ele>1903</ele>
        <time>2026-03-25T08:59:15Z</time>
      </trkpt>
      <trkpt lat="44.69742" lon="6.85398">
        <ele>1903</ele>
        <time>2026-03-25T08:59:16Z</time>
      </trkpt>
      <trkpt lat="44.69742" lon="6.85398">
        <ele>1903</ele>
        <time>2026-03-25T08:59:17Z</time>
      </trkpt>
      <trkpt lat="44.69742" lon="6.85398">
        <ele>1903</ele>
        <time>2026-03-25T08:59:18Z</time>
      </trkpt>
      <trkpt lat="44.69742" lon="6.85398">
        <ele>1903.1</ele>
        <time>2026-03-25T08:59:19Z</time>
      </trkpt>
      <trkpt lat="44.69742" lon="6.85398">
        <ele>1903.1</ele>
        <time>2026-03-25T08:59:20Z</time>
      </trkpt>
      <trkpt lat="44.69742" lon="6.85398">
        <ele>1903.1</ele>
        <time>2026-03-25T08:59:21Z</time>
      </trkpt>
      <trkpt lat="44.69742" lon="6.85398">
        <ele>1903.1</ele>
        <time>2026-03-25T08:59:22Z</time>
      </trkpt>
      <trkpt lat="44.69742" lon="6.85398">
        <ele>1903.1</ele>
        <time>2026-03-25T08:59:23Z</time>
      </trkpt>
      <trkpt lat="44.69742" lon="6.85398">
        <ele>1903.1</ele>
        <time>2026-03-25T08:59:24Z</time>
      </trkpt>
      <trkpt lat="44.69742" lon="6.85398">
        <ele>1903.1</ele>
        <time>2026-03-25T08:59:25Z</time>
      </trkpt>
      <trkpt lat="44.69742" lon="6.85398">
        <ele>1903.1</ele>
        <time>2026-03-25T08:59:26Z</time>
      </trkpt>
      <trkpt lat="44.69742" lon="6.85398">
        <ele>1903.1</ele>
        <time>2026-03-25T08:59:27Z</time>
      </trkpt>
      <trkpt lat="44.69742" lon="6.85398">
        <ele>1903.1</ele>
        <time>2026-03-25T08:59:28Z</time>
      </trkpt>
      <trkpt lat="44.69742" lon="6.85398">
        <ele>1903.1</ele>
        <time>2026-03-25T08:59:29Z</time>
      </trkpt>
      <trkpt lat="44.69742" lon="6.85398">
        <ele>1903.1</ele>
        <time>2026-03-25T08:59:30Z</time>
      </trkpt>
      <trkpt lat="44.69742" lon="6.85398">
        <ele>1903.1</ele>
        <time>2026-03-25T08:59:32Z</time>
      </trkpt>
      <trkpt lat="44.69742" lon="6.85398">
        <ele>1903.1</ele>
        <time>2026-03-25T08:59:33Z</time>
      </trkpt>
      <trkpt lat="44.69742" lon="6.85398">
        <ele>1903.1</ele>
        <time>2026-03-25T08:59:34Z</time>
      </trkpt>
      <trkpt lat="44.69742" lon="6.85398">
        <ele>1903.1</ele>
        <time>2026-03-25T08:59:35Z</time>
      </trkpt>
      <trkpt lat="44.69742" lon="6.85398">
        <ele>1903.2</ele>
        <time>2026-03-25T08:59:36Z</time>
      </trkpt>
      <trkpt lat="44.69742" lon="6.85398">
        <ele>1903.2</ele>
        <time>2026-03-25T08:59:37Z</time>
      </trkpt>
      <trkpt lat="44.69742" lon="6.85398">
        <ele>1903.2</ele>
        <time>2026-03-25T08:59:38Z</time>
      </trkpt>
      <trkpt lat="44.69742" lon="6.85398">
        <ele>1903.2</ele>
        <time>2026-03-25T08:59:39Z</time>
      </trkpt>
      <trkpt lat="44.69742" lon="6.85398">
        <ele>1903.2</ele>
        <time>2026-03-25T08:59:40Z</time>
      </trkpt>
      <trkpt lat="44.69742" lon="6.85398">
        <ele>1903.2</ele>
        <time>2026-03-25T08:59:41Z</time>
      </trkpt>
      <trkpt lat="44.69742" lon="6.85397">
        <ele>1903.2</ele>
        <time>2026-03-25T08:59:42Z</time>
      </trkpt>
      <trkpt lat="44.69742" lon="6.85397">
        <ele>1903.2</ele>
        <time>2026-03-25T08:59:43Z</time>
      </trkpt>
      <trkpt lat="44.69742" lon="6.85397">
        <ele>1903.2</ele>
        <time>2026-03-25T08:59:44Z</time>
      </trkpt>
      <trkpt lat="44.69742" lon="6.85397">
        <ele>1903.2</ele>
        <time>2026-03-25T08:59:45Z</time>
      </trkpt>
      <trkpt lat="44.69742" lon="6.85397">
        <ele>1903.2</ele>
        <time>2026-03-25T08:59:46Z</time>
      </trkpt>
      <trkpt lat="44.69742" lon="6.85397">
        <ele>1903.2</ele>
        <time>2026-03-25T08:59:47Z</time>
      </trkpt>
      <trkpt lat="44.69742" lon="6.85397">
        <ele>1903.2</ele>
        <time>2026-03-25T08:59:48Z</time>
      </trkpt>
      <trkpt lat="44.69742" lon="6.85397">
        <ele>1903.2</ele>
        <time>2026-03-25T08:59:49Z</time>
      </trkpt>
      <trkpt lat="44.69742" lon="6.85397">
        <ele>1903.2</ele>
        <time>2026-03-25T08:59:50Z</time>
      </trkpt>
      <trkpt lat="44.69742" lon="6.85397">
        <ele>1903.2</ele>
        <time>2026-03-25T08:59:51Z</time>
      </trkpt>
      <trkpt lat="44.69742" lon="6.85397">
        <ele>1903.3</ele>
        <time>2026-03-25T08:59:52Z</time>
      </trkpt>
      <trkpt lat="44.69742" lon="6.85397">
        <ele>1903.3</ele>
        <time>2026-03-25T08:59:53Z</time>
      </trkpt>
      <trkpt lat="44.69742" lon="6.85397">
        <ele>1903.3</ele>
        <time>2026-03-25T08:59:54Z</time>
      </trkpt>
      <trkpt lat="44.69742" lon="6.85397">
        <ele>1903.3</ele>
        <time>2026-03-25T08:59:55Z</time>
      </trkpt>
      <trkpt lat="44.69742" lon="6.85397">
        <ele>1903.3</ele>
        <time>2026-03-25T08:59:56Z</time>
      </trkpt>
      <trkpt lat="44.69742" lon="6.85397">
        <ele>1903.3</ele>
        <time>2026-03-25T08:59:57Z</time>
      </trkpt>
      <trkpt lat="44.69742" lon="6.85397">
        <ele>1903.3</ele>
        <time>2026-03-25T08:59:58Z</time>
      </trkpt>
      <trkpt lat="44.69742" lon="6.85397">
        <ele>1903.3</ele>
        <time>2026-03-25T08:59:59Z</time>
      </trkpt>
      <trkpt lat="44.69742" lon="6.85397">
        <ele>1903.3</ele>
        <time>2026-03-25T09:00:00Z</time>
      </trkpt>
      <trkpt lat="44.69742" lon="6.85397">
        <ele>1903.3</ele>
        <time>2026-03-25T09:00:01Z</time>
      </trkpt>
      <trkpt lat="44.69742" lon="6.85397">
        <ele>1903.3</ele>
        <time>2026-03-25T09:00:02Z</time>
      </trkpt>
      <trkpt lat="44.69742" lon="6.85397">
        <ele>1903.3</ele>
        <time>2026-03-25T09:00:03Z</time>
      </trkpt>
      <trkpt lat="44.69742" lon="6.85397">
        <ele>1903.3</ele>
        <time>2026-03-25T09:00:04Z</time>
      </trkpt>
      <trkpt lat="44.69742" lon="6.85397">
        <ele>1903.3</ele>
        <time>2026-03-25T09:00:05Z</time>
      </trkpt>
      <trkpt lat="44.69742" lon="6.85397">
        <ele>1903.3</ele>
        <time>2026-03-25T09:00:06Z</time>
      </trkpt>
      <trkpt lat="44.69742" lon="6.85397">
        <ele>1903.3</ele>
        <time>2026-03-25T09:00:07Z</time>
      </trkpt>
      <trkpt lat="44.69742" lon="6.85397">
        <ele>1903.4</ele>
        <time>2026-03-25T09:00:08Z</time>
      </trkpt>
      <trkpt lat="44.69742" lon="6.85397">
        <ele>1903.4</ele>
        <time>2026-03-25T09:00:09Z</time>
      </trkpt>
      <trkpt lat="44.69742" lon="6.85397">
        <ele>1903.4</ele>
        <time>2026-03-25T09:00:10Z</time>
      </trkpt>
      <trkpt lat="44.69742" lon="6.85397">
        <ele>1903.4</ele>
        <time>2026-03-25T09:00:11Z</time>
      </trkpt>
      <trkpt lat="44.69742" lon="6.85397">
        <ele>1903.4</ele>
        <time>2026-03-25T09:00:12Z</time>
      </trkpt>
      <trkpt lat="44.69742" lon="6.85397">
        <ele>1903.4</ele>
        <time>2026-03-25T09:00:13Z</time>
      </trkpt>
      <trkpt lat="44.69742" lon="6.85397">
        <ele>1903.4</ele>
        <time>2026-03-25T09:00:14Z</time>
      </trkpt>
      <trkpt lat="44.69742" lon="6.85397">
        <ele>1903.4</ele>
        <time>2026-03-25T09:00:15Z</time>
      </trkpt>
      <trkpt lat="44.69742" lon="6.85397">
        <ele>1903.4</ele>
        <time>2026-03-25T09:00:16Z</time>
      </trkpt>
      <trkpt lat="44.69742" lon="6.85397">
        <ele>1903.4</ele>
        <time>2026-03-25T09:00:17Z</time>
      </trkpt>
      <trkpt lat="44.69742" lon="6.85397">
        <ele>1903.4</ele>
        <time>2026-03-25T09:00:18Z</time>
      </trkpt>
      <trkpt lat="44.69742" lon="6.85397">
        <ele>1903.4</ele>
        <time>2026-03-25T09:00:19Z</time>
      </trkpt>
      <trkpt lat="44.69742" lon="6.85397">
        <ele>1903.4</ele>
        <time>2026-03-25T09:00:20Z</time>
      </trkpt>
      <trkpt lat="44.69742" lon="6.85397">
        <ele>1903.4</ele>
        <time>2026-03-25T09:00:21Z</time>
      </trkpt>
      <trkpt lat="44.69742" lon="6.85397">
        <ele>1903.4</ele>
        <time>2026-03-25T09:00:22Z</time>
      </trkpt>
      <trkpt lat="44.69742" lon="6.85397">
        <ele>1903.4</ele>
        <time>2026-03-25T09:00:23Z</time>
      </trkpt>
      <trkpt lat="44.69742" lon="6.85397">
        <ele>1903.5</ele>
        <time>2026-03-25T09:00:24Z</time>
      </trkpt>
      <trkpt lat="44.69742" lon="6.85397">
        <ele>1903.5</ele>
        <time>2026-03-25T09:00:25Z</time>
      </trkpt>
      <trkpt lat="44.69742" lon="6.85397">
        <ele>1903.5</ele>
        <time>2026-03-25T09:00:26Z</time>
      </trkpt>
      <trkpt lat="44.69742" lon="6.85397">
        <ele>1903.5</ele>
        <time>2026-03-25T09:00:27Z</time>
      </trkpt>
      <trkpt lat="44.69742" lon="6.85397">
        <ele>1903.5</ele>
        <time>2026-03-25T09:00:28Z</time>
      </trkpt>
      <trkpt lat="44.69742" lon="6.85397">
        <ele>1903.5</ele>
        <time>2026-03-25T09:00:29Z</time>
      </trkpt>
      <trkpt lat="44.69742" lon="6.85397">
        <ele>1903.5</ele>
        <time>2026-03-25T09:00:30Z</time>
      </trkpt>
      <trkpt lat="44.69742" lon="6.85397">
        <ele>1903.5</ele>
        <time>2026-03-25T09:00:31Z</time>
      </trkpt>
      <trkpt lat="44.69742" lon="6.85397">
        <ele>1903.5</ele>
        <time>2026-03-25T09:00:32Z</time>
      </trkpt>
      <trkpt lat="44.69742" lon="6.85397">
        <ele>1903.5</ele>
        <time>2026-03-25T09:00:33Z</time>
      </trkpt>
      <trkpt lat="44.69742" lon="6.85397">
        <ele>1903.5</ele>
        <time>2026-03-25T09:00:34Z</time>
      </trkpt>
      <trkpt lat="44.69742" lon="6.85397">
        <ele>1903.5</ele>
        <time>2026-03-25T09:00:35Z</time>
      </trkpt>
      <trkpt lat="44.69742" lon="6.85397">
        <ele>1903.5</ele>
        <time>2026-03-25T09:00:36Z</time>
      </trkpt>
      <trkpt lat="44.69742" lon="6.85397">
        <ele>1903.5</ele>
        <time>2026-03-25T09:00:37Z</time>
      </trkpt>
      <trkpt lat="44.69742" lon="6.85397">
        <ele>1903.5</ele>
        <time>2026-03-25T09:00:38Z</time>
      </trkpt>
      <trkpt lat="44.69742" lon="6.85397">
        <ele>1903.5</ele>
        <time>2026-03-25T09:00:39Z</time>
      </trkpt>
      <trkpt lat="44.69742" lon="6.85397">
        <ele>1903.6</ele>
        <time>2026-03-25T09:00:40Z</time>
      </trkpt>
      <trkpt lat="44.69742" lon="6.85397">
        <ele>1903.6</ele>
        <time>2026-03-25T09:00:41Z</time>
      </trkpt>
      <trkpt lat="44.69742" lon="6.85397">
        <ele>1903.6</ele>
        <time>2026-03-25T09:00:42Z</time>
      </trkpt>
      <trkpt lat="44.69742" lon="6.85397">
        <ele>1903.6</ele>
        <time>2026-03-25T09:00:43Z</time>
      </trkpt>
      <trkpt lat="44.69742" lon="6.85397">
        <ele>1903.6</ele>
        <time>2026-03-25T09:00:44Z</time>
      </trkpt>
      <trkpt lat="44.69742" lon="6.85397">
        <ele>1903.6</ele>
        <time>2026-03-25T09:00:45Z</time>
      </trkpt>
      <trkpt lat="44.69742" lon="6.85397">
        <ele>1903.9</ele>
        <time>2026-03-25T09:00:46Z</time>
      </trkpt>
      <trkpt lat="44.69742" lon="6.85397">
        <ele>1903.9</ele>
        <time>2026-03-25T09:00:47Z</time>
      </trkpt>
      <trkpt lat="44.69742" lon="6.85396">
        <ele>1903.9</ele>
        <time>2026-03-25T09:00:48Z</time>
      </trkpt>
      <trkpt lat="44.69742" lon="6.85396">
        <ele>1903.9</ele>
        <time>2026-03-25T09:00:49Z</time>
      </trkpt>
      <trkpt lat="44.69742" lon="6.85396">
        <ele>1903.9</ele>
        <time>2026-03-25T09:00:50Z</time>
      </trkpt>
      <trkpt lat="44.69742" lon="6.85396">
        <ele>1903.9</ele>
        <time>2026-03-25T09:00:51Z</time>
      </trkpt>
      <trkpt lat="44.69742" lon="6.85396">
        <ele>1903.9</ele>
        <time>2026-03-25T09:00:52Z</time>
      </trkpt>
      <trkpt lat="44.69742" lon="6.85396">
        <ele>1903.9</ele>
        <time>2026-03-25T09:00:53Z</time>
      </trkpt>
      <trkpt lat="44.69742" lon="6.85396">
        <ele>1904</ele>
        <time>2026-03-25T09:00:54Z</time>
      </trkpt>
      <trkpt lat="44.69742" lon="6.85396">
        <ele>1904</ele>
        <time>2026-03-25T09:00:55Z</time>
      </trkpt>
      <trkpt lat="44.69742" lon="6.85396">
        <ele>1904</ele>
        <time>2026-03-25T09:00:56Z</time>
      </trkpt>
      <trkpt lat="44.69742" lon="6.85396">
        <ele>1904</ele>
        <time>2026-03-25T09:00:57Z</time>
      </trkpt>
      <trkpt lat="44.69742" lon="6.85396">
        <ele>1904</ele>
        <time>2026-03-25T09:00:58Z</time>
      </trkpt>
      <trkpt lat="44.69742" lon="6.85396">
        <ele>1904</ele>
        <time>2026-03-25T09:00:59Z</time>
      </trkpt>
      <trkpt lat="44.69742" lon="6.85396">
        <ele>1904</ele>
        <time>2026-03-25T09:01:00Z</time>
      </trkpt>
      <trkpt lat="44.69742" lon="6.85396">
        <ele>1904</ele>
        <time>2026-03-25T09:01:01Z</time>
      </trkpt>
      <trkpt lat="44.69742" lon="6.85396">
        <ele>1904</ele>
        <time>2026-03-25T09:01:02Z</time>
      </trkpt>
      <trkpt lat="44.69742" lon="6.85396">
        <ele>1904</ele>
        <time>2026-03-25T09:01:03Z</time>
      </trkpt>
      <trkpt lat="44.69742" lon="6.85395">
        <ele>1904</ele>
        <time>2026-03-25T09:01:04Z</time>
      </trkpt>
      <trkpt lat="44.69742" lon="6.85395">
        <ele>1904</ele>
        <time>2026-03-25T09:01:05Z</time>
      </trkpt>
      <trkpt lat="44.69742" lon="6.85395">
        <ele>1904</ele>
        <time>2026-03-25T09:01:06Z</time>
      </trkpt>
      <trkpt lat="44.69741" lon="6.85395">
        <ele>1904</ele>
        <time>2026-03-25T09:01:07Z</time>
      </trkpt>
      <trkpt lat="44.69741" lon="6.85395">
        <ele>1904</ele>
        <time>2026-03-25T09:01:08Z</time>
      </trkpt>
      <trkpt lat="44.69741" lon="6.85395">
        <ele>1904</ele>
        <time>2026-03-25T09:01:09Z</time>
      </trkpt>
      <trkpt lat="44.69741" lon="6.85394">
        <ele>1904.1</ele>
        <time>2026-03-25T09:01:10Z</time>
      </trkpt>
      <trkpt lat="44.69741" lon="6.85394">
        <ele>1904.1</ele>
        <time>2026-03-25T09:01:11Z</time>
      </trkpt>
      <trkpt lat="44.6974" lon="6.85394">
        <ele>1904.1</ele>
        <time>2026-03-25T09:01:12Z</time>
      </trkpt>
      <trkpt lat="44.6974" lon="6.85394">
        <ele>1904.1</ele>
        <time>2026-03-25T09:01:13Z</time>
      </trkpt>
      <trkpt lat="44.6974" lon="6.85394">
        <ele>1904.1</ele>
        <time>2026-03-25T09:01:14Z</time>
      </trkpt>
      <trkpt lat="44.69739" lon="6.85393">
        <ele>1904.2</ele>
        <time>2026-03-25T09:01:15Z</time>
      </trkpt>
      <trkpt lat="44.69739" lon="6.85393">
        <ele>1904.2</ele>
        <time>2026-03-25T09:01:16Z</time>
      </trkpt>
      <trkpt lat="44.69738" lon="6.85393">
        <ele>1904.2</ele>
        <time>2026-03-25T09:01:17Z</time>
      </trkpt>
      <trkpt lat="44.69737" lon="6.85392">
        <ele>1904.5</ele>
        <time>2026-03-25T09:01:18Z</time>
      </trkpt>
      <trkpt lat="44.69737" lon="6.85391">
        <ele>1904.5</ele>
        <time>2026-03-25T09:01:19Z</time>
      </trkpt>
      <trkpt lat="44.69736" lon="6.85391">
        <ele>1904.5</ele>
        <time>2026-03-25T09:01:20Z</time>
      </trkpt>
      <trkpt lat="44.69736" lon="6.8539">
        <ele>1904.6</ele>
        <time>2026-03-25T09:01:21Z</time>
      </trkpt>
      <trkpt lat="44.69734" lon="6.85389">
        <ele>1904.6</ele>
        <time>2026-03-25T09:01:22Z</time>
      </trkpt>
      <trkpt lat="44.69734" lon="6.85388">
        <ele>1904.6</ele>
        <time>2026-03-25T09:01:23Z</time>
      </trkpt>
      <trkpt lat="44.69733" lon="6.85388">
        <ele>1904.9</ele>
        <time>2026-03-25T09:01:24Z</time>
      </trkpt>
      <trkpt lat="44.69733" lon="6.85387">
        <ele>1904.9</ele>
        <time>2026-03-25T09:01:25Z</time>
      </trkpt>
      <trkpt lat="44.69732" lon="6.85386">
        <ele>1905</ele>
        <time>2026-03-25T09:01:26Z</time>
      </trkpt>
      <trkpt lat="44.69731" lon="6.85386">
        <ele>1905</ele>
        <time>2026-03-25T09:01:28Z</time>
      </trkpt>
      <trkpt lat="44.6973" lon="6.85385">
        <ele>1905.1</ele>
        <time>2026-03-25T09:01:29Z</time>
      </trkpt>
      <trkpt lat="44.6973" lon="6.85385">
        <ele>1905.1</ele>
        <time>2026-03-25T09:01:30Z</time>
      </trkpt>
      <trkpt lat="44.69729" lon="6.85385">
        <ele>1905.1</ele>
        <time>2026-03-25T09:01:31Z</time>
      </trkpt>
      <trkpt lat="44.69728" lon="6.85384">
        <ele>1905.1</ele>
        <time>2026-03-25T09:01:32Z</time>
      </trkpt>
      <trkpt lat="44.69728" lon="6.85384">
        <ele>1905.1</ele>
        <time>2026-03-25T09:01:33Z</time>
      </trkpt>
      <trkpt lat="44.69727" lon="6.85384">
        <ele>1905.6</ele>
        <time>2026-03-25T09:01:34Z</time>
      </trkpt>
      <trkpt lat="44.69727" lon="6.85383">
        <ele>1905.6</ele>
        <time>2026-03-25T09:01:35Z</time>
      </trkpt>
      <trkpt lat="44.69726" lon="6.85383">
        <ele>1905.6</ele>
        <time>2026-03-25T09:01:36Z</time>
      </trkpt>
      <trkpt lat="44.69725" lon="6.85383">
        <ele>1905.6</ele>
        <time>2026-03-25T09:01:37Z</time>
      </trkpt>
      <trkpt lat="44.69725" lon="6.85383">
        <ele>1905.6</ele>
        <time>2026-03-25T09:01:38Z</time>
      </trkpt>
      <trkpt lat="44.69724" lon="6.85382">
        <ele>1905.8</ele>
        <time>2026-03-25T09:01:39Z</time>
      </trkpt>
      <trkpt lat="44.69724" lon="6.85382">
        <ele>1905.8</ele>
        <time>2026-03-25T09:01:40Z</time>
      </trkpt>
      <trkpt lat="44.69724" lon="6.85382">
        <ele>1905.8</ele>
        <time>2026-03-25T09:01:41Z</time>
      </trkpt>
      <trkpt lat="44.69723" lon="6.85381">
        <ele>1905.9</ele>
        <time>2026-03-25T09:01:42Z</time>
      </trkpt>
      <trkpt lat="44.69723" lon="6.85381">
        <ele>1905.9</ele>
        <time>2026-03-25T09:01:43Z</time>
      </trkpt>
      <trkpt lat="44.69722" lon="6.85381">
        <ele>1905.9</ele>
        <time>2026-03-25T09:01:44Z</time>
      </trkpt>
      <trkpt lat="44.69721" lon="6.8538">
        <ele>1905.9</ele>
        <time>2026-03-25T09:01:45Z</time>
      </trkpt>
      <trkpt lat="44.69721" lon="6.8538">
        <ele>1906.1</ele>
        <time>2026-03-25T09:01:46Z</time>
      </trkpt>
      <trkpt lat="44.6972" lon="6.8538">
        <ele>1906.1</ele>
        <time>2026-03-25T09:01:47Z</time>
      </trkpt>
      <trkpt lat="44.6972" lon="6.85379">
        <ele>1906.4</ele>
        <time>2026-03-25T09:01:48Z</time>
      </trkpt>
      <trkpt lat="44.69719" lon="6.85379">
        <ele>1906.4</ele>
        <time>2026-03-25T09:01:49Z</time>
      </trkpt>
      <trkpt lat="44.69719" lon="6.85379">
        <ele>1906.4</ele>
        <time>2026-03-25T09:01:50Z</time>
      </trkpt>
      <trkpt lat="44.69719" lon="6.85379">
        <ele>1906.4</ele>
        <time>2026-03-25T09:01:51Z</time>
      </trkpt>
      <trkpt lat="44.69719" lon="6.85379">
        <ele>1906.4</ele>
        <time>2026-03-25T09:01:52Z</time>
      </trkpt>
      <trkpt lat="44.69719" lon="6.85379">
        <ele>1906.4</ele>
        <time>2026-03-25T09:01:53Z</time>
      </trkpt>
      <trkpt lat="44.69719" lon="6.85379">
        <ele>1906.5</ele>
        <time>2026-03-25T09:01:54Z</time>
      </trkpt>
      <trkpt lat="44.69719" lon="6.85379">
        <ele>1906.5</ele>
        <time>2026-03-25T09:01:55Z</time>
      </trkpt>
      <trkpt lat="44.69719" lon="6.85379">
        <ele>1906.5</ele>
        <time>2026-03-25T09:01:56Z</time>
      </trkpt>
      <trkpt lat="44.69719" lon="6.85379">
        <ele>1906.5</ele>
        <time>2026-03-25T09:01:57Z</time>
      </trkpt>
      <trkpt lat="44.69718" lon="6.85379">
        <ele>1906.5</ele>
        <time>2026-03-25T09:01:58Z</time>
      </trkpt>
      <trkpt lat="44.69718" lon="6.85379">
        <ele>1906.8</ele>
        <time>2026-03-25T09:01:59Z</time>
      </trkpt>
      <trkpt lat="44.69717" lon="6.85378">
        <ele>1906.8</ele>
        <time>2026-03-25T09:02:00Z</time>
      </trkpt>
      <trkpt lat="44.69717" lon="6.85378">
        <ele>1906.8</ele>
        <time>2026-03-25T09:02:01Z</time>
      </trkpt>
      <trkpt lat="44.69716" lon="6.85377">
        <ele>1906.8</ele>
        <time>2026-03-25T09:02:02Z</time>
      </trkpt>
      <trkpt lat="44.69715" lon="6.85377">
        <ele>1907</ele>
        <time>2026-03-25T09:02:03Z</time>
      </trkpt>
      <trkpt lat="44.69715" lon="6.85377">
        <ele>1907</ele>
        <time>2026-03-25T09:02:04Z</time>
      </trkpt>
      <trkpt lat="44.69714" lon="6.85376">
        <ele>1907</ele>
        <time>2026-03-25T09:02:05Z</time>
      </trkpt>
      <trkpt lat="44.69713" lon="6.85375">
        <ele>1907</ele>
        <time>2026-03-25T09:02:06Z</time>
      </trkpt>
      <trkpt lat="44.69712" lon="6.85375">
        <ele>1907.3</ele>
        <time>2026-03-25T09:02:07Z</time>
      </trkpt>
      <trkpt lat="44.69712" lon="6.85374">
        <ele>1907.6</ele>
        <time>2026-03-25T09:02:08Z</time>
      </trkpt>
      <trkpt lat="44.69711" lon="6.85374">
        <ele>1907.6</ele>
        <time>2026-03-25T09:02:10Z</time>
      </trkpt>
      <trkpt lat="44.69711" lon="6.85373">
        <ele>1907.6</ele>
        <time>2026-03-25T09:02:11Z</time>
      </trkpt>
      <trkpt lat="44.6971" lon="6.85373">
        <ele>1907.6</ele>
        <time>2026-03-25T09:02:12Z</time>
      </trkpt>
      <trkpt lat="44.6971" lon="6.85373">
        <ele>1907.6</ele>
        <time>2026-03-25T09:02:13Z</time>
      </trkpt>
      <trkpt lat="44.69709" lon="6.85372">
        <ele>1907.7</ele>
        <time>2026-03-25T09:02:14Z</time>
      </trkpt>
      <trkpt lat="44.69709" lon="6.85371">
        <ele>1907.8</ele>
        <time>2026-03-25T09:02:15Z</time>
      </trkpt>
      <trkpt lat="44.69708" lon="6.8537">
        <ele>1908.1</ele>
        <time>2026-03-25T09:02:16Z</time>
      </trkpt>
      <trkpt lat="44.69707" lon="6.8537">
        <ele>1908.2</ele>
        <time>2026-03-25T09:02:18Z</time>
      </trkpt>
      <trkpt lat="44.69706" lon="6.85369">
        <ele>1908.3</ele>
        <time>2026-03-25T09:02:19Z</time>
      </trkpt>
      <trkpt lat="44.69706" lon="6.85369">
        <ele>1908.4</ele>
        <time>2026-03-25T09:02:20Z</time>
      </trkpt>
      <trkpt lat="44.69706" lon="6.85368">
        <ele>1908.5</ele>
        <time>2026-03-25T09:02:21Z</time>
      </trkpt>
      <trkpt lat="44.69705" lon="6.85368">
        <ele>1908.6</ele>
        <time>2026-03-25T09:02:22Z</time>
      </trkpt>
      <trkpt lat="44.69705" lon="6.85367">
        <ele>1908.7</ele>
        <time>2026-03-25T09:02:23Z</time>
      </trkpt>
      <trkpt lat="44.69704" lon="6.85366">
        <ele>1908.8</ele>
        <time>2026-03-25T09:02:24Z</time>
      </trkpt>
      <trkpt lat="44.69704" lon="6.85366">
        <ele>1908.9</ele>
        <time>2026-03-25T09:02:25Z</time>
      </trkpt>
      <trkpt lat="44.69703" lon="6.85365">
        <ele>1909.1</ele>
        <time>2026-03-25T09:02:26Z</time>
      </trkpt>
      <trkpt lat="44.69703" lon="6.85364">
        <ele>1909.2</ele>
        <time>2026-03-25T09:02:27Z</time>
      </trkpt>
      <trkpt lat="44.69703" lon="6.85363">
        <ele>1909.3</ele>
        <time>2026-03-25T09:02:28Z</time>
      </trkpt>
      <trkpt lat="44.69702" lon="6.85363">
        <ele>1909.4</ele>
        <time>2026-03-25T09:02:29Z</time>
      </trkpt>
      <trkpt lat="44.69702" lon="6.85362">
        <ele>1909.5</ele>
        <time>2026-03-25T09:02:30Z</time>
      </trkpt>
      <trkpt lat="44.69701" lon="6.85361">
        <ele>1909.6</ele>
        <time>2026-03-25T09:02:31Z</time>
      </trkpt>
      <trkpt lat="44.69701" lon="6.85361">
        <ele>1909.7</ele>
        <time>2026-03-25T09:02:32Z</time>
      </trkpt>
      <trkpt lat="44.69701" lon="6.8536">
        <ele>1909.9</ele>
        <time>2026-03-25T09:02:33Z</time>
      </trkpt>
      <trkpt lat="44.697" lon="6.85359">
        <ele>1910.1</ele>
        <time>2026-03-25T09:02:34Z</time>
      </trkpt>
      <trkpt lat="44.69699" lon="6.85358">
        <ele>1910.1</ele>
        <time>2026-03-25T09:02:35Z</time>
      </trkpt>
      <trkpt lat="44.69699" lon="6.85358">
        <ele>1910.2</ele>
        <time>2026-03-25T09:02:36Z</time>
      </trkpt>
      <trkpt lat="44.69698" lon="6.85357">
        <ele>1910.3</ele>
        <time>2026-03-25T09:02:37Z</time>
      </trkpt>
      <trkpt lat="44.69698" lon="6.85357">
        <ele>1910.5</ele>
        <time>2026-03-25T09:02:39Z</time>
      </trkpt>
      <trkpt lat="44.69697" lon="6.85356">
        <ele>1910.6</ele>
        <time>2026-03-25T09:02:40Z</time>
      </trkpt>
      <trkpt lat="44.69696" lon="6.85355">
        <ele>1910.7</ele>
        <time>2026-03-25T09:02:41Z</time>
      </trkpt>
      <trkpt lat="44.69696" lon="6.85355">
        <ele>1910.9</ele>
        <time>2026-03-25T09:02:42Z</time>
      </trkpt>
      <trkpt lat="44.69694" lon="6.85353">
        <ele>1911.2</ele>
        <time>2026-03-25T09:02:43Z</time>
      </trkpt>
      <trkpt lat="44.69693" lon="6.85353">
        <ele>1911.4</ele>
        <time>2026-03-25T09:02:45Z</time>
      </trkpt>
      <trkpt lat="44.69692" lon="6.85352">
        <ele>1911.5</ele>
        <time>2026-03-25T09:02:46Z</time>
      </trkpt>
      <trkpt lat="44.69691" lon="6.85352">
        <ele>1911.6</ele>
        <time>2026-03-25T09:02:47Z</time>
      </trkpt>
      <trkpt lat="44.6969" lon="6.85351">
        <ele>1911.7</ele>
        <time>2026-03-25T09:02:48Z</time>
      </trkpt>
      <trkpt lat="44.6969" lon="6.85351">
        <ele>1911.8</ele>
        <time>2026-03-25T09:02:49Z</time>
      </trkpt>
      <trkpt lat="44.6969" lon="6.85351">
        <ele>1911.9</ele>
        <time>2026-03-25T09:02:50Z</time>
      </trkpt>
      <trkpt lat="44.69689" lon="6.8535">
        <ele>1912</ele>
        <time>2026-03-25T09:02:51Z</time>
      </trkpt>
      <trkpt lat="44.69688" lon="6.8535">
        <ele>1912.1</ele>
        <time>2026-03-25T09:02:52Z</time>
      </trkpt>
      <trkpt lat="44.69687" lon="6.85349">
        <ele>1912.2</ele>
        <time>2026-03-25T09:02:54Z</time>
      </trkpt>
      <trkpt lat="44.69687" lon="6.85349">
        <ele>1912.3</ele>
        <time>2026-03-25T09:02:55Z</time>
      </trkpt>
      <trkpt lat="44.69686" lon="6.85348">
        <ele>1912.4</ele>
        <time>2026-03-25T09:02:56Z</time>
      </trkpt>
      <trkpt lat="44.69686" lon="6.85348">
        <ele>1912.5</ele>
        <time>2026-03-25T09:02:57Z</time>
      </trkpt>
      <trkpt lat="44.69685" lon="6.85347">
        <ele>1912.5</ele>
        <time>2026-03-25T09:02:58Z</time>
      </trkpt>
      <trkpt lat="44.69685" lon="6.85347">
        <ele>1912.6</ele>
        <time>2026-03-25T09:02:59Z</time>
      </trkpt>
      <trkpt lat="44.69684" lon="6.85346">
        <ele>1912.7</ele>
        <time>2026-03-25T09:03:00Z</time>
      </trkpt>
      <trkpt lat="44.69684" lon="6.85345">
        <ele>1912.8</ele>
        <time>2026-03-25T09:03:02Z</time>
      </trkpt>
      <trkpt lat="44.69683" lon="6.85345">
        <ele>1913</ele>
        <time>2026-03-25T09:03:03Z</time>
      </trkpt>
      <trkpt lat="44.69682" lon="6.85344">
        <ele>1913.1</ele>
        <time>2026-03-25T09:03:04Z</time>
      </trkpt>
      <trkpt lat="44.69681" lon="6.85344">
        <ele>1913.2</ele>
        <time>2026-03-25T09:03:06Z</time>
      </trkpt>
      <trkpt lat="44.6968" lon="6.85344">
        <ele>1913.3</ele>
        <time>2026-03-25T09:03:07Z</time>
      </trkpt>
      <trkpt lat="44.6968" lon="6.85343">
        <ele>1913.4</ele>
        <time>2026-03-25T09:03:08Z</time>
      </trkpt>
      <trkpt lat="44.69679" lon="6.85343">
        <ele>1913.5</ele>
        <time>2026-03-25T09:03:09Z</time>
      </trkpt>
      <trkpt lat="44.69678" lon="6.85342">
        <ele>1913.6</ele>
        <time>2026-03-25T09:03:10Z</time>
      </trkpt>
      <trkpt lat="44.69678" lon="6.85342">
        <ele>1913.7</ele>
        <time>2026-03-25T09:03:11Z</time>
      </trkpt>
      <trkpt lat="44.69678" lon="6.85342">
        <ele>1913.8</ele>
        <time>2026-03-25T09:03:12Z</time>
      </trkpt>
      <trkpt lat="44.69677" lon="6.85341">
        <ele>1913.9</ele>
        <time>2026-03-25T09:03:13Z</time>
      </trkpt>
      <trkpt lat="44.69677" lon="6.85341">
        <ele>1913.9</ele>
        <time>2026-03-25T09:03:14Z</time>
      </trkpt>
      <trkpt lat="44.69676" lon="6.8534">
        <ele>1914</ele>
        <time>2026-03-25T09:03:15Z</time>
      </trkpt>
      <trkpt lat="44.69676" lon="6.8534">
        <ele>1914.1</ele>
        <time>2026-03-25T09:03:16Z</time>
      </trkpt>
      <trkpt lat="44.69676" lon="6.8534">
        <ele>1914.1</ele>
        <time>2026-03-25T09:03:17Z</time>
      </trkpt>
      <trkpt lat="44.69675" lon="6.8534">
        <ele>1914.2</ele>
        <time>2026-03-25T09:03:18Z</time>
      </trkpt>
      <trkpt lat="44.69675" lon="6.85339">
        <ele>1914.2</ele>
        <time>2026-03-25T09:03:19Z</time>
      </trkpt>
      <trkpt lat="44.69674" lon="6.85339">
        <ele>1914.3</ele>
        <time>2026-03-25T09:03:20Z</time>
      </trkpt>
      <trkpt lat="44.69674" lon="6.85339">
        <ele>1914.4</ele>
        <time>2026-03-25T09:03:21Z</time>
      </trkpt>
      <trkpt lat="44.69674" lon="6.85339">
        <ele>1914.5</ele>
        <time>2026-03-25T09:03:22Z</time>
      </trkpt>
      <trkpt lat="44.69673" lon="6.85338">
        <ele>1914.6</ele>
        <time>2026-03-25T09:03:23Z</time>
      </trkpt>
      <trkpt lat="44.69673" lon="6.85338">
        <ele>1914.6</ele>
        <time>2026-03-25T09:03:24Z</time>
      </trkpt>
      <trkpt lat="44.69672" lon="6.85338">
        <ele>1914.7</ele>
        <time>2026-03-25T09:03:25Z</time>
      </trkpt>
      <trkpt lat="44.69671" lon="6.85337">
        <ele>1914.8</ele>
        <time>2026-03-25T09:03:26Z</time>
      </trkpt>
      <trkpt lat="44.69671" lon="6.85337">
        <ele>1914.9</ele>
        <time>2026-03-25T09:03:27Z</time>
      </trkpt>
      <trkpt lat="44.6967" lon="6.85336">
        <ele>1915</ele>
        <time>2026-03-25T09:03:28Z</time>
      </trkpt>
      <trkpt lat="44.6967" lon="6.85336">
        <ele>1915.1</ele>
        <time>2026-03-25T09:03:29Z</time>
      </trkpt>
      <trkpt lat="44.69669" lon="6.85336">
        <ele>1915.2</ele>
        <time>2026-03-25T09:03:30Z</time>
      </trkpt>
      <trkpt lat="44.69669" lon="6.85335">
        <ele>1915.3</ele>
        <time>2026-03-25T09:03:31Z</time>
      </trkpt>
      <trkpt lat="44.69668" lon="6.85335">
        <ele>1915.4</ele>
        <time>2026-03-25T09:03:32Z</time>
      </trkpt>
      <trkpt lat="44.69668" lon="6.85334">
        <ele>1915.4</ele>
        <time>2026-03-25T09:03:33Z</time>
      </trkpt>
      <trkpt lat="44.69667" lon="6.85334">
        <ele>1915.5</ele>
        <time>2026-03-25T09:03:34Z</time>
      </trkpt>
      <trkpt lat="44.69667" lon="6.85334">
        <ele>1915.7</ele>
        <time>2026-03-25T09:03:36Z</time>
      </trkpt>
      <trkpt lat="44.69666" lon="6.85333">
        <ele>1915.8</ele>
        <time>2026-03-25T09:03:37Z</time>
      </trkpt>
      <trkpt lat="44.69666" lon="6.85333">
        <ele>1915.9</ele>
        <time>2026-03-25T09:03:38Z</time>
      </trkpt>
      <trkpt lat="44.69665" lon="6.85332">
        <ele>1916</ele>
        <time>2026-03-25T09:03:39Z</time>
      </trkpt>
      <trkpt lat="44.69664" lon="6.85332">
        <ele>1916.1</ele>
        <time>2026-03-25T09:03:40Z</time>
      </trkpt>
      <trkpt lat="44.69664" lon="6.85332">
        <ele>1916.2</ele>
        <time>2026-03-25T09:03:41Z</time>
      </trkpt>
      <trkpt lat="44.69663" lon="6.85331">
        <ele>1916.3</ele>
        <time>2026-03-25T09:03:42Z</time>
      </trkpt>
      <trkpt lat="44.69663" lon="6.85331">
        <ele>1916.3</ele>
        <time>2026-03-25T09:03:43Z</time>
      </trkpt>
      <trkpt lat="44.69662" lon="6.85331">
        <ele>1916.4</ele>
        <time>2026-03-25T09:03:44Z</time>
      </trkpt>
      <trkpt lat="44.69662" lon="6.85331">
        <ele>1916.5</ele>
        <time>2026-03-25T09:03:45Z</time>
      </trkpt>
      <trkpt lat="44.69661" lon="6.85331">
        <ele>1916.6</ele>
        <time>2026-03-25T09:03:46Z</time>
      </trkpt>
      <trkpt lat="44.6966" lon="6.8533">
        <ele>1916.7</ele>
        <time>2026-03-25T09:03:47Z</time>
      </trkpt>
      <trkpt lat="44.6966" lon="6.8533">
        <ele>1916.8</ele>
        <time>2026-03-25T09:03:48Z</time>
      </trkpt>
      <trkpt lat="44.69659" lon="6.8533">
        <ele>1916.9</ele>
        <time>2026-03-25T09:03:49Z</time>
      </trkpt>
      <trkpt lat="44.69659" lon="6.8533">
        <ele>1917</ele>
        <time>2026-03-25T09:03:50Z</time>
      </trkpt>
      <trkpt lat="44.69658" lon="6.8533">
        <ele>1917</ele>
        <time>2026-03-25T09:03:51Z</time>
      </trkpt>
      <trkpt lat="44.69658" lon="6.8533">
        <ele>1917.1</ele>
        <time>2026-03-25T09:03:52Z</time>
      </trkpt>
      <trkpt lat="44.69657" lon="6.8533">
        <ele>1917.2</ele>
        <time>2026-03-25T09:03:53Z</time>
      </trkpt>
      <trkpt lat="44.69657" lon="6.85329">
        <ele>1917.3</ele>
        <time>2026-03-25T09:03:54Z</time>
      </trkpt>
      <trkpt lat="44.69656" lon="6.85329">
        <ele>1917.3</ele>
        <time>2026-03-25T09:03:55Z</time>
      </trkpt>
      <trkpt lat="44.69656" lon="6.85329">
        <ele>1917.4</ele>
        <time>2026-03-25T09:03:56Z</time>
      </trkpt>
      <trkpt lat="44.69655" lon="6.85329">
        <ele>1917.5</ele>
        <time>2026-03-25T09:03:57Z</time>
      </trkpt>
      <trkpt lat="44.69655" lon="6.85328">
        <ele>1917.6</ele>
        <time>2026-03-25T09:03:59Z</time>
      </trkpt>
      <trkpt lat="44.69654" lon="6.85328">
        <ele>1917.6</ele>
        <time>2026-03-25T09:04:00Z</time>
      </trkpt>
      <trkpt lat="44.69654" lon="6.85328">
        <ele>1917.7</ele>
        <time>2026-03-25T09:04:01Z</time>
      </trkpt>
      <trkpt lat="44.69654" lon="6.85328">
        <ele>1917.7</ele>
        <time>2026-03-25T09:04:02Z</time>
      </trkpt>
      <trkpt lat="44.69653" lon="6.85328">
        <ele>1917.8</ele>
        <time>2026-03-25T09:04:03Z</time>
      </trkpt>
      <trkpt lat="44.69653" lon="6.85328">
        <ele>1917.8</ele>
        <time>2026-03-25T09:04:04Z</time>
      </trkpt>
      <trkpt lat="44.69652" lon="6.85327">
        <ele>1917.9</ele>
        <time>2026-03-25T09:04:05Z</time>
      </trkpt>
      <trkpt lat="44.69652" lon="6.85327">
        <ele>1918</ele>
        <time>2026-03-25T09:04:07Z</time>
      </trkpt>
      <trkpt lat="44.69651" lon="6.85326">
        <ele>1918.1</ele>
        <time>2026-03-25T09:04:08Z</time>
      </trkpt>
      <trkpt lat="44.69651" lon="6.85326">
        <ele>1918.2</ele>
        <time>2026-03-25T09:04:09Z</time>
      </trkpt>
      <trkpt lat="44.6965" lon="6.85326">
        <ele>1918.3</ele>
        <time>2026-03-25T09:04:10Z</time>
      </trkpt>
      <trkpt lat="44.6965" lon="6.85325">
        <ele>1918.3</ele>
        <time>2026-03-25T09:04:11Z</time>
      </trkpt>
      <trkpt lat="44.69649" lon="6.85325">
        <ele>1918.4</ele>
        <time>2026-03-25T09:04:12Z</time>
      </trkpt>
      <trkpt lat="44.69649" lon="6.85324">
        <ele>1918.5</ele>
        <time>2026-03-25T09:04:13Z</time>
      </trkpt>
      <trkpt lat="44.69648" lon="6.85323">
        <ele>1918.6</ele>
        <time>2026-03-25T09:04:14Z</time>
      </trkpt>
      <trkpt lat="44.69648" lon="6.85323">
        <ele>1918.6</ele>
        <time>2026-03-25T09:04:15Z</time>
      </trkpt>
      <trkpt lat="44.69647" lon="6.85322">
        <ele>1918.7</ele>
        <time>2026-03-25T09:04:17Z</time>
      </trkpt>
      <trkpt lat="44.69647" lon="6.85322">
        <ele>1918.8</ele>
        <time>2026-03-25T09:04:18Z</time>
      </trkpt>
      <trkpt lat="44.69646" lon="6.85321">
        <ele>1918.8</ele>
        <time>2026-03-25T09:04:19Z</time>
      </trkpt>
      <trkpt lat="44.69646" lon="6.85321">
        <ele>1918.9</ele>
        <time>2026-03-25T09:04:20Z</time>
      </trkpt>
      <trkpt lat="44.69645" lon="6.8532">
        <ele>1919</ele>
        <time>2026-03-25T09:04:21Z</time>
      </trkpt>
      <trkpt lat="44.69645" lon="6.85319">
        <ele>1919</ele>
        <time>2026-03-25T09:04:22Z</time>
      </trkpt>
      <trkpt lat="44.69644" lon="6.85319">
        <ele>1919.1</ele>
        <time>2026-03-25T09:04:23Z</time>
      </trkpt>
      <trkpt lat="44.69644" lon="6.85318">
        <ele>1919.2</ele>
        <time>2026-03-25T09:04:24Z</time>
      </trkpt>
      <trkpt lat="44.69643" lon="6.85317">
        <ele>1919.3</ele>
        <time>2026-03-25T09:04:26Z</time>
      </trkpt>
      <trkpt lat="44.69642" lon="6.85317">
        <ele>1919.4</ele>
        <time>2026-03-25T09:04:27Z</time>
      </trkpt>
      <trkpt lat="44.69642" lon="6.85317">
        <ele>1919.4</ele>
        <time>2026-03-25T09:04:28Z</time>
      </trkpt>
      <trkpt lat="44.69641" lon="6.85316">
        <ele>1919.6</ele>
        <time>2026-03-25T09:04:29Z</time>
      </trkpt>
      <trkpt lat="44.69641" lon="6.85315">
        <ele>1919.6</ele>
        <time>2026-03-25T09:04:30Z</time>
      </trkpt>
      <trkpt lat="44.6964" lon="6.85315">
        <ele>1919.7</ele>
        <time>2026-03-25T09:04:31Z</time>
      </trkpt>
      <trkpt lat="44.6964" lon="6.85315">
        <ele>1919.7</ele>
        <time>2026-03-25T09:04:32Z</time>
      </trkpt>
      <trkpt lat="44.6964" lon="6.85314">
        <ele>1919.8</ele>
        <time>2026-03-25T09:04:33Z</time>
      </trkpt>
      <trkpt lat="44.69639" lon="6.85314">
        <ele>1919.9</ele>
        <time>2026-03-25T09:04:34Z</time>
      </trkpt>
      <trkpt lat="44.69639" lon="6.85313">
        <ele>1920</ele>
        <time>2026-03-25T09:04:35Z</time>
      </trkpt>
      <trkpt lat="44.69638" lon="6.85312">
        <ele>1920.1</ele>
        <time>2026-03-25T09:04:36Z</time>
      </trkpt>
      <trkpt lat="44.69637" lon="6.85311">
        <ele>1920.2</ele>
        <time>2026-03-25T09:04:38Z</time>
      </trkpt>
      <trkpt lat="44.69637" lon="6.8531">
        <ele>1920.3</ele>
        <time>2026-03-25T09:04:39Z</time>
      </trkpt>
      <trkpt lat="44.69637" lon="6.8531">
        <ele>1920.3</ele>
        <time>2026-03-25T09:04:40Z</time>
      </trkpt>
      <trkpt lat="44.69636" lon="6.85309">
        <ele>1920.4</ele>
        <time>2026-03-25T09:04:41Z</time>
      </trkpt>
      <trkpt lat="44.69636" lon="6.85309">
        <ele>1920.5</ele>
        <time>2026-03-25T09:04:42Z</time>
      </trkpt>
      <trkpt lat="44.69636" lon="6.85309">
        <ele>1920.6</ele>
        <time>2026-03-25T09:04:43Z</time>
      </trkpt>
      <trkpt lat="44.69635" lon="6.85308">
        <ele>1920.6</ele>
        <time>2026-03-25T09:04:44Z</time>
      </trkpt>
      <trkpt lat="44.69634" lon="6.85307">
        <ele>1920.8</ele>
        <time>2026-03-25T09:04:45Z</time>
      </trkpt>
      <trkpt lat="44.69634" lon="6.85307">
        <ele>1920.8</ele>
        <time>2026-03-25T09:04:46Z</time>
      </trkpt>
      <trkpt lat="44.69634" lon="6.85307">
        <ele>1920.9</ele>
        <time>2026-03-25T09:04:47Z</time>
      </trkpt>
      <trkpt lat="44.69633" lon="6.85306">
        <ele>1921</ele>
        <time>2026-03-25T09:04:48Z</time>
      </trkpt>
      <trkpt lat="44.69633" lon="6.85305">
        <ele>1921.1</ele>
        <time>2026-03-25T09:04:49Z</time>
      </trkpt>
      <trkpt lat="44.69632" lon="6.85305">
        <ele>1921.2</ele>
        <time>2026-03-25T09:04:50Z</time>
      </trkpt>
      <trkpt lat="44.69631" lon="6.85304">
        <ele>1921.4</ele>
        <time>2026-03-25T09:04:52Z</time>
      </trkpt>
      <trkpt lat="44.69631" lon="6.85303">
        <ele>1921.5</ele>
        <time>2026-03-25T09:04:53Z</time>
      </trkpt>
      <trkpt lat="44.6963" lon="6.85302">
        <ele>1921.6</ele>
        <time>2026-03-25T09:04:55Z</time>
      </trkpt>
      <trkpt lat="44.69629" lon="6.85301">
        <ele>1921.7</ele>
        <time>2026-03-25T09:04:56Z</time>
      </trkpt>
      <trkpt lat="44.69629" lon="6.853">
        <ele>1921.9</ele>
        <time>2026-03-25T09:04:57Z</time>
      </trkpt>
      <trkpt lat="44.69628" lon="6.853">
        <ele>1922</ele>
        <time>2026-03-25T09:04:58Z</time>
      </trkpt>
      <trkpt lat="44.69628" lon="6.85299">
        <ele>1922</ele>
        <time>2026-03-25T09:04:59Z</time>
      </trkpt>
      <trkpt lat="44.69628" lon="6.85299">
        <ele>1922.1</ele>
        <time>2026-03-25T09:05:00Z</time>
      </trkpt>
      <trkpt lat="44.69627" lon="6.85298">
        <ele>1922.3</ele>
        <time>2026-03-25T09:05:01Z</time>
      </trkpt>
      <trkpt lat="44.69626" lon="6.85298">
        <ele>1922.4</ele>
        <time>2026-03-25T09:05:02Z</time>
      </trkpt>
      <trkpt lat="44.69626" lon="6.85297">
        <ele>1922.5</ele>
        <time>2026-03-25T09:05:03Z</time>
      </trkpt>
      <trkpt lat="44.69625" lon="6.85297">
        <ele>1922.6</ele>
        <time>2026-03-25T09:05:04Z</time>
      </trkpt>
      <trkpt lat="44.69625" lon="6.85296">
        <ele>1922.7</ele>
        <time>2026-03-25T09:05:05Z</time>
      </trkpt>
      <trkpt lat="44.69624" lon="6.85295">
        <ele>1922.8</ele>
        <time>2026-03-25T09:05:06Z</time>
      </trkpt>
      <trkpt lat="44.69623" lon="6.85294">
        <ele>1923</ele>
        <time>2026-03-25T09:05:07Z</time>
      </trkpt>
      <trkpt lat="44.69622" lon="6.85293">
        <ele>1923.2</ele>
        <time>2026-03-25T09:05:08Z</time>
      </trkpt>
      <trkpt lat="44.69621" lon="6.85292">
        <ele>1923.4</ele>
        <time>2026-03-25T09:05:10Z</time>
      </trkpt>
      <trkpt lat="44.6962" lon="6.85291">
        <ele>1923.6</ele>
        <time>2026-03-25T09:05:11Z</time>
      </trkpt>
      <trkpt lat="44.6962" lon="6.8529">
        <ele>1923.7</ele>
        <time>2026-03-25T09:05:12Z</time>
      </trkpt>
      <trkpt lat="44.69619" lon="6.85289">
        <ele>1923.9</ele>
        <time>2026-03-25T09:05:13Z</time>
      </trkpt>
      <trkpt lat="44.69618" lon="6.85288">
        <ele>1924</ele>
        <time>2026-03-25T09:05:14Z</time>
      </trkpt>
      <trkpt lat="44.69617" lon="6.85288">
        <ele>1924.2</ele>
        <time>2026-03-25T09:05:16Z</time>
      </trkpt>
      <trkpt lat="44.69617" lon="6.85287">
        <ele>1924.3</ele>
        <time>2026-03-25T09:05:17Z</time>
      </trkpt>
      <trkpt lat="44.69616" lon="6.85286">
        <ele>1924.4</ele>
        <time>2026-03-25T09:05:18Z</time>
      </trkpt>
      <trkpt lat="44.69616" lon="6.85286">
        <ele>1924.5</ele>
        <time>2026-03-25T09:05:19Z</time>
      </trkpt>
      <trkpt lat="44.69615" lon="6.85285">
        <ele>1924.6</ele>
        <time>2026-03-25T09:05:20Z</time>
      </trkpt>
      <trkpt lat="44.69614" lon="6.85285">
        <ele>1924.7</ele>
        <time>2026-03-25T09:05:21Z</time>
      </trkpt>
      <trkpt lat="44.69614" lon="6.85284">
        <ele>1924.9</ele>
        <time>2026-03-25T09:05:22Z</time>
      </trkpt>
      <trkpt lat="44.69613" lon="6.85284">
        <ele>1925</ele>
        <time>2026-03-25T09:05:23Z</time>
      </trkpt>
      <trkpt lat="44.69613" lon="6.85283">
        <ele>1925.1</ele>
        <time>2026-03-25T09:05:24Z</time>
      </trkpt>
      <trkpt lat="44.69612" lon="6.85282">
        <ele>1925.3</ele>
        <time>2026-03-25T09:05:25Z</time>
      </trkpt>
      <trkpt lat="44.69611" lon="6.85282">
        <ele>1925.3</ele>
        <time>2026-03-25T09:05:27Z</time>
      </trkpt>
      <trkpt lat="44.69611" lon="6.85281">
        <ele>1925.5</ele>
        <time>2026-03-25T09:05:28Z</time>
      </trkpt>
      <trkpt lat="44.6961" lon="6.85281">
        <ele>1925.6</ele>
        <time>2026-03-25T09:05:29Z</time>
      </trkpt>
      <trkpt lat="44.6961" lon="6.8528">
        <ele>1925.6</ele>
        <time>2026-03-25T09:05:30Z</time>
      </trkpt>
      <trkpt lat="44.69609" lon="6.8528">
        <ele>1925.7</ele>
        <time>2026-03-25T09:05:31Z</time>
      </trkpt>
      <trkpt lat="44.69609" lon="6.8528">
        <ele>1925.8</ele>
        <time>2026-03-25T09:05:32Z</time>
      </trkpt>
      <trkpt lat="44.69608" lon="6.85279">
        <ele>1925.9</ele>
        <time>2026-03-25T09:05:33Z</time>
      </trkpt>
      <trkpt lat="44.69607" lon="6.85279">
        <ele>1926</ele>
        <time>2026-03-25T09:05:34Z</time>
      </trkpt>
      <trkpt lat="44.69607" lon="6.85278">
        <ele>1926.1</ele>
        <time>2026-03-25T09:05:35Z</time>
      </trkpt>
      <trkpt lat="44.69607" lon="6.85278">
        <ele>1926.2</ele>
        <time>2026-03-25T09:05:36Z</time>
      </trkpt>
      <trkpt lat="44.69606" lon="6.85277">
        <ele>1926.2</ele>
        <time>2026-03-25T09:05:37Z</time>
      </trkpt>
      <trkpt lat="44.69606" lon="6.85277">
        <ele>1926.4</ele>
        <time>2026-03-25T09:05:38Z</time>
      </trkpt>
      <trkpt lat="44.69605" lon="6.85276">
        <ele>1926.4</ele>
        <time>2026-03-25T09:05:39Z</time>
      </trkpt>
      <trkpt lat="44.69605" lon="6.85276">
        <ele>1926.6</ele>
        <time>2026-03-25T09:05:40Z</time>
      </trkpt>
      <trkpt lat="44.69604" lon="6.85275">
        <ele>1926.7</ele>
        <time>2026-03-25T09:05:41Z</time>
      </trkpt>
      <trkpt lat="44.69604" lon="6.85275">
        <ele>1926.7</ele>
        <time>2026-03-25T09:05:42Z</time>
      </trkpt>
      <trkpt lat="44.69604" lon="6.85274">
        <ele>1926.8</ele>
        <time>2026-03-25T09:05:43Z</time>
      </trkpt>
      <trkpt lat="44.69603" lon="6.85274">
        <ele>1926.9</ele>
        <time>2026-03-25T09:05:45Z</time>
      </trkpt>
      <trkpt lat="44.69603" lon="6.85273">
        <ele>1927</ele>
        <time>2026-03-25T09:05:46Z</time>
      </trkpt>
      <trkpt lat="44.69602" lon="6.85273">
        <ele>1927.1</ele>
        <time>2026-03-25T09:05:47Z</time>
      </trkpt>
      <trkpt lat="44.69601" lon="6.85272">
        <ele>1927.2</ele>
        <time>2026-03-25T09:05:48Z</time>
      </trkpt>
      <trkpt lat="44.69601" lon="6.85271">
        <ele>1927.3</ele>
        <time>2026-03-25T09:05:49Z</time>
      </trkpt>
      <trkpt lat="44.69601" lon="6.85271">
        <ele>1927.4</ele>
        <time>2026-03-25T09:05:50Z</time>
      </trkpt>
      <trkpt lat="44.696" lon="6.8527">
        <ele>1927.5</ele>
        <time>2026-03-25T09:05:51Z</time>
      </trkpt>
      <trkpt lat="44.696" lon="6.85269">
        <ele>1927.6</ele>
        <time>2026-03-25T09:05:52Z</time>
      </trkpt>
      <trkpt lat="44.69599" lon="6.85269">
        <ele>1927.7</ele>
        <time>2026-03-25T09:05:53Z</time>
      </trkpt>
      <trkpt lat="44.69599" lon="6.85268">
        <ele>1927.8</ele>
        <time>2026-03-25T09:05:54Z</time>
      </trkpt>
      <trkpt lat="44.69598" lon="6.85268">
        <ele>1927.9</ele>
        <time>2026-03-25T09:05:55Z</time>
      </trkpt>
      <trkpt lat="44.69598" lon="6.85267">
        <ele>1928</ele>
        <time>2026-03-25T09:05:56Z</time>
      </trkpt>
      <trkpt lat="44.69597" lon="6.85266">
        <ele>1928.1</ele>
        <time>2026-03-25T09:05:58Z</time>
      </trkpt>
      <trkpt lat="44.69597" lon="6.85265">
        <ele>1928.3</ele>
        <time>2026-03-25T09:05:59Z</time>
      </trkpt>
      <trkpt lat="44.69596" lon="6.85265">
        <ele>1928.3</ele>
        <time>2026-03-25T09:06:00Z</time>
      </trkpt>
      <trkpt lat="44.69596" lon="6.85264">
        <ele>1928.4</ele>
        <time>2026-03-25T09:06:01Z</time>
      </trkpt>
      <trkpt lat="44.69595" lon="6.85263">
        <ele>1928.5</ele>
        <time>2026-03-25T09:06:02Z</time>
      </trkpt>
      <trkpt lat="44.69595" lon="6.85263">
        <ele>1928.6</ele>
        <time>2026-03-25T09:06:03Z</time>
      </trkpt>
      <trkpt lat="44.69595" lon="6.85262">
        <ele>1928.7</ele>
        <time>2026-03-25T09:06:04Z</time>
      </trkpt>
      <trkpt lat="44.69594" lon="6.85262">
        <ele>1928.8</ele>
        <time>2026-03-25T09:06:05Z</time>
      </trkpt>
      <trkpt lat="44.69594" lon="6.85261">
        <ele>1928.9</ele>
        <time>2026-03-25T09:06:06Z</time>
      </trkpt>
      <trkpt lat="44.69594" lon="6.8526">
        <ele>1929</ele>
        <time>2026-03-25T09:06:07Z</time>
      </trkpt>
      <trkpt lat="44.69593" lon="6.8526">
        <ele>1929</ele>
        <time>2026-03-25T09:06:08Z</time>
      </trkpt>
      <trkpt lat="44.69593" lon="6.85259">
        <ele>1929.1</ele>
        <time>2026-03-25T09:06:09Z</time>
      </trkpt>
      <trkpt lat="44.69593" lon="6.85259">
        <ele>1929.2</ele>
        <time>2026-03-25T09:06:10Z</time>
      </trkpt>
      <trkpt lat="44.69592" lon="6.85258">
        <ele>1929.3</ele>
        <time>2026-03-25T09:06:11Z</time>
      </trkpt>
      <trkpt lat="44.69592" lon="6.85258">
        <ele>1929.3</ele>
        <time>2026-03-25T09:06:12Z</time>
      </trkpt>
      <trkpt lat="44.69592" lon="6.85257">
        <ele>1929.4</ele>
        <time>2026-03-25T09:06:13Z</time>
      </trkpt>
      <trkpt lat="44.69591" lon="6.85257">
        <ele>1929.5</ele>
        <time>2026-03-25T09:06:14Z</time>
      </trkpt>
      <trkpt lat="44.69591" lon="6.85257">
        <ele>1929.5</ele>
        <time>2026-03-25T09:06:15Z</time>
      </trkpt>
      <trkpt lat="44.69591" lon="6.85256">
        <ele>1929.6</ele>
        <time>2026-03-25T09:06:16Z</time>
      </trkpt>
      <trkpt lat="44.6959" lon="6.85256">
        <ele>1929.7</ele>
        <time>2026-03-25T09:06:17Z</time>
      </trkpt>
      <trkpt lat="44.6959" lon="6.85255">
        <ele>1929.8</ele>
        <time>2026-03-25T09:06:18Z</time>
      </trkpt>
      <trkpt lat="44.69589" lon="6.85255">
        <ele>1929.9</ele>
        <time>2026-03-25T09:06:19Z</time>
      </trkpt>
      <trkpt lat="44.69589" lon="6.85254">
        <ele>1930</ele>
        <time>2026-03-25T09:06:20Z</time>
      </trkpt>
      <trkpt lat="44.69588" lon="6.85254">
        <ele>1930.1</ele>
        <time>2026-03-25T09:06:21Z</time>
      </trkpt>
      <trkpt lat="44.69588" lon="6.85253">
        <ele>1930.1</ele>
        <time>2026-03-25T09:06:22Z</time>
      </trkpt>
      <trkpt lat="44.69587" lon="6.85253">
        <ele>1930.2</ele>
        <time>2026-03-25T09:06:23Z</time>
      </trkpt>
      <trkpt lat="44.69587" lon="6.85252">
        <ele>1930.3</ele>
        <time>2026-03-25T09:06:24Z</time>
      </trkpt>
      <trkpt lat="44.69586" lon="6.85252">
        <ele>1930.4</ele>
        <time>2026-03-25T09:06:25Z</time>
      </trkpt>
      <trkpt lat="44.69586" lon="6.85252">
        <ele>1930.5</ele>
        <time>2026-03-25T09:06:26Z</time>
      </trkpt>
      <trkpt lat="44.69585" lon="6.85251">
        <ele>1930.6</ele>
        <time>2026-03-25T09:06:27Z</time>
      </trkpt>
      <trkpt lat="44.69584" lon="6.85251">
        <ele>1930.8</ele>
        <time>2026-03-25T09:06:28Z</time>
      </trkpt>
      <trkpt lat="44.69584" lon="6.85251">
        <ele>1930.9</ele>
        <time>2026-03-25T09:06:29Z</time>
      </trkpt>
      <trkpt lat="44.69583" lon="6.8525">
        <ele>1931</ele>
        <time>2026-03-25T09:06:30Z</time>
      </trkpt>
      <trkpt lat="44.69583" lon="6.8525">
        <ele>1931.1</ele>
        <time>2026-03-25T09:06:31Z</time>
      </trkpt>
      <trkpt lat="44.69582" lon="6.8525">
        <ele>1931.2</ele>
        <time>2026-03-25T09:06:32Z</time>
      </trkpt>
      <trkpt lat="44.69582" lon="6.8525">
        <ele>1931.3</ele>
        <time>2026-03-25T09:06:33Z</time>
      </trkpt>
      <trkpt lat="44.69581" lon="6.85249">
        <ele>1931.3</ele>
        <time>2026-03-25T09:06:34Z</time>
      </trkpt>
      <trkpt lat="44.69581" lon="6.85249">
        <ele>1931.5</ele>
        <time>2026-03-25T09:06:35Z</time>
      </trkpt>
      <trkpt lat="44.6958" lon="6.85248">
        <ele>1931.6</ele>
        <time>2026-03-25T09:06:36Z</time>
      </trkpt>
      <trkpt lat="44.69579" lon="6.85248">
        <ele>1931.7</ele>
        <time>2026-03-25T09:06:37Z</time>
      </trkpt>
      <trkpt lat="44.69579" lon="6.85247">
        <ele>1931.9</ele>
        <time>2026-03-25T09:06:38Z</time>
      </trkpt>
      <trkpt lat="44.69577" lon="6.85246">
        <ele>1932.1</ele>
        <time>2026-03-25T09:06:40Z</time>
      </trkpt>
      <trkpt lat="44.69577" lon="6.85246">
        <ele>1932.2</ele>
        <time>2026-03-25T09:06:41Z</time>
      </trkpt>
      <trkpt lat="44.69576" lon="6.85245">
        <ele>1932.3</ele>
        <time>2026-03-25T09:06:42Z</time>
      </trkpt>
      <trkpt lat="44.69576" lon="6.85244">
        <ele>1932.4</ele>
        <time>2026-03-25T09:06:43Z</time>
      </trkpt>
      <trkpt lat="44.69576" lon="6.85244">
        <ele>1932.5</ele>
        <time>2026-03-25T09:06:44Z</time>
      </trkpt>
      <trkpt lat="44.69575" lon="6.85243">
        <ele>1932.5</ele>
        <time>2026-03-25T09:06:45Z</time>
      </trkpt>
      <trkpt lat="44.69575" lon="6.85243">
        <ele>1932.6</ele>
        <time>2026-03-25T09:06:47Z</time>
      </trkpt>
      <trkpt lat="44.69575" lon="6.85242">
        <ele>1932.7</ele>
        <time>2026-03-25T09:06:48Z</time>
      </trkpt>
      <trkpt lat="44.69574" lon="6.85242">
        <ele>1932.8</ele>
        <time>2026-03-25T09:06:49Z</time>
      </trkpt>
      <trkpt lat="44.69574" lon="6.85242">
        <ele>1932.8</ele>
        <time>2026-03-25T09:06:50Z</time>
      </trkpt>
      <trkpt lat="44.69574" lon="6.85242">
        <ele>1932.9</ele>
        <time>2026-03-25T09:06:51Z</time>
      </trkpt>
      <trkpt lat="44.69574" lon="6.85241">
        <ele>1933</ele>
        <time>2026-03-25T09:06:52Z</time>
      </trkpt>
      <trkpt lat="44.69573" lon="6.8524">
        <ele>1933.1</ele>
        <time>2026-03-25T09:06:53Z</time>
      </trkpt>
      <trkpt lat="44.69573" lon="6.8524">
        <ele>1933.2</ele>
        <time>2026-03-25T09:06:54Z</time>
      </trkpt>
      <trkpt lat="44.69572" lon="6.85239">
        <ele>1933.3</ele>
        <time>2026-03-25T09:06:56Z</time>
      </trkpt>
      <trkpt lat="44.69572" lon="6.85239">
        <ele>1933.4</ele>
        <time>2026-03-25T09:06:57Z</time>
      </trkpt>
      <trkpt lat="44.69571" lon="6.85239">
        <ele>1933.4</ele>
        <time>2026-03-25T09:06:58Z</time>
      </trkpt>
      <trkpt lat="44.69571" lon="6.85238">
        <ele>1933.5</ele>
        <time>2026-03-25T09:06:59Z</time>
      </trkpt>
      <trkpt lat="44.69571" lon="6.85238">
        <ele>1933.6</ele>
        <time>2026-03-25T09:07:00Z</time>
      </trkpt>
      <trkpt lat="44.6957" lon="6.85238">
        <ele>1933.6</ele>
        <time>2026-03-25T09:07:01Z</time>
      </trkpt>
      <trkpt lat="44.6957" lon="6.85237">
        <ele>1933.7</ele>
        <time>2026-03-25T09:07:02Z</time>
      </trkpt>
      <trkpt lat="44.69569" lon="6.85237">
        <ele>1933.8</ele>
        <time>2026-03-25T09:07:03Z</time>
      </trkpt>
      <trkpt lat="44.69569" lon="6.85237">
        <ele>1933.9</ele>
        <time>2026-03-25T09:07:04Z</time>
      </trkpt>
      <trkpt lat="44.69568" lon="6.85236">
        <ele>1934</ele>
        <time>2026-03-25T09:07:05Z</time>
      </trkpt>
      <trkpt lat="44.69568" lon="6.85236">
        <ele>1934.1</ele>
        <time>2026-03-25T09:07:06Z</time>
      </trkpt>
      <trkpt lat="44.69567" lon="6.85236">
        <ele>1934.2</ele>
        <time>2026-03-25T09:07:07Z</time>
      </trkpt>
      <trkpt lat="44.69567" lon="6.85235">
        <ele>1934.3</ele>
        <time>2026-03-25T09:07:08Z</time>
      </trkpt>
      <trkpt lat="44.69566" lon="6.85235">
        <ele>1934.4</ele>
        <time>2026-03-25T09:07:09Z</time>
      </trkpt>
      <trkpt lat="44.69566" lon="6.85235">
        <ele>1934.5</ele>
        <time>2026-03-25T09:07:10Z</time>
      </trkpt>
      <trkpt lat="44.69565" lon="6.85234">
        <ele>1934.5</ele>
        <time>2026-03-25T09:07:11Z</time>
      </trkpt>
      <trkpt lat="44.69565" lon="6.85234">
        <ele>1934.6</ele>
        <time>2026-03-25T09:07:12Z</time>
      </trkpt>
      <trkpt lat="44.69564" lon="6.85234">
        <ele>1934.7</ele>
        <time>2026-03-25T09:07:13Z</time>
      </trkpt>
      <trkpt lat="44.69563" lon="6.85234">
        <ele>1934.8</ele>
        <time>2026-03-25T09:07:14Z</time>
      </trkpt>
      <trkpt lat="44.69563" lon="6.85234">
        <ele>1934.9</ele>
        <time>2026-03-25T09:07:15Z</time>
      </trkpt>
      <trkpt lat="44.69562" lon="6.85233">
        <ele>1935</ele>
        <time>2026-03-25T09:07:16Z</time>
      </trkpt>
      <trkpt lat="44.69562" lon="6.85233">
        <ele>1935</ele>
        <time>2026-03-25T09:07:17Z</time>
      </trkpt>
      <trkpt lat="44.69562" lon="6.85233">
        <ele>1935.1</ele>
        <time>2026-03-25T09:07:18Z</time>
      </trkpt>
      <trkpt lat="44.69561" lon="6.85233">
        <ele>1935.2</ele>
        <time>2026-03-25T09:07:19Z</time>
      </trkpt>
      <trkpt lat="44.6956" lon="6.85232">
        <ele>1935.3</ele>
        <time>2026-03-25T09:07:21Z</time>
      </trkpt>
      <trkpt lat="44.6956" lon="6.85232">
        <ele>1935.4</ele>
        <time>2026-03-25T09:07:22Z</time>
      </trkpt>
      <trkpt lat="44.6956" lon="6.85232">
        <ele>1935.4</ele>
        <time>2026-03-25T09:07:23Z</time>
      </trkpt>
      <trkpt lat="44.69559" lon="6.85231">
        <ele>1935.5</ele>
        <time>2026-03-25T09:07:24Z</time>
      </trkpt>
      <trkpt lat="44.69559" lon="6.8523">
        <ele>1935.6</ele>
        <time>2026-03-25T09:07:25Z</time>
      </trkpt>
      <trkpt lat="44.69558" lon="6.8523">
        <ele>1935.7</ele>
        <time>2026-03-25T09:07:26Z</time>
      </trkpt>
      <trkpt lat="44.69558" lon="6.85229">
        <ele>1935.8</ele>
        <time>2026-03-25T09:07:27Z</time>
      </trkpt>
      <trkpt lat="44.69557" lon="6.85229">
        <ele>1935.9</ele>
        <time>2026-03-25T09:07:28Z</time>
      </trkpt>
      <trkpt lat="44.69557" lon="6.85228">
        <ele>1936.1</ele>
        <time>2026-03-25T09:07:29Z</time>
      </trkpt>
      <trkpt lat="44.69556" lon="6.85228">
        <ele>1936.2</ele>
        <time>2026-03-25T09:07:30Z</time>
      </trkpt>
      <trkpt lat="44.69556" lon="6.85227">
        <ele>1936.3</ele>
        <time>2026-03-25T09:07:31Z</time>
      </trkpt>
      <trkpt lat="44.69555" lon="6.85226">
        <ele>1936.5</ele>
        <time>2026-03-25T09:07:32Z</time>
      </trkpt>
      <trkpt lat="44.69554" lon="6.85225">
        <ele>1936.6</ele>
        <time>2026-03-25T09:07:33Z</time>
      </trkpt>
      <trkpt lat="44.69554" lon="6.85225">
        <ele>1936.7</ele>
        <time>2026-03-25T09:07:35Z</time>
      </trkpt>
      <trkpt lat="44.69553" lon="6.85224">
        <ele>1936.8</ele>
        <time>2026-03-25T09:07:36Z</time>
      </trkpt>
      <trkpt lat="44.69552" lon="6.85224">
        <ele>1937</ele>
        <time>2026-03-25T09:07:37Z</time>
      </trkpt>
      <trkpt lat="44.69552" lon="6.85224">
        <ele>1937</ele>
        <time>2026-03-25T09:07:38Z</time>
      </trkpt>
      <trkpt lat="44.69551" lon="6.85223">
        <ele>1937.1</ele>
        <time>2026-03-25T09:07:39Z</time>
      </trkpt>
      <trkpt lat="44.6955" lon="6.85223">
        <ele>1937.3</ele>
        <time>2026-03-25T09:07:40Z</time>
      </trkpt>
      <trkpt lat="44.6955" lon="6.85223">
        <ele>1937.4</ele>
        <time>2026-03-25T09:07:41Z</time>
      </trkpt>
      <trkpt lat="44.69549" lon="6.85223">
        <ele>1937.4</ele>
        <time>2026-03-25T09:07:42Z</time>
      </trkpt>
      <trkpt lat="44.69548" lon="6.85223">
        <ele>1937.6</ele>
        <time>2026-03-25T09:07:43Z</time>
      </trkpt>
      <trkpt lat="44.69548" lon="6.85222">
        <ele>1937.7</ele>
        <time>2026-03-25T09:07:44Z</time>
      </trkpt>
      <trkpt lat="44.69547" lon="6.85222">
        <ele>1937.8</ele>
        <time>2026-03-25T09:07:45Z</time>
      </trkpt>
      <trkpt lat="44.69547" lon="6.85222">
        <ele>1937.9</ele>
        <time>2026-03-25T09:07:46Z</time>
      </trkpt>
      <trkpt lat="44.69546" lon="6.85222">
        <ele>1938</ele>
        <time>2026-03-25T09:07:47Z</time>
      </trkpt>
      <trkpt lat="44.69545" lon="6.85222">
        <ele>1938.1</ele>
        <time>2026-03-25T09:07:48Z</time>
      </trkpt>
      <trkpt lat="44.69545" lon="6.85221">
        <ele>1938.2</ele>
        <time>2026-03-25T09:07:49Z</time>
      </trkpt>
      <trkpt lat="44.69544" lon="6.85221">
        <ele>1938.4</ele>
        <time>2026-03-25T09:07:51Z</time>
      </trkpt>
      <trkpt lat="44.69543" lon="6.85221">
        <ele>1938.5</ele>
        <time>2026-03-25T09:07:52Z</time>
      </trkpt>
      <trkpt lat="44.69542" lon="6.8522">
        <ele>1938.7</ele>
        <time>2026-03-25T09:07:53Z</time>
      </trkpt>
      <trkpt lat="44.69542" lon="6.8522">
        <ele>1938.7</ele>
        <time>2026-03-25T09:07:54Z</time>
      </trkpt>
      <trkpt lat="44.69541" lon="6.8522">
        <ele>1938.9</ele>
        <time>2026-03-25T09:07:56Z</time>
      </trkpt>
      <trkpt lat="44.6954" lon="6.85219">
        <ele>1939</ele>
        <time>2026-03-25T09:07:57Z</time>
      </trkpt>
      <trkpt lat="44.6954" lon="6.85219">
        <ele>1939</ele>
        <time>2026-03-25T09:07:58Z</time>
      </trkpt>
      <trkpt lat="44.6954" lon="6.85219">
        <ele>1939.1</ele>
        <time>2026-03-25T09:07:59Z</time>
      </trkpt>
      <trkpt lat="44.6954" lon="6.85219">
        <ele>1939.2</ele>
        <time>2026-03-25T09:08:00Z</time>
      </trkpt>
      <trkpt lat="44.69539" lon="6.85218">
        <ele>1939.3</ele>
        <time>2026-03-25T09:08:01Z</time>
      </trkpt>
      <trkpt lat="44.69539" lon="6.85218">
        <ele>1939.4</ele>
        <time>2026-03-25T09:08:02Z</time>
      </trkpt>
      <trkpt lat="44.69538" lon="6.85218">
        <ele>1939.4</ele>
        <time>2026-03-25T09:08:03Z</time>
      </trkpt>
      <trkpt lat="44.69538" lon="6.85217">
        <ele>1939.5</ele>
        <time>2026-03-25T09:08:04Z</time>
      </trkpt>
      <trkpt lat="44.69538" lon="6.85217">
        <ele>1939.6</ele>
        <time>2026-03-25T09:08:05Z</time>
      </trkpt>
      <trkpt lat="44.69537" lon="6.85217">
        <ele>1939.7</ele>
        <time>2026-03-25T09:08:06Z</time>
      </trkpt>
      <trkpt lat="44.69537" lon="6.85216">
        <ele>1939.8</ele>
        <time>2026-03-25T09:08:07Z</time>
      </trkpt>
      <trkpt lat="44.69536" lon="6.85216">
        <ele>1939.9</ele>
        <time>2026-03-25T09:08:08Z</time>
      </trkpt>
      <trkpt lat="44.69536" lon="6.85216">
        <ele>1939.9</ele>
        <time>2026-03-25T09:08:09Z</time>
      </trkpt>
      <trkpt lat="44.69535" lon="6.85215">
        <ele>1940.1</ele>
        <time>2026-03-25T09:08:11Z</time>
      </trkpt>
      <trkpt lat="44.69535" lon="6.85215">
        <ele>1940.2</ele>
        <time>2026-03-25T09:08:12Z</time>
      </trkpt>
      <trkpt lat="44.69534" lon="6.85214">
        <ele>1940.3</ele>
        <time>2026-03-25T09:08:13Z</time>
      </trkpt>
      <trkpt lat="44.69534" lon="6.85214">
        <ele>1940.4</ele>
        <time>2026-03-25T09:08:14Z</time>
      </trkpt>
      <trkpt lat="44.69534" lon="6.85213">
        <ele>1940.4</ele>
        <time>2026-03-25T09:08:15Z</time>
      </trkpt>
      <trkpt lat="44.69533" lon="6.85213">
        <ele>1940.6</ele>
        <time>2026-03-25T09:08:16Z</time>
      </trkpt>
      <trkpt lat="44.69532" lon="6.85212">
        <ele>1940.7</ele>
        <time>2026-03-25T09:08:17Z</time>
      </trkpt>
      <trkpt lat="44.69532" lon="6.85211">
        <ele>1940.8</ele>
        <time>2026-03-25T09:08:19Z</time>
      </trkpt>
      <trkpt lat="44.69531" lon="6.85211">
        <ele>1941</ele>
        <time>2026-03-25T09:08:20Z</time>
      </trkpt>
      <trkpt lat="44.6953" lon="6.8521">
        <ele>1941.2</ele>
        <time>2026-03-25T09:08:22Z</time>
      </trkpt>
      <trkpt lat="44.6953" lon="6.8521">
        <ele>1941.3</ele>
        <time>2026-03-25T09:08:23Z</time>
      </trkpt>
      <trkpt lat="44.69529" lon="6.85209">
        <ele>1941.3</ele>
        <time>2026-03-25T09:08:24Z</time>
      </trkpt>
      <trkpt lat="44.69529" lon="6.85209">
        <ele>1941.5</ele>
        <time>2026-03-25T09:08:25Z</time>
      </trkpt>
      <trkpt lat="44.69528" lon="6.85208">
        <ele>1941.6</ele>
        <time>2026-03-25T09:08:27Z</time>
      </trkpt>
      <trkpt lat="44.69528" lon="6.85208">
        <ele>1941.7</ele>
        <time>2026-03-25T09:08:28Z</time>
      </trkpt>
      <trkpt lat="44.69528" lon="6.85207">
        <ele>1941.8</ele>
        <time>2026-03-25T09:08:29Z</time>
      </trkpt>
      <trkpt lat="44.69527" lon="6.85207">
        <ele>1941.9</ele>
        <time>2026-03-25T09:08:30Z</time>
      </trkpt>
      <trkpt lat="44.69527" lon="6.85206">
        <ele>1942</ele>
        <time>2026-03-25T09:08:31Z</time>
      </trkpt>
      <trkpt lat="44.69527" lon="6.85206">
        <ele>1942.1</ele>
        <time>2026-03-25T09:08:32Z</time>
      </trkpt>
      <trkpt lat="44.69526" lon="6.85205">
        <ele>1942.3</ele>
        <time>2026-03-25T09:08:34Z</time>
      </trkpt>
      <trkpt lat="44.69525" lon="6.85203">
        <ele>1942.5</ele>
        <time>2026-03-25T09:08:35Z</time>
      </trkpt>
      <trkpt lat="44.69525" lon="6.85203">
        <ele>1942.6</ele>
        <time>2026-03-25T09:08:36Z</time>
      </trkpt>
      <trkpt lat="44.69524" lon="6.85202">
        <ele>1942.7</ele>
        <time>2026-03-25T09:08:37Z</time>
      </trkpt>
      <trkpt lat="44.69524" lon="6.85202">
        <ele>1942.9</ele>
        <time>2026-03-25T09:08:38Z</time>
      </trkpt>
      <trkpt lat="44.69523" lon="6.85201">
        <ele>1943</ele>
        <time>2026-03-25T09:08:39Z</time>
      </trkpt>
      <trkpt lat="44.69523" lon="6.852">
        <ele>1943.1</ele>
        <time>2026-03-25T09:08:40Z</time>
      </trkpt>
      <trkpt lat="44.69523" lon="6.852">
        <ele>1943.2</ele>
        <time>2026-03-25T09:08:41Z</time>
      </trkpt>
      <trkpt lat="44.69522" lon="6.852">
        <ele>1943.3</ele>
        <time>2026-03-25T09:08:42Z</time>
      </trkpt>
      <trkpt lat="44.69521" lon="6.85199">
        <ele>1943.5</ele>
        <time>2026-03-25T09:08:43Z</time>
      </trkpt>
      <trkpt lat="44.69521" lon="6.85199">
        <ele>1943.5</ele>
        <time>2026-03-25T09:08:44Z</time>
      </trkpt>
      <trkpt lat="44.69521" lon="6.85198">
        <ele>1943.6</ele>
        <time>2026-03-25T09:08:45Z</time>
      </trkpt>
      <trkpt lat="44.6952" lon="6.85198">
        <ele>1943.8</ele>
        <time>2026-03-25T09:08:46Z</time>
      </trkpt>
      <trkpt lat="44.6952" lon="6.85198">
        <ele>1943.9</ele>
        <time>2026-03-25T09:08:47Z</time>
      </trkpt>
      <trkpt lat="44.69519" lon="6.85197">
        <ele>1944</ele>
        <time>2026-03-25T09:08:48Z</time>
      </trkpt>
      <trkpt lat="44.69519" lon="6.85197">
        <ele>1944.1</ele>
        <time>2026-03-25T09:08:49Z</time>
      </trkpt>
      <trkpt lat="44.69518" lon="6.85196">
        <ele>1944.2</ele>
        <time>2026-03-25T09:08:50Z</time>
      </trkpt>
      <trkpt lat="44.69517" lon="6.85196">
        <ele>1944.4</ele>
        <time>2026-03-25T09:08:51Z</time>
      </trkpt>
      <trkpt lat="44.69517" lon="6.85196">
        <ele>1944.6</ele>
        <time>2026-03-25T09:08:52Z</time>
      </trkpt>
      <trkpt lat="44.69516" lon="6.85196">
        <ele>1944.7</ele>
        <time>2026-03-25T09:08:53Z</time>
      </trkpt>
      <trkpt lat="44.69516" lon="6.85196">
        <ele>1944.8</ele>
        <time>2026-03-25T09:08:54Z</time>
      </trkpt>
      <trkpt lat="44.69515" lon="6.85196">
        <ele>1944.9</ele>
        <time>2026-03-25T09:08:56Z</time>
      </trkpt>
      <trkpt lat="44.69514" lon="6.85195">
        <ele>1945</ele>
        <time>2026-03-25T09:08:57Z</time>
      </trkpt>
      <trkpt lat="44.69514" lon="6.85195">
        <ele>1945.1</ele>
        <time>2026-03-25T09:08:58Z</time>
      </trkpt>
      <trkpt lat="44.69513" lon="6.85195">
        <ele>1945.3</ele>
        <time>2026-03-25T09:08:59Z</time>
      </trkpt>
      <trkpt lat="44.69512" lon="6.85195">
        <ele>1945.4</ele>
        <time>2026-03-25T09:09:00Z</time>
      </trkpt>
      <trkpt lat="44.69512" lon="6.85195">
        <ele>1945.5</ele>
        <time>2026-03-25T09:09:01Z</time>
      </trkpt>
      <trkpt lat="44.69511" lon="6.85194">
        <ele>1945.6</ele>
        <time>2026-03-25T09:09:02Z</time>
      </trkpt>
      <trkpt lat="44.69511" lon="6.85194">
        <ele>1945.7</ele>
        <time>2026-03-25T09:09:04Z</time>
      </trkpt>
      <trkpt lat="44.6951" lon="6.85194">
        <ele>1945.9</ele>
        <time>2026-03-25T09:09:05Z</time>
      </trkpt>
      <trkpt lat="44.6951" lon="6.85193">
        <ele>1946</ele>
        <time>2026-03-25T09:09:06Z</time>
      </trkpt>
      <trkpt lat="44.69509" lon="6.85192">
        <ele>1946.2</ele>
        <time>2026-03-25T09:09:07Z</time>
      </trkpt>
      <trkpt lat="44.69508" lon="6.85192">
        <ele>1946.3</ele>
        <time>2026-03-25T09:09:08Z</time>
      </trkpt>
      <trkpt lat="44.69508" lon="6.85191">
        <ele>1946.5</ele>
        <time>2026-03-25T09:09:09Z</time>
      </trkpt>
      <trkpt lat="44.69507" lon="6.8519">
        <ele>1946.8</ele>
        <time>2026-03-25T09:09:10Z</time>
      </trkpt>
      <trkpt lat="44.69506" lon="6.85189">
        <ele>1946.9</ele>
        <time>2026-03-25T09:09:12Z</time>
      </trkpt>
      <trkpt lat="44.69506" lon="6.85188">
        <ele>1947.1</ele>
        <time>2026-03-25T09:09:13Z</time>
      </trkpt>
      <trkpt lat="44.69505" lon="6.85188">
        <ele>1947.2</ele>
        <time>2026-03-25T09:09:14Z</time>
      </trkpt>
      <trkpt lat="44.69505" lon="6.85187">
        <ele>1947.3</ele>
        <time>2026-03-25T09:09:15Z</time>
      </trkpt>
      <trkpt lat="44.69504" lon="6.85187">
        <ele>1947.5</ele>
        <time>2026-03-25T09:09:16Z</time>
      </trkpt>
      <trkpt lat="44.69504" lon="6.85187">
        <ele>1947.6</ele>
        <time>2026-03-25T09:09:17Z</time>
      </trkpt>
      <trkpt lat="44.69503" lon="6.85186">
        <ele>1947.6</ele>
        <time>2026-03-25T09:09:18Z</time>
      </trkpt>
      <trkpt lat="44.69503" lon="6.85186">
        <ele>1947.7</ele>
        <time>2026-03-25T09:09:19Z</time>
      </trkpt>
      <trkpt lat="44.69503" lon="6.85186">
        <ele>1947.8</ele>
        <time>2026-03-25T09:09:20Z</time>
      </trkpt>
      <trkpt lat="44.69502" lon="6.85186">
        <ele>1947.9</ele>
        <time>2026-03-25T09:09:21Z</time>
      </trkpt>
      <trkpt lat="44.69502" lon="6.85186">
        <ele>1948</ele>
        <time>2026-03-25T09:09:22Z</time>
      </trkpt>
      <trkpt lat="44.69501" lon="6.85186">
        <ele>1948.1</ele>
        <time>2026-03-25T09:09:23Z</time>
      </trkpt>
      <trkpt lat="44.69501" lon="6.85186">
        <ele>1948.2</ele>
        <time>2026-03-25T09:09:24Z</time>
      </trkpt>
      <trkpt lat="44.695" lon="6.85186">
        <ele>1948.2</ele>
        <time>2026-03-25T09:09:25Z</time>
      </trkpt>
      <trkpt lat="44.695" lon="6.85186">
        <ele>1948.3</ele>
        <time>2026-03-25T09:09:26Z</time>
      </trkpt>
      <trkpt lat="44.69499" lon="6.85186">
        <ele>1948.4</ele>
        <time>2026-03-25T09:09:27Z</time>
      </trkpt>
      <trkpt lat="44.69499" lon="6.85186">
        <ele>1948.6</ele>
        <time>2026-03-25T09:09:28Z</time>
      </trkpt>
      <trkpt lat="44.69498" lon="6.85187">
        <ele>1948.7</ele>
        <time>2026-03-25T09:09:29Z</time>
      </trkpt>
      <trkpt lat="44.69497" lon="6.85187">
        <ele>1948.8</ele>
        <time>2026-03-25T09:09:30Z</time>
      </trkpt>
      <trkpt lat="44.69497" lon="6.85187">
        <ele>1949</ele>
        <time>2026-03-25T09:09:31Z</time>
      </trkpt>
      <trkpt lat="44.69496" lon="6.85188">
        <ele>1949.1</ele>
        <time>2026-03-25T09:09:32Z</time>
      </trkpt>
      <trkpt lat="44.69495" lon="6.85188">
        <ele>1949.3</ele>
        <time>2026-03-25T09:09:33Z</time>
      </trkpt>
      <trkpt lat="44.69495" lon="6.85189">
        <ele>1949.4</ele>
        <time>2026-03-25T09:09:35Z</time>
      </trkpt>
      <trkpt lat="44.69494" lon="6.85189">
        <ele>1949.5</ele>
        <time>2026-03-25T09:09:36Z</time>
      </trkpt>
      <trkpt lat="44.69493" lon="6.85189">
        <ele>1949.7</ele>
        <time>2026-03-25T09:09:37Z</time>
      </trkpt>
      <trkpt lat="44.69493" lon="6.85189">
        <ele>1949.8</ele>
        <time>2026-03-25T09:09:38Z</time>
      </trkpt>
      <trkpt lat="44.69492" lon="6.85189">
        <ele>1949.9</ele>
        <time>2026-03-25T09:09:39Z</time>
      </trkpt>
      <trkpt lat="44.69491" lon="6.85189">
        <ele>1950.1</ele>
        <time>2026-03-25T09:09:40Z</time>
      </trkpt>
      <trkpt lat="44.69491" lon="6.85189">
        <ele>1950.2</ele>
        <time>2026-03-25T09:09:41Z</time>
      </trkpt>
      <trkpt lat="44.6949" lon="6.85189">
        <ele>1950.3</ele>
        <time>2026-03-25T09:09:42Z</time>
      </trkpt>
      <trkpt lat="44.69489" lon="6.85189">
        <ele>1950.5</ele>
        <time>2026-03-25T09:09:43Z</time>
      </trkpt>
      <trkpt lat="44.69488" lon="6.85189">
        <ele>1950.6</ele>
        <time>2026-03-25T09:09:44Z</time>
      </trkpt>
      <trkpt lat="44.69488" lon="6.85188">
        <ele>1950.7</ele>
        <time>2026-03-25T09:09:45Z</time>
      </trkpt>
      <trkpt lat="44.69487" lon="6.85188">
        <ele>1950.8</ele>
        <time>2026-03-25T09:09:46Z</time>
      </trkpt>
      <trkpt lat="44.69487" lon="6.85188">
        <ele>1950.9</ele>
        <time>2026-03-25T09:09:47Z</time>
      </trkpt>
      <trkpt lat="44.69486" lon="6.85187">
        <ele>1951</ele>
        <time>2026-03-25T09:09:49Z</time>
      </trkpt>
      <trkpt lat="44.69486" lon="6.85187">
        <ele>1951.1</ele>
        <time>2026-03-25T09:09:50Z</time>
      </trkpt>
      <trkpt lat="44.69485" lon="6.85187">
        <ele>1951.2</ele>
        <time>2026-03-25T09:09:51Z</time>
      </trkpt>
      <trkpt lat="44.69485" lon="6.85187">
        <ele>1951.2</ele>
        <time>2026-03-25T09:09:52Z</time>
      </trkpt>
      <trkpt lat="44.69485" lon="6.85187">
        <ele>1951.3</ele>
        <time>2026-03-25T09:09:53Z</time>
      </trkpt>
      <trkpt lat="44.69484" lon="6.85186">
        <ele>1951.4</ele>
        <time>2026-03-25T09:09:54Z</time>
      </trkpt>
      <trkpt lat="44.69484" lon="6.85186">
        <ele>1951.5</ele>
        <time>2026-03-25T09:09:55Z</time>
      </trkpt>
      <trkpt lat="44.69484" lon="6.85186">
        <ele>1951.5</ele>
        <time>2026-03-25T09:09:56Z</time>
      </trkpt>
      <trkpt lat="44.69483" lon="6.85186">
        <ele>1951.6</ele>
        <time>2026-03-25T09:09:57Z</time>
      </trkpt>
      <trkpt lat="44.69482" lon="6.85186">
        <ele>1951.8</ele>
        <time>2026-03-25T09:09:58Z</time>
      </trkpt>
      <trkpt lat="44.69482" lon="6.85185">
        <ele>1951.9</ele>
        <time>2026-03-25T09:09:59Z</time>
      </trkpt>
      <trkpt lat="44.69481" lon="6.85185">
        <ele>1952</ele>
        <time>2026-03-25T09:10:00Z</time>
      </trkpt>
      <trkpt lat="44.6948" lon="6.85185">
        <ele>1952.1</ele>
        <time>2026-03-25T09:10:01Z</time>
      </trkpt>
      <trkpt lat="44.6948" lon="6.85185">
        <ele>1952.2</ele>
        <time>2026-03-25T09:10:02Z</time>
      </trkpt>
      <trkpt lat="44.69479" lon="6.85185">
        <ele>1952.3</ele>
        <time>2026-03-25T09:10:03Z</time>
      </trkpt>
      <trkpt lat="44.69479" lon="6.85184">
        <ele>1952.5</ele>
        <time>2026-03-25T09:10:04Z</time>
      </trkpt>
      <trkpt lat="44.69478" lon="6.85184">
        <ele>1952.5</ele>
        <time>2026-03-25T09:10:05Z</time>
      </trkpt>
      <trkpt lat="44.69478" lon="6.85184">
        <ele>1952.6</ele>
        <time>2026-03-25T09:10:06Z</time>
      </trkpt>
      <trkpt lat="44.69477" lon="6.85184">
        <ele>1952.7</ele>
        <time>2026-03-25T09:10:07Z</time>
      </trkpt>
      <trkpt lat="44.69477" lon="6.85184">
        <ele>1952.8</ele>
        <time>2026-03-25T09:10:08Z</time>
      </trkpt>
      <trkpt lat="44.69477" lon="6.85184">
        <ele>1952.9</ele>
        <time>2026-03-25T09:10:09Z</time>
      </trkpt>
      <trkpt lat="44.69476" lon="6.85183">
        <ele>1952.9</ele>
        <time>2026-03-25T09:10:10Z</time>
      </trkpt>
      <trkpt lat="44.69475" lon="6.85183">
        <ele>1953.1</ele>
        <time>2026-03-25T09:10:12Z</time>
      </trkpt>
      <trkpt lat="44.69475" lon="6.85183">
        <ele>1953.2</ele>
        <time>2026-03-25T09:10:13Z</time>
      </trkpt>
      <trkpt lat="44.69474" lon="6.85183">
        <ele>1953.3</ele>
        <time>2026-03-25T09:10:14Z</time>
      </trkpt>
      <trkpt lat="44.69474" lon="6.85183">
        <ele>1953.4</ele>
        <time>2026-03-25T09:10:15Z</time>
      </trkpt>
      <trkpt lat="44.69473" lon="6.85183">
        <ele>1953.5</ele>
        <time>2026-03-25T09:10:16Z</time>
      </trkpt>
      <trkpt lat="44.69473" lon="6.85183">
        <ele>1953.5</ele>
        <time>2026-03-25T09:10:17Z</time>
      </trkpt>
      <trkpt lat="44.6947" lon="6.85183">
        <ele>1954.1</ele>
        <time>2026-03-25T09:10:18Z</time>
      </trkpt>
      <trkpt lat="44.6947" lon="6.85184">
        <ele>1954.2</ele>
        <time>2026-03-25T09:10:19Z</time>
      </trkpt>
      <trkpt lat="44.69469" lon="6.85184">
        <ele>1954.4</ele>
        <time>2026-03-25T09:10:20Z</time>
      </trkpt>
      <trkpt lat="44.69468" lon="6.85184">
        <ele>1954.5</ele>
        <time>2026-03-25T09:10:21Z</time>
      </trkpt>
      <trkpt lat="44.69467" lon="6.85184">
        <ele>1954.7</ele>
        <time>2026-03-25T09:10:23Z</time>
      </trkpt>
      <trkpt lat="44.69466" lon="6.85184">
        <ele>1954.9</ele>
        <time>2026-03-25T09:10:24Z</time>
      </trkpt>
      <trkpt lat="44.69466" lon="6.85184">
        <ele>1955</ele>
        <time>2026-03-25T09:10:25Z</time>
      </trkpt>
      <trkpt lat="44.69465" lon="6.85184">
        <ele>1955.2</ele>
        <time>2026-03-25T09:10:26Z</time>
      </trkpt>
      <trkpt lat="44.69464" lon="6.85184">
        <ele>1955.4</ele>
        <time>2026-03-25T09:10:27Z</time>
      </trkpt>
      <trkpt lat="44.69463" lon="6.85185">
        <ele>1955.6</ele>
        <time>2026-03-25T09:10:28Z</time>
      </trkpt>
      <trkpt lat="44.69462" lon="6.85185">
        <ele>1955.8</ele>
        <time>2026-03-25T09:10:29Z</time>
      </trkpt>
      <trkpt lat="44.69461" lon="6.85185">
        <ele>1955.9</ele>
        <time>2026-03-25T09:10:30Z</time>
      </trkpt>
      <trkpt lat="44.69461" lon="6.85185">
        <ele>1956</ele>
        <time>2026-03-25T09:10:31Z</time>
      </trkpt>
      <trkpt lat="44.6946" lon="6.85185">
        <ele>1956.1</ele>
        <time>2026-03-25T09:10:32Z</time>
      </trkpt>
      <trkpt lat="44.69459" lon="6.85185">
        <ele>1956.4</ele>
        <time>2026-03-25T09:10:33Z</time>
      </trkpt>
      <trkpt lat="44.69458" lon="6.85185">
        <ele>1956.5</ele>
        <time>2026-03-25T09:10:34Z</time>
      </trkpt>
      <trkpt lat="44.69458" lon="6.85185">
        <ele>1956.6</ele>
        <time>2026-03-25T09:10:35Z</time>
      </trkpt>
      <trkpt lat="44.69457" lon="6.85185">
        <ele>1956.7</ele>
        <time>2026-03-25T09:10:36Z</time>
      </trkpt>
      <trkpt lat="44.69456" lon="6.85185">
        <ele>1956.8</ele>
        <time>2026-03-25T09:10:37Z</time>
      </trkpt>
      <trkpt lat="44.69456" lon="6.85185">
        <ele>1956.9</ele>
        <time>2026-03-25T09:10:38Z</time>
      </trkpt>
      <trkpt lat="44.69455" lon="6.85184">
        <ele>1957.1</ele>
        <time>2026-03-25T09:10:39Z</time>
      </trkpt>
      <trkpt lat="44.69455" lon="6.85184">
        <ele>1957.2</ele>
        <time>2026-03-25T09:10:41Z</time>
      </trkpt>
      <trkpt lat="44.69454" lon="6.85184">
        <ele>1957.3</ele>
        <time>2026-03-25T09:10:42Z</time>
      </trkpt>
      <trkpt lat="44.69453" lon="6.85184">
        <ele>1957.5</ele>
        <time>2026-03-25T09:10:43Z</time>
      </trkpt>
      <trkpt lat="44.69453" lon="6.85184">
        <ele>1957.5</ele>
        <time>2026-03-25T09:10:44Z</time>
      </trkpt>
      <trkpt lat="44.69452" lon="6.85184">
        <ele>1957.6</ele>
        <time>2026-03-25T09:10:45Z</time>
      </trkpt>
      <trkpt lat="44.69452" lon="6.85184">
        <ele>1957.7</ele>
        <time>2026-03-25T09:10:46Z</time>
      </trkpt>
      <trkpt lat="44.69451" lon="6.85183">
        <ele>1957.9</ele>
        <time>2026-03-25T09:10:47Z</time>
      </trkpt>
      <trkpt lat="44.6945" lon="6.85183">
        <ele>1958</ele>
        <time>2026-03-25T09:10:48Z</time>
      </trkpt>
      <trkpt lat="44.6945" lon="6.85183">
        <ele>1958.1</ele>
        <time>2026-03-25T09:10:49Z</time>
      </trkpt>
      <trkpt lat="44.69449" lon="6.85183">
        <ele>1958.3</ele>
        <time>2026-03-25T09:10:50Z</time>
      </trkpt>
      <trkpt lat="44.69449" lon="6.85183">
        <ele>1958.3</ele>
        <time>2026-03-25T09:10:51Z</time>
      </trkpt>
      <trkpt lat="44.69448" lon="6.85183">
        <ele>1958.4</ele>
        <time>2026-03-25T09:10:52Z</time>
      </trkpt>
      <trkpt lat="44.69448" lon="6.85183">
        <ele>1958.5</ele>
        <time>2026-03-25T09:10:53Z</time>
      </trkpt>
      <trkpt lat="44.69448" lon="6.85184">
        <ele>1958.6</ele>
        <time>2026-03-25T09:10:54Z</time>
      </trkpt>
      <trkpt lat="44.69447" lon="6.85184">
        <ele>1958.7</ele>
        <time>2026-03-25T09:10:55Z</time>
      </trkpt>
      <trkpt lat="44.69447" lon="6.85183">
        <ele>1958.8</ele>
        <time>2026-03-25T09:10:56Z</time>
      </trkpt>
      <trkpt lat="44.69446" lon="6.85183">
        <ele>1958.9</ele>
        <time>2026-03-25T09:10:57Z</time>
      </trkpt>
      <trkpt lat="44.69445" lon="6.85183">
        <ele>1959.2</ele>
        <time>2026-03-25T09:10:58Z</time>
      </trkpt>
      <trkpt lat="44.69444" lon="6.85183">
        <ele>1959.2</ele>
        <time>2026-03-25T09:10:59Z</time>
      </trkpt>
      <trkpt lat="44.69443" lon="6.85183">
        <ele>1959.4</ele>
        <time>2026-03-25T09:11:00Z</time>
      </trkpt>
      <trkpt lat="44.69443" lon="6.85182">
        <ele>1959.5</ele>
        <time>2026-03-25T09:11:01Z</time>
      </trkpt>
      <trkpt lat="44.69442" lon="6.85182">
        <ele>1959.6</ele>
        <time>2026-03-25T09:11:02Z</time>
      </trkpt>
      <trkpt lat="44.69441" lon="6.85182">
        <ele>1959.8</ele>
        <time>2026-03-25T09:11:03Z</time>
      </trkpt>
      <trkpt lat="44.6944" lon="6.85182">
        <ele>1960</ele>
        <time>2026-03-25T09:11:05Z</time>
      </trkpt>
      <trkpt lat="44.6944" lon="6.85182">
        <ele>1960.1</ele>
        <time>2026-03-25T09:11:06Z</time>
      </trkpt>
      <trkpt lat="44.69439" lon="6.85181">
        <ele>1960.3</ele>
        <time>2026-03-25T09:11:07Z</time>
      </trkpt>
      <trkpt lat="44.69438" lon="6.85181">
        <ele>1960.4</ele>
        <time>2026-03-25T09:11:08Z</time>
      </trkpt>
      <trkpt lat="44.69438" lon="6.85181">
        <ele>1960.5</ele>
        <time>2026-03-25T09:11:09Z</time>
      </trkpt>
      <trkpt lat="44.69437" lon="6.85181">
        <ele>1960.5</ele>
        <time>2026-03-25T09:11:10Z</time>
      </trkpt>
      <trkpt lat="44.69437" lon="6.85181">
        <ele>1960.6</ele>
        <time>2026-03-25T09:11:11Z</time>
      </trkpt>
      <trkpt lat="44.69437" lon="6.85181">
        <ele>1960.6</ele>
        <time>2026-03-25T09:11:12Z</time>
      </trkpt>
      <trkpt lat="44.69437" lon="6.85181">
        <ele>1960.6</ele>
        <time>2026-03-25T09:11:13Z</time>
      </trkpt>
      <trkpt lat="44.69437" lon="6.85181">
        <ele>1960.6</ele>
        <time>2026-03-25T09:11:14Z</time>
      </trkpt>
      <trkpt lat="44.69437" lon="6.85181">
        <ele>1960.6</ele>
        <time>2026-03-25T09:11:15Z</time>
      </trkpt>
      <trkpt lat="44.69436" lon="6.85181">
        <ele>1960.8</ele>
        <time>2026-03-25T09:11:16Z</time>
      </trkpt>
      <trkpt lat="44.69436" lon="6.85181">
        <ele>1960.9</ele>
        <time>2026-03-25T09:11:17Z</time>
      </trkpt>
      <trkpt lat="44.69435" lon="6.8518">
        <ele>1961</ele>
        <time>2026-03-25T09:11:18Z</time>
      </trkpt>
      <trkpt lat="44.69435" lon="6.8518">
        <ele>1961.1</ele>
        <time>2026-03-25T09:11:19Z</time>
      </trkpt>
      <trkpt lat="44.69434" lon="6.8518">
        <ele>1961.2</ele>
        <time>2026-03-25T09:11:20Z</time>
      </trkpt>
      <trkpt lat="44.69434" lon="6.8518">
        <ele>1961.2</ele>
        <time>2026-03-25T09:11:22Z</time>
      </trkpt>
      <trkpt lat="44.69433" lon="6.8518">
        <ele>1961.3</ele>
        <time>2026-03-25T09:11:23Z</time>
      </trkpt>
      <trkpt lat="44.69433" lon="6.8518">
        <ele>1961.4</ele>
        <time>2026-03-25T09:11:24Z</time>
      </trkpt>
      <trkpt lat="44.69432" lon="6.8518">
        <ele>1961.5</ele>
        <time>2026-03-25T09:11:25Z</time>
      </trkpt>
      <trkpt lat="44.69432" lon="6.8518">
        <ele>1961.6</ele>
        <time>2026-03-25T09:11:26Z</time>
      </trkpt>
      <trkpt lat="44.69432" lon="6.8518">
        <ele>1961.7</ele>
        <time>2026-03-25T09:11:27Z</time>
      </trkpt>
      <trkpt lat="44.69431" lon="6.85179">
        <ele>1961.8</ele>
        <time>2026-03-25T09:11:28Z</time>
      </trkpt>
      <trkpt lat="44.6943" lon="6.85179">
        <ele>1961.9</ele>
        <time>2026-03-25T09:11:29Z</time>
      </trkpt>
      <trkpt lat="44.6943" lon="6.85179">
        <ele>1962</ele>
        <time>2026-03-25T09:11:30Z</time>
      </trkpt>
      <trkpt lat="44.69429" lon="6.85178">
        <ele>1962.1</ele>
        <time>2026-03-25T09:11:31Z</time>
      </trkpt>
      <trkpt lat="44.69429" lon="6.85178">
        <ele>1962.3</ele>
        <time>2026-03-25T09:11:32Z</time>
      </trkpt>
      <trkpt lat="44.69428" lon="6.85178">
        <ele>1962.4</ele>
        <time>2026-03-25T09:11:33Z</time>
      </trkpt>
      <trkpt lat="44.69427" lon="6.85177">
        <ele>1962.5</ele>
        <time>2026-03-25T09:11:34Z</time>
      </trkpt>
      <trkpt lat="44.69427" lon="6.85177">
        <ele>1962.6</ele>
        <time>2026-03-25T09:11:35Z</time>
      </trkpt>
      <trkpt lat="44.69426" lon="6.85177">
        <ele>1962.7</ele>
        <time>2026-03-25T09:11:36Z</time>
      </trkpt>
      <trkpt lat="44.69426" lon="6.85177">
        <ele>1962.8</ele>
        <time>2026-03-25T09:11:37Z</time>
      </trkpt>
      <trkpt lat="44.69425" lon="6.85176">
        <ele>1962.9</ele>
        <time>2026-03-25T09:11:38Z</time>
      </trkpt>
      <trkpt lat="44.69425" lon="6.85176">
        <ele>1963.1</ele>
        <time>2026-03-25T09:11:40Z</time>
      </trkpt>
      <trkpt lat="44.69424" lon="6.85176">
        <ele>1963.1</ele>
        <time>2026-03-25T09:11:41Z</time>
      </trkpt>
      <trkpt lat="44.69424" lon="6.85176">
        <ele>1963.2</ele>
        <time>2026-03-25T09:11:42Z</time>
      </trkpt>
      <trkpt lat="44.69423" lon="6.85176">
        <ele>1963.4</ele>
        <time>2026-03-25T09:11:43Z</time>
      </trkpt>
      <trkpt lat="44.69423" lon="6.85175">
        <ele>1963.4</ele>
        <time>2026-03-25T09:11:44Z</time>
      </trkpt>
      <trkpt lat="44.69422" lon="6.85175">
        <ele>1963.6</ele>
        <time>2026-03-25T09:11:45Z</time>
      </trkpt>
      <trkpt lat="44.69421" lon="6.85175">
        <ele>1963.7</ele>
        <time>2026-03-25T09:11:46Z</time>
      </trkpt>
      <trkpt lat="44.69421" lon="6.85175">
        <ele>1963.8</ele>
        <time>2026-03-25T09:11:47Z</time>
      </trkpt>
      <trkpt lat="44.6942" lon="6.85175">
        <ele>1964</ele>
        <time>2026-03-25T09:11:48Z</time>
      </trkpt>
      <trkpt lat="44.6942" lon="6.85175">
        <ele>1964.1</ele>
        <time>2026-03-25T09:11:49Z</time>
      </trkpt>
      <trkpt lat="44.69419" lon="6.85175">
        <ele>1964.2</ele>
        <time>2026-03-25T09:11:50Z</time>
      </trkpt>
      <trkpt lat="44.69419" lon="6.85175">
        <ele>1964.2</ele>
        <time>2026-03-25T09:11:51Z</time>
      </trkpt>
      <trkpt lat="44.69419" lon="6.85175">
        <ele>1964.2</ele>
        <time>2026-03-25T09:11:52Z</time>
      </trkpt>
      <trkpt lat="44.69418" lon="6.85175">
        <ele>1964.5</ele>
        <time>2026-03-25T09:11:53Z</time>
      </trkpt>
      <trkpt lat="44.69417" lon="6.85175">
        <ele>1964.6</ele>
        <time>2026-03-25T09:11:54Z</time>
      </trkpt>
      <trkpt lat="44.69416" lon="6.85175">
        <ele>1964.7</ele>
        <time>2026-03-25T09:11:55Z</time>
      </trkpt>
      <trkpt lat="44.69416" lon="6.85174">
        <ele>1964.9</ele>
        <time>2026-03-25T09:11:56Z</time>
      </trkpt>
      <trkpt lat="44.69415" lon="6.85174">
        <ele>1965</ele>
        <time>2026-03-25T09:11:57Z</time>
      </trkpt>
      <trkpt lat="44.69415" lon="6.85174">
        <ele>1965.1</ele>
        <time>2026-03-25T09:11:58Z</time>
      </trkpt>
      <trkpt lat="44.69414" lon="6.85174">
        <ele>1965.2</ele>
        <time>2026-03-25T09:11:59Z</time>
      </trkpt>
      <trkpt lat="44.69413" lon="6.85174">
        <ele>1965.3</ele>
        <time>2026-03-25T09:12:00Z</time>
      </trkpt>
      <trkpt lat="44.69413" lon="6.85174">
        <ele>1965.4</ele>
        <time>2026-03-25T09:12:01Z</time>
      </trkpt>
      <trkpt lat="44.69412" lon="6.85174">
        <ele>1965.6</ele>
        <time>2026-03-25T09:12:02Z</time>
      </trkpt>
      <trkpt lat="44.69412" lon="6.85174">
        <ele>1965.7</ele>
        <time>2026-03-25T09:12:03Z</time>
      </trkpt>
      <trkpt lat="44.69411" lon="6.85174">
        <ele>1965.8</ele>
        <time>2026-03-25T09:12:04Z</time>
      </trkpt>
      <trkpt lat="44.6941" lon="6.85174">
        <ele>1965.9</ele>
        <time>2026-03-25T09:12:05Z</time>
      </trkpt>
      <trkpt lat="44.6941" lon="6.85174">
        <ele>1966</ele>
        <time>2026-03-25T09:12:06Z</time>
      </trkpt>
      <trkpt lat="44.69409" lon="6.85173">
        <ele>1966.2</ele>
        <time>2026-03-25T09:12:07Z</time>
      </trkpt>
      <trkpt lat="44.69409" lon="6.85173">
        <ele>1966.3</ele>
        <time>2026-03-25T09:12:08Z</time>
      </trkpt>
      <trkpt lat="44.69408" lon="6.85173">
        <ele>1966.4</ele>
        <time>2026-03-25T09:12:09Z</time>
      </trkpt>
      <trkpt lat="44.69408" lon="6.85173">
        <ele>1966.5</ele>
        <time>2026-03-25T09:12:10Z</time>
      </trkpt>
      <trkpt lat="44.69407" lon="6.85173">
        <ele>1966.6</ele>
        <time>2026-03-25T09:12:11Z</time>
      </trkpt>
      <trkpt lat="44.69407" lon="6.85173">
        <ele>1966.7</ele>
        <time>2026-03-25T09:12:12Z</time>
      </trkpt>
      <trkpt lat="44.69406" lon="6.85173">
        <ele>1966.8</ele>
        <time>2026-03-25T09:12:13Z</time>
      </trkpt>
      <trkpt lat="44.69406" lon="6.85173">
        <ele>1967</ele>
        <time>2026-03-25T09:12:14Z</time>
      </trkpt>
      <trkpt lat="44.69405" lon="6.85173">
        <ele>1967.1</ele>
        <time>2026-03-25T09:12:15Z</time>
      </trkpt>
      <trkpt lat="44.69405" lon="6.85173">
        <ele>1967.2</ele>
        <time>2026-03-25T09:12:16Z</time>
      </trkpt>
      <trkpt lat="44.69404" lon="6.85173">
        <ele>1967.3</ele>
        <time>2026-03-25T09:12:17Z</time>
      </trkpt>
      <trkpt lat="44.69403" lon="6.85173">
        <ele>1967.5</ele>
        <time>2026-03-25T09:12:18Z</time>
      </trkpt>
      <trkpt lat="44.69403" lon="6.85173">
        <ele>1967.6</ele>
        <time>2026-03-25T09:12:19Z</time>
      </trkpt>
      <trkpt lat="44.69402" lon="6.85173">
        <ele>1967.7</ele>
        <time>2026-03-25T09:12:20Z</time>
      </trkpt>
      <trkpt lat="44.69401" lon="6.85174">
        <ele>1967.9</ele>
        <time>2026-03-25T09:12:21Z</time>
      </trkpt>
      <trkpt lat="44.69401" lon="6.85174">
        <ele>1968</ele>
        <time>2026-03-25T09:12:22Z</time>
      </trkpt>
      <trkpt lat="44.694" lon="6.85174">
        <ele>1968.2</ele>
        <time>2026-03-25T09:12:23Z</time>
      </trkpt>
      <trkpt lat="44.69399" lon="6.85174">
        <ele>1968.3</ele>
        <time>2026-03-25T09:12:24Z</time>
      </trkpt>
      <trkpt lat="44.69399" lon="6.85174">
        <ele>1968.4</ele>
        <time>2026-03-25T09:12:25Z</time>
      </trkpt>
      <trkpt lat="44.69398" lon="6.85174">
        <ele>1968.6</ele>
        <time>2026-03-25T09:12:27Z</time>
      </trkpt>
      <trkpt lat="44.69397" lon="6.85174">
        <ele>1968.8</ele>
        <time>2026-03-25T09:12:28Z</time>
      </trkpt>
      <trkpt lat="44.69397" lon="6.85173">
        <ele>1968.8</ele>
        <time>2026-03-25T09:12:29Z</time>
      </trkpt>
      <trkpt lat="44.69396" lon="6.85173">
        <ele>1969</ele>
        <time>2026-03-25T09:12:30Z</time>
      </trkpt>
      <trkpt lat="44.69396" lon="6.85173">
        <ele>1969.1</ele>
        <time>2026-03-25T09:12:31Z</time>
      </trkpt>
      <trkpt lat="44.69395" lon="6.85173">
        <ele>1969.2</ele>
        <time>2026-03-25T09:12:32Z</time>
      </trkpt>
      <trkpt lat="44.69394" lon="6.85173">
        <ele>1969.4</ele>
        <time>2026-03-25T09:12:33Z</time>
      </trkpt>
      <trkpt lat="44.69394" lon="6.85173">
        <ele>1969.5</ele>
        <time>2026-03-25T09:12:34Z</time>
      </trkpt>
      <trkpt lat="44.69393" lon="6.85173">
        <ele>1969.6</ele>
        <time>2026-03-25T09:12:35Z</time>
      </trkpt>
      <trkpt lat="44.69393" lon="6.85173">
        <ele>1969.7</ele>
        <time>2026-03-25T09:12:36Z</time>
      </trkpt>
      <trkpt lat="44.69392" lon="6.85173">
        <ele>1969.9</ele>
        <time>2026-03-25T09:12:37Z</time>
      </trkpt>
      <trkpt lat="44.69391" lon="6.85172">
        <ele>1970</ele>
        <time>2026-03-25T09:12:38Z</time>
      </trkpt>
      <trkpt lat="44.69391" lon="6.85172">
        <ele>1970.1</ele>
        <time>2026-03-25T09:12:39Z</time>
      </trkpt>
      <trkpt lat="44.6939" lon="6.85172">
        <ele>1970.3</ele>
        <time>2026-03-25T09:12:40Z</time>
      </trkpt>
      <trkpt lat="44.6939" lon="6.85172">
        <ele>1970.4</ele>
        <time>2026-03-25T09:12:41Z</time>
      </trkpt>
      <trkpt lat="44.69388" lon="6.85171">
        <ele>1970.6</ele>
        <time>2026-03-25T09:12:43Z</time>
      </trkpt>
      <trkpt lat="44.69388" lon="6.85171">
        <ele>1970.7</ele>
        <time>2026-03-25T09:12:44Z</time>
      </trkpt>
      <trkpt lat="44.69387" lon="6.85171">
        <ele>1970.8</ele>
        <time>2026-03-25T09:12:45Z</time>
      </trkpt>
      <trkpt lat="44.69387" lon="6.85171">
        <ele>1971</ele>
        <time>2026-03-25T09:12:46Z</time>
      </trkpt>
      <trkpt lat="44.69386" lon="6.8517">
        <ele>1971.1</ele>
        <time>2026-03-25T09:12:47Z</time>
      </trkpt>
      <trkpt lat="44.69386" lon="6.8517">
        <ele>1971.1</ele>
        <time>2026-03-25T09:12:48Z</time>
      </trkpt>
      <trkpt lat="44.69385" lon="6.8517">
        <ele>1971.3</ele>
        <time>2026-03-25T09:12:49Z</time>
      </trkpt>
      <trkpt lat="44.69385" lon="6.8517">
        <ele>1971.4</ele>
        <time>2026-03-25T09:12:50Z</time>
      </trkpt>
      <trkpt lat="44.69384" lon="6.8517">
        <ele>1971.5</ele>
        <time>2026-03-25T09:12:51Z</time>
      </trkpt>
      <trkpt lat="44.69384" lon="6.85169">
        <ele>1971.6</ele>
        <time>2026-03-25T09:12:52Z</time>
      </trkpt>
      <trkpt lat="44.69383" lon="6.85169">
        <ele>1971.7</ele>
        <time>2026-03-25T09:12:53Z</time>
      </trkpt>
      <trkpt lat="44.69383" lon="6.85169">
        <ele>1971.8</ele>
        <time>2026-03-25T09:12:54Z</time>
      </trkpt>
      <trkpt lat="44.69383" lon="6.85169">
        <ele>1971.9</ele>
        <time>2026-03-25T09:12:55Z</time>
      </trkpt>
      <trkpt lat="44.69382" lon="6.85168">
        <ele>1972.1</ele>
        <time>2026-03-25T09:12:56Z</time>
      </trkpt>
      <trkpt lat="44.69381" lon="6.85168">
        <ele>1972.2</ele>
        <time>2026-03-25T09:12:57Z</time>
      </trkpt>
      <trkpt lat="44.69381" lon="6.85168">
        <ele>1972.3</ele>
        <time>2026-03-25T09:12:58Z</time>
      </trkpt>
      <trkpt lat="44.6938" lon="6.85167">
        <ele>1972.4</ele>
        <time>2026-03-25T09:12:59Z</time>
      </trkpt>
      <trkpt lat="44.6938" lon="6.85167">
        <ele>1972.5</ele>
        <time>2026-03-25T09:13:00Z</time>
      </trkpt>
      <trkpt lat="44.69379" lon="6.85167">
        <ele>1972.6</ele>
        <time>2026-03-25T09:13:01Z</time>
      </trkpt>
      <trkpt lat="44.69379" lon="6.85166">
        <ele>1972.7</ele>
        <time>2026-03-25T09:13:02Z</time>
      </trkpt>
      <trkpt lat="44.69378" lon="6.85166">
        <ele>1972.9</ele>
        <time>2026-03-25T09:13:03Z</time>
      </trkpt>
      <trkpt lat="44.69378" lon="6.85166">
        <ele>1973</ele>
        <time>2026-03-25T09:13:04Z</time>
      </trkpt>
      <trkpt lat="44.69377" lon="6.85165">
        <ele>1973.1</ele>
        <time>2026-03-25T09:13:05Z</time>
      </trkpt>
      <trkpt lat="44.69376" lon="6.85165">
        <ele>1973.3</ele>
        <time>2026-03-25T09:13:06Z</time>
      </trkpt>
      <trkpt lat="44.69375" lon="6.85165">
        <ele>1973.5</ele>
        <time>2026-03-25T09:13:08Z</time>
      </trkpt>
      <trkpt lat="44.69374" lon="6.85164">
        <ele>1973.7</ele>
        <time>2026-03-25T09:13:09Z</time>
      </trkpt>
      <trkpt lat="44.69374" lon="6.85164">
        <ele>1973.8</ele>
        <time>2026-03-25T09:13:10Z</time>
      </trkpt>
      <trkpt lat="44.69373" lon="6.85164">
        <ele>1973.9</ele>
        <time>2026-03-25T09:13:11Z</time>
      </trkpt>
      <trkpt lat="44.69373" lon="6.85164">
        <ele>1974</ele>
        <time>2026-03-25T09:13:12Z</time>
      </trkpt>
      <trkpt lat="44.69372" lon="6.85164">
        <ele>1974.1</ele>
        <time>2026-03-25T09:13:13Z</time>
      </trkpt>
      <trkpt lat="44.69372" lon="6.85164">
        <ele>1974.2</ele>
        <time>2026-03-25T09:13:14Z</time>
      </trkpt>
      <trkpt lat="44.69371" lon="6.85164">
        <ele>1974.3</ele>
        <time>2026-03-25T09:13:15Z</time>
      </trkpt>
      <trkpt lat="44.69371" lon="6.85164">
        <ele>1974.4</ele>
        <time>2026-03-25T09:13:16Z</time>
      </trkpt>
      <trkpt lat="44.69371" lon="6.85164">
        <ele>1974.4</ele>
        <time>2026-03-25T09:13:17Z</time>
      </trkpt>
      <trkpt lat="44.6937" lon="6.85164">
        <ele>1974.5</ele>
        <time>2026-03-25T09:13:18Z</time>
      </trkpt>
      <trkpt lat="44.6937" lon="6.85164">
        <ele>1974.6</ele>
        <time>2026-03-25T09:13:19Z</time>
      </trkpt>
      <trkpt lat="44.69369" lon="6.85164">
        <ele>1974.8</ele>
        <time>2026-03-25T09:13:20Z</time>
      </trkpt>
      <trkpt lat="44.69369" lon="6.85164">
        <ele>1974.8</ele>
        <time>2026-03-25T09:13:21Z</time>
      </trkpt>
      <trkpt lat="44.69368" lon="6.85163">
        <ele>1974.9</ele>
        <time>2026-03-25T09:13:22Z</time>
      </trkpt>
      <trkpt lat="44.69368" lon="6.85163">
        <ele>1975.1</ele>
        <time>2026-03-25T09:13:23Z</time>
      </trkpt>
      <trkpt lat="44.69367" lon="6.85163">
        <ele>1975.2</ele>
        <time>2026-03-25T09:13:24Z</time>
      </trkpt>
      <trkpt lat="44.69367" lon="6.85163">
        <ele>1975.3</ele>
        <time>2026-03-25T09:13:25Z</time>
      </trkpt>
      <trkpt lat="44.69366" lon="6.85163">
        <ele>1975.5</ele>
        <time>2026-03-25T09:13:26Z</time>
      </trkpt>
      <trkpt lat="44.69365" lon="6.85163">
        <ele>1975.6</ele>
        <time>2026-03-25T09:13:27Z</time>
      </trkpt>
      <trkpt lat="44.69365" lon="6.85163">
        <ele>1975.8</ele>
        <time>2026-03-25T09:13:28Z</time>
      </trkpt>
      <trkpt lat="44.69364" lon="6.85163">
        <ele>1975.9</ele>
        <time>2026-03-25T09:13:30Z</time>
      </trkpt>
      <trkpt lat="44.69364" lon="6.85163">
        <ele>1976</ele>
        <time>2026-03-25T09:13:31Z</time>
      </trkpt>
      <trkpt lat="44.69363" lon="6.85162">
        <ele>1976.2</ele>
        <time>2026-03-25T09:13:32Z</time>
      </trkpt>
      <trkpt lat="44.69362" lon="6.85162">
        <ele>1976.3</ele>
        <time>2026-03-25T09:13:33Z</time>
      </trkpt>
      <trkpt lat="44.69361" lon="6.85162">
        <ele>1976.5</ele>
        <time>2026-03-25T09:13:34Z</time>
      </trkpt>
      <trkpt lat="44.69361" lon="6.85162">
        <ele>1976.6</ele>
        <time>2026-03-25T09:13:35Z</time>
      </trkpt>
      <trkpt lat="44.6936" lon="6.85162">
        <ele>1976.8</ele>
        <time>2026-03-25T09:13:36Z</time>
      </trkpt>
      <trkpt lat="44.69359" lon="6.85161">
        <ele>1977</ele>
        <time>2026-03-25T09:13:37Z</time>
      </trkpt>
      <trkpt lat="44.69359" lon="6.85161">
        <ele>1977.1</ele>
        <time>2026-03-25T09:13:38Z</time>
      </trkpt>
      <trkpt lat="44.69358" lon="6.85161">
        <ele>1977.2</ele>
        <time>2026-03-25T09:13:39Z</time>
      </trkpt>
      <trkpt lat="44.69358" lon="6.85161">
        <ele>1977.4</ele>
        <time>2026-03-25T09:13:40Z</time>
      </trkpt>
      <trkpt lat="44.69357" lon="6.8516">
        <ele>1977.5</ele>
        <time>2026-03-25T09:13:41Z</time>
      </trkpt>
      <trkpt lat="44.69356" lon="6.8516">
        <ele>1977.7</ele>
        <time>2026-03-25T09:13:42Z</time>
      </trkpt>
      <trkpt lat="44.69356" lon="6.8516">
        <ele>1977.7</ele>
        <time>2026-03-25T09:13:43Z</time>
      </trkpt>
      <trkpt lat="44.69355" lon="6.8516">
        <ele>1978</ele>
        <time>2026-03-25T09:13:44Z</time>
      </trkpt>
      <trkpt lat="44.69355" lon="6.8516">
        <ele>1978.1</ele>
        <time>2026-03-25T09:13:45Z</time>
      </trkpt>
      <trkpt lat="44.69354" lon="6.8516">
        <ele>1978.2</ele>
        <time>2026-03-25T09:13:46Z</time>
      </trkpt>
      <trkpt lat="44.69354" lon="6.8516">
        <ele>1978.4</ele>
        <time>2026-03-25T09:13:47Z</time>
      </trkpt>
      <trkpt lat="44.69353" lon="6.85159">
        <ele>1978.4</ele>
        <time>2026-03-25T09:13:48Z</time>
      </trkpt>
      <trkpt lat="44.69353" lon="6.85159">
        <ele>1978.5</ele>
        <time>2026-03-25T09:13:49Z</time>
      </trkpt>
      <trkpt lat="44.69352" lon="6.85159">
        <ele>1978.7</ele>
        <time>2026-03-25T09:13:50Z</time>
      </trkpt>
      <trkpt lat="44.69352" lon="6.85159">
        <ele>1978.8</ele>
        <time>2026-03-25T09:13:51Z</time>
      </trkpt>
      <trkpt lat="44.69351" lon="6.85159">
        <ele>1979</ele>
        <time>2026-03-25T09:13:53Z</time>
      </trkpt>
      <trkpt lat="44.69351" lon="6.85158">
        <ele>1979.1</ele>
        <time>2026-03-25T09:13:54Z</time>
      </trkpt>
      <trkpt lat="44.6935" lon="6.85158">
        <ele>1979.2</ele>
        <time>2026-03-25T09:13:55Z</time>
      </trkpt>
      <trkpt lat="44.69349" lon="6.85158">
        <ele>1979.4</ele>
        <time>2026-03-25T09:13:56Z</time>
      </trkpt>
      <trkpt lat="44.69349" lon="6.85158">
        <ele>1979.5</ele>
        <time>2026-03-25T09:13:57Z</time>
      </trkpt>
      <trkpt lat="44.69348" lon="6.85157">
        <ele>1979.7</ele>
        <time>2026-03-25T09:13:58Z</time>
      </trkpt>
      <trkpt lat="44.69347" lon="6.85157">
        <ele>1979.9</ele>
        <time>2026-03-25T09:13:59Z</time>
      </trkpt>
      <trkpt lat="44.69346" lon="6.85157">
        <ele>1980.1</ele>
        <time>2026-03-25T09:14:00Z</time>
      </trkpt>
      <trkpt lat="44.69346" lon="6.85157">
        <ele>1980.2</ele>
        <time>2026-03-25T09:14:01Z</time>
      </trkpt>
      <trkpt lat="44.69345" lon="6.85157">
        <ele>1980.4</ele>
        <time>2026-03-25T09:14:03Z</time>
      </trkpt>
      <trkpt lat="44.69344" lon="6.85157">
        <ele>1980.6</ele>
        <time>2026-03-25T09:14:04Z</time>
      </trkpt>
      <trkpt lat="44.69344" lon="6.85157">
        <ele>1980.7</ele>
        <time>2026-03-25T09:14:05Z</time>
      </trkpt>
      <trkpt lat="44.69343" lon="6.85156">
        <ele>1980.9</ele>
        <time>2026-03-25T09:14:06Z</time>
      </trkpt>
      <trkpt lat="44.69343" lon="6.85156">
        <ele>1980.9</ele>
        <time>2026-03-25T09:14:07Z</time>
      </trkpt>
      <trkpt lat="44.69342" lon="6.85156">
        <ele>1981.2</ele>
        <time>2026-03-25T09:14:08Z</time>
      </trkpt>
      <trkpt lat="44.69341" lon="6.85156">
        <ele>1981.3</ele>
        <time>2026-03-25T09:14:09Z</time>
      </trkpt>
      <trkpt lat="44.6934" lon="6.85156">
        <ele>1981.5</ele>
        <time>2026-03-25T09:14:10Z</time>
      </trkpt>
      <trkpt lat="44.6934" lon="6.85156">
        <ele>1981.5</ele>
        <time>2026-03-25T09:14:11Z</time>
      </trkpt>
      <trkpt lat="44.69339" lon="6.85156">
        <ele>1981.8</ele>
        <time>2026-03-25T09:14:12Z</time>
      </trkpt>
      <trkpt lat="44.69339" lon="6.85156">
        <ele>1981.9</ele>
        <time>2026-03-25T09:14:13Z</time>
      </trkpt>
      <trkpt lat="44.69338" lon="6.85156">
        <ele>1982</ele>
        <time>2026-03-25T09:14:14Z</time>
      </trkpt>
      <trkpt lat="44.69338" lon="6.85156">
        <ele>1982.1</ele>
        <time>2026-03-25T09:14:15Z</time>
      </trkpt>
      <trkpt lat="44.69337" lon="6.85156">
        <ele>1982.3</ele>
        <time>2026-03-25T09:14:17Z</time>
      </trkpt>
      <trkpt lat="44.69336" lon="6.85156">
        <ele>1982.5</ele>
        <time>2026-03-25T09:14:18Z</time>
      </trkpt>
      <trkpt lat="44.69336" lon="6.85156">
        <ele>1982.5</ele>
        <time>2026-03-25T09:14:19Z</time>
      </trkpt>
      <trkpt lat="44.69335" lon="6.85156">
        <ele>1982.7</ele>
        <time>2026-03-25T09:14:20Z</time>
      </trkpt>
      <trkpt lat="44.69334" lon="6.85157">
        <ele>1982.9</ele>
        <time>2026-03-25T09:14:21Z</time>
      </trkpt>
      <trkpt lat="44.69334" lon="6.85157">
        <ele>1983</ele>
        <time>2026-03-25T09:14:22Z</time>
      </trkpt>
      <trkpt lat="44.69333" lon="6.85157">
        <ele>1983.1</ele>
        <time>2026-03-25T09:14:23Z</time>
      </trkpt>
      <trkpt lat="44.69332" lon="6.85157">
        <ele>1983.3</ele>
        <time>2026-03-25T09:14:24Z</time>
      </trkpt>
      <trkpt lat="44.69332" lon="6.85157">
        <ele>1983.4</ele>
        <time>2026-03-25T09:14:26Z</time>
      </trkpt>
      <trkpt lat="44.69331" lon="6.85157">
        <ele>1983.6</ele>
        <time>2026-03-25T09:14:27Z</time>
      </trkpt>
      <trkpt lat="44.6933" lon="6.85158">
        <ele>1983.7</ele>
        <time>2026-03-25T09:14:28Z</time>
      </trkpt>
      <trkpt lat="44.6933" lon="6.85158">
        <ele>1983.8</ele>
        <time>2026-03-25T09:14:29Z</time>
      </trkpt>
      <trkpt lat="44.6933" lon="6.85158">
        <ele>1983.9</ele>
        <time>2026-03-25T09:14:30Z</time>
      </trkpt>
      <trkpt lat="44.69329" lon="6.85158">
        <ele>1983.9</ele>
        <time>2026-03-25T09:14:31Z</time>
      </trkpt>
      <trkpt lat="44.69329" lon="6.85159">
        <ele>1984.1</ele>
        <time>2026-03-25T09:14:32Z</time>
      </trkpt>
      <trkpt lat="44.69328" lon="6.85159">
        <ele>1984.2</ele>
        <time>2026-03-25T09:14:33Z</time>
      </trkpt>
      <trkpt lat="44.69328" lon="6.8516">
        <ele>1984.4</ele>
        <time>2026-03-25T09:14:34Z</time>
      </trkpt>
      <trkpt lat="44.69327" lon="6.8516">
        <ele>1984.5</ele>
        <time>2026-03-25T09:14:35Z</time>
      </trkpt>
      <trkpt lat="44.69326" lon="6.8516">
        <ele>1984.6</ele>
        <time>2026-03-25T09:14:36Z</time>
      </trkpt>
      <trkpt lat="44.69326" lon="6.85161">
        <ele>1984.8</ele>
        <time>2026-03-25T09:14:37Z</time>
      </trkpt>
      <trkpt lat="44.69326" lon="6.85161">
        <ele>1984.8</ele>
        <time>2026-03-25T09:14:38Z</time>
      </trkpt>
      <trkpt lat="44.69325" lon="6.85161">
        <ele>1985</ele>
        <time>2026-03-25T09:14:39Z</time>
      </trkpt>
      <trkpt lat="44.69324" lon="6.85162">
        <ele>1985.1</ele>
        <time>2026-03-25T09:14:40Z</time>
      </trkpt>
      <trkpt lat="44.69324" lon="6.85162">
        <ele>1985.2</ele>
        <time>2026-03-25T09:14:41Z</time>
      </trkpt>
      <trkpt lat="44.69323" lon="6.85163">
        <ele>1985.4</ele>
        <time>2026-03-25T09:14:42Z</time>
      </trkpt>
      <trkpt lat="44.69322" lon="6.85163">
        <ele>1985.6</ele>
        <time>2026-03-25T09:14:44Z</time>
      </trkpt>
      <trkpt lat="44.69322" lon="6.85164">
        <ele>1985.7</ele>
        <time>2026-03-25T09:14:45Z</time>
      </trkpt>
      <trkpt lat="44.69321" lon="6.85164">
        <ele>1985.9</ele>
        <time>2026-03-25T09:14:46Z</time>
      </trkpt>
      <trkpt lat="44.6932" lon="6.85164">
        <ele>1986</ele>
        <time>2026-03-25T09:14:47Z</time>
      </trkpt>
      <trkpt lat="44.6932" lon="6.85165">
        <ele>1986.2</ele>
        <time>2026-03-25T09:14:48Z</time>
      </trkpt>
      <trkpt lat="44.6932" lon="6.85165">
        <ele>1986.3</ele>
        <time>2026-03-25T09:14:49Z</time>
      </trkpt>
      <trkpt lat="44.69319" lon="6.85166">
        <ele>1986.5</ele>
        <time>2026-03-25T09:14:50Z</time>
      </trkpt>
      <trkpt lat="44.69318" lon="6.85166">
        <ele>1986.7</ele>
        <time>2026-03-25T09:14:51Z</time>
      </trkpt>
      <trkpt lat="44.69317" lon="6.85167">
        <ele>1986.8</ele>
        <time>2026-03-25T09:14:53Z</time>
      </trkpt>
      <trkpt lat="44.69317" lon="6.85168">
        <ele>1987</ele>
        <time>2026-03-25T09:14:54Z</time>
      </trkpt>
      <trkpt lat="44.69316" lon="6.85168">
        <ele>1987.1</ele>
        <time>2026-03-25T09:14:55Z</time>
      </trkpt>
      <trkpt lat="44.69316" lon="6.85169">
        <ele>1987.3</ele>
        <time>2026-03-25T09:14:56Z</time>
      </trkpt>
      <trkpt lat="44.69315" lon="6.85169">
        <ele>1987.4</ele>
        <time>2026-03-25T09:14:57Z</time>
      </trkpt>
      <trkpt lat="44.69314" lon="6.8517">
        <ele>1987.7</ele>
        <time>2026-03-25T09:14:58Z</time>
      </trkpt>
      <trkpt lat="44.69314" lon="6.85171">
        <ele>1987.9</ele>
        <time>2026-03-25T09:14:59Z</time>
      </trkpt>
      <trkpt lat="44.69313" lon="6.85171">
        <ele>1988</ele>
        <time>2026-03-25T09:15:00Z</time>
      </trkpt>
      <trkpt lat="44.69313" lon="6.85172">
        <ele>1988.1</ele>
        <time>2026-03-25T09:15:01Z</time>
      </trkpt>
      <trkpt lat="44.69312" lon="6.85172">
        <ele>1988.3</ele>
        <time>2026-03-25T09:15:02Z</time>
      </trkpt>
      <trkpt lat="44.69311" lon="6.85173">
        <ele>1988.5</ele>
        <time>2026-03-25T09:15:04Z</time>
      </trkpt>
      <trkpt lat="44.69311" lon="6.85174">
        <ele>1988.7</ele>
        <time>2026-03-25T09:15:05Z</time>
      </trkpt>
      <trkpt lat="44.6931" lon="6.85174">
        <ele>1988.9</ele>
        <time>2026-03-25T09:15:06Z</time>
      </trkpt>
      <trkpt lat="44.69309" lon="6.85174">
        <ele>1989.1</ele>
        <time>2026-03-25T09:15:07Z</time>
      </trkpt>
      <trkpt lat="44.69308" lon="6.85174">
        <ele>1989.2</ele>
        <time>2026-03-25T09:15:08Z</time>
      </trkpt>
      <trkpt lat="44.69308" lon="6.85174">
        <ele>1989.3</ele>
        <time>2026-03-25T09:15:09Z</time>
      </trkpt>
      <trkpt lat="44.69307" lon="6.85175">
        <ele>1989.5</ele>
        <time>2026-03-25T09:15:10Z</time>
      </trkpt>
      <trkpt lat="44.69306" lon="6.85175">
        <ele>1989.7</ele>
        <time>2026-03-25T09:15:11Z</time>
      </trkpt>
      <trkpt lat="44.69306" lon="6.85175">
        <ele>1989.8</ele>
        <time>2026-03-25T09:15:12Z</time>
      </trkpt>
      <trkpt lat="44.69305" lon="6.85175">
        <ele>1989.9</ele>
        <time>2026-03-25T09:15:13Z</time>
      </trkpt>
      <trkpt lat="44.69305" lon="6.85176">
        <ele>1990</ele>
        <time>2026-03-25T09:15:14Z</time>
      </trkpt>
      <trkpt lat="44.69304" lon="6.85176">
        <ele>1990.1</ele>
        <time>2026-03-25T09:15:16Z</time>
      </trkpt>
      <trkpt lat="44.69304" lon="6.85176">
        <ele>1990.3</ele>
        <time>2026-03-25T09:15:17Z</time>
      </trkpt>
      <trkpt lat="44.69303" lon="6.85176">
        <ele>1990.4</ele>
        <time>2026-03-25T09:15:18Z</time>
      </trkpt>
      <trkpt lat="44.69303" lon="6.85176">
        <ele>1990.5</ele>
        <time>2026-03-25T09:15:19Z</time>
      </trkpt>
      <trkpt lat="44.69302" lon="6.85176">
        <ele>1990.6</ele>
        <time>2026-03-25T09:15:20Z</time>
      </trkpt>
      <trkpt lat="44.69302" lon="6.85177">
        <ele>1990.6</ele>
        <time>2026-03-25T09:15:21Z</time>
      </trkpt>
      <trkpt lat="44.69301" lon="6.85177">
        <ele>1990.9</ele>
        <time>2026-03-25T09:15:22Z</time>
      </trkpt>
      <trkpt lat="44.693" lon="6.85177">
        <ele>1991</ele>
        <time>2026-03-25T09:15:23Z</time>
      </trkpt>
      <trkpt lat="44.693" lon="6.85177">
        <ele>1991.1</ele>
        <time>2026-03-25T09:15:25Z</time>
      </trkpt>
      <trkpt lat="44.69299" lon="6.85177">
        <ele>1991.2</ele>
        <time>2026-03-25T09:15:26Z</time>
      </trkpt>
      <trkpt lat="44.69298" lon="6.85178">
        <ele>1991.4</ele>
        <time>2026-03-25T09:15:27Z</time>
      </trkpt>
      <trkpt lat="44.69298" lon="6.85178">
        <ele>1991.5</ele>
        <time>2026-03-25T09:15:28Z</time>
      </trkpt>
      <trkpt lat="44.69297" lon="6.85179">
        <ele>1991.7</ele>
        <time>2026-03-25T09:15:29Z</time>
      </trkpt>
      <trkpt lat="44.69296" lon="6.85179">
        <ele>1991.8</ele>
        <time>2026-03-25T09:15:30Z</time>
      </trkpt>
      <trkpt lat="44.69296" lon="6.85179">
        <ele>1992</ele>
        <time>2026-03-25T09:15:31Z</time>
      </trkpt>
      <trkpt lat="44.69295" lon="6.8518">
        <ele>1992.1</ele>
        <time>2026-03-25T09:15:32Z</time>
      </trkpt>
      <trkpt lat="44.69294" lon="6.8518">
        <ele>1992.2</ele>
        <time>2026-03-25T09:15:33Z</time>
      </trkpt>
      <trkpt lat="44.69294" lon="6.8518">
        <ele>1992.3</ele>
        <time>2026-03-25T09:15:34Z</time>
      </trkpt>
      <trkpt lat="44.69293" lon="6.8518">
        <ele>1992.5</ele>
        <time>2026-03-25T09:15:35Z</time>
      </trkpt>
      <trkpt lat="44.69292" lon="6.8518">
        <ele>1992.6</ele>
        <time>2026-03-25T09:15:36Z</time>
      </trkpt>
      <trkpt lat="44.69292" lon="6.85181">
        <ele>1992.7</ele>
        <time>2026-03-25T09:15:38Z</time>
      </trkpt>
      <trkpt lat="44.69291" lon="6.85181">
        <ele>1992.8</ele>
        <time>2026-03-25T09:15:39Z</time>
      </trkpt>
      <trkpt lat="44.69291" lon="6.85181">
        <ele>1992.9</ele>
        <time>2026-03-25T09:15:40Z</time>
      </trkpt>
      <trkpt lat="44.69289" lon="6.85182">
        <ele>1993.2</ele>
        <time>2026-03-25T09:15:41Z</time>
      </trkpt>
      <trkpt lat="44.69288" lon="6.85183">
        <ele>1993.5</ele>
        <time>2026-03-25T09:15:42Z</time>
      </trkpt>
      <trkpt lat="44.69287" lon="6.85183">
        <ele>1993.8</ele>
        <time>2026-03-25T09:15:43Z</time>
      </trkpt>
      <trkpt lat="44.69286" lon="6.85184">
        <ele>1993.9</ele>
        <time>2026-03-25T09:15:44Z</time>
      </trkpt>
      <trkpt lat="44.69285" lon="6.85184">
        <ele>1994.1</ele>
        <time>2026-03-25T09:15:45Z</time>
      </trkpt>
      <trkpt lat="44.69284" lon="6.85185">
        <ele>1994.2</ele>
        <time>2026-03-25T09:15:46Z</time>
      </trkpt>
      <trkpt lat="44.69284" lon="6.85185">
        <ele>1994.3</ele>
        <time>2026-03-25T09:15:47Z</time>
      </trkpt>
      <trkpt lat="44.69283" lon="6.85185">
        <ele>1994.5</ele>
        <time>2026-03-25T09:15:48Z</time>
      </trkpt>
      <trkpt lat="44.69283" lon="6.85186">
        <ele>1994.6</ele>
        <time>2026-03-25T09:15:49Z</time>
      </trkpt>
      <trkpt lat="44.69282" lon="6.85186">
        <ele>1994.7</ele>
        <time>2026-03-25T09:15:50Z</time>
      </trkpt>
      <trkpt lat="44.69282" lon="6.85186">
        <ele>1994.8</ele>
        <time>2026-03-25T09:15:51Z</time>
      </trkpt>
      <trkpt lat="44.69282" lon="6.85186">
        <ele>1994.8</ele>
        <time>2026-03-25T09:15:52Z</time>
      </trkpt>
      <trkpt lat="44.69281" lon="6.85186">
        <ele>1994.9</ele>
        <time>2026-03-25T09:15:53Z</time>
      </trkpt>
      <trkpt lat="44.6928" lon="6.85187">
        <ele>1995.1</ele>
        <time>2026-03-25T09:15:54Z</time>
      </trkpt>
      <trkpt lat="44.6928" lon="6.85187">
        <ele>1995.2</ele>
        <time>2026-03-25T09:15:55Z</time>
      </trkpt>
      <trkpt lat="44.69279" lon="6.85187">
        <ele>1995.4</ele>
        <time>2026-03-25T09:15:56Z</time>
      </trkpt>
      <trkpt lat="44.69279" lon="6.85187">
        <ele>1995.5</ele>
        <time>2026-03-25T09:15:57Z</time>
      </trkpt>
      <trkpt lat="44.69278" lon="6.85187">
        <ele>1995.7</ele>
        <time>2026-03-25T09:15:58Z</time>
      </trkpt>
      <trkpt lat="44.69277" lon="6.85187">
        <ele>1995.8</ele>
        <time>2026-03-25T09:15:59Z</time>
      </trkpt>
      <trkpt lat="44.69276" lon="6.85186">
        <ele>1995.9</ele>
        <time>2026-03-25T09:16:00Z</time>
      </trkpt>
      <trkpt lat="44.69276" lon="6.85186">
        <ele>1996</ele>
        <time>2026-03-25T09:16:01Z</time>
      </trkpt>
      <trkpt lat="44.69275" lon="6.85186">
        <ele>1996.2</ele>
        <time>2026-03-25T09:16:02Z</time>
      </trkpt>
      <trkpt lat="44.69275" lon="6.85186">
        <ele>1996.3</ele>
        <time>2026-03-25T09:16:03Z</time>
      </trkpt>
      <trkpt lat="44.69274" lon="6.85186">
        <ele>1996.4</ele>
        <time>2026-03-25T09:16:04Z</time>
      </trkpt>
      <trkpt lat="44.69273" lon="6.85187">
        <ele>1996.6</ele>
        <time>2026-03-25T09:16:05Z</time>
      </trkpt>
      <trkpt lat="44.69273" lon="6.85187">
        <ele>1996.7</ele>
        <time>2026-03-25T09:16:06Z</time>
      </trkpt>
      <trkpt lat="44.69272" lon="6.85187">
        <ele>1996.8</ele>
        <time>2026-03-25T09:16:07Z</time>
      </trkpt>
      <trkpt lat="44.69271" lon="6.85187">
        <ele>1996.9</ele>
        <time>2026-03-25T09:16:08Z</time>
      </trkpt>
      <trkpt lat="44.69271" lon="6.85187">
        <ele>1997.1</ele>
        <time>2026-03-25T09:16:09Z</time>
      </trkpt>
      <trkpt lat="44.6927" lon="6.85187">
        <ele>1997.2</ele>
        <time>2026-03-25T09:16:10Z</time>
      </trkpt>
      <trkpt lat="44.6927" lon="6.85188">
        <ele>1997.3</ele>
        <time>2026-03-25T09:16:11Z</time>
      </trkpt>
      <trkpt lat="44.69269" lon="6.85188">
        <ele>1997.4</ele>
        <time>2026-03-25T09:16:12Z</time>
      </trkpt>
      <trkpt lat="44.69269" lon="6.85188">
        <ele>1997.6</ele>
        <time>2026-03-25T09:16:13Z</time>
      </trkpt>
      <trkpt lat="44.69268" lon="6.85188">
        <ele>1997.7</ele>
        <time>2026-03-25T09:16:14Z</time>
      </trkpt>
      <trkpt lat="44.69268" lon="6.85189">
        <ele>1997.8</ele>
        <time>2026-03-25T09:16:15Z</time>
      </trkpt>
      <trkpt lat="44.69267" lon="6.85189">
        <ele>1997.9</ele>
        <time>2026-03-25T09:16:16Z</time>
      </trkpt>
      <trkpt lat="44.69267" lon="6.85189">
        <ele>1998</ele>
        <time>2026-03-25T09:16:17Z</time>
      </trkpt>
      <trkpt lat="44.69266" lon="6.8519">
        <ele>1998.2</ele>
        <time>2026-03-25T09:16:18Z</time>
      </trkpt>
      <trkpt lat="44.69265" lon="6.8519">
        <ele>1998.3</ele>
        <time>2026-03-25T09:16:20Z</time>
      </trkpt>
      <trkpt lat="44.69264" lon="6.8519">
        <ele>1998.5</ele>
        <time>2026-03-25T09:16:21Z</time>
      </trkpt>
      <trkpt lat="44.69264" lon="6.8519">
        <ele>1998.6</ele>
        <time>2026-03-25T09:16:22Z</time>
      </trkpt>
      <trkpt lat="44.69263" lon="6.85191">
        <ele>1998.7</ele>
        <time>2026-03-25T09:16:23Z</time>
      </trkpt>
      <trkpt lat="44.69262" lon="6.85191">
        <ele>1998.9</ele>
        <time>2026-03-25T09:16:24Z</time>
      </trkpt>
      <trkpt lat="44.69262" lon="6.85191">
        <ele>1999</ele>
        <time>2026-03-25T09:16:25Z</time>
      </trkpt>
      <trkpt lat="44.69261" lon="6.85192">
        <ele>1999.1</ele>
        <time>2026-03-25T09:16:26Z</time>
      </trkpt>
      <trkpt lat="44.6926" lon="6.85192">
        <ele>1999.2</ele>
        <time>2026-03-25T09:16:27Z</time>
      </trkpt>
      <trkpt lat="44.6926" lon="6.85193">
        <ele>1999.3</ele>
        <time>2026-03-25T09:16:28Z</time>
      </trkpt>
      <trkpt lat="44.69259" lon="6.85193">
        <ele>1999.5</ele>
        <time>2026-03-25T09:16:29Z</time>
      </trkpt>
      <trkpt lat="44.69259" lon="6.85193">
        <ele>1999.6</ele>
        <time>2026-03-25T09:16:30Z</time>
      </trkpt>
      <trkpt lat="44.69258" lon="6.85194">
        <ele>1999.7</ele>
        <time>2026-03-25T09:16:31Z</time>
      </trkpt>
      <trkpt lat="44.69258" lon="6.85194">
        <ele>1999.8</ele>
        <time>2026-03-25T09:16:32Z</time>
      </trkpt>
      <trkpt lat="44.69258" lon="6.85195">
        <ele>1999.8</ele>
        <time>2026-03-25T09:16:33Z</time>
      </trkpt>
      <trkpt lat="44.69257" lon="6.85195">
        <ele>2000</ele>
        <time>2026-03-25T09:16:34Z</time>
      </trkpt>
      <trkpt lat="44.69256" lon="6.85196">
        <ele>2000.1</ele>
        <time>2026-03-25T09:16:35Z</time>
      </trkpt>
      <trkpt lat="44.69256" lon="6.85196">
        <ele>2000.2</ele>
        <time>2026-03-25T09:16:37Z</time>
      </trkpt>
      <trkpt lat="44.69255" lon="6.85197">
        <ele>2000.3</ele>
        <time>2026-03-25T09:16:38Z</time>
      </trkpt>
      <trkpt lat="44.69255" lon="6.85198">
        <ele>2000.4</ele>
        <time>2026-03-25T09:16:39Z</time>
      </trkpt>
      <trkpt lat="44.69255" lon="6.85198">
        <ele>2000.5</ele>
        <time>2026-03-25T09:16:40Z</time>
      </trkpt>
      <trkpt lat="44.69254" lon="6.85199">
        <ele>2000.6</ele>
        <time>2026-03-25T09:16:41Z</time>
      </trkpt>
      <trkpt lat="44.69254" lon="6.85199">
        <ele>2000.7</ele>
        <time>2026-03-25T09:16:42Z</time>
      </trkpt>
      <trkpt lat="44.69253" lon="6.852">
        <ele>2000.8</ele>
        <time>2026-03-25T09:16:43Z</time>
      </trkpt>
      <trkpt lat="44.69253" lon="6.852">
        <ele>2000.8</ele>
        <time>2026-03-25T09:16:44Z</time>
      </trkpt>
      <trkpt lat="44.69253" lon="6.852">
        <ele>2000.9</ele>
        <time>2026-03-25T09:16:45Z</time>
      </trkpt>
      <trkpt lat="44.69253" lon="6.85201">
        <ele>2001</ele>
        <time>2026-03-25T09:16:46Z</time>
      </trkpt>
      <trkpt lat="44.69252" lon="6.85201">
        <ele>2001</ele>
        <time>2026-03-25T09:16:47Z</time>
      </trkpt>
      <trkpt lat="44.69252" lon="6.85201">
        <ele>2001.1</ele>
        <time>2026-03-25T09:16:48Z</time>
      </trkpt>
      <trkpt lat="44.69252" lon="6.85202">
        <ele>2001.1</ele>
        <time>2026-03-25T09:16:49Z</time>
      </trkpt>
      <trkpt lat="44.69251" lon="6.85202">
        <ele>2001.3</ele>
        <time>2026-03-25T09:16:50Z</time>
      </trkpt>
      <trkpt lat="44.69251" lon="6.85202">
        <ele>2001.4</ele>
        <time>2026-03-25T09:16:51Z</time>
      </trkpt>
      <trkpt lat="44.6925" lon="6.85203">
        <ele>2001.4</ele>
        <time>2026-03-25T09:16:52Z</time>
      </trkpt>
      <trkpt lat="44.6925" lon="6.85203">
        <ele>2001.5</ele>
        <time>2026-03-25T09:16:53Z</time>
      </trkpt>
      <trkpt lat="44.69249" lon="6.85204">
        <ele>2001.7</ele>
        <time>2026-03-25T09:16:54Z</time>
      </trkpt>
      <trkpt lat="44.69249" lon="6.85204">
        <ele>2001.8</ele>
        <time>2026-03-25T09:16:55Z</time>
      </trkpt>
      <trkpt lat="44.69248" lon="6.85205">
        <ele>2001.9</ele>
        <time>2026-03-25T09:16:56Z</time>
      </trkpt>
      <trkpt lat="44.69247" lon="6.85206">
        <ele>2002.1</ele>
        <time>2026-03-25T09:16:58Z</time>
      </trkpt>
      <trkpt lat="44.69247" lon="6.85206">
        <ele>2002.2</ele>
        <time>2026-03-25T09:16:59Z</time>
      </trkpt>
      <trkpt lat="44.69246" lon="6.85207">
        <ele>2002.4</ele>
        <time>2026-03-25T09:17:00Z</time>
      </trkpt>
      <trkpt lat="44.69245" lon="6.85207">
        <ele>2002.5</ele>
        <time>2026-03-25T09:17:01Z</time>
      </trkpt>
      <trkpt lat="44.69244" lon="6.85208">
        <ele>2002.7</ele>
        <time>2026-03-25T09:17:02Z</time>
      </trkpt>
      <trkpt lat="44.69243" lon="6.85208">
        <ele>2002.9</ele>
        <time>2026-03-25T09:17:03Z</time>
      </trkpt>
      <trkpt lat="44.69243" lon="6.85209">
        <ele>2003</ele>
        <time>2026-03-25T09:17:04Z</time>
      </trkpt>
      <trkpt lat="44.69242" lon="6.85209">
        <ele>2003.2</ele>
        <time>2026-03-25T09:17:05Z</time>
      </trkpt>
      <trkpt lat="44.69241" lon="6.8521">
        <ele>2003.4</ele>
        <time>2026-03-25T09:17:06Z</time>
      </trkpt>
      <trkpt lat="44.6924" lon="6.85211">
        <ele>2003.6</ele>
        <time>2026-03-25T09:17:07Z</time>
      </trkpt>
      <trkpt lat="44.6924" lon="6.85211">
        <ele>2003.7</ele>
        <time>2026-03-25T09:17:08Z</time>
      </trkpt>
      <trkpt lat="44.69239" lon="6.85212">
        <ele>2003.9</ele>
        <time>2026-03-25T09:17:09Z</time>
      </trkpt>
      <trkpt lat="44.69238" lon="6.85213">
        <ele>2004.1</ele>
        <time>2026-03-25T09:17:10Z</time>
      </trkpt>
      <trkpt lat="44.69238" lon="6.85213">
        <ele>2004.2</ele>
        <time>2026-03-25T09:17:11Z</time>
      </trkpt>
      <trkpt lat="44.69237" lon="6.85214">
        <ele>2004.4</ele>
        <time>2026-03-25T09:17:12Z</time>
      </trkpt>
      <trkpt lat="44.69237" lon="6.85215">
        <ele>2004.5</ele>
        <time>2026-03-25T09:17:13Z</time>
      </trkpt>
      <trkpt lat="44.69236" lon="6.85215">
        <ele>2004.7</ele>
        <time>2026-03-25T09:17:14Z</time>
      </trkpt>
      <trkpt lat="44.69236" lon="6.85216">
        <ele>2004.9</ele>
        <time>2026-03-25T09:17:15Z</time>
      </trkpt>
      <trkpt lat="44.69235" lon="6.85217">
        <ele>2005</ele>
        <time>2026-03-25T09:17:16Z</time>
      </trkpt>
      <trkpt lat="44.69235" lon="6.85218">
        <ele>2005.1</ele>
        <time>2026-03-25T09:17:18Z</time>
      </trkpt>
      <trkpt lat="44.69234" lon="6.85218">
        <ele>2005.2</ele>
        <time>2026-03-25T09:17:19Z</time>
      </trkpt>
      <trkpt lat="44.69234" lon="6.85218">
        <ele>2005.3</ele>
        <time>2026-03-25T09:17:20Z</time>
      </trkpt>
      <trkpt lat="44.69234" lon="6.85219">
        <ele>2005.4</ele>
        <time>2026-03-25T09:17:21Z</time>
      </trkpt>
      <trkpt lat="44.69234" lon="6.85219">
        <ele>2005.5</ele>
        <time>2026-03-25T09:17:22Z</time>
      </trkpt>
      <trkpt lat="44.69233" lon="6.8522">
        <ele>2005.6</ele>
        <time>2026-03-25T09:17:23Z</time>
      </trkpt>
      <trkpt lat="44.69233" lon="6.85221">
        <ele>2005.8</ele>
        <time>2026-03-25T09:17:24Z</time>
      </trkpt>
      <trkpt lat="44.69233" lon="6.85221">
        <ele>2005.8</ele>
        <time>2026-03-25T09:17:25Z</time>
      </trkpt>
      <trkpt lat="44.69232" lon="6.85221">
        <ele>2005.9</ele>
        <time>2026-03-25T09:17:26Z</time>
      </trkpt>
      <trkpt lat="44.69232" lon="6.85222">
        <ele>2006</ele>
        <time>2026-03-25T09:17:27Z</time>
      </trkpt>
      <trkpt lat="44.69232" lon="6.85223">
        <ele>2006.1</ele>
        <time>2026-03-25T09:17:28Z</time>
      </trkpt>
      <trkpt lat="44.69231" lon="6.85223">
        <ele>2006.2</ele>
        <time>2026-03-25T09:17:29Z</time>
      </trkpt>
      <trkpt lat="44.69231" lon="6.85224">
        <ele>2006.4</ele>
        <time>2026-03-25T09:17:30Z</time>
      </trkpt>
      <trkpt lat="44.69231" lon="6.85224">
        <ele>2006.5</ele>
        <time>2026-03-25T09:17:31Z</time>
      </trkpt>
      <trkpt lat="44.6923" lon="6.85225">
        <ele>2006.6</ele>
        <time>2026-03-25T09:17:32Z</time>
      </trkpt>
      <trkpt lat="44.6923" lon="6.85225">
        <ele>2006.7</ele>
        <time>2026-03-25T09:17:33Z</time>
      </trkpt>
      <trkpt lat="44.6923" lon="6.85225">
        <ele>2006.8</ele>
        <time>2026-03-25T09:17:34Z</time>
      </trkpt>
      <trkpt lat="44.69229" lon="6.85226">
        <ele>2006.9</ele>
        <time>2026-03-25T09:17:35Z</time>
      </trkpt>
      <trkpt lat="44.69229" lon="6.85226">
        <ele>2007</ele>
        <time>2026-03-25T09:17:36Z</time>
      </trkpt>
      <trkpt lat="44.69229" lon="6.85226">
        <ele>2007</ele>
        <time>2026-03-25T09:17:37Z</time>
      </trkpt>
      <trkpt lat="44.69229" lon="6.85226">
        <ele>2007</ele>
        <time>2026-03-25T09:17:38Z</time>
      </trkpt>
      <trkpt lat="44.69229" lon="6.85227">
        <ele>2007.1</ele>
        <time>2026-03-25T09:17:39Z</time>
      </trkpt>
      <trkpt lat="44.69229" lon="6.85227">
        <ele>2007.1</ele>
        <time>2026-03-25T09:17:40Z</time>
      </trkpt>
      <trkpt lat="44.69229" lon="6.85227">
        <ele>2007.1</ele>
        <time>2026-03-25T09:17:41Z</time>
      </trkpt>
      <trkpt lat="44.69229" lon="6.85227">
        <ele>2007.1</ele>
        <time>2026-03-25T09:17:42Z</time>
      </trkpt>
      <trkpt lat="44.69229" lon="6.85227">
        <ele>2007.1</ele>
        <time>2026-03-25T09:17:43Z</time>
      </trkpt>
      <trkpt lat="44.69229" lon="6.85227">
        <ele>2007.2</ele>
        <time>2026-03-25T09:17:44Z</time>
      </trkpt>
      <trkpt lat="44.69229" lon="6.85227">
        <ele>2007.2</ele>
        <time>2026-03-25T09:17:45Z</time>
      </trkpt>
      <trkpt lat="44.69229" lon="6.85227">
        <ele>2007.2</ele>
        <time>2026-03-25T09:17:46Z</time>
      </trkpt>
      <trkpt lat="44.69229" lon="6.85227">
        <ele>2007.2</ele>
        <time>2026-03-25T09:17:47Z</time>
      </trkpt>
      <trkpt lat="44.69229" lon="6.85227">
        <ele>2007.2</ele>
        <time>2026-03-25T09:17:48Z</time>
      </trkpt>
      <trkpt lat="44.69228" lon="6.85227">
        <ele>2007.3</ele>
        <time>2026-03-25T09:17:49Z</time>
      </trkpt>
      <trkpt lat="44.69228" lon="6.85227">
        <ele>2007.3</ele>
        <time>2026-03-25T09:17:50Z</time>
      </trkpt>
      <trkpt lat="44.69228" lon="6.85227">
        <ele>2007.3</ele>
        <time>2026-03-25T09:17:51Z</time>
      </trkpt>
      <trkpt lat="44.69228" lon="6.85227">
        <ele>2007.3</ele>
        <time>2026-03-25T09:17:52Z</time>
      </trkpt>
      <trkpt lat="44.69228" lon="6.85227">
        <ele>2007.3</ele>
        <time>2026-03-25T09:17:53Z</time>
      </trkpt>
      <trkpt lat="44.69228" lon="6.85227">
        <ele>2007.3</ele>
        <time>2026-03-25T09:17:54Z</time>
      </trkpt>
      <trkpt lat="44.69228" lon="6.85227">
        <ele>2007.3</ele>
        <time>2026-03-25T09:17:55Z</time>
      </trkpt>
      <trkpt lat="44.69228" lon="6.85227">
        <ele>2007.3</ele>
        <time>2026-03-25T09:17:56Z</time>
      </trkpt>
      <trkpt lat="44.69228" lon="6.85227">
        <ele>2007.3</ele>
        <time>2026-03-25T09:17:57Z</time>
      </trkpt>
      <trkpt lat="44.69228" lon="6.85227">
        <ele>2007.4</ele>
        <time>2026-03-25T09:17:58Z</time>
      </trkpt>
      <trkpt lat="44.69228" lon="6.85227">
        <ele>2007.4</ele>
        <time>2026-03-25T09:17:59Z</time>
      </trkpt>
      <trkpt lat="44.69228" lon="6.85227">
        <ele>2007.4</ele>
        <time>2026-03-25T09:18:00Z</time>
      </trkpt>
      <trkpt lat="44.69228" lon="6.85227">
        <ele>2007.4</ele>
        <time>2026-03-25T09:18:01Z</time>
      </trkpt>
      <trkpt lat="44.69228" lon="6.85227">
        <ele>2007.4</ele>
        <time>2026-03-25T09:18:02Z</time>
      </trkpt>
      <trkpt lat="44.69228" lon="6.85227">
        <ele>2007.4</ele>
        <time>2026-03-25T09:18:03Z</time>
      </trkpt>
      <trkpt lat="44.69228" lon="6.85227">
        <ele>2007.4</ele>
        <time>2026-03-25T09:18:04Z</time>
      </trkpt>
      <trkpt lat="44.69228" lon="6.85227">
        <ele>2007.4</ele>
        <time>2026-03-25T09:18:05Z</time>
      </trkpt>
      <trkpt lat="44.69228" lon="6.85227">
        <ele>2007.4</ele>
        <time>2026-03-25T09:18:06Z</time>
      </trkpt>
      <trkpt lat="44.69228" lon="6.85227">
        <ele>2007.5</ele>
        <time>2026-03-25T09:18:07Z</time>
      </trkpt>
      <trkpt lat="44.69228" lon="6.85227">
        <ele>2007.5</ele>
        <time>2026-03-25T09:18:08Z</time>
      </trkpt>
      <trkpt lat="44.69228" lon="6.85227">
        <ele>2007.5</ele>
        <time>2026-03-25T09:18:09Z</time>
      </trkpt>
      <trkpt lat="44.69228" lon="6.85227">
        <ele>2007.5</ele>
        <time>2026-03-25T09:18:10Z</time>
      </trkpt>
      <trkpt lat="44.69228" lon="6.85227">
        <ele>2007.5</ele>
        <time>2026-03-25T09:18:11Z</time>
      </trkpt>
      <trkpt lat="44.69228" lon="6.85227">
        <ele>2007.5</ele>
        <time>2026-03-25T09:18:12Z</time>
      </trkpt>
      <trkpt lat="44.69228" lon="6.85227">
        <ele>2007.5</ele>
        <time>2026-03-25T09:18:13Z</time>
      </trkpt>
      <trkpt lat="44.69228" lon="6.85227">
        <ele>2007.5</ele>
        <time>2026-03-25T09:18:14Z</time>
      </trkpt>
      <trkpt lat="44.69228" lon="6.85227">
        <ele>2007.5</ele>
        <time>2026-03-25T09:18:15Z</time>
      </trkpt>
      <trkpt lat="44.69228" lon="6.85227">
        <ele>2007.5</ele>
        <time>2026-03-25T09:18:16Z</time>
      </trkpt>
      <trkpt lat="44.69228" lon="6.85227">
        <ele>2007.6</ele>
        <time>2026-03-25T09:18:17Z</time>
      </trkpt>
      <trkpt lat="44.69228" lon="6.85227">
        <ele>2007.6</ele>
        <time>2026-03-25T09:18:18Z</time>
      </trkpt>
      <trkpt lat="44.69228" lon="6.85227">
        <ele>2007.6</ele>
        <time>2026-03-25T09:18:19Z</time>
      </trkpt>
      <trkpt lat="44.69228" lon="6.85227">
        <ele>2007.6</ele>
        <time>2026-03-25T09:18:20Z</time>
      </trkpt>
      <trkpt lat="44.69228" lon="6.85227">
        <ele>2007.6</ele>
        <time>2026-03-25T09:18:21Z</time>
      </trkpt>
      <trkpt lat="44.69228" lon="6.85227">
        <ele>2007.6</ele>
        <time>2026-03-25T09:18:22Z</time>
      </trkpt>
      <trkpt lat="44.69228" lon="6.85227">
        <ele>2007.6</ele>
        <time>2026-03-25T09:18:23Z</time>
      </trkpt>
      <trkpt lat="44.69228" lon="6.85227">
        <ele>2007.6</ele>
        <time>2026-03-25T09:18:24Z</time>
      </trkpt>
      <trkpt lat="44.69228" lon="6.85227">
        <ele>2007.6</ele>
        <time>2026-03-25T09:18:25Z</time>
      </trkpt>
      <trkpt lat="44.69228" lon="6.85227">
        <ele>2007.6</ele>
        <time>2026-03-25T09:18:26Z</time>
      </trkpt>
      <trkpt lat="44.69228" lon="6.85227">
        <ele>2007.6</ele>
        <time>2026-03-25T09:18:27Z</time>
      </trkpt>
      <trkpt lat="44.69228" lon="6.85227">
        <ele>2007.6</ele>
        <time>2026-03-25T09:18:28Z</time>
      </trkpt>
      <trkpt lat="44.69228" lon="6.85227">
        <ele>2007.6</ele>
        <time>2026-03-25T09:18:29Z</time>
      </trkpt>
      <trkpt lat="44.69228" lon="6.85227">
        <ele>2007.6</ele>
        <time>2026-03-25T09:18:30Z</time>
      </trkpt>
      <trkpt lat="44.69228" lon="6.85227">
        <ele>2007.6</ele>
        <time>2026-03-25T09:18:31Z</time>
      </trkpt>
      <trkpt lat="44.69228" lon="6.85227">
        <ele>2007.6</ele>
        <time>2026-03-25T09:18:32Z</time>
      </trkpt>
      <trkpt lat="44.69228" lon="6.85227">
        <ele>2007.6</ele>
        <time>2026-03-25T09:18:33Z</time>
      </trkpt>
      <trkpt lat="44.69228" lon="6.85227">
        <ele>2007.6</ele>
        <time>2026-03-25T09:18:34Z</time>
      </trkpt>
      <trkpt lat="44.69228" lon="6.85227">
        <ele>2007.6</ele>
        <time>2026-03-25T09:18:35Z</time>
      </trkpt>
      <trkpt lat="44.69228" lon="6.85227">
        <ele>2007.6</ele>
        <time>2026-03-25T09:18:36Z</time>
      </trkpt>
      <trkpt lat="44.69228" lon="6.85227">
        <ele>2007.7</ele>
        <time>2026-03-25T09:18:37Z</time>
      </trkpt>
      <trkpt lat="44.69228" lon="6.85227">
        <ele>2007.7</ele>
        <time>2026-03-25T09:18:38Z</time>
      </trkpt>
      <trkpt lat="44.69227" lon="6.85228">
        <ele>2007.7</ele>
        <time>2026-03-25T09:18:39Z</time>
      </trkpt>
      <trkpt lat="44.69227" lon="6.85228">
        <ele>2007.8</ele>
        <time>2026-03-25T09:18:40Z</time>
      </trkpt>
      <trkpt lat="44.69227" lon="6.85228">
        <ele>2007.8</ele>
        <time>2026-03-25T09:18:41Z</time>
      </trkpt>
      <trkpt lat="44.69227" lon="6.85228">
        <ele>2007.9</ele>
        <time>2026-03-25T09:18:42Z</time>
      </trkpt>
      <trkpt lat="44.69227" lon="6.85228">
        <ele>2007.9</ele>
        <time>2026-03-25T09:18:43Z</time>
      </trkpt>
      <trkpt lat="44.69227" lon="6.85228">
        <ele>2007.9</ele>
        <time>2026-03-25T09:18:44Z</time>
      </trkpt>
      <trkpt lat="44.69227" lon="6.85228">
        <ele>2007.9</ele>
        <time>2026-03-25T09:18:45Z</time>
      </trkpt>
      <trkpt lat="44.69227" lon="6.85228">
        <ele>2007.9</ele>
        <time>2026-03-25T09:18:46Z</time>
      </trkpt>
      <trkpt lat="44.69227" lon="6.85228">
        <ele>2007.9</ele>
        <time>2026-03-25T09:18:47Z</time>
      </trkpt>
      <trkpt lat="44.69227" lon="6.85228">
        <ele>2008</ele>
        <time>2026-03-25T09:18:48Z</time>
      </trkpt>
      <trkpt lat="44.69227" lon="6.85228">
        <ele>2008</ele>
        <time>2026-03-25T09:18:49Z</time>
      </trkpt>
      <trkpt lat="44.69226" lon="6.85228">
        <ele>2008.1</ele>
        <time>2026-03-25T09:18:50Z</time>
      </trkpt>
      <trkpt lat="44.69226" lon="6.85228">
        <ele>2008.1</ele>
        <time>2026-03-25T09:18:51Z</time>
      </trkpt>
      <trkpt lat="44.69225" lon="6.85228">
        <ele>2008.2</ele>
        <time>2026-03-25T09:18:52Z</time>
      </trkpt>
      <trkpt lat="44.69225" lon="6.85229">
        <ele>2008.3</ele>
        <time>2026-03-25T09:18:53Z</time>
      </trkpt>
      <trkpt lat="44.69224" lon="6.85229">
        <ele>2008.5</ele>
        <time>2026-03-25T09:18:54Z</time>
      </trkpt>
      <trkpt lat="44.69224" lon="6.8523">
        <ele>2008.6</ele>
        <time>2026-03-25T09:18:55Z</time>
      </trkpt>
      <trkpt lat="44.69223" lon="6.8523">
        <ele>2008.8</ele>
        <time>2026-03-25T09:18:56Z</time>
      </trkpt>
      <trkpt lat="44.69222" lon="6.85231">
        <ele>2009</ele>
        <time>2026-03-25T09:18:57Z</time>
      </trkpt>
      <trkpt lat="44.69222" lon="6.85231">
        <ele>2009.1</ele>
        <time>2026-03-25T09:18:58Z</time>
      </trkpt>
      <trkpt lat="44.6922" lon="6.85231">
        <ele>2009.4</ele>
        <time>2026-03-25T09:18:59Z</time>
      </trkpt>
      <trkpt lat="44.6922" lon="6.85232">
        <ele>2009.6</ele>
        <time>2026-03-25T09:19:00Z</time>
      </trkpt>
      <trkpt lat="44.69219" lon="6.85232">
        <ele>2009.7</ele>
        <time>2026-03-25T09:19:01Z</time>
      </trkpt>
      <trkpt lat="44.69218" lon="6.85232">
        <ele>2009.9</ele>
        <time>2026-03-25T09:19:02Z</time>
      </trkpt>
      <trkpt lat="44.69217" lon="6.85232">
        <ele>2010.1</ele>
        <time>2026-03-25T09:19:04Z</time>
      </trkpt>
      <trkpt lat="44.69216" lon="6.85232">
        <ele>2010.3</ele>
        <time>2026-03-25T09:19:05Z</time>
      </trkpt>
      <trkpt lat="44.69216" lon="6.85233">
        <ele>2010.4</ele>
        <time>2026-03-25T09:19:06Z</time>
      </trkpt>
      <trkpt lat="44.69215" lon="6.85233">
        <ele>2010.5</ele>
        <time>2026-03-25T09:19:07Z</time>
      </trkpt>
      <trkpt lat="44.69214" lon="6.85233">
        <ele>2010.6</ele>
        <time>2026-03-25T09:19:08Z</time>
      </trkpt>
      <trkpt lat="44.69214" lon="6.85233">
        <ele>2010.7</ele>
        <time>2026-03-25T09:19:09Z</time>
      </trkpt>
      <trkpt lat="44.69213" lon="6.85233">
        <ele>2010.9</ele>
        <time>2026-03-25T09:19:10Z</time>
      </trkpt>
      <trkpt lat="44.69213" lon="6.85234">
        <ele>2011</ele>
        <time>2026-03-25T09:19:11Z</time>
      </trkpt>
      <trkpt lat="44.69212" lon="6.85234">
        <ele>2011.1</ele>
        <time>2026-03-25T09:19:12Z</time>
      </trkpt>
      <trkpt lat="44.69211" lon="6.85234">
        <ele>2011.3</ele>
        <time>2026-03-25T09:19:13Z</time>
      </trkpt>
      <trkpt lat="44.69211" lon="6.85235">
        <ele>2011.4</ele>
        <time>2026-03-25T09:19:14Z</time>
      </trkpt>
      <trkpt lat="44.6921" lon="6.85235">
        <ele>2011.6</ele>
        <time>2026-03-25T09:19:15Z</time>
      </trkpt>
      <trkpt lat="44.69209" lon="6.85236">
        <ele>2011.7</ele>
        <time>2026-03-25T09:19:16Z</time>
      </trkpt>
      <trkpt lat="44.69209" lon="6.85236">
        <ele>2011.8</ele>
        <time>2026-03-25T09:19:17Z</time>
      </trkpt>
      <trkpt lat="44.69208" lon="6.85236">
        <ele>2011.9</ele>
        <time>2026-03-25T09:19:18Z</time>
      </trkpt>
      <trkpt lat="44.69208" lon="6.85237">
        <ele>2012</ele>
        <time>2026-03-25T09:19:19Z</time>
      </trkpt>
      <trkpt lat="44.69207" lon="6.85237">
        <ele>2012.2</ele>
        <time>2026-03-25T09:19:21Z</time>
      </trkpt>
      <trkpt lat="44.69206" lon="6.85237">
        <ele>2012.3</ele>
        <time>2026-03-25T09:19:22Z</time>
      </trkpt>
      <trkpt lat="44.69206" lon="6.85238">
        <ele>2012.5</ele>
        <time>2026-03-25T09:19:23Z</time>
      </trkpt>
      <trkpt lat="44.69205" lon="6.85238">
        <ele>2012.6</ele>
        <time>2026-03-25T09:19:24Z</time>
      </trkpt>
      <trkpt lat="44.69205" lon="6.85238">
        <ele>2012.7</ele>
        <time>2026-03-25T09:19:25Z</time>
      </trkpt>
      <trkpt lat="44.69204" lon="6.85239">
        <ele>2012.8</ele>
        <time>2026-03-25T09:19:26Z</time>
      </trkpt>
      <trkpt lat="44.69204" lon="6.85239">
        <ele>2012.9</ele>
        <time>2026-03-25T09:19:27Z</time>
      </trkpt>
      <trkpt lat="44.69203" lon="6.8524">
        <ele>2013</ele>
        <time>2026-03-25T09:19:29Z</time>
      </trkpt>
      <trkpt lat="44.69203" lon="6.85241">
        <ele>2013.1</ele>
        <time>2026-03-25T09:19:31Z</time>
      </trkpt>
      <trkpt lat="44.69203" lon="6.85242">
        <ele>2013.2</ele>
        <time>2026-03-25T09:19:32Z</time>
      </trkpt>
      <trkpt lat="44.69203" lon="6.85242">
        <ele>2013.3</ele>
        <time>2026-03-25T09:19:33Z</time>
      </trkpt>
      <trkpt lat="44.69202" lon="6.85243">
        <ele>2013.4</ele>
        <time>2026-03-25T09:19:34Z</time>
      </trkpt>
      <trkpt lat="44.69202" lon="6.85244">
        <ele>2013.5</ele>
        <time>2026-03-25T09:19:35Z</time>
      </trkpt>
      <trkpt lat="44.69202" lon="6.85244">
        <ele>2013.7</ele>
        <time>2026-03-25T09:19:36Z</time>
      </trkpt>
      <trkpt lat="44.69201" lon="6.85245">
        <ele>2013.8</ele>
        <time>2026-03-25T09:19:37Z</time>
      </trkpt>
      <trkpt lat="44.69201" lon="6.85246">
        <ele>2013.9</ele>
        <time>2026-03-25T09:19:38Z</time>
      </trkpt>
      <trkpt lat="44.692" lon="6.85246">
        <ele>2014</ele>
        <time>2026-03-25T09:19:39Z</time>
      </trkpt>
      <trkpt lat="44.69199" lon="6.85246">
        <ele>2014.1</ele>
        <time>2026-03-25T09:19:40Z</time>
      </trkpt>
      <trkpt lat="44.69199" lon="6.85247">
        <ele>2014.2</ele>
        <time>2026-03-25T09:19:41Z</time>
      </trkpt>
      <trkpt lat="44.69198" lon="6.85247">
        <ele>2014.2</ele>
        <time>2026-03-25T09:19:42Z</time>
      </trkpt>
      <trkpt lat="44.69197" lon="6.85248">
        <ele>2014.4</ele>
        <time>2026-03-25T09:19:43Z</time>
      </trkpt>
      <trkpt lat="44.69197" lon="6.85248">
        <ele>2014.4</ele>
        <time>2026-03-25T09:19:44Z</time>
      </trkpt>
      <trkpt lat="44.69197" lon="6.85249">
        <ele>2014.5</ele>
        <time>2026-03-25T09:19:45Z</time>
      </trkpt>
      <trkpt lat="44.69196" lon="6.85249">
        <ele>2014.5</ele>
        <time>2026-03-25T09:19:46Z</time>
      </trkpt>
      <trkpt lat="44.69196" lon="6.8525">
        <ele>2014.6</ele>
        <time>2026-03-25T09:19:48Z</time>
      </trkpt>
      <trkpt lat="44.69195" lon="6.8525">
        <ele>2014.7</ele>
        <time>2026-03-25T09:19:49Z</time>
      </trkpt>
      <trkpt lat="44.69195" lon="6.85251">
        <ele>2014.8</ele>
        <time>2026-03-25T09:19:50Z</time>
      </trkpt>
      <trkpt lat="44.69194" lon="6.85252">
        <ele>2014.9</ele>
        <time>2026-03-25T09:19:51Z</time>
      </trkpt>
      <trkpt lat="44.69194" lon="6.85252">
        <ele>2014.9</ele>
        <time>2026-03-25T09:19:52Z</time>
      </trkpt>
      <trkpt lat="44.69193" lon="6.85253">
        <ele>2015</ele>
        <time>2026-03-25T09:19:53Z</time>
      </trkpt>
      <trkpt lat="44.69193" lon="6.85253">
        <ele>2015.1</ele>
        <time>2026-03-25T09:19:54Z</time>
      </trkpt>
      <trkpt lat="44.69192" lon="6.85254">
        <ele>2015.2</ele>
        <time>2026-03-25T09:19:55Z</time>
      </trkpt>
      <trkpt lat="44.69192" lon="6.85254">
        <ele>2015.2</ele>
        <time>2026-03-25T09:19:56Z</time>
      </trkpt>
      <trkpt lat="44.69191" lon="6.85255">
        <ele>2015.3</ele>
        <time>2026-03-25T09:19:57Z</time>
      </trkpt>
      <trkpt lat="44.69191" lon="6.85255">
        <ele>2015.4</ele>
        <time>2026-03-25T09:19:58Z</time>
      </trkpt>
      <trkpt lat="44.6919" lon="6.85255">
        <ele>2015.5</ele>
        <time>2026-03-25T09:19:59Z</time>
      </trkpt>
      <trkpt lat="44.6919" lon="6.85256">
        <ele>2015.5</ele>
        <time>2026-03-25T09:20:01Z</time>
      </trkpt>
      <trkpt lat="44.69189" lon="6.85256">
        <ele>2015.5</ele>
        <time>2026-03-25T09:20:02Z</time>
      </trkpt>
      <trkpt lat="44.69189" lon="6.85256">
        <ele>2015.6</ele>
        <time>2026-03-25T09:20:03Z</time>
      </trkpt>
      <trkpt lat="44.69189" lon="6.85256">
        <ele>2015.6</ele>
        <time>2026-03-25T09:20:04Z</time>
      </trkpt>
      <trkpt lat="44.69188" lon="6.85256">
        <ele>2015.7</ele>
        <time>2026-03-25T09:20:05Z</time>
      </trkpt>
      <trkpt lat="44.69188" lon="6.85256">
        <ele>2015.8</ele>
        <time>2026-03-25T09:20:06Z</time>
      </trkpt>
      <trkpt lat="44.69187" lon="6.85256">
        <ele>2015.8</ele>
        <time>2026-03-25T09:20:07Z</time>
      </trkpt>
      <trkpt lat="44.69187" lon="6.85256">
        <ele>2015.9</ele>
        <time>2026-03-25T09:20:08Z</time>
      </trkpt>
      <trkpt lat="44.69186" lon="6.85256">
        <ele>2016</ele>
        <time>2026-03-25T09:20:09Z</time>
      </trkpt>
      <trkpt lat="44.69185" lon="6.85256">
        <ele>2016</ele>
        <time>2026-03-25T09:20:10Z</time>
      </trkpt>
      <trkpt lat="44.69185" lon="6.85256">
        <ele>2016.1</ele>
        <time>2026-03-25T09:20:11Z</time>
      </trkpt>
      <trkpt lat="44.69185" lon="6.85256">
        <ele>2016.1</ele>
        <time>2026-03-25T09:20:12Z</time>
      </trkpt>
      <trkpt lat="44.69184" lon="6.85255">
        <ele>2016.2</ele>
        <time>2026-03-25T09:20:13Z</time>
      </trkpt>
      <trkpt lat="44.69183" lon="6.85255">
        <ele>2016.3</ele>
        <time>2026-03-25T09:20:14Z</time>
      </trkpt>
      <trkpt lat="44.69183" lon="6.85255">
        <ele>2016.4</ele>
        <time>2026-03-25T09:20:15Z</time>
      </trkpt>
      <trkpt lat="44.69182" lon="6.85256">
        <ele>2016.5</ele>
        <time>2026-03-25T09:20:16Z</time>
      </trkpt>
      <trkpt lat="44.69181" lon="6.85256">
        <ele>2016.6</ele>
        <time>2026-03-25T09:20:18Z</time>
      </trkpt>
      <trkpt lat="44.69181" lon="6.85256">
        <ele>2016.6</ele>
        <time>2026-03-25T09:20:19Z</time>
      </trkpt>
      <trkpt lat="44.6918" lon="6.85256">
        <ele>2016.7</ele>
        <time>2026-03-25T09:20:20Z</time>
      </trkpt>
      <trkpt lat="44.6918" lon="6.85256">
        <ele>2016.7</ele>
        <time>2026-03-25T09:20:21Z</time>
      </trkpt>
      <trkpt lat="44.69179" lon="6.85256">
        <ele>2016.8</ele>
        <time>2026-03-25T09:20:22Z</time>
      </trkpt>
      <trkpt lat="44.69179" lon="6.85256">
        <ele>2016.9</ele>
        <time>2026-03-25T09:20:23Z</time>
      </trkpt>
      <trkpt lat="44.69178" lon="6.85256">
        <ele>2017</ele>
        <time>2026-03-25T09:20:24Z</time>
      </trkpt>
      <trkpt lat="44.69177" lon="6.85257">
        <ele>2017.1</ele>
        <time>2026-03-25T09:20:25Z</time>
      </trkpt>
      <trkpt lat="44.69177" lon="6.85257">
        <ele>2017.1</ele>
        <time>2026-03-25T09:20:26Z</time>
      </trkpt>
      <trkpt lat="44.69177" lon="6.85257">
        <ele>2017.2</ele>
        <time>2026-03-25T09:20:27Z</time>
      </trkpt>
      <trkpt lat="44.69176" lon="6.85257">
        <ele>2017.3</ele>
        <time>2026-03-25T09:20:28Z</time>
      </trkpt>
      <trkpt lat="44.69176" lon="6.85257">
        <ele>2017.3</ele>
        <time>2026-03-25T09:20:29Z</time>
      </trkpt>
      <trkpt lat="44.69175" lon="6.85258">
        <ele>2017.4</ele>
        <time>2026-03-25T09:20:30Z</time>
      </trkpt>
      <trkpt lat="44.69175" lon="6.85258">
        <ele>2017.4</ele>
        <time>2026-03-25T09:20:31Z</time>
      </trkpt>
      <trkpt lat="44.69174" lon="6.85258">
        <ele>2017.5</ele>
        <time>2026-03-25T09:20:32Z</time>
      </trkpt>
      <trkpt lat="44.69174" lon="6.85258">
        <ele>2017.6</ele>
        <time>2026-03-25T09:20:33Z</time>
      </trkpt>
      <trkpt lat="44.69173" lon="6.85259">
        <ele>2017.7</ele>
        <time>2026-03-25T09:20:34Z</time>
      </trkpt>
      <trkpt lat="44.69173" lon="6.85259">
        <ele>2017.7</ele>
        <time>2026-03-25T09:20:35Z</time>
      </trkpt>
      <trkpt lat="44.69172" lon="6.85259">
        <ele>2017.8</ele>
        <time>2026-03-25T09:20:36Z</time>
      </trkpt>
      <trkpt lat="44.69172" lon="6.85259">
        <ele>2017.9</ele>
        <time>2026-03-25T09:20:37Z</time>
      </trkpt>
      <trkpt lat="44.69171" lon="6.85259">
        <ele>2018</ele>
        <time>2026-03-25T09:20:38Z</time>
      </trkpt>
      <trkpt lat="44.6917" lon="6.8526">
        <ele>2018.1</ele>
        <time>2026-03-25T09:20:40Z</time>
      </trkpt>
      <trkpt lat="44.69169" lon="6.8526">
        <ele>2018.2</ele>
        <time>2026-03-25T09:20:41Z</time>
      </trkpt>
      <trkpt lat="44.69169" lon="6.8526">
        <ele>2018.2</ele>
        <time>2026-03-25T09:20:42Z</time>
      </trkpt>
      <trkpt lat="44.69169" lon="6.8526">
        <ele>2018.3</ele>
        <time>2026-03-25T09:20:43Z</time>
      </trkpt>
      <trkpt lat="44.69168" lon="6.85261">
        <ele>2018.4</ele>
        <time>2026-03-25T09:20:45Z</time>
      </trkpt>
      <trkpt lat="44.69168" lon="6.85261">
        <ele>2018.4</ele>
        <time>2026-03-25T09:20:46Z</time>
      </trkpt>
      <trkpt lat="44.69168" lon="6.85261">
        <ele>2018.4</ele>
        <time>2026-03-25T09:20:47Z</time>
      </trkpt>
      <trkpt lat="44.69168" lon="6.85261">
        <ele>2018.4</ele>
        <time>2026-03-25T09:20:48Z</time>
      </trkpt>
      <trkpt lat="44.69168" lon="6.85261">
        <ele>2018.4</ele>
        <time>2026-03-25T09:20:49Z</time>
      </trkpt>
      <trkpt lat="44.69168" lon="6.85261">
        <ele>2018.5</ele>
        <time>2026-03-25T09:20:50Z</time>
      </trkpt>
      <trkpt lat="44.69168" lon="6.85261">
        <ele>2018.5</ele>
        <time>2026-03-25T09:20:51Z</time>
      </trkpt>
      <trkpt lat="44.69167" lon="6.85261">
        <ele>2018.5</ele>
        <time>2026-03-25T09:20:53Z</time>
      </trkpt>
      <trkpt lat="44.69167" lon="6.85261">
        <ele>2018.5</ele>
        <time>2026-03-25T09:20:54Z</time>
      </trkpt>
      <trkpt lat="44.69167" lon="6.85261">
        <ele>2018.5</ele>
        <time>2026-03-25T09:20:55Z</time>
      </trkpt>
      <trkpt lat="44.69167" lon="6.85261">
        <ele>2018.6</ele>
        <time>2026-03-25T09:20:56Z</time>
      </trkpt>
      <trkpt lat="44.69167" lon="6.85262">
        <ele>2018.6</ele>
        <time>2026-03-25T09:20:57Z</time>
      </trkpt>
      <trkpt lat="44.69167" lon="6.85262">
        <ele>2018.6</ele>
        <time>2026-03-25T09:20:58Z</time>
      </trkpt>
      <trkpt lat="44.69167" lon="6.85262">
        <ele>2018.6</ele>
        <time>2026-03-25T09:20:59Z</time>
      </trkpt>
      <trkpt lat="44.69167" lon="6.85262">
        <ele>2018.6</ele>
        <time>2026-03-25T09:21:00Z</time>
      </trkpt>
      <trkpt lat="44.69167" lon="6.85262">
        <ele>2018.6</ele>
        <time>2026-03-25T09:21:01Z</time>
      </trkpt>
      <trkpt lat="44.69167" lon="6.85262">
        <ele>2018.7</ele>
        <time>2026-03-25T09:21:02Z</time>
      </trkpt>
      <trkpt lat="44.69167" lon="6.85262">
        <ele>2018.7</ele>
        <time>2026-03-25T09:21:03Z</time>
      </trkpt>
      <trkpt lat="44.69167" lon="6.85262">
        <ele>2018.7</ele>
        <time>2026-03-25T09:21:04Z</time>
      </trkpt>
      <trkpt lat="44.69167" lon="6.85262">
        <ele>2018.7</ele>
        <time>2026-03-25T09:21:05Z</time>
      </trkpt>
      <trkpt lat="44.69167" lon="6.85261">
        <ele>2018.7</ele>
        <time>2026-03-25T09:21:06Z</time>
      </trkpt>
      <trkpt lat="44.69167" lon="6.85261">
        <ele>2018.7</ele>
        <time>2026-03-25T09:21:07Z</time>
      </trkpt>
      <trkpt lat="44.69167" lon="6.85261">
        <ele>2018.7</ele>
        <time>2026-03-25T09:21:08Z</time>
      </trkpt>
      <trkpt lat="44.69167" lon="6.85261">
        <ele>2018.7</ele>
        <time>2026-03-25T09:21:09Z</time>
      </trkpt>
      <trkpt lat="44.69167" lon="6.85261">
        <ele>2018.8</ele>
        <time>2026-03-25T09:21:10Z</time>
      </trkpt>
      <trkpt lat="44.69167" lon="6.85261">
        <ele>2018.8</ele>
        <time>2026-03-25T09:21:11Z</time>
      </trkpt>
      <trkpt lat="44.69167" lon="6.85261">
        <ele>2018.8</ele>
        <time>2026-03-25T09:21:12Z</time>
      </trkpt>
      <trkpt lat="44.69167" lon="6.85261">
        <ele>2018.8</ele>
        <time>2026-03-25T09:21:13Z</time>
      </trkpt>
      <trkpt lat="44.69167" lon="6.85261">
        <ele>2018.8</ele>
        <time>2026-03-25T09:21:14Z</time>
      </trkpt>
      <trkpt lat="44.69167" lon="6.85261">
        <ele>2018.8</ele>
        <time>2026-03-25T09:21:15Z</time>
      </trkpt>
      <trkpt lat="44.69167" lon="6.85261">
        <ele>2018.8</ele>
        <time>2026-03-25T09:21:16Z</time>
      </trkpt>
      <trkpt lat="44.69167" lon="6.85261">
        <ele>2018.8</ele>
        <time>2026-03-25T09:21:17Z</time>
      </trkpt>
      <trkpt lat="44.69167" lon="6.85261">
        <ele>2018.8</ele>
        <time>2026-03-25T09:21:18Z</time>
      </trkpt>
      <trkpt lat="44.69166" lon="6.85261">
        <ele>2018.8</ele>
        <time>2026-03-25T09:21:19Z</time>
      </trkpt>
      <trkpt lat="44.69166" lon="6.85261">
        <ele>2018.8</ele>
        <time>2026-03-25T09:21:20Z</time>
      </trkpt>
      <trkpt lat="44.69166" lon="6.85261">
        <ele>2018.8</ele>
        <time>2026-03-25T09:21:21Z</time>
      </trkpt>
      <trkpt lat="44.69166" lon="6.85261">
        <ele>2018.8</ele>
        <time>2026-03-25T09:21:22Z</time>
      </trkpt>
      <trkpt lat="44.69166" lon="6.85261">
        <ele>2018.8</ele>
        <time>2026-03-25T09:21:23Z</time>
      </trkpt>
      <trkpt lat="44.69166" lon="6.85261">
        <ele>2018.8</ele>
        <time>2026-03-25T09:21:24Z</time>
      </trkpt>
      <trkpt lat="44.69166" lon="6.85261">
        <ele>2018.8</ele>
        <time>2026-03-25T09:21:25Z</time>
      </trkpt>
      <trkpt lat="44.69166" lon="6.85261">
        <ele>2018.8</ele>
        <time>2026-03-25T09:21:26Z</time>
      </trkpt>
      <trkpt lat="44.69166" lon="6.85261">
        <ele>2018.8</ele>
        <time>2026-03-25T09:21:27Z</time>
      </trkpt>
      <trkpt lat="44.69166" lon="6.85261">
        <ele>2018.9</ele>
        <time>2026-03-25T09:21:28Z</time>
      </trkpt>
      <trkpt lat="44.69166" lon="6.85261">
        <ele>2018.9</ele>
        <time>2026-03-25T09:21:29Z</time>
      </trkpt>
      <trkpt lat="44.69166" lon="6.85261">
        <ele>2018.9</ele>
        <time>2026-03-25T09:21:30Z</time>
      </trkpt>
      <trkpt lat="44.69166" lon="6.85261">
        <ele>2018.9</ele>
        <time>2026-03-25T09:21:31Z</time>
      </trkpt>
      <trkpt lat="44.69166" lon="6.85261">
        <ele>2018.9</ele>
        <time>2026-03-25T09:21:32Z</time>
      </trkpt>
      <trkpt lat="44.69166" lon="6.85261">
        <ele>2018.9</ele>
        <time>2026-03-25T09:21:33Z</time>
      </trkpt>
      <trkpt lat="44.69166" lon="6.85261">
        <ele>2018.9</ele>
        <time>2026-03-25T09:21:34Z</time>
      </trkpt>
      <trkpt lat="44.69166" lon="6.85261">
        <ele>2018.9</ele>
        <time>2026-03-25T09:21:35Z</time>
      </trkpt>
      <trkpt lat="44.69166" lon="6.85261">
        <ele>2018.9</ele>
        <time>2026-03-25T09:21:36Z</time>
      </trkpt>
      <trkpt lat="44.69166" lon="6.85261">
        <ele>2018.9</ele>
        <time>2026-03-25T09:21:37Z</time>
      </trkpt>
      <trkpt lat="44.69166" lon="6.85261">
        <ele>2018.9</ele>
        <time>2026-03-25T09:21:38Z</time>
      </trkpt>
      <trkpt lat="44.69166" lon="6.85261">
        <ele>2018.9</ele>
        <time>2026-03-25T09:21:39Z</time>
      </trkpt>
      <trkpt lat="44.69166" lon="6.85261">
        <ele>2018.9</ele>
        <time>2026-03-25T09:21:40Z</time>
      </trkpt>
      <trkpt lat="44.69166" lon="6.85261">
        <ele>2018.9</ele>
        <time>2026-03-25T09:21:41Z</time>
      </trkpt>
      <trkpt lat="44.69166" lon="6.85261">
        <ele>2018.9</ele>
        <time>2026-03-25T09:21:42Z</time>
      </trkpt>
      <trkpt lat="44.69166" lon="6.85261">
        <ele>2018.9</ele>
        <time>2026-03-25T09:21:43Z</time>
      </trkpt>
      <trkpt lat="44.69166" lon="6.85261">
        <ele>2018.9</ele>
        <time>2026-03-25T09:21:44Z</time>
      </trkpt>
      <trkpt lat="44.69166" lon="6.85261">
        <ele>2018.9</ele>
        <time>2026-03-25T09:21:45Z</time>
      </trkpt>
      <trkpt lat="44.69166" lon="6.85261">
        <ele>2018.9</ele>
        <time>2026-03-25T09:21:46Z</time>
      </trkpt>
      <trkpt lat="44.69166" lon="6.85261">
        <ele>2018.9</ele>
        <time>2026-03-25T09:21:47Z</time>
      </trkpt>
      <trkpt lat="44.69166" lon="6.85261">
        <ele>2018.9</ele>
        <time>2026-03-25T09:21:48Z</time>
      </trkpt>
      <trkpt lat="44.69166" lon="6.85261">
        <ele>2018.9</ele>
        <time>2026-03-25T09:21:49Z</time>
      </trkpt>
      <trkpt lat="44.69166" lon="6.85261">
        <ele>2018.9</ele>
        <time>2026-03-25T09:21:50Z</time>
      </trkpt>
      <trkpt lat="44.69166" lon="6.85261">
        <ele>2018.9</ele>
        <time>2026-03-25T09:21:51Z</time>
      </trkpt>
      <trkpt lat="44.69166" lon="6.85261">
        <ele>2018.9</ele>
        <time>2026-03-25T09:21:52Z</time>
      </trkpt>
      <trkpt lat="44.69166" lon="6.85261">
        <ele>2018.9</ele>
        <time>2026-03-25T09:21:53Z</time>
      </trkpt>
      <trkpt lat="44.69166" lon="6.85261">
        <ele>2018.9</ele>
        <time>2026-03-25T09:21:54Z</time>
      </trkpt>
      <trkpt lat="44.69166" lon="6.85261">
        <ele>2018.9</ele>
        <time>2026-03-25T09:21:55Z</time>
      </trkpt>
      <trkpt lat="44.69166" lon="6.85261">
        <ele>2018.9</ele>
        <time>2026-03-25T09:21:56Z</time>
      </trkpt>
      <trkpt lat="44.69166" lon="6.85261">
        <ele>2018.9</ele>
        <time>2026-03-25T09:21:57Z</time>
      </trkpt>
      <trkpt lat="44.69166" lon="6.85261">
        <ele>2018.9</ele>
        <time>2026-03-25T09:21:58Z</time>
      </trkpt>
      <trkpt lat="44.69166" lon="6.85261">
        <ele>2018.9</ele>
        <time>2026-03-25T09:21:59Z</time>
      </trkpt>
      <trkpt lat="44.69166" lon="6.85261">
        <ele>2018.9</ele>
        <time>2026-03-25T09:22:00Z</time>
      </trkpt>
      <trkpt lat="44.69166" lon="6.85261">
        <ele>2018.9</ele>
        <time>2026-03-25T09:22:01Z</time>
      </trkpt>
      <trkpt lat="44.69166" lon="6.85261">
        <ele>2018.9</ele>
        <time>2026-03-25T09:22:02Z</time>
      </trkpt>
      <trkpt lat="44.69166" lon="6.85261">
        <ele>2018.9</ele>
        <time>2026-03-25T09:22:03Z</time>
      </trkpt>
      <trkpt lat="44.69166" lon="6.85261">
        <ele>2018.9</ele>
        <time>2026-03-25T09:22:04Z</time>
      </trkpt>
      <trkpt lat="44.69166" lon="6.85261">
        <ele>2018.9</ele>
        <time>2026-03-25T09:22:05Z</time>
      </trkpt>
      <trkpt lat="44.69166" lon="6.85261">
        <ele>2018.9</ele>
        <time>2026-03-25T09:22:06Z</time>
      </trkpt>
      <trkpt lat="44.69166" lon="6.85261">
        <ele>2018.9</ele>
        <time>2026-03-25T09:22:07Z</time>
      </trkpt>
      <trkpt lat="44.69166" lon="6.85261">
        <ele>2018.9</ele>
        <time>2026-03-25T09:22:08Z</time>
      </trkpt>
      <trkpt lat="44.69166" lon="6.85261">
        <ele>2018.9</ele>
        <time>2026-03-25T09:22:09Z</time>
      </trkpt>
      <trkpt lat="44.69166" lon="6.85261">
        <ele>2018.9</ele>
        <time>2026-03-25T09:22:10Z</time>
      </trkpt>
      <trkpt lat="44.69166" lon="6.85261">
        <ele>2018.9</ele>
        <time>2026-03-25T09:22:11Z</time>
      </trkpt>
      <trkpt lat="44.69166" lon="6.85261">
        <ele>2018.9</ele>
        <time>2026-03-25T09:22:12Z</time>
      </trkpt>
      <trkpt lat="44.69166" lon="6.85261">
        <ele>2018.9</ele>
        <time>2026-03-25T09:22:13Z</time>
      </trkpt>
      <trkpt lat="44.69166" lon="6.85261">
        <ele>2018.9</ele>
        <time>2026-03-25T09:22:14Z</time>
      </trkpt>
      <trkpt lat="44.69166" lon="6.85261">
        <ele>2018.9</ele>
        <time>2026-03-25T09:22:15Z</time>
      </trkpt>
      <trkpt lat="44.69166" lon="6.85261">
        <ele>2019</ele>
        <time>2026-03-25T09:22:16Z</time>
      </trkpt>
      <trkpt lat="44.69166" lon="6.85261">
        <ele>2019</ele>
        <time>2026-03-25T09:22:17Z</time>
      </trkpt>
      <trkpt lat="44.69166" lon="6.85261">
        <ele>2019</ele>
        <time>2026-03-25T09:22:18Z</time>
      </trkpt>
      <trkpt lat="44.69166" lon="6.85261">
        <ele>2019</ele>
        <time>2026-03-25T09:22:19Z</time>
      </trkpt>
      <trkpt lat="44.69166" lon="6.85261">
        <ele>2019</ele>
        <time>2026-03-25T09:22:20Z</time>
      </trkpt>
      <trkpt lat="44.69166" lon="6.85261">
        <ele>2019</ele>
        <time>2026-03-25T09:22:21Z</time>
      </trkpt>
      <trkpt lat="44.69166" lon="6.85261">
        <ele>2019</ele>
        <time>2026-03-25T09:22:22Z</time>
      </trkpt>
      <trkpt lat="44.69166" lon="6.85261">
        <ele>2019</ele>
        <time>2026-03-25T09:22:23Z</time>
      </trkpt>
      <trkpt lat="44.69166" lon="6.85261">
        <ele>2019</ele>
        <time>2026-03-25T09:22:24Z</time>
      </trkpt>
      <trkpt lat="44.69166" lon="6.85261">
        <ele>2019</ele>
        <time>2026-03-25T09:22:25Z</time>
      </trkpt>
      <trkpt lat="44.69166" lon="6.85261">
        <ele>2019</ele>
        <time>2026-03-25T09:22:26Z</time>
      </trkpt>
      <trkpt lat="44.69166" lon="6.85261">
        <ele>2019</ele>
        <time>2026-03-25T09:22:27Z</time>
      </trkpt>
      <trkpt lat="44.69166" lon="6.85261">
        <ele>2019</ele>
        <time>2026-03-25T09:22:28Z</time>
      </trkpt>
      <trkpt lat="44.69166" lon="6.85261">
        <ele>2019</ele>
        <time>2026-03-25T09:22:29Z</time>
      </trkpt>
      <trkpt lat="44.69166" lon="6.85261">
        <ele>2019</ele>
        <time>2026-03-25T09:22:30Z</time>
      </trkpt>
      <trkpt lat="44.69167" lon="6.85261">
        <ele>2019</ele>
        <time>2026-03-25T09:22:31Z</time>
      </trkpt>
      <trkpt lat="44.69167" lon="6.85261">
        <ele>2019</ele>
        <time>2026-03-25T09:22:32Z</time>
      </trkpt>
      <trkpt lat="44.69167" lon="6.85261">
        <ele>2019</ele>
        <time>2026-03-25T09:22:33Z</time>
      </trkpt>
      <trkpt lat="44.69167" lon="6.85261">
        <ele>2019</ele>
        <time>2026-03-25T09:22:34Z</time>
      </trkpt>
      <trkpt lat="44.69167" lon="6.85261">
        <ele>2019</ele>
        <time>2026-03-25T09:22:35Z</time>
      </trkpt>
      <trkpt lat="44.69167" lon="6.85261">
        <ele>2019</ele>
        <time>2026-03-25T09:22:36Z</time>
      </trkpt>
      <trkpt lat="44.69167" lon="6.85261">
        <ele>2019</ele>
        <time>2026-03-25T09:22:37Z</time>
      </trkpt>
      <trkpt lat="44.69167" lon="6.85261">
        <ele>2019</ele>
        <time>2026-03-25T09:22:38Z</time>
      </trkpt>
      <trkpt lat="44.69167" lon="6.85261">
        <ele>2019</ele>
        <time>2026-03-25T09:22:39Z</time>
      </trkpt>
      <trkpt lat="44.69167" lon="6.85261">
        <ele>2019</ele>
        <time>2026-03-25T09:22:40Z</time>
      </trkpt>
      <trkpt lat="44.69167" lon="6.85261">
        <ele>2019</ele>
        <time>2026-03-25T09:22:41Z</time>
      </trkpt>
      <trkpt lat="44.69167" lon="6.85261">
        <ele>2019</ele>
        <time>2026-03-25T09:22:42Z</time>
      </trkpt>
      <trkpt lat="44.69167" lon="6.8526">
        <ele>2019</ele>
        <time>2026-03-25T09:22:43Z</time>
      </trkpt>
      <trkpt lat="44.69167" lon="6.8526">
        <ele>2019</ele>
        <time>2026-03-25T09:22:44Z</time>
      </trkpt>
      <trkpt lat="44.69167" lon="6.8526">
        <ele>2019</ele>
        <time>2026-03-25T09:22:45Z</time>
      </trkpt>
      <trkpt lat="44.69167" lon="6.8526">
        <ele>2019</ele>
        <time>2026-03-25T09:22:46Z</time>
      </trkpt>
      <trkpt lat="44.69167" lon="6.8526">
        <ele>2019</ele>
        <time>2026-03-25T09:22:47Z</time>
      </trkpt>
      <trkpt lat="44.69167" lon="6.8526">
        <ele>2019.1</ele>
        <time>2026-03-25T09:22:48Z</time>
      </trkpt>
      <trkpt lat="44.69167" lon="6.8526">
        <ele>2019.1</ele>
        <time>2026-03-25T09:22:49Z</time>
      </trkpt>
      <trkpt lat="44.69167" lon="6.8526">
        <ele>2019.1</ele>
        <time>2026-03-25T09:22:50Z</time>
      </trkpt>
      <trkpt lat="44.69167" lon="6.8526">
        <ele>2019.1</ele>
        <time>2026-03-25T09:22:51Z</time>
      </trkpt>
      <trkpt lat="44.69167" lon="6.8526">
        <ele>2019.1</ele>
        <time>2026-03-25T09:22:52Z</time>
      </trkpt>
      <trkpt lat="44.69167" lon="6.8526">
        <ele>2019.1</ele>
        <time>2026-03-25T09:22:53Z</time>
      </trkpt>
      <trkpt lat="44.69167" lon="6.8526">
        <ele>2019.1</ele>
        <time>2026-03-25T09:22:54Z</time>
      </trkpt>
      <trkpt lat="44.69167" lon="6.8526">
        <ele>2019.1</ele>
        <time>2026-03-25T09:22:55Z</time>
      </trkpt>
      <trkpt lat="44.69167" lon="6.8526">
        <ele>2019.1</ele>
        <time>2026-03-25T09:22:56Z</time>
      </trkpt>
      <trkpt lat="44.69167" lon="6.8526">
        <ele>2019.1</ele>
        <time>2026-03-25T09:22:57Z</time>
      </trkpt>
      <trkpt lat="44.69167" lon="6.8526">
        <ele>2019.1</ele>
        <time>2026-03-25T09:22:58Z</time>
      </trkpt>
      <trkpt lat="44.69167" lon="6.8526">
        <ele>2019.1</ele>
        <time>2026-03-25T09:22:59Z</time>
      </trkpt>
      <trkpt lat="44.69167" lon="6.8526">
        <ele>2019.1</ele>
        <time>2026-03-25T09:23:00Z</time>
      </trkpt>
      <trkpt lat="44.69167" lon="6.8526">
        <ele>2019.1</ele>
        <time>2026-03-25T09:23:01Z</time>
      </trkpt>
      <trkpt lat="44.69167" lon="6.8526">
        <ele>2019.1</ele>
        <time>2026-03-25T09:23:02Z</time>
      </trkpt>
      <trkpt lat="44.69167" lon="6.8526">
        <ele>2019.1</ele>
        <time>2026-03-25T09:23:03Z</time>
      </trkpt>
      <trkpt lat="44.69167" lon="6.8526">
        <ele>2019.1</ele>
        <time>2026-03-25T09:23:04Z</time>
      </trkpt>
      <trkpt lat="44.69167" lon="6.8526">
        <ele>2019.1</ele>
        <time>2026-03-25T09:23:05Z</time>
      </trkpt>
      <trkpt lat="44.69167" lon="6.8526">
        <ele>2019.1</ele>
        <time>2026-03-25T09:23:06Z</time>
      </trkpt>
      <trkpt lat="44.69167" lon="6.8526">
        <ele>2019.1</ele>
        <time>2026-03-25T09:23:07Z</time>
      </trkpt>
      <trkpt lat="44.69167" lon="6.8526">
        <ele>2019.1</ele>
        <time>2026-03-25T09:23:08Z</time>
      </trkpt>
      <trkpt lat="44.69167" lon="6.8526">
        <ele>2019.1</ele>
        <time>2026-03-25T09:23:09Z</time>
      </trkpt>
      <trkpt lat="44.69167" lon="6.8526">
        <ele>2019.1</ele>
        <time>2026-03-25T09:23:10Z</time>
      </trkpt>
      <trkpt lat="44.69167" lon="6.8526">
        <ele>2019.1</ele>
        <time>2026-03-25T09:23:11Z</time>
      </trkpt>
      <trkpt lat="44.69167" lon="6.8526">
        <ele>2019.1</ele>
        <time>2026-03-25T09:23:12Z</time>
      </trkpt>
      <trkpt lat="44.69167" lon="6.8526">
        <ele>2019.1</ele>
        <time>2026-03-25T09:23:13Z</time>
      </trkpt>
      <trkpt lat="44.69167" lon="6.85261">
        <ele>2019.1</ele>
        <time>2026-03-25T09:23:14Z</time>
      </trkpt>
      <trkpt lat="44.69167" lon="6.85261">
        <ele>2019.1</ele>
        <time>2026-03-25T09:23:15Z</time>
      </trkpt>
      <trkpt lat="44.69167" lon="6.85261">
        <ele>2019.1</ele>
        <time>2026-03-25T09:23:16Z</time>
      </trkpt>
      <trkpt lat="44.69166" lon="6.85261">
        <ele>2019.1</ele>
        <time>2026-03-25T09:23:17Z</time>
      </trkpt>
      <trkpt lat="44.69166" lon="6.85261">
        <ele>2019.1</ele>
        <time>2026-03-25T09:23:18Z</time>
      </trkpt>
      <trkpt lat="44.69166" lon="6.85261">
        <ele>2019.1</ele>
        <time>2026-03-25T09:23:19Z</time>
      </trkpt>
      <trkpt lat="44.69166" lon="6.85261">
        <ele>2019.1</ele>
        <time>2026-03-25T09:23:20Z</time>
      </trkpt>
      <trkpt lat="44.69166" lon="6.85261">
        <ele>2019.1</ele>
        <time>2026-03-25T09:23:21Z</time>
      </trkpt>
      <trkpt lat="44.69166" lon="6.8526">
        <ele>2019.1</ele>
        <time>2026-03-25T09:23:22Z</time>
      </trkpt>
      <trkpt lat="44.69166" lon="6.8526">
        <ele>2019.1</ele>
        <time>2026-03-25T09:23:23Z</time>
      </trkpt>
      <trkpt lat="44.69166" lon="6.85261">
        <ele>2019.2</ele>
        <time>2026-03-25T09:23:24Z</time>
      </trkpt>
      <trkpt lat="44.69166" lon="6.85261">
        <ele>2019.2</ele>
        <time>2026-03-25T09:23:25Z</time>
      </trkpt>
      <trkpt lat="44.69166" lon="6.85261">
        <ele>2019.2</ele>
        <time>2026-03-25T09:23:26Z</time>
      </trkpt>
      <trkpt lat="44.69166" lon="6.85261">
        <ele>2019.2</ele>
        <time>2026-03-25T09:23:27Z</time>
      </trkpt>
      <trkpt lat="44.69166" lon="6.85261">
        <ele>2019.2</ele>
        <time>2026-03-25T09:23:28Z</time>
      </trkpt>
      <trkpt lat="44.69166" lon="6.85261">
        <ele>2019.2</ele>
        <time>2026-03-25T09:23:29Z</time>
      </trkpt>
      <trkpt lat="44.69166" lon="6.85261">
        <ele>2019.2</ele>
        <time>2026-03-25T09:23:30Z</time>
      </trkpt>
      <trkpt lat="44.69166" lon="6.85261">
        <ele>2019.2</ele>
        <time>2026-03-25T09:23:32Z</time>
      </trkpt>
      <trkpt lat="44.69167" lon="6.85261">
        <ele>2019.2</ele>
        <time>2026-03-25T09:23:33Z</time>
      </trkpt>
      <trkpt lat="44.69167" lon="6.85261">
        <ele>2019.2</ele>
        <time>2026-03-25T09:23:34Z</time>
      </trkpt>
      <trkpt lat="44.69167" lon="6.8526">
        <ele>2019.2</ele>
        <time>2026-03-25T09:23:35Z</time>
      </trkpt>
      <trkpt lat="44.69167" lon="6.8526">
        <ele>2019.2</ele>
        <time>2026-03-25T09:23:36Z</time>
      </trkpt>
      <trkpt lat="44.69167" lon="6.8526">
        <ele>2019.3</ele>
        <time>2026-03-25T09:23:37Z</time>
      </trkpt>
      <trkpt lat="44.69167" lon="6.8526">
        <ele>2019.3</ele>
        <time>2026-03-25T09:23:38Z</time>
      </trkpt>
      <trkpt lat="44.69167" lon="6.8526">
        <ele>2019.3</ele>
        <time>2026-03-25T09:23:39Z</time>
      </trkpt>
      <trkpt lat="44.69167" lon="6.8526">
        <ele>2019.3</ele>
        <time>2026-03-25T09:23:40Z</time>
      </trkpt>
      <trkpt lat="44.69167" lon="6.8526">
        <ele>2019.3</ele>
        <time>2026-03-25T09:23:41Z</time>
      </trkpt>
      <trkpt lat="44.69167" lon="6.8526">
        <ele>2019.3</ele>
        <time>2026-03-25T09:23:42Z</time>
      </trkpt>
      <trkpt lat="44.69167" lon="6.8526">
        <ele>2019.3</ele>
        <time>2026-03-25T09:23:43Z</time>
      </trkpt>
      <trkpt lat="44.69167" lon="6.8526">
        <ele>2019.3</ele>
        <time>2026-03-25T09:23:44Z</time>
      </trkpt>
      <trkpt lat="44.69167" lon="6.8526">
        <ele>2019.3</ele>
        <time>2026-03-25T09:23:45Z</time>
      </trkpt>
      <trkpt lat="44.69167" lon="6.8526">
        <ele>2019.3</ele>
        <time>2026-03-25T09:23:46Z</time>
      </trkpt>
      <trkpt lat="44.69167" lon="6.8526">
        <ele>2019.4</ele>
        <time>2026-03-25T09:23:47Z</time>
      </trkpt>
      <trkpt lat="44.69167" lon="6.8526">
        <ele>2019.4</ele>
        <time>2026-03-25T09:23:48Z</time>
      </trkpt>
      <trkpt lat="44.69167" lon="6.8526">
        <ele>2019.4</ele>
        <time>2026-03-25T09:23:49Z</time>
      </trkpt>
      <trkpt lat="44.69167" lon="6.8526">
        <ele>2019.4</ele>
        <time>2026-03-25T09:23:50Z</time>
      </trkpt>
      <trkpt lat="44.69167" lon="6.8526">
        <ele>2019.4</ele>
        <time>2026-03-25T09:23:51Z</time>
      </trkpt>
      <trkpt lat="44.69167" lon="6.8526">
        <ele>2019.4</ele>
        <time>2026-03-25T09:23:52Z</time>
      </trkpt>
      <trkpt lat="44.69167" lon="6.8526">
        <ele>2019.4</ele>
        <time>2026-03-25T09:23:53Z</time>
      </trkpt>
      <trkpt lat="44.69167" lon="6.8526">
        <ele>2019.4</ele>
        <time>2026-03-25T09:23:54Z</time>
      </trkpt>
      <trkpt lat="44.69167" lon="6.8526">
        <ele>2019.4</ele>
        <time>2026-03-25T09:23:55Z</time>
      </trkpt>
      <trkpt lat="44.69167" lon="6.8526">
        <ele>2019.4</ele>
        <time>2026-03-25T09:23:56Z</time>
      </trkpt>
      <trkpt lat="44.69167" lon="6.8526">
        <ele>2019.4</ele>
        <time>2026-03-25T09:23:57Z</time>
      </trkpt>
      <trkpt lat="44.69167" lon="6.8526">
        <ele>2019.4</ele>
        <time>2026-03-25T09:23:58Z</time>
      </trkpt>
      <trkpt lat="44.69167" lon="6.8526">
        <ele>2019.4</ele>
        <time>2026-03-25T09:23:59Z</time>
      </trkpt>
      <trkpt lat="44.69167" lon="6.8526">
        <ele>2019.4</ele>
        <time>2026-03-25T09:24:00Z</time>
      </trkpt>
      <trkpt lat="44.69167" lon="6.8526">
        <ele>2019.4</ele>
        <time>2026-03-25T09:24:01Z</time>
      </trkpt>
      <trkpt lat="44.69167" lon="6.8526">
        <ele>2019.4</ele>
        <time>2026-03-25T09:24:02Z</time>
      </trkpt>
      <trkpt lat="44.69167" lon="6.8526">
        <ele>2019.4</ele>
        <time>2026-03-25T09:24:03Z</time>
      </trkpt>
      <trkpt lat="44.69167" lon="6.8526">
        <ele>2019.4</ele>
        <time>2026-03-25T09:24:04Z</time>
      </trkpt>
      <trkpt lat="44.69167" lon="6.8526">
        <ele>2019.4</ele>
        <time>2026-03-25T09:24:05Z</time>
      </trkpt>
      <trkpt lat="44.69167" lon="6.8526">
        <ele>2019.4</ele>
        <time>2026-03-25T09:24:06Z</time>
      </trkpt>
      <trkpt lat="44.69167" lon="6.8526">
        <ele>2019.4</ele>
        <time>2026-03-25T09:24:07Z</time>
      </trkpt>
      <trkpt lat="44.69167" lon="6.8526">
        <ele>2019.4</ele>
        <time>2026-03-25T09:24:08Z</time>
      </trkpt>
      <trkpt lat="44.69167" lon="6.8526">
        <ele>2019.4</ele>
        <time>2026-03-25T09:24:09Z</time>
      </trkpt>
      <trkpt lat="44.69167" lon="6.8526">
        <ele>2019.4</ele>
        <time>2026-03-25T09:24:10Z</time>
      </trkpt>
      <trkpt lat="44.69167" lon="6.8526">
        <ele>2019.4</ele>
        <time>2026-03-25T09:24:11Z</time>
      </trkpt>
      <trkpt lat="44.69167" lon="6.8526">
        <ele>2019.4</ele>
        <time>2026-03-25T09:24:12Z</time>
      </trkpt>
      <trkpt lat="44.69167" lon="6.8526">
        <ele>2019.4</ele>
        <time>2026-03-25T09:24:13Z</time>
      </trkpt>
      <trkpt lat="44.69167" lon="6.8526">
        <ele>2019.4</ele>
        <time>2026-03-25T09:24:14Z</time>
      </trkpt>
      <trkpt lat="44.69167" lon="6.8526">
        <ele>2019.4</ele>
        <time>2026-03-25T09:24:15Z</time>
      </trkpt>
      <trkpt lat="44.69167" lon="6.8526">
        <ele>2019.4</ele>
        <time>2026-03-25T09:24:16Z</time>
      </trkpt>
      <trkpt lat="44.69167" lon="6.8526">
        <ele>2019.4</ele>
        <time>2026-03-25T09:24:17Z</time>
      </trkpt>
      <trkpt lat="44.69167" lon="6.8526">
        <ele>2019.4</ele>
        <time>2026-03-25T09:24:18Z</time>
      </trkpt>
      <trkpt lat="44.69167" lon="6.8526">
        <ele>2019.4</ele>
        <time>2026-03-25T09:24:19Z</time>
      </trkpt>
      <trkpt lat="44.69167" lon="6.8526">
        <ele>2019.4</ele>
        <time>2026-03-25T09:24:20Z</time>
      </trkpt>
      <trkpt lat="44.69167" lon="6.8526">
        <ele>2019.4</ele>
        <time>2026-03-25T09:24:21Z</time>
      </trkpt>
      <trkpt lat="44.69167" lon="6.8526">
        <ele>2019.4</ele>
        <time>2026-03-25T09:24:22Z</time>
      </trkpt>
      <trkpt lat="44.69167" lon="6.8526">
        <ele>2019.4</ele>
        <time>2026-03-25T09:24:23Z</time>
      </trkpt>
      <trkpt lat="44.69167" lon="6.8526">
        <ele>2019.4</ele>
        <time>2026-03-25T09:24:24Z</time>
      </trkpt>
      <trkpt lat="44.69167" lon="6.8526">
        <ele>2019.4</ele>
        <time>2026-03-25T09:24:25Z</time>
      </trkpt>
      <trkpt lat="44.69167" lon="6.8526">
        <ele>2019.4</ele>
        <time>2026-03-25T09:24:26Z</time>
      </trkpt>
      <trkpt lat="44.69167" lon="6.8526">
        <ele>2019.4</ele>
        <time>2026-03-25T09:24:27Z</time>
      </trkpt>
      <trkpt lat="44.69168" lon="6.8526">
        <ele>2019.5</ele>
        <time>2026-03-25T09:24:28Z</time>
      </trkpt>
      <trkpt lat="44.69168" lon="6.8526">
        <ele>2019.5</ele>
        <time>2026-03-25T09:24:29Z</time>
      </trkpt>
      <trkpt lat="44.69168" lon="6.8526">
        <ele>2019.5</ele>
        <time>2026-03-25T09:24:30Z</time>
      </trkpt>
      <trkpt lat="44.69168" lon="6.8526">
        <ele>2019.5</ele>
        <time>2026-03-25T09:24:31Z</time>
      </trkpt>
      <trkpt lat="44.69168" lon="6.8526">
        <ele>2019.5</ele>
        <time>2026-03-25T09:24:32Z</time>
      </trkpt>
      <trkpt lat="44.69168" lon="6.8526">
        <ele>2019.5</ele>
        <time>2026-03-25T09:24:33Z</time>
      </trkpt>
      <trkpt lat="44.69168" lon="6.8526">
        <ele>2019.5</ele>
        <time>2026-03-25T09:24:34Z</time>
      </trkpt>
      <trkpt lat="44.69168" lon="6.8526">
        <ele>2019.5</ele>
        <time>2026-03-25T09:24:35Z</time>
      </trkpt>
      <trkpt lat="44.69168" lon="6.8526">
        <ele>2019.5</ele>
        <time>2026-03-25T09:24:36Z</time>
      </trkpt>
      <trkpt lat="44.69168" lon="6.85259">
        <ele>2019.5</ele>
        <time>2026-03-25T09:24:37Z</time>
      </trkpt>
      <trkpt lat="44.69168" lon="6.8526">
        <ele>2019.5</ele>
        <time>2026-03-25T09:24:38Z</time>
      </trkpt>
      <trkpt lat="44.69168" lon="6.85259">
        <ele>2019.5</ele>
        <time>2026-03-25T09:24:39Z</time>
      </trkpt>
      <trkpt lat="44.69168" lon="6.85259">
        <ele>2019.5</ele>
        <time>2026-03-25T09:24:40Z</time>
      </trkpt>
      <trkpt lat="44.69168" lon="6.85259">
        <ele>2019.5</ele>
        <time>2026-03-25T09:24:41Z</time>
      </trkpt>
      <trkpt lat="44.69168" lon="6.85259">
        <ele>2019.5</ele>
        <time>2026-03-25T09:24:42Z</time>
      </trkpt>
      <trkpt lat="44.69168" lon="6.85259">
        <ele>2019.5</ele>
        <time>2026-03-25T09:24:43Z</time>
      </trkpt>
      <trkpt lat="44.69168" lon="6.85259">
        <ele>2019.5</ele>
        <time>2026-03-25T09:24:44Z</time>
      </trkpt>
      <trkpt lat="44.69168" lon="6.85259">
        <ele>2019.5</ele>
        <time>2026-03-25T09:24:45Z</time>
      </trkpt>
      <trkpt lat="44.69168" lon="6.85259">
        <ele>2019.5</ele>
        <time>2026-03-25T09:24:46Z</time>
      </trkpt>
      <trkpt lat="44.69168" lon="6.85259">
        <ele>2019.5</ele>
        <time>2026-03-25T09:24:47Z</time>
      </trkpt>
      <trkpt lat="44.69168" lon="6.85259">
        <ele>2019.6</ele>
        <time>2026-03-25T09:24:48Z</time>
      </trkpt>
      <trkpt lat="44.69168" lon="6.85259">
        <ele>2019.6</ele>
        <time>2026-03-25T09:24:49Z</time>
      </trkpt>
      <trkpt lat="44.69168" lon="6.85259">
        <ele>2019.6</ele>
        <time>2026-03-25T09:24:50Z</time>
      </trkpt>
      <trkpt lat="44.69168" lon="6.85259">
        <ele>2019.6</ele>
        <time>2026-03-25T09:24:51Z</time>
      </trkpt>
      <trkpt lat="44.69168" lon="6.85259">
        <ele>2019.6</ele>
        <time>2026-03-25T09:24:52Z</time>
      </trkpt>
      <trkpt lat="44.69168" lon="6.85259">
        <ele>2019.6</ele>
        <time>2026-03-25T09:24:53Z</time>
      </trkpt>
      <trkpt lat="44.69168" lon="6.85259">
        <ele>2019.6</ele>
        <time>2026-03-25T09:24:54Z</time>
      </trkpt>
      <trkpt lat="44.69168" lon="6.85259">
        <ele>2019.6</ele>
        <time>2026-03-25T09:24:55Z</time>
      </trkpt>
      <trkpt lat="44.69168" lon="6.85259">
        <ele>2019.6</ele>
        <time>2026-03-25T09:24:56Z</time>
      </trkpt>
      <trkpt lat="44.69168" lon="6.85259">
        <ele>2019.6</ele>
        <time>2026-03-25T09:24:57Z</time>
      </trkpt>
      <trkpt lat="44.69168" lon="6.85259">
        <ele>2019.6</ele>
        <time>2026-03-25T09:24:58Z</time>
      </trkpt>
      <trkpt lat="44.69168" lon="6.85259">
        <ele>2019.6</ele>
        <time>2026-03-25T09:24:59Z</time>
      </trkpt>
      <trkpt lat="44.69168" lon="6.85259">
        <ele>2019.6</ele>
        <time>2026-03-25T09:25:00Z</time>
      </trkpt>
      <trkpt lat="44.69168" lon="6.8526">
        <ele>2019.6</ele>
        <time>2026-03-25T09:25:02Z</time>
      </trkpt>
      <trkpt lat="44.69168" lon="6.85259">
        <ele>2019.6</ele>
        <time>2026-03-25T09:25:03Z</time>
      </trkpt>
      <trkpt lat="44.69168" lon="6.8526">
        <ele>2019.6</ele>
        <time>2026-03-25T09:25:04Z</time>
      </trkpt>
      <trkpt lat="44.69167" lon="6.8526">
        <ele>2019.6</ele>
        <time>2026-03-25T09:25:05Z</time>
      </trkpt>
      <trkpt lat="44.69167" lon="6.8526">
        <ele>2019.6</ele>
        <time>2026-03-25T09:25:06Z</time>
      </trkpt>
      <trkpt lat="44.69167" lon="6.85259">
        <ele>2019.6</ele>
        <time>2026-03-25T09:25:07Z</time>
      </trkpt>
      <trkpt lat="44.69167" lon="6.85259">
        <ele>2019.7</ele>
        <time>2026-03-25T09:25:08Z</time>
      </trkpt>
      <trkpt lat="44.69167" lon="6.85259">
        <ele>2019.7</ele>
        <time>2026-03-25T09:25:09Z</time>
      </trkpt>
      <trkpt lat="44.69167" lon="6.85259">
        <ele>2019.7</ele>
        <time>2026-03-25T09:25:10Z</time>
      </trkpt>
      <trkpt lat="44.69167" lon="6.85259">
        <ele>2019.7</ele>
        <time>2026-03-25T09:25:11Z</time>
      </trkpt>
      <trkpt lat="44.69167" lon="6.85259">
        <ele>2019.7</ele>
        <time>2026-03-25T09:25:12Z</time>
      </trkpt>
      <trkpt lat="44.69167" lon="6.85259">
        <ele>2019.7</ele>
        <time>2026-03-25T09:25:13Z</time>
      </trkpt>
      <trkpt lat="44.69168" lon="6.85259">
        <ele>2019.7</ele>
        <time>2026-03-25T09:25:14Z</time>
      </trkpt>
      <trkpt lat="44.69168" lon="6.85259">
        <ele>2019.7</ele>
        <time>2026-03-25T09:25:15Z</time>
      </trkpt>
      <trkpt lat="44.69168" lon="6.85259">
        <ele>2019.7</ele>
        <time>2026-03-25T09:25:16Z</time>
      </trkpt>
      <trkpt lat="44.69167" lon="6.85259">
        <ele>2019.7</ele>
        <time>2026-03-25T09:25:17Z</time>
      </trkpt>
      <trkpt lat="44.69167" lon="6.85259">
        <ele>2019.7</ele>
        <time>2026-03-25T09:25:18Z</time>
      </trkpt>
      <trkpt lat="44.69168" lon="6.85259">
        <ele>2019.7</ele>
        <time>2026-03-25T09:25:19Z</time>
      </trkpt>
      <trkpt lat="44.69168" lon="6.85259">
        <ele>2019.7</ele>
        <time>2026-03-25T09:25:20Z</time>
      </trkpt>
      <trkpt lat="44.69168" lon="6.85259">
        <ele>2019.7</ele>
        <time>2026-03-25T09:25:21Z</time>
      </trkpt>
      <trkpt lat="44.69168" lon="6.85259">
        <ele>2019.7</ele>
        <time>2026-03-25T09:25:22Z</time>
      </trkpt>
      <trkpt lat="44.69168" lon="6.85259">
        <ele>2019.7</ele>
        <time>2026-03-25T09:25:23Z</time>
      </trkpt>
      <trkpt lat="44.69168" lon="6.85259">
        <ele>2019.7</ele>
        <time>2026-03-25T09:25:24Z</time>
      </trkpt>
      <trkpt lat="44.69168" lon="6.85259">
        <ele>2019.7</ele>
        <time>2026-03-25T09:25:25Z</time>
      </trkpt>
      <trkpt lat="44.69168" lon="6.85259">
        <ele>2019.7</ele>
        <time>2026-03-25T09:25:26Z</time>
      </trkpt>
      <trkpt lat="44.69168" lon="6.85259">
        <ele>2019.7</ele>
        <time>2026-03-25T09:25:27Z</time>
      </trkpt>
      <trkpt lat="44.69168" lon="6.85259">
        <ele>2019.7</ele>
        <time>2026-03-25T09:25:28Z</time>
      </trkpt>
      <trkpt lat="44.69167" lon="6.85259">
        <ele>2019.7</ele>
        <time>2026-03-25T09:25:29Z</time>
      </trkpt>
      <trkpt lat="44.69167" lon="6.85259">
        <ele>2019.7</ele>
        <time>2026-03-25T09:25:30Z</time>
      </trkpt>
      <trkpt lat="44.69167" lon="6.85259">
        <ele>2019.8</ele>
        <time>2026-03-25T09:25:31Z</time>
      </trkpt>
      <trkpt lat="44.69167" lon="6.85259">
        <ele>2019.8</ele>
        <time>2026-03-25T09:25:32Z</time>
      </trkpt>
      <trkpt lat="44.69167" lon="6.85259">
        <ele>2019.8</ele>
        <time>2026-03-25T09:25:33Z</time>
      </trkpt>
      <trkpt lat="44.69167" lon="6.85259">
        <ele>2019.8</ele>
        <time>2026-03-25T09:25:35Z</time>
      </trkpt>
      <trkpt lat="44.69167" lon="6.85259">
        <ele>2019.8</ele>
        <time>2026-03-25T09:25:36Z</time>
      </trkpt>
      <trkpt lat="44.69167" lon="6.85259">
        <ele>2019.8</ele>
        <time>2026-03-25T09:25:37Z</time>
      </trkpt>
      <trkpt lat="44.69167" lon="6.85259">
        <ele>2019.8</ele>
        <time>2026-03-25T09:25:38Z</time>
      </trkpt>
      <trkpt lat="44.69167" lon="6.85259">
        <ele>2019.8</ele>
        <time>2026-03-25T09:25:39Z</time>
      </trkpt>
      <trkpt lat="44.69167" lon="6.85259">
        <ele>2019.8</ele>
        <time>2026-03-25T09:25:40Z</time>
      </trkpt>
      <trkpt lat="44.69167" lon="6.85259">
        <ele>2019.8</ele>
        <time>2026-03-25T09:25:41Z</time>
      </trkpt>
      <trkpt lat="44.69167" lon="6.85259">
        <ele>2019.8</ele>
        <time>2026-03-25T09:25:42Z</time>
      </trkpt>
      <trkpt lat="44.69167" lon="6.85259">
        <ele>2019.8</ele>
        <time>2026-03-25T09:25:43Z</time>
      </trkpt>
      <trkpt lat="44.69167" lon="6.85259">
        <ele>2019.8</ele>
        <time>2026-03-25T09:25:44Z</time>
      </trkpt>
      <trkpt lat="44.69167" lon="6.85259">
        <ele>2019.8</ele>
        <time>2026-03-25T09:25:45Z</time>
      </trkpt>
      <trkpt lat="44.69167" lon="6.85259">
        <ele>2019.8</ele>
        <time>2026-03-25T09:25:46Z</time>
      </trkpt>
      <trkpt lat="44.69167" lon="6.85259">
        <ele>2019.8</ele>
        <time>2026-03-25T09:25:47Z</time>
      </trkpt>
      <trkpt lat="44.69167" lon="6.85259">
        <ele>2019.8</ele>
        <time>2026-03-25T09:25:48Z</time>
      </trkpt>
      <trkpt lat="44.69167" lon="6.85259">
        <ele>2019.8</ele>
        <time>2026-03-25T09:25:49Z</time>
      </trkpt>
      <trkpt lat="44.69167" lon="6.85259">
        <ele>2019.8</ele>
        <time>2026-03-25T09:25:50Z</time>
      </trkpt>
      <trkpt lat="44.69167" lon="6.85259">
        <ele>2019.8</ele>
        <time>2026-03-25T09:25:51Z</time>
      </trkpt>
      <trkpt lat="44.69167" lon="6.85259">
        <ele>2019.8</ele>
        <time>2026-03-25T09:25:52Z</time>
      </trkpt>
      <trkpt lat="44.69167" lon="6.85259">
        <ele>2019.8</ele>
        <time>2026-03-25T09:25:53Z</time>
      </trkpt>
      <trkpt lat="44.69167" lon="6.85259">
        <ele>2019.9</ele>
        <time>2026-03-25T09:25:54Z</time>
      </trkpt>
      <trkpt lat="44.69167" lon="6.85259">
        <ele>2019.9</ele>
        <time>2026-03-25T09:25:55Z</time>
      </trkpt>
      <trkpt lat="44.69167" lon="6.85259">
        <ele>2019.9</ele>
        <time>2026-03-25T09:25:56Z</time>
      </trkpt>
      <trkpt lat="44.69167" lon="6.85259">
        <ele>2019.9</ele>
        <time>2026-03-25T09:25:57Z</time>
      </trkpt>
      <trkpt lat="44.69167" lon="6.85259">
        <ele>2019.9</ele>
        <time>2026-03-25T09:25:58Z</time>
      </trkpt>
      <trkpt lat="44.69167" lon="6.85259">
        <ele>2019.9</ele>
        <time>2026-03-25T09:25:59Z</time>
      </trkpt>
      <trkpt lat="44.69167" lon="6.85259">
        <ele>2019.9</ele>
        <time>2026-03-25T09:26:00Z</time>
      </trkpt>
      <trkpt lat="44.69167" lon="6.85259">
        <ele>2019.9</ele>
        <time>2026-03-25T09:26:01Z</time>
      </trkpt>
      <trkpt lat="44.69167" lon="6.85259">
        <ele>2019.9</ele>
        <time>2026-03-25T09:26:02Z</time>
      </trkpt>
      <trkpt lat="44.69166" lon="6.8526">
        <ele>2019.9</ele>
        <time>2026-03-25T09:26:03Z</time>
      </trkpt>
      <trkpt lat="44.69166" lon="6.8526">
        <ele>2020</ele>
        <time>2026-03-25T09:26:04Z</time>
      </trkpt>
      <trkpt lat="44.69166" lon="6.8526">
        <ele>2020</ele>
        <time>2026-03-25T09:26:05Z</time>
      </trkpt>
      <trkpt lat="44.69166" lon="6.8526">
        <ele>2020</ele>
        <time>2026-03-25T09:26:06Z</time>
      </trkpt>
      <trkpt lat="44.69166" lon="6.8526">
        <ele>2020</ele>
        <time>2026-03-25T09:26:07Z</time>
      </trkpt>
      <trkpt lat="44.69165" lon="6.8526">
        <ele>2020.1</ele>
        <time>2026-03-25T09:26:08Z</time>
      </trkpt>
      <trkpt lat="44.69165" lon="6.8526">
        <ele>2020.1</ele>
        <time>2026-03-25T09:26:09Z</time>
      </trkpt>
      <trkpt lat="44.69165" lon="6.8526">
        <ele>2020.1</ele>
        <time>2026-03-25T09:26:10Z</time>
      </trkpt>
      <trkpt lat="44.69165" lon="6.8526">
        <ele>2020.1</ele>
        <time>2026-03-25T09:26:11Z</time>
      </trkpt>
      <trkpt lat="44.69165" lon="6.8526">
        <ele>2020.2</ele>
        <time>2026-03-25T09:26:12Z</time>
      </trkpt>
      <trkpt lat="44.69165" lon="6.8526">
        <ele>2020.2</ele>
        <time>2026-03-25T09:26:13Z</time>
      </trkpt>
      <trkpt lat="44.69165" lon="6.8526">
        <ele>2020.2</ele>
        <time>2026-03-25T09:26:14Z</time>
      </trkpt>
      <trkpt lat="44.69164" lon="6.8526">
        <ele>2020.2</ele>
        <time>2026-03-25T09:26:15Z</time>
      </trkpt>
      <trkpt lat="44.69164" lon="6.8526">
        <ele>2020.2</ele>
        <time>2026-03-25T09:26:16Z</time>
      </trkpt>
      <trkpt lat="44.69164" lon="6.8526">
        <ele>2020.2</ele>
        <time>2026-03-25T09:26:17Z</time>
      </trkpt>
      <trkpt lat="44.69164" lon="6.8526">
        <ele>2020.3</ele>
        <time>2026-03-25T09:26:18Z</time>
      </trkpt>
      <trkpt lat="44.69164" lon="6.8526">
        <ele>2020.3</ele>
        <time>2026-03-25T09:26:19Z</time>
      </trkpt>
      <trkpt lat="44.69163" lon="6.8526">
        <ele>2020.4</ele>
        <time>2026-03-25T09:26:20Z</time>
      </trkpt>
      <trkpt lat="44.69163" lon="6.85261">
        <ele>2020.4</ele>
        <time>2026-03-25T09:26:21Z</time>
      </trkpt>
      <trkpt lat="44.69163" lon="6.85261">
        <ele>2020.4</ele>
        <time>2026-03-25T09:26:22Z</time>
      </trkpt>
      <trkpt lat="44.69163" lon="6.85261">
        <ele>2020.4</ele>
        <time>2026-03-25T09:26:23Z</time>
      </trkpt>
      <trkpt lat="44.69163" lon="6.85261">
        <ele>2020.5</ele>
        <time>2026-03-25T09:26:24Z</time>
      </trkpt>
      <trkpt lat="44.69163" lon="6.85261">
        <ele>2020.5</ele>
        <time>2026-03-25T09:26:25Z</time>
      </trkpt>
      <trkpt lat="44.69163" lon="6.85261">
        <ele>2020.5</ele>
        <time>2026-03-25T09:26:26Z</time>
      </trkpt>
      <trkpt lat="44.69163" lon="6.85261">
        <ele>2020.5</ele>
        <time>2026-03-25T09:26:27Z</time>
      </trkpt>
      <trkpt lat="44.69163" lon="6.85261">
        <ele>2020.5</ele>
        <time>2026-03-25T09:26:28Z</time>
      </trkpt>
      <trkpt lat="44.69163" lon="6.85261">
        <ele>2020.5</ele>
        <time>2026-03-25T09:26:29Z</time>
      </trkpt>
      <trkpt lat="44.69163" lon="6.85262">
        <ele>2020.5</ele>
        <time>2026-03-25T09:26:30Z</time>
      </trkpt>
      <trkpt lat="44.69163" lon="6.85262">
        <ele>2020.5</ele>
        <time>2026-03-25T09:26:31Z</time>
      </trkpt>
      <trkpt lat="44.69163" lon="6.85262">
        <ele>2020.5</ele>
        <time>2026-03-25T09:26:32Z</time>
      </trkpt>
      <trkpt lat="44.69163" lon="6.85262">
        <ele>2020.5</ele>
        <time>2026-03-25T09:26:33Z</time>
      </trkpt>
      <trkpt lat="44.69163" lon="6.85262">
        <ele>2020.5</ele>
        <time>2026-03-25T09:26:34Z</time>
      </trkpt>
      <trkpt lat="44.69163" lon="6.85262">
        <ele>2020.5</ele>
        <time>2026-03-25T09:26:35Z</time>
      </trkpt>
      <trkpt lat="44.69163" lon="6.85262">
        <ele>2020.5</ele>
        <time>2026-03-25T09:26:36Z</time>
      </trkpt>
      <trkpt lat="44.69163" lon="6.85262">
        <ele>2020.5</ele>
        <time>2026-03-25T09:26:37Z</time>
      </trkpt>
      <trkpt lat="44.69162" lon="6.85262">
        <ele>2020.5</ele>
        <time>2026-03-25T09:26:38Z</time>
      </trkpt>
      <trkpt lat="44.69162" lon="6.85262">
        <ele>2020.6</ele>
        <time>2026-03-25T09:26:39Z</time>
      </trkpt>
      <trkpt lat="44.69162" lon="6.85262">
        <ele>2020.6</ele>
        <time>2026-03-25T09:26:40Z</time>
      </trkpt>
      <trkpt lat="44.69162" lon="6.85262">
        <ele>2020.7</ele>
        <time>2026-03-25T09:26:41Z</time>
      </trkpt>
      <trkpt lat="44.69161" lon="6.85262">
        <ele>2020.7</ele>
        <time>2026-03-25T09:26:42Z</time>
      </trkpt>
      <trkpt lat="44.69161" lon="6.85263">
        <ele>2020.8</ele>
        <time>2026-03-25T09:26:43Z</time>
      </trkpt>
      <trkpt lat="44.6916" lon="6.85263">
        <ele>2020.9</ele>
        <time>2026-03-25T09:26:44Z</time>
      </trkpt>
      <trkpt lat="44.6916" lon="6.85263">
        <ele>2020.9</ele>
        <time>2026-03-25T09:26:45Z</time>
      </trkpt>
      <trkpt lat="44.6916" lon="6.85264">
        <ele>2021</ele>
        <time>2026-03-25T09:26:47Z</time>
      </trkpt>
      <trkpt lat="44.69159" lon="6.85264">
        <ele>2021.1</ele>
        <time>2026-03-25T09:26:48Z</time>
      </trkpt>
      <trkpt lat="44.69158" lon="6.85265">
        <ele>2021.2</ele>
        <time>2026-03-25T09:26:50Z</time>
      </trkpt>
      <trkpt lat="44.69158" lon="6.85265">
        <ele>2021.3</ele>
        <time>2026-03-25T09:26:51Z</time>
      </trkpt>
      <trkpt lat="44.69157" lon="6.85265">
        <ele>2021.4</ele>
        <time>2026-03-25T09:26:53Z</time>
      </trkpt>
      <trkpt lat="44.69156" lon="6.85265">
        <ele>2021.5</ele>
        <time>2026-03-25T09:26:54Z</time>
      </trkpt>
      <trkpt lat="44.69156" lon="6.85265">
        <ele>2021.6</ele>
        <time>2026-03-25T09:26:55Z</time>
      </trkpt>
      <trkpt lat="44.69155" lon="6.85265">
        <ele>2021.7</ele>
        <time>2026-03-25T09:26:56Z</time>
      </trkpt>
      <trkpt lat="44.69154" lon="6.85265">
        <ele>2021.8</ele>
        <time>2026-03-25T09:26:57Z</time>
      </trkpt>
      <trkpt lat="44.69154" lon="6.85265">
        <ele>2021.9</ele>
        <time>2026-03-25T09:26:58Z</time>
      </trkpt>
      <trkpt lat="44.69153" lon="6.85266">
        <ele>2022</ele>
        <time>2026-03-25T09:26:59Z</time>
      </trkpt>
      <trkpt lat="44.69152" lon="6.85266">
        <ele>2022.1</ele>
        <time>2026-03-25T09:27:00Z</time>
      </trkpt>
      <trkpt lat="44.69151" lon="6.85267">
        <ele>2022.3</ele>
        <time>2026-03-25T09:27:01Z</time>
      </trkpt>
      <trkpt lat="44.6915" lon="6.85267">
        <ele>2022.4</ele>
        <time>2026-03-25T09:27:03Z</time>
      </trkpt>
      <trkpt lat="44.69149" lon="6.85267">
        <ele>2022.6</ele>
        <time>2026-03-25T09:27:04Z</time>
      </trkpt>
      <trkpt lat="44.69148" lon="6.85267">
        <ele>2022.7</ele>
        <time>2026-03-25T09:27:05Z</time>
      </trkpt>
      <trkpt lat="44.69148" lon="6.85268">
        <ele>2022.8</ele>
        <time>2026-03-25T09:27:06Z</time>
      </trkpt>
      <trkpt lat="44.69147" lon="6.85268">
        <ele>2022.9</ele>
        <time>2026-03-25T09:27:07Z</time>
      </trkpt>
      <trkpt lat="44.69146" lon="6.85269">
        <ele>2023</ele>
        <time>2026-03-25T09:27:08Z</time>
      </trkpt>
      <trkpt lat="44.69146" lon="6.8527">
        <ele>2023.1</ele>
        <time>2026-03-25T09:27:09Z</time>
      </trkpt>
      <trkpt lat="44.69146" lon="6.85271">
        <ele>2023.3</ele>
        <time>2026-03-25T09:27:10Z</time>
      </trkpt>
      <trkpt lat="44.69145" lon="6.85271">
        <ele>2023.4</ele>
        <time>2026-03-25T09:27:11Z</time>
      </trkpt>
      <trkpt lat="44.69145" lon="6.85272">
        <ele>2023.5</ele>
        <time>2026-03-25T09:27:12Z</time>
      </trkpt>
      <trkpt lat="44.69144" lon="6.85273">
        <ele>2023.6</ele>
        <time>2026-03-25T09:27:13Z</time>
      </trkpt>
      <trkpt lat="44.69144" lon="6.85273">
        <ele>2023.6</ele>
        <time>2026-03-25T09:27:14Z</time>
      </trkpt>
      <trkpt lat="44.69143" lon="6.85274">
        <ele>2023.7</ele>
        <time>2026-03-25T09:27:15Z</time>
      </trkpt>
      <trkpt lat="44.69143" lon="6.85274">
        <ele>2023.9</ele>
        <time>2026-03-25T09:27:16Z</time>
      </trkpt>
      <trkpt lat="44.69142" lon="6.85275">
        <ele>2023.9</ele>
        <time>2026-03-25T09:27:17Z</time>
      </trkpt>
      <trkpt lat="44.69142" lon="6.85276">
        <ele>2024.1</ele>
        <time>2026-03-25T09:27:18Z</time>
      </trkpt>
      <trkpt lat="44.69141" lon="6.85276">
        <ele>2024.1</ele>
        <time>2026-03-25T09:27:19Z</time>
      </trkpt>
      <trkpt lat="44.69141" lon="6.85277">
        <ele>2024.2</ele>
        <time>2026-03-25T09:27:20Z</time>
      </trkpt>
      <trkpt lat="44.69141" lon="6.85277">
        <ele>2024.3</ele>
        <time>2026-03-25T09:27:21Z</time>
      </trkpt>
      <trkpt lat="44.6914" lon="6.85277">
        <ele>2024.4</ele>
        <time>2026-03-25T09:27:22Z</time>
      </trkpt>
      <trkpt lat="44.6914" lon="6.85277">
        <ele>2024.5</ele>
        <time>2026-03-25T09:27:23Z</time>
      </trkpt>
      <trkpt lat="44.69139" lon="6.85278">
        <ele>2024.5</ele>
        <time>2026-03-25T09:27:24Z</time>
      </trkpt>
      <trkpt lat="44.69138" lon="6.85278">
        <ele>2024.7</ele>
        <time>2026-03-25T09:27:25Z</time>
      </trkpt>
      <trkpt lat="44.69137" lon="6.85278">
        <ele>2024.8</ele>
        <time>2026-03-25T09:27:27Z</time>
      </trkpt>
      <trkpt lat="44.69137" lon="6.85278">
        <ele>2024.9</ele>
        <time>2026-03-25T09:27:28Z</time>
      </trkpt>
      <trkpt lat="44.69137" lon="6.85279">
        <ele>2024.9</ele>
        <time>2026-03-25T09:27:29Z</time>
      </trkpt>
      <trkpt lat="44.69136" lon="6.8528">
        <ele>2025</ele>
        <time>2026-03-25T09:27:30Z</time>
      </trkpt>
      <trkpt lat="44.69136" lon="6.8528">
        <ele>2025.1</ele>
        <time>2026-03-25T09:27:31Z</time>
      </trkpt>
      <trkpt lat="44.69136" lon="6.85281">
        <ele>2025.2</ele>
        <time>2026-03-25T09:27:32Z</time>
      </trkpt>
      <trkpt lat="44.69136" lon="6.85282">
        <ele>2025.2</ele>
        <time>2026-03-25T09:27:33Z</time>
      </trkpt>
      <trkpt lat="44.69136" lon="6.85282">
        <ele>2025.3</ele>
        <time>2026-03-25T09:27:34Z</time>
      </trkpt>
      <trkpt lat="44.69136" lon="6.85283">
        <ele>2025.4</ele>
        <time>2026-03-25T09:27:35Z</time>
      </trkpt>
      <trkpt lat="44.69136" lon="6.85284">
        <ele>2025.5</ele>
        <time>2026-03-25T09:27:36Z</time>
      </trkpt>
      <trkpt lat="44.69136" lon="6.85284">
        <ele>2025.5</ele>
        <time>2026-03-25T09:27:37Z</time>
      </trkpt>
      <trkpt lat="44.69135" lon="6.85285">
        <ele>2025.6</ele>
        <time>2026-03-25T09:27:38Z</time>
      </trkpt>
      <trkpt lat="44.69135" lon="6.85286">
        <ele>2025.7</ele>
        <time>2026-03-25T09:27:39Z</time>
      </trkpt>
      <trkpt lat="44.69135" lon="6.85287">
        <ele>2025.8</ele>
        <time>2026-03-25T09:27:40Z</time>
      </trkpt>
      <trkpt lat="44.69135" lon="6.85288">
        <ele>2025.9</ele>
        <time>2026-03-25T09:27:41Z</time>
      </trkpt>
      <trkpt lat="44.69135" lon="6.85289">
        <ele>2026</ele>
        <time>2026-03-25T09:27:42Z</time>
      </trkpt>
      <trkpt lat="44.69134" lon="6.8529">
        <ele>2026.1</ele>
        <time>2026-03-25T09:27:43Z</time>
      </trkpt>
      <trkpt lat="44.69134" lon="6.85291">
        <ele>2026.2</ele>
        <time>2026-03-25T09:27:44Z</time>
      </trkpt>
      <trkpt lat="44.69133" lon="6.85291">
        <ele>2026.3</ele>
        <time>2026-03-25T09:27:45Z</time>
      </trkpt>
      <trkpt lat="44.69133" lon="6.85292">
        <ele>2026.3</ele>
        <time>2026-03-25T09:27:46Z</time>
      </trkpt>
      <trkpt lat="44.69133" lon="6.85292">
        <ele>2026.4</ele>
        <time>2026-03-25T09:27:47Z</time>
      </trkpt>
      <trkpt lat="44.69132" lon="6.85292">
        <ele>2026.5</ele>
        <time>2026-03-25T09:27:48Z</time>
      </trkpt>
      <trkpt lat="44.69132" lon="6.85293">
        <ele>2026.5</ele>
        <time>2026-03-25T09:27:49Z</time>
      </trkpt>
      <trkpt lat="44.69131" lon="6.85293">
        <ele>2026.6</ele>
        <time>2026-03-25T09:27:50Z</time>
      </trkpt>
      <trkpt lat="44.69131" lon="6.85293">
        <ele>2026.7</ele>
        <time>2026-03-25T09:27:51Z</time>
      </trkpt>
      <trkpt lat="44.69131" lon="6.85294">
        <ele>2026.7</ele>
        <time>2026-03-25T09:27:52Z</time>
      </trkpt>
      <trkpt lat="44.6913" lon="6.85294">
        <ele>2026.8</ele>
        <time>2026-03-25T09:27:53Z</time>
      </trkpt>
      <trkpt lat="44.69129" lon="6.85294">
        <ele>2026.9</ele>
        <time>2026-03-25T09:27:54Z</time>
      </trkpt>
      <trkpt lat="44.69129" lon="6.85295">
        <ele>2027</ele>
        <time>2026-03-25T09:27:55Z</time>
      </trkpt>
      <trkpt lat="44.69128" lon="6.85295">
        <ele>2027</ele>
        <time>2026-03-25T09:27:56Z</time>
      </trkpt>
      <trkpt lat="44.69128" lon="6.85295">
        <ele>2027.1</ele>
        <time>2026-03-25T09:27:57Z</time>
      </trkpt>
      <trkpt lat="44.69127" lon="6.85296">
        <ele>2027.2</ele>
        <time>2026-03-25T09:27:58Z</time>
      </trkpt>
      <trkpt lat="44.69127" lon="6.85296">
        <ele>2027.3</ele>
        <time>2026-03-25T09:27:59Z</time>
      </trkpt>
      <trkpt lat="44.69127" lon="6.85296">
        <ele>2027.3</ele>
        <time>2026-03-25T09:28:00Z</time>
      </trkpt>
      <trkpt lat="44.69126" lon="6.85297">
        <ele>2027.4</ele>
        <time>2026-03-25T09:28:01Z</time>
      </trkpt>
      <trkpt lat="44.69126" lon="6.85297">
        <ele>2027.4</ele>
        <time>2026-03-25T09:28:02Z</time>
      </trkpt>
      <trkpt lat="44.69126" lon="6.85298">
        <ele>2027.5</ele>
        <time>2026-03-25T09:28:03Z</time>
      </trkpt>
      <trkpt lat="44.69126" lon="6.85299">
        <ele>2027.6</ele>
        <time>2026-03-25T09:28:04Z</time>
      </trkpt>
      <trkpt lat="44.69125" lon="6.85299">
        <ele>2027.7</ele>
        <time>2026-03-25T09:28:05Z</time>
      </trkpt>
      <trkpt lat="44.69125" lon="6.853">
        <ele>2027.7</ele>
        <time>2026-03-25T09:28:06Z</time>
      </trkpt>
      <trkpt lat="44.69125" lon="6.85301">
        <ele>2027.8</ele>
        <time>2026-03-25T09:28:07Z</time>
      </trkpt>
      <trkpt lat="44.69125" lon="6.85301">
        <ele>2027.9</ele>
        <time>2026-03-25T09:28:09Z</time>
      </trkpt>
      <trkpt lat="44.69124" lon="6.85303">
        <ele>2028</ele>
        <time>2026-03-25T09:28:10Z</time>
      </trkpt>
      <trkpt lat="44.69124" lon="6.85303">
        <ele>2028.1</ele>
        <time>2026-03-25T09:28:11Z</time>
      </trkpt>
      <trkpt lat="44.69123" lon="6.85304">
        <ele>2028.2</ele>
        <time>2026-03-25T09:28:13Z</time>
      </trkpt>
      <trkpt lat="44.69123" lon="6.85305">
        <ele>2028.2</ele>
        <time>2026-03-25T09:28:14Z</time>
      </trkpt>
      <trkpt lat="44.69122" lon="6.85305">
        <ele>2028.3</ele>
        <time>2026-03-25T09:28:16Z</time>
      </trkpt>
      <trkpt lat="44.69121" lon="6.85306">
        <ele>2028.5</ele>
        <time>2026-03-25T09:28:18Z</time>
      </trkpt>
      <trkpt lat="44.6912" lon="6.85306">
        <ele>2028.6</ele>
        <time>2026-03-25T09:28:19Z</time>
      </trkpt>
      <trkpt lat="44.6912" lon="6.85306">
        <ele>2028.7</ele>
        <time>2026-03-25T09:28:20Z</time>
      </trkpt>
      <trkpt lat="44.6912" lon="6.85306">
        <ele>2028.7</ele>
        <time>2026-03-25T09:28:21Z</time>
      </trkpt>
      <trkpt lat="44.69119" lon="6.85306">
        <ele>2028.7</ele>
        <time>2026-03-25T09:28:22Z</time>
      </trkpt>
      <trkpt lat="44.69119" lon="6.85307">
        <ele>2028.8</ele>
        <time>2026-03-25T09:28:24Z</time>
      </trkpt>
      <trkpt lat="44.69118" lon="6.85307">
        <ele>2028.8</ele>
        <time>2026-03-25T09:28:25Z</time>
      </trkpt>
      <trkpt lat="44.69118" lon="6.85307">
        <ele>2028.9</ele>
        <time>2026-03-25T09:28:26Z</time>
      </trkpt>
      <trkpt lat="44.69118" lon="6.85307">
        <ele>2028.9</ele>
        <time>2026-03-25T09:28:27Z</time>
      </trkpt>
      <trkpt lat="44.69117" lon="6.85307">
        <ele>2029</ele>
        <time>2026-03-25T09:28:28Z</time>
      </trkpt>
      <trkpt lat="44.69117" lon="6.85307">
        <ele>2029</ele>
        <time>2026-03-25T09:28:29Z</time>
      </trkpt>
      <trkpt lat="44.69117" lon="6.85307">
        <ele>2029.1</ele>
        <time>2026-03-25T09:28:30Z</time>
      </trkpt>
      <trkpt lat="44.69116" lon="6.85308">
        <ele>2029.2</ele>
        <time>2026-03-25T09:28:31Z</time>
      </trkpt>
      <trkpt lat="44.69116" lon="6.85308">
        <ele>2029.2</ele>
        <time>2026-03-25T09:28:32Z</time>
      </trkpt>
      <trkpt lat="44.69115" lon="6.85309">
        <ele>2029.3</ele>
        <time>2026-03-25T09:28:33Z</time>
      </trkpt>
      <trkpt lat="44.69115" lon="6.8531">
        <ele>2029.4</ele>
        <time>2026-03-25T09:28:35Z</time>
      </trkpt>
      <trkpt lat="44.69115" lon="6.8531">
        <ele>2029.5</ele>
        <time>2026-03-25T09:28:36Z</time>
      </trkpt>
      <trkpt lat="44.69115" lon="6.85311">
        <ele>2029.5</ele>
        <time>2026-03-25T09:28:37Z</time>
      </trkpt>
      <trkpt lat="44.69114" lon="6.85312">
        <ele>2029.6</ele>
        <time>2026-03-25T09:28:38Z</time>
      </trkpt>
      <trkpt lat="44.69114" lon="6.85313">
        <ele>2029.7</ele>
        <time>2026-03-25T09:28:39Z</time>
      </trkpt>
      <trkpt lat="44.69114" lon="6.85314">
        <ele>2029.8</ele>
        <time>2026-03-25T09:28:40Z</time>
      </trkpt>
      <trkpt lat="44.69114" lon="6.85314">
        <ele>2029.8</ele>
        <time>2026-03-25T09:28:41Z</time>
      </trkpt>
      <trkpt lat="44.69113" lon="6.85315">
        <ele>2029.9</ele>
        <time>2026-03-25T09:28:42Z</time>
      </trkpt>
      <trkpt lat="44.69113" lon="6.85315">
        <ele>2030</ele>
        <time>2026-03-25T09:28:43Z</time>
      </trkpt>
      <trkpt lat="44.69113" lon="6.85316">
        <ele>2030</ele>
        <time>2026-03-25T09:28:44Z</time>
      </trkpt>
      <trkpt lat="44.69112" lon="6.85317">
        <ele>2030.1</ele>
        <time>2026-03-25T09:28:45Z</time>
      </trkpt>
      <trkpt lat="44.69112" lon="6.85317">
        <ele>2030.2</ele>
        <time>2026-03-25T09:28:46Z</time>
      </trkpt>
      <trkpt lat="44.69111" lon="6.85317">
        <ele>2030.2</ele>
        <time>2026-03-25T09:28:47Z</time>
      </trkpt>
      <trkpt lat="44.69111" lon="6.85318">
        <ele>2030.3</ele>
        <time>2026-03-25T09:28:48Z</time>
      </trkpt>
      <trkpt lat="44.69111" lon="6.85318">
        <ele>2030.3</ele>
        <time>2026-03-25T09:28:49Z</time>
      </trkpt>
      <trkpt lat="44.69111" lon="6.85319">
        <ele>2030.4</ele>
        <time>2026-03-25T09:28:50Z</time>
      </trkpt>
      <trkpt lat="44.6911" lon="6.8532">
        <ele>2030.5</ele>
        <time>2026-03-25T09:28:51Z</time>
      </trkpt>
      <trkpt lat="44.6911" lon="6.8532">
        <ele>2030.5</ele>
        <time>2026-03-25T09:28:52Z</time>
      </trkpt>
      <trkpt lat="44.6911" lon="6.85321">
        <ele>2030.6</ele>
        <time>2026-03-25T09:28:53Z</time>
      </trkpt>
      <trkpt lat="44.6911" lon="6.85322">
        <ele>2030.6</ele>
        <time>2026-03-25T09:28:54Z</time>
      </trkpt>
      <trkpt lat="44.6911" lon="6.85322">
        <ele>2030.7</ele>
        <time>2026-03-25T09:28:55Z</time>
      </trkpt>
      <trkpt lat="44.6911" lon="6.85323">
        <ele>2030.8</ele>
        <time>2026-03-25T09:28:56Z</time>
      </trkpt>
      <trkpt lat="44.6911" lon="6.85324">
        <ele>2030.8</ele>
        <time>2026-03-25T09:28:57Z</time>
      </trkpt>
      <trkpt lat="44.6911" lon="6.85325">
        <ele>2030.9</ele>
        <time>2026-03-25T09:28:58Z</time>
      </trkpt>
      <trkpt lat="44.6911" lon="6.85325">
        <ele>2031</ele>
        <time>2026-03-25T09:28:59Z</time>
      </trkpt>
      <trkpt lat="44.6911" lon="6.85326">
        <ele>2031.1</ele>
        <time>2026-03-25T09:29:00Z</time>
      </trkpt>
      <trkpt lat="44.6911" lon="6.85327">
        <ele>2031.1</ele>
        <time>2026-03-25T09:29:01Z</time>
      </trkpt>
      <trkpt lat="44.6911" lon="6.85328">
        <ele>2031.2</ele>
        <time>2026-03-25T09:29:02Z</time>
      </trkpt>
      <trkpt lat="44.6911" lon="6.85329">
        <ele>2031.3</ele>
        <time>2026-03-25T09:29:03Z</time>
      </trkpt>
      <trkpt lat="44.69111" lon="6.85329">
        <ele>2031.3</ele>
        <time>2026-03-25T09:29:04Z</time>
      </trkpt>
      <trkpt lat="44.69111" lon="6.8533">
        <ele>2031.3</ele>
        <time>2026-03-25T09:29:05Z</time>
      </trkpt>
      <trkpt lat="44.69111" lon="6.8533">
        <ele>2031.4</ele>
        <time>2026-03-25T09:29:06Z</time>
      </trkpt>
      <trkpt lat="44.6911" lon="6.85331">
        <ele>2031.4</ele>
        <time>2026-03-25T09:29:07Z</time>
      </trkpt>
      <trkpt lat="44.6911" lon="6.85331">
        <ele>2031.5</ele>
        <time>2026-03-25T09:29:08Z</time>
      </trkpt>
      <trkpt lat="44.6911" lon="6.85332">
        <ele>2031.5</ele>
        <time>2026-03-25T09:29:09Z</time>
      </trkpt>
      <trkpt lat="44.6911" lon="6.85332">
        <ele>2031.6</ele>
        <time>2026-03-25T09:29:10Z</time>
      </trkpt>
      <trkpt lat="44.6911" lon="6.85332">
        <ele>2031.6</ele>
        <time>2026-03-25T09:29:11Z</time>
      </trkpt>
      <trkpt lat="44.69109" lon="6.85333">
        <ele>2031.7</ele>
        <time>2026-03-25T09:29:13Z</time>
      </trkpt>
      <trkpt lat="44.69109" lon="6.85333">
        <ele>2031.8</ele>
        <time>2026-03-25T09:29:14Z</time>
      </trkpt>
      <trkpt lat="44.69108" lon="6.85334">
        <ele>2031.8</ele>
        <time>2026-03-25T09:29:15Z</time>
      </trkpt>
      <trkpt lat="44.69108" lon="6.85334">
        <ele>2031.9</ele>
        <time>2026-03-25T09:29:16Z</time>
      </trkpt>
      <trkpt lat="44.69107" lon="6.85335">
        <ele>2032.1</ele>
        <time>2026-03-25T09:29:18Z</time>
      </trkpt>
      <trkpt lat="44.69106" lon="6.85335">
        <ele>2032.1</ele>
        <time>2026-03-25T09:29:19Z</time>
      </trkpt>
      <trkpt lat="44.69106" lon="6.85336">
        <ele>2032.2</ele>
        <time>2026-03-25T09:29:20Z</time>
      </trkpt>
      <trkpt lat="44.69105" lon="6.85336">
        <ele>2032.3</ele>
        <time>2026-03-25T09:29:21Z</time>
      </trkpt>
      <trkpt lat="44.69105" lon="6.85337">
        <ele>2032.4</ele>
        <time>2026-03-25T09:29:22Z</time>
      </trkpt>
      <trkpt lat="44.69104" lon="6.85338">
        <ele>2032.4</ele>
        <time>2026-03-25T09:29:23Z</time>
      </trkpt>
      <trkpt lat="44.69104" lon="6.85338">
        <ele>2032.5</ele>
        <time>2026-03-25T09:29:24Z</time>
      </trkpt>
      <trkpt lat="44.69103" lon="6.85338">
        <ele>2032.6</ele>
        <time>2026-03-25T09:29:25Z</time>
      </trkpt>
      <trkpt lat="44.69103" lon="6.85339">
        <ele>2032.6</ele>
        <time>2026-03-25T09:29:26Z</time>
      </trkpt>
      <trkpt lat="44.69103" lon="6.85339">
        <ele>2032.7</ele>
        <time>2026-03-25T09:29:27Z</time>
      </trkpt>
      <trkpt lat="44.69102" lon="6.85339">
        <ele>2032.7</ele>
        <time>2026-03-25T09:29:28Z</time>
      </trkpt>
      <trkpt lat="44.69102" lon="6.8534">
        <ele>2032.8</ele>
        <time>2026-03-25T09:29:29Z</time>
      </trkpt>
      <trkpt lat="44.69102" lon="6.8534">
        <ele>2032.8</ele>
        <time>2026-03-25T09:29:30Z</time>
      </trkpt>
      <trkpt lat="44.69101" lon="6.8534">
        <ele>2032.9</ele>
        <time>2026-03-25T09:29:31Z</time>
      </trkpt>
      <trkpt lat="44.69101" lon="6.85341">
        <ele>2032.9</ele>
        <time>2026-03-25T09:29:32Z</time>
      </trkpt>
      <trkpt lat="44.69101" lon="6.85341">
        <ele>2033</ele>
        <time>2026-03-25T09:29:33Z</time>
      </trkpt>
      <trkpt lat="44.69101" lon="6.85342">
        <ele>2033</ele>
        <time>2026-03-25T09:29:34Z</time>
      </trkpt>
      <trkpt lat="44.69101" lon="6.85342">
        <ele>2033.1</ele>
        <time>2026-03-25T09:29:35Z</time>
      </trkpt>
      <trkpt lat="44.691" lon="6.85343">
        <ele>2033.1</ele>
        <time>2026-03-25T09:29:36Z</time>
      </trkpt>
      <trkpt lat="44.691" lon="6.85343">
        <ele>2033.2</ele>
        <time>2026-03-25T09:29:37Z</time>
      </trkpt>
      <trkpt lat="44.69099" lon="6.85343">
        <ele>2033.3</ele>
        <time>2026-03-25T09:29:38Z</time>
      </trkpt>
      <trkpt lat="44.69099" lon="6.85344">
        <ele>2033.4</ele>
        <time>2026-03-25T09:29:39Z</time>
      </trkpt>
      <trkpt lat="44.69098" lon="6.85344">
        <ele>2033.4</ele>
        <time>2026-03-25T09:29:40Z</time>
      </trkpt>
      <trkpt lat="44.69097" lon="6.85344">
        <ele>2033.5</ele>
        <time>2026-03-25T09:29:41Z</time>
      </trkpt>
      <trkpt lat="44.69097" lon="6.85344">
        <ele>2033.5</ele>
        <time>2026-03-25T09:29:42Z</time>
      </trkpt>
      <trkpt lat="44.69096" lon="6.85345">
        <ele>2033.6</ele>
        <time>2026-03-25T09:29:43Z</time>
      </trkpt>
      <trkpt lat="44.69096" lon="6.85345">
        <ele>2033.7</ele>
        <time>2026-03-25T09:29:44Z</time>
      </trkpt>
      <trkpt lat="44.69095" lon="6.85345">
        <ele>2033.8</ele>
        <time>2026-03-25T09:29:45Z</time>
      </trkpt>
      <trkpt lat="44.69095" lon="6.85345">
        <ele>2033.8</ele>
        <time>2026-03-25T09:29:46Z</time>
      </trkpt>
      <trkpt lat="44.69094" lon="6.85346">
        <ele>2033.9</ele>
        <time>2026-03-25T09:29:47Z</time>
      </trkpt>
      <trkpt lat="44.69094" lon="6.85346">
        <ele>2034</ele>
        <time>2026-03-25T09:29:48Z</time>
      </trkpt>
      <trkpt lat="44.69094" lon="6.85346">
        <ele>2034</ele>
        <time>2026-03-25T09:29:49Z</time>
      </trkpt>
      <trkpt lat="44.69093" lon="6.85347">
        <ele>2034.1</ele>
        <time>2026-03-25T09:29:50Z</time>
      </trkpt>
      <trkpt lat="44.69093" lon="6.85348">
        <ele>2034.1</ele>
        <time>2026-03-25T09:29:51Z</time>
      </trkpt>
      <trkpt lat="44.69093" lon="6.85349">
        <ele>2034.2</ele>
        <time>2026-03-25T09:29:52Z</time>
      </trkpt>
      <trkpt lat="44.69093" lon="6.85349">
        <ele>2034.3</ele>
        <time>2026-03-25T09:29:53Z</time>
      </trkpt>
      <trkpt lat="44.69093" lon="6.8535">
        <ele>2034.4</ele>
        <time>2026-03-25T09:29:54Z</time>
      </trkpt>
      <trkpt lat="44.69093" lon="6.8535">
        <ele>2034.4</ele>
        <time>2026-03-25T09:29:55Z</time>
      </trkpt>
      <trkpt lat="44.69093" lon="6.85351">
        <ele>2034.5</ele>
        <time>2026-03-25T09:29:56Z</time>
      </trkpt>
      <trkpt lat="44.69094" lon="6.85351">
        <ele>2034.5</ele>
        <time>2026-03-25T09:29:57Z</time>
      </trkpt>
      <trkpt lat="44.69094" lon="6.85352">
        <ele>2034.6</ele>
        <time>2026-03-25T09:29:58Z</time>
      </trkpt>
      <trkpt lat="44.69095" lon="6.85352">
        <ele>2034.7</ele>
        <time>2026-03-25T09:29:59Z</time>
      </trkpt>
      <trkpt lat="44.69095" lon="6.85352">
        <ele>2034.7</ele>
        <time>2026-03-25T09:30:00Z</time>
      </trkpt>
      <trkpt lat="44.69095" lon="6.85352">
        <ele>2034.8</ele>
        <time>2026-03-25T09:30:02Z</time>
      </trkpt>
      <trkpt lat="44.69096" lon="6.85352">
        <ele>2034.9</ele>
        <time>2026-03-25T09:30:03Z</time>
      </trkpt>
      <trkpt lat="44.69097" lon="6.85353">
        <ele>2034.9</ele>
        <time>2026-03-25T09:30:04Z</time>
      </trkpt>
      <trkpt lat="44.69097" lon="6.85353">
        <ele>2035</ele>
        <time>2026-03-25T09:30:05Z</time>
      </trkpt>
      <trkpt lat="44.69098" lon="6.85353">
        <ele>2035.1</ele>
        <time>2026-03-25T09:30:06Z</time>
      </trkpt>
      <trkpt lat="44.69098" lon="6.85354">
        <ele>2035.2</ele>
        <time>2026-03-25T09:30:07Z</time>
      </trkpt>
      <trkpt lat="44.69098" lon="6.85354">
        <ele>2035.2</ele>
        <time>2026-03-25T09:30:08Z</time>
      </trkpt>
      <trkpt lat="44.69098" lon="6.85355">
        <ele>2035.3</ele>
        <time>2026-03-25T09:30:09Z</time>
      </trkpt>
      <trkpt lat="44.69098" lon="6.85356">
        <ele>2035.4</ele>
        <time>2026-03-25T09:30:10Z</time>
      </trkpt>
      <trkpt lat="44.69098" lon="6.85357">
        <ele>2035.5</ele>
        <time>2026-03-25T09:30:11Z</time>
      </trkpt>
      <trkpt lat="44.69098" lon="6.85357">
        <ele>2035.5</ele>
        <time>2026-03-25T09:30:12Z</time>
      </trkpt>
      <trkpt lat="44.69098" lon="6.85359">
        <ele>2035.7</ele>
        <time>2026-03-25T09:30:13Z</time>
      </trkpt>
      <trkpt lat="44.69097" lon="6.8536">
        <ele>2035.8</ele>
        <time>2026-03-25T09:30:14Z</time>
      </trkpt>
      <trkpt lat="44.69097" lon="6.8536">
        <ele>2035.9</ele>
        <time>2026-03-25T09:30:15Z</time>
      </trkpt>
      <trkpt lat="44.69096" lon="6.85361">
        <ele>2035.9</ele>
        <time>2026-03-25T09:30:16Z</time>
      </trkpt>
      <trkpt lat="44.69096" lon="6.85361">
        <ele>2036</ele>
        <time>2026-03-25T09:30:17Z</time>
      </trkpt>
      <trkpt lat="44.69096" lon="6.85361">
        <ele>2036.1</ele>
        <time>2026-03-25T09:30:18Z</time>
      </trkpt>
      <trkpt lat="44.69095" lon="6.85361">
        <ele>2036.1</ele>
        <time>2026-03-25T09:30:19Z</time>
      </trkpt>
      <trkpt lat="44.69095" lon="6.85362">
        <ele>2036.2</ele>
        <time>2026-03-25T09:30:20Z</time>
      </trkpt>
      <trkpt lat="44.69095" lon="6.85362">
        <ele>2036.2</ele>
        <time>2026-03-25T09:30:21Z</time>
      </trkpt>
      <trkpt lat="44.69094" lon="6.85363">
        <ele>2036.3</ele>
        <time>2026-03-25T09:30:22Z</time>
      </trkpt>
      <trkpt lat="44.69094" lon="6.85363">
        <ele>2036.4</ele>
        <time>2026-03-25T09:30:23Z</time>
      </trkpt>
      <trkpt lat="44.69094" lon="6.85364">
        <ele>2036.5</ele>
        <time>2026-03-25T09:30:24Z</time>
      </trkpt>
      <trkpt lat="44.69093" lon="6.85365">
        <ele>2036.6</ele>
        <time>2026-03-25T09:30:25Z</time>
      </trkpt>
      <trkpt lat="44.69093" lon="6.85366">
        <ele>2036.7</ele>
        <time>2026-03-25T09:30:26Z</time>
      </trkpt>
      <trkpt lat="44.69093" lon="6.85366">
        <ele>2036.8</ele>
        <time>2026-03-25T09:30:27Z</time>
      </trkpt>
      <trkpt lat="44.69093" lon="6.85367">
        <ele>2036.8</ele>
        <time>2026-03-25T09:30:28Z</time>
      </trkpt>
      <trkpt lat="44.69092" lon="6.85367">
        <ele>2036.9</ele>
        <time>2026-03-25T09:30:29Z</time>
      </trkpt>
      <trkpt lat="44.69092" lon="6.85368">
        <ele>2036.9</ele>
        <time>2026-03-25T09:30:30Z</time>
      </trkpt>
      <trkpt lat="44.69092" lon="6.85368">
        <ele>2037</ele>
        <time>2026-03-25T09:30:31Z</time>
      </trkpt>
      <trkpt lat="44.69092" lon="6.85368">
        <ele>2037</ele>
        <time>2026-03-25T09:30:32Z</time>
      </trkpt>
      <trkpt lat="44.69092" lon="6.85369">
        <ele>2037.1</ele>
        <time>2026-03-25T09:30:33Z</time>
      </trkpt>
      <trkpt lat="44.69091" lon="6.85369">
        <ele>2037.2</ele>
        <time>2026-03-25T09:30:35Z</time>
      </trkpt>
      <trkpt lat="44.69091" lon="6.8537">
        <ele>2037.2</ele>
        <time>2026-03-25T09:30:36Z</time>
      </trkpt>
      <trkpt lat="44.69091" lon="6.8537">
        <ele>2037.3</ele>
        <time>2026-03-25T09:30:37Z</time>
      </trkpt>
      <trkpt lat="44.6909" lon="6.8537">
        <ele>2037.3</ele>
        <time>2026-03-25T09:30:38Z</time>
      </trkpt>
      <trkpt lat="44.69089" lon="6.85371">
        <ele>2037.5</ele>
        <time>2026-03-25T09:30:39Z</time>
      </trkpt>
      <trkpt lat="44.69089" lon="6.85371">
        <ele>2037.6</ele>
        <time>2026-03-25T09:30:40Z</time>
      </trkpt>
      <trkpt lat="44.69089" lon="6.85372">
        <ele>2037.6</ele>
        <time>2026-03-25T09:30:41Z</time>
      </trkpt>
      <trkpt lat="44.69088" lon="6.85372">
        <ele>2037.7</ele>
        <time>2026-03-25T09:30:43Z</time>
      </trkpt>
      <trkpt lat="44.69088" lon="6.85372">
        <ele>2037.8</ele>
        <time>2026-03-25T09:30:44Z</time>
      </trkpt>
      <trkpt lat="44.69087" lon="6.85373">
        <ele>2037.9</ele>
        <time>2026-03-25T09:30:45Z</time>
      </trkpt>
      <trkpt lat="44.69087" lon="6.85373">
        <ele>2038</ele>
        <time>2026-03-25T09:30:46Z</time>
      </trkpt>
      <trkpt lat="44.69086" lon="6.85374">
        <ele>2038.1</ele>
        <time>2026-03-25T09:30:47Z</time>
      </trkpt>
      <trkpt lat="44.69086" lon="6.85375">
        <ele>2038.2</ele>
        <time>2026-03-25T09:30:48Z</time>
      </trkpt>
      <trkpt lat="44.69085" lon="6.85375">
        <ele>2038.3</ele>
        <time>2026-03-25T09:30:49Z</time>
      </trkpt>
      <trkpt lat="44.69085" lon="6.85376">
        <ele>2038.4</ele>
        <time>2026-03-25T09:30:50Z</time>
      </trkpt>
      <trkpt lat="44.69084" lon="6.85377">
        <ele>2038.6</ele>
        <time>2026-03-25T09:30:51Z</time>
      </trkpt>
      <trkpt lat="44.69084" lon="6.85377">
        <ele>2038.7</ele>
        <time>2026-03-25T09:30:52Z</time>
      </trkpt>
      <trkpt lat="44.69083" lon="6.85378">
        <ele>2038.8</ele>
        <time>2026-03-25T09:30:53Z</time>
      </trkpt>
      <trkpt lat="44.69083" lon="6.85378">
        <ele>2038.9</ele>
        <time>2026-03-25T09:30:54Z</time>
      </trkpt>
      <trkpt lat="44.69082" lon="6.85379">
        <ele>2039</ele>
        <time>2026-03-25T09:30:55Z</time>
      </trkpt>
      <trkpt lat="44.69082" lon="6.85379">
        <ele>2039.1</ele>
        <time>2026-03-25T09:30:56Z</time>
      </trkpt>
      <trkpt lat="44.69081" lon="6.8538">
        <ele>2039.2</ele>
        <time>2026-03-25T09:30:57Z</time>
      </trkpt>
      <trkpt lat="44.69081" lon="6.85381">
        <ele>2039.3</ele>
        <time>2026-03-25T09:30:58Z</time>
      </trkpt>
      <trkpt lat="44.6908" lon="6.85381">
        <ele>2039.4</ele>
        <time>2026-03-25T09:30:59Z</time>
      </trkpt>
      <trkpt lat="44.6908" lon="6.85382">
        <ele>2039.5</ele>
        <time>2026-03-25T09:31:00Z</time>
      </trkpt>
      <trkpt lat="44.69079" lon="6.85382">
        <ele>2039.6</ele>
        <time>2026-03-25T09:31:01Z</time>
      </trkpt>
      <trkpt lat="44.69079" lon="6.85383">
        <ele>2039.7</ele>
        <time>2026-03-25T09:31:02Z</time>
      </trkpt>
      <trkpt lat="44.69078" lon="6.85383">
        <ele>2039.8</ele>
        <time>2026-03-25T09:31:03Z</time>
      </trkpt>
      <trkpt lat="44.69078" lon="6.85383">
        <ele>2039.9</ele>
        <time>2026-03-25T09:31:04Z</time>
      </trkpt>
      <trkpt lat="44.69077" lon="6.85384">
        <ele>2040</ele>
        <time>2026-03-25T09:31:05Z</time>
      </trkpt>
      <trkpt lat="44.69077" lon="6.85384">
        <ele>2040.1</ele>
        <time>2026-03-25T09:31:06Z</time>
      </trkpt>
      <trkpt lat="44.69077" lon="6.85384">
        <ele>2040.1</ele>
        <time>2026-03-25T09:31:07Z</time>
      </trkpt>
      <trkpt lat="44.69076" lon="6.85384">
        <ele>2040.2</ele>
        <time>2026-03-25T09:31:08Z</time>
      </trkpt>
      <trkpt lat="44.69076" lon="6.85385">
        <ele>2040.3</ele>
        <time>2026-03-25T09:31:09Z</time>
      </trkpt>
      <trkpt lat="44.69075" lon="6.85385">
        <ele>2040.4</ele>
        <time>2026-03-25T09:31:10Z</time>
      </trkpt>
      <trkpt lat="44.69075" lon="6.85385">
        <ele>2040.4</ele>
        <time>2026-03-25T09:31:11Z</time>
      </trkpt>
      <trkpt lat="44.69075" lon="6.85385">
        <ele>2040.5</ele>
        <time>2026-03-25T09:31:12Z</time>
      </trkpt>
      <trkpt lat="44.69074" lon="6.85385">
        <ele>2040.6</ele>
        <time>2026-03-25T09:31:13Z</time>
      </trkpt>
      <trkpt lat="44.69074" lon="6.85386">
        <ele>2040.7</ele>
        <time>2026-03-25T09:31:14Z</time>
      </trkpt>
      <trkpt lat="44.69073" lon="6.85386">
        <ele>2040.8</ele>
        <time>2026-03-25T09:31:15Z</time>
      </trkpt>
      <trkpt lat="44.69073" lon="6.85387">
        <ele>2040.8</ele>
        <time>2026-03-25T09:31:16Z</time>
      </trkpt>
      <trkpt lat="44.69073" lon="6.85387">
        <ele>2040.9</ele>
        <time>2026-03-25T09:31:17Z</time>
      </trkpt>
      <trkpt lat="44.69072" lon="6.85388">
        <ele>2041</ele>
        <time>2026-03-25T09:31:18Z</time>
      </trkpt>
      <trkpt lat="44.69072" lon="6.85388">
        <ele>2041.1</ele>
        <time>2026-03-25T09:31:19Z</time>
      </trkpt>
      <trkpt lat="44.69072" lon="6.85389">
        <ele>2041.1</ele>
        <time>2026-03-25T09:31:20Z</time>
      </trkpt>
      <trkpt lat="44.69072" lon="6.85389">
        <ele>2041.2</ele>
        <time>2026-03-25T09:31:21Z</time>
      </trkpt>
      <trkpt lat="44.69071" lon="6.8539">
        <ele>2041.4</ele>
        <time>2026-03-25T09:31:22Z</time>
      </trkpt>
      <trkpt lat="44.69071" lon="6.85391">
        <ele>2041.4</ele>
        <time>2026-03-25T09:31:23Z</time>
      </trkpt>
      <trkpt lat="44.6907" lon="6.85391">
        <ele>2041.5</ele>
        <time>2026-03-25T09:31:24Z</time>
      </trkpt>
      <trkpt lat="44.6907" lon="6.85392">
        <ele>2041.6</ele>
        <time>2026-03-25T09:31:25Z</time>
      </trkpt>
      <trkpt lat="44.6907" lon="6.85392">
        <ele>2041.7</ele>
        <time>2026-03-25T09:31:26Z</time>
      </trkpt>
      <trkpt lat="44.6907" lon="6.85393">
        <ele>2041.7</ele>
        <time>2026-03-25T09:31:27Z</time>
      </trkpt>
      <trkpt lat="44.69069" lon="6.85393">
        <ele>2041.8</ele>
        <time>2026-03-25T09:31:29Z</time>
      </trkpt>
      <trkpt lat="44.69069" lon="6.85394">
        <ele>2041.9</ele>
        <time>2026-03-25T09:31:30Z</time>
      </trkpt>
      <trkpt lat="44.69068" lon="6.85395">
        <ele>2042</ele>
        <time>2026-03-25T09:31:31Z</time>
      </trkpt>
      <trkpt lat="44.69068" lon="6.85395">
        <ele>2042.1</ele>
        <time>2026-03-25T09:31:32Z</time>
      </trkpt>
      <trkpt lat="44.69067" lon="6.85395">
        <ele>2042.2</ele>
        <time>2026-03-25T09:31:33Z</time>
      </trkpt>
      <trkpt lat="44.69067" lon="6.85396">
        <ele>2042.2</ele>
        <time>2026-03-25T09:31:34Z</time>
      </trkpt>
      <trkpt lat="44.69067" lon="6.85396">
        <ele>2042.2</ele>
        <time>2026-03-25T09:31:35Z</time>
      </trkpt>
      <trkpt lat="44.69067" lon="6.85396">
        <ele>2042.2</ele>
        <time>2026-03-25T09:31:36Z</time>
      </trkpt>
      <trkpt lat="44.69067" lon="6.85396">
        <ele>2042.2</ele>
        <time>2026-03-25T09:31:37Z</time>
      </trkpt>
      <trkpt lat="44.69067" lon="6.85396">
        <ele>2042.3</ele>
        <time>2026-03-25T09:31:38Z</time>
      </trkpt>
      <trkpt lat="44.69067" lon="6.85396">
        <ele>2042.3</ele>
        <time>2026-03-25T09:31:39Z</time>
      </trkpt>
      <trkpt lat="44.69067" lon="6.85396">
        <ele>2042.3</ele>
        <time>2026-03-25T09:31:40Z</time>
      </trkpt>
      <trkpt lat="44.69067" lon="6.85396">
        <ele>2042.3</ele>
        <time>2026-03-25T09:31:41Z</time>
      </trkpt>
      <trkpt lat="44.69067" lon="6.85396">
        <ele>2042.3</ele>
        <time>2026-03-25T09:31:42Z</time>
      </trkpt>
      <trkpt lat="44.69067" lon="6.85396">
        <ele>2042.3</ele>
        <time>2026-03-25T09:31:43Z</time>
      </trkpt>
      <trkpt lat="44.69066" lon="6.85396">
        <ele>2042.4</ele>
        <time>2026-03-25T09:31:44Z</time>
      </trkpt>
      <trkpt lat="44.69066" lon="6.85396">
        <ele>2042.4</ele>
        <time>2026-03-25T09:31:45Z</time>
      </trkpt>
      <trkpt lat="44.69066" lon="6.85397">
        <ele>2042.5</ele>
        <time>2026-03-25T09:31:46Z</time>
      </trkpt>
      <trkpt lat="44.69065" lon="6.85398">
        <ele>2042.6</ele>
        <time>2026-03-25T09:31:47Z</time>
      </trkpt>
      <trkpt lat="44.69065" lon="6.85399">
        <ele>2042.7</ele>
        <time>2026-03-25T09:31:48Z</time>
      </trkpt>
      <trkpt lat="44.69064" lon="6.854">
        <ele>2042.9</ele>
        <time>2026-03-25T09:31:49Z</time>
      </trkpt>
      <trkpt lat="44.69063" lon="6.85401">
        <ele>2043</ele>
        <time>2026-03-25T09:31:50Z</time>
      </trkpt>
      <trkpt lat="44.69063" lon="6.85402">
        <ele>2043.1</ele>
        <time>2026-03-25T09:31:51Z</time>
      </trkpt>
      <trkpt lat="44.69062" lon="6.85402">
        <ele>2043.2</ele>
        <time>2026-03-25T09:31:52Z</time>
      </trkpt>
      <trkpt lat="44.69062" lon="6.85403">
        <ele>2043.3</ele>
        <time>2026-03-25T09:31:53Z</time>
      </trkpt>
      <trkpt lat="44.69062" lon="6.85403">
        <ele>2043.3</ele>
        <time>2026-03-25T09:31:54Z</time>
      </trkpt>
      <trkpt lat="44.69061" lon="6.85404">
        <ele>2043.4</ele>
        <time>2026-03-25T09:31:55Z</time>
      </trkpt>
      <trkpt lat="44.69061" lon="6.85404">
        <ele>2043.5</ele>
        <time>2026-03-25T09:31:56Z</time>
      </trkpt>
      <trkpt lat="44.69061" lon="6.85404">
        <ele>2043.5</ele>
        <time>2026-03-25T09:31:57Z</time>
      </trkpt>
      <trkpt lat="44.6906" lon="6.85405">
        <ele>2043.6</ele>
        <time>2026-03-25T09:31:58Z</time>
      </trkpt>
      <trkpt lat="44.6906" lon="6.85406">
        <ele>2043.6</ele>
        <time>2026-03-25T09:31:59Z</time>
      </trkpt>
      <trkpt lat="44.6906" lon="6.85406">
        <ele>2043.7</ele>
        <time>2026-03-25T09:32:00Z</time>
      </trkpt>
      <trkpt lat="44.69059" lon="6.85407">
        <ele>2043.8</ele>
        <time>2026-03-25T09:32:01Z</time>
      </trkpt>
      <trkpt lat="44.69059" lon="6.85407">
        <ele>2043.9</ele>
        <time>2026-03-25T09:32:02Z</time>
      </trkpt>
      <trkpt lat="44.69059" lon="6.85408">
        <ele>2043.9</ele>
        <time>2026-03-25T09:32:03Z</time>
      </trkpt>
      <trkpt lat="44.69058" lon="6.85409">
        <ele>2044</ele>
        <time>2026-03-25T09:32:05Z</time>
      </trkpt>
      <trkpt lat="44.69058" lon="6.85409">
        <ele>2044</ele>
        <time>2026-03-25T09:32:06Z</time>
      </trkpt>
      <trkpt lat="44.69059" lon="6.85409">
        <ele>2044.1</ele>
        <time>2026-03-25T09:32:07Z</time>
      </trkpt>
      <trkpt lat="44.69059" lon="6.85409">
        <ele>2044.1</ele>
        <time>2026-03-25T09:32:08Z</time>
      </trkpt>
      <trkpt lat="44.69059" lon="6.85409">
        <ele>2044.1</ele>
        <time>2026-03-25T09:32:09Z</time>
      </trkpt>
      <trkpt lat="44.69059" lon="6.85409">
        <ele>2044.1</ele>
        <time>2026-03-25T09:32:10Z</time>
      </trkpt>
      <trkpt lat="44.69059" lon="6.8541">
        <ele>2044.2</ele>
        <time>2026-03-25T09:32:11Z</time>
      </trkpt>
      <trkpt lat="44.69059" lon="6.8541">
        <ele>2044.2</ele>
        <time>2026-03-25T09:32:12Z</time>
      </trkpt>
      <trkpt lat="44.69058" lon="6.85411">
        <ele>2044.3</ele>
        <time>2026-03-25T09:32:13Z</time>
      </trkpt>
      <trkpt lat="44.69058" lon="6.85411">
        <ele>2044.4</ele>
        <time>2026-03-25T09:32:14Z</time>
      </trkpt>
      <trkpt lat="44.69058" lon="6.85412">
        <ele>2044.4</ele>
        <time>2026-03-25T09:32:15Z</time>
      </trkpt>
      <trkpt lat="44.69057" lon="6.85412">
        <ele>2044.5</ele>
        <time>2026-03-25T09:32:16Z</time>
      </trkpt>
      <trkpt lat="44.69057" lon="6.85412">
        <ele>2044.5</ele>
        <time>2026-03-25T09:32:17Z</time>
      </trkpt>
      <trkpt lat="44.69057" lon="6.85412">
        <ele>2044.5</ele>
        <time>2026-03-25T09:32:18Z</time>
      </trkpt>
      <trkpt lat="44.69057" lon="6.85412">
        <ele>2044.5</ele>
        <time>2026-03-25T09:32:19Z</time>
      </trkpt>
      <trkpt lat="44.69057" lon="6.85412">
        <ele>2044.6</ele>
        <time>2026-03-25T09:32:20Z</time>
      </trkpt>
      <trkpt lat="44.69056" lon="6.85412">
        <ele>2044.6</ele>
        <time>2026-03-25T09:32:21Z</time>
      </trkpt>
      <trkpt lat="44.69056" lon="6.85413">
        <ele>2044.6</ele>
        <time>2026-03-25T09:32:22Z</time>
      </trkpt>
      <trkpt lat="44.69056" lon="6.85413">
        <ele>2044.7</ele>
        <time>2026-03-25T09:32:23Z</time>
      </trkpt>
      <trkpt lat="44.69055" lon="6.85413">
        <ele>2044.7</ele>
        <time>2026-03-25T09:32:24Z</time>
      </trkpt>
      <trkpt lat="44.69055" lon="6.85414">
        <ele>2044.8</ele>
        <time>2026-03-25T09:32:25Z</time>
      </trkpt>
      <trkpt lat="44.69054" lon="6.85415">
        <ele>2044.9</ele>
        <time>2026-03-25T09:32:26Z</time>
      </trkpt>
      <trkpt lat="44.69054" lon="6.85416">
        <ele>2045</ele>
        <time>2026-03-25T09:32:27Z</time>
      </trkpt>
      <trkpt lat="44.69053" lon="6.85416">
        <ele>2045.1</ele>
        <time>2026-03-25T09:32:28Z</time>
      </trkpt>
      <trkpt lat="44.69053" lon="6.85417">
        <ele>2045.2</ele>
        <time>2026-03-25T09:32:29Z</time>
      </trkpt>
      <trkpt lat="44.69052" lon="6.85418">
        <ele>2045.3</ele>
        <time>2026-03-25T09:32:30Z</time>
      </trkpt>
      <trkpt lat="44.69052" lon="6.85418">
        <ele>2045.3</ele>
        <time>2026-03-25T09:32:31Z</time>
      </trkpt>
      <trkpt lat="44.69052" lon="6.85419">
        <ele>2045.4</ele>
        <time>2026-03-25T09:32:32Z</time>
      </trkpt>
      <trkpt lat="44.69052" lon="6.85419">
        <ele>2045.4</ele>
        <time>2026-03-25T09:32:33Z</time>
      </trkpt>
      <trkpt lat="44.69052" lon="6.8542">
        <ele>2045.5</ele>
        <time>2026-03-25T09:32:34Z</time>
      </trkpt>
      <trkpt lat="44.69051" lon="6.85421">
        <ele>2045.6</ele>
        <time>2026-03-25T09:32:35Z</time>
      </trkpt>
      <trkpt lat="44.6905" lon="6.85421">
        <ele>2045.7</ele>
        <time>2026-03-25T09:32:36Z</time>
      </trkpt>
      <trkpt lat="44.6905" lon="6.85422">
        <ele>2045.7</ele>
        <time>2026-03-25T09:32:37Z</time>
      </trkpt>
      <trkpt lat="44.6905" lon="6.85422">
        <ele>2045.8</ele>
        <time>2026-03-25T09:32:38Z</time>
      </trkpt>
      <trkpt lat="44.69049" lon="6.85422">
        <ele>2045.8</ele>
        <time>2026-03-25T09:32:39Z</time>
      </trkpt>
      <trkpt lat="44.69049" lon="6.85422">
        <ele>2045.9</ele>
        <time>2026-03-25T09:32:40Z</time>
      </trkpt>
      <trkpt lat="44.69049" lon="6.85422">
        <ele>2045.9</ele>
        <time>2026-03-25T09:32:41Z</time>
      </trkpt>
      <trkpt lat="44.69049" lon="6.85422">
        <ele>2045.9</ele>
        <time>2026-03-25T09:32:42Z</time>
      </trkpt>
      <trkpt lat="44.69048" lon="6.85422">
        <ele>2046</ele>
        <time>2026-03-25T09:32:43Z</time>
      </trkpt>
      <trkpt lat="44.69048" lon="6.85423">
        <ele>2046.1</ele>
        <time>2026-03-25T09:32:44Z</time>
      </trkpt>
      <trkpt lat="44.69047" lon="6.85423">
        <ele>2046.1</ele>
        <time>2026-03-25T09:32:45Z</time>
      </trkpt>
      <trkpt lat="44.69047" lon="6.85423">
        <ele>2046.1</ele>
        <time>2026-03-25T09:32:47Z</time>
      </trkpt>
      <trkpt lat="44.69046" lon="6.85424">
        <ele>2046.3</ele>
        <time>2026-03-25T09:32:48Z</time>
      </trkpt>
      <trkpt lat="44.69046" lon="6.85424">
        <ele>2046.4</ele>
        <time>2026-03-25T09:32:50Z</time>
      </trkpt>
      <trkpt lat="44.69044" lon="6.85425">
        <ele>2046.5</ele>
        <time>2026-03-25T09:32:51Z</time>
      </trkpt>
      <trkpt lat="44.69044" lon="6.85425">
        <ele>2046.6</ele>
        <time>2026-03-25T09:32:52Z</time>
      </trkpt>
      <trkpt lat="44.69044" lon="6.85425">
        <ele>2046.7</ele>
        <time>2026-03-25T09:32:54Z</time>
      </trkpt>
      <trkpt lat="44.69043" lon="6.85426">
        <ele>2046.7</ele>
        <time>2026-03-25T09:32:55Z</time>
      </trkpt>
      <trkpt lat="44.69043" lon="6.85426">
        <ele>2046.8</ele>
        <time>2026-03-25T09:32:56Z</time>
      </trkpt>
      <trkpt lat="44.69043" lon="6.85427">
        <ele>2046.9</ele>
        <time>2026-03-25T09:32:57Z</time>
      </trkpt>
      <trkpt lat="44.69042" lon="6.85427">
        <ele>2046.9</ele>
        <time>2026-03-25T09:32:58Z</time>
      </trkpt>
      <trkpt lat="44.69042" lon="6.85427">
        <ele>2047</ele>
        <time>2026-03-25T09:32:59Z</time>
      </trkpt>
      <trkpt lat="44.69042" lon="6.85428">
        <ele>2047.1</ele>
        <time>2026-03-25T09:33:00Z</time>
      </trkpt>
      <trkpt lat="44.69041" lon="6.85428">
        <ele>2047.1</ele>
        <time>2026-03-25T09:33:01Z</time>
      </trkpt>
      <trkpt lat="44.6904" lon="6.85428">
        <ele>2047.2</ele>
        <time>2026-03-25T09:33:02Z</time>
      </trkpt>
      <trkpt lat="44.6904" lon="6.85428">
        <ele>2047.3</ele>
        <time>2026-03-25T09:33:03Z</time>
      </trkpt>
      <trkpt lat="44.6904" lon="6.85428">
        <ele>2047.4</ele>
        <time>2026-03-25T09:33:04Z</time>
      </trkpt>
      <trkpt lat="44.69039" lon="6.85428">
        <ele>2047.4</ele>
        <time>2026-03-25T09:33:05Z</time>
      </trkpt>
      <trkpt lat="44.69039" lon="6.85428">
        <ele>2047.5</ele>
        <time>2026-03-25T09:33:06Z</time>
      </trkpt>
      <trkpt lat="44.69039" lon="6.85428">
        <ele>2047.5</ele>
        <time>2026-03-25T09:33:07Z</time>
      </trkpt>
      <trkpt lat="44.69038" lon="6.85428">
        <ele>2047.6</ele>
        <time>2026-03-25T09:33:08Z</time>
      </trkpt>
      <trkpt lat="44.69038" lon="6.85429">
        <ele>2047.6</ele>
        <time>2026-03-25T09:33:09Z</time>
      </trkpt>
      <trkpt lat="44.69037" lon="6.85429">
        <ele>2047.7</ele>
        <time>2026-03-25T09:33:10Z</time>
      </trkpt>
      <trkpt lat="44.69037" lon="6.85429">
        <ele>2047.8</ele>
        <time>2026-03-25T09:33:11Z</time>
      </trkpt>
      <trkpt lat="44.69037" lon="6.8543">
        <ele>2047.8</ele>
        <time>2026-03-25T09:33:12Z</time>
      </trkpt>
      <trkpt lat="44.69036" lon="6.8543">
        <ele>2047.9</ele>
        <time>2026-03-25T09:33:13Z</time>
      </trkpt>
      <trkpt lat="44.69036" lon="6.85431">
        <ele>2048</ele>
        <time>2026-03-25T09:33:14Z</time>
      </trkpt>
      <trkpt lat="44.69036" lon="6.85431">
        <ele>2048</ele>
        <time>2026-03-25T09:33:15Z</time>
      </trkpt>
      <trkpt lat="44.69035" lon="6.85431">
        <ele>2048.1</ele>
        <time>2026-03-25T09:33:16Z</time>
      </trkpt>
      <trkpt lat="44.69035" lon="6.85432">
        <ele>2048.2</ele>
        <time>2026-03-25T09:33:17Z</time>
      </trkpt>
      <trkpt lat="44.69034" lon="6.85432">
        <ele>2048.3</ele>
        <time>2026-03-25T09:33:18Z</time>
      </trkpt>
      <trkpt lat="44.69034" lon="6.85432">
        <ele>2048.3</ele>
        <time>2026-03-25T09:33:19Z</time>
      </trkpt>
      <trkpt lat="44.69034" lon="6.85433">
        <ele>2048.4</ele>
        <time>2026-03-25T09:33:20Z</time>
      </trkpt>
      <trkpt lat="44.69033" lon="6.85433">
        <ele>2048.4</ele>
        <time>2026-03-25T09:33:21Z</time>
      </trkpt>
      <trkpt lat="44.69033" lon="6.85433">
        <ele>2048.5</ele>
        <time>2026-03-25T09:33:22Z</time>
      </trkpt>
      <trkpt lat="44.69032" lon="6.85434">
        <ele>2048.6</ele>
        <time>2026-03-25T09:33:23Z</time>
      </trkpt>
      <trkpt lat="44.69032" lon="6.85434">
        <ele>2048.6</ele>
        <time>2026-03-25T09:33:24Z</time>
      </trkpt>
      <trkpt lat="44.69032" lon="6.85434">
        <ele>2048.7</ele>
        <time>2026-03-25T09:33:25Z</time>
      </trkpt>
      <trkpt lat="44.69031" lon="6.85434">
        <ele>2048.7</ele>
        <time>2026-03-25T09:33:26Z</time>
      </trkpt>
      <trkpt lat="44.69031" lon="6.85435">
        <ele>2048.8</ele>
        <time>2026-03-25T09:33:27Z</time>
      </trkpt>
      <trkpt lat="44.6903" lon="6.85435">
        <ele>2048.9</ele>
        <time>2026-03-25T09:33:28Z</time>
      </trkpt>
      <trkpt lat="44.6903" lon="6.85436">
        <ele>2049</ele>
        <time>2026-03-25T09:33:29Z</time>
      </trkpt>
      <trkpt lat="44.69029" lon="6.85436">
        <ele>2049.2</ele>
        <time>2026-03-25T09:33:30Z</time>
      </trkpt>
      <trkpt lat="44.69028" lon="6.85437">
        <ele>2049.3</ele>
        <time>2026-03-25T09:33:31Z</time>
      </trkpt>
      <trkpt lat="44.69028" lon="6.85437">
        <ele>2049.3</ele>
        <time>2026-03-25T09:33:33Z</time>
      </trkpt>
      <trkpt lat="44.69027" lon="6.85437">
        <ele>2049.4</ele>
        <time>2026-03-25T09:33:34Z</time>
      </trkpt>
      <trkpt lat="44.69027" lon="6.85438">
        <ele>2049.5</ele>
        <time>2026-03-25T09:33:35Z</time>
      </trkpt>
      <trkpt lat="44.69026" lon="6.85438">
        <ele>2049.6</ele>
        <time>2026-03-25T09:33:36Z</time>
      </trkpt>
      <trkpt lat="44.69026" lon="6.85438">
        <ele>2049.6</ele>
        <time>2026-03-25T09:33:37Z</time>
      </trkpt>
      <trkpt lat="44.69026" lon="6.85438">
        <ele>2049.7</ele>
        <time>2026-03-25T09:33:38Z</time>
      </trkpt>
      <trkpt lat="44.69026" lon="6.85439">
        <ele>2049.7</ele>
        <time>2026-03-25T09:33:39Z</time>
      </trkpt>
      <trkpt lat="44.69025" lon="6.85439">
        <ele>2049.7</ele>
        <time>2026-03-25T09:33:40Z</time>
      </trkpt>
      <trkpt lat="44.69025" lon="6.85439">
        <ele>2049.8</ele>
        <time>2026-03-25T09:33:41Z</time>
      </trkpt>
      <trkpt lat="44.69025" lon="6.85439">
        <ele>2049.8</ele>
        <time>2026-03-25T09:33:42Z</time>
      </trkpt>
      <trkpt lat="44.69025" lon="6.85439">
        <ele>2049.8</ele>
        <time>2026-03-25T09:33:43Z</time>
      </trkpt>
      <trkpt lat="44.69024" lon="6.8544">
        <ele>2049.9</ele>
        <time>2026-03-25T09:33:44Z</time>
      </trkpt>
      <trkpt lat="44.69024" lon="6.8544">
        <ele>2050</ele>
        <time>2026-03-25T09:33:45Z</time>
      </trkpt>
      <trkpt lat="44.69024" lon="6.85441">
        <ele>2050</ele>
        <time>2026-03-25T09:33:46Z</time>
      </trkpt>
      <trkpt lat="44.69023" lon="6.85441">
        <ele>2050.1</ele>
        <time>2026-03-25T09:33:47Z</time>
      </trkpt>
      <trkpt lat="44.69023" lon="6.85442">
        <ele>2050.2</ele>
        <time>2026-03-25T09:33:48Z</time>
      </trkpt>
      <trkpt lat="44.69023" lon="6.85442">
        <ele>2050.2</ele>
        <time>2026-03-25T09:33:49Z</time>
      </trkpt>
      <trkpt lat="44.69022" lon="6.85442">
        <ele>2050.3</ele>
        <time>2026-03-25T09:33:50Z</time>
      </trkpt>
      <trkpt lat="44.69022" lon="6.85443">
        <ele>2050.3</ele>
        <time>2026-03-25T09:33:51Z</time>
      </trkpt>
      <trkpt lat="44.69022" lon="6.85443">
        <ele>2050.4</ele>
        <time>2026-03-25T09:33:52Z</time>
      </trkpt>
      <trkpt lat="44.69021" lon="6.85443">
        <ele>2050.5</ele>
        <time>2026-03-25T09:33:53Z</time>
      </trkpt>
      <trkpt lat="44.69021" lon="6.85443">
        <ele>2050.5</ele>
        <time>2026-03-25T09:33:54Z</time>
      </trkpt>
      <trkpt lat="44.6902" lon="6.85443">
        <ele>2050.6</ele>
        <time>2026-03-25T09:33:55Z</time>
      </trkpt>
      <trkpt lat="44.6902" lon="6.85443">
        <ele>2050.7</ele>
        <time>2026-03-25T09:33:56Z</time>
      </trkpt>
      <trkpt lat="44.69019" lon="6.85444">
        <ele>2050.7</ele>
        <time>2026-03-25T09:33:57Z</time>
      </trkpt>
      <trkpt lat="44.69019" lon="6.85444">
        <ele>2050.8</ele>
        <time>2026-03-25T09:33:58Z</time>
      </trkpt>
      <trkpt lat="44.69018" lon="6.85444">
        <ele>2050.9</ele>
        <time>2026-03-25T09:33:59Z</time>
      </trkpt>
      <trkpt lat="44.69018" lon="6.85444">
        <ele>2051</ele>
        <time>2026-03-25T09:34:00Z</time>
      </trkpt>
      <trkpt lat="44.69017" lon="6.85445">
        <ele>2051</ele>
        <time>2026-03-25T09:34:01Z</time>
      </trkpt>
      <trkpt lat="44.69017" lon="6.85445">
        <ele>2051.1</ele>
        <time>2026-03-25T09:34:02Z</time>
      </trkpt>
      <trkpt lat="44.69017" lon="6.85446">
        <ele>2051.2</ele>
        <time>2026-03-25T09:34:03Z</time>
      </trkpt>
      <trkpt lat="44.69016" lon="6.85446">
        <ele>2051.2</ele>
        <time>2026-03-25T09:34:04Z</time>
      </trkpt>
      <trkpt lat="44.69016" lon="6.85446">
        <ele>2051.3</ele>
        <time>2026-03-25T09:34:05Z</time>
      </trkpt>
      <trkpt lat="44.69016" lon="6.85446">
        <ele>2051.3</ele>
        <time>2026-03-25T09:34:06Z</time>
      </trkpt>
      <trkpt lat="44.69015" lon="6.85447">
        <ele>2051.4</ele>
        <time>2026-03-25T09:34:07Z</time>
      </trkpt>
      <trkpt lat="44.69015" lon="6.85447">
        <ele>2051.5</ele>
        <time>2026-03-25T09:34:08Z</time>
      </trkpt>
      <trkpt lat="44.69015" lon="6.85447">
        <ele>2051.5</ele>
        <time>2026-03-25T09:34:09Z</time>
      </trkpt>
      <trkpt lat="44.69014" lon="6.85447">
        <ele>2051.5</ele>
        <time>2026-03-25T09:34:10Z</time>
      </trkpt>
      <trkpt lat="44.69014" lon="6.85448">
        <ele>2051.6</ele>
        <time>2026-03-25T09:34:11Z</time>
      </trkpt>
      <trkpt lat="44.69014" lon="6.85448">
        <ele>2051.6</ele>
        <time>2026-03-25T09:34:12Z</time>
      </trkpt>
      <trkpt lat="44.69014" lon="6.85448">
        <ele>2051.7</ele>
        <time>2026-03-25T09:34:13Z</time>
      </trkpt>
      <trkpt lat="44.69013" lon="6.85448">
        <ele>2051.7</ele>
        <time>2026-03-25T09:34:14Z</time>
      </trkpt>
      <trkpt lat="44.69013" lon="6.85449">
        <ele>2051.8</ele>
        <time>2026-03-25T09:34:15Z</time>
      </trkpt>
      <trkpt lat="44.69013" lon="6.85449">
        <ele>2051.9</ele>
        <time>2026-03-25T09:34:16Z</time>
      </trkpt>
      <trkpt lat="44.69012" lon="6.85449">
        <ele>2051.9</ele>
        <time>2026-03-25T09:34:17Z</time>
      </trkpt>
      <trkpt lat="44.69012" lon="6.8545">
        <ele>2052</ele>
        <time>2026-03-25T09:34:18Z</time>
      </trkpt>
      <trkpt lat="44.69011" lon="6.85451">
        <ele>2052.2</ele>
        <time>2026-03-25T09:34:19Z</time>
      </trkpt>
      <trkpt lat="44.6901" lon="6.85452">
        <ele>2052.4</ele>
        <time>2026-03-25T09:34:20Z</time>
      </trkpt>
      <trkpt lat="44.69009" lon="6.85452">
        <ele>2052.5</ele>
        <time>2026-03-25T09:34:21Z</time>
      </trkpt>
      <trkpt lat="44.69009" lon="6.85453">
        <ele>2052.5</ele>
        <time>2026-03-25T09:34:22Z</time>
      </trkpt>
      <trkpt lat="44.69009" lon="6.85454">
        <ele>2052.6</ele>
        <time>2026-03-25T09:34:23Z</time>
      </trkpt>
      <trkpt lat="44.69009" lon="6.85454">
        <ele>2052.7</ele>
        <time>2026-03-25T09:34:24Z</time>
      </trkpt>
      <trkpt lat="44.69008" lon="6.85455">
        <ele>2052.8</ele>
        <time>2026-03-25T09:34:25Z</time>
      </trkpt>
      <trkpt lat="44.69008" lon="6.85455">
        <ele>2052.8</ele>
        <time>2026-03-25T09:34:26Z</time>
      </trkpt>
      <trkpt lat="44.69008" lon="6.85455">
        <ele>2052.9</ele>
        <time>2026-03-25T09:34:27Z</time>
      </trkpt>
      <trkpt lat="44.69007" lon="6.85456">
        <ele>2053</ele>
        <time>2026-03-25T09:34:28Z</time>
      </trkpt>
      <trkpt lat="44.69007" lon="6.85456">
        <ele>2053.1</ele>
        <time>2026-03-25T09:34:29Z</time>
      </trkpt>
      <trkpt lat="44.69006" lon="6.85456">
        <ele>2053.2</ele>
        <time>2026-03-25T09:34:31Z</time>
      </trkpt>
      <trkpt lat="44.69006" lon="6.85457">
        <ele>2053.3</ele>
        <time>2026-03-25T09:34:32Z</time>
      </trkpt>
      <trkpt lat="44.69005" lon="6.85457">
        <ele>2053.3</ele>
        <time>2026-03-25T09:34:33Z</time>
      </trkpt>
      <trkpt lat="44.69004" lon="6.85457">
        <ele>2053.4</ele>
        <time>2026-03-25T09:34:34Z</time>
      </trkpt>
      <trkpt lat="44.69004" lon="6.85457">
        <ele>2053.5</ele>
        <time>2026-03-25T09:34:35Z</time>
      </trkpt>
      <trkpt lat="44.69003" lon="6.85457">
        <ele>2053.6</ele>
        <time>2026-03-25T09:34:36Z</time>
      </trkpt>
      <trkpt lat="44.69003" lon="6.85457">
        <ele>2053.7</ele>
        <time>2026-03-25T09:34:37Z</time>
      </trkpt>
      <trkpt lat="44.69002" lon="6.85457">
        <ele>2053.9</ele>
        <time>2026-03-25T09:34:38Z</time>
      </trkpt>
      <trkpt lat="44.69001" lon="6.85457">
        <ele>2054</ele>
        <time>2026-03-25T09:34:39Z</time>
      </trkpt>
      <trkpt lat="44.69001" lon="6.85457">
        <ele>2054.1</ele>
        <time>2026-03-25T09:34:40Z</time>
      </trkpt>
      <trkpt lat="44.69" lon="6.85457">
        <ele>2054.2</ele>
        <time>2026-03-25T09:34:41Z</time>
      </trkpt>
      <trkpt lat="44.68999" lon="6.85456">
        <ele>2054.3</ele>
        <time>2026-03-25T09:34:42Z</time>
      </trkpt>
      <trkpt lat="44.68998" lon="6.85456">
        <ele>2054.5</ele>
        <time>2026-03-25T09:34:43Z</time>
      </trkpt>
      <trkpt lat="44.68998" lon="6.85456">
        <ele>2054.6</ele>
        <time>2026-03-25T09:34:44Z</time>
      </trkpt>
      <trkpt lat="44.68999" lon="6.85456">
        <ele>2054.6</ele>
        <time>2026-03-25T09:34:46Z</time>
      </trkpt>
      <trkpt lat="44.68999" lon="6.85456">
        <ele>2054.7</ele>
        <time>2026-03-25T09:34:47Z</time>
      </trkpt>
      <trkpt lat="44.68999" lon="6.85456">
        <ele>2054.7</ele>
        <time>2026-03-25T09:34:48Z</time>
      </trkpt>
      <trkpt lat="44.68999" lon="6.85456">
        <ele>2054.7</ele>
        <time>2026-03-25T09:34:49Z</time>
      </trkpt>
      <trkpt lat="44.68999" lon="6.85456">
        <ele>2054.8</ele>
        <time>2026-03-25T09:34:50Z</time>
      </trkpt>
      <trkpt lat="44.68999" lon="6.85456">
        <ele>2054.8</ele>
        <time>2026-03-25T09:34:51Z</time>
      </trkpt>
      <trkpt lat="44.68999" lon="6.85456">
        <ele>2054.8</ele>
        <time>2026-03-25T09:34:52Z</time>
      </trkpt>
      <trkpt lat="44.68999" lon="6.85456">
        <ele>2054.8</ele>
        <time>2026-03-25T09:34:53Z</time>
      </trkpt>
      <trkpt lat="44.68999" lon="6.85456">
        <ele>2054.8</ele>
        <time>2026-03-25T09:34:54Z</time>
      </trkpt>
      <trkpt lat="44.68999" lon="6.85456">
        <ele>2054.8</ele>
        <time>2026-03-25T09:34:55Z</time>
      </trkpt>
      <trkpt lat="44.68999" lon="6.85456">
        <ele>2054.8</ele>
        <time>2026-03-25T09:34:56Z</time>
      </trkpt>
      <trkpt lat="44.68999" lon="6.85456">
        <ele>2054.8</ele>
        <time>2026-03-25T09:34:57Z</time>
      </trkpt>
      <trkpt lat="44.69" lon="6.85456">
        <ele>2054.9</ele>
        <time>2026-03-25T09:34:58Z</time>
      </trkpt>
      <trkpt lat="44.69" lon="6.85456">
        <ele>2054.9</ele>
        <time>2026-03-25T09:34:59Z</time>
      </trkpt>
      <trkpt lat="44.68999" lon="6.85456">
        <ele>2054.9</ele>
        <time>2026-03-25T09:35:00Z</time>
      </trkpt>
      <trkpt lat="44.68999" lon="6.85456">
        <ele>2054.9</ele>
        <time>2026-03-25T09:35:01Z</time>
      </trkpt>
      <trkpt lat="44.68999" lon="6.85456">
        <ele>2054.9</ele>
        <time>2026-03-25T09:35:02Z</time>
      </trkpt>
      <trkpt lat="44.68999" lon="6.85456">
        <ele>2054.9</ele>
        <time>2026-03-25T09:35:03Z</time>
      </trkpt>
      <trkpt lat="44.68999" lon="6.85456">
        <ele>2054.9</ele>
        <time>2026-03-25T09:35:04Z</time>
      </trkpt>
      <trkpt lat="44.68999" lon="6.85456">
        <ele>2055</ele>
        <time>2026-03-25T09:35:05Z</time>
      </trkpt>
      <trkpt lat="44.68999" lon="6.85456">
        <ele>2055</ele>
        <time>2026-03-25T09:35:06Z</time>
      </trkpt>
      <trkpt lat="44.68999" lon="6.85456">
        <ele>2055</ele>
        <time>2026-03-25T09:35:07Z</time>
      </trkpt>
      <trkpt lat="44.68999" lon="6.85456">
        <ele>2055</ele>
        <time>2026-03-25T09:35:08Z</time>
      </trkpt>
      <trkpt lat="44.68999" lon="6.85456">
        <ele>2055</ele>
        <time>2026-03-25T09:35:10Z</time>
      </trkpt>
      <trkpt lat="44.68999" lon="6.85456">
        <ele>2055</ele>
        <time>2026-03-25T09:35:11Z</time>
      </trkpt>
      <trkpt lat="44.68999" lon="6.85456">
        <ele>2055</ele>
        <time>2026-03-25T09:35:12Z</time>
      </trkpt>
      <trkpt lat="44.68999" lon="6.85456">
        <ele>2055</ele>
        <time>2026-03-25T09:35:13Z</time>
      </trkpt>
      <trkpt lat="44.68999" lon="6.85456">
        <ele>2055</ele>
        <time>2026-03-25T09:35:14Z</time>
      </trkpt>
      <trkpt lat="44.68999" lon="6.85456">
        <ele>2055</ele>
        <time>2026-03-25T09:35:15Z</time>
      </trkpt>
      <trkpt lat="44.68999" lon="6.85456">
        <ele>2055</ele>
        <time>2026-03-25T09:35:16Z</time>
      </trkpt>
      <trkpt lat="44.68999" lon="6.85456">
        <ele>2055</ele>
        <time>2026-03-25T09:35:17Z</time>
      </trkpt>
      <trkpt lat="44.68999" lon="6.85456">
        <ele>2055</ele>
        <time>2026-03-25T09:35:18Z</time>
      </trkpt>
      <trkpt lat="44.68999" lon="6.85456">
        <ele>2055.1</ele>
        <time>2026-03-25T09:35:19Z</time>
      </trkpt>
      <trkpt lat="44.68999" lon="6.85456">
        <ele>2055.1</ele>
        <time>2026-03-25T09:35:20Z</time>
      </trkpt>
      <trkpt lat="44.68999" lon="6.85456">
        <ele>2055.1</ele>
        <time>2026-03-25T09:35:21Z</time>
      </trkpt>
      <trkpt lat="44.69" lon="6.85456">
        <ele>2055.1</ele>
        <time>2026-03-25T09:35:22Z</time>
      </trkpt>
      <trkpt lat="44.69" lon="6.85456">
        <ele>2055.1</ele>
        <time>2026-03-25T09:35:23Z</time>
      </trkpt>
      <trkpt lat="44.69" lon="6.85456">
        <ele>2055.2</ele>
        <time>2026-03-25T09:35:24Z</time>
      </trkpt>
      <trkpt lat="44.69" lon="6.85456">
        <ele>2055.2</ele>
        <time>2026-03-25T09:35:25Z</time>
      </trkpt>
      <trkpt lat="44.69" lon="6.85456">
        <ele>2055.2</ele>
        <time>2026-03-25T09:35:26Z</time>
      </trkpt>
      <trkpt lat="44.69" lon="6.85456">
        <ele>2055.2</ele>
        <time>2026-03-25T09:35:27Z</time>
      </trkpt>
      <trkpt lat="44.69" lon="6.85456">
        <ele>2055.2</ele>
        <time>2026-03-25T09:35:28Z</time>
      </trkpt>
      <trkpt lat="44.69" lon="6.85456">
        <ele>2055.2</ele>
        <time>2026-03-25T09:35:29Z</time>
      </trkpt>
      <trkpt lat="44.69" lon="6.85456">
        <ele>2055.2</ele>
        <time>2026-03-25T09:35:30Z</time>
      </trkpt>
      <trkpt lat="44.69" lon="6.85456">
        <ele>2055.2</ele>
        <time>2026-03-25T09:35:31Z</time>
      </trkpt>
      <trkpt lat="44.69" lon="6.85456">
        <ele>2055.2</ele>
        <time>2026-03-25T09:35:32Z</time>
      </trkpt>
      <trkpt lat="44.69" lon="6.85456">
        <ele>2055.3</ele>
        <time>2026-03-25T09:35:33Z</time>
      </trkpt>
      <trkpt lat="44.69" lon="6.85456">
        <ele>2055.3</ele>
        <time>2026-03-25T09:35:34Z</time>
      </trkpt>
      <trkpt lat="44.69" lon="6.85456">
        <ele>2055.3</ele>
        <time>2026-03-25T09:35:35Z</time>
      </trkpt>
      <trkpt lat="44.69" lon="6.85456">
        <ele>2055.3</ele>
        <time>2026-03-25T09:35:36Z</time>
      </trkpt>
      <trkpt lat="44.69" lon="6.85456">
        <ele>2055.3</ele>
        <time>2026-03-25T09:35:37Z</time>
      </trkpt>
      <trkpt lat="44.69" lon="6.85456">
        <ele>2055.3</ele>
        <time>2026-03-25T09:35:38Z</time>
      </trkpt>
      <trkpt lat="44.69" lon="6.85456">
        <ele>2055.3</ele>
        <time>2026-03-25T09:35:39Z</time>
      </trkpt>
      <trkpt lat="44.69" lon="6.85456">
        <ele>2055.3</ele>
        <time>2026-03-25T09:35:40Z</time>
      </trkpt>
      <trkpt lat="44.69" lon="6.85456">
        <ele>2055.3</ele>
        <time>2026-03-25T09:35:41Z</time>
      </trkpt>
      <trkpt lat="44.69" lon="6.85456">
        <ele>2055.3</ele>
        <time>2026-03-25T09:35:42Z</time>
      </trkpt>
      <trkpt lat="44.69" lon="6.85456">
        <ele>2055.3</ele>
        <time>2026-03-25T09:35:43Z</time>
      </trkpt>
      <trkpt lat="44.69" lon="6.85456">
        <ele>2055.3</ele>
        <time>2026-03-25T09:35:44Z</time>
      </trkpt>
      <trkpt lat="44.69" lon="6.85456">
        <ele>2055.3</ele>
        <time>2026-03-25T09:35:45Z</time>
      </trkpt>
      <trkpt lat="44.69" lon="6.85456">
        <ele>2055.3</ele>
        <time>2026-03-25T09:35:46Z</time>
      </trkpt>
      <trkpt lat="44.69" lon="6.85456">
        <ele>2055.3</ele>
        <time>2026-03-25T09:35:47Z</time>
      </trkpt>
      <trkpt lat="44.69" lon="6.85456">
        <ele>2055.3</ele>
        <time>2026-03-25T09:35:48Z</time>
      </trkpt>
      <trkpt lat="44.69" lon="6.85456">
        <ele>2055.3</ele>
        <time>2026-03-25T09:35:49Z</time>
      </trkpt>
      <trkpt lat="44.69" lon="6.85456">
        <ele>2055.3</ele>
        <time>2026-03-25T09:35:50Z</time>
      </trkpt>
      <trkpt lat="44.69" lon="6.85456">
        <ele>2055.3</ele>
        <time>2026-03-25T09:35:51Z</time>
      </trkpt>
      <trkpt lat="44.69" lon="6.85456">
        <ele>2055.3</ele>
        <time>2026-03-25T09:35:52Z</time>
      </trkpt>
      <trkpt lat="44.69" lon="6.85456">
        <ele>2055.3</ele>
        <time>2026-03-25T09:35:53Z</time>
      </trkpt>
      <trkpt lat="44.69" lon="6.85456">
        <ele>2055.3</ele>
        <time>2026-03-25T09:35:54Z</time>
      </trkpt>
      <trkpt lat="44.69" lon="6.85456">
        <ele>2055.3</ele>
        <time>2026-03-25T09:35:55Z</time>
      </trkpt>
      <trkpt lat="44.69" lon="6.85456">
        <ele>2055.3</ele>
        <time>2026-03-25T09:35:56Z</time>
      </trkpt>
      <trkpt lat="44.69" lon="6.85456">
        <ele>2055.3</ele>
        <time>2026-03-25T09:35:57Z</time>
      </trkpt>
      <trkpt lat="44.69" lon="6.85456">
        <ele>2055.3</ele>
        <time>2026-03-25T09:35:58Z</time>
      </trkpt>
      <trkpt lat="44.69" lon="6.85456">
        <ele>2055.3</ele>
        <time>2026-03-25T09:35:59Z</time>
      </trkpt>
      <trkpt lat="44.69" lon="6.85456">
        <ele>2055.3</ele>
        <time>2026-03-25T09:36:00Z</time>
      </trkpt>
      <trkpt lat="44.69" lon="6.85456">
        <ele>2055.3</ele>
        <time>2026-03-25T09:36:01Z</time>
      </trkpt>
      <trkpt lat="44.69" lon="6.85456">
        <ele>2055.3</ele>
        <time>2026-03-25T09:36:02Z</time>
      </trkpt>
      <trkpt lat="44.69" lon="6.85456">
        <ele>2055.3</ele>
        <time>2026-03-25T09:36:03Z</time>
      </trkpt>
      <trkpt lat="44.69" lon="6.85456">
        <ele>2055.3</ele>
        <time>2026-03-25T09:36:04Z</time>
      </trkpt>
      <trkpt lat="44.69" lon="6.85456">
        <ele>2055.3</ele>
        <time>2026-03-25T09:36:05Z</time>
      </trkpt>
      <trkpt lat="44.69" lon="6.85456">
        <ele>2055.3</ele>
        <time>2026-03-25T09:36:06Z</time>
      </trkpt>
      <trkpt lat="44.69" lon="6.85456">
        <ele>2055.3</ele>
        <time>2026-03-25T09:36:07Z</time>
      </trkpt>
      <trkpt lat="44.69" lon="6.85456">
        <ele>2055.3</ele>
        <time>2026-03-25T09:36:08Z</time>
      </trkpt>
      <trkpt lat="44.69" lon="6.85456">
        <ele>2055.3</ele>
        <time>2026-03-25T09:36:09Z</time>
      </trkpt>
      <trkpt lat="44.69" lon="6.85456">
        <ele>2055.3</ele>
        <time>2026-03-25T09:36:10Z</time>
      </trkpt>
      <trkpt lat="44.69" lon="6.85456">
        <ele>2055.3</ele>
        <time>2026-03-25T09:36:11Z</time>
      </trkpt>
      <trkpt lat="44.69" lon="6.85456">
        <ele>2055.3</ele>
        <time>2026-03-25T09:36:12Z</time>
      </trkpt>
      <trkpt lat="44.69" lon="6.85456">
        <ele>2055.3</ele>
        <time>2026-03-25T09:36:13Z</time>
      </trkpt>
      <trkpt lat="44.69" lon="6.85456">
        <ele>2055.3</ele>
        <time>2026-03-25T09:36:14Z</time>
      </trkpt>
      <trkpt lat="44.69" lon="6.85456">
        <ele>2055.3</ele>
        <time>2026-03-25T09:36:15Z</time>
      </trkpt>
      <trkpt lat="44.69" lon="6.85456">
        <ele>2055.3</ele>
        <time>2026-03-25T09:36:16Z</time>
      </trkpt>
      <trkpt lat="44.69" lon="6.85456">
        <ele>2055.3</ele>
        <time>2026-03-25T09:36:17Z</time>
      </trkpt>
      <trkpt lat="44.68999" lon="6.85456">
        <ele>2055.4</ele>
        <time>2026-03-25T09:36:18Z</time>
      </trkpt>
      <trkpt lat="44.68999" lon="6.85456">
        <ele>2055.5</ele>
        <time>2026-03-25T09:36:19Z</time>
      </trkpt>
      <trkpt lat="44.68998" lon="6.85456">
        <ele>2055.7</ele>
        <time>2026-03-25T09:36:20Z</time>
      </trkpt>
      <trkpt lat="44.68997" lon="6.85456">
        <ele>2055.9</ele>
        <time>2026-03-25T09:36:21Z</time>
      </trkpt>
      <trkpt lat="44.68996" lon="6.85457">
        <ele>2056</ele>
        <time>2026-03-25T09:36:22Z</time>
      </trkpt>
      <trkpt lat="44.68996" lon="6.85458">
        <ele>2056.1</ele>
        <time>2026-03-25T09:36:23Z</time>
      </trkpt>
      <trkpt lat="44.68995" lon="6.85459">
        <ele>2056.3</ele>
        <time>2026-03-25T09:36:24Z</time>
      </trkpt>
      <trkpt lat="44.68994" lon="6.8546">
        <ele>2056.5</ele>
        <time>2026-03-25T09:36:25Z</time>
      </trkpt>
      <trkpt lat="44.68994" lon="6.8546">
        <ele>2056.6</ele>
        <time>2026-03-25T09:36:26Z</time>
      </trkpt>
      <trkpt lat="44.68993" lon="6.85461">
        <ele>2056.7</ele>
        <time>2026-03-25T09:36:27Z</time>
      </trkpt>
      <trkpt lat="44.68993" lon="6.85461">
        <ele>2056.8</ele>
        <time>2026-03-25T09:36:28Z</time>
      </trkpt>
      <trkpt lat="44.68992" lon="6.85462">
        <ele>2056.9</ele>
        <time>2026-03-25T09:36:29Z</time>
      </trkpt>
      <trkpt lat="44.68992" lon="6.85462">
        <ele>2057</ele>
        <time>2026-03-25T09:36:30Z</time>
      </trkpt>
      <trkpt lat="44.68992" lon="6.85462">
        <ele>2057.1</ele>
        <time>2026-03-25T09:36:31Z</time>
      </trkpt>
      <trkpt lat="44.68991" lon="6.85463">
        <ele>2057.2</ele>
        <time>2026-03-25T09:36:32Z</time>
      </trkpt>
      <trkpt lat="44.6899" lon="6.85463">
        <ele>2057.3</ele>
        <time>2026-03-25T09:36:33Z</time>
      </trkpt>
      <trkpt lat="44.6899" lon="6.85463">
        <ele>2057.4</ele>
        <time>2026-03-25T09:36:34Z</time>
      </trkpt>
      <trkpt lat="44.68989" lon="6.85463">
        <ele>2057.5</ele>
        <time>2026-03-25T09:36:35Z</time>
      </trkpt>
      <trkpt lat="44.68989" lon="6.85464">
        <ele>2057.6</ele>
        <time>2026-03-25T09:36:36Z</time>
      </trkpt>
      <trkpt lat="44.68988" lon="6.85464">
        <ele>2057.7</ele>
        <time>2026-03-25T09:36:37Z</time>
      </trkpt>
      <trkpt lat="44.68988" lon="6.85464">
        <ele>2057.8</ele>
        <time>2026-03-25T09:36:38Z</time>
      </trkpt>
      <trkpt lat="44.68987" lon="6.85464">
        <ele>2057.9</ele>
        <time>2026-03-25T09:36:39Z</time>
      </trkpt>
      <trkpt lat="44.68987" lon="6.85465">
        <ele>2058</ele>
        <time>2026-03-25T09:36:40Z</time>
      </trkpt>
      <trkpt lat="44.68986" lon="6.85465">
        <ele>2058.2</ele>
        <time>2026-03-25T09:36:41Z</time>
      </trkpt>
      <trkpt lat="44.68986" lon="6.85466">
        <ele>2058.3</ele>
        <time>2026-03-25T09:36:42Z</time>
      </trkpt>
      <trkpt lat="44.68985" lon="6.85467">
        <ele>2058.4</ele>
        <time>2026-03-25T09:36:43Z</time>
      </trkpt>
      <trkpt lat="44.68985" lon="6.85467">
        <ele>2058.6</ele>
        <time>2026-03-25T09:36:44Z</time>
      </trkpt>
      <trkpt lat="44.68984" lon="6.85468">
        <ele>2058.7</ele>
        <time>2026-03-25T09:36:45Z</time>
      </trkpt>
      <trkpt lat="44.68984" lon="6.85469">
        <ele>2058.8</ele>
        <time>2026-03-25T09:36:46Z</time>
      </trkpt>
      <trkpt lat="44.68983" lon="6.8547">
        <ele>2059</ele>
        <time>2026-03-25T09:36:47Z</time>
      </trkpt>
      <trkpt lat="44.68983" lon="6.8547">
        <ele>2059.1</ele>
        <time>2026-03-25T09:36:48Z</time>
      </trkpt>
      <trkpt lat="44.68982" lon="6.85471">
        <ele>2059.2</ele>
        <time>2026-03-25T09:36:49Z</time>
      </trkpt>
      <trkpt lat="44.68982" lon="6.85472">
        <ele>2059.3</ele>
        <time>2026-03-25T09:36:50Z</time>
      </trkpt>
      <trkpt lat="44.68981" lon="6.85473">
        <ele>2059.5</ele>
        <time>2026-03-25T09:36:51Z</time>
      </trkpt>
      <trkpt lat="44.68981" lon="6.85474">
        <ele>2059.7</ele>
        <time>2026-03-25T09:36:52Z</time>
      </trkpt>
      <trkpt lat="44.68981" lon="6.85475">
        <ele>2059.8</ele>
        <time>2026-03-25T09:36:53Z</time>
      </trkpt>
      <trkpt lat="44.68981" lon="6.85476">
        <ele>2059.9</ele>
        <time>2026-03-25T09:36:54Z</time>
      </trkpt>
      <trkpt lat="44.68981" lon="6.85477">
        <ele>2060.1</ele>
        <time>2026-03-25T09:36:55Z</time>
      </trkpt>
      <trkpt lat="44.68981" lon="6.85478">
        <ele>2060.2</ele>
        <time>2026-03-25T09:36:56Z</time>
      </trkpt>
      <trkpt lat="44.68981" lon="6.85478">
        <ele>2060.3</ele>
        <time>2026-03-25T09:36:57Z</time>
      </trkpt>
      <trkpt lat="44.68981" lon="6.85479">
        <ele>2060.3</ele>
        <time>2026-03-25T09:36:58Z</time>
      </trkpt>
      <trkpt lat="44.68981" lon="6.85479">
        <ele>2060.4</ele>
        <time>2026-03-25T09:36:59Z</time>
      </trkpt>
      <trkpt lat="44.68981" lon="6.8548">
        <ele>2060.5</ele>
        <time>2026-03-25T09:37:00Z</time>
      </trkpt>
      <trkpt lat="44.68981" lon="6.8548">
        <ele>2060.6</ele>
        <time>2026-03-25T09:37:01Z</time>
      </trkpt>
      <trkpt lat="44.68981" lon="6.85481">
        <ele>2060.6</ele>
        <time>2026-03-25T09:37:02Z</time>
      </trkpt>
      <trkpt lat="44.68981" lon="6.85481">
        <ele>2060.7</ele>
        <time>2026-03-25T09:37:03Z</time>
      </trkpt>
      <trkpt lat="44.6898" lon="6.85481">
        <ele>2060.8</ele>
        <time>2026-03-25T09:37:04Z</time>
      </trkpt>
      <trkpt lat="44.6898" lon="6.85482">
        <ele>2060.8</ele>
        <time>2026-03-25T09:37:05Z</time>
      </trkpt>
      <trkpt lat="44.6898" lon="6.85482">
        <ele>2060.9</ele>
        <time>2026-03-25T09:37:06Z</time>
      </trkpt>
      <trkpt lat="44.68979" lon="6.85482">
        <ele>2061</ele>
        <time>2026-03-25T09:37:07Z</time>
      </trkpt>
      <trkpt lat="44.68979" lon="6.85482">
        <ele>2061.1</ele>
        <time>2026-03-25T09:37:08Z</time>
      </trkpt>
      <trkpt lat="44.68978" lon="6.85482">
        <ele>2061.2</ele>
        <time>2026-03-25T09:37:09Z</time>
      </trkpt>
      <trkpt lat="44.68978" lon="6.85483">
        <ele>2061.3</ele>
        <time>2026-03-25T09:37:10Z</time>
      </trkpt>
      <trkpt lat="44.68977" lon="6.85482">
        <ele>2061.5</ele>
        <time>2026-03-25T09:37:11Z</time>
      </trkpt>
      <trkpt lat="44.68977" lon="6.85482">
        <ele>2061.5</ele>
        <time>2026-03-25T09:37:12Z</time>
      </trkpt>
      <trkpt lat="44.68976" lon="6.85482">
        <ele>2061.7</ele>
        <time>2026-03-25T09:37:13Z</time>
      </trkpt>
      <trkpt lat="44.68976" lon="6.85482">
        <ele>2061.7</ele>
        <time>2026-03-25T09:37:14Z</time>
      </trkpt>
      <trkpt lat="44.68975" lon="6.85482">
        <ele>2061.8</ele>
        <time>2026-03-25T09:37:15Z</time>
      </trkpt>
      <trkpt lat="44.68975" lon="6.85481">
        <ele>2061.9</ele>
        <time>2026-03-25T09:37:16Z</time>
      </trkpt>
      <trkpt lat="44.68975" lon="6.85481">
        <ele>2062</ele>
        <time>2026-03-25T09:37:17Z</time>
      </trkpt>
      <trkpt lat="44.68974" lon="6.85481">
        <ele>2062.1</ele>
        <time>2026-03-25T09:37:18Z</time>
      </trkpt>
      <trkpt lat="44.68974" lon="6.85481">
        <ele>2062.2</ele>
        <time>2026-03-25T09:37:19Z</time>
      </trkpt>
      <trkpt lat="44.68973" lon="6.85481">
        <ele>2062.4</ele>
        <time>2026-03-25T09:37:20Z</time>
      </trkpt>
      <trkpt lat="44.68972" lon="6.85482">
        <ele>2062.5</ele>
        <time>2026-03-25T09:37:21Z</time>
      </trkpt>
      <trkpt lat="44.68972" lon="6.85482">
        <ele>2062.7</ele>
        <time>2026-03-25T09:37:22Z</time>
      </trkpt>
      <trkpt lat="44.68971" lon="6.85482">
        <ele>2062.8</ele>
        <time>2026-03-25T09:37:23Z</time>
      </trkpt>
      <trkpt lat="44.68971" lon="6.85483">
        <ele>2062.9</ele>
        <time>2026-03-25T09:37:24Z</time>
      </trkpt>
      <trkpt lat="44.68971" lon="6.85484">
        <ele>2063</ele>
        <time>2026-03-25T09:37:25Z</time>
      </trkpt>
      <trkpt lat="44.6897" lon="6.85484">
        <ele>2063.1</ele>
        <time>2026-03-25T09:37:26Z</time>
      </trkpt>
      <trkpt lat="44.6897" lon="6.85484">
        <ele>2063.2</ele>
        <time>2026-03-25T09:37:27Z</time>
      </trkpt>
      <trkpt lat="44.6897" lon="6.85485">
        <ele>2063.3</ele>
        <time>2026-03-25T09:37:28Z</time>
      </trkpt>
      <trkpt lat="44.6897" lon="6.85486">
        <ele>2063.4</ele>
        <time>2026-03-25T09:37:29Z</time>
      </trkpt>
      <trkpt lat="44.68969" lon="6.85486">
        <ele>2063.5</ele>
        <time>2026-03-25T09:37:30Z</time>
      </trkpt>
      <trkpt lat="44.68969" lon="6.85487">
        <ele>2063.6</ele>
        <time>2026-03-25T09:37:31Z</time>
      </trkpt>
      <trkpt lat="44.68969" lon="6.85487">
        <ele>2063.8</ele>
        <time>2026-03-25T09:37:32Z</time>
      </trkpt>
      <trkpt lat="44.68968" lon="6.85488">
        <ele>2063.8</ele>
        <time>2026-03-25T09:37:33Z</time>
      </trkpt>
      <trkpt lat="44.68968" lon="6.85488">
        <ele>2063.9</ele>
        <time>2026-03-25T09:37:34Z</time>
      </trkpt>
      <trkpt lat="44.68968" lon="6.85489">
        <ele>2064.1</ele>
        <time>2026-03-25T09:37:35Z</time>
      </trkpt>
      <trkpt lat="44.68968" lon="6.85489">
        <ele>2064.2</ele>
        <time>2026-03-25T09:37:36Z</time>
      </trkpt>
      <trkpt lat="44.68967" lon="6.85489">
        <ele>2064.2</ele>
        <time>2026-03-25T09:37:37Z</time>
      </trkpt>
      <trkpt lat="44.68967" lon="6.8549">
        <ele>2064.4</ele>
        <time>2026-03-25T09:37:38Z</time>
      </trkpt>
      <trkpt lat="44.68967" lon="6.85491">
        <ele>2064.4</ele>
        <time>2026-03-25T09:37:39Z</time>
      </trkpt>
      <trkpt lat="44.68967" lon="6.85491">
        <ele>2064.5</ele>
        <time>2026-03-25T09:37:40Z</time>
      </trkpt>
      <trkpt lat="44.68967" lon="6.85491">
        <ele>2064.5</ele>
        <time>2026-03-25T09:37:41Z</time>
      </trkpt>
      <trkpt lat="44.68968" lon="6.85491">
        <ele>2064.6</ele>
        <time>2026-03-25T09:37:42Z</time>
      </trkpt>
      <trkpt lat="44.68967" lon="6.85491">
        <ele>2064.6</ele>
        <time>2026-03-25T09:37:43Z</time>
      </trkpt>
      <trkpt lat="44.68968" lon="6.85492">
        <ele>2064.7</ele>
        <time>2026-03-25T09:37:44Z</time>
      </trkpt>
      <trkpt lat="44.68968" lon="6.85492">
        <ele>2064.8</ele>
        <time>2026-03-25T09:37:45Z</time>
      </trkpt>
      <trkpt lat="44.68968" lon="6.85492">
        <ele>2064.8</ele>
        <time>2026-03-25T09:37:46Z</time>
      </trkpt>
      <trkpt lat="44.68968" lon="6.85492">
        <ele>2065</ele>
        <time>2026-03-25T09:37:47Z</time>
      </trkpt>
      <trkpt lat="44.68969" lon="6.85493">
        <ele>2065.1</ele>
        <time>2026-03-25T09:37:48Z</time>
      </trkpt>
      <trkpt lat="44.6897" lon="6.85494">
        <ele>2065.3</ele>
        <time>2026-03-25T09:37:49Z</time>
      </trkpt>
      <trkpt lat="44.68969" lon="6.85493">
        <ele>2065.4</ele>
        <time>2026-03-25T09:37:50Z</time>
      </trkpt>
      <trkpt lat="44.68969" lon="6.85494">
        <ele>2065.5</ele>
        <time>2026-03-25T09:37:51Z</time>
      </trkpt>
      <trkpt lat="44.6897" lon="6.85494">
        <ele>2065.6</ele>
        <time>2026-03-25T09:37:52Z</time>
      </trkpt>
      <trkpt lat="44.6897" lon="6.85494">
        <ele>2065.7</ele>
        <time>2026-03-25T09:37:53Z</time>
      </trkpt>
      <trkpt lat="44.68971" lon="6.85494">
        <ele>2065.8</ele>
        <time>2026-03-25T09:37:54Z</time>
      </trkpt>
      <trkpt lat="44.68972" lon="6.85494">
        <ele>2065.9</ele>
        <time>2026-03-25T09:37:55Z</time>
      </trkpt>
      <trkpt lat="44.68972" lon="6.85494">
        <ele>2066</ele>
        <time>2026-03-25T09:37:56Z</time>
      </trkpt>
      <trkpt lat="44.68972" lon="6.85494">
        <ele>2066.2</ele>
        <time>2026-03-25T09:37:57Z</time>
      </trkpt>
      <trkpt lat="44.68972" lon="6.85494">
        <ele>2066.2</ele>
        <time>2026-03-25T09:37:58Z</time>
      </trkpt>
      <trkpt lat="44.68973" lon="6.85494">
        <ele>2066.3</ele>
        <time>2026-03-25T09:37:59Z</time>
      </trkpt>
      <trkpt lat="44.68973" lon="6.85494">
        <ele>2066.4</ele>
        <time>2026-03-25T09:38:00Z</time>
      </trkpt>
      <trkpt lat="44.68974" lon="6.85494">
        <ele>2066.5</ele>
        <time>2026-03-25T09:38:01Z</time>
      </trkpt>
      <trkpt lat="44.68975" lon="6.85493">
        <ele>2066.7</ele>
        <time>2026-03-25T09:38:02Z</time>
      </trkpt>
      <trkpt lat="44.68975" lon="6.85493">
        <ele>2066.8</ele>
        <time>2026-03-25T09:38:03Z</time>
      </trkpt>
      <trkpt lat="44.68976" lon="6.85494">
        <ele>2067</ele>
        <time>2026-03-25T09:38:04Z</time>
      </trkpt>
      <trkpt lat="44.68977" lon="6.85494">
        <ele>2067.2</ele>
        <time>2026-03-25T09:38:05Z</time>
      </trkpt>
      <trkpt lat="44.68977" lon="6.85494">
        <ele>2067.3</ele>
        <time>2026-03-25T09:38:06Z</time>
      </trkpt>
      <trkpt lat="44.68978" lon="6.85494">
        <ele>2067.3</ele>
        <time>2026-03-25T09:38:07Z</time>
      </trkpt>
      <trkpt lat="44.68978" lon="6.85494">
        <ele>2067.4</ele>
        <time>2026-03-25T09:38:08Z</time>
      </trkpt>
      <trkpt lat="44.68979" lon="6.85494">
        <ele>2067.5</ele>
        <time>2026-03-25T09:38:09Z</time>
      </trkpt>
      <trkpt lat="44.68979" lon="6.85494">
        <ele>2067.6</ele>
        <time>2026-03-25T09:38:10Z</time>
      </trkpt>
      <trkpt lat="44.6898" lon="6.85494">
        <ele>2067.7</ele>
        <time>2026-03-25T09:38:11Z</time>
      </trkpt>
      <trkpt lat="44.6898" lon="6.85494">
        <ele>2067.7</ele>
        <time>2026-03-25T09:38:12Z</time>
      </trkpt>
      <trkpt lat="44.6898" lon="6.85494">
        <ele>2067.9</ele>
        <time>2026-03-25T09:38:13Z</time>
      </trkpt>
      <trkpt lat="44.68981" lon="6.85494">
        <ele>2068</ele>
        <time>2026-03-25T09:38:14Z</time>
      </trkpt>
      <trkpt lat="44.68982" lon="6.85495">
        <ele>2068.2</ele>
        <time>2026-03-25T09:38:15Z</time>
      </trkpt>
      <trkpt lat="44.68982" lon="6.85495">
        <ele>2068.3</ele>
        <time>2026-03-25T09:38:16Z</time>
      </trkpt>
      <trkpt lat="44.68983" lon="6.85495">
        <ele>2068.4</ele>
        <time>2026-03-25T09:38:17Z</time>
      </trkpt>
      <trkpt lat="44.68983" lon="6.85495">
        <ele>2068.4</ele>
        <time>2026-03-25T09:38:18Z</time>
      </trkpt>
      <trkpt lat="44.68984" lon="6.85495">
        <ele>2068.6</ele>
        <time>2026-03-25T09:38:19Z</time>
      </trkpt>
      <trkpt lat="44.68984" lon="6.85495">
        <ele>2068.7</ele>
        <time>2026-03-25T09:38:20Z</time>
      </trkpt>
      <trkpt lat="44.68984" lon="6.85496">
        <ele>2068.7</ele>
        <time>2026-03-25T09:38:21Z</time>
      </trkpt>
      <trkpt lat="44.68985" lon="6.85496">
        <ele>2068.9</ele>
        <time>2026-03-25T09:38:22Z</time>
      </trkpt>
      <trkpt lat="44.68985" lon="6.85497">
        <ele>2069</ele>
        <time>2026-03-25T09:38:23Z</time>
      </trkpt>
      <trkpt lat="44.68985" lon="6.85497">
        <ele>2069.1</ele>
        <time>2026-03-25T09:38:24Z</time>
      </trkpt>
      <trkpt lat="44.68986" lon="6.85497">
        <ele>2069.2</ele>
        <time>2026-03-25T09:38:25Z</time>
      </trkpt>
      <trkpt lat="44.68986" lon="6.85497">
        <ele>2069.2</ele>
        <time>2026-03-25T09:38:26Z</time>
      </trkpt>
      <trkpt lat="44.68987" lon="6.85497">
        <ele>2069.3</ele>
        <time>2026-03-25T09:38:27Z</time>
      </trkpt>
      <trkpt lat="44.68987" lon="6.85497">
        <ele>2069.5</ele>
        <time>2026-03-25T09:38:28Z</time>
      </trkpt>
      <trkpt lat="44.68988" lon="6.85497">
        <ele>2069.6</ele>
        <time>2026-03-25T09:38:29Z</time>
      </trkpt>
      <trkpt lat="44.68989" lon="6.85497">
        <ele>2069.8</ele>
        <time>2026-03-25T09:38:30Z</time>
      </trkpt>
      <trkpt lat="44.68989" lon="6.85497">
        <ele>2069.8</ele>
        <time>2026-03-25T09:38:31Z</time>
      </trkpt>
      <trkpt lat="44.68989" lon="6.85496">
        <ele>2069.9</ele>
        <time>2026-03-25T09:38:32Z</time>
      </trkpt>
      <trkpt lat="44.6899" lon="6.85497">
        <ele>2070.1</ele>
        <time>2026-03-25T09:38:33Z</time>
      </trkpt>
      <trkpt lat="44.6899" lon="6.85497">
        <ele>2070.2</ele>
        <time>2026-03-25T09:38:34Z</time>
      </trkpt>
      <trkpt lat="44.68991" lon="6.85496">
        <ele>2070.3</ele>
        <time>2026-03-25T09:38:35Z</time>
      </trkpt>
      <trkpt lat="44.68991" lon="6.85496">
        <ele>2070.4</ele>
        <time>2026-03-25T09:38:36Z</time>
      </trkpt>
      <trkpt lat="44.68992" lon="6.85496">
        <ele>2070.5</ele>
        <time>2026-03-25T09:38:37Z</time>
      </trkpt>
      <trkpt lat="44.68992" lon="6.85496">
        <ele>2070.6</ele>
        <time>2026-03-25T09:38:38Z</time>
      </trkpt>
      <trkpt lat="44.68993" lon="6.85496">
        <ele>2070.7</ele>
        <time>2026-03-25T09:38:39Z</time>
      </trkpt>
      <trkpt lat="44.68993" lon="6.85496">
        <ele>2070.8</ele>
        <time>2026-03-25T09:38:40Z</time>
      </trkpt>
      <trkpt lat="44.68994" lon="6.85496">
        <ele>2070.9</ele>
        <time>2026-03-25T09:38:41Z</time>
      </trkpt>
      <trkpt lat="44.68994" lon="6.85496">
        <ele>2070.9</ele>
        <time>2026-03-25T09:38:42Z</time>
      </trkpt>
      <trkpt lat="44.68994" lon="6.85496">
        <ele>2071</ele>
        <time>2026-03-25T09:38:43Z</time>
      </trkpt>
      <trkpt lat="44.68995" lon="6.85496">
        <ele>2071.1</ele>
        <time>2026-03-25T09:38:44Z</time>
      </trkpt>
      <trkpt lat="44.68995" lon="6.85496">
        <ele>2071.2</ele>
        <time>2026-03-25T09:38:45Z</time>
      </trkpt>
      <trkpt lat="44.68996" lon="6.85496">
        <ele>2071.3</ele>
        <time>2026-03-25T09:38:46Z</time>
      </trkpt>
      <trkpt lat="44.68996" lon="6.85496">
        <ele>2071.4</ele>
        <time>2026-03-25T09:38:47Z</time>
      </trkpt>
      <trkpt lat="44.68996" lon="6.85496">
        <ele>2071.4</ele>
        <time>2026-03-25T09:38:48Z</time>
      </trkpt>
      <trkpt lat="44.68997" lon="6.85495">
        <ele>2071.5</ele>
        <time>2026-03-25T09:38:49Z</time>
      </trkpt>
      <trkpt lat="44.68997" lon="6.85495">
        <ele>2071.6</ele>
        <time>2026-03-25T09:38:50Z</time>
      </trkpt>
      <trkpt lat="44.68998" lon="6.85495">
        <ele>2071.7</ele>
        <time>2026-03-25T09:38:51Z</time>
      </trkpt>
      <trkpt lat="44.68998" lon="6.85495">
        <ele>2071.7</ele>
        <time>2026-03-25T09:38:52Z</time>
      </trkpt>
      <trkpt lat="44.68998" lon="6.85495">
        <ele>2071.8</ele>
        <time>2026-03-25T09:38:53Z</time>
      </trkpt>
      <trkpt lat="44.68999" lon="6.85495">
        <ele>2071.9</ele>
        <time>2026-03-25T09:38:54Z</time>
      </trkpt>
      <trkpt lat="44.68999" lon="6.85495">
        <ele>2072</ele>
        <time>2026-03-25T09:38:55Z</time>
      </trkpt>
      <trkpt lat="44.69" lon="6.85495">
        <ele>2072.3</ele>
        <time>2026-03-25T09:38:56Z</time>
      </trkpt>
      <trkpt lat="44.69001" lon="6.85496">
        <ele>2072.4</ele>
        <time>2026-03-25T09:38:57Z</time>
      </trkpt>
      <trkpt lat="44.69001" lon="6.85496">
        <ele>2072.4</ele>
        <time>2026-03-25T09:38:58Z</time>
      </trkpt>
      <trkpt lat="44.69001" lon="6.85496">
        <ele>2072.5</ele>
        <time>2026-03-25T09:38:59Z</time>
      </trkpt>
      <trkpt lat="44.69002" lon="6.85497">
        <ele>2072.6</ele>
        <time>2026-03-25T09:39:00Z</time>
      </trkpt>
      <trkpt lat="44.69002" lon="6.85497">
        <ele>2072.7</ele>
        <time>2026-03-25T09:39:01Z</time>
      </trkpt>
      <trkpt lat="44.69003" lon="6.85498">
        <ele>2072.9</ele>
        <time>2026-03-25T09:39:02Z</time>
      </trkpt>
      <trkpt lat="44.69003" lon="6.85498">
        <ele>2073</ele>
        <time>2026-03-25T09:39:03Z</time>
      </trkpt>
      <trkpt lat="44.69004" lon="6.85498">
        <ele>2073.1</ele>
        <time>2026-03-25T09:39:04Z</time>
      </trkpt>
      <trkpt lat="44.69004" lon="6.85499">
        <ele>2073.3</ele>
        <time>2026-03-25T09:39:05Z</time>
      </trkpt>
      <trkpt lat="44.69004" lon="6.855">
        <ele>2073.4</ele>
        <time>2026-03-25T09:39:06Z</time>
      </trkpt>
      <trkpt lat="44.69005" lon="6.855">
        <ele>2073.4</ele>
        <time>2026-03-25T09:39:07Z</time>
      </trkpt>
      <trkpt lat="44.69005" lon="6.85501">
        <ele>2073.5</ele>
        <time>2026-03-25T09:39:08Z</time>
      </trkpt>
      <trkpt lat="44.69005" lon="6.85501">
        <ele>2073.6</ele>
        <time>2026-03-25T09:39:09Z</time>
      </trkpt>
      <trkpt lat="44.69006" lon="6.85501">
        <ele>2073.7</ele>
        <time>2026-03-25T09:39:10Z</time>
      </trkpt>
      <trkpt lat="44.69006" lon="6.85501">
        <ele>2073.9</ele>
        <time>2026-03-25T09:39:11Z</time>
      </trkpt>
      <trkpt lat="44.69007" lon="6.85502">
        <ele>2074</ele>
        <time>2026-03-25T09:39:12Z</time>
      </trkpt>
      <trkpt lat="44.69008" lon="6.85503">
        <ele>2074.2</ele>
        <time>2026-03-25T09:39:13Z</time>
      </trkpt>
      <trkpt lat="44.69008" lon="6.85504">
        <ele>2074.4</ele>
        <time>2026-03-25T09:39:14Z</time>
      </trkpt>
      <trkpt lat="44.69008" lon="6.85503">
        <ele>2074.5</ele>
        <time>2026-03-25T09:39:15Z</time>
      </trkpt>
      <trkpt lat="44.69009" lon="6.85504">
        <ele>2074.6</ele>
        <time>2026-03-25T09:39:16Z</time>
      </trkpt>
      <trkpt lat="44.69009" lon="6.85504">
        <ele>2074.7</ele>
        <time>2026-03-25T09:39:17Z</time>
      </trkpt>
      <trkpt lat="44.6901" lon="6.85504">
        <ele>2074.8</ele>
        <time>2026-03-25T09:39:18Z</time>
      </trkpt>
      <trkpt lat="44.6901" lon="6.85504">
        <ele>2074.9</ele>
        <time>2026-03-25T09:39:19Z</time>
      </trkpt>
      <trkpt lat="44.69011" lon="6.85504">
        <ele>2075</ele>
        <time>2026-03-25T09:39:20Z</time>
      </trkpt>
      <trkpt lat="44.69011" lon="6.85504">
        <ele>2075</ele>
        <time>2026-03-25T09:39:21Z</time>
      </trkpt>
      <trkpt lat="44.69011" lon="6.85504">
        <ele>2075.1</ele>
        <time>2026-03-25T09:39:22Z</time>
      </trkpt>
      <trkpt lat="44.69012" lon="6.85504">
        <ele>2075.2</ele>
        <time>2026-03-25T09:39:23Z</time>
      </trkpt>
      <trkpt lat="44.69012" lon="6.85504">
        <ele>2075.3</ele>
        <time>2026-03-25T09:39:24Z</time>
      </trkpt>
      <trkpt lat="44.69013" lon="6.85503">
        <ele>2075.5</ele>
        <time>2026-03-25T09:39:25Z</time>
      </trkpt>
      <trkpt lat="44.69014" lon="6.85504">
        <ele>2075.6</ele>
        <time>2026-03-25T09:39:26Z</time>
      </trkpt>
      <trkpt lat="44.69014" lon="6.85504">
        <ele>2075.7</ele>
        <time>2026-03-25T09:39:27Z</time>
      </trkpt>
      <trkpt lat="44.69014" lon="6.85505">
        <ele>2075.8</ele>
        <time>2026-03-25T09:39:28Z</time>
      </trkpt>
      <trkpt lat="44.69015" lon="6.85505">
        <ele>2075.9</ele>
        <time>2026-03-25T09:39:29Z</time>
      </trkpt>
      <trkpt lat="44.69015" lon="6.85505">
        <ele>2076.1</ele>
        <time>2026-03-25T09:39:30Z</time>
      </trkpt>
      <trkpt lat="44.69016" lon="6.85505">
        <ele>2076.2</ele>
        <time>2026-03-25T09:39:31Z</time>
      </trkpt>
      <trkpt lat="44.69017" lon="6.85506">
        <ele>2076.4</ele>
        <time>2026-03-25T09:39:32Z</time>
      </trkpt>
      <trkpt lat="44.69017" lon="6.85506">
        <ele>2076.4</ele>
        <time>2026-03-25T09:39:33Z</time>
      </trkpt>
      <trkpt lat="44.69017" lon="6.85507">
        <ele>2076.5</ele>
        <time>2026-03-25T09:39:34Z</time>
      </trkpt>
      <trkpt lat="44.69017" lon="6.85507">
        <ele>2076.6</ele>
        <time>2026-03-25T09:39:35Z</time>
      </trkpt>
      <trkpt lat="44.69017" lon="6.85508">
        <ele>2076.7</ele>
        <time>2026-03-25T09:39:36Z</time>
      </trkpt>
      <trkpt lat="44.69017" lon="6.85508">
        <ele>2076.8</ele>
        <time>2026-03-25T09:39:37Z</time>
      </trkpt>
      <trkpt lat="44.69018" lon="6.85508">
        <ele>2077</ele>
        <time>2026-03-25T09:39:38Z</time>
      </trkpt>
      <trkpt lat="44.69018" lon="6.85508">
        <ele>2077</ele>
        <time>2026-03-25T09:39:39Z</time>
      </trkpt>
      <trkpt lat="44.69018" lon="6.85508">
        <ele>2077.1</ele>
        <time>2026-03-25T09:39:40Z</time>
      </trkpt>
      <trkpt lat="44.69019" lon="6.85509">
        <ele>2077.3</ele>
        <time>2026-03-25T09:39:41Z</time>
      </trkpt>
      <trkpt lat="44.69019" lon="6.85509">
        <ele>2077.4</ele>
        <time>2026-03-25T09:39:42Z</time>
      </trkpt>
      <trkpt lat="44.6902" lon="6.85509">
        <ele>2077.6</ele>
        <time>2026-03-25T09:39:43Z</time>
      </trkpt>
      <trkpt lat="44.69021" lon="6.8551">
        <ele>2077.8</ele>
        <time>2026-03-25T09:39:44Z</time>
      </trkpt>
      <trkpt lat="44.69022" lon="6.85511">
        <ele>2077.9</ele>
        <time>2026-03-25T09:39:45Z</time>
      </trkpt>
      <trkpt lat="44.69022" lon="6.8551">
        <ele>2077.9</ele>
        <time>2026-03-25T09:39:46Z</time>
      </trkpt>
      <trkpt lat="44.69023" lon="6.85511">
        <ele>2078.1</ele>
        <time>2026-03-25T09:39:47Z</time>
      </trkpt>
      <trkpt lat="44.69023" lon="6.8551">
        <ele>2078.2</ele>
        <time>2026-03-25T09:39:48Z</time>
      </trkpt>
      <trkpt lat="44.69023" lon="6.8551">
        <ele>2078.2</ele>
        <time>2026-03-25T09:39:49Z</time>
      </trkpt>
      <trkpt lat="44.69023" lon="6.8551">
        <ele>2078.3</ele>
        <time>2026-03-25T09:39:50Z</time>
      </trkpt>
      <trkpt lat="44.69024" lon="6.8551">
        <ele>2078.4</ele>
        <time>2026-03-25T09:39:51Z</time>
      </trkpt>
      <trkpt lat="44.69024" lon="6.8551">
        <ele>2078.4</ele>
        <time>2026-03-25T09:39:52Z</time>
      </trkpt>
      <trkpt lat="44.69024" lon="6.8551">
        <ele>2078.4</ele>
        <time>2026-03-25T09:39:53Z</time>
      </trkpt>
      <trkpt lat="44.69024" lon="6.8551">
        <ele>2078.5</ele>
        <time>2026-03-25T09:39:54Z</time>
      </trkpt>
      <trkpt lat="44.69025" lon="6.85511">
        <ele>2078.6</ele>
        <time>2026-03-25T09:39:55Z</time>
      </trkpt>
      <trkpt lat="44.69025" lon="6.85511">
        <ele>2078.6</ele>
        <time>2026-03-25T09:39:56Z</time>
      </trkpt>
      <trkpt lat="44.69025" lon="6.85511">
        <ele>2078.7</ele>
        <time>2026-03-25T09:39:57Z</time>
      </trkpt>
      <trkpt lat="44.69025" lon="6.85511">
        <ele>2078.8</ele>
        <time>2026-03-25T09:39:58Z</time>
      </trkpt>
      <trkpt lat="44.69026" lon="6.85511">
        <ele>2078.8</ele>
        <time>2026-03-25T09:39:59Z</time>
      </trkpt>
      <trkpt lat="44.69026" lon="6.85511">
        <ele>2078.9</ele>
        <time>2026-03-25T09:40:00Z</time>
      </trkpt>
      <trkpt lat="44.69027" lon="6.85511">
        <ele>2079</ele>
        <time>2026-03-25T09:40:01Z</time>
      </trkpt>
      <trkpt lat="44.69027" lon="6.85511">
        <ele>2079.1</ele>
        <time>2026-03-25T09:40:02Z</time>
      </trkpt>
      <trkpt lat="44.69028" lon="6.85511">
        <ele>2079.2</ele>
        <time>2026-03-25T09:40:03Z</time>
      </trkpt>
      <trkpt lat="44.69028" lon="6.85511">
        <ele>2079.3</ele>
        <time>2026-03-25T09:40:04Z</time>
      </trkpt>
      <trkpt lat="44.69029" lon="6.85511">
        <ele>2079.4</ele>
        <time>2026-03-25T09:40:05Z</time>
      </trkpt>
      <trkpt lat="44.69029" lon="6.85511">
        <ele>2079.5</ele>
        <time>2026-03-25T09:40:06Z</time>
      </trkpt>
      <trkpt lat="44.69029" lon="6.85511">
        <ele>2079.5</ele>
        <time>2026-03-25T09:40:07Z</time>
      </trkpt>
      <trkpt lat="44.69029" lon="6.85511">
        <ele>2079.6</ele>
        <time>2026-03-25T09:40:08Z</time>
      </trkpt>
      <trkpt lat="44.6903" lon="6.85511">
        <ele>2079.7</ele>
        <time>2026-03-25T09:40:09Z</time>
      </trkpt>
      <trkpt lat="44.6903" lon="6.85512">
        <ele>2079.7</ele>
        <time>2026-03-25T09:40:10Z</time>
      </trkpt>
      <trkpt lat="44.6903" lon="6.85512">
        <ele>2079.8</ele>
        <time>2026-03-25T09:40:11Z</time>
      </trkpt>
      <trkpt lat="44.69031" lon="6.85512">
        <ele>2080</ele>
        <time>2026-03-25T09:40:12Z</time>
      </trkpt>
      <trkpt lat="44.69032" lon="6.85512">
        <ele>2080.1</ele>
        <time>2026-03-25T09:40:13Z</time>
      </trkpt>
      <trkpt lat="44.69033" lon="6.85513">
        <ele>2080.4</ele>
        <time>2026-03-25T09:40:14Z</time>
      </trkpt>
      <trkpt lat="44.69033" lon="6.85513">
        <ele>2080.5</ele>
        <time>2026-03-25T09:40:15Z</time>
      </trkpt>
      <trkpt lat="44.69034" lon="6.85513">
        <ele>2080.6</ele>
        <time>2026-03-25T09:40:16Z</time>
      </trkpt>
      <trkpt lat="44.69034" lon="6.85514">
        <ele>2080.8</ele>
        <time>2026-03-25T09:40:17Z</time>
      </trkpt>
      <trkpt lat="44.69035" lon="6.85515">
        <ele>2080.9</ele>
        <time>2026-03-25T09:40:18Z</time>
      </trkpt>
      <trkpt lat="44.69037" lon="6.85516">
        <ele>2081.3</ele>
        <time>2026-03-25T09:40:19Z</time>
      </trkpt>
      <trkpt lat="44.69037" lon="6.85516">
        <ele>2081.4</ele>
        <time>2026-03-25T09:40:20Z</time>
      </trkpt>
      <trkpt lat="44.69038" lon="6.85516">
        <ele>2081.6</ele>
        <time>2026-03-25T09:40:21Z</time>
      </trkpt>
      <trkpt lat="44.69039" lon="6.85516">
        <ele>2081.7</ele>
        <time>2026-03-25T09:40:22Z</time>
      </trkpt>
      <trkpt lat="44.6904" lon="6.85516">
        <ele>2082</ele>
        <time>2026-03-25T09:40:23Z</time>
      </trkpt>
      <trkpt lat="44.69041" lon="6.85516">
        <ele>2082.1</ele>
        <time>2026-03-25T09:40:24Z</time>
      </trkpt>
      <trkpt lat="44.69041" lon="6.85516">
        <ele>2082.2</ele>
        <time>2026-03-25T09:40:25Z</time>
      </trkpt>
      <trkpt lat="44.69041" lon="6.85517">
        <ele>2082.3</ele>
        <time>2026-03-25T09:40:26Z</time>
      </trkpt>
      <trkpt lat="44.6904" lon="6.85517">
        <ele>2082.4</ele>
        <time>2026-03-25T09:40:27Z</time>
      </trkpt>
      <trkpt lat="44.69041" lon="6.85517">
        <ele>2082.6</ele>
        <time>2026-03-25T09:40:28Z</time>
      </trkpt>
      <trkpt lat="44.69041" lon="6.85517">
        <ele>2082.7</ele>
        <time>2026-03-25T09:40:29Z</time>
      </trkpt>
      <trkpt lat="44.69042" lon="6.85518">
        <ele>2082.8</ele>
        <time>2026-03-25T09:40:30Z</time>
      </trkpt>
      <trkpt lat="44.69042" lon="6.85519">
        <ele>2083</ele>
        <time>2026-03-25T09:40:31Z</time>
      </trkpt>
      <trkpt lat="44.69043" lon="6.85519">
        <ele>2083.1</ele>
        <time>2026-03-25T09:40:32Z</time>
      </trkpt>
      <trkpt lat="44.69044" lon="6.8552">
        <ele>2083.3</ele>
        <time>2026-03-25T09:40:33Z</time>
      </trkpt>
      <trkpt lat="44.69044" lon="6.8552">
        <ele>2083.5</ele>
        <time>2026-03-25T09:40:34Z</time>
      </trkpt>
      <trkpt lat="44.69044" lon="6.8552">
        <ele>2083.6</ele>
        <time>2026-03-25T09:40:35Z</time>
      </trkpt>
      <trkpt lat="44.69045" lon="6.8552">
        <ele>2083.7</ele>
        <time>2026-03-25T09:40:36Z</time>
      </trkpt>
      <trkpt lat="44.69045" lon="6.8552">
        <ele>2083.8</ele>
        <time>2026-03-25T09:40:37Z</time>
      </trkpt>
      <trkpt lat="44.69044" lon="6.85518">
        <ele>2084.1</ele>
        <time>2026-03-25T09:40:38Z</time>
      </trkpt>
      <trkpt lat="44.69045" lon="6.85518">
        <ele>2084.2</ele>
        <time>2026-03-25T09:40:39Z</time>
      </trkpt>
      <trkpt lat="44.69045" lon="6.85518">
        <ele>2084.3</ele>
        <time>2026-03-25T09:40:40Z</time>
      </trkpt>
      <trkpt lat="44.69046" lon="6.85518">
        <ele>2084.5</ele>
        <time>2026-03-25T09:40:41Z</time>
      </trkpt>
      <trkpt lat="44.69047" lon="6.85517">
        <ele>2084.8</ele>
        <time>2026-03-25T09:40:42Z</time>
      </trkpt>
      <trkpt lat="44.69048" lon="6.85516">
        <ele>2085.1</ele>
        <time>2026-03-25T09:40:43Z</time>
      </trkpt>
      <trkpt lat="44.69049" lon="6.85517">
        <ele>2085.3</ele>
        <time>2026-03-25T09:40:44Z</time>
      </trkpt>
      <trkpt lat="44.6905" lon="6.85517">
        <ele>2085.5</ele>
        <time>2026-03-25T09:40:45Z</time>
      </trkpt>
      <trkpt lat="44.6905" lon="6.85517">
        <ele>2085.5</ele>
        <time>2026-03-25T09:40:46Z</time>
      </trkpt>
      <trkpt lat="44.6905" lon="6.85518">
        <ele>2085.6</ele>
        <time>2026-03-25T09:40:47Z</time>
      </trkpt>
      <trkpt lat="44.69051" lon="6.85518">
        <ele>2085.7</ele>
        <time>2026-03-25T09:40:48Z</time>
      </trkpt>
      <trkpt lat="44.69051" lon="6.85518">
        <ele>2085.8</ele>
        <time>2026-03-25T09:40:49Z</time>
      </trkpt>
      <trkpt lat="44.69052" lon="6.85518">
        <ele>2085.9</ele>
        <time>2026-03-25T09:40:50Z</time>
      </trkpt>
      <trkpt lat="44.69052" lon="6.85518">
        <ele>2086</ele>
        <time>2026-03-25T09:40:51Z</time>
      </trkpt>
      <trkpt lat="44.69053" lon="6.85518">
        <ele>2086.3</ele>
        <time>2026-03-25T09:40:52Z</time>
      </trkpt>
      <trkpt lat="44.69054" lon="6.85519">
        <ele>2086.3</ele>
        <time>2026-03-25T09:40:53Z</time>
      </trkpt>
      <trkpt lat="44.69054" lon="6.85518">
        <ele>2086.5</ele>
        <time>2026-03-25T09:40:54Z</time>
      </trkpt>
      <trkpt lat="44.69055" lon="6.85518">
        <ele>2086.6</ele>
        <time>2026-03-25T09:40:55Z</time>
      </trkpt>
      <trkpt lat="44.69055" lon="6.85518">
        <ele>2086.6</ele>
        <time>2026-03-25T09:40:56Z</time>
      </trkpt>
      <trkpt lat="44.69055" lon="6.85518">
        <ele>2086.7</ele>
        <time>2026-03-25T09:40:57Z</time>
      </trkpt>
      <trkpt lat="44.69055" lon="6.85518">
        <ele>2086.7</ele>
        <time>2026-03-25T09:40:58Z</time>
      </trkpt>
      <trkpt lat="44.69055" lon="6.85518">
        <ele>2086.8</ele>
        <time>2026-03-25T09:40:59Z</time>
      </trkpt>
      <trkpt lat="44.69056" lon="6.85518">
        <ele>2086.8</ele>
        <time>2026-03-25T09:41:00Z</time>
      </trkpt>
      <trkpt lat="44.69056" lon="6.85519">
        <ele>2086.9</ele>
        <time>2026-03-25T09:41:01Z</time>
      </trkpt>
      <trkpt lat="44.69056" lon="6.85519">
        <ele>2086.9</ele>
        <time>2026-03-25T09:41:02Z</time>
      </trkpt>
      <trkpt lat="44.69056" lon="6.85519">
        <ele>2086.9</ele>
        <time>2026-03-25T09:41:03Z</time>
      </trkpt>
      <trkpt lat="44.69056" lon="6.85519">
        <ele>2086.9</ele>
        <time>2026-03-25T09:41:04Z</time>
      </trkpt>
      <trkpt lat="44.69056" lon="6.85518">
        <ele>2086.9</ele>
        <time>2026-03-25T09:41:05Z</time>
      </trkpt>
      <trkpt lat="44.69056" lon="6.85518">
        <ele>2087</ele>
        <time>2026-03-25T09:41:06Z</time>
      </trkpt>
      <trkpt lat="44.69056" lon="6.85519">
        <ele>2087.1</ele>
        <time>2026-03-25T09:41:07Z</time>
      </trkpt>
      <trkpt lat="44.69056" lon="6.85518">
        <ele>2087.1</ele>
        <time>2026-03-25T09:41:08Z</time>
      </trkpt>
      <trkpt lat="44.69056" lon="6.85519">
        <ele>2087.2</ele>
        <time>2026-03-25T09:41:09Z</time>
      </trkpt>
      <trkpt lat="44.69056" lon="6.85519">
        <ele>2087.2</ele>
        <time>2026-03-25T09:41:10Z</time>
      </trkpt>
      <trkpt lat="44.69056" lon="6.85519">
        <ele>2087.2</ele>
        <time>2026-03-25T09:41:11Z</time>
      </trkpt>
      <trkpt lat="44.69057" lon="6.85519">
        <ele>2087.3</ele>
        <time>2026-03-25T09:41:12Z</time>
      </trkpt>
      <trkpt lat="44.69057" lon="6.85519">
        <ele>2087.3</ele>
        <time>2026-03-25T09:41:13Z</time>
      </trkpt>
      <trkpt lat="44.69057" lon="6.8552">
        <ele>2087.4</ele>
        <time>2026-03-25T09:41:14Z</time>
      </trkpt>
      <trkpt lat="44.69057" lon="6.8552">
        <ele>2087.4</ele>
        <time>2026-03-25T09:41:15Z</time>
      </trkpt>
      <trkpt lat="44.69057" lon="6.8552">
        <ele>2087.5</ele>
        <time>2026-03-25T09:41:16Z</time>
      </trkpt>
      <trkpt lat="44.69057" lon="6.8552">
        <ele>2087.6</ele>
        <time>2026-03-25T09:41:17Z</time>
      </trkpt>
      <trkpt lat="44.69057" lon="6.85521">
        <ele>2087.6</ele>
        <time>2026-03-25T09:41:18Z</time>
      </trkpt>
      <trkpt lat="44.69057" lon="6.85521">
        <ele>2087.6</ele>
        <time>2026-03-25T09:41:19Z</time>
      </trkpt>
      <trkpt lat="44.69057" lon="6.85521">
        <ele>2087.7</ele>
        <time>2026-03-25T09:41:20Z</time>
      </trkpt>
      <trkpt lat="44.69057" lon="6.85521">
        <ele>2087.7</ele>
        <time>2026-03-25T09:41:21Z</time>
      </trkpt>
      <trkpt lat="44.69057" lon="6.85521">
        <ele>2087.8</ele>
        <time>2026-03-25T09:41:22Z</time>
      </trkpt>
      <trkpt lat="44.69058" lon="6.85521">
        <ele>2087.8</ele>
        <time>2026-03-25T09:41:23Z</time>
      </trkpt>
      <trkpt lat="44.69058" lon="6.85521">
        <ele>2087.9</ele>
        <time>2026-03-25T09:41:24Z</time>
      </trkpt>
      <trkpt lat="44.69058" lon="6.85522">
        <ele>2088</ele>
        <time>2026-03-25T09:41:25Z</time>
      </trkpt>
      <trkpt lat="44.69058" lon="6.85522">
        <ele>2088</ele>
        <time>2026-03-25T09:41:26Z</time>
      </trkpt>
      <trkpt lat="44.69059" lon="6.85521">
        <ele>2088.3</ele>
        <time>2026-03-25T09:41:27Z</time>
      </trkpt>
      <trkpt lat="44.6906" lon="6.85521">
        <ele>2088.4</ele>
        <time>2026-03-25T09:41:28Z</time>
      </trkpt>
      <trkpt lat="44.6906" lon="6.85522">
        <ele>2088.5</ele>
        <time>2026-03-25T09:41:29Z</time>
      </trkpt>
      <trkpt lat="44.69061" lon="6.85522">
        <ele>2088.8</ele>
        <time>2026-03-25T09:41:30Z</time>
      </trkpt>
      <trkpt lat="44.69062" lon="6.85522">
        <ele>2088.9</ele>
        <time>2026-03-25T09:41:31Z</time>
      </trkpt>
      <trkpt lat="44.69063" lon="6.85523">
        <ele>2089.1</ele>
        <time>2026-03-25T09:41:32Z</time>
      </trkpt>
      <trkpt lat="44.69063" lon="6.85523">
        <ele>2089.2</ele>
        <time>2026-03-25T09:41:33Z</time>
      </trkpt>
      <trkpt lat="44.69064" lon="6.85523">
        <ele>2089.4</ele>
        <time>2026-03-25T09:41:34Z</time>
      </trkpt>
      <trkpt lat="44.69064" lon="6.85523">
        <ele>2089.4</ele>
        <time>2026-03-25T09:41:35Z</time>
      </trkpt>
      <trkpt lat="44.69065" lon="6.85524">
        <ele>2089.6</ele>
        <time>2026-03-25T09:41:36Z</time>
      </trkpt>
      <trkpt lat="44.69065" lon="6.85524">
        <ele>2089.8</ele>
        <time>2026-03-25T09:41:37Z</time>
      </trkpt>
      <trkpt lat="44.69066" lon="6.85525">
        <ele>2089.9</ele>
        <time>2026-03-25T09:41:38Z</time>
      </trkpt>
      <trkpt lat="44.69066" lon="6.85525">
        <ele>2089.9</ele>
        <time>2026-03-25T09:41:39Z</time>
      </trkpt>
      <trkpt lat="44.69066" lon="6.85524">
        <ele>2090.1</ele>
        <time>2026-03-25T09:41:40Z</time>
      </trkpt>
      <trkpt lat="44.69066" lon="6.85524">
        <ele>2090.2</ele>
        <time>2026-03-25T09:41:41Z</time>
      </trkpt>
      <trkpt lat="44.69067" lon="6.85524">
        <ele>2090.3</ele>
        <time>2026-03-25T09:41:42Z</time>
      </trkpt>
      <trkpt lat="44.69067" lon="6.85524">
        <ele>2090.5</ele>
        <time>2026-03-25T09:41:43Z</time>
      </trkpt>
      <trkpt lat="44.69068" lon="6.85524">
        <ele>2090.6</ele>
        <time>2026-03-25T09:41:44Z</time>
      </trkpt>
      <trkpt lat="44.69068" lon="6.85525">
        <ele>2090.7</ele>
        <time>2026-03-25T09:41:45Z</time>
      </trkpt>
      <trkpt lat="44.69069" lon="6.85525">
        <ele>2090.7</ele>
        <time>2026-03-25T09:41:46Z</time>
      </trkpt>
      <trkpt lat="44.69069" lon="6.85525">
        <ele>2090.8</ele>
        <time>2026-03-25T09:41:47Z</time>
      </trkpt>
      <trkpt lat="44.69069" lon="6.85525">
        <ele>2090.9</ele>
        <time>2026-03-25T09:41:48Z</time>
      </trkpt>
      <trkpt lat="44.6907" lon="6.85525">
        <ele>2091</ele>
        <time>2026-03-25T09:41:49Z</time>
      </trkpt>
      <trkpt lat="44.6907" lon="6.85524">
        <ele>2091.1</ele>
        <time>2026-03-25T09:41:50Z</time>
      </trkpt>
      <trkpt lat="44.69071" lon="6.85524">
        <ele>2091.2</ele>
        <time>2026-03-25T09:41:51Z</time>
      </trkpt>
      <trkpt lat="44.69071" lon="6.85525">
        <ele>2091.3</ele>
        <time>2026-03-25T09:41:52Z</time>
      </trkpt>
      <trkpt lat="44.69072" lon="6.85525">
        <ele>2091.4</ele>
        <time>2026-03-25T09:41:53Z</time>
      </trkpt>
      <trkpt lat="44.69072" lon="6.85525">
        <ele>2091.5</ele>
        <time>2026-03-25T09:41:54Z</time>
      </trkpt>
      <trkpt lat="44.69072" lon="6.85525">
        <ele>2091.7</ele>
        <time>2026-03-25T09:41:55Z</time>
      </trkpt>
      <trkpt lat="44.69072" lon="6.85525">
        <ele>2091.8</ele>
        <time>2026-03-25T09:41:56Z</time>
      </trkpt>
      <trkpt lat="44.69072" lon="6.85526">
        <ele>2091.9</ele>
        <time>2026-03-25T09:41:57Z</time>
      </trkpt>
      <trkpt lat="44.69073" lon="6.85526">
        <ele>2091.9</ele>
        <time>2026-03-25T09:41:58Z</time>
      </trkpt>
      <trkpt lat="44.69073" lon="6.85526">
        <ele>2092</ele>
        <time>2026-03-25T09:41:59Z</time>
      </trkpt>
      <trkpt lat="44.69074" lon="6.85527">
        <ele>2092.2</ele>
        <time>2026-03-25T09:42:00Z</time>
      </trkpt>
      <trkpt lat="44.69074" lon="6.85527">
        <ele>2092.3</ele>
        <time>2026-03-25T09:42:01Z</time>
      </trkpt>
      <trkpt lat="44.69075" lon="6.85528">
        <ele>2092.4</ele>
        <time>2026-03-25T09:42:02Z</time>
      </trkpt>
      <trkpt lat="44.69075" lon="6.85528">
        <ele>2092.5</ele>
        <time>2026-03-25T09:42:03Z</time>
      </trkpt>
      <trkpt lat="44.69075" lon="6.85528">
        <ele>2092.6</ele>
        <time>2026-03-25T09:42:04Z</time>
      </trkpt>
      <trkpt lat="44.69076" lon="6.85528">
        <ele>2092.6</ele>
        <time>2026-03-25T09:42:05Z</time>
      </trkpt>
      <trkpt lat="44.69076" lon="6.85529">
        <ele>2092.7</ele>
        <time>2026-03-25T09:42:06Z</time>
      </trkpt>
      <trkpt lat="44.69077" lon="6.85529">
        <ele>2092.9</ele>
        <time>2026-03-25T09:42:07Z</time>
      </trkpt>
      <trkpt lat="44.69077" lon="6.85529">
        <ele>2093</ele>
        <time>2026-03-25T09:42:08Z</time>
      </trkpt>
      <trkpt lat="44.69078" lon="6.8553">
        <ele>2093</ele>
        <time>2026-03-25T09:42:09Z</time>
      </trkpt>
      <trkpt lat="44.69078" lon="6.8553">
        <ele>2093.2</ele>
        <time>2026-03-25T09:42:10Z</time>
      </trkpt>
      <trkpt lat="44.69078" lon="6.85531">
        <ele>2093.3</ele>
        <time>2026-03-25T09:42:11Z</time>
      </trkpt>
      <trkpt lat="44.69078" lon="6.85532">
        <ele>2093.4</ele>
        <time>2026-03-25T09:42:12Z</time>
      </trkpt>
      <trkpt lat="44.69079" lon="6.85532">
        <ele>2093.5</ele>
        <time>2026-03-25T09:42:13Z</time>
      </trkpt>
      <trkpt lat="44.69079" lon="6.85532">
        <ele>2093.6</ele>
        <time>2026-03-25T09:42:14Z</time>
      </trkpt>
      <trkpt lat="44.6908" lon="6.85533">
        <ele>2093.7</ele>
        <time>2026-03-25T09:42:15Z</time>
      </trkpt>
      <trkpt lat="44.6908" lon="6.85533">
        <ele>2093.8</ele>
        <time>2026-03-25T09:42:16Z</time>
      </trkpt>
      <trkpt lat="44.6908" lon="6.85534">
        <ele>2093.9</ele>
        <time>2026-03-25T09:42:17Z</time>
      </trkpt>
      <trkpt lat="44.69081" lon="6.85534">
        <ele>2094</ele>
        <time>2026-03-25T09:42:18Z</time>
      </trkpt>
      <trkpt lat="44.69081" lon="6.85535">
        <ele>2094.1</ele>
        <time>2026-03-25T09:42:19Z</time>
      </trkpt>
      <trkpt lat="44.69081" lon="6.85535">
        <ele>2094.2</ele>
        <time>2026-03-25T09:42:20Z</time>
      </trkpt>
      <trkpt lat="44.69082" lon="6.85536">
        <ele>2094.3</ele>
        <time>2026-03-25T09:42:21Z</time>
      </trkpt>
      <trkpt lat="44.69083" lon="6.85536">
        <ele>2094.5</ele>
        <time>2026-03-25T09:42:22Z</time>
      </trkpt>
      <trkpt lat="44.69083" lon="6.85537">
        <ele>2094.6</ele>
        <time>2026-03-25T09:42:23Z</time>
      </trkpt>
      <trkpt lat="44.69084" lon="6.85537">
        <ele>2094.7</ele>
        <time>2026-03-25T09:42:24Z</time>
      </trkpt>
      <trkpt lat="44.69084" lon="6.85538">
        <ele>2094.8</ele>
        <time>2026-03-25T09:42:25Z</time>
      </trkpt>
      <trkpt lat="44.69085" lon="6.85538">
        <ele>2094.9</ele>
        <time>2026-03-25T09:42:26Z</time>
      </trkpt>
      <trkpt lat="44.69084" lon="6.85538">
        <ele>2095</ele>
        <time>2026-03-25T09:42:27Z</time>
      </trkpt>
      <trkpt lat="44.69085" lon="6.85539">
        <ele>2095.1</ele>
        <time>2026-03-25T09:42:28Z</time>
      </trkpt>
      <trkpt lat="44.69085" lon="6.85539">
        <ele>2095.1</ele>
        <time>2026-03-25T09:42:29Z</time>
      </trkpt>
      <trkpt lat="44.69085" lon="6.85539">
        <ele>2095.2</ele>
        <time>2026-03-25T09:42:30Z</time>
      </trkpt>
      <trkpt lat="44.69086" lon="6.8554">
        <ele>2095.3</ele>
        <time>2026-03-25T09:42:31Z</time>
      </trkpt>
      <trkpt lat="44.69086" lon="6.8554">
        <ele>2095.3</ele>
        <time>2026-03-25T09:42:32Z</time>
      </trkpt>
      <trkpt lat="44.69086" lon="6.85541">
        <ele>2095.4</ele>
        <time>2026-03-25T09:42:33Z</time>
      </trkpt>
      <trkpt lat="44.69086" lon="6.85541">
        <ele>2095.5</ele>
        <time>2026-03-25T09:42:34Z</time>
      </trkpt>
      <trkpt lat="44.69086" lon="6.85542">
        <ele>2095.6</ele>
        <time>2026-03-25T09:42:35Z</time>
      </trkpt>
      <trkpt lat="44.69086" lon="6.85542">
        <ele>2095.6</ele>
        <time>2026-03-25T09:42:36Z</time>
      </trkpt>
      <trkpt lat="44.69086" lon="6.85543">
        <ele>2095.7</ele>
        <time>2026-03-25T09:42:37Z</time>
      </trkpt>
      <trkpt lat="44.69086" lon="6.85544">
        <ele>2095.8</ele>
        <time>2026-03-25T09:42:38Z</time>
      </trkpt>
      <trkpt lat="44.69086" lon="6.85544">
        <ele>2095.9</ele>
        <time>2026-03-25T09:42:39Z</time>
      </trkpt>
      <trkpt lat="44.69086" lon="6.85545">
        <ele>2095.9</ele>
        <time>2026-03-25T09:42:40Z</time>
      </trkpt>
      <trkpt lat="44.69086" lon="6.85545">
        <ele>2096</ele>
        <time>2026-03-25T09:42:41Z</time>
      </trkpt>
      <trkpt lat="44.69086" lon="6.85546">
        <ele>2096.1</ele>
        <time>2026-03-25T09:42:42Z</time>
      </trkpt>
      <trkpt lat="44.69086" lon="6.85546">
        <ele>2096.1</ele>
        <time>2026-03-25T09:42:43Z</time>
      </trkpt>
      <trkpt lat="44.69086" lon="6.85546">
        <ele>2096.1</ele>
        <time>2026-03-25T09:42:44Z</time>
      </trkpt>
      <trkpt lat="44.69087" lon="6.85547">
        <ele>2096.2</ele>
        <time>2026-03-25T09:42:45Z</time>
      </trkpt>
      <trkpt lat="44.69087" lon="6.85548">
        <ele>2096.3</ele>
        <time>2026-03-25T09:42:46Z</time>
      </trkpt>
      <trkpt lat="44.69087" lon="6.85548">
        <ele>2096.4</ele>
        <time>2026-03-25T09:42:47Z</time>
      </trkpt>
      <trkpt lat="44.69087" lon="6.85549">
        <ele>2096.5</ele>
        <time>2026-03-25T09:42:48Z</time>
      </trkpt>
      <trkpt lat="44.69087" lon="6.8555">
        <ele>2096.6</ele>
        <time>2026-03-25T09:42:49Z</time>
      </trkpt>
      <trkpt lat="44.69087" lon="6.8555">
        <ele>2096.6</ele>
        <time>2026-03-25T09:42:50Z</time>
      </trkpt>
      <trkpt lat="44.69087" lon="6.8555">
        <ele>2096.7</ele>
        <time>2026-03-25T09:42:51Z</time>
      </trkpt>
      <trkpt lat="44.69087" lon="6.85551">
        <ele>2096.8</ele>
        <time>2026-03-25T09:42:52Z</time>
      </trkpt>
      <trkpt lat="44.69087" lon="6.85552">
        <ele>2096.8</ele>
        <time>2026-03-25T09:42:53Z</time>
      </trkpt>
      <trkpt lat="44.69087" lon="6.85552">
        <ele>2096.9</ele>
        <time>2026-03-25T09:42:54Z</time>
      </trkpt>
      <trkpt lat="44.69087" lon="6.85553">
        <ele>2097</ele>
        <time>2026-03-25T09:42:55Z</time>
      </trkpt>
      <trkpt lat="44.69087" lon="6.85554">
        <ele>2097.1</ele>
        <time>2026-03-25T09:42:56Z</time>
      </trkpt>
      <trkpt lat="44.69087" lon="6.85555">
        <ele>2097.2</ele>
        <time>2026-03-25T09:42:57Z</time>
      </trkpt>
      <trkpt lat="44.69088" lon="6.85555">
        <ele>2097.3</ele>
        <time>2026-03-25T09:42:58Z</time>
      </trkpt>
      <trkpt lat="44.69088" lon="6.85556">
        <ele>2097.4</ele>
        <time>2026-03-25T09:42:59Z</time>
      </trkpt>
      <trkpt lat="44.69088" lon="6.85556">
        <ele>2097.4</ele>
        <time>2026-03-25T09:43:00Z</time>
      </trkpt>
      <trkpt lat="44.69088" lon="6.85557">
        <ele>2097.5</ele>
        <time>2026-03-25T09:43:01Z</time>
      </trkpt>
      <trkpt lat="44.69088" lon="6.85558">
        <ele>2097.6</ele>
        <time>2026-03-25T09:43:02Z</time>
      </trkpt>
      <trkpt lat="44.69088" lon="6.85558">
        <ele>2097.6</ele>
        <time>2026-03-25T09:43:03Z</time>
      </trkpt>
      <trkpt lat="44.69088" lon="6.85559">
        <ele>2097.7</ele>
        <time>2026-03-25T09:43:04Z</time>
      </trkpt>
      <trkpt lat="44.69088" lon="6.85559">
        <ele>2097.8</ele>
        <time>2026-03-25T09:43:05Z</time>
      </trkpt>
      <trkpt lat="44.69088" lon="6.8556">
        <ele>2097.9</ele>
        <time>2026-03-25T09:43:06Z</time>
      </trkpt>
      <trkpt lat="44.69088" lon="6.8556">
        <ele>2098</ele>
        <time>2026-03-25T09:43:07Z</time>
      </trkpt>
      <trkpt lat="44.69088" lon="6.85561">
        <ele>2098.1</ele>
        <time>2026-03-25T09:43:08Z</time>
      </trkpt>
      <trkpt lat="44.69089" lon="6.85561">
        <ele>2098.1</ele>
        <time>2026-03-25T09:43:09Z</time>
      </trkpt>
      <trkpt lat="44.69089" lon="6.85562">
        <ele>2098.2</ele>
        <time>2026-03-25T09:43:10Z</time>
      </trkpt>
      <trkpt lat="44.69089" lon="6.85563">
        <ele>2098.3</ele>
        <time>2026-03-25T09:43:11Z</time>
      </trkpt>
      <trkpt lat="44.69089" lon="6.85563">
        <ele>2098.4</ele>
        <time>2026-03-25T09:43:12Z</time>
      </trkpt>
      <trkpt lat="44.69089" lon="6.85564">
        <ele>2098.5</ele>
        <time>2026-03-25T09:43:13Z</time>
      </trkpt>
      <trkpt lat="44.69089" lon="6.85564">
        <ele>2098.5</ele>
        <time>2026-03-25T09:43:14Z</time>
      </trkpt>
      <trkpt lat="44.6909" lon="6.85565">
        <ele>2098.7</ele>
        <time>2026-03-25T09:43:15Z</time>
      </trkpt>
      <trkpt lat="44.6909" lon="6.85566">
        <ele>2098.8</ele>
        <time>2026-03-25T09:43:16Z</time>
      </trkpt>
      <trkpt lat="44.6909" lon="6.85567">
        <ele>2098.9</ele>
        <time>2026-03-25T09:43:17Z</time>
      </trkpt>
      <trkpt lat="44.6909" lon="6.85568">
        <ele>2099</ele>
        <time>2026-03-25T09:43:18Z</time>
      </trkpt>
      <trkpt lat="44.6909" lon="6.85568">
        <ele>2099.1</ele>
        <time>2026-03-25T09:43:19Z</time>
      </trkpt>
      <trkpt lat="44.6909" lon="6.85569">
        <ele>2099.2</ele>
        <time>2026-03-25T09:43:20Z</time>
      </trkpt>
      <trkpt lat="44.6909" lon="6.8557">
        <ele>2099.3</ele>
        <time>2026-03-25T09:43:21Z</time>
      </trkpt>
      <trkpt lat="44.6909" lon="6.8557">
        <ele>2099.3</ele>
        <time>2026-03-25T09:43:22Z</time>
      </trkpt>
      <trkpt lat="44.6909" lon="6.85571">
        <ele>2099.4</ele>
        <time>2026-03-25T09:43:23Z</time>
      </trkpt>
      <trkpt lat="44.6909" lon="6.85572">
        <ele>2099.5</ele>
        <time>2026-03-25T09:43:24Z</time>
      </trkpt>
      <trkpt lat="44.6909" lon="6.85572">
        <ele>2099.7</ele>
        <time>2026-03-25T09:43:25Z</time>
      </trkpt>
      <trkpt lat="44.6909" lon="6.85573">
        <ele>2099.8</ele>
        <time>2026-03-25T09:43:26Z</time>
      </trkpt>
      <trkpt lat="44.6909" lon="6.85574">
        <ele>2099.9</ele>
        <time>2026-03-25T09:43:27Z</time>
      </trkpt>
      <trkpt lat="44.69089" lon="6.85575">
        <ele>2100</ele>
        <time>2026-03-25T09:43:28Z</time>
      </trkpt>
      <trkpt lat="44.69089" lon="6.85576">
        <ele>2100.2</ele>
        <time>2026-03-25T09:43:29Z</time>
      </trkpt>
      <trkpt lat="44.69089" lon="6.85577">
        <ele>2100.3</ele>
        <time>2026-03-25T09:43:30Z</time>
      </trkpt>
      <trkpt lat="44.69089" lon="6.85577">
        <ele>2100.4</ele>
        <time>2026-03-25T09:43:31Z</time>
      </trkpt>
      <trkpt lat="44.69088" lon="6.85578">
        <ele>2100.5</ele>
        <time>2026-03-25T09:43:32Z</time>
      </trkpt>
      <trkpt lat="44.69088" lon="6.85578">
        <ele>2100.5</ele>
        <time>2026-03-25T09:43:33Z</time>
      </trkpt>
      <trkpt lat="44.69088" lon="6.85578">
        <ele>2100.5</ele>
        <time>2026-03-25T09:43:34Z</time>
      </trkpt>
      <trkpt lat="44.69088" lon="6.85579">
        <ele>2100.6</ele>
        <time>2026-03-25T09:43:35Z</time>
      </trkpt>
      <trkpt lat="44.69087" lon="6.8558">
        <ele>2100.8</ele>
        <time>2026-03-25T09:43:36Z</time>
      </trkpt>
      <trkpt lat="44.69087" lon="6.8558">
        <ele>2100.9</ele>
        <time>2026-03-25T09:43:37Z</time>
      </trkpt>
      <trkpt lat="44.69087" lon="6.85581">
        <ele>2101</ele>
        <time>2026-03-25T09:43:38Z</time>
      </trkpt>
      <trkpt lat="44.69087" lon="6.85581">
        <ele>2101.1</ele>
        <time>2026-03-25T09:43:39Z</time>
      </trkpt>
      <trkpt lat="44.69087" lon="6.85582">
        <ele>2101.3</ele>
        <time>2026-03-25T09:43:40Z</time>
      </trkpt>
      <trkpt lat="44.69087" lon="6.85582">
        <ele>2101.3</ele>
        <time>2026-03-25T09:43:41Z</time>
      </trkpt>
      <trkpt lat="44.69087" lon="6.85584">
        <ele>2101.6</ele>
        <time>2026-03-25T09:43:42Z</time>
      </trkpt>
      <trkpt lat="44.69087" lon="6.85584">
        <ele>2101.6</ele>
        <time>2026-03-25T09:43:43Z</time>
      </trkpt>
      <trkpt lat="44.69086" lon="6.85585">
        <ele>2101.8</ele>
        <time>2026-03-25T09:43:44Z</time>
      </trkpt>
      <trkpt lat="44.69086" lon="6.85586">
        <ele>2101.9</ele>
        <time>2026-03-25T09:43:45Z</time>
      </trkpt>
      <trkpt lat="44.69086" lon="6.85587">
        <ele>2102.1</ele>
        <time>2026-03-25T09:43:46Z</time>
      </trkpt>
      <trkpt lat="44.69086" lon="6.85588">
        <ele>2102.2</ele>
        <time>2026-03-25T09:43:47Z</time>
      </trkpt>
      <trkpt lat="44.69085" lon="6.85588">
        <ele>2102.4</ele>
        <time>2026-03-25T09:43:48Z</time>
      </trkpt>
      <trkpt lat="44.69085" lon="6.85589">
        <ele>2102.5</ele>
        <time>2026-03-25T09:43:49Z</time>
      </trkpt>
      <trkpt lat="44.69084" lon="6.85589">
        <ele>2102.6</ele>
        <time>2026-03-25T09:43:50Z</time>
      </trkpt>
      <trkpt lat="44.69083" lon="6.85589">
        <ele>2102.8</ele>
        <time>2026-03-25T09:43:51Z</time>
      </trkpt>
      <trkpt lat="44.69083" lon="6.8559">
        <ele>2102.9</ele>
        <time>2026-03-25T09:43:52Z</time>
      </trkpt>
      <trkpt lat="44.69082" lon="6.8559">
        <ele>2103.1</ele>
        <time>2026-03-25T09:43:53Z</time>
      </trkpt>
      <trkpt lat="44.69082" lon="6.8559">
        <ele>2103.2</ele>
        <time>2026-03-25T09:43:54Z</time>
      </trkpt>
      <trkpt lat="44.69081" lon="6.85591">
        <ele>2103.3</ele>
        <time>2026-03-25T09:43:55Z</time>
      </trkpt>
      <trkpt lat="44.6908" lon="6.85591">
        <ele>2103.4</ele>
        <time>2026-03-25T09:43:56Z</time>
      </trkpt>
      <trkpt lat="44.6908" lon="6.85591">
        <ele>2103.5</ele>
        <time>2026-03-25T09:43:57Z</time>
      </trkpt>
      <trkpt lat="44.6908" lon="6.85591">
        <ele>2103.6</ele>
        <time>2026-03-25T09:43:58Z</time>
      </trkpt>
      <trkpt lat="44.69079" lon="6.85591">
        <ele>2103.7</ele>
        <time>2026-03-25T09:43:59Z</time>
      </trkpt>
      <trkpt lat="44.69079" lon="6.85591">
        <ele>2103.8</ele>
        <time>2026-03-25T09:44:00Z</time>
      </trkpt>
      <trkpt lat="44.69078" lon="6.85591">
        <ele>2103.9</ele>
        <time>2026-03-25T09:44:01Z</time>
      </trkpt>
      <trkpt lat="44.69078" lon="6.85591">
        <ele>2104</ele>
        <time>2026-03-25T09:44:02Z</time>
      </trkpt>
      <trkpt lat="44.69077" lon="6.85591">
        <ele>2104.2</ele>
        <time>2026-03-25T09:44:03Z</time>
      </trkpt>
      <trkpt lat="44.69077" lon="6.85592">
        <ele>2104.3</ele>
        <time>2026-03-25T09:44:04Z</time>
      </trkpt>
      <trkpt lat="44.69076" lon="6.85592">
        <ele>2104.4</ele>
        <time>2026-03-25T09:44:05Z</time>
      </trkpt>
      <trkpt lat="44.69075" lon="6.85592">
        <ele>2104.6</ele>
        <time>2026-03-25T09:44:06Z</time>
      </trkpt>
      <trkpt lat="44.69075" lon="6.85593">
        <ele>2104.7</ele>
        <time>2026-03-25T09:44:07Z</time>
      </trkpt>
      <trkpt lat="44.69074" lon="6.85593">
        <ele>2104.8</ele>
        <time>2026-03-25T09:44:08Z</time>
      </trkpt>
      <trkpt lat="44.69074" lon="6.85594">
        <ele>2105</ele>
        <time>2026-03-25T09:44:09Z</time>
      </trkpt>
      <trkpt lat="44.69073" lon="6.85594">
        <ele>2105</ele>
        <time>2026-03-25T09:44:10Z</time>
      </trkpt>
      <trkpt lat="44.69073" lon="6.85594">
        <ele>2105.2</ele>
        <time>2026-03-25T09:44:11Z</time>
      </trkpt>
      <trkpt lat="44.69072" lon="6.85595">
        <ele>2105.3</ele>
        <time>2026-03-25T09:44:12Z</time>
      </trkpt>
      <trkpt lat="44.69072" lon="6.85595">
        <ele>2105.4</ele>
        <time>2026-03-25T09:44:13Z</time>
      </trkpt>
      <trkpt lat="44.69071" lon="6.85595">
        <ele>2105.6</ele>
        <time>2026-03-25T09:44:14Z</time>
      </trkpt>
      <trkpt lat="44.6907" lon="6.85595">
        <ele>2105.7</ele>
        <time>2026-03-25T09:44:15Z</time>
      </trkpt>
      <trkpt lat="44.69069" lon="6.85596">
        <ele>2105.9</ele>
        <time>2026-03-25T09:44:16Z</time>
      </trkpt>
      <trkpt lat="44.69069" lon="6.85596">
        <ele>2106</ele>
        <time>2026-03-25T09:44:17Z</time>
      </trkpt>
      <trkpt lat="44.69068" lon="6.85596">
        <ele>2106.2</ele>
        <time>2026-03-25T09:44:18Z</time>
      </trkpt>
      <trkpt lat="44.69068" lon="6.85596">
        <ele>2106.3</ele>
        <time>2026-03-25T09:44:19Z</time>
      </trkpt>
      <trkpt lat="44.69067" lon="6.85596">
        <ele>2106.3</ele>
        <time>2026-03-25T09:44:20Z</time>
      </trkpt>
      <trkpt lat="44.69067" lon="6.85596">
        <ele>2106.4</ele>
        <time>2026-03-25T09:44:21Z</time>
      </trkpt>
      <trkpt lat="44.69067" lon="6.85597">
        <ele>2106.5</ele>
        <time>2026-03-25T09:44:22Z</time>
      </trkpt>
      <trkpt lat="44.69066" lon="6.85597">
        <ele>2106.6</ele>
        <time>2026-03-25T09:44:23Z</time>
      </trkpt>
      <trkpt lat="44.69066" lon="6.85597">
        <ele>2106.7</ele>
        <time>2026-03-25T09:44:24Z</time>
      </trkpt>
      <trkpt lat="44.69066" lon="6.85597">
        <ele>2106.8</ele>
        <time>2026-03-25T09:44:25Z</time>
      </trkpt>
      <trkpt lat="44.69065" lon="6.85597">
        <ele>2106.8</ele>
        <time>2026-03-25T09:44:26Z</time>
      </trkpt>
      <trkpt lat="44.69065" lon="6.85597">
        <ele>2106.8</ele>
        <time>2026-03-25T09:44:27Z</time>
      </trkpt>
      <trkpt lat="44.69065" lon="6.85597">
        <ele>2106.9</ele>
        <time>2026-03-25T09:44:28Z</time>
      </trkpt>
      <trkpt lat="44.69065" lon="6.85597">
        <ele>2107</ele>
        <time>2026-03-25T09:44:29Z</time>
      </trkpt>
      <trkpt lat="44.69064" lon="6.85597">
        <ele>2107.1</ele>
        <time>2026-03-25T09:44:30Z</time>
      </trkpt>
      <trkpt lat="44.69064" lon="6.85597">
        <ele>2107.1</ele>
        <time>2026-03-25T09:44:31Z</time>
      </trkpt>
      <trkpt lat="44.69063" lon="6.85597">
        <ele>2107.2</ele>
        <time>2026-03-25T09:44:32Z</time>
      </trkpt>
      <trkpt lat="44.69063" lon="6.85597">
        <ele>2107.2</ele>
        <time>2026-03-25T09:44:33Z</time>
      </trkpt>
      <trkpt lat="44.69063" lon="6.85597">
        <ele>2107.3</ele>
        <time>2026-03-25T09:44:34Z</time>
      </trkpt>
      <trkpt lat="44.69063" lon="6.85597">
        <ele>2107.3</ele>
        <time>2026-03-25T09:44:35Z</time>
      </trkpt>
      <trkpt lat="44.69062" lon="6.85598">
        <ele>2107.5</ele>
        <time>2026-03-25T09:44:36Z</time>
      </trkpt>
      <trkpt lat="44.69061" lon="6.85598">
        <ele>2107.6</ele>
        <time>2026-03-25T09:44:37Z</time>
      </trkpt>
      <trkpt lat="44.69061" lon="6.85599">
        <ele>2107.7</ele>
        <time>2026-03-25T09:44:38Z</time>
      </trkpt>
      <trkpt lat="44.6906" lon="6.85599">
        <ele>2107.8</ele>
        <time>2026-03-25T09:44:39Z</time>
      </trkpt>
      <trkpt lat="44.6906" lon="6.85599">
        <ele>2107.9</ele>
        <time>2026-03-25T09:44:40Z</time>
      </trkpt>
      <trkpt lat="44.6906" lon="6.85599">
        <ele>2108</ele>
        <time>2026-03-25T09:44:41Z</time>
      </trkpt>
      <trkpt lat="44.69059" lon="6.856">
        <ele>2108.1</ele>
        <time>2026-03-25T09:44:42Z</time>
      </trkpt>
      <trkpt lat="44.69059" lon="6.85599">
        <ele>2108.2</ele>
        <time>2026-03-25T09:44:43Z</time>
      </trkpt>
      <trkpt lat="44.69058" lon="6.856">
        <ele>2108.2</ele>
        <time>2026-03-25T09:44:44Z</time>
      </trkpt>
      <trkpt lat="44.69058" lon="6.85601">
        <ele>2108.3</ele>
        <time>2026-03-25T09:44:45Z</time>
      </trkpt>
      <trkpt lat="44.69058" lon="6.85602">
        <ele>2108.5</ele>
        <time>2026-03-25T09:44:46Z</time>
      </trkpt>
      <trkpt lat="44.69058" lon="6.85602">
        <ele>2108.5</ele>
        <time>2026-03-25T09:44:47Z</time>
      </trkpt>
      <trkpt lat="44.69057" lon="6.85603">
        <ele>2108.7</ele>
        <time>2026-03-25T09:44:48Z</time>
      </trkpt>
      <trkpt lat="44.69057" lon="6.85603">
        <ele>2108.8</ele>
        <time>2026-03-25T09:44:49Z</time>
      </trkpt>
      <trkpt lat="44.69057" lon="6.85604">
        <ele>2108.9</ele>
        <time>2026-03-25T09:44:50Z</time>
      </trkpt>
      <trkpt lat="44.69056" lon="6.85604">
        <ele>2108.9</ele>
        <time>2026-03-25T09:44:51Z</time>
      </trkpt>
      <trkpt lat="44.69056" lon="6.85605">
        <ele>2109</ele>
        <time>2026-03-25T09:44:52Z</time>
      </trkpt>
      <trkpt lat="44.69056" lon="6.85606">
        <ele>2109.1</ele>
        <time>2026-03-25T09:44:53Z</time>
      </trkpt>
      <trkpt lat="44.69056" lon="6.85607">
        <ele>2109.2</ele>
        <time>2026-03-25T09:44:54Z</time>
      </trkpt>
      <trkpt lat="44.69056" lon="6.85607">
        <ele>2109.3</ele>
        <time>2026-03-25T09:44:55Z</time>
      </trkpt>
      <trkpt lat="44.69056" lon="6.85608">
        <ele>2109.4</ele>
        <time>2026-03-25T09:44:56Z</time>
      </trkpt>
      <trkpt lat="44.69056" lon="6.85609">
        <ele>2109.5</ele>
        <time>2026-03-25T09:44:57Z</time>
      </trkpt>
      <trkpt lat="44.69056" lon="6.85609">
        <ele>2109.5</ele>
        <time>2026-03-25T09:44:58Z</time>
      </trkpt>
      <trkpt lat="44.69055" lon="6.8561">
        <ele>2109.6</ele>
        <time>2026-03-25T09:44:59Z</time>
      </trkpt>
      <trkpt lat="44.69055" lon="6.8561">
        <ele>2109.6</ele>
        <time>2026-03-25T09:45:00Z</time>
      </trkpt>
      <trkpt lat="44.69055" lon="6.85611">
        <ele>2109.8</ele>
        <time>2026-03-25T09:45:01Z</time>
      </trkpt>
      <trkpt lat="44.69055" lon="6.85611">
        <ele>2109.8</ele>
        <time>2026-03-25T09:45:02Z</time>
      </trkpt>
      <trkpt lat="44.69055" lon="6.85612">
        <ele>2109.9</ele>
        <time>2026-03-25T09:45:03Z</time>
      </trkpt>
      <trkpt lat="44.69055" lon="6.85612">
        <ele>2109.9</ele>
        <time>2026-03-25T09:45:04Z</time>
      </trkpt>
      <trkpt lat="44.69055" lon="6.85613">
        <ele>2109.9</ele>
        <time>2026-03-25T09:45:05Z</time>
      </trkpt>
      <trkpt lat="44.69055" lon="6.85614">
        <ele>2109.9</ele>
        <time>2026-03-25T09:45:06Z</time>
      </trkpt>
      <trkpt lat="44.69055" lon="6.85615">
        <ele>2109.9</ele>
        <time>2026-03-25T09:45:07Z</time>
      </trkpt>
      <trkpt lat="44.69055" lon="6.85616">
        <ele>2111</ele>
        <time>2026-03-25T09:45:08Z</time>
      </trkpt>
      <trkpt lat="44.69054" lon="6.85616">
        <ele>2111</ele>
        <time>2026-03-25T09:45:09Z</time>
      </trkpt>
      <trkpt lat="44.69054" lon="6.85617">
        <ele>2111</ele>
        <time>2026-03-25T09:45:10Z</time>
      </trkpt>
      <trkpt lat="44.69054" lon="6.85617">
        <ele>2111</ele>
        <time>2026-03-25T09:45:11Z</time>
      </trkpt>
      <trkpt lat="44.69054" lon="6.85617">
        <ele>2111</ele>
        <time>2026-03-25T09:45:12Z</time>
      </trkpt>
      <trkpt lat="44.69054" lon="6.85618">
        <ele>2111</ele>
        <time>2026-03-25T09:45:13Z</time>
      </trkpt>
      <trkpt lat="44.69054" lon="6.85618">
        <ele>2111</ele>
        <time>2026-03-25T09:45:14Z</time>
      </trkpt>
      <trkpt lat="44.69054" lon="6.85619">
        <ele>2111</ele>
        <time>2026-03-25T09:45:15Z</time>
      </trkpt>
      <trkpt lat="44.69054" lon="6.8562">
        <ele>2112.1</ele>
        <time>2026-03-25T09:45:16Z</time>
      </trkpt>
      <trkpt lat="44.69054" lon="6.85621">
        <ele>2112.1</ele>
        <time>2026-03-25T09:45:17Z</time>
      </trkpt>
      <trkpt lat="44.69054" lon="6.85622">
        <ele>2112.1</ele>
        <time>2026-03-25T09:45:18Z</time>
      </trkpt>
      <trkpt lat="44.69054" lon="6.85622">
        <ele>2112.1</ele>
        <time>2026-03-25T09:45:19Z</time>
      </trkpt>
      <trkpt lat="44.69054" lon="6.85623">
        <ele>2112.1</ele>
        <time>2026-03-25T09:45:20Z</time>
      </trkpt>
      <trkpt lat="44.69053" lon="6.85623">
        <ele>2112.1</ele>
        <time>2026-03-25T09:45:21Z</time>
      </trkpt>
      <trkpt lat="44.69053" lon="6.85624">
        <ele>2113.3</ele>
        <time>2026-03-25T09:45:22Z</time>
      </trkpt>
      <trkpt lat="44.69053" lon="6.85625">
        <ele>2113.1</ele>
        <time>2026-03-25T09:45:23Z</time>
      </trkpt>
      <trkpt lat="44.69053" lon="6.85626">
        <ele>2113.1</ele>
        <time>2026-03-25T09:45:24Z</time>
      </trkpt>
      <trkpt lat="44.69053" lon="6.85626">
        <ele>2113.3</ele>
        <time>2026-03-25T09:45:25Z</time>
      </trkpt>
      <trkpt lat="44.69053" lon="6.85627">
        <ele>2113.3</ele>
        <time>2026-03-25T09:45:26Z</time>
      </trkpt>
      <trkpt lat="44.69053" lon="6.85627">
        <ele>2113.3</ele>
        <time>2026-03-25T09:45:27Z</time>
      </trkpt>
      <trkpt lat="44.69054" lon="6.85628">
        <ele>2113.3</ele>
        <time>2026-03-25T09:45:28Z</time>
      </trkpt>
      <trkpt lat="44.69054" lon="6.85628">
        <ele>2113.3</ele>
        <time>2026-03-25T09:45:29Z</time>
      </trkpt>
      <trkpt lat="44.69054" lon="6.85629">
        <ele>2114.4</ele>
        <time>2026-03-25T09:45:30Z</time>
      </trkpt>
      <trkpt lat="44.69054" lon="6.85629">
        <ele>2114.4</ele>
        <time>2026-03-25T09:45:31Z</time>
      </trkpt>
      <trkpt lat="44.69054" lon="6.85629">
        <ele>2114.4</ele>
        <time>2026-03-25T09:45:32Z</time>
      </trkpt>
      <trkpt lat="44.69054" lon="6.8563">
        <ele>2114.4</ele>
        <time>2026-03-25T09:45:33Z</time>
      </trkpt>
      <trkpt lat="44.69054" lon="6.8563">
        <ele>2114.4</ele>
        <time>2026-03-25T09:45:34Z</time>
      </trkpt>
      <trkpt lat="44.69055" lon="6.85631">
        <ele>2114.4</ele>
        <time>2026-03-25T09:45:35Z</time>
      </trkpt>
      <trkpt lat="44.69055" lon="6.85631">
        <ele>2114.4</ele>
        <time>2026-03-25T09:45:36Z</time>
      </trkpt>
      <trkpt lat="44.69055" lon="6.85632">
        <ele>2114.4</ele>
        <time>2026-03-25T09:45:37Z</time>
      </trkpt>
      <trkpt lat="44.69055" lon="6.85632">
        <ele>2114.4</ele>
        <time>2026-03-25T09:45:38Z</time>
      </trkpt>
      <trkpt lat="44.69055" lon="6.85633">
        <ele>2114.4</ele>
        <time>2026-03-25T09:45:39Z</time>
      </trkpt>
      <trkpt lat="44.69055" lon="6.85633">
        <ele>2115.4</ele>
        <time>2026-03-25T09:45:40Z</time>
      </trkpt>
      <trkpt lat="44.69055" lon="6.85634">
        <ele>2115.4</ele>
        <time>2026-03-25T09:45:41Z</time>
      </trkpt>
      <trkpt lat="44.69055" lon="6.85635">
        <ele>2115.4</ele>
        <time>2026-03-25T09:45:42Z</time>
      </trkpt>
      <trkpt lat="44.69055" lon="6.85636">
        <ele>2115.4</ele>
        <time>2026-03-25T09:45:43Z</time>
      </trkpt>
      <trkpt lat="44.69055" lon="6.85636">
        <ele>2115.4</ele>
        <time>2026-03-25T09:45:44Z</time>
      </trkpt>
      <trkpt lat="44.69055" lon="6.85637">
        <ele>2115.4</ele>
        <time>2026-03-25T09:45:45Z</time>
      </trkpt>
      <trkpt lat="44.69055" lon="6.85637">
        <ele>2115.4</ele>
        <time>2026-03-25T09:45:46Z</time>
      </trkpt>
      <trkpt lat="44.69054" lon="6.85638">
        <ele>2116.5</ele>
        <time>2026-03-25T09:45:47Z</time>
      </trkpt>
      <trkpt lat="44.69054" lon="6.85638">
        <ele>2116.5</ele>
        <time>2026-03-25T09:45:48Z</time>
      </trkpt>
      <trkpt lat="44.69054" lon="6.85639">
        <ele>2116.5</ele>
        <time>2026-03-25T09:45:49Z</time>
      </trkpt>
      <trkpt lat="44.69054" lon="6.8564">
        <ele>2116.5</ele>
        <time>2026-03-25T09:45:50Z</time>
      </trkpt>
      <trkpt lat="44.69054" lon="6.85641">
        <ele>2116.5</ele>
        <time>2026-03-25T09:45:51Z</time>
      </trkpt>
      <trkpt lat="44.69054" lon="6.85641">
        <ele>2116.5</ele>
        <time>2026-03-25T09:45:52Z</time>
      </trkpt>
      <trkpt lat="44.69053" lon="6.85642">
        <ele>2117.4</ele>
        <time>2026-03-25T09:45:53Z</time>
      </trkpt>
      <trkpt lat="44.69053" lon="6.85642">
        <ele>2117.4</ele>
        <time>2026-03-25T09:45:54Z</time>
      </trkpt>
      <trkpt lat="44.69053" lon="6.85643">
        <ele>2117.4</ele>
        <time>2026-03-25T09:45:55Z</time>
      </trkpt>
      <trkpt lat="44.69052" lon="6.85643">
        <ele>2117.4</ele>
        <time>2026-03-25T09:45:56Z</time>
      </trkpt>
      <trkpt lat="44.69052" lon="6.85643">
        <ele>2117.4</ele>
        <time>2026-03-25T09:45:57Z</time>
      </trkpt>
      <trkpt lat="44.69052" lon="6.85644">
        <ele>2117.4</ele>
        <time>2026-03-25T09:45:58Z</time>
      </trkpt>
      <trkpt lat="44.69051" lon="6.85644">
        <ele>2117.4</ele>
        <time>2026-03-25T09:45:59Z</time>
      </trkpt>
      <trkpt lat="44.69051" lon="6.85644">
        <ele>2117.4</ele>
        <time>2026-03-25T09:46:00Z</time>
      </trkpt>
      <trkpt lat="44.69051" lon="6.85645">
        <ele>2117.4</ele>
        <time>2026-03-25T09:46:01Z</time>
      </trkpt>
      <trkpt lat="44.6905" lon="6.85645">
        <ele>2117.4</ele>
        <time>2026-03-25T09:46:02Z</time>
      </trkpt>
      <trkpt lat="44.6905" lon="6.85645">
        <ele>2117.3</ele>
        <time>2026-03-25T09:46:03Z</time>
      </trkpt>
      <trkpt lat="44.6905" lon="6.85646">
        <ele>2118.3</ele>
        <time>2026-03-25T09:46:04Z</time>
      </trkpt>
      <trkpt lat="44.6905" lon="6.85646">
        <ele>2118.3</ele>
        <time>2026-03-25T09:46:05Z</time>
      </trkpt>
      <trkpt lat="44.69049" lon="6.85647">
        <ele>2118.3</ele>
        <time>2026-03-25T09:46:06Z</time>
      </trkpt>
      <trkpt lat="44.69049" lon="6.85648">
        <ele>2118.3</ele>
        <time>2026-03-25T09:46:07Z</time>
      </trkpt>
      <trkpt lat="44.69048" lon="6.85649">
        <ele>2118.3</ele>
        <time>2026-03-25T09:46:08Z</time>
      </trkpt>
      <trkpt lat="44.69048" lon="6.85649">
        <ele>2118.3</ele>
        <time>2026-03-25T09:46:09Z</time>
      </trkpt>
      <trkpt lat="44.69047" lon="6.8565">
        <ele>2119.3</ele>
        <time>2026-03-25T09:46:10Z</time>
      </trkpt>
      <trkpt lat="44.69047" lon="6.85651">
        <ele>2119.3</ele>
        <time>2026-03-25T09:46:11Z</time>
      </trkpt>
      <trkpt lat="44.69047" lon="6.85651">
        <ele>2119.3</ele>
        <time>2026-03-25T09:46:12Z</time>
      </trkpt>
      <trkpt lat="44.69047" lon="6.85651">
        <ele>2119.3</ele>
        <time>2026-03-25T09:46:13Z</time>
      </trkpt>
      <trkpt lat="44.69046" lon="6.85652">
        <ele>2119.3</ele>
        <time>2026-03-25T09:46:14Z</time>
      </trkpt>
      <trkpt lat="44.69046" lon="6.85652">
        <ele>2119.3</ele>
        <time>2026-03-25T09:46:15Z</time>
      </trkpt>
      <trkpt lat="44.69046" lon="6.85653">
        <ele>2119.3</ele>
        <time>2026-03-25T09:46:16Z</time>
      </trkpt>
      <trkpt lat="44.69045" lon="6.85654">
        <ele>2119.3</ele>
        <time>2026-03-25T09:46:17Z</time>
      </trkpt>
      <trkpt lat="44.69045" lon="6.85654">
        <ele>2119.3</ele>
        <time>2026-03-25T09:46:18Z</time>
      </trkpt>
      <trkpt lat="44.69044" lon="6.85654">
        <ele>2120.4</ele>
        <time>2026-03-25T09:46:19Z</time>
      </trkpt>
      <trkpt lat="44.69044" lon="6.85655">
        <ele>2120.3</ele>
        <time>2026-03-25T09:46:20Z</time>
      </trkpt>
      <trkpt lat="44.69043" lon="6.85656">
        <ele>2120.3</ele>
        <time>2026-03-25T09:46:21Z</time>
      </trkpt>
      <trkpt lat="44.69043" lon="6.85656">
        <ele>2120.3</ele>
        <time>2026-03-25T09:46:22Z</time>
      </trkpt>
      <trkpt lat="44.69043" lon="6.85656">
        <ele>2120.3</ele>
        <time>2026-03-25T09:46:23Z</time>
      </trkpt>
      <trkpt lat="44.69042" lon="6.85656">
        <ele>2120.3</ele>
        <time>2026-03-25T09:46:24Z</time>
      </trkpt>
      <trkpt lat="44.69042" lon="6.85656">
        <ele>2120.3</ele>
        <time>2026-03-25T09:46:25Z</time>
      </trkpt>
      <trkpt lat="44.69042" lon="6.85657">
        <ele>2120.3</ele>
        <time>2026-03-25T09:46:26Z</time>
      </trkpt>
      <trkpt lat="44.69041" lon="6.85657">
        <ele>2120.3</ele>
        <time>2026-03-25T09:46:27Z</time>
      </trkpt>
      <trkpt lat="44.69041" lon="6.85658">
        <ele>2120.3</ele>
        <time>2026-03-25T09:46:28Z</time>
      </trkpt>
      <trkpt lat="44.69041" lon="6.85659">
        <ele>2121.5</ele>
        <time>2026-03-25T09:46:29Z</time>
      </trkpt>
      <trkpt lat="44.69041" lon="6.85659">
        <ele>2121.5</ele>
        <time>2026-03-25T09:46:30Z</time>
      </trkpt>
      <trkpt lat="44.6904" lon="6.8566">
        <ele>2121.5</ele>
        <time>2026-03-25T09:46:31Z</time>
      </trkpt>
      <trkpt lat="44.6904" lon="6.8566">
        <ele>2121.5</ele>
        <time>2026-03-25T09:46:32Z</time>
      </trkpt>
      <trkpt lat="44.6904" lon="6.85661">
        <ele>2121.5</ele>
        <time>2026-03-25T09:46:33Z</time>
      </trkpt>
      <trkpt lat="44.69039" lon="6.85661">
        <ele>2121.5</ele>
        <time>2026-03-25T09:46:34Z</time>
      </trkpt>
      <trkpt lat="44.69039" lon="6.85662">
        <ele>2121.5</ele>
        <time>2026-03-25T09:46:35Z</time>
      </trkpt>
      <trkpt lat="44.69039" lon="6.85662">
        <ele>2121.5</ele>
        <time>2026-03-25T09:46:36Z</time>
      </trkpt>
      <trkpt lat="44.69038" lon="6.85663">
        <ele>2121.5</ele>
        <time>2026-03-25T09:46:37Z</time>
      </trkpt>
      <trkpt lat="44.69038" lon="6.85663">
        <ele>2122.8</ele>
        <time>2026-03-25T09:46:38Z</time>
      </trkpt>
      <trkpt lat="44.69038" lon="6.85664">
        <ele>2122.8</ele>
        <time>2026-03-25T09:46:39Z</time>
      </trkpt>
      <trkpt lat="44.69038" lon="6.85665">
        <ele>2122.8</ele>
        <time>2026-03-25T09:46:40Z</time>
      </trkpt>
      <trkpt lat="44.69037" lon="6.85665">
        <ele>2122.8</ele>
        <time>2026-03-25T09:46:41Z</time>
      </trkpt>
      <trkpt lat="44.69037" lon="6.85665">
        <ele>2122.8</ele>
        <time>2026-03-25T09:46:42Z</time>
      </trkpt>
      <trkpt lat="44.69037" lon="6.85666">
        <ele>2122.8</ele>
        <time>2026-03-25T09:46:43Z</time>
      </trkpt>
      <trkpt lat="44.69036" lon="6.85666">
        <ele>2122.8</ele>
        <time>2026-03-25T09:46:44Z</time>
      </trkpt>
      <trkpt lat="44.69036" lon="6.85666">
        <ele>2122.8</ele>
        <time>2026-03-25T09:46:45Z</time>
      </trkpt>
      <trkpt lat="44.69035" lon="6.85667">
        <ele>2122.8</ele>
        <time>2026-03-25T09:46:46Z</time>
      </trkpt>
      <trkpt lat="44.69035" lon="6.85667">
        <ele>2124.2</ele>
        <time>2026-03-25T09:46:47Z</time>
      </trkpt>
      <trkpt lat="44.69034" lon="6.85668">
        <ele>2124.2</ele>
        <time>2026-03-25T09:46:48Z</time>
      </trkpt>
      <trkpt lat="44.69034" lon="6.85668">
        <ele>2124.2</ele>
        <time>2026-03-25T09:46:49Z</time>
      </trkpt>
      <trkpt lat="44.69034" lon="6.85669">
        <ele>2124.2</ele>
        <time>2026-03-25T09:46:50Z</time>
      </trkpt>
      <trkpt lat="44.69033" lon="6.85669">
        <ele>2124.2</ele>
        <time>2026-03-25T09:46:51Z</time>
      </trkpt>
      <trkpt lat="44.69033" lon="6.8567">
        <ele>2124.2</ele>
        <time>2026-03-25T09:46:52Z</time>
      </trkpt>
      <trkpt lat="44.69032" lon="6.8567">
        <ele>2124.2</ele>
        <time>2026-03-25T09:46:53Z</time>
      </trkpt>
      <trkpt lat="44.69032" lon="6.8567">
        <ele>2124.2</ele>
        <time>2026-03-25T09:46:54Z</time>
      </trkpt>
      <trkpt lat="44.69031" lon="6.8567">
        <ele>2124.2</ele>
        <time>2026-03-25T09:46:55Z</time>
      </trkpt>
      <trkpt lat="44.69031" lon="6.8567">
        <ele>2124.2</ele>
        <time>2026-03-25T09:46:56Z</time>
      </trkpt>
      <trkpt lat="44.69031" lon="6.85671">
        <ele>2124.2</ele>
        <time>2026-03-25T09:46:57Z</time>
      </trkpt>
      <trkpt lat="44.6903" lon="6.85671">
        <ele>2124.2</ele>
        <time>2026-03-25T09:46:58Z</time>
      </trkpt>
      <trkpt lat="44.6903" lon="6.85672">
        <ele>2125.5</ele>
        <time>2026-03-25T09:46:59Z</time>
      </trkpt>
      <trkpt lat="44.6903" lon="6.85672">
        <ele>2125.5</ele>
        <time>2026-03-25T09:47:00Z</time>
      </trkpt>
      <trkpt lat="44.6903" lon="6.85672">
        <ele>2125.5</ele>
        <time>2026-03-25T09:47:01Z</time>
      </trkpt>
      <trkpt lat="44.69029" lon="6.85673">
        <ele>2125.5</ele>
        <time>2026-03-25T09:47:02Z</time>
      </trkpt>
      <trkpt lat="44.69029" lon="6.85673">
        <ele>2125.5</ele>
        <time>2026-03-25T09:47:03Z</time>
      </trkpt>
      <trkpt lat="44.69029" lon="6.85673">
        <ele>2125.6</ele>
        <time>2026-03-25T09:47:04Z</time>
      </trkpt>
      <trkpt lat="44.69028" lon="6.85673">
        <ele>2125.6</ele>
        <time>2026-03-25T09:47:05Z</time>
      </trkpt>
      <trkpt lat="44.69028" lon="6.85674">
        <ele>2125.6</ele>
        <time>2026-03-25T09:47:06Z</time>
      </trkpt>
      <trkpt lat="44.69027" lon="6.85674">
        <ele>2125.6</ele>
        <time>2026-03-25T09:47:07Z</time>
      </trkpt>
      <trkpt lat="44.69027" lon="6.85674">
        <ele>2125.6</ele>
        <time>2026-03-25T09:47:08Z</time>
      </trkpt>
      <trkpt lat="44.69026" lon="6.85674">
        <ele>2125.6</ele>
        <time>2026-03-25T09:47:09Z</time>
      </trkpt>
      <trkpt lat="44.69026" lon="6.85674">
        <ele>2125.6</ele>
        <time>2026-03-25T09:47:10Z</time>
      </trkpt>
      <trkpt lat="44.69025" lon="6.85674">
        <ele>2125.7</ele>
        <time>2026-03-25T09:47:11Z</time>
      </trkpt>
      <trkpt lat="44.69025" lon="6.85674">
        <ele>2125.7</ele>
        <time>2026-03-25T09:47:12Z</time>
      </trkpt>
      <trkpt lat="44.69024" lon="6.85674">
        <ele>2125.7</ele>
        <time>2026-03-25T09:47:13Z</time>
      </trkpt>
      <trkpt lat="44.69024" lon="6.85675">
        <ele>2125.7</ele>
        <time>2026-03-25T09:47:14Z</time>
      </trkpt>
      <trkpt lat="44.69023" lon="6.85676">
        <ele>2126.9</ele>
        <time>2026-03-25T09:47:15Z</time>
      </trkpt>
      <trkpt lat="44.69023" lon="6.85676">
        <ele>2127.1</ele>
        <time>2026-03-25T09:47:16Z</time>
      </trkpt>
      <trkpt lat="44.69022" lon="6.85676">
        <ele>2127.1</ele>
        <time>2026-03-25T09:47:17Z</time>
      </trkpt>
      <trkpt lat="44.69022" lon="6.85676">
        <ele>2127.1</ele>
        <time>2026-03-25T09:47:18Z</time>
      </trkpt>
      <trkpt lat="44.69022" lon="6.85676">
        <ele>2125.9</ele>
        <time>2026-03-25T09:47:19Z</time>
      </trkpt>
      <trkpt lat="44.69021" lon="6.85675">
        <ele>2125.9</ele>
        <time>2026-03-25T09:47:20Z</time>
      </trkpt>
      <trkpt lat="44.69021" lon="6.85676">
        <ele>2125.9</ele>
        <time>2026-03-25T09:47:21Z</time>
      </trkpt>
      <trkpt lat="44.6902" lon="6.85676">
        <ele>2125.9</ele>
        <time>2026-03-25T09:47:22Z</time>
      </trkpt>
      <trkpt lat="44.6902" lon="6.85676">
        <ele>2127.1</ele>
        <time>2026-03-25T09:47:23Z</time>
      </trkpt>
      <trkpt lat="44.69019" lon="6.85676">
        <ele>2127.2</ele>
        <time>2026-03-25T09:47:24Z</time>
      </trkpt>
      <trkpt lat="44.69019" lon="6.85676">
        <ele>2127.2</ele>
        <time>2026-03-25T09:47:25Z</time>
      </trkpt>
      <trkpt lat="44.69018" lon="6.85677">
        <ele>2127.2</ele>
        <time>2026-03-25T09:47:26Z</time>
      </trkpt>
      <trkpt lat="44.69018" lon="6.85677">
        <ele>2127.2</ele>
        <time>2026-03-25T09:47:27Z</time>
      </trkpt>
      <trkpt lat="44.69018" lon="6.85677">
        <ele>2127.2</ele>
        <time>2026-03-25T09:47:28Z</time>
      </trkpt>
      <trkpt lat="44.69017" lon="6.85678">
        <ele>2127.2</ele>
        <time>2026-03-25T09:47:29Z</time>
      </trkpt>
      <trkpt lat="44.69016" lon="6.85679">
        <ele>2127.4</ele>
        <time>2026-03-25T09:47:30Z</time>
      </trkpt>
      <trkpt lat="44.69016" lon="6.85679">
        <ele>2127.4</ele>
        <time>2026-03-25T09:47:31Z</time>
      </trkpt>
      <trkpt lat="44.69016" lon="6.8568">
        <ele>2127.4</ele>
        <time>2026-03-25T09:47:32Z</time>
      </trkpt>
      <trkpt lat="44.69015" lon="6.8568">
        <ele>2128.6</ele>
        <time>2026-03-25T09:47:33Z</time>
      </trkpt>
      <trkpt lat="44.69014" lon="6.8568">
        <ele>2128.6</ele>
        <time>2026-03-25T09:47:34Z</time>
      </trkpt>
      <trkpt lat="44.69014" lon="6.8568">
        <ele>2128.6</ele>
        <time>2026-03-25T09:47:35Z</time>
      </trkpt>
      <trkpt lat="44.69014" lon="6.85681">
        <ele>2128.6</ele>
        <time>2026-03-25T09:47:36Z</time>
      </trkpt>
      <trkpt lat="44.69014" lon="6.85681">
        <ele>2128.8</ele>
        <time>2026-03-25T09:47:37Z</time>
      </trkpt>
      <trkpt lat="44.69013" lon="6.85681">
        <ele>2128.8</ele>
        <time>2026-03-25T09:47:38Z</time>
      </trkpt>
      <trkpt lat="44.69013" lon="6.85681">
        <ele>2128.8</ele>
        <time>2026-03-25T09:47:39Z</time>
      </trkpt>
      <trkpt lat="44.69012" lon="6.85681">
        <ele>2128.8</ele>
        <time>2026-03-25T09:47:40Z</time>
      </trkpt>
      <trkpt lat="44.69012" lon="6.85682">
        <ele>2128.8</ele>
        <time>2026-03-25T09:47:41Z</time>
      </trkpt>
      <trkpt lat="44.69011" lon="6.85682">
        <ele>2128.8</ele>
        <time>2026-03-25T09:47:42Z</time>
      </trkpt>
      <trkpt lat="44.69011" lon="6.85682">
        <ele>2128.8</ele>
        <time>2026-03-25T09:47:43Z</time>
      </trkpt>
      <trkpt lat="44.69011" lon="6.85683">
        <ele>2128.8</ele>
        <time>2026-03-25T09:47:44Z</time>
      </trkpt>
      <trkpt lat="44.6901" lon="6.85683">
        <ele>2129</ele>
        <time>2026-03-25T09:47:45Z</time>
      </trkpt>
      <trkpt lat="44.6901" lon="6.85684">
        <ele>2129</ele>
        <time>2026-03-25T09:47:46Z</time>
      </trkpt>
      <trkpt lat="44.69009" lon="6.85684">
        <ele>2129</ele>
        <time>2026-03-25T09:47:47Z</time>
      </trkpt>
      <trkpt lat="44.69009" lon="6.85684">
        <ele>2129</ele>
        <time>2026-03-25T09:47:48Z</time>
      </trkpt>
      <trkpt lat="44.69009" lon="6.85685">
        <ele>2130.2</ele>
        <time>2026-03-25T09:47:49Z</time>
      </trkpt>
      <trkpt lat="44.69009" lon="6.85686">
        <ele>2130.2</ele>
        <time>2026-03-25T09:47:50Z</time>
      </trkpt>
      <trkpt lat="44.69009" lon="6.85686">
        <ele>2130.2</ele>
        <time>2026-03-25T09:47:51Z</time>
      </trkpt>
      <trkpt lat="44.69009" lon="6.85687">
        <ele>2130.2</ele>
        <time>2026-03-25T09:47:52Z</time>
      </trkpt>
      <trkpt lat="44.69008" lon="6.85687">
        <ele>2130.2</ele>
        <time>2026-03-25T09:47:53Z</time>
      </trkpt>
      <trkpt lat="44.69008" lon="6.85687">
        <ele>2130.2</ele>
        <time>2026-03-25T09:47:54Z</time>
      </trkpt>
      <trkpt lat="44.69008" lon="6.85687">
        <ele>2130.2</ele>
        <time>2026-03-25T09:47:55Z</time>
      </trkpt>
      <trkpt lat="44.69008" lon="6.85688">
        <ele>2130.2</ele>
        <time>2026-03-25T09:47:56Z</time>
      </trkpt>
      <trkpt lat="44.69007" lon="6.85688">
        <ele>2130.4</ele>
        <time>2026-03-25T09:47:57Z</time>
      </trkpt>
      <trkpt lat="44.69007" lon="6.85688">
        <ele>2130.4</ele>
        <time>2026-03-25T09:47:58Z</time>
      </trkpt>
      <trkpt lat="44.69007" lon="6.85688">
        <ele>2130.4</ele>
        <time>2026-03-25T09:47:59Z</time>
      </trkpt>
      <trkpt lat="44.69006" lon="6.85688">
        <ele>2130.4</ele>
        <time>2026-03-25T09:48:00Z</time>
      </trkpt>
      <trkpt lat="44.69006" lon="6.85687">
        <ele>2130.4</ele>
        <time>2026-03-25T09:48:01Z</time>
      </trkpt>
      <trkpt lat="44.69005" lon="6.85688">
        <ele>2130.4</ele>
        <time>2026-03-25T09:48:02Z</time>
      </trkpt>
      <trkpt lat="44.69005" lon="6.85688">
        <ele>2130.4</ele>
        <time>2026-03-25T09:48:03Z</time>
      </trkpt>
      <trkpt lat="44.69004" lon="6.85688">
        <ele>2130.4</ele>
        <time>2026-03-25T09:48:04Z</time>
      </trkpt>
      <trkpt lat="44.69004" lon="6.85688">
        <ele>2130.6</ele>
        <time>2026-03-25T09:48:05Z</time>
      </trkpt>
      <trkpt lat="44.69004" lon="6.85688">
        <ele>2130.6</ele>
        <time>2026-03-25T09:48:06Z</time>
      </trkpt>
      <trkpt lat="44.69003" lon="6.85688">
        <ele>2130.6</ele>
        <time>2026-03-25T09:48:07Z</time>
      </trkpt>
      <trkpt lat="44.69003" lon="6.85689">
        <ele>2131.8</ele>
        <time>2026-03-25T09:48:08Z</time>
      </trkpt>
      <trkpt lat="44.69003" lon="6.85689">
        <ele>2131.8</ele>
        <time>2026-03-25T09:48:09Z</time>
      </trkpt>
      <trkpt lat="44.69002" lon="6.85689">
        <ele>2131.8</ele>
        <time>2026-03-25T09:48:10Z</time>
      </trkpt>
      <trkpt lat="44.69002" lon="6.85689">
        <ele>2131.8</ele>
        <time>2026-03-25T09:48:11Z</time>
      </trkpt>
      <trkpt lat="44.69002" lon="6.85689">
        <ele>2131.8</ele>
        <time>2026-03-25T09:48:12Z</time>
      </trkpt>
      <trkpt lat="44.69002" lon="6.8569">
        <ele>2131.8</ele>
        <time>2026-03-25T09:48:13Z</time>
      </trkpt>
      <trkpt lat="44.69001" lon="6.8569">
        <ele>2131.8</ele>
        <time>2026-03-25T09:48:14Z</time>
      </trkpt>
      <trkpt lat="44.69001" lon="6.8569">
        <ele>2131.8</ele>
        <time>2026-03-25T09:48:15Z</time>
      </trkpt>
      <trkpt lat="44.69001" lon="6.8569">
        <ele>2131.8</ele>
        <time>2026-03-25T09:48:16Z</time>
      </trkpt>
      <trkpt lat="44.69001" lon="6.8569">
        <ele>2131.8</ele>
        <time>2026-03-25T09:48:17Z</time>
      </trkpt>
      <trkpt lat="44.69001" lon="6.8569">
        <ele>2131.8</ele>
        <time>2026-03-25T09:48:18Z</time>
      </trkpt>
      <trkpt lat="44.69001" lon="6.8569">
        <ele>2131.8</ele>
        <time>2026-03-25T09:48:19Z</time>
      </trkpt>
      <trkpt lat="44.69001" lon="6.8569">
        <ele>2132</ele>
        <time>2026-03-25T09:48:20Z</time>
      </trkpt>
      <trkpt lat="44.69001" lon="6.8569">
        <ele>2132</ele>
        <time>2026-03-25T09:48:21Z</time>
      </trkpt>
      <trkpt lat="44.69001" lon="6.85691">
        <ele>2132</ele>
        <time>2026-03-25T09:48:22Z</time>
      </trkpt>
      <trkpt lat="44.69001" lon="6.85691">
        <ele>2132</ele>
        <time>2026-03-25T09:48:23Z</time>
      </trkpt>
      <trkpt lat="44.69001" lon="6.85691">
        <ele>2132</ele>
        <time>2026-03-25T09:48:24Z</time>
      </trkpt>
      <trkpt lat="44.69" lon="6.85691">
        <ele>2132</ele>
        <time>2026-03-25T09:48:25Z</time>
      </trkpt>
      <trkpt lat="44.69" lon="6.85691">
        <ele>2132</ele>
        <time>2026-03-25T09:48:26Z</time>
      </trkpt>
      <trkpt lat="44.69" lon="6.85691">
        <ele>2132</ele>
        <time>2026-03-25T09:48:27Z</time>
      </trkpt>
      <trkpt lat="44.69" lon="6.85691">
        <ele>2132</ele>
        <time>2026-03-25T09:48:28Z</time>
      </trkpt>
      <trkpt lat="44.69" lon="6.85691">
        <ele>2132</ele>
        <time>2026-03-25T09:48:29Z</time>
      </trkpt>
      <trkpt lat="44.69" lon="6.85691">
        <ele>2132</ele>
        <time>2026-03-25T09:48:30Z</time>
      </trkpt>
      <trkpt lat="44.69" lon="6.85691">
        <ele>2132</ele>
        <time>2026-03-25T09:48:31Z</time>
      </trkpt>
      <trkpt lat="44.69" lon="6.85691">
        <ele>2132</ele>
        <time>2026-03-25T09:48:32Z</time>
      </trkpt>
      <trkpt lat="44.69" lon="6.85691">
        <ele>2132</ele>
        <time>2026-03-25T09:48:33Z</time>
      </trkpt>
      <trkpt lat="44.69" lon="6.85691">
        <ele>2132</ele>
        <time>2026-03-25T09:48:34Z</time>
      </trkpt>
      <trkpt lat="44.68999" lon="6.85691">
        <ele>2132</ele>
        <time>2026-03-25T09:48:35Z</time>
      </trkpt>
      <trkpt lat="44.69" lon="6.85691">
        <ele>2132</ele>
        <time>2026-03-25T09:48:36Z</time>
      </trkpt>
      <trkpt lat="44.69" lon="6.85692">
        <ele>2132</ele>
        <time>2026-03-25T09:48:37Z</time>
      </trkpt>
      <trkpt lat="44.69" lon="6.85692">
        <ele>2132</ele>
        <time>2026-03-25T09:48:38Z</time>
      </trkpt>
      <trkpt lat="44.69" lon="6.85691">
        <ele>2132</ele>
        <time>2026-03-25T09:48:39Z</time>
      </trkpt>
      <trkpt lat="44.69" lon="6.85691">
        <ele>2132</ele>
        <time>2026-03-25T09:48:40Z</time>
      </trkpt>
      <trkpt lat="44.68999" lon="6.85692">
        <ele>2132</ele>
        <time>2026-03-25T09:48:41Z</time>
      </trkpt>
      <trkpt lat="44.68999" lon="6.85692">
        <ele>2132</ele>
        <time>2026-03-25T09:48:42Z</time>
      </trkpt>
      <trkpt lat="44.69" lon="6.85691">
        <ele>2132</ele>
        <time>2026-03-25T09:48:43Z</time>
      </trkpt>
      <trkpt lat="44.68999" lon="6.85691">
        <ele>2132</ele>
        <time>2026-03-25T09:48:44Z</time>
      </trkpt>
      <trkpt lat="44.68999" lon="6.85691">
        <ele>2132</ele>
        <time>2026-03-25T09:48:45Z</time>
      </trkpt>
      <trkpt lat="44.68999" lon="6.85691">
        <ele>2132</ele>
        <time>2026-03-25T09:48:46Z</time>
      </trkpt>
      <trkpt lat="44.68998" lon="6.85692">
        <ele>2132.2</ele>
        <time>2026-03-25T09:48:47Z</time>
      </trkpt>
      <trkpt lat="44.68998" lon="6.85693">
        <ele>2132.2</ele>
        <time>2026-03-25T09:48:48Z</time>
      </trkpt>
      <trkpt lat="44.68997" lon="6.85694">
        <ele>2133.4</ele>
        <time>2026-03-25T09:48:49Z</time>
      </trkpt>
      <trkpt lat="44.68997" lon="6.85695">
        <ele>2133.4</ele>
        <time>2026-03-25T09:48:50Z</time>
      </trkpt>
      <trkpt lat="44.68997" lon="6.85695">
        <ele>2133.4</ele>
        <time>2026-03-25T09:48:51Z</time>
      </trkpt>
      <trkpt lat="44.68997" lon="6.85696">
        <ele>2133.4</ele>
        <time>2026-03-25T09:48:52Z</time>
      </trkpt>
      <trkpt lat="44.68997" lon="6.85696">
        <ele>2133.4</ele>
        <time>2026-03-25T09:48:53Z</time>
      </trkpt>
      <trkpt lat="44.68996" lon="6.85697">
        <ele>2133.4</ele>
        <time>2026-03-25T09:48:54Z</time>
      </trkpt>
      <trkpt lat="44.68996" lon="6.85697">
        <ele>2134.6</ele>
        <time>2026-03-25T09:48:55Z</time>
      </trkpt>
      <trkpt lat="44.68996" lon="6.85698">
        <ele>2134.6</ele>
        <time>2026-03-25T09:48:56Z</time>
      </trkpt>
      <trkpt lat="44.68996" lon="6.85699">
        <ele>2134.6</ele>
        <time>2026-03-25T09:48:57Z</time>
      </trkpt>
      <trkpt lat="44.68995" lon="6.85699">
        <ele>2134.8</ele>
        <time>2026-03-25T09:48:58Z</time>
      </trkpt>
      <trkpt lat="44.68995" lon="6.857">
        <ele>2134.8</ele>
        <time>2026-03-25T09:48:59Z</time>
      </trkpt>
      <trkpt lat="44.68995" lon="6.857">
        <ele>2134.8</ele>
        <time>2026-03-25T09:49:00Z</time>
      </trkpt>
      <trkpt lat="44.68995" lon="6.85701">
        <ele>2134.8</ele>
        <time>2026-03-25T09:49:01Z</time>
      </trkpt>
      <trkpt lat="44.68995" lon="6.85701">
        <ele>2134.8</ele>
        <time>2026-03-25T09:49:02Z</time>
      </trkpt>
      <trkpt lat="44.68995" lon="6.85702">
        <ele>2136.1</ele>
        <time>2026-03-25T09:49:03Z</time>
      </trkpt>
      <trkpt lat="44.68995" lon="6.85702">
        <ele>2136.1</ele>
        <time>2026-03-25T09:49:04Z</time>
      </trkpt>
      <trkpt lat="44.68995" lon="6.85703">
        <ele>2136.1</ele>
        <time>2026-03-25T09:49:05Z</time>
      </trkpt>
      <trkpt lat="44.68995" lon="6.85703">
        <ele>2136.1</ele>
        <time>2026-03-25T09:49:06Z</time>
      </trkpt>
      <trkpt lat="44.68995" lon="6.85704">
        <ele>2136.1</ele>
        <time>2026-03-25T09:49:07Z</time>
      </trkpt>
      <trkpt lat="44.68994" lon="6.85704">
        <ele>2136.1</ele>
        <time>2026-03-25T09:49:08Z</time>
      </trkpt>
      <trkpt lat="44.68994" lon="6.85705">
        <ele>2136.1</ele>
        <time>2026-03-25T09:49:09Z</time>
      </trkpt>
      <trkpt lat="44.68994" lon="6.85705">
        <ele>2136.1</ele>
        <time>2026-03-25T09:49:10Z</time>
      </trkpt>
      <trkpt lat="44.68994" lon="6.85705">
        <ele>2136.1</ele>
        <time>2026-03-25T09:49:11Z</time>
      </trkpt>
      <trkpt lat="44.68994" lon="6.85706">
        <ele>2137.4</ele>
        <time>2026-03-25T09:49:12Z</time>
      </trkpt>
      <trkpt lat="44.68995" lon="6.85705">
        <ele>2136.1</ele>
        <time>2026-03-25T09:49:13Z</time>
      </trkpt>
      <trkpt lat="44.68995" lon="6.85706">
        <ele>2137.4</ele>
        <time>2026-03-25T09:49:14Z</time>
      </trkpt>
      <trkpt lat="44.68995" lon="6.85706">
        <ele>2137.4</ele>
        <time>2026-03-25T09:49:15Z</time>
      </trkpt>
      <trkpt lat="44.68995" lon="6.85707">
        <ele>2137.4</ele>
        <time>2026-03-25T09:49:16Z</time>
      </trkpt>
      <trkpt lat="44.68996" lon="6.85707">
        <ele>2137.2</ele>
        <time>2026-03-25T09:49:17Z</time>
      </trkpt>
      <trkpt lat="44.68996" lon="6.85707">
        <ele>2137.2</ele>
        <time>2026-03-25T09:49:18Z</time>
      </trkpt>
      <trkpt lat="44.68996" lon="6.85707">
        <ele>2137.2</ele>
        <time>2026-03-25T09:49:19Z</time>
      </trkpt>
      <trkpt lat="44.68995" lon="6.85707">
        <ele>2137.2</ele>
        <time>2026-03-25T09:49:20Z</time>
      </trkpt>
      <trkpt lat="44.68995" lon="6.85707">
        <ele>2137.2</ele>
        <time>2026-03-25T09:49:21Z</time>
      </trkpt>
      <trkpt lat="44.68995" lon="6.85708">
        <ele>2137.4</ele>
        <time>2026-03-25T09:49:22Z</time>
      </trkpt>
      <trkpt lat="44.68995" lon="6.85708">
        <ele>2137.4</ele>
        <time>2026-03-25T09:49:23Z</time>
      </trkpt>
      <trkpt lat="44.68995" lon="6.85708">
        <ele>2137.2</ele>
        <time>2026-03-25T09:49:24Z</time>
      </trkpt>
      <trkpt lat="44.68995" lon="6.85708">
        <ele>2137.4</ele>
        <time>2026-03-25T09:49:25Z</time>
      </trkpt>
      <trkpt lat="44.68996" lon="6.85709">
        <ele>2137.2</ele>
        <time>2026-03-25T09:49:26Z</time>
      </trkpt>
      <trkpt lat="44.68996" lon="6.85709">
        <ele>2137.2</ele>
        <time>2026-03-25T09:49:27Z</time>
      </trkpt>
      <trkpt lat="44.68996" lon="6.8571">
        <ele>2137.2</ele>
        <time>2026-03-25T09:49:28Z</time>
      </trkpt>
      <trkpt lat="44.68996" lon="6.85709">
        <ele>2137.2</ele>
        <time>2026-03-25T09:49:29Z</time>
      </trkpt>
      <trkpt lat="44.68996" lon="6.8571">
        <ele>2137.2</ele>
        <time>2026-03-25T09:49:30Z</time>
      </trkpt>
      <trkpt lat="44.68996" lon="6.8571">
        <ele>2137.2</ele>
        <time>2026-03-25T09:49:31Z</time>
      </trkpt>
      <trkpt lat="44.68996" lon="6.8571">
        <ele>2138.5</ele>
        <time>2026-03-25T09:49:32Z</time>
      </trkpt>
      <trkpt lat="44.68996" lon="6.8571">
        <ele>2138.5</ele>
        <time>2026-03-25T09:49:33Z</time>
      </trkpt>
      <trkpt lat="44.68996" lon="6.85711">
        <ele>2138.5</ele>
        <time>2026-03-25T09:49:34Z</time>
      </trkpt>
      <trkpt lat="44.68996" lon="6.85711">
        <ele>2138.5</ele>
        <time>2026-03-25T09:49:35Z</time>
      </trkpt>
      <trkpt lat="44.68996" lon="6.85712">
        <ele>2138.5</ele>
        <time>2026-03-25T09:49:36Z</time>
      </trkpt>
      <trkpt lat="44.68997" lon="6.85712">
        <ele>2138.5</ele>
        <time>2026-03-25T09:49:37Z</time>
      </trkpt>
      <trkpt lat="44.68997" lon="6.85713">
        <ele>2138.5</ele>
        <time>2026-03-25T09:49:38Z</time>
      </trkpt>
      <trkpt lat="44.68997" lon="6.85713">
        <ele>2138.5</ele>
        <time>2026-03-25T09:49:39Z</time>
      </trkpt>
      <trkpt lat="44.68997" lon="6.85713">
        <ele>2138.5</ele>
        <time>2026-03-25T09:49:40Z</time>
      </trkpt>
      <trkpt lat="44.68997" lon="6.85713">
        <ele>2138.5</ele>
        <time>2026-03-25T09:49:41Z</time>
      </trkpt>
      <trkpt lat="44.68997" lon="6.85714">
        <ele>2138.5</ele>
        <time>2026-03-25T09:49:42Z</time>
      </trkpt>
      <trkpt lat="44.68997" lon="6.85714">
        <ele>2138.5</ele>
        <time>2026-03-25T09:49:43Z</time>
      </trkpt>
      <trkpt lat="44.68997" lon="6.85715">
        <ele>2139.9</ele>
        <time>2026-03-25T09:49:44Z</time>
      </trkpt>
      <trkpt lat="44.68997" lon="6.85715">
        <ele>2139.9</ele>
        <time>2026-03-25T09:49:45Z</time>
      </trkpt>
      <trkpt lat="44.68996" lon="6.85715">
        <ele>2139.9</ele>
        <time>2026-03-25T09:49:46Z</time>
      </trkpt>
      <trkpt lat="44.68996" lon="6.85715">
        <ele>2139.9</ele>
        <time>2026-03-25T09:49:47Z</time>
      </trkpt>
      <trkpt lat="44.68996" lon="6.85715">
        <ele>2139.9</ele>
        <time>2026-03-25T09:49:48Z</time>
      </trkpt>
      <trkpt lat="44.68996" lon="6.85716">
        <ele>2139.9</ele>
        <time>2026-03-25T09:49:49Z</time>
      </trkpt>
      <trkpt lat="44.68996" lon="6.85716">
        <ele>2139.9</ele>
        <time>2026-03-25T09:49:50Z</time>
      </trkpt>
      <trkpt lat="44.68996" lon="6.85716">
        <ele>2139.9</ele>
        <time>2026-03-25T09:49:51Z</time>
      </trkpt>
      <trkpt lat="44.68996" lon="6.85717">
        <ele>2139.9</ele>
        <time>2026-03-25T09:49:52Z</time>
      </trkpt>
      <trkpt lat="44.68996" lon="6.85717">
        <ele>2139.9</ele>
        <time>2026-03-25T09:49:53Z</time>
      </trkpt>
      <trkpt lat="44.68996" lon="6.85718">
        <ele>2139.9</ele>
        <time>2026-03-25T09:49:54Z</time>
      </trkpt>
      <trkpt lat="44.68996" lon="6.85719">
        <ele>2141.3</ele>
        <time>2026-03-25T09:49:55Z</time>
      </trkpt>
      <trkpt lat="44.68996" lon="6.85719">
        <ele>2141.3</ele>
        <time>2026-03-25T09:49:56Z</time>
      </trkpt>
      <trkpt lat="44.68996" lon="6.8572">
        <ele>2141.3</ele>
        <time>2026-03-25T09:49:57Z</time>
      </trkpt>
      <trkpt lat="44.68996" lon="6.8572">
        <ele>2141.3</ele>
        <time>2026-03-25T09:49:58Z</time>
      </trkpt>
      <trkpt lat="44.68996" lon="6.85721">
        <ele>2141.3</ele>
        <time>2026-03-25T09:49:59Z</time>
      </trkpt>
      <trkpt lat="44.68996" lon="6.85721">
        <ele>2141.3</ele>
        <time>2026-03-25T09:50:00Z</time>
      </trkpt>
      <trkpt lat="44.68995" lon="6.85722">
        <ele>2141.6</ele>
        <time>2026-03-25T09:50:01Z</time>
      </trkpt>
      <trkpt lat="44.68995" lon="6.85722">
        <ele>2141.6</ele>
        <time>2026-03-25T09:50:02Z</time>
      </trkpt>
      <trkpt lat="44.68995" lon="6.85723">
        <ele>2141.6</ele>
        <time>2026-03-25T09:50:03Z</time>
      </trkpt>
      <trkpt lat="44.68995" lon="6.85723">
        <ele>2142.9</ele>
        <time>2026-03-25T09:50:04Z</time>
      </trkpt>
      <trkpt lat="44.68995" lon="6.85724">
        <ele>2142.9</ele>
        <time>2026-03-25T09:50:05Z</time>
      </trkpt>
      <trkpt lat="44.68995" lon="6.85724">
        <ele>2142.9</ele>
        <time>2026-03-25T09:50:06Z</time>
      </trkpt>
      <trkpt lat="44.68995" lon="6.85724">
        <ele>2142.9</ele>
        <time>2026-03-25T09:50:07Z</time>
      </trkpt>
      <trkpt lat="44.68995" lon="6.85724">
        <ele>2142.9</ele>
        <time>2026-03-25T09:50:08Z</time>
      </trkpt>
      <trkpt lat="44.68995" lon="6.85725">
        <ele>2142.9</ele>
        <time>2026-03-25T09:50:09Z</time>
      </trkpt>
      <trkpt lat="44.68995" lon="6.85725">
        <ele>2142.9</ele>
        <time>2026-03-25T09:50:10Z</time>
      </trkpt>
      <trkpt lat="44.68995" lon="6.85725">
        <ele>2142.9</ele>
        <time>2026-03-25T09:50:11Z</time>
      </trkpt>
      <trkpt lat="44.68995" lon="6.85725">
        <ele>2142.9</ele>
        <time>2026-03-25T09:50:12Z</time>
      </trkpt>
      <trkpt lat="44.68995" lon="6.85725">
        <ele>2142.9</ele>
        <time>2026-03-25T09:50:13Z</time>
      </trkpt>
      <trkpt lat="44.68995" lon="6.85725">
        <ele>2142.9</ele>
        <time>2026-03-25T09:50:14Z</time>
      </trkpt>
      <trkpt lat="44.68995" lon="6.85726">
        <ele>2142.7</ele>
        <time>2026-03-25T09:50:15Z</time>
      </trkpt>
      <trkpt lat="44.68995" lon="6.85726">
        <ele>2142.7</ele>
        <time>2026-03-25T09:50:16Z</time>
      </trkpt>
      <trkpt lat="44.68996" lon="6.85726">
        <ele>2142.7</ele>
        <time>2026-03-25T09:50:17Z</time>
      </trkpt>
      <trkpt lat="44.68995" lon="6.85727">
        <ele>2142.7</ele>
        <time>2026-03-25T09:50:18Z</time>
      </trkpt>
      <trkpt lat="44.68995" lon="6.85727">
        <ele>2142.7</ele>
        <time>2026-03-25T09:50:19Z</time>
      </trkpt>
      <trkpt lat="44.68995" lon="6.85727">
        <ele>2144.3</ele>
        <time>2026-03-25T09:50:20Z</time>
      </trkpt>
      <trkpt lat="44.68995" lon="6.85728">
        <ele>2144.3</ele>
        <time>2026-03-25T09:50:21Z</time>
      </trkpt>
      <trkpt lat="44.68995" lon="6.85728">
        <ele>2144.3</ele>
        <time>2026-03-25T09:50:22Z</time>
      </trkpt>
      <trkpt lat="44.68995" lon="6.85729">
        <ele>2144.3</ele>
        <time>2026-03-25T09:50:23Z</time>
      </trkpt>
      <trkpt lat="44.68995" lon="6.8573">
        <ele>2144.3</ele>
        <time>2026-03-25T09:50:24Z</time>
      </trkpt>
      <trkpt lat="44.68995" lon="6.8573">
        <ele>2144.3</ele>
        <time>2026-03-25T09:50:25Z</time>
      </trkpt>
      <trkpt lat="44.68995" lon="6.85731">
        <ele>2144.3</ele>
        <time>2026-03-25T09:50:26Z</time>
      </trkpt>
      <trkpt lat="44.68995" lon="6.85731">
        <ele>2144.3</ele>
        <time>2026-03-25T09:50:27Z</time>
      </trkpt>
      <trkpt lat="44.68995" lon="6.85732">
        <ele>2145.6</ele>
        <time>2026-03-25T09:50:28Z</time>
      </trkpt>
      <trkpt lat="44.68995" lon="6.85732">
        <ele>2145.6</ele>
        <time>2026-03-25T09:50:29Z</time>
      </trkpt>
      <trkpt lat="44.68995" lon="6.85733">
        <ele>2145.6</ele>
        <time>2026-03-25T09:50:30Z</time>
      </trkpt>
      <trkpt lat="44.68995" lon="6.85733">
        <ele>2145.6</ele>
        <time>2026-03-25T09:50:31Z</time>
      </trkpt>
      <trkpt lat="44.68995" lon="6.85734">
        <ele>2145.3</ele>
        <time>2026-03-25T09:50:32Z</time>
      </trkpt>
      <trkpt lat="44.68995" lon="6.85734">
        <ele>2145.3</ele>
        <time>2026-03-25T09:50:33Z</time>
      </trkpt>
      <trkpt lat="44.68995" lon="6.85735">
        <ele>2145.6</ele>
        <time>2026-03-25T09:50:34Z</time>
      </trkpt>
      <trkpt lat="44.68995" lon="6.85735">
        <ele>2145.6</ele>
        <time>2026-03-25T09:50:35Z</time>
      </trkpt>
      <trkpt lat="44.68995" lon="6.85736">
        <ele>2145.6</ele>
        <time>2026-03-25T09:50:36Z</time>
      </trkpt>
      <trkpt lat="44.68995" lon="6.85736">
        <ele>2146.9</ele>
        <time>2026-03-25T09:50:37Z</time>
      </trkpt>
      <trkpt lat="44.68995" lon="6.85737">
        <ele>2146.9</ele>
        <time>2026-03-25T09:50:38Z</time>
      </trkpt>
      <trkpt lat="44.68995" lon="6.85737">
        <ele>2146.9</ele>
        <time>2026-03-25T09:50:39Z</time>
      </trkpt>
      <trkpt lat="44.68995" lon="6.85738">
        <ele>2146.9</ele>
        <time>2026-03-25T09:50:40Z</time>
      </trkpt>
      <trkpt lat="44.68995" lon="6.85738">
        <ele>2146.9</ele>
        <time>2026-03-25T09:50:41Z</time>
      </trkpt>
      <trkpt lat="44.68994" lon="6.85739">
        <ele>2146.9</ele>
        <time>2026-03-25T09:50:42Z</time>
      </trkpt>
      <trkpt lat="44.68994" lon="6.85739">
        <ele>2146.9</ele>
        <time>2026-03-25T09:50:43Z</time>
      </trkpt>
      <trkpt lat="44.68995" lon="6.8574">
        <ele>2146.9</ele>
        <time>2026-03-25T09:50:44Z</time>
      </trkpt>
      <trkpt lat="44.68995" lon="6.8574">
        <ele>2148.2</ele>
        <time>2026-03-25T09:50:45Z</time>
      </trkpt>
      <trkpt lat="44.68995" lon="6.85741">
        <ele>2148.2</ele>
        <time>2026-03-25T09:50:46Z</time>
      </trkpt>
      <trkpt lat="44.68995" lon="6.85742">
        <ele>2148.2</ele>
        <time>2026-03-25T09:50:47Z</time>
      </trkpt>
      <trkpt lat="44.68995" lon="6.85742">
        <ele>2148.2</ele>
        <time>2026-03-25T09:50:48Z</time>
      </trkpt>
      <trkpt lat="44.68995" lon="6.85743">
        <ele>2148</ele>
        <time>2026-03-25T09:50:49Z</time>
      </trkpt>
      <trkpt lat="44.68995" lon="6.85743">
        <ele>2148</ele>
        <time>2026-03-25T09:50:50Z</time>
      </trkpt>
      <trkpt lat="44.68995" lon="6.85744">
        <ele>2149.5</ele>
        <time>2026-03-25T09:50:51Z</time>
      </trkpt>
      <trkpt lat="44.68995" lon="6.85745">
        <ele>2149.5</ele>
        <time>2026-03-25T09:50:52Z</time>
      </trkpt>
      <trkpt lat="44.68995" lon="6.85745">
        <ele>2149.7</ele>
        <time>2026-03-25T09:50:53Z</time>
      </trkpt>
      <trkpt lat="44.68995" lon="6.85746">
        <ele>2149.7</ele>
        <time>2026-03-25T09:50:54Z</time>
      </trkpt>
      <trkpt lat="44.68995" lon="6.85747">
        <ele>2149.7</ele>
        <time>2026-03-25T09:50:55Z</time>
      </trkpt>
      <trkpt lat="44.68994" lon="6.85747">
        <ele>2149.7</ele>
        <time>2026-03-25T09:50:56Z</time>
      </trkpt>
      <trkpt lat="44.68994" lon="6.85747">
        <ele>2149.7</ele>
        <time>2026-03-25T09:50:57Z</time>
      </trkpt>
      <trkpt lat="44.68994" lon="6.85748">
        <ele>2149.7</ele>
        <time>2026-03-25T09:50:58Z</time>
      </trkpt>
      <trkpt lat="44.68994" lon="6.85748">
        <ele>2149.7</ele>
        <time>2026-03-25T09:50:59Z</time>
      </trkpt>
      <trkpt lat="44.68994" lon="6.85749">
        <ele>2151.2</ele>
        <time>2026-03-25T09:51:00Z</time>
      </trkpt>
      <trkpt lat="44.68994" lon="6.8575">
        <ele>2151.2</ele>
        <time>2026-03-25T09:51:01Z</time>
      </trkpt>
      <trkpt lat="44.68993" lon="6.85751">
        <ele>2151.2</ele>
        <time>2026-03-25T09:51:02Z</time>
      </trkpt>
      <trkpt lat="44.68992" lon="6.85751">
        <ele>2151.2</ele>
        <time>2026-03-25T09:51:03Z</time>
      </trkpt>
      <trkpt lat="44.68992" lon="6.85751">
        <ele>2151.4</ele>
        <time>2026-03-25T09:51:04Z</time>
      </trkpt>
      <trkpt lat="44.68992" lon="6.85752">
        <ele>2151.4</ele>
        <time>2026-03-25T09:51:05Z</time>
      </trkpt>
      <trkpt lat="44.68992" lon="6.85753">
        <ele>2152.9</ele>
        <time>2026-03-25T09:51:06Z</time>
      </trkpt>
      <trkpt lat="44.68991" lon="6.85754">
        <ele>2152.9</ele>
        <time>2026-03-25T09:51:07Z</time>
      </trkpt>
      <trkpt lat="44.6899" lon="6.85754">
        <ele>2152.9</ele>
        <time>2026-03-25T09:51:08Z</time>
      </trkpt>
      <trkpt lat="44.6899" lon="6.85755">
        <ele>2152.9</ele>
        <time>2026-03-25T09:51:09Z</time>
      </trkpt>
      <trkpt lat="44.6899" lon="6.85755">
        <ele>2152.9</ele>
        <time>2026-03-25T09:51:10Z</time>
      </trkpt>
      <trkpt lat="44.68989" lon="6.85755">
        <ele>2152.9</ele>
        <time>2026-03-25T09:51:11Z</time>
      </trkpt>
      <trkpt lat="44.68989" lon="6.85756">
        <ele>2153</ele>
        <time>2026-03-25T09:51:12Z</time>
      </trkpt>
      <trkpt lat="44.68989" lon="6.85757">
        <ele>2153</ele>
        <time>2026-03-25T09:51:13Z</time>
      </trkpt>
      <trkpt lat="44.68989" lon="6.85757">
        <ele>2154.5</ele>
        <time>2026-03-25T09:51:14Z</time>
      </trkpt>
      <trkpt lat="44.68988" lon="6.85758">
        <ele>2154.5</ele>
        <time>2026-03-25T09:51:15Z</time>
      </trkpt>
      <trkpt lat="44.68988" lon="6.85758">
        <ele>2154.5</ele>
        <time>2026-03-25T09:51:16Z</time>
      </trkpt>
      <trkpt lat="44.68987" lon="6.85758">
        <ele>2154.5</ele>
        <time>2026-03-25T09:51:17Z</time>
      </trkpt>
      <trkpt lat="44.68987" lon="6.85759">
        <ele>2154.5</ele>
        <time>2026-03-25T09:51:18Z</time>
      </trkpt>
      <trkpt lat="44.68987" lon="6.8576">
        <ele>2154.5</ele>
        <time>2026-03-25T09:51:19Z</time>
      </trkpt>
      <trkpt lat="44.68987" lon="6.8576">
        <ele>2154.5</ele>
        <time>2026-03-25T09:51:20Z</time>
      </trkpt>
      <trkpt lat="44.68987" lon="6.8576">
        <ele>2154.5</ele>
        <time>2026-03-25T09:51:21Z</time>
      </trkpt>
      <trkpt lat="44.68987" lon="6.85761">
        <ele>2154.5</ele>
        <time>2026-03-25T09:51:22Z</time>
      </trkpt>
      <trkpt lat="44.68987" lon="6.85761">
        <ele>2154.5</ele>
        <time>2026-03-25T09:51:23Z</time>
      </trkpt>
      <trkpt lat="44.68987" lon="6.85761">
        <ele>2154.5</ele>
        <time>2026-03-25T09:51:24Z</time>
      </trkpt>
      <trkpt lat="44.68987" lon="6.85762">
        <ele>2156</ele>
        <time>2026-03-25T09:51:25Z</time>
      </trkpt>
      <trkpt lat="44.68986" lon="6.85762">
        <ele>2156</ele>
        <time>2026-03-25T09:51:26Z</time>
      </trkpt>
      <trkpt lat="44.68986" lon="6.85762">
        <ele>2156.1</ele>
        <time>2026-03-25T09:51:27Z</time>
      </trkpt>
      <trkpt lat="44.68986" lon="6.85763">
        <ele>2156.1</ele>
        <time>2026-03-25T09:51:28Z</time>
      </trkpt>
      <trkpt lat="44.68985" lon="6.85764">
        <ele>2156.1</ele>
        <time>2026-03-25T09:51:29Z</time>
      </trkpt>
      <trkpt lat="44.68985" lon="6.85764">
        <ele>2156.1</ele>
        <time>2026-03-25T09:51:30Z</time>
      </trkpt>
      <trkpt lat="44.68985" lon="6.85764">
        <ele>2156.1</ele>
        <time>2026-03-25T09:51:31Z</time>
      </trkpt>
      <trkpt lat="44.68985" lon="6.85764">
        <ele>2156.1</ele>
        <time>2026-03-25T09:51:32Z</time>
      </trkpt>
      <trkpt lat="44.68986" lon="6.85764">
        <ele>2156.1</ele>
        <time>2026-03-25T09:51:33Z</time>
      </trkpt>
      <trkpt lat="44.68986" lon="6.85765">
        <ele>2156.1</ele>
        <time>2026-03-25T09:51:34Z</time>
      </trkpt>
      <trkpt lat="44.68986" lon="6.85765">
        <ele>2156.1</ele>
        <time>2026-03-25T09:51:35Z</time>
      </trkpt>
      <trkpt lat="44.68986" lon="6.85765">
        <ele>2156.1</ele>
        <time>2026-03-25T09:51:36Z</time>
      </trkpt>
      <trkpt lat="44.68986" lon="6.85765">
        <ele>2156</ele>
        <time>2026-03-25T09:51:37Z</time>
      </trkpt>
      <trkpt lat="44.68987" lon="6.85765">
        <ele>2156</ele>
        <time>2026-03-25T09:51:38Z</time>
      </trkpt>
      <trkpt lat="44.68987" lon="6.85765">
        <ele>2156</ele>
        <time>2026-03-25T09:51:39Z</time>
      </trkpt>
      <trkpt lat="44.68987" lon="6.85765">
        <ele>2156</ele>
        <time>2026-03-25T09:51:40Z</time>
      </trkpt>
      <trkpt lat="44.68987" lon="6.85766">
        <ele>2156</ele>
        <time>2026-03-25T09:51:41Z</time>
      </trkpt>
      <trkpt lat="44.68987" lon="6.85766">
        <ele>2156</ele>
        <time>2026-03-25T09:51:42Z</time>
      </trkpt>
      <trkpt lat="44.68988" lon="6.85766">
        <ele>2157.4</ele>
        <time>2026-03-25T09:51:43Z</time>
      </trkpt>
      <trkpt lat="44.68988" lon="6.85766">
        <ele>2157.4</ele>
        <time>2026-03-25T09:51:44Z</time>
      </trkpt>
      <trkpt lat="44.68988" lon="6.85766">
        <ele>2157.4</ele>
        <time>2026-03-25T09:51:45Z</time>
      </trkpt>
      <trkpt lat="44.68988" lon="6.85766">
        <ele>2157.4</ele>
        <time>2026-03-25T09:51:46Z</time>
      </trkpt>
      <trkpt lat="44.68988" lon="6.85767">
        <ele>2157.4</ele>
        <time>2026-03-25T09:51:47Z</time>
      </trkpt>
      <trkpt lat="44.68988" lon="6.85767">
        <ele>2157.4</ele>
        <time>2026-03-25T09:51:48Z</time>
      </trkpt>
      <trkpt lat="44.68989" lon="6.85767">
        <ele>2157.4</ele>
        <time>2026-03-25T09:51:49Z</time>
      </trkpt>
      <trkpt lat="44.68989" lon="6.85767">
        <ele>2157.3</ele>
        <time>2026-03-25T09:51:50Z</time>
      </trkpt>
      <trkpt lat="44.6899" lon="6.85767">
        <ele>2157.3</ele>
        <time>2026-03-25T09:51:51Z</time>
      </trkpt>
      <trkpt lat="44.6899" lon="6.85767">
        <ele>2157.3</ele>
        <time>2026-03-25T09:51:52Z</time>
      </trkpt>
      <trkpt lat="44.6899" lon="6.85767">
        <ele>2157.3</ele>
        <time>2026-03-25T09:51:53Z</time>
      </trkpt>
      <trkpt lat="44.68991" lon="6.85768">
        <ele>2157.3</ele>
        <time>2026-03-25T09:51:54Z</time>
      </trkpt>
      <trkpt lat="44.68991" lon="6.85768">
        <ele>2157.3</ele>
        <time>2026-03-25T09:51:55Z</time>
      </trkpt>
      <trkpt lat="44.68991" lon="6.85769">
        <ele>2157.3</ele>
        <time>2026-03-25T09:51:56Z</time>
      </trkpt>
      <trkpt lat="44.68992" lon="6.85769">
        <ele>2157.3</ele>
        <time>2026-03-25T09:51:57Z</time>
      </trkpt>
      <trkpt lat="44.68992" lon="6.85769">
        <ele>2157.3</ele>
        <time>2026-03-25T09:51:58Z</time>
      </trkpt>
      <trkpt lat="44.68992" lon="6.8577">
        <ele>2157.2</ele>
        <time>2026-03-25T09:51:59Z</time>
      </trkpt>
      <trkpt lat="44.68993" lon="6.8577">
        <ele>2157.2</ele>
        <time>2026-03-25T09:52:00Z</time>
      </trkpt>
      <trkpt lat="44.68993" lon="6.8577">
        <ele>2157.2</ele>
        <time>2026-03-25T09:52:01Z</time>
      </trkpt>
      <trkpt lat="44.68993" lon="6.8577">
        <ele>2158.6</ele>
        <time>2026-03-25T09:52:02Z</time>
      </trkpt>
      <trkpt lat="44.68993" lon="6.8577">
        <ele>2158.6</ele>
        <time>2026-03-25T09:52:03Z</time>
      </trkpt>
      <trkpt lat="44.68994" lon="6.85771">
        <ele>2158.6</ele>
        <time>2026-03-25T09:52:04Z</time>
      </trkpt>
      <trkpt lat="44.68994" lon="6.85771">
        <ele>2158.6</ele>
        <time>2026-03-25T09:52:05Z</time>
      </trkpt>
      <trkpt lat="44.68994" lon="6.85771">
        <ele>2158.6</ele>
        <time>2026-03-25T09:52:06Z</time>
      </trkpt>
      <trkpt lat="44.68994" lon="6.85771">
        <ele>2158.6</ele>
        <time>2026-03-25T09:52:07Z</time>
      </trkpt>
      <trkpt lat="44.68995" lon="6.85772">
        <ele>2158.6</ele>
        <time>2026-03-25T09:52:08Z</time>
      </trkpt>
      <trkpt lat="44.68995" lon="6.85772">
        <ele>2158.5</ele>
        <time>2026-03-25T09:52:09Z</time>
      </trkpt>
      <trkpt lat="44.68996" lon="6.85772">
        <ele>2158.5</ele>
        <time>2026-03-25T09:52:10Z</time>
      </trkpt>
      <trkpt lat="44.68996" lon="6.85773">
        <ele>2158.5</ele>
        <time>2026-03-25T09:52:11Z</time>
      </trkpt>
      <trkpt lat="44.68997" lon="6.85773">
        <ele>2158.5</ele>
        <time>2026-03-25T09:52:12Z</time>
      </trkpt>
      <trkpt lat="44.68997" lon="6.85773">
        <ele>2158.5</ele>
        <time>2026-03-25T09:52:13Z</time>
      </trkpt>
      <trkpt lat="44.68997" lon="6.85773">
        <ele>2158.5</ele>
        <time>2026-03-25T09:52:14Z</time>
      </trkpt>
      <trkpt lat="44.68998" lon="6.85774">
        <ele>2158.5</ele>
        <time>2026-03-25T09:52:15Z</time>
      </trkpt>
      <trkpt lat="44.68998" lon="6.85774">
        <ele>2158.4</ele>
        <time>2026-03-25T09:52:16Z</time>
      </trkpt>
      <trkpt lat="44.68999" lon="6.85775">
        <ele>2159.9</ele>
        <time>2026-03-25T09:52:17Z</time>
      </trkpt>
      <trkpt lat="44.68999" lon="6.85776">
        <ele>2159.9</ele>
        <time>2026-03-25T09:52:18Z</time>
      </trkpt>
      <trkpt lat="44.68999" lon="6.85776">
        <ele>2159.9</ele>
        <time>2026-03-25T09:52:19Z</time>
      </trkpt>
      <trkpt lat="44.69" lon="6.85777">
        <ele>2159.9</ele>
        <time>2026-03-25T09:52:20Z</time>
      </trkpt>
      <trkpt lat="44.69" lon="6.85778">
        <ele>2159.9</ele>
        <time>2026-03-25T09:52:21Z</time>
      </trkpt>
      <trkpt lat="44.68999" lon="6.85779">
        <ele>2161.2</ele>
        <time>2026-03-25T09:52:22Z</time>
      </trkpt>
      <trkpt lat="44.68999" lon="6.8578">
        <ele>2161.2</ele>
        <time>2026-03-25T09:52:23Z</time>
      </trkpt>
      <trkpt lat="44.68998" lon="6.8578">
        <ele>2161.3</ele>
        <time>2026-03-25T09:52:24Z</time>
      </trkpt>
      <trkpt lat="44.68998" lon="6.8578">
        <ele>2161.3</ele>
        <time>2026-03-25T09:52:25Z</time>
      </trkpt>
      <trkpt lat="44.68997" lon="6.8578">
        <ele>2161.3</ele>
        <time>2026-03-25T09:52:26Z</time>
      </trkpt>
      <trkpt lat="44.68996" lon="6.8578">
        <ele>2161.3</ele>
        <time>2026-03-25T09:52:27Z</time>
      </trkpt>
      <trkpt lat="44.68996" lon="6.85781">
        <ele>2161.3</ele>
        <time>2026-03-25T09:52:28Z</time>
      </trkpt>
      <trkpt lat="44.68995" lon="6.85781">
        <ele>2161.3</ele>
        <time>2026-03-25T09:52:29Z</time>
      </trkpt>
      <trkpt lat="44.68995" lon="6.85781">
        <ele>2161.3</ele>
        <time>2026-03-25T09:52:30Z</time>
      </trkpt>
      <trkpt lat="44.68995" lon="6.85782">
        <ele>2161.3</ele>
        <time>2026-03-25T09:52:31Z</time>
      </trkpt>
      <trkpt lat="44.68995" lon="6.85783">
        <ele>2161.3</ele>
        <time>2026-03-25T09:52:32Z</time>
      </trkpt>
      <trkpt lat="44.68994" lon="6.85783">
        <ele>2162.7</ele>
        <time>2026-03-25T09:52:33Z</time>
      </trkpt>
      <trkpt lat="44.68994" lon="6.85784">
        <ele>2162.7</ele>
        <time>2026-03-25T09:52:34Z</time>
      </trkpt>
      <trkpt lat="44.68993" lon="6.85785">
        <ele>2162.7</ele>
        <time>2026-03-25T09:52:35Z</time>
      </trkpt>
      <trkpt lat="44.68993" lon="6.85786">
        <ele>2162.7</ele>
        <time>2026-03-25T09:52:36Z</time>
      </trkpt>
      <trkpt lat="44.68993" lon="6.85787">
        <ele>2162.7</ele>
        <time>2026-03-25T09:52:37Z</time>
      </trkpt>
      <trkpt lat="44.68993" lon="6.85788">
        <ele>2164</ele>
        <time>2026-03-25T09:52:38Z</time>
      </trkpt>
      <trkpt lat="44.68993" lon="6.85788">
        <ele>2164</ele>
        <time>2026-03-25T09:52:39Z</time>
      </trkpt>
      <trkpt lat="44.68993" lon="6.85788">
        <ele>2164</ele>
        <time>2026-03-25T09:52:40Z</time>
      </trkpt>
      <trkpt lat="44.68993" lon="6.85788">
        <ele>2164</ele>
        <time>2026-03-25T09:52:41Z</time>
      </trkpt>
      <trkpt lat="44.68994" lon="6.85789">
        <ele>2164</ele>
        <time>2026-03-25T09:52:42Z</time>
      </trkpt>
      <trkpt lat="44.68994" lon="6.85789">
        <ele>2164</ele>
        <time>2026-03-25T09:52:43Z</time>
      </trkpt>
      <trkpt lat="44.68994" lon="6.85789">
        <ele>2164</ele>
        <time>2026-03-25T09:52:44Z</time>
      </trkpt>
      <trkpt lat="44.68994" lon="6.85789">
        <ele>2164</ele>
        <time>2026-03-25T09:52:45Z</time>
      </trkpt>
      <trkpt lat="44.68994" lon="6.85789">
        <ele>2164</ele>
        <time>2026-03-25T09:52:46Z</time>
      </trkpt>
      <trkpt lat="44.68994" lon="6.85789">
        <ele>2164</ele>
        <time>2026-03-25T09:52:47Z</time>
      </trkpt>
      <trkpt lat="44.68995" lon="6.8579">
        <ele>2164</ele>
        <time>2026-03-25T09:52:48Z</time>
      </trkpt>
      <trkpt lat="44.68995" lon="6.8579">
        <ele>2164</ele>
        <time>2026-03-25T09:52:49Z</time>
      </trkpt>
      <trkpt lat="44.68995" lon="6.8579">
        <ele>2164</ele>
        <time>2026-03-25T09:52:50Z</time>
      </trkpt>
      <trkpt lat="44.68995" lon="6.8579">
        <ele>2164</ele>
        <time>2026-03-25T09:52:51Z</time>
      </trkpt>
      <trkpt lat="44.68996" lon="6.8579">
        <ele>2164</ele>
        <time>2026-03-25T09:52:52Z</time>
      </trkpt>
      <trkpt lat="44.68996" lon="6.85791">
        <ele>2164</ele>
        <time>2026-03-25T09:52:53Z</time>
      </trkpt>
      <trkpt lat="44.68996" lon="6.8579">
        <ele>2164</ele>
        <time>2026-03-25T09:52:54Z</time>
      </trkpt>
      <trkpt lat="44.68996" lon="6.85791">
        <ele>2164</ele>
        <time>2026-03-25T09:52:55Z</time>
      </trkpt>
      <trkpt lat="44.68997" lon="6.85791">
        <ele>2164</ele>
        <time>2026-03-25T09:52:56Z</time>
      </trkpt>
      <trkpt lat="44.68997" lon="6.85791">
        <ele>2164</ele>
        <time>2026-03-25T09:52:57Z</time>
      </trkpt>
      <trkpt lat="44.68997" lon="6.85791">
        <ele>2164</ele>
        <time>2026-03-25T09:52:58Z</time>
      </trkpt>
      <trkpt lat="44.68997" lon="6.85792">
        <ele>2165.4</ele>
        <time>2026-03-25T09:52:59Z</time>
      </trkpt>
      <trkpt lat="44.68997" lon="6.85792">
        <ele>2165.4</ele>
        <time>2026-03-25T09:53:00Z</time>
      </trkpt>
      <trkpt lat="44.68998" lon="6.85792">
        <ele>2165.4</ele>
        <time>2026-03-25T09:53:01Z</time>
      </trkpt>
      <trkpt lat="44.68998" lon="6.85792">
        <ele>2165.4</ele>
        <time>2026-03-25T09:53:02Z</time>
      </trkpt>
      <trkpt lat="44.68999" lon="6.85792">
        <ele>2165.5</ele>
        <time>2026-03-25T09:53:03Z</time>
      </trkpt>
      <trkpt lat="44.68999" lon="6.85792">
        <ele>2165.5</ele>
        <time>2026-03-25T09:53:04Z</time>
      </trkpt>
      <trkpt lat="44.68999" lon="6.85792">
        <ele>2165.5</ele>
        <time>2026-03-25T09:53:05Z</time>
      </trkpt>
      <trkpt lat="44.69" lon="6.85792">
        <ele>2165.5</ele>
        <time>2026-03-25T09:53:06Z</time>
      </trkpt>
      <trkpt lat="44.69" lon="6.85792">
        <ele>2165.5</ele>
        <time>2026-03-25T09:53:07Z</time>
      </trkpt>
      <trkpt lat="44.69" lon="6.85792">
        <ele>2165.5</ele>
        <time>2026-03-25T09:53:08Z</time>
      </trkpt>
      <trkpt lat="44.69" lon="6.85791">
        <ele>2164</ele>
        <time>2026-03-25T09:53:09Z</time>
      </trkpt>
      <trkpt lat="44.69001" lon="6.85793">
        <ele>2165.5</ele>
        <time>2026-03-25T09:53:10Z</time>
      </trkpt>
      <trkpt lat="44.69001" lon="6.85793">
        <ele>2165.5</ele>
        <time>2026-03-25T09:53:11Z</time>
      </trkpt>
      <trkpt lat="44.69001" lon="6.85793">
        <ele>2165.5</ele>
        <time>2026-03-25T09:53:12Z</time>
      </trkpt>
      <trkpt lat="44.69002" lon="6.85793">
        <ele>2165.5</ele>
        <time>2026-03-25T09:53:13Z</time>
      </trkpt>
      <trkpt lat="44.69003" lon="6.85793">
        <ele>2165.5</ele>
        <time>2026-03-25T09:53:14Z</time>
      </trkpt>
      <trkpt lat="44.69004" lon="6.85793">
        <ele>2165.5</ele>
        <time>2026-03-25T09:53:15Z</time>
      </trkpt>
      <trkpt lat="44.69004" lon="6.85794">
        <ele>2165.5</ele>
        <time>2026-03-25T09:53:16Z</time>
      </trkpt>
      <trkpt lat="44.69004" lon="6.85795">
        <ele>2165.5</ele>
        <time>2026-03-25T09:53:17Z</time>
      </trkpt>
      <trkpt lat="44.69004" lon="6.85795">
        <ele>2165.5</ele>
        <time>2026-03-25T09:53:18Z</time>
      </trkpt>
      <trkpt lat="44.69004" lon="6.85796">
        <ele>2165.5</ele>
        <time>2026-03-25T09:53:19Z</time>
      </trkpt>
      <trkpt lat="44.69004" lon="6.85796">
        <ele>2167.1</ele>
        <time>2026-03-25T09:53:20Z</time>
      </trkpt>
      <trkpt lat="44.69004" lon="6.85797">
        <ele>2167.1</ele>
        <time>2026-03-25T09:53:21Z</time>
      </trkpt>
      <trkpt lat="44.69004" lon="6.85797">
        <ele>2167.1</ele>
        <time>2026-03-25T09:53:22Z</time>
      </trkpt>
      <trkpt lat="44.69003" lon="6.85797">
        <ele>2167.1</ele>
        <time>2026-03-25T09:53:23Z</time>
      </trkpt>
      <trkpt lat="44.69003" lon="6.85797">
        <ele>2167.1</ele>
        <time>2026-03-25T09:53:24Z</time>
      </trkpt>
      <trkpt lat="44.69003" lon="6.85797">
        <ele>2167.1</ele>
        <time>2026-03-25T09:53:25Z</time>
      </trkpt>
      <trkpt lat="44.69003" lon="6.85798">
        <ele>2167.1</ele>
        <time>2026-03-25T09:53:26Z</time>
      </trkpt>
      <trkpt lat="44.69002" lon="6.85799">
        <ele>2167.1</ele>
        <time>2026-03-25T09:53:27Z</time>
      </trkpt>
      <trkpt lat="44.69002" lon="6.85799">
        <ele>2167.1</ele>
        <time>2026-03-25T09:53:28Z</time>
      </trkpt>
      <trkpt lat="44.69002" lon="6.85799">
        <ele>2167.1</ele>
        <time>2026-03-25T09:53:29Z</time>
      </trkpt>
      <trkpt lat="44.69001" lon="6.85799">
        <ele>2167</ele>
        <time>2026-03-25T09:53:30Z</time>
      </trkpt>
      <trkpt lat="44.69001" lon="6.858">
        <ele>2167</ele>
        <time>2026-03-25T09:53:31Z</time>
      </trkpt>
      <trkpt lat="44.69" lon="6.858">
        <ele>2167</ele>
        <time>2026-03-25T09:53:32Z</time>
      </trkpt>
      <trkpt lat="44.69" lon="6.858">
        <ele>2167</ele>
        <time>2026-03-25T09:53:33Z</time>
      </trkpt>
      <trkpt lat="44.68999" lon="6.858">
        <ele>2167</ele>
        <time>2026-03-25T09:53:34Z</time>
      </trkpt>
      <trkpt lat="44.68999" lon="6.858">
        <ele>2168.6</ele>
        <time>2026-03-25T09:53:35Z</time>
      </trkpt>
      <trkpt lat="44.68999" lon="6.85801">
        <ele>2168.6</ele>
        <time>2026-03-25T09:53:36Z</time>
      </trkpt>
      <trkpt lat="44.68998" lon="6.85802">
        <ele>2168.6</ele>
        <time>2026-03-25T09:53:37Z</time>
      </trkpt>
      <trkpt lat="44.68998" lon="6.85802">
        <ele>2168.5</ele>
        <time>2026-03-25T09:53:38Z</time>
      </trkpt>
      <trkpt lat="44.68998" lon="6.85802">
        <ele>2168.5</ele>
        <time>2026-03-25T09:53:39Z</time>
      </trkpt>
      <trkpt lat="44.68998" lon="6.85803">
        <ele>2168.5</ele>
        <time>2026-03-25T09:53:40Z</time>
      </trkpt>
      <trkpt lat="44.68997" lon="6.85803">
        <ele>2168.5</ele>
        <time>2026-03-25T09:53:41Z</time>
      </trkpt>
      <trkpt lat="44.68997" lon="6.85804">
        <ele>2168.5</ele>
        <time>2026-03-25T09:53:42Z</time>
      </trkpt>
      <trkpt lat="44.68996" lon="6.85804">
        <ele>2168.5</ele>
        <time>2026-03-25T09:53:43Z</time>
      </trkpt>
      <trkpt lat="44.68996" lon="6.85804">
        <ele>2168.5</ele>
        <time>2026-03-25T09:53:44Z</time>
      </trkpt>
      <trkpt lat="44.68995" lon="6.85805">
        <ele>2170.1</ele>
        <time>2026-03-25T09:53:45Z</time>
      </trkpt>
      <trkpt lat="44.68995" lon="6.85806">
        <ele>2170</ele>
        <time>2026-03-25T09:53:46Z</time>
      </trkpt>
      <trkpt lat="44.68994" lon="6.85806">
        <ele>2170</ele>
        <time>2026-03-25T09:53:47Z</time>
      </trkpt>
      <trkpt lat="44.68994" lon="6.85806">
        <ele>2170</ele>
        <time>2026-03-25T09:53:48Z</time>
      </trkpt>
      <trkpt lat="44.68993" lon="6.85806">
        <ele>2170</ele>
        <time>2026-03-25T09:53:49Z</time>
      </trkpt>
      <trkpt lat="44.68993" lon="6.85807">
        <ele>2170</ele>
        <time>2026-03-25T09:53:50Z</time>
      </trkpt>
      <trkpt lat="44.68992" lon="6.85807">
        <ele>2169.9</ele>
        <time>2026-03-25T09:53:51Z</time>
      </trkpt>
      <trkpt lat="44.68992" lon="6.85807">
        <ele>2169.9</ele>
        <time>2026-03-25T09:53:52Z</time>
      </trkpt>
      <trkpt lat="44.68991" lon="6.85807">
        <ele>2169.9</ele>
        <time>2026-03-25T09:53:53Z</time>
      </trkpt>
      <trkpt lat="44.68991" lon="6.85807">
        <ele>2169.9</ele>
        <time>2026-03-25T09:53:54Z</time>
      </trkpt>
      <trkpt lat="44.68991" lon="6.85808">
        <ele>2169.9</ele>
        <time>2026-03-25T09:53:55Z</time>
      </trkpt>
      <trkpt lat="44.6899" lon="6.85808">
        <ele>2169.9</ele>
        <time>2026-03-25T09:53:56Z</time>
      </trkpt>
      <trkpt lat="44.6899" lon="6.85808">
        <ele>2169.9</ele>
        <time>2026-03-25T09:53:57Z</time>
      </trkpt>
      <trkpt lat="44.6899" lon="6.85808">
        <ele>2169.9</ele>
        <time>2026-03-25T09:53:58Z</time>
      </trkpt>
      <trkpt lat="44.68989" lon="6.85808">
        <ele>2169.9</ele>
        <time>2026-03-25T09:53:59Z</time>
      </trkpt>
      <trkpt lat="44.68989" lon="6.85808">
        <ele>2169.9</ele>
        <time>2026-03-25T09:54:00Z</time>
      </trkpt>
      <trkpt lat="44.68988" lon="6.85808">
        <ele>2169.9</ele>
        <time>2026-03-25T09:54:01Z</time>
      </trkpt>
      <trkpt lat="44.68988" lon="6.85808">
        <ele>2169.9</ele>
        <time>2026-03-25T09:54:02Z</time>
      </trkpt>
      <trkpt lat="44.68988" lon="6.85809">
        <ele>2171.3</ele>
        <time>2026-03-25T09:54:03Z</time>
      </trkpt>
      <trkpt lat="44.68987" lon="6.85809">
        <ele>2171.3</ele>
        <time>2026-03-25T09:54:04Z</time>
      </trkpt>
      <trkpt lat="44.68987" lon="6.8581">
        <ele>2171.3</ele>
        <time>2026-03-25T09:54:05Z</time>
      </trkpt>
      <trkpt lat="44.68987" lon="6.8581">
        <ele>2171.3</ele>
        <time>2026-03-25T09:54:06Z</time>
      </trkpt>
      <trkpt lat="44.68987" lon="6.85811">
        <ele>2171.3</ele>
        <time>2026-03-25T09:54:07Z</time>
      </trkpt>
      <trkpt lat="44.68987" lon="6.85811">
        <ele>2171.3</ele>
        <time>2026-03-25T09:54:08Z</time>
      </trkpt>
      <trkpt lat="44.68987" lon="6.85812">
        <ele>2171.3</ele>
        <time>2026-03-25T09:54:09Z</time>
      </trkpt>
      <trkpt lat="44.68986" lon="6.85812">
        <ele>2171.3</ele>
        <time>2026-03-25T09:54:10Z</time>
      </trkpt>
      <trkpt lat="44.68986" lon="6.85812">
        <ele>2171.2</ele>
        <time>2026-03-25T09:54:11Z</time>
      </trkpt>
      <trkpt lat="44.68985" lon="6.85812">
        <ele>2171.2</ele>
        <time>2026-03-25T09:54:12Z</time>
      </trkpt>
      <trkpt lat="44.68985" lon="6.85811">
        <ele>2171.2</ele>
        <time>2026-03-25T09:54:13Z</time>
      </trkpt>
      <trkpt lat="44.68985" lon="6.85811">
        <ele>2171.2</ele>
        <time>2026-03-25T09:54:14Z</time>
      </trkpt>
      <trkpt lat="44.68984" lon="6.85811">
        <ele>2171.2</ele>
        <time>2026-03-25T09:54:15Z</time>
      </trkpt>
      <trkpt lat="44.68983" lon="6.85812">
        <ele>2171.2</ele>
        <time>2026-03-25T09:54:16Z</time>
      </trkpt>
      <trkpt lat="44.68983" lon="6.85812">
        <ele>2171.1</ele>
        <time>2026-03-25T09:54:17Z</time>
      </trkpt>
      <trkpt lat="44.68982" lon="6.85812">
        <ele>2171.1</ele>
        <time>2026-03-25T09:54:18Z</time>
      </trkpt>
      <trkpt lat="44.68982" lon="6.85812">
        <ele>2171.1</ele>
        <time>2026-03-25T09:54:19Z</time>
      </trkpt>
      <trkpt lat="44.68981" lon="6.85812">
        <ele>2171.1</ele>
        <time>2026-03-25T09:54:20Z</time>
      </trkpt>
      <trkpt lat="44.68981" lon="6.85812">
        <ele>2171.1</ele>
        <time>2026-03-25T09:54:21Z</time>
      </trkpt>
      <trkpt lat="44.68981" lon="6.85812">
        <ele>2171.1</ele>
        <time>2026-03-25T09:54:22Z</time>
      </trkpt>
      <trkpt lat="44.6898" lon="6.85812">
        <ele>2171.1</ele>
        <time>2026-03-25T09:54:23Z</time>
      </trkpt>
      <trkpt lat="44.6898" lon="6.85812">
        <ele>2171.1</ele>
        <time>2026-03-25T09:54:24Z</time>
      </trkpt>
      <trkpt lat="44.6898" lon="6.85812">
        <ele>2171</ele>
        <time>2026-03-25T09:54:25Z</time>
      </trkpt>
      <trkpt lat="44.68979" lon="6.85812">
        <ele>2171</ele>
        <time>2026-03-25T09:54:26Z</time>
      </trkpt>
      <trkpt lat="44.68979" lon="6.85812">
        <ele>2171</ele>
        <time>2026-03-25T09:54:27Z</time>
      </trkpt>
      <trkpt lat="44.68979" lon="6.85811">
        <ele>2171</ele>
        <time>2026-03-25T09:54:28Z</time>
      </trkpt>
      <trkpt lat="44.68979" lon="6.85811">
        <ele>2171</ele>
        <time>2026-03-25T09:54:29Z</time>
      </trkpt>
      <trkpt lat="44.68978" lon="6.85811">
        <ele>2171</ele>
        <time>2026-03-25T09:54:30Z</time>
      </trkpt>
      <trkpt lat="44.68978" lon="6.85812">
        <ele>2171</ele>
        <time>2026-03-25T09:54:31Z</time>
      </trkpt>
      <trkpt lat="44.68978" lon="6.85812">
        <ele>2171</ele>
        <time>2026-03-25T09:54:32Z</time>
      </trkpt>
      <trkpt lat="44.68978" lon="6.85812">
        <ele>2171</ele>
        <time>2026-03-25T09:54:33Z</time>
      </trkpt>
      <trkpt lat="44.68977" lon="6.85812">
        <ele>2171</ele>
        <time>2026-03-25T09:54:34Z</time>
      </trkpt>
      <trkpt lat="44.68977" lon="6.85813">
        <ele>2171</ele>
        <time>2026-03-25T09:54:35Z</time>
      </trkpt>
      <trkpt lat="44.68976" lon="6.85813">
        <ele>2172.2</ele>
        <time>2026-03-25T09:54:36Z</time>
      </trkpt>
      <trkpt lat="44.68976" lon="6.85813">
        <ele>2172.2</ele>
        <time>2026-03-25T09:54:37Z</time>
      </trkpt>
      <trkpt lat="44.68975" lon="6.85813">
        <ele>2172.2</ele>
        <time>2026-03-25T09:54:38Z</time>
      </trkpt>
      <trkpt lat="44.68975" lon="6.85814">
        <ele>2172.2</ele>
        <time>2026-03-25T09:54:39Z</time>
      </trkpt>
      <trkpt lat="44.68974" lon="6.85814">
        <ele>2172.2</ele>
        <time>2026-03-25T09:54:40Z</time>
      </trkpt>
      <trkpt lat="44.68974" lon="6.85813">
        <ele>2172</ele>
        <time>2026-03-25T09:54:41Z</time>
      </trkpt>
      <trkpt lat="44.68974" lon="6.85813">
        <ele>2170.7</ele>
        <time>2026-03-25T09:54:42Z</time>
      </trkpt>
      <trkpt lat="44.68973" lon="6.85813">
        <ele>2170.7</ele>
        <time>2026-03-25T09:54:43Z</time>
      </trkpt>
      <trkpt lat="44.68973" lon="6.85813">
        <ele>2170.7</ele>
        <time>2026-03-25T09:54:44Z</time>
      </trkpt>
      <trkpt lat="44.68973" lon="6.85813">
        <ele>2172</ele>
        <time>2026-03-25T09:54:45Z</time>
      </trkpt>
      <trkpt lat="44.68972" lon="6.85814">
        <ele>2172</ele>
        <time>2026-03-25T09:54:46Z</time>
      </trkpt>
      <trkpt lat="44.68972" lon="6.85814">
        <ele>2172</ele>
        <time>2026-03-25T09:54:47Z</time>
      </trkpt>
      <trkpt lat="44.68971" lon="6.85815">
        <ele>2172</ele>
        <time>2026-03-25T09:54:48Z</time>
      </trkpt>
      <trkpt lat="44.68971" lon="6.85815">
        <ele>2171.9</ele>
        <time>2026-03-25T09:54:49Z</time>
      </trkpt>
      <trkpt lat="44.6897" lon="6.85815">
        <ele>2171.9</ele>
        <time>2026-03-25T09:54:50Z</time>
      </trkpt>
      <trkpt lat="44.6897" lon="6.85816">
        <ele>2171.9</ele>
        <time>2026-03-25T09:54:51Z</time>
      </trkpt>
      <trkpt lat="44.6897" lon="6.85816">
        <ele>2171.9</ele>
        <time>2026-03-25T09:54:52Z</time>
      </trkpt>
      <trkpt lat="44.68969" lon="6.85817">
        <ele>2171.9</ele>
        <time>2026-03-25T09:54:53Z</time>
      </trkpt>
      <trkpt lat="44.68969" lon="6.85817">
        <ele>2171.9</ele>
        <time>2026-03-25T09:54:54Z</time>
      </trkpt>
      <trkpt lat="44.68969" lon="6.85817">
        <ele>2173.2</ele>
        <time>2026-03-25T09:54:55Z</time>
      </trkpt>
      <trkpt lat="44.68968" lon="6.85818">
        <ele>2173.2</ele>
        <time>2026-03-25T09:54:56Z</time>
      </trkpt>
      <trkpt lat="44.68968" lon="6.85818">
        <ele>2173</ele>
        <time>2026-03-25T09:54:57Z</time>
      </trkpt>
      <trkpt lat="44.68967" lon="6.85818">
        <ele>2173</ele>
        <time>2026-03-25T09:54:58Z</time>
      </trkpt>
      <trkpt lat="44.68967" lon="6.85818">
        <ele>2173</ele>
        <time>2026-03-25T09:54:59Z</time>
      </trkpt>
      <trkpt lat="44.68967" lon="6.85819">
        <ele>2173</ele>
        <time>2026-03-25T09:55:00Z</time>
      </trkpt>
      <trkpt lat="44.68967" lon="6.85819">
        <ele>2173</ele>
        <time>2026-03-25T09:55:01Z</time>
      </trkpt>
      <trkpt lat="44.68966" lon="6.85819">
        <ele>2173</ele>
        <time>2026-03-25T09:55:02Z</time>
      </trkpt>
      <trkpt lat="44.68966" lon="6.85819">
        <ele>2173</ele>
        <time>2026-03-25T09:55:03Z</time>
      </trkpt>
      <trkpt lat="44.68965" lon="6.85819">
        <ele>2173</ele>
        <time>2026-03-25T09:55:04Z</time>
      </trkpt>
      <trkpt lat="44.68965" lon="6.85819">
        <ele>2173</ele>
        <time>2026-03-25T09:55:05Z</time>
      </trkpt>
      <trkpt lat="44.68964" lon="6.85819">
        <ele>2173</ele>
        <time>2026-03-25T09:55:06Z</time>
      </trkpt>
      <trkpt lat="44.68963" lon="6.85819">
        <ele>2173</ele>
        <time>2026-03-25T09:55:07Z</time>
      </trkpt>
      <trkpt lat="44.68963" lon="6.85819">
        <ele>2173</ele>
        <time>2026-03-25T09:55:08Z</time>
      </trkpt>
      <trkpt lat="44.68962" lon="6.8582">
        <ele>2173</ele>
        <time>2026-03-25T09:55:09Z</time>
      </trkpt>
      <trkpt lat="44.68962" lon="6.85821">
        <ele>2173</ele>
        <time>2026-03-25T09:55:10Z</time>
      </trkpt>
      <trkpt lat="44.68961" lon="6.85821">
        <ele>2172.9</ele>
        <time>2026-03-25T09:55:11Z</time>
      </trkpt>
      <trkpt lat="44.68961" lon="6.85821">
        <ele>2172.9</ele>
        <time>2026-03-25T09:55:12Z</time>
      </trkpt>
      <trkpt lat="44.6896" lon="6.85822">
        <ele>2174.1</ele>
        <time>2026-03-25T09:55:13Z</time>
      </trkpt>
      <trkpt lat="44.6896" lon="6.85822">
        <ele>2174.1</ele>
        <time>2026-03-25T09:55:14Z</time>
      </trkpt>
      <trkpt lat="44.6896" lon="6.85823">
        <ele>2174.1</ele>
        <time>2026-03-25T09:55:15Z</time>
      </trkpt>
      <trkpt lat="44.6896" lon="6.85824">
        <ele>2174.1</ele>
        <time>2026-03-25T09:55:16Z</time>
      </trkpt>
      <trkpt lat="44.68959" lon="6.85825">
        <ele>2174.1</ele>
        <time>2026-03-25T09:55:17Z</time>
      </trkpt>
      <trkpt lat="44.68959" lon="6.85826">
        <ele>2174.1</ele>
        <time>2026-03-25T09:55:18Z</time>
      </trkpt>
      <trkpt lat="44.68958" lon="6.85827">
        <ele>2175.3</ele>
        <time>2026-03-25T09:55:19Z</time>
      </trkpt>
      <trkpt lat="44.68958" lon="6.85827">
        <ele>2175.3</ele>
        <time>2026-03-25T09:55:20Z</time>
      </trkpt>
      <trkpt lat="44.68958" lon="6.85827">
        <ele>2175.3</ele>
        <time>2026-03-25T09:55:21Z</time>
      </trkpt>
      <trkpt lat="44.68958" lon="6.85828">
        <ele>2175.3</ele>
        <time>2026-03-25T09:55:22Z</time>
      </trkpt>
      <trkpt lat="44.68958" lon="6.85828">
        <ele>2175.3</ele>
        <time>2026-03-25T09:55:23Z</time>
      </trkpt>
      <trkpt lat="44.68958" lon="6.85829">
        <ele>2175.3</ele>
        <time>2026-03-25T09:55:24Z</time>
      </trkpt>
      <trkpt lat="44.68959" lon="6.85829">
        <ele>2175.4</ele>
        <time>2026-03-25T09:55:25Z</time>
      </trkpt>
      <trkpt lat="44.68958" lon="6.8583">
        <ele>2176.6</ele>
        <time>2026-03-25T09:55:26Z</time>
      </trkpt>
      <trkpt lat="44.68958" lon="6.85831">
        <ele>2176.6</ele>
        <time>2026-03-25T09:55:27Z</time>
      </trkpt>
      <trkpt lat="44.68958" lon="6.85831">
        <ele>2176.6</ele>
        <time>2026-03-25T09:55:28Z</time>
      </trkpt>
      <trkpt lat="44.68958" lon="6.85832">
        <ele>2176.6</ele>
        <time>2026-03-25T09:55:29Z</time>
      </trkpt>
      <trkpt lat="44.68958" lon="6.85832">
        <ele>2176.6</ele>
        <time>2026-03-25T09:55:30Z</time>
      </trkpt>
      <trkpt lat="44.68957" lon="6.85833">
        <ele>2176.6</ele>
        <time>2026-03-25T09:55:31Z</time>
      </trkpt>
      <trkpt lat="44.68957" lon="6.85833">
        <ele>2176.6</ele>
        <time>2026-03-25T09:55:32Z</time>
      </trkpt>
      <trkpt lat="44.68957" lon="6.85835">
        <ele>2177.9</ele>
        <time>2026-03-25T09:55:33Z</time>
      </trkpt>
      <trkpt lat="44.68957" lon="6.85835">
        <ele>2177.9</ele>
        <time>2026-03-25T09:55:34Z</time>
      </trkpt>
      <trkpt lat="44.68956" lon="6.85835">
        <ele>2177.9</ele>
        <time>2026-03-25T09:55:35Z</time>
      </trkpt>
      <trkpt lat="44.68956" lon="6.85835">
        <ele>2177.9</ele>
        <time>2026-03-25T09:55:36Z</time>
      </trkpt>
      <trkpt lat="44.68956" lon="6.85836">
        <ele>2177.9</ele>
        <time>2026-03-25T09:55:37Z</time>
      </trkpt>
      <trkpt lat="44.68956" lon="6.85836">
        <ele>2177.9</ele>
        <time>2026-03-25T09:55:38Z</time>
      </trkpt>
      <trkpt lat="44.68956" lon="6.85837">
        <ele>2177.9</ele>
        <time>2026-03-25T09:55:39Z</time>
      </trkpt>
      <trkpt lat="44.68956" lon="6.85837">
        <ele>2177.9</ele>
        <time>2026-03-25T09:55:40Z</time>
      </trkpt>
      <trkpt lat="44.68955" lon="6.85837">
        <ele>2177.9</ele>
        <time>2026-03-25T09:55:41Z</time>
      </trkpt>
      <trkpt lat="44.68955" lon="6.85837">
        <ele>2177.9</ele>
        <time>2026-03-25T09:55:42Z</time>
      </trkpt>
      <trkpt lat="44.68954" lon="6.85838">
        <ele>2177.9</ele>
        <time>2026-03-25T09:55:43Z</time>
      </trkpt>
      <trkpt lat="44.68954" lon="6.85838">
        <ele>2177.9</ele>
        <time>2026-03-25T09:55:44Z</time>
      </trkpt>
      <trkpt lat="44.68954" lon="6.85839">
        <ele>2179.2</ele>
        <time>2026-03-25T09:55:45Z</time>
      </trkpt>
      <trkpt lat="44.68954" lon="6.85839">
        <ele>2179.2</ele>
        <time>2026-03-25T09:55:46Z</time>
      </trkpt>
      <trkpt lat="44.68953" lon="6.85839">
        <ele>2179.2</ele>
        <time>2026-03-25T09:55:47Z</time>
      </trkpt>
      <trkpt lat="44.68953" lon="6.8584">
        <ele>2179.2</ele>
        <time>2026-03-25T09:55:48Z</time>
      </trkpt>
      <trkpt lat="44.68953" lon="6.8584">
        <ele>2179.2</ele>
        <time>2026-03-25T09:55:49Z</time>
      </trkpt>
      <trkpt lat="44.68953" lon="6.8584">
        <ele>2179.2</ele>
        <time>2026-03-25T09:55:50Z</time>
      </trkpt>
      <trkpt lat="44.68952" lon="6.85841">
        <ele>2179.2</ele>
        <time>2026-03-25T09:55:51Z</time>
      </trkpt>
      <trkpt lat="44.68952" lon="6.85841">
        <ele>2179.2</ele>
        <time>2026-03-25T09:55:52Z</time>
      </trkpt>
      <trkpt lat="44.68952" lon="6.85841">
        <ele>2179.2</ele>
        <time>2026-03-25T09:55:53Z</time>
      </trkpt>
      <trkpt lat="44.68952" lon="6.85842">
        <ele>2179.2</ele>
        <time>2026-03-25T09:55:54Z</time>
      </trkpt>
      <trkpt lat="44.68952" lon="6.85842">
        <ele>2179.2</ele>
        <time>2026-03-25T09:55:55Z</time>
      </trkpt>
      <trkpt lat="44.68951" lon="6.85843">
        <ele>2179.2</ele>
        <time>2026-03-25T09:55:56Z</time>
      </trkpt>
      <trkpt lat="44.68951" lon="6.85843">
        <ele>2180.5</ele>
        <time>2026-03-25T09:55:57Z</time>
      </trkpt>
      <trkpt lat="44.68951" lon="6.85844">
        <ele>2180.5</ele>
        <time>2026-03-25T09:55:58Z</time>
      </trkpt>
      <trkpt lat="44.68951" lon="6.85844">
        <ele>2180.5</ele>
        <time>2026-03-25T09:55:59Z</time>
      </trkpt>
      <trkpt lat="44.68951" lon="6.85845">
        <ele>2180.5</ele>
        <time>2026-03-25T09:56:00Z</time>
      </trkpt>
      <trkpt lat="44.68951" lon="6.85846">
        <ele>2180.5</ele>
        <time>2026-03-25T09:56:01Z</time>
      </trkpt>
      <trkpt lat="44.68951" lon="6.85846">
        <ele>2180.5</ele>
        <time>2026-03-25T09:56:02Z</time>
      </trkpt>
      <trkpt lat="44.68951" lon="6.85847">
        <ele>2180.5</ele>
        <time>2026-03-25T09:56:03Z</time>
      </trkpt>
      <trkpt lat="44.6895" lon="6.85847">
        <ele>2181.8</ele>
        <time>2026-03-25T09:56:04Z</time>
      </trkpt>
      <trkpt lat="44.6895" lon="6.85848">
        <ele>2181.8</ele>
        <time>2026-03-25T09:56:05Z</time>
      </trkpt>
      <trkpt lat="44.6895" lon="6.85849">
        <ele>2181.8</ele>
        <time>2026-03-25T09:56:06Z</time>
      </trkpt>
      <trkpt lat="44.6895" lon="6.85849">
        <ele>2181.8</ele>
        <time>2026-03-25T09:56:07Z</time>
      </trkpt>
      <trkpt lat="44.6895" lon="6.8585">
        <ele>2181.8</ele>
        <time>2026-03-25T09:56:08Z</time>
      </trkpt>
      <trkpt lat="44.68949" lon="6.85851">
        <ele>2181.7</ele>
        <time>2026-03-25T09:56:09Z</time>
      </trkpt>
      <trkpt lat="44.68949" lon="6.85851">
        <ele>2181.7</ele>
        <time>2026-03-25T09:56:10Z</time>
      </trkpt>
      <trkpt lat="44.68949" lon="6.85852">
        <ele>2183</ele>
        <time>2026-03-25T09:56:11Z</time>
      </trkpt>
      <trkpt lat="44.68948" lon="6.85853">
        <ele>2183</ele>
        <time>2026-03-25T09:56:12Z</time>
      </trkpt>
      <trkpt lat="44.68948" lon="6.85853">
        <ele>2183</ele>
        <time>2026-03-25T09:56:13Z</time>
      </trkpt>
      <trkpt lat="44.68948" lon="6.85854">
        <ele>2183</ele>
        <time>2026-03-25T09:56:14Z</time>
      </trkpt>
      <trkpt lat="44.68947" lon="6.85854">
        <ele>2183</ele>
        <time>2026-03-25T09:56:15Z</time>
      </trkpt>
      <trkpt lat="44.68947" lon="6.85855">
        <ele>2183</ele>
        <time>2026-03-25T09:56:16Z</time>
      </trkpt>
      <trkpt lat="44.68947" lon="6.85855">
        <ele>2183</ele>
        <time>2026-03-25T09:56:17Z</time>
      </trkpt>
      <trkpt lat="44.68947" lon="6.85855">
        <ele>2183</ele>
        <time>2026-03-25T09:56:18Z</time>
      </trkpt>
      <trkpt lat="44.68946" lon="6.85856">
        <ele>2184.1</ele>
        <time>2026-03-25T09:56:19Z</time>
      </trkpt>
      <trkpt lat="44.68946" lon="6.85856">
        <ele>2184.1</ele>
        <time>2026-03-25T09:56:20Z</time>
      </trkpt>
      <trkpt lat="44.68946" lon="6.85856">
        <ele>2184.1</ele>
        <time>2026-03-25T09:56:21Z</time>
      </trkpt>
      <trkpt lat="44.68945" lon="6.85857">
        <ele>2184.1</ele>
        <time>2026-03-25T09:56:22Z</time>
      </trkpt>
      <trkpt lat="44.68945" lon="6.85857">
        <ele>2184.1</ele>
        <time>2026-03-25T09:56:23Z</time>
      </trkpt>
      <trkpt lat="44.68944" lon="6.85858">
        <ele>2184.1</ele>
        <time>2026-03-25T09:56:24Z</time>
      </trkpt>
      <trkpt lat="44.68944" lon="6.85858">
        <ele>2184.1</ele>
        <time>2026-03-25T09:56:25Z</time>
      </trkpt>
      <trkpt lat="44.68944" lon="6.85858">
        <ele>2184.1</ele>
        <time>2026-03-25T09:56:26Z</time>
      </trkpt>
      <trkpt lat="44.68944" lon="6.85858">
        <ele>2184.1</ele>
        <time>2026-03-25T09:56:27Z</time>
      </trkpt>
      <trkpt lat="44.68944" lon="6.85858">
        <ele>2184.1</ele>
        <time>2026-03-25T09:56:28Z</time>
      </trkpt>
      <trkpt lat="44.68944" lon="6.85858">
        <ele>2184.1</ele>
        <time>2026-03-25T09:56:29Z</time>
      </trkpt>
      <trkpt lat="44.68944" lon="6.85858">
        <ele>2184.1</ele>
        <time>2026-03-25T09:56:30Z</time>
      </trkpt>
      <trkpt lat="44.68944" lon="6.85858">
        <ele>2184.1</ele>
        <time>2026-03-25T09:56:31Z</time>
      </trkpt>
      <trkpt lat="44.68944" lon="6.85858">
        <ele>2184.1</ele>
        <time>2026-03-25T09:56:32Z</time>
      </trkpt>
      <trkpt lat="44.68944" lon="6.85858">
        <ele>2184.1</ele>
        <time>2026-03-25T09:56:33Z</time>
      </trkpt>
      <trkpt lat="44.68944" lon="6.85858">
        <ele>2184.1</ele>
        <time>2026-03-25T09:56:34Z</time>
      </trkpt>
      <trkpt lat="44.68944" lon="6.85858">
        <ele>2184.1</ele>
        <time>2026-03-25T09:56:35Z</time>
      </trkpt>
      <trkpt lat="44.68944" lon="6.85858">
        <ele>2184.1</ele>
        <time>2026-03-25T09:56:36Z</time>
      </trkpt>
      <trkpt lat="44.68944" lon="6.85858">
        <ele>2184.1</ele>
        <time>2026-03-25T09:56:37Z</time>
      </trkpt>
      <trkpt lat="44.68944" lon="6.85858">
        <ele>2184.1</ele>
        <time>2026-03-25T09:56:38Z</time>
      </trkpt>
      <trkpt lat="44.68944" lon="6.85858">
        <ele>2184.1</ele>
        <time>2026-03-25T09:56:39Z</time>
      </trkpt>
      <trkpt lat="44.68944" lon="6.85858">
        <ele>2184.1</ele>
        <time>2026-03-25T09:56:40Z</time>
      </trkpt>
      <trkpt lat="44.68944" lon="6.85858">
        <ele>2184.1</ele>
        <time>2026-03-25T09:56:41Z</time>
      </trkpt>
      <trkpt lat="44.68944" lon="6.85858">
        <ele>2184.1</ele>
        <time>2026-03-25T09:56:42Z</time>
      </trkpt>
      <trkpt lat="44.68944" lon="6.85858">
        <ele>2184.1</ele>
        <time>2026-03-25T09:56:43Z</time>
      </trkpt>
      <trkpt lat="44.68944" lon="6.85858">
        <ele>2184.1</ele>
        <time>2026-03-25T09:56:44Z</time>
      </trkpt>
      <trkpt lat="44.68944" lon="6.85858">
        <ele>2184.1</ele>
        <time>2026-03-25T09:56:45Z</time>
      </trkpt>
      <trkpt lat="44.68944" lon="6.85858">
        <ele>2184.1</ele>
        <time>2026-03-25T09:56:46Z</time>
      </trkpt>
      <trkpt lat="44.68944" lon="6.85858">
        <ele>2184.1</ele>
        <time>2026-03-25T09:56:47Z</time>
      </trkpt>
      <trkpt lat="44.68944" lon="6.85858">
        <ele>2184.1</ele>
        <time>2026-03-25T09:56:48Z</time>
      </trkpt>
      <trkpt lat="44.68944" lon="6.85858">
        <ele>2184.1</ele>
        <time>2026-03-25T09:56:49Z</time>
      </trkpt>
      <trkpt lat="44.68944" lon="6.85858">
        <ele>2184.1</ele>
        <time>2026-03-25T09:56:50Z</time>
      </trkpt>
      <trkpt lat="44.68944" lon="6.85858">
        <ele>2184.1</ele>
        <time>2026-03-25T09:56:51Z</time>
      </trkpt>
      <trkpt lat="44.68944" lon="6.85858">
        <ele>2184.1</ele>
        <time>2026-03-25T09:56:52Z</time>
      </trkpt>
      <trkpt lat="44.68944" lon="6.85858">
        <ele>2184.1</ele>
        <time>2026-03-25T09:56:53Z</time>
      </trkpt>
      <trkpt lat="44.68944" lon="6.85858">
        <ele>2184.1</ele>
        <time>2026-03-25T09:56:54Z</time>
      </trkpt>
      <trkpt lat="44.68944" lon="6.85858">
        <ele>2184.1</ele>
        <time>2026-03-25T09:56:55Z</time>
      </trkpt>
      <trkpt lat="44.68944" lon="6.85858">
        <ele>2184.1</ele>
        <time>2026-03-25T09:56:56Z</time>
      </trkpt>
      <trkpt lat="44.68944" lon="6.85858">
        <ele>2184.1</ele>
        <time>2026-03-25T09:56:57Z</time>
      </trkpt>
      <trkpt lat="44.68944" lon="6.85858">
        <ele>2184.1</ele>
        <time>2026-03-25T09:56:58Z</time>
      </trkpt>
      <trkpt lat="44.68944" lon="6.85858">
        <ele>2184.1</ele>
        <time>2026-03-25T09:56:59Z</time>
      </trkpt>
      <trkpt lat="44.68944" lon="6.85858">
        <ele>2184.1</ele>
        <time>2026-03-25T09:57:00Z</time>
      </trkpt>
      <trkpt lat="44.68944" lon="6.85858">
        <ele>2184.1</ele>
        <time>2026-03-25T09:57:01Z</time>
      </trkpt>
      <trkpt lat="44.68944" lon="6.85858">
        <ele>2184.1</ele>
        <time>2026-03-25T09:57:02Z</time>
      </trkpt>
      <trkpt lat="44.68944" lon="6.85858">
        <ele>2184.1</ele>
        <time>2026-03-25T09:57:03Z</time>
      </trkpt>
      <trkpt lat="44.68944" lon="6.85858">
        <ele>2184.1</ele>
        <time>2026-03-25T09:57:04Z</time>
      </trkpt>
      <trkpt lat="44.68944" lon="6.85858">
        <ele>2184.1</ele>
        <time>2026-03-25T09:57:05Z</time>
      </trkpt>
      <trkpt lat="44.68944" lon="6.85858">
        <ele>2184.1</ele>
        <time>2026-03-25T09:57:06Z</time>
      </trkpt>
      <trkpt lat="44.68944" lon="6.85858">
        <ele>2184.1</ele>
        <time>2026-03-25T09:57:07Z</time>
      </trkpt>
      <trkpt lat="44.68944" lon="6.85858">
        <ele>2184.1</ele>
        <time>2026-03-25T09:57:08Z</time>
      </trkpt>
      <trkpt lat="44.68944" lon="6.85858">
        <ele>2184.1</ele>
        <time>2026-03-25T09:57:09Z</time>
      </trkpt>
      <trkpt lat="44.68944" lon="6.85858">
        <ele>2184.1</ele>
        <time>2026-03-25T09:57:10Z</time>
      </trkpt>
      <trkpt lat="44.68944" lon="6.85858">
        <ele>2184.1</ele>
        <time>2026-03-25T09:57:11Z</time>
      </trkpt>
      <trkpt lat="44.68944" lon="6.85858">
        <ele>2184.1</ele>
        <time>2026-03-25T09:57:12Z</time>
      </trkpt>
      <trkpt lat="44.68944" lon="6.85858">
        <ele>2184.1</ele>
        <time>2026-03-25T09:57:13Z</time>
      </trkpt>
      <trkpt lat="44.68944" lon="6.85858">
        <ele>2184.1</ele>
        <time>2026-03-25T09:57:14Z</time>
      </trkpt>
      <trkpt lat="44.68944" lon="6.85858">
        <ele>2184.1</ele>
        <time>2026-03-25T09:57:15Z</time>
      </trkpt>
      <trkpt lat="44.68944" lon="6.85858">
        <ele>2184.1</ele>
        <time>2026-03-25T09:57:16Z</time>
      </trkpt>
      <trkpt lat="44.68944" lon="6.85858">
        <ele>2184.1</ele>
        <time>2026-03-25T09:57:17Z</time>
      </trkpt>
      <trkpt lat="44.68944" lon="6.85858">
        <ele>2184.1</ele>
        <time>2026-03-25T09:57:18Z</time>
      </trkpt>
      <trkpt lat="44.68944" lon="6.85858">
        <ele>2184.1</ele>
        <time>2026-03-25T09:57:19Z</time>
      </trkpt>
      <trkpt lat="44.68944" lon="6.85858">
        <ele>2184.1</ele>
        <time>2026-03-25T09:57:20Z</time>
      </trkpt>
      <trkpt lat="44.68944" lon="6.85858">
        <ele>2184.1</ele>
        <time>2026-03-25T09:57:21Z</time>
      </trkpt>
      <trkpt lat="44.68944" lon="6.85858">
        <ele>2184.1</ele>
        <time>2026-03-25T09:57:22Z</time>
      </trkpt>
      <trkpt lat="44.68944" lon="6.85858">
        <ele>2184.1</ele>
        <time>2026-03-25T09:57:23Z</time>
      </trkpt>
      <trkpt lat="44.68944" lon="6.85858">
        <ele>2184.1</ele>
        <time>2026-03-25T09:57:24Z</time>
      </trkpt>
      <trkpt lat="44.68944" lon="6.85858">
        <ele>2184.1</ele>
        <time>2026-03-25T09:57:25Z</time>
      </trkpt>
      <trkpt lat="44.68944" lon="6.85858">
        <ele>2184.1</ele>
        <time>2026-03-25T09:57:26Z</time>
      </trkpt>
      <trkpt lat="44.68944" lon="6.85858">
        <ele>2184.1</ele>
        <time>2026-03-25T09:57:27Z</time>
      </trkpt>
      <trkpt lat="44.68944" lon="6.85858">
        <ele>2184.1</ele>
        <time>2026-03-25T09:57:28Z</time>
      </trkpt>
      <trkpt lat="44.68944" lon="6.85858">
        <ele>2184.1</ele>
        <time>2026-03-25T09:57:29Z</time>
      </trkpt>
      <trkpt lat="44.68944" lon="6.85858">
        <ele>2184.1</ele>
        <time>2026-03-25T09:57:30Z</time>
      </trkpt>
      <trkpt lat="44.68944" lon="6.85858">
        <ele>2184.1</ele>
        <time>2026-03-25T09:57:31Z</time>
      </trkpt>
      <trkpt lat="44.68944" lon="6.85858">
        <ele>2184.1</ele>
        <time>2026-03-25T09:57:32Z</time>
      </trkpt>
      <trkpt lat="44.68944" lon="6.85858">
        <ele>2184.1</ele>
        <time>2026-03-25T09:57:33Z</time>
      </trkpt>
      <trkpt lat="44.68944" lon="6.85858">
        <ele>2184.1</ele>
        <time>2026-03-25T09:57:34Z</time>
      </trkpt>
      <trkpt lat="44.68944" lon="6.85858">
        <ele>2184.1</ele>
        <time>2026-03-25T09:57:35Z</time>
      </trkpt>
      <trkpt lat="44.68944" lon="6.85858">
        <ele>2184.1</ele>
        <time>2026-03-25T09:57:36Z</time>
      </trkpt>
      <trkpt lat="44.68944" lon="6.85858">
        <ele>2184.1</ele>
        <time>2026-03-25T09:57:37Z</time>
      </trkpt>
      <trkpt lat="44.68944" lon="6.85858">
        <ele>2184.1</ele>
        <time>2026-03-25T09:57:38Z</time>
      </trkpt>
      <trkpt lat="44.68944" lon="6.85858">
        <ele>2184.1</ele>
        <time>2026-03-25T09:57:39Z</time>
      </trkpt>
      <trkpt lat="44.68944" lon="6.85858">
        <ele>2184.1</ele>
        <time>2026-03-25T09:57:40Z</time>
      </trkpt>
      <trkpt lat="44.68944" lon="6.85858">
        <ele>2184.1</ele>
        <time>2026-03-25T09:57:41Z</time>
      </trkpt>
      <trkpt lat="44.68944" lon="6.85858">
        <ele>2184.1</ele>
        <time>2026-03-25T09:57:42Z</time>
      </trkpt>
      <trkpt lat="44.68944" lon="6.85858">
        <ele>2184.1</ele>
        <time>2026-03-25T09:57:43Z</time>
      </trkpt>
      <trkpt lat="44.68944" lon="6.85858">
        <ele>2184.1</ele>
        <time>2026-03-25T09:57:44Z</time>
      </trkpt>
      <trkpt lat="44.68944" lon="6.85858">
        <ele>2184.1</ele>
        <time>2026-03-25T09:57:45Z</time>
      </trkpt>
      <trkpt lat="44.68944" lon="6.85858">
        <ele>2184.1</ele>
        <time>2026-03-25T09:57:46Z</time>
      </trkpt>
      <trkpt lat="44.68944" lon="6.85858">
        <ele>2184.1</ele>
        <time>2026-03-25T09:57:47Z</time>
      </trkpt>
      <trkpt lat="44.68944" lon="6.85858">
        <ele>2184.1</ele>
        <time>2026-03-25T09:57:48Z</time>
      </trkpt>
      <trkpt lat="44.68944" lon="6.85858">
        <ele>2184.1</ele>
        <time>2026-03-25T09:57:49Z</time>
      </trkpt>
      <trkpt lat="44.68944" lon="6.85858">
        <ele>2184.1</ele>
        <time>2026-03-25T09:57:50Z</time>
      </trkpt>
      <trkpt lat="44.68944" lon="6.85858">
        <ele>2184.1</ele>
        <time>2026-03-25T09:57:51Z</time>
      </trkpt>
      <trkpt lat="44.68944" lon="6.85858">
        <ele>2184.1</ele>
        <time>2026-03-25T09:57:52Z</time>
      </trkpt>
      <trkpt lat="44.68944" lon="6.85858">
        <ele>2184.1</ele>
        <time>2026-03-25T09:57:53Z</time>
      </trkpt>
      <trkpt lat="44.68944" lon="6.85858">
        <ele>2184.1</ele>
        <time>2026-03-25T09:57:54Z</time>
      </trkpt>
      <trkpt lat="44.68944" lon="6.85858">
        <ele>2184.1</ele>
        <time>2026-03-25T09:57:55Z</time>
      </trkpt>
      <trkpt lat="44.68944" lon="6.85858">
        <ele>2184.1</ele>
        <time>2026-03-25T09:57:56Z</time>
      </trkpt>
      <trkpt lat="44.68944" lon="6.85858">
        <ele>2184.1</ele>
        <time>2026-03-25T09:57:57Z</time>
      </trkpt>
      <trkpt lat="44.68944" lon="6.85858">
        <ele>2184.1</ele>
        <time>2026-03-25T09:57:58Z</time>
      </trkpt>
      <trkpt lat="44.68944" lon="6.85858">
        <ele>2184.1</ele>
        <time>2026-03-25T09:57:59Z</time>
      </trkpt>
      <trkpt lat="44.68944" lon="6.85858">
        <ele>2184.1</ele>
        <time>2026-03-25T09:58:00Z</time>
      </trkpt>
      <trkpt lat="44.68944" lon="6.85858">
        <ele>2184.1</ele>
        <time>2026-03-25T09:58:01Z</time>
      </trkpt>
      <trkpt lat="44.68944" lon="6.85858">
        <ele>2184.1</ele>
        <time>2026-03-25T09:58:02Z</time>
      </trkpt>
      <trkpt lat="44.68944" lon="6.85858">
        <ele>2184.1</ele>
        <time>2026-03-25T09:58:03Z</time>
      </trkpt>
      <trkpt lat="44.68944" lon="6.85858">
        <ele>2184.1</ele>
        <time>2026-03-25T09:58:04Z</time>
      </trkpt>
      <trkpt lat="44.68944" lon="6.85858">
        <ele>2184.1</ele>
        <time>2026-03-25T09:58:05Z</time>
      </trkpt>
      <trkpt lat="44.68944" lon="6.85858">
        <ele>2184.1</ele>
        <time>2026-03-25T09:58:06Z</time>
      </trkpt>
      <trkpt lat="44.68944" lon="6.85858">
        <ele>2184.1</ele>
        <time>2026-03-25T09:58:07Z</time>
      </trkpt>
      <trkpt lat="44.68944" lon="6.85858">
        <ele>2184.1</ele>
        <time>2026-03-25T09:58:08Z</time>
      </trkpt>
      <trkpt lat="44.68944" lon="6.85858">
        <ele>2184.1</ele>
        <time>2026-03-25T09:58:09Z</time>
      </trkpt>
      <trkpt lat="44.68944" lon="6.85858">
        <ele>2184.1</ele>
        <time>2026-03-25T09:58:10Z</time>
      </trkpt>
      <trkpt lat="44.68944" lon="6.85858">
        <ele>2184.1</ele>
        <time>2026-03-25T09:58:11Z</time>
      </trkpt>
      <trkpt lat="44.68944" lon="6.85858">
        <ele>2184.1</ele>
        <time>2026-03-25T09:58:12Z</time>
      </trkpt>
      <trkpt lat="44.68944" lon="6.85858">
        <ele>2184.1</ele>
        <time>2026-03-25T09:58:13Z</time>
      </trkpt>
      <trkpt lat="44.68944" lon="6.85858">
        <ele>2184.1</ele>
        <time>2026-03-25T09:58:14Z</time>
      </trkpt>
      <trkpt lat="44.68944" lon="6.85858">
        <ele>2184.1</ele>
        <time>2026-03-25T09:58:15Z</time>
      </trkpt>
      <trkpt lat="44.68944" lon="6.85858">
        <ele>2184.1</ele>
        <time>2026-03-25T09:58:16Z</time>
      </trkpt>
      <trkpt lat="44.68944" lon="6.85858">
        <ele>2184.1</ele>
        <time>2026-03-25T09:58:17Z</time>
      </trkpt>
      <trkpt lat="44.68944" lon="6.85858">
        <ele>2184.1</ele>
        <time>2026-03-25T09:58:18Z</time>
      </trkpt>
      <trkpt lat="44.68944" lon="6.85858">
        <ele>2184.1</ele>
        <time>2026-03-25T09:58:19Z</time>
      </trkpt>
      <trkpt lat="44.68944" lon="6.85858">
        <ele>2184.1</ele>
        <time>2026-03-25T09:58:20Z</time>
      </trkpt>
      <trkpt lat="44.68944" lon="6.85858">
        <ele>2184.1</ele>
        <time>2026-03-25T09:58:21Z</time>
      </trkpt>
      <trkpt lat="44.68944" lon="6.85858">
        <ele>2184.1</ele>
        <time>2026-03-25T09:58:22Z</time>
      </trkpt>
      <trkpt lat="44.68944" lon="6.85858">
        <ele>2184.1</ele>
        <time>2026-03-25T09:58:23Z</time>
      </trkpt>
      <trkpt lat="44.68944" lon="6.85858">
        <ele>2184.1</ele>
        <time>2026-03-25T09:58:24Z</time>
      </trkpt>
      <trkpt lat="44.68944" lon="6.85858">
        <ele>2184.1</ele>
        <time>2026-03-25T09:58:25Z</time>
      </trkpt>
      <trkpt lat="44.68944" lon="6.85858">
        <ele>2184.1</ele>
        <time>2026-03-25T09:58:26Z</time>
      </trkpt>
      <trkpt lat="44.68944" lon="6.85858">
        <ele>2184.1</ele>
        <time>2026-03-25T09:58:27Z</time>
      </trkpt>
      <trkpt lat="44.68944" lon="6.85858">
        <ele>2184.1</ele>
        <time>2026-03-25T09:58:28Z</time>
      </trkpt>
      <trkpt lat="44.68944" lon="6.85858">
        <ele>2184.1</ele>
        <time>2026-03-25T09:58:29Z</time>
      </trkpt>
      <trkpt lat="44.68944" lon="6.85858">
        <ele>2184.1</ele>
        <time>2026-03-25T09:58:30Z</time>
      </trkpt>
      <trkpt lat="44.68944" lon="6.85858">
        <ele>2184.1</ele>
        <time>2026-03-25T09:58:31Z</time>
      </trkpt>
      <trkpt lat="44.68944" lon="6.85858">
        <ele>2184.1</ele>
        <time>2026-03-25T09:58:32Z</time>
      </trkpt>
      <trkpt lat="44.68944" lon="6.85858">
        <ele>2184.1</ele>
        <time>2026-03-25T09:58:33Z</time>
      </trkpt>
      <trkpt lat="44.68944" lon="6.85858">
        <ele>2184.1</ele>
        <time>2026-03-25T09:58:34Z</time>
      </trkpt>
      <trkpt lat="44.68944" lon="6.85858">
        <ele>2184.1</ele>
        <time>2026-03-25T09:58:35Z</time>
      </trkpt>
      <trkpt lat="44.68944" lon="6.85858">
        <ele>2184.1</ele>
        <time>2026-03-25T09:58:36Z</time>
      </trkpt>
      <trkpt lat="44.68944" lon="6.85858">
        <ele>2184.1</ele>
        <time>2026-03-25T09:58:37Z</time>
      </trkpt>
      <trkpt lat="44.68944" lon="6.85858">
        <ele>2184.1</ele>
        <time>2026-03-25T09:58:38Z</time>
      </trkpt>
      <trkpt lat="44.68944" lon="6.85858">
        <ele>2184.1</ele>
        <time>2026-03-25T09:58:39Z</time>
      </trkpt>
      <trkpt lat="44.68944" lon="6.85858">
        <ele>2184.1</ele>
        <time>2026-03-25T09:58:40Z</time>
      </trkpt>
      <trkpt lat="44.68944" lon="6.85858">
        <ele>2184.1</ele>
        <time>2026-03-25T09:58:41Z</time>
      </trkpt>
      <trkpt lat="44.68944" lon="6.85858">
        <ele>2184.1</ele>
        <time>2026-03-25T09:58:42Z</time>
      </trkpt>
      <trkpt lat="44.68944" lon="6.85858">
        <ele>2184.1</ele>
        <time>2026-03-25T09:58:43Z</time>
      </trkpt>
      <trkpt lat="44.68944" lon="6.85858">
        <ele>2184.1</ele>
        <time>2026-03-25T09:58:44Z</time>
      </trkpt>
      <trkpt lat="44.68944" lon="6.85858">
        <ele>2184.1</ele>
        <time>2026-03-25T09:58:45Z</time>
      </trkpt>
      <trkpt lat="44.68944" lon="6.85858">
        <ele>2184.1</ele>
        <time>2026-03-25T09:58:46Z</time>
      </trkpt>
      <trkpt lat="44.68944" lon="6.85858">
        <ele>2184.1</ele>
        <time>2026-03-25T09:58:47Z</time>
      </trkpt>
      <trkpt lat="44.68944" lon="6.85858">
        <ele>2184.1</ele>
        <time>2026-03-25T09:58:48Z</time>
      </trkpt>
      <trkpt lat="44.68944" lon="6.85858">
        <ele>2184.1</ele>
        <time>2026-03-25T09:58:49Z</time>
      </trkpt>
      <trkpt lat="44.68944" lon="6.85858">
        <ele>2184.1</ele>
        <time>2026-03-25T09:58:50Z</time>
      </trkpt>
      <trkpt lat="44.68944" lon="6.85858">
        <ele>2184.1</ele>
        <time>2026-03-25T09:58:51Z</time>
      </trkpt>
      <trkpt lat="44.68944" lon="6.85858">
        <ele>2184.1</ele>
        <time>2026-03-25T09:58:52Z</time>
      </trkpt>
      <trkpt lat="44.68944" lon="6.85858">
        <ele>2184.1</ele>
        <time>2026-03-25T09:58:53Z</time>
      </trkpt>
      <trkpt lat="44.68944" lon="6.85858">
        <ele>2184.1</ele>
        <time>2026-03-25T09:58:54Z</time>
      </trkpt>
      <trkpt lat="44.68944" lon="6.85858">
        <ele>2184.1</ele>
        <time>2026-03-25T09:58:55Z</time>
      </trkpt>
      <trkpt lat="44.68944" lon="6.85858">
        <ele>2184.1</ele>
        <time>2026-03-25T09:58:56Z</time>
      </trkpt>
      <trkpt lat="44.68944" lon="6.85858">
        <ele>2184.1</ele>
        <time>2026-03-25T09:58:57Z</time>
      </trkpt>
      <trkpt lat="44.68944" lon="6.85858">
        <ele>2184.1</ele>
        <time>2026-03-25T09:58:58Z</time>
      </trkpt>
      <trkpt lat="44.68944" lon="6.85858">
        <ele>2184.1</ele>
        <time>2026-03-25T09:58:59Z</time>
      </trkpt>
      <trkpt lat="44.68944" lon="6.85858">
        <ele>2184.1</ele>
        <time>2026-03-25T09:59:00Z</time>
      </trkpt>
      <trkpt lat="44.68944" lon="6.85858">
        <ele>2184.1</ele>
        <time>2026-03-25T09:59:01Z</time>
      </trkpt>
      <trkpt lat="44.68944" lon="6.85858">
        <ele>2184.1</ele>
        <time>2026-03-25T09:59:02Z</time>
      </trkpt>
      <trkpt lat="44.68944" lon="6.85858">
        <ele>2184.1</ele>
        <time>2026-03-25T09:59:03Z</time>
      </trkpt>
      <trkpt lat="44.68944" lon="6.85858">
        <ele>2184.1</ele>
        <time>2026-03-25T09:59:04Z</time>
      </trkpt>
      <trkpt lat="44.68944" lon="6.85858">
        <ele>2184.1</ele>
        <time>2026-03-25T09:59:05Z</time>
      </trkpt>
      <trkpt lat="44.68944" lon="6.85858">
        <ele>2184.1</ele>
        <time>2026-03-25T09:59:06Z</time>
      </trkpt>
      <trkpt lat="44.68944" lon="6.85858">
        <ele>2184.1</ele>
        <time>2026-03-25T09:59:07Z</time>
      </trkpt>
      <trkpt lat="44.68944" lon="6.85858">
        <ele>2184.1</ele>
        <time>2026-03-25T09:59:08Z</time>
      </trkpt>
      <trkpt lat="44.68944" lon="6.85858">
        <ele>2184.1</ele>
        <time>2026-03-25T09:59:09Z</time>
      </trkpt>
      <trkpt lat="44.68944" lon="6.85858">
        <ele>2184.1</ele>
        <time>2026-03-25T09:59:10Z</time>
      </trkpt>
      <trkpt lat="44.68944" lon="6.85858">
        <ele>2184.1</ele>
        <time>2026-03-25T09:59:11Z</time>
      </trkpt>
      <trkpt lat="44.68944" lon="6.85858">
        <ele>2184.1</ele>
        <time>2026-03-25T09:59:12Z</time>
      </trkpt>
      <trkpt lat="44.68944" lon="6.85858">
        <ele>2184.1</ele>
        <time>2026-03-25T09:59:13Z</time>
      </trkpt>
      <trkpt lat="44.68944" lon="6.85858">
        <ele>2184.1</ele>
        <time>2026-03-25T09:59:14Z</time>
      </trkpt>
      <trkpt lat="44.68944" lon="6.85858">
        <ele>2184.1</ele>
        <time>2026-03-25T09:59:15Z</time>
      </trkpt>
      <trkpt lat="44.68944" lon="6.85858">
        <ele>2184.1</ele>
        <time>2026-03-25T09:59:16Z</time>
      </trkpt>
      <trkpt lat="44.68944" lon="6.85858">
        <ele>2184.1</ele>
        <time>2026-03-25T09:59:17Z</time>
      </trkpt>
      <trkpt lat="44.68944" lon="6.85858">
        <ele>2184.1</ele>
        <time>2026-03-25T09:59:18Z</time>
      </trkpt>
      <trkpt lat="44.68944" lon="6.85858">
        <ele>2184.1</ele>
        <time>2026-03-25T09:59:19Z</time>
      </trkpt>
      <trkpt lat="44.68944" lon="6.85858">
        <ele>2184.1</ele>
        <time>2026-03-25T09:59:20Z</time>
      </trkpt>
      <trkpt lat="44.68944" lon="6.85858">
        <ele>2184.1</ele>
        <time>2026-03-25T09:59:21Z</time>
      </trkpt>
      <trkpt lat="44.68944" lon="6.85858">
        <ele>2184.1</ele>
        <time>2026-03-25T09:59:22Z</time>
      </trkpt>
      <trkpt lat="44.68944" lon="6.85858">
        <ele>2184.1</ele>
        <time>2026-03-25T09:59:23Z</time>
      </trkpt>
      <trkpt lat="44.68944" lon="6.85858">
        <ele>2184.1</ele>
        <time>2026-03-25T09:59:24Z</time>
      </trkpt>
      <trkpt lat="44.68944" lon="6.85858">
        <ele>2184.1</ele>
        <time>2026-03-25T09:59:25Z</time>
      </trkpt>
      <trkpt lat="44.68944" lon="6.85858">
        <ele>2184.1</ele>
        <time>2026-03-25T09:59:26Z</time>
      </trkpt>
      <trkpt lat="44.68944" lon="6.85858">
        <ele>2184.1</ele>
        <time>2026-03-25T09:59:27Z</time>
      </trkpt>
      <trkpt lat="44.68944" lon="6.85858">
        <ele>2184.1</ele>
        <time>2026-03-25T09:59:28Z</time>
      </trkpt>
      <trkpt lat="44.68944" lon="6.85858">
        <ele>2184.1</ele>
        <time>2026-03-25T09:59:29Z</time>
      </trkpt>
      <trkpt lat="44.68944" lon="6.85858">
        <ele>2184.1</ele>
        <time>2026-03-25T09:59:30Z</time>
      </trkpt>
      <trkpt lat="44.68944" lon="6.85858">
        <ele>2184.1</ele>
        <time>2026-03-25T09:59:31Z</time>
      </trkpt>
      <trkpt lat="44.68944" lon="6.85858">
        <ele>2184.1</ele>
        <time>2026-03-25T09:59:32Z</time>
      </trkpt>
      <trkpt lat="44.68944" lon="6.85858">
        <ele>2184.1</ele>
        <time>2026-03-25T09:59:33Z</time>
      </trkpt>
      <trkpt lat="44.68944" lon="6.85858">
        <ele>2184.1</ele>
        <time>2026-03-25T09:59:34Z</time>
      </trkpt>
      <trkpt lat="44.68944" lon="6.85858">
        <ele>2184.1</ele>
        <time>2026-03-25T09:59:35Z</time>
      </trkpt>
      <trkpt lat="44.68944" lon="6.85858">
        <ele>2184.1</ele>
        <time>2026-03-25T09:59:36Z</time>
      </trkpt>
      <trkpt lat="44.68944" lon="6.85858">
        <ele>2184.1</ele>
        <time>2026-03-25T09:59:37Z</time>
      </trkpt>
      <trkpt lat="44.68944" lon="6.85858">
        <ele>2184.1</ele>
        <time>2026-03-25T09:59:38Z</time>
      </trkpt>
      <trkpt lat="44.68944" lon="6.85858">
        <ele>2184.1</ele>
        <time>2026-03-25T09:59:39Z</time>
      </trkpt>
      <trkpt lat="44.68944" lon="6.85858">
        <ele>2184.1</ele>
        <time>2026-03-25T09:59:40Z</time>
      </trkpt>
      <trkpt lat="44.68944" lon="6.85858">
        <ele>2184.1</ele>
        <time>2026-03-25T09:59:41Z</time>
      </trkpt>
      <trkpt lat="44.68944" lon="6.85858">
        <ele>2184.1</ele>
        <time>2026-03-25T09:59:42Z</time>
      </trkpt>
      <trkpt lat="44.68944" lon="6.85858">
        <ele>2184.1</ele>
        <time>2026-03-25T09:59:43Z</time>
      </trkpt>
      <trkpt lat="44.68944" lon="6.85858">
        <ele>2184.1</ele>
        <time>2026-03-25T09:59:44Z</time>
      </trkpt>
      <trkpt lat="44.68944" lon="6.85858">
        <ele>2184.1</ele>
        <time>2026-03-25T09:59:45Z</time>
      </trkpt>
      <trkpt lat="44.68944" lon="6.85858">
        <ele>2184.1</ele>
        <time>2026-03-25T09:59:46Z</time>
      </trkpt>
      <trkpt lat="44.68944" lon="6.85858">
        <ele>2184.1</ele>
        <time>2026-03-25T09:59:47Z</time>
      </trkpt>
      <trkpt lat="44.68944" lon="6.85858">
        <ele>2184.1</ele>
        <time>2026-03-25T09:59:48Z</time>
      </trkpt>
      <trkpt lat="44.68944" lon="6.85858">
        <ele>2184.1</ele>
        <time>2026-03-25T09:59:49Z</time>
      </trkpt>
      <trkpt lat="44.68944" lon="6.85858">
        <ele>2184.1</ele>
        <time>2026-03-25T09:59:50Z</time>
      </trkpt>
      <trkpt lat="44.68944" lon="6.85858">
        <ele>2184.1</ele>
        <time>2026-03-25T09:59:51Z</time>
      </trkpt>
      <trkpt lat="44.68944" lon="6.85858">
        <ele>2184.1</ele>
        <time>2026-03-25T09:59:52Z</time>
      </trkpt>
      <trkpt lat="44.68944" lon="6.85858">
        <ele>2184.1</ele>
        <time>2026-03-25T09:59:53Z</time>
      </trkpt>
      <trkpt lat="44.68944" lon="6.85858">
        <ele>2184.1</ele>
        <time>2026-03-25T09:59:54Z</time>
      </trkpt>
      <trkpt lat="44.68944" lon="6.85858">
        <ele>2184.1</ele>
        <time>2026-03-25T09:59:55Z</time>
      </trkpt>
      <trkpt lat="44.68944" lon="6.85858">
        <ele>2184.1</ele>
        <time>2026-03-25T09:59:56Z</time>
      </trkpt>
      <trkpt lat="44.68944" lon="6.85858">
        <ele>2184.1</ele>
        <time>2026-03-25T09:59:57Z</time>
      </trkpt>
      <trkpt lat="44.68944" lon="6.85858">
        <ele>2184.1</ele>
        <time>2026-03-25T09:59:58Z</time>
      </trkpt>
      <trkpt lat="44.68944" lon="6.85858">
        <ele>2184.1</ele>
        <time>2026-03-25T09:59:59Z</time>
      </trkpt>
      <trkpt lat="44.68944" lon="6.85858">
        <ele>2184.1</ele>
        <time>2026-03-25T10:00:00Z</time>
      </trkpt>
      <trkpt lat="44.68944" lon="6.85858">
        <ele>2184.1</ele>
        <time>2026-03-25T10:00:01Z</time>
      </trkpt>
      <trkpt lat="44.68944" lon="6.85858">
        <ele>2184.1</ele>
        <time>2026-03-25T10:00:02Z</time>
      </trkpt>
      <trkpt lat="44.68944" lon="6.85858">
        <ele>2184.1</ele>
        <time>2026-03-25T10:00:03Z</time>
      </trkpt>
      <trkpt lat="44.68944" lon="6.85858">
        <ele>2184.1</ele>
        <time>2026-03-25T10:00:04Z</time>
      </trkpt>
      <trkpt lat="44.68944" lon="6.85858">
        <ele>2184.1</ele>
        <time>2026-03-25T10:00:05Z</time>
      </trkpt>
      <trkpt lat="44.68944" lon="6.85858">
        <ele>2184.1</ele>
        <time>2026-03-25T10:00:06Z</time>
      </trkpt>
      <trkpt lat="44.68944" lon="6.85858">
        <ele>2184.1</ele>
        <time>2026-03-25T10:00:07Z</time>
      </trkpt>
      <trkpt lat="44.68944" lon="6.85858">
        <ele>2184.1</ele>
        <time>2026-03-25T10:00:08Z</time>
      </trkpt>
      <trkpt lat="44.68944" lon="6.85858">
        <ele>2184.1</ele>
        <time>2026-03-25T10:00:09Z</time>
      </trkpt>
      <trkpt lat="44.68944" lon="6.85858">
        <ele>2184.1</ele>
        <time>2026-03-25T10:00:10Z</time>
      </trkpt>
      <trkpt lat="44.68944" lon="6.85858">
        <ele>2184.1</ele>
        <time>2026-03-25T10:00:11Z</time>
      </trkpt>
      <trkpt lat="44.68944" lon="6.85858">
        <ele>2184.1</ele>
        <time>2026-03-25T10:00:12Z</time>
      </trkpt>
      <trkpt lat="44.68944" lon="6.85858">
        <ele>2184.1</ele>
        <time>2026-03-25T10:00:13Z</time>
      </trkpt>
      <trkpt lat="44.68944" lon="6.85858">
        <ele>2184.1</ele>
        <time>2026-03-25T10:00:14Z</time>
      </trkpt>
      <trkpt lat="44.68944" lon="6.85858">
        <ele>2184.1</ele>
        <time>2026-03-25T10:00:15Z</time>
      </trkpt>
      <trkpt lat="44.68944" lon="6.85858">
        <ele>2184.1</ele>
        <time>2026-03-25T10:00:16Z</time>
      </trkpt>
      <trkpt lat="44.68944" lon="6.85858">
        <ele>2184.1</ele>
        <time>2026-03-25T10:00:17Z</time>
      </trkpt>
      <trkpt lat="44.68944" lon="6.85858">
        <ele>2184.1</ele>
        <time>2026-03-25T10:00:18Z</time>
      </trkpt>
      <trkpt lat="44.68944" lon="6.85858">
        <ele>2184.1</ele>
        <time>2026-03-25T10:00:19Z</time>
      </trkpt>
      <trkpt lat="44.68944" lon="6.85858">
        <ele>2184.1</ele>
        <time>2026-03-25T10:00:20Z</time>
      </trkpt>
      <trkpt lat="44.68944" lon="6.85858">
        <ele>2184.1</ele>
        <time>2026-03-25T10:00:21Z</time>
      </trkpt>
      <trkpt lat="44.68944" lon="6.85858">
        <ele>2184.1</ele>
        <time>2026-03-25T10:00:22Z</time>
      </trkpt>
      <trkpt lat="44.68944" lon="6.85858">
        <ele>2184.1</ele>
        <time>2026-03-25T10:00:23Z</time>
      </trkpt>
      <trkpt lat="44.68944" lon="6.85858">
        <ele>2184.1</ele>
        <time>2026-03-25T10:00:24Z</time>
      </trkpt>
      <trkpt lat="44.68944" lon="6.85858">
        <ele>2184.1</ele>
        <time>2026-03-25T10:00:25Z</time>
      </trkpt>
      <trkpt lat="44.68944" lon="6.85858">
        <ele>2184.1</ele>
        <time>2026-03-25T10:00:26Z</time>
      </trkpt>
      <trkpt lat="44.68944" lon="6.85858">
        <ele>2184.1</ele>
        <time>2026-03-25T10:00:27Z</time>
      </trkpt>
      <trkpt lat="44.68944" lon="6.85858">
        <ele>2184.1</ele>
        <time>2026-03-25T10:00:28Z</time>
      </trkpt>
      <trkpt lat="44.68944" lon="6.85858">
        <ele>2184.1</ele>
        <time>2026-03-25T10:00:29Z</time>
      </trkpt>
      <trkpt lat="44.68944" lon="6.85858">
        <ele>2184.1</ele>
        <time>2026-03-25T10:00:30Z</time>
      </trkpt>
      <trkpt lat="44.68944" lon="6.85858">
        <ele>2184.1</ele>
        <time>2026-03-25T10:00:31Z</time>
      </trkpt>
      <trkpt lat="44.68944" lon="6.85858">
        <ele>2184.1</ele>
        <time>2026-03-25T10:00:32Z</time>
      </trkpt>
      <trkpt lat="44.68944" lon="6.85858">
        <ele>2184.1</ele>
        <time>2026-03-25T10:00:33Z</time>
      </trkpt>
      <trkpt lat="44.68944" lon="6.85858">
        <ele>2184.1</ele>
        <time>2026-03-25T10:00:34Z</time>
      </trkpt>
      <trkpt lat="44.68944" lon="6.85858">
        <ele>2184.1</ele>
        <time>2026-03-25T10:00:35Z</time>
      </trkpt>
      <trkpt lat="44.68944" lon="6.85858">
        <ele>2184.1</ele>
        <time>2026-03-25T10:00:36Z</time>
      </trkpt>
      <trkpt lat="44.68944" lon="6.85858">
        <ele>2184.1</ele>
        <time>2026-03-25T10:00:37Z</time>
      </trkpt>
      <trkpt lat="44.68944" lon="6.85858">
        <ele>2184.1</ele>
        <time>2026-03-25T10:00:38Z</time>
      </trkpt>
      <trkpt lat="44.68944" lon="6.85858">
        <ele>2184.1</ele>
        <time>2026-03-25T10:00:39Z</time>
      </trkpt>
      <trkpt lat="44.68944" lon="6.85858">
        <ele>2184.1</ele>
        <time>2026-03-25T10:00:40Z</time>
      </trkpt>
      <trkpt lat="44.68944" lon="6.85858">
        <ele>2184.1</ele>
        <time>2026-03-25T10:00:41Z</time>
      </trkpt>
      <trkpt lat="44.68944" lon="6.85858">
        <ele>2184.1</ele>
        <time>2026-03-25T10:00:42Z</time>
      </trkpt>
      <trkpt lat="44.68944" lon="6.85858">
        <ele>2184.1</ele>
        <time>2026-03-25T10:00:43Z</time>
      </trkpt>
      <trkpt lat="44.68944" lon="6.85858">
        <ele>2184.1</ele>
        <time>2026-03-25T10:00:44Z</time>
      </trkpt>
      <trkpt lat="44.68944" lon="6.85858">
        <ele>2184.1</ele>
        <time>2026-03-25T10:00:45Z</time>
      </trkpt>
      <trkpt lat="44.68944" lon="6.85858">
        <ele>2184.1</ele>
        <time>2026-03-25T10:00:46Z</time>
      </trkpt>
      <trkpt lat="44.68944" lon="6.85858">
        <ele>2184.1</ele>
        <time>2026-03-25T10:00:47Z</time>
      </trkpt>
      <trkpt lat="44.68944" lon="6.85858">
        <ele>2184.1</ele>
        <time>2026-03-25T10:00:48Z</time>
      </trkpt>
      <trkpt lat="44.68944" lon="6.85858">
        <ele>2184.1</ele>
        <time>2026-03-25T10:00:49Z</time>
      </trkpt>
      <trkpt lat="44.68944" lon="6.85858">
        <ele>2184.1</ele>
        <time>2026-03-25T10:00:50Z</time>
      </trkpt>
      <trkpt lat="44.68944" lon="6.85858">
        <ele>2184.1</ele>
        <time>2026-03-25T10:00:51Z</time>
      </trkpt>
      <trkpt lat="44.68944" lon="6.85858">
        <ele>2184.1</ele>
        <time>2026-03-25T10:00:52Z</time>
      </trkpt>
      <trkpt lat="44.68944" lon="6.85858">
        <ele>2184.1</ele>
        <time>2026-03-25T10:00:53Z</time>
      </trkpt>
      <trkpt lat="44.68944" lon="6.85858">
        <ele>2184.1</ele>
        <time>2026-03-25T10:00:54Z</time>
      </trkpt>
      <trkpt lat="44.68944" lon="6.85858">
        <ele>2184.1</ele>
        <time>2026-03-25T10:00:55Z</time>
      </trkpt>
      <trkpt lat="44.68944" lon="6.85858">
        <ele>2184.1</ele>
        <time>2026-03-25T10:00:56Z</time>
      </trkpt>
      <trkpt lat="44.68944" lon="6.85858">
        <ele>2184.1</ele>
        <time>2026-03-25T10:00:57Z</time>
      </trkpt>
      <trkpt lat="44.68944" lon="6.85858">
        <ele>2184.1</ele>
        <time>2026-03-25T10:00:58Z</time>
      </trkpt>
      <trkpt lat="44.68944" lon="6.85858">
        <ele>2184.1</ele>
        <time>2026-03-25T10:00:59Z</time>
      </trkpt>
      <trkpt lat="44.68944" lon="6.85858">
        <ele>2184.1</ele>
        <time>2026-03-25T10:01:00Z</time>
      </trkpt>
      <trkpt lat="44.68944" lon="6.85858">
        <ele>2184.1</ele>
        <time>2026-03-25T10:01:01Z</time>
      </trkpt>
      <trkpt lat="44.68944" lon="6.85858">
        <ele>2184.1</ele>
        <time>2026-03-25T10:01:02Z</time>
      </trkpt>
      <trkpt lat="44.68944" lon="6.85858">
        <ele>2184.1</ele>
        <time>2026-03-25T10:01:03Z</time>
      </trkpt>
      <trkpt lat="44.68944" lon="6.85858">
        <ele>2184.1</ele>
        <time>2026-03-25T10:01:04Z</time>
      </trkpt>
      <trkpt lat="44.68944" lon="6.85858">
        <ele>2184.1</ele>
        <time>2026-03-25T10:01:05Z</time>
      </trkpt>
      <trkpt lat="44.68944" lon="6.85858">
        <ele>2184.1</ele>
        <time>2026-03-25T10:01:06Z</time>
      </trkpt>
      <trkpt lat="44.68944" lon="6.85858">
        <ele>2184.1</ele>
        <time>2026-03-25T10:01:07Z</time>
      </trkpt>
      <trkpt lat="44.68944" lon="6.85858">
        <ele>2184.1</ele>
        <time>2026-03-25T10:01:08Z</time>
      </trkpt>
      <trkpt lat="44.68944" lon="6.85858">
        <ele>2184.1</ele>
        <time>2026-03-25T10:01:09Z</time>
      </trkpt>
      <trkpt lat="44.68944" lon="6.85858">
        <ele>2184.1</ele>
        <time>2026-03-25T10:01:10Z</time>
      </trkpt>
      <trkpt lat="44.68944" lon="6.85858">
        <ele>2184.1</ele>
        <time>2026-03-25T10:01:11Z</time>
      </trkpt>
      <trkpt lat="44.68944" lon="6.85858">
        <ele>2184.1</ele>
        <time>2026-03-25T10:01:12Z</time>
      </trkpt>
      <trkpt lat="44.68944" lon="6.85858">
        <ele>2184.1</ele>
        <time>2026-03-25T10:01:13Z</time>
      </trkpt>
      <trkpt lat="44.68944" lon="6.85858">
        <ele>2184.1</ele>
        <time>2026-03-25T10:01:14Z</time>
      </trkpt>
      <trkpt lat="44.68944" lon="6.85858">
        <ele>2184.1</ele>
        <time>2026-03-25T10:01:15Z</time>
      </trkpt>
      <trkpt lat="44.68944" lon="6.85858">
        <ele>2184.1</ele>
        <time>2026-03-25T10:01:16Z</time>
      </trkpt>
      <trkpt lat="44.68944" lon="6.85858">
        <ele>2184.1</ele>
        <time>2026-03-25T10:01:17Z</time>
      </trkpt>
      <trkpt lat="44.68944" lon="6.85858">
        <ele>2184.1</ele>
        <time>2026-03-25T10:01:18Z</time>
      </trkpt>
      <trkpt lat="44.68944" lon="6.85858">
        <ele>2184.1</ele>
        <time>2026-03-25T10:01:19Z</time>
      </trkpt>
      <trkpt lat="44.68944" lon="6.85858">
        <ele>2184.1</ele>
        <time>2026-03-25T10:01:20Z</time>
      </trkpt>
      <trkpt lat="44.68944" lon="6.85858">
        <ele>2184.1</ele>
        <time>2026-03-25T10:01:21Z</time>
      </trkpt>
      <trkpt lat="44.68944" lon="6.85858">
        <ele>2184.1</ele>
        <time>2026-03-25T10:01:22Z</time>
      </trkpt>
      <trkpt lat="44.68944" lon="6.85858">
        <ele>2184.1</ele>
        <time>2026-03-25T10:01:23Z</time>
      </trkpt>
      <trkpt lat="44.68944" lon="6.85858">
        <ele>2184.1</ele>
        <time>2026-03-25T10:01:24Z</time>
      </trkpt>
      <trkpt lat="44.68944" lon="6.85858">
        <ele>2184.1</ele>
        <time>2026-03-25T10:01:25Z</time>
      </trkpt>
      <trkpt lat="44.68944" lon="6.85858">
        <ele>2184.1</ele>
        <time>2026-03-25T10:01:26Z</time>
      </trkpt>
      <trkpt lat="44.68944" lon="6.85858">
        <ele>2184.1</ele>
        <time>2026-03-25T10:01:27Z</time>
      </trkpt>
      <trkpt lat="44.68944" lon="6.85858">
        <ele>2184.1</ele>
        <time>2026-03-25T10:01:28Z</time>
      </trkpt>
      <trkpt lat="44.68944" lon="6.85858">
        <ele>2184.1</ele>
        <time>2026-03-25T10:01:29Z</time>
      </trkpt>
      <trkpt lat="44.68944" lon="6.85858">
        <ele>2184.1</ele>
        <time>2026-03-25T10:01:30Z</time>
      </trkpt>
      <trkpt lat="44.68944" lon="6.85858">
        <ele>2184.1</ele>
        <time>2026-03-25T10:01:31Z</time>
      </trkpt>
      <trkpt lat="44.68944" lon="6.85858">
        <ele>2184.1</ele>
        <time>2026-03-25T10:01:32Z</time>
      </trkpt>
      <trkpt lat="44.68944" lon="6.85858">
        <ele>2184.1</ele>
        <time>2026-03-25T10:01:33Z</time>
      </trkpt>
      <trkpt lat="44.68944" lon="6.85858">
        <ele>2184.1</ele>
        <time>2026-03-25T10:01:34Z</time>
      </trkpt>
      <trkpt lat="44.68944" lon="6.85858">
        <ele>2184.1</ele>
        <time>2026-03-25T10:01:35Z</time>
      </trkpt>
      <trkpt lat="44.68944" lon="6.85858">
        <ele>2184.1</ele>
        <time>2026-03-25T10:01:36Z</time>
      </trkpt>
      <trkpt lat="44.68944" lon="6.85858">
        <ele>2184.1</ele>
        <time>2026-03-25T10:01:37Z</time>
      </trkpt>
      <trkpt lat="44.68944" lon="6.85858">
        <ele>2184.1</ele>
        <time>2026-03-25T10:01:38Z</time>
      </trkpt>
      <trkpt lat="44.68944" lon="6.85858">
        <ele>2184.1</ele>
        <time>2026-03-25T10:01:39Z</time>
      </trkpt>
      <trkpt lat="44.68944" lon="6.85858">
        <ele>2184.1</ele>
        <time>2026-03-25T10:01:40Z</time>
      </trkpt>
      <trkpt lat="44.68944" lon="6.85858">
        <ele>2184.1</ele>
        <time>2026-03-25T10:01:41Z</time>
      </trkpt>
      <trkpt lat="44.68944" lon="6.85858">
        <ele>2184.1</ele>
        <time>2026-03-25T10:01:42Z</time>
      </trkpt>
      <trkpt lat="44.68944" lon="6.85858">
        <ele>2184.1</ele>
        <time>2026-03-25T10:01:43Z</time>
      </trkpt>
      <trkpt lat="44.68944" lon="6.85858">
        <ele>2184.1</ele>
        <time>2026-03-25T10:01:44Z</time>
      </trkpt>
      <trkpt lat="44.68944" lon="6.85858">
        <ele>2184.1</ele>
        <time>2026-03-25T10:01:45Z</time>
      </trkpt>
      <trkpt lat="44.68944" lon="6.85858">
        <ele>2184.1</ele>
        <time>2026-03-25T10:01:46Z</time>
      </trkpt>
      <trkpt lat="44.68944" lon="6.85858">
        <ele>2184.1</ele>
        <time>2026-03-25T10:01:47Z</time>
      </trkpt>
      <trkpt lat="44.68944" lon="6.85858">
        <ele>2184.1</ele>
        <time>2026-03-25T10:01:48Z</time>
      </trkpt>
      <trkpt lat="44.68944" lon="6.85858">
        <ele>2184.1</ele>
        <time>2026-03-25T10:01:49Z</time>
      </trkpt>
      <trkpt lat="44.68944" lon="6.85858">
        <ele>2184.1</ele>
        <time>2026-03-25T10:01:50Z</time>
      </trkpt>
      <trkpt lat="44.68944" lon="6.85858">
        <ele>2184.1</ele>
        <time>2026-03-25T10:01:51Z</time>
      </trkpt>
      <trkpt lat="44.68944" lon="6.85858">
        <ele>2184.1</ele>
        <time>2026-03-25T10:01:52Z</time>
      </trkpt>
      <trkpt lat="44.68944" lon="6.85858">
        <ele>2184.1</ele>
        <time>2026-03-25T10:01:53Z</time>
      </trkpt>
      <trkpt lat="44.68944" lon="6.85858">
        <ele>2184.1</ele>
        <time>2026-03-25T10:01:54Z</time>
      </trkpt>
      <trkpt lat="44.68944" lon="6.85858">
        <ele>2184.1</ele>
        <time>2026-03-25T10:01:55Z</time>
      </trkpt>
      <trkpt lat="44.68944" lon="6.85858">
        <ele>2184.1</ele>
        <time>2026-03-25T10:01:56Z</time>
      </trkpt>
      <trkpt lat="44.68944" lon="6.85858">
        <ele>2184.1</ele>
        <time>2026-03-25T10:01:57Z</time>
      </trkpt>
      <trkpt lat="44.68944" lon="6.85858">
        <ele>2184.1</ele>
        <time>2026-03-25T10:01:58Z</time>
      </trkpt>
      <trkpt lat="44.68944" lon="6.85858">
        <ele>2184.1</ele>
        <time>2026-03-25T10:01:59Z</time>
      </trkpt>
      <trkpt lat="44.68944" lon="6.85858">
        <ele>2184.1</ele>
        <time>2026-03-25T10:02:00Z</time>
      </trkpt>
      <trkpt lat="44.68944" lon="6.85858">
        <ele>2184.1</ele>
        <time>2026-03-25T10:02:01Z</time>
      </trkpt>
      <trkpt lat="44.68944" lon="6.85858">
        <ele>2184.1</ele>
        <time>2026-03-25T10:02:02Z</time>
      </trkpt>
      <trkpt lat="44.68944" lon="6.85858">
        <ele>2184.1</ele>
        <time>2026-03-25T10:02:03Z</time>
      </trkpt>
      <trkpt lat="44.68944" lon="6.85858">
        <ele>2184.1</ele>
        <time>2026-03-25T10:02:04Z</time>
      </trkpt>
      <trkpt lat="44.68944" lon="6.85858">
        <ele>2184.1</ele>
        <time>2026-03-25T10:02:05Z</time>
      </trkpt>
      <trkpt lat="44.68944" lon="6.85858">
        <ele>2184.1</ele>
        <time>2026-03-25T10:02:06Z</time>
      </trkpt>
      <trkpt lat="44.68944" lon="6.85858">
        <ele>2184.1</ele>
        <time>2026-03-25T10:02:07Z</time>
      </trkpt>
      <trkpt lat="44.68944" lon="6.85858">
        <ele>2184.1</ele>
        <time>2026-03-25T10:02:08Z</time>
      </trkpt>
      <trkpt lat="44.68944" lon="6.85858">
        <ele>2184.1</ele>
        <time>2026-03-25T10:02:09Z</time>
      </trkpt>
      <trkpt lat="44.68944" lon="6.85858">
        <ele>2184.1</ele>
        <time>2026-03-25T10:02:10Z</time>
      </trkpt>
      <trkpt lat="44.68944" lon="6.85858">
        <ele>2184.1</ele>
        <time>2026-03-25T10:02:11Z</time>
      </trkpt>
      <trkpt lat="44.68944" lon="6.85858">
        <ele>2184.1</ele>
        <time>2026-03-25T10:02:12Z</time>
      </trkpt>
      <trkpt lat="44.68944" lon="6.85858">
        <ele>2184.1</ele>
        <time>2026-03-25T10:02:13Z</time>
      </trkpt>
      <trkpt lat="44.68944" lon="6.85858">
        <ele>2184.1</ele>
        <time>2026-03-25T10:02:14Z</time>
      </trkpt>
      <trkpt lat="44.68944" lon="6.85858">
        <ele>2184.1</ele>
        <time>2026-03-25T10:02:15Z</time>
      </trkpt>
      <trkpt lat="44.68944" lon="6.85858">
        <ele>2184.1</ele>
        <time>2026-03-25T10:02:16Z</time>
      </trkpt>
      <trkpt lat="44.68944" lon="6.85858">
        <ele>2184.1</ele>
        <time>2026-03-25T10:02:17Z</time>
      </trkpt>
      <trkpt lat="44.68944" lon="6.85858">
        <ele>2184.1</ele>
        <time>2026-03-25T10:02:18Z</time>
      </trkpt>
      <trkpt lat="44.68944" lon="6.85858">
        <ele>2184.1</ele>
        <time>2026-03-25T10:02:19Z</time>
      </trkpt>
      <trkpt lat="44.68944" lon="6.85858">
        <ele>2184.1</ele>
        <time>2026-03-25T10:02:20Z</time>
      </trkpt>
      <trkpt lat="44.68944" lon="6.85858">
        <ele>2184.1</ele>
        <time>2026-03-25T10:02:21Z</time>
      </trkpt>
      <trkpt lat="44.68944" lon="6.85858">
        <ele>2184.1</ele>
        <time>2026-03-25T10:02:22Z</time>
      </trkpt>
      <trkpt lat="44.68944" lon="6.85858">
        <ele>2184.1</ele>
        <time>2026-03-25T10:02:23Z</time>
      </trkpt>
      <trkpt lat="44.68944" lon="6.85858">
        <ele>2184.1</ele>
        <time>2026-03-25T10:02:24Z</time>
      </trkpt>
      <trkpt lat="44.68944" lon="6.85858">
        <ele>2184.1</ele>
        <time>2026-03-25T10:02:25Z</time>
      </trkpt>
      <trkpt lat="44.68944" lon="6.85858">
        <ele>2184.1</ele>
        <time>2026-03-25T10:02:26Z</time>
      </trkpt>
      <trkpt lat="44.68944" lon="6.85858">
        <ele>2184.1</ele>
        <time>2026-03-25T10:02:27Z</time>
      </trkpt>
      <trkpt lat="44.68944" lon="6.85858">
        <ele>2184.1</ele>
        <time>2026-03-25T10:02:28Z</time>
      </trkpt>
      <trkpt lat="44.68944" lon="6.85858">
        <ele>2184.1</ele>
        <time>2026-03-25T10:02:29Z</time>
      </trkpt>
      <trkpt lat="44.68944" lon="6.85858">
        <ele>2184.1</ele>
        <time>2026-03-25T10:02:30Z</time>
      </trkpt>
      <trkpt lat="44.68944" lon="6.85858">
        <ele>2184.1</ele>
        <time>2026-03-25T10:02:31Z</time>
      </trkpt>
      <trkpt lat="44.68944" lon="6.85858">
        <ele>2184.1</ele>
        <time>2026-03-25T10:02:32Z</time>
      </trkpt>
      <trkpt lat="44.68944" lon="6.85858">
        <ele>2184.1</ele>
        <time>2026-03-25T10:02:33Z</time>
      </trkpt>
      <trkpt lat="44.68944" lon="6.85858">
        <ele>2184.1</ele>
        <time>2026-03-25T10:02:34Z</time>
      </trkpt>
      <trkpt lat="44.68944" lon="6.85858">
        <ele>2184.1</ele>
        <time>2026-03-25T10:02:35Z</time>
      </trkpt>
      <trkpt lat="44.68944" lon="6.85858">
        <ele>2184.1</ele>
        <time>2026-03-25T10:02:36Z</time>
      </trkpt>
      <trkpt lat="44.68944" lon="6.85858">
        <ele>2184.1</ele>
        <time>2026-03-25T10:02:37Z</time>
      </trkpt>
      <trkpt lat="44.68944" lon="6.85858">
        <ele>2184.1</ele>
        <time>2026-03-25T10:02:38Z</time>
      </trkpt>
      <trkpt lat="44.68944" lon="6.85858">
        <ele>2184.1</ele>
        <time>2026-03-25T10:02:39Z</time>
      </trkpt>
      <trkpt lat="44.68944" lon="6.85858">
        <ele>2184.1</ele>
        <time>2026-03-25T10:02:40Z</time>
      </trkpt>
      <trkpt lat="44.68944" lon="6.85858">
        <ele>2184.1</ele>
        <time>2026-03-25T10:02:41Z</time>
      </trkpt>
      <trkpt lat="44.68944" lon="6.85858">
        <ele>2184.1</ele>
        <time>2026-03-25T10:02:42Z</time>
      </trkpt>
      <trkpt lat="44.68944" lon="6.85858">
        <ele>2184.1</ele>
        <time>2026-03-25T10:02:43Z</time>
      </trkpt>
      <trkpt lat="44.68944" lon="6.85858">
        <ele>2184.1</ele>
        <time>2026-03-25T10:02:44Z</time>
      </trkpt>
      <trkpt lat="44.68944" lon="6.85858">
        <ele>2184.1</ele>
        <time>2026-03-25T10:02:45Z</time>
      </trkpt>
      <trkpt lat="44.68944" lon="6.85858">
        <ele>2184.1</ele>
        <time>2026-03-25T10:02:46Z</time>
      </trkpt>
      <trkpt lat="44.68944" lon="6.85858">
        <ele>2184.1</ele>
        <time>2026-03-25T10:02:47Z</time>
      </trkpt>
      <trkpt lat="44.68944" lon="6.85858">
        <ele>2184.1</ele>
        <time>2026-03-25T10:02:48Z</time>
      </trkpt>
      <trkpt lat="44.68944" lon="6.85858">
        <ele>2184.1</ele>
        <time>2026-03-25T10:02:49Z</time>
      </trkpt>
      <trkpt lat="44.68944" lon="6.85858">
        <ele>2184.1</ele>
        <time>2026-03-25T10:02:50Z</time>
      </trkpt>
      <trkpt lat="44.68944" lon="6.85858">
        <ele>2184.1</ele>
        <time>2026-03-25T10:02:51Z</time>
      </trkpt>
      <trkpt lat="44.68944" lon="6.85858">
        <ele>2184.1</ele>
        <time>2026-03-25T10:02:52Z</time>
      </trkpt>
      <trkpt lat="44.68944" lon="6.85858">
        <ele>2184.1</ele>
        <time>2026-03-25T10:02:53Z</time>
      </trkpt>
      <trkpt lat="44.68944" lon="6.85858">
        <ele>2184.1</ele>
        <time>2026-03-25T10:02:54Z</time>
      </trkpt>
      <trkpt lat="44.68944" lon="6.85858">
        <ele>2184.1</ele>
        <time>2026-03-25T10:02:55Z</time>
      </trkpt>
      <trkpt lat="44.68944" lon="6.85858">
        <ele>2184.1</ele>
        <time>2026-03-25T10:02:56Z</time>
      </trkpt>
      <trkpt lat="44.68944" lon="6.85858">
        <ele>2184.1</ele>
        <time>2026-03-25T10:02:57Z</time>
      </trkpt>
      <trkpt lat="44.68944" lon="6.85858">
        <ele>2184.1</ele>
        <time>2026-03-25T10:02:58Z</time>
      </trkpt>
      <trkpt lat="44.68944" lon="6.85858">
        <ele>2184.1</ele>
        <time>2026-03-25T10:02:59Z</time>
      </trkpt>
      <trkpt lat="44.68944" lon="6.85858">
        <ele>2184.1</ele>
        <time>2026-03-25T10:03:00Z</time>
      </trkpt>
      <trkpt lat="44.68944" lon="6.85858">
        <ele>2184.1</ele>
        <time>2026-03-25T10:03:01Z</time>
      </trkpt>
      <trkpt lat="44.68944" lon="6.85858">
        <ele>2184.1</ele>
        <time>2026-03-25T10:03:02Z</time>
      </trkpt>
      <trkpt lat="44.68944" lon="6.85858">
        <ele>2184.1</ele>
        <time>2026-03-25T10:03:03Z</time>
      </trkpt>
      <trkpt lat="44.68944" lon="6.85858">
        <ele>2184.1</ele>
        <time>2026-03-25T10:03:04Z</time>
      </trkpt>
      <trkpt lat="44.68944" lon="6.85858">
        <ele>2184.1</ele>
        <time>2026-03-25T10:03:05Z</time>
      </trkpt>
      <trkpt lat="44.68944" lon="6.85858">
        <ele>2184.1</ele>
        <time>2026-03-25T10:03:06Z</time>
      </trkpt>
      <trkpt lat="44.68944" lon="6.85858">
        <ele>2184.1</ele>
        <time>2026-03-25T10:03:07Z</time>
      </trkpt>
      <trkpt lat="44.68944" lon="6.85858">
        <ele>2184.1</ele>
        <time>2026-03-25T10:03:08Z</time>
      </trkpt>
      <trkpt lat="44.68944" lon="6.85858">
        <ele>2184.1</ele>
        <time>2026-03-25T10:03:09Z</time>
      </trkpt>
      <trkpt lat="44.68944" lon="6.85858">
        <ele>2184.1</ele>
        <time>2026-03-25T10:03:10Z</time>
      </trkpt>
      <trkpt lat="44.68944" lon="6.85858">
        <ele>2184.1</ele>
        <time>2026-03-25T10:03:11Z</time>
      </trkpt>
      <trkpt lat="44.68944" lon="6.85858">
        <ele>2184.1</ele>
        <time>2026-03-25T10:03:12Z</time>
      </trkpt>
      <trkpt lat="44.68944" lon="6.85858">
        <ele>2184.1</ele>
        <time>2026-03-25T10:03:13Z</time>
      </trkpt>
      <trkpt lat="44.68944" lon="6.85858">
        <ele>2184.1</ele>
        <time>2026-03-25T10:03:14Z</time>
      </trkpt>
      <trkpt lat="44.68944" lon="6.85858">
        <ele>2184.1</ele>
        <time>2026-03-25T10:03:15Z</time>
      </trkpt>
      <trkpt lat="44.68944" lon="6.85858">
        <ele>2184.1</ele>
        <time>2026-03-25T10:03:16Z</time>
      </trkpt>
      <trkpt lat="44.68944" lon="6.85858">
        <ele>2184.1</ele>
        <time>2026-03-25T10:03:17Z</time>
      </trkpt>
      <trkpt lat="44.68944" lon="6.85858">
        <ele>2184.1</ele>
        <time>2026-03-25T10:03:18Z</time>
      </trkpt>
      <trkpt lat="44.68944" lon="6.85858">
        <ele>2184.1</ele>
        <time>2026-03-25T10:03:19Z</time>
      </trkpt>
      <trkpt lat="44.68944" lon="6.85858">
        <ele>2184.1</ele>
        <time>2026-03-25T10:03:20Z</time>
      </trkpt>
      <trkpt lat="44.68944" lon="6.85858">
        <ele>2184.1</ele>
        <time>2026-03-25T10:03:21Z</time>
      </trkpt>
      <trkpt lat="44.68944" lon="6.85858">
        <ele>2184.1</ele>
        <time>2026-03-25T10:03:22Z</time>
      </trkpt>
      <trkpt lat="44.68944" lon="6.85858">
        <ele>2184.1</ele>
        <time>2026-03-25T10:03:23Z</time>
      </trkpt>
      <trkpt lat="44.68944" lon="6.85858">
        <ele>2184.1</ele>
        <time>2026-03-25T10:03:24Z</time>
      </trkpt>
      <trkpt lat="44.68944" lon="6.85858">
        <ele>2184.1</ele>
        <time>2026-03-25T10:03:25Z</time>
      </trkpt>
      <trkpt lat="44.68944" lon="6.85858">
        <ele>2184.1</ele>
        <time>2026-03-25T10:03:26Z</time>
      </trkpt>
      <trkpt lat="44.68944" lon="6.85858">
        <ele>2184.1</ele>
        <time>2026-03-25T10:03:27Z</time>
      </trkpt>
      <trkpt lat="44.68944" lon="6.85858">
        <ele>2184.1</ele>
        <time>2026-03-25T10:03:28Z</time>
      </trkpt>
      <trkpt lat="44.68944" lon="6.85858">
        <ele>2184.1</ele>
        <time>2026-03-25T10:03:29Z</time>
      </trkpt>
      <trkpt lat="44.68944" lon="6.85858">
        <ele>2184.1</ele>
        <time>2026-03-25T10:03:30Z</time>
      </trkpt>
      <trkpt lat="44.68944" lon="6.85858">
        <ele>2184.1</ele>
        <time>2026-03-25T10:03:31Z</time>
      </trkpt>
      <trkpt lat="44.68944" lon="6.85858">
        <ele>2184.1</ele>
        <time>2026-03-25T10:03:32Z</time>
      </trkpt>
      <trkpt lat="44.68944" lon="6.85858">
        <ele>2184.1</ele>
        <time>2026-03-25T10:03:33Z</time>
      </trkpt>
      <trkpt lat="44.68944" lon="6.85858">
        <ele>2184.1</ele>
        <time>2026-03-25T10:03:34Z</time>
      </trkpt>
      <trkpt lat="44.68944" lon="6.85858">
        <ele>2184.1</ele>
        <time>2026-03-25T10:03:35Z</time>
      </trkpt>
      <trkpt lat="44.68944" lon="6.85858">
        <ele>2184.1</ele>
        <time>2026-03-25T10:03:36Z</time>
      </trkpt>
      <trkpt lat="44.68944" lon="6.85858">
        <ele>2184.1</ele>
        <time>2026-03-25T10:03:37Z</time>
      </trkpt>
      <trkpt lat="44.68944" lon="6.85858">
        <ele>2184.1</ele>
        <time>2026-03-25T10:03:38Z</time>
      </trkpt>
      <trkpt lat="44.68945" lon="6.85858">
        <ele>2184.1</ele>
        <time>2026-03-25T10:03:39Z</time>
      </trkpt>
      <trkpt lat="44.68945" lon="6.85858">
        <ele>2184.1</ele>
        <time>2026-03-25T10:03:40Z</time>
      </trkpt>
      <trkpt lat="44.68945" lon="6.85858">
        <ele>2184.1</ele>
        <time>2026-03-25T10:03:41Z</time>
      </trkpt>
      <trkpt lat="44.68945" lon="6.85858">
        <ele>2184.1</ele>
        <time>2026-03-25T10:03:42Z</time>
      </trkpt>
      <trkpt lat="44.68945" lon="6.85858">
        <ele>2184.1</ele>
        <time>2026-03-25T10:03:43Z</time>
      </trkpt>
      <trkpt lat="44.68945" lon="6.85858">
        <ele>2184.1</ele>
        <time>2026-03-25T10:03:44Z</time>
      </trkpt>
      <trkpt lat="44.68945" lon="6.85858">
        <ele>2184.1</ele>
        <time>2026-03-25T10:03:45Z</time>
      </trkpt>
      <trkpt lat="44.68945" lon="6.85858">
        <ele>2184.1</ele>
        <time>2026-03-25T10:03:46Z</time>
      </trkpt>
      <trkpt lat="44.68945" lon="6.85858">
        <ele>2184.1</ele>
        <time>2026-03-25T10:03:47Z</time>
      </trkpt>
      <trkpt lat="44.68945" lon="6.85858">
        <ele>2184.1</ele>
        <time>2026-03-25T10:03:48Z</time>
      </trkpt>
      <trkpt lat="44.68945" lon="6.85858">
        <ele>2184.1</ele>
        <time>2026-03-25T10:03:49Z</time>
      </trkpt>
      <trkpt lat="44.68945" lon="6.85858">
        <ele>2184.1</ele>
        <time>2026-03-25T10:03:50Z</time>
      </trkpt>
      <trkpt lat="44.68945" lon="6.85858">
        <ele>2184.1</ele>
        <time>2026-03-25T10:03:51Z</time>
      </trkpt>
      <trkpt lat="44.68945" lon="6.85858">
        <ele>2184.1</ele>
        <time>2026-03-25T10:03:52Z</time>
      </trkpt>
      <trkpt lat="44.68945" lon="6.85858">
        <ele>2184.1</ele>
        <time>2026-03-25T10:03:53Z</time>
      </trkpt>
      <trkpt lat="44.68945" lon="6.85858">
        <ele>2184.1</ele>
        <time>2026-03-25T10:03:54Z</time>
      </trkpt>
      <trkpt lat="44.68945" lon="6.85858">
        <ele>2184.1</ele>
        <time>2026-03-25T10:03:55Z</time>
      </trkpt>
      <trkpt lat="44.68945" lon="6.85858">
        <ele>2184.1</ele>
        <time>2026-03-25T10:03:56Z</time>
      </trkpt>
      <trkpt lat="44.68945" lon="6.85858">
        <ele>2184.1</ele>
        <time>2026-03-25T10:03:57Z</time>
      </trkpt>
      <trkpt lat="44.68945" lon="6.85858">
        <ele>2184.1</ele>
        <time>2026-03-25T10:03:58Z</time>
      </trkpt>
      <trkpt lat="44.68945" lon="6.85858">
        <ele>2184.1</ele>
        <time>2026-03-25T10:03:59Z</time>
      </trkpt>
      <trkpt lat="44.68945" lon="6.85858">
        <ele>2184.1</ele>
        <time>2026-03-25T10:04:00Z</time>
      </trkpt>
      <trkpt lat="44.68945" lon="6.85858">
        <ele>2184.1</ele>
        <time>2026-03-25T10:04:01Z</time>
      </trkpt>
      <trkpt lat="44.68945" lon="6.85858">
        <ele>2184.1</ele>
        <time>2026-03-25T10:04:02Z</time>
      </trkpt>
      <trkpt lat="44.68945" lon="6.85858">
        <ele>2184.1</ele>
        <time>2026-03-25T10:04:03Z</time>
      </trkpt>
      <trkpt lat="44.68945" lon="6.85858">
        <ele>2184.1</ele>
        <time>2026-03-25T10:04:04Z</time>
      </trkpt>
      <trkpt lat="44.68945" lon="6.85858">
        <ele>2184.1</ele>
        <time>2026-03-25T10:04:05Z</time>
      </trkpt>
      <trkpt lat="44.68945" lon="6.85858">
        <ele>2184.1</ele>
        <time>2026-03-25T10:04:06Z</time>
      </trkpt>
      <trkpt lat="44.68945" lon="6.85858">
        <ele>2184.1</ele>
        <time>2026-03-25T10:04:07Z</time>
      </trkpt>
      <trkpt lat="44.68945" lon="6.85858">
        <ele>2184.1</ele>
        <time>2026-03-25T10:04:08Z</time>
      </trkpt>
      <trkpt lat="44.68945" lon="6.85858">
        <ele>2184.1</ele>
        <time>2026-03-25T10:04:09Z</time>
      </trkpt>
      <trkpt lat="44.68945" lon="6.85858">
        <ele>2184.1</ele>
        <time>2026-03-25T10:04:10Z</time>
      </trkpt>
      <trkpt lat="44.68945" lon="6.85858">
        <ele>2184.1</ele>
        <time>2026-03-25T10:04:11Z</time>
      </trkpt>
      <trkpt lat="44.68945" lon="6.85858">
        <ele>2184.1</ele>
        <time>2026-03-25T10:04:12Z</time>
      </trkpt>
      <trkpt lat="44.68945" lon="6.85858">
        <ele>2184.1</ele>
        <time>2026-03-25T10:04:13Z</time>
      </trkpt>
      <trkpt lat="44.68945" lon="6.85858">
        <ele>2184.1</ele>
        <time>2026-03-25T10:04:14Z</time>
      </trkpt>
      <trkpt lat="44.68945" lon="6.85858">
        <ele>2184.1</ele>
        <time>2026-03-25T10:04:15Z</time>
      </trkpt>
      <trkpt lat="44.68945" lon="6.85858">
        <ele>2184.1</ele>
        <time>2026-03-25T10:04:16Z</time>
      </trkpt>
      <trkpt lat="44.68945" lon="6.85858">
        <ele>2184.1</ele>
        <time>2026-03-25T10:04:17Z</time>
      </trkpt>
      <trkpt lat="44.68945" lon="6.85858">
        <ele>2184.1</ele>
        <time>2026-03-25T10:04:18Z</time>
      </trkpt>
      <trkpt lat="44.68945" lon="6.85858">
        <ele>2184.1</ele>
        <time>2026-03-25T10:04:19Z</time>
      </trkpt>
      <trkpt lat="44.68945" lon="6.85858">
        <ele>2184.1</ele>
        <time>2026-03-25T10:04:20Z</time>
      </trkpt>
      <trkpt lat="44.68945" lon="6.85858">
        <ele>2184.1</ele>
        <time>2026-03-25T10:04:21Z</time>
      </trkpt>
      <trkpt lat="44.68945" lon="6.85858">
        <ele>2184.1</ele>
        <time>2026-03-25T10:04:22Z</time>
      </trkpt>
      <trkpt lat="44.68945" lon="6.85858">
        <ele>2184.1</ele>
        <time>2026-03-25T10:04:23Z</time>
      </trkpt>
      <trkpt lat="44.68945" lon="6.85858">
        <ele>2184.1</ele>
        <time>2026-03-25T10:04:24Z</time>
      </trkpt>
      <trkpt lat="44.68945" lon="6.85858">
        <ele>2184.1</ele>
        <time>2026-03-25T10:04:25Z</time>
      </trkpt>
      <trkpt lat="44.68945" lon="6.85858">
        <ele>2184.1</ele>
        <time>2026-03-25T10:04:26Z</time>
      </trkpt>
      <trkpt lat="44.68945" lon="6.85858">
        <ele>2184.1</ele>
        <time>2026-03-25T10:04:27Z</time>
      </trkpt>
      <trkpt lat="44.68945" lon="6.85858">
        <ele>2184.1</ele>
        <time>2026-03-25T10:04:28Z</time>
      </trkpt>
      <trkpt lat="44.68945" lon="6.85858">
        <ele>2184.1</ele>
        <time>2026-03-25T10:04:29Z</time>
      </trkpt>
      <trkpt lat="44.68945" lon="6.85858">
        <ele>2184.1</ele>
        <time>2026-03-25T10:04:30Z</time>
      </trkpt>
      <trkpt lat="44.68945" lon="6.85858">
        <ele>2184.1</ele>
        <time>2026-03-25T10:04:31Z</time>
      </trkpt>
      <trkpt lat="44.68945" lon="6.85858">
        <ele>2184.1</ele>
        <time>2026-03-25T10:04:32Z</time>
      </trkpt>
      <trkpt lat="44.68945" lon="6.85858">
        <ele>2184.1</ele>
        <time>2026-03-25T10:04:33Z</time>
      </trkpt>
      <trkpt lat="44.68945" lon="6.85858">
        <ele>2184.1</ele>
        <time>2026-03-25T10:04:34Z</time>
      </trkpt>
      <trkpt lat="44.68945" lon="6.85858">
        <ele>2184.1</ele>
        <time>2026-03-25T10:04:35Z</time>
      </trkpt>
      <trkpt lat="44.68945" lon="6.85858">
        <ele>2184.1</ele>
        <time>2026-03-25T10:04:36Z</time>
      </trkpt>
      <trkpt lat="44.68945" lon="6.85858">
        <ele>2184.1</ele>
        <time>2026-03-25T10:04:37Z</time>
      </trkpt>
      <trkpt lat="44.68945" lon="6.85858">
        <ele>2184.1</ele>
        <time>2026-03-25T10:04:38Z</time>
      </trkpt>
      <trkpt lat="44.68945" lon="6.85858">
        <ele>2184.1</ele>
        <time>2026-03-25T10:04:39Z</time>
      </trkpt>
      <trkpt lat="44.68945" lon="6.85858">
        <ele>2184.1</ele>
        <time>2026-03-25T10:04:40Z</time>
      </trkpt>
      <trkpt lat="44.68945" lon="6.85858">
        <ele>2184.1</ele>
        <time>2026-03-25T10:04:41Z</time>
      </trkpt>
      <trkpt lat="44.68945" lon="6.85858">
        <ele>2184.1</ele>
        <time>2026-03-25T10:04:42Z</time>
      </trkpt>
      <trkpt lat="44.68945" lon="6.85858">
        <ele>2184.1</ele>
        <time>2026-03-25T10:04:43Z</time>
      </trkpt>
      <trkpt lat="44.68945" lon="6.85858">
        <ele>2184.1</ele>
        <time>2026-03-25T10:04:44Z</time>
      </trkpt>
      <trkpt lat="44.68945" lon="6.85858">
        <ele>2184.1</ele>
        <time>2026-03-25T10:04:45Z</time>
      </trkpt>
      <trkpt lat="44.68945" lon="6.85858">
        <ele>2184.1</ele>
        <time>2026-03-25T10:04:46Z</time>
      </trkpt>
      <trkpt lat="44.68945" lon="6.85858">
        <ele>2184.1</ele>
        <time>2026-03-25T10:04:47Z</time>
      </trkpt>
      <trkpt lat="44.68945" lon="6.85858">
        <ele>2184.1</ele>
        <time>2026-03-25T10:04:48Z</time>
      </trkpt>
      <trkpt lat="44.68945" lon="6.85858">
        <ele>2184.1</ele>
        <time>2026-03-25T10:04:49Z</time>
      </trkpt>
      <trkpt lat="44.68945" lon="6.85858">
        <ele>2184.1</ele>
        <time>2026-03-25T10:04:50Z</time>
      </trkpt>
      <trkpt lat="44.68945" lon="6.85858">
        <ele>2184.1</ele>
        <time>2026-03-25T10:04:51Z</time>
      </trkpt>
      <trkpt lat="44.68945" lon="6.85858">
        <ele>2184.1</ele>
        <time>2026-03-25T10:04:52Z</time>
      </trkpt>
      <trkpt lat="44.68945" lon="6.85858">
        <ele>2184.1</ele>
        <time>2026-03-25T10:04:53Z</time>
      </trkpt>
      <trkpt lat="44.68945" lon="6.85858">
        <ele>2184.1</ele>
        <time>2026-03-25T10:04:54Z</time>
      </trkpt>
      <trkpt lat="44.68945" lon="6.85858">
        <ele>2184.1</ele>
        <time>2026-03-25T10:04:55Z</time>
      </trkpt>
      <trkpt lat="44.68945" lon="6.85858">
        <ele>2184.1</ele>
        <time>2026-03-25T10:04:56Z</time>
      </trkpt>
      <trkpt lat="44.68945" lon="6.85858">
        <ele>2184.1</ele>
        <time>2026-03-25T10:04:57Z</time>
      </trkpt>
      <trkpt lat="44.68945" lon="6.85858">
        <ele>2184.1</ele>
        <time>2026-03-25T10:04:58Z</time>
      </trkpt>
      <trkpt lat="44.68945" lon="6.85858">
        <ele>2184.1</ele>
        <time>2026-03-25T10:04:59Z</time>
      </trkpt>
      <trkpt lat="44.68945" lon="6.85858">
        <ele>2184.1</ele>
        <time>2026-03-25T10:05:00Z</time>
      </trkpt>
      <trkpt lat="44.68945" lon="6.85858">
        <ele>2184.1</ele>
        <time>2026-03-25T10:05:01Z</time>
      </trkpt>
      <trkpt lat="44.68945" lon="6.85858">
        <ele>2184.1</ele>
        <time>2026-03-25T10:05:02Z</time>
      </trkpt>
      <trkpt lat="44.68945" lon="6.85858">
        <ele>2184.1</ele>
        <time>2026-03-25T10:05:03Z</time>
      </trkpt>
      <trkpt lat="44.68945" lon="6.85858">
        <ele>2184.1</ele>
        <time>2026-03-25T10:05:04Z</time>
      </trkpt>
      <trkpt lat="44.68945" lon="6.85858">
        <ele>2184.1</ele>
        <time>2026-03-25T10:05:05Z</time>
      </trkpt>
      <trkpt lat="44.68945" lon="6.85858">
        <ele>2184.1</ele>
        <time>2026-03-25T10:05:06Z</time>
      </trkpt>
      <trkpt lat="44.68945" lon="6.85858">
        <ele>2184.1</ele>
        <time>2026-03-25T10:05:07Z</time>
      </trkpt>
      <trkpt lat="44.68945" lon="6.85858">
        <ele>2184.1</ele>
        <time>2026-03-25T10:05:08Z</time>
      </trkpt>
      <trkpt lat="44.68945" lon="6.85858">
        <ele>2184.1</ele>
        <time>2026-03-25T10:05:09Z</time>
      </trkpt>
      <trkpt lat="44.68945" lon="6.85858">
        <ele>2184.1</ele>
        <time>2026-03-25T10:05:10Z</time>
      </trkpt>
      <trkpt lat="44.68945" lon="6.85858">
        <ele>2184.1</ele>
        <time>2026-03-25T10:05:11Z</time>
      </trkpt>
      <trkpt lat="44.68945" lon="6.85858">
        <ele>2184.1</ele>
        <time>2026-03-25T10:05:12Z</time>
      </trkpt>
      <trkpt lat="44.68945" lon="6.85858">
        <ele>2184.1</ele>
        <time>2026-03-25T10:05:13Z</time>
      </trkpt>
      <trkpt lat="44.68945" lon="6.85858">
        <ele>2184.1</ele>
        <time>2026-03-25T10:05:14Z</time>
      </trkpt>
      <trkpt lat="44.68945" lon="6.85858">
        <ele>2184.1</ele>
        <time>2026-03-25T10:05:15Z</time>
      </trkpt>
      <trkpt lat="44.68945" lon="6.85858">
        <ele>2184.1</ele>
        <time>2026-03-25T10:05:16Z</time>
      </trkpt>
      <trkpt lat="44.68945" lon="6.85858">
        <ele>2184.1</ele>
        <time>2026-03-25T10:05:17Z</time>
      </trkpt>
      <trkpt lat="44.68945" lon="6.85858">
        <ele>2184.1</ele>
        <time>2026-03-25T10:05:18Z</time>
      </trkpt>
      <trkpt lat="44.68945" lon="6.85858">
        <ele>2184.1</ele>
        <time>2026-03-25T10:05:19Z</time>
      </trkpt>
      <trkpt lat="44.68945" lon="6.85858">
        <ele>2184.1</ele>
        <time>2026-03-25T10:05:20Z</time>
      </trkpt>
      <trkpt lat="44.68945" lon="6.85858">
        <ele>2184.1</ele>
        <time>2026-03-25T10:05:21Z</time>
      </trkpt>
      <trkpt lat="44.68945" lon="6.85858">
        <ele>2184.1</ele>
        <time>2026-03-25T10:05:22Z</time>
      </trkpt>
      <trkpt lat="44.68945" lon="6.85858">
        <ele>2184.1</ele>
        <time>2026-03-25T10:05:23Z</time>
      </trkpt>
      <trkpt lat="44.68945" lon="6.85858">
        <ele>2184.1</ele>
        <time>2026-03-25T10:05:24Z</time>
      </trkpt>
      <trkpt lat="44.68945" lon="6.85858">
        <ele>2184.1</ele>
        <time>2026-03-25T10:05:25Z</time>
      </trkpt>
      <trkpt lat="44.68945" lon="6.85858">
        <ele>2184.1</ele>
        <time>2026-03-25T10:05:26Z</time>
      </trkpt>
      <trkpt lat="44.68945" lon="6.85858">
        <ele>2184.1</ele>
        <time>2026-03-25T10:05:27Z</time>
      </trkpt>
      <trkpt lat="44.68945" lon="6.85858">
        <ele>2184.1</ele>
        <time>2026-03-25T10:05:28Z</time>
      </trkpt>
      <trkpt lat="44.68945" lon="6.85858">
        <ele>2184.1</ele>
        <time>2026-03-25T10:05:29Z</time>
      </trkpt>
      <trkpt lat="44.68945" lon="6.85858">
        <ele>2184.1</ele>
        <time>2026-03-25T10:05:30Z</time>
      </trkpt>
      <trkpt lat="44.68945" lon="6.85858">
        <ele>2184.1</ele>
        <time>2026-03-25T10:05:31Z</time>
      </trkpt>
      <trkpt lat="44.68945" lon="6.85858">
        <ele>2184.1</ele>
        <time>2026-03-25T10:05:32Z</time>
      </trkpt>
      <trkpt lat="44.68945" lon="6.85858">
        <ele>2184.1</ele>
        <time>2026-03-25T10:05:33Z</time>
      </trkpt>
      <trkpt lat="44.68945" lon="6.85858">
        <ele>2184.1</ele>
        <time>2026-03-25T10:05:34Z</time>
      </trkpt>
      <trkpt lat="44.68945" lon="6.85858">
        <ele>2184.1</ele>
        <time>2026-03-25T10:05:35Z</time>
      </trkpt>
      <trkpt lat="44.68945" lon="6.85858">
        <ele>2184.1</ele>
        <time>2026-03-25T10:05:36Z</time>
      </trkpt>
      <trkpt lat="44.68945" lon="6.85858">
        <ele>2184.1</ele>
        <time>2026-03-25T10:05:37Z</time>
      </trkpt>
      <trkpt lat="44.68945" lon="6.85858">
        <ele>2184.1</ele>
        <time>2026-03-25T10:05:38Z</time>
      </trkpt>
      <trkpt lat="44.68945" lon="6.85858">
        <ele>2184.1</ele>
        <time>2026-03-25T10:05:39Z</time>
      </trkpt>
      <trkpt lat="44.68945" lon="6.85858">
        <ele>2184.1</ele>
        <time>2026-03-25T10:05:40Z</time>
      </trkpt>
      <trkpt lat="44.68945" lon="6.85858">
        <ele>2184.1</ele>
        <time>2026-03-25T10:05:41Z</time>
      </trkpt>
      <trkpt lat="44.68945" lon="6.85858">
        <ele>2184.1</ele>
        <time>2026-03-25T10:05:42Z</time>
      </trkpt>
      <trkpt lat="44.68945" lon="6.85858">
        <ele>2184.1</ele>
        <time>2026-03-25T10:05:43Z</time>
      </trkpt>
      <trkpt lat="44.68945" lon="6.85858">
        <ele>2184.1</ele>
        <time>2026-03-25T10:05:44Z</time>
      </trkpt>
      <trkpt lat="44.68945" lon="6.85858">
        <ele>2184.1</ele>
        <time>2026-03-25T10:05:45Z</time>
      </trkpt>
      <trkpt lat="44.68945" lon="6.85858">
        <ele>2184.1</ele>
        <time>2026-03-25T10:05:46Z</time>
      </trkpt>
      <trkpt lat="44.68945" lon="6.85858">
        <ele>2184.1</ele>
        <time>2026-03-25T10:05:47Z</time>
      </trkpt>
      <trkpt lat="44.68945" lon="6.85858">
        <ele>2184.1</ele>
        <time>2026-03-25T10:05:48Z</time>
      </trkpt>
      <trkpt lat="44.68945" lon="6.85858">
        <ele>2184.1</ele>
        <time>2026-03-25T10:05:49Z</time>
      </trkpt>
      <trkpt lat="44.68945" lon="6.85858">
        <ele>2184.1</ele>
        <time>2026-03-25T10:05:50Z</time>
      </trkpt>
      <trkpt lat="44.68945" lon="6.85858">
        <ele>2184.1</ele>
        <time>2026-03-25T10:05:51Z</time>
      </trkpt>
      <trkpt lat="44.68945" lon="6.85858">
        <ele>2184.1</ele>
        <time>2026-03-25T10:05:52Z</time>
      </trkpt>
      <trkpt lat="44.68945" lon="6.85858">
        <ele>2184.1</ele>
        <time>2026-03-25T10:05:53Z</time>
      </trkpt>
      <trkpt lat="44.68945" lon="6.85858">
        <ele>2184.1</ele>
        <time>2026-03-25T10:05:54Z</time>
      </trkpt>
      <trkpt lat="44.68944" lon="6.85858">
        <ele>2184.1</ele>
        <time>2026-03-25T10:05:55Z</time>
      </trkpt>
      <trkpt lat="44.68944" lon="6.85858">
        <ele>2184.1</ele>
        <time>2026-03-25T10:05:56Z</time>
      </trkpt>
      <trkpt lat="44.68944" lon="6.85858">
        <ele>2184.1</ele>
        <time>2026-03-25T10:05:57Z</time>
      </trkpt>
      <trkpt lat="44.68944" lon="6.85858">
        <ele>2184.1</ele>
        <time>2026-03-25T10:05:58Z</time>
      </trkpt>
      <trkpt lat="44.68944" lon="6.85858">
        <ele>2184.1</ele>
        <time>2026-03-25T10:05:59Z</time>
      </trkpt>
      <trkpt lat="44.68944" lon="6.85858">
        <ele>2184.1</ele>
        <time>2026-03-25T10:06:00Z</time>
      </trkpt>
      <trkpt lat="44.68944" lon="6.85858">
        <ele>2184.1</ele>
        <time>2026-03-25T10:06:01Z</time>
      </trkpt>
      <trkpt lat="44.68944" lon="6.85858">
        <ele>2184.1</ele>
        <time>2026-03-25T10:06:02Z</time>
      </trkpt>
      <trkpt lat="44.68944" lon="6.85858">
        <ele>2184.1</ele>
        <time>2026-03-25T10:06:03Z</time>
      </trkpt>
      <trkpt lat="44.68944" lon="6.85858">
        <ele>2184.1</ele>
        <time>2026-03-25T10:06:04Z</time>
      </trkpt>
      <trkpt lat="44.68944" lon="6.85858">
        <ele>2184.1</ele>
        <time>2026-03-25T10:06:05Z</time>
      </trkpt>
      <trkpt lat="44.68944" lon="6.85858">
        <ele>2184.1</ele>
        <time>2026-03-25T10:06:06Z</time>
      </trkpt>
      <trkpt lat="44.68944" lon="6.85858">
        <ele>2184.1</ele>
        <time>2026-03-25T10:06:07Z</time>
      </trkpt>
      <trkpt lat="44.68944" lon="6.85858">
        <ele>2184.1</ele>
        <time>2026-03-25T10:06:08Z</time>
      </trkpt>
      <trkpt lat="44.68944" lon="6.85858">
        <ele>2184.1</ele>
        <time>2026-03-25T10:06:09Z</time>
      </trkpt>
      <trkpt lat="44.68944" lon="6.85858">
        <ele>2184.1</ele>
        <time>2026-03-25T10:06:10Z</time>
      </trkpt>
      <trkpt lat="44.68944" lon="6.85858">
        <ele>2184.1</ele>
        <time>2026-03-25T10:06:11Z</time>
      </trkpt>
      <trkpt lat="44.68944" lon="6.85858">
        <ele>2184.1</ele>
        <time>2026-03-25T10:06:12Z</time>
      </trkpt>
      <trkpt lat="44.68944" lon="6.85858">
        <ele>2184.1</ele>
        <time>2026-03-25T10:06:13Z</time>
      </trkpt>
      <trkpt lat="44.68944" lon="6.85858">
        <ele>2184.1</ele>
        <time>2026-03-25T10:06:14Z</time>
      </trkpt>
      <trkpt lat="44.68944" lon="6.85858">
        <ele>2184.1</ele>
        <time>2026-03-25T10:06:15Z</time>
      </trkpt>
      <trkpt lat="44.68944" lon="6.85858">
        <ele>2184.1</ele>
        <time>2026-03-25T10:06:16Z</time>
      </trkpt>
      <trkpt lat="44.68944" lon="6.85858">
        <ele>2184.1</ele>
        <time>2026-03-25T10:06:17Z</time>
      </trkpt>
      <trkpt lat="44.68944" lon="6.85858">
        <ele>2184.1</ele>
        <time>2026-03-25T10:06:18Z</time>
      </trkpt>
      <trkpt lat="44.68944" lon="6.85858">
        <ele>2184.1</ele>
        <time>2026-03-25T10:06:19Z</time>
      </trkpt>
      <trkpt lat="44.68944" lon="6.85858">
        <ele>2184.1</ele>
        <time>2026-03-25T10:06:20Z</time>
      </trkpt>
      <trkpt lat="44.68944" lon="6.85858">
        <ele>2184.1</ele>
        <time>2026-03-25T10:06:21Z</time>
      </trkpt>
      <trkpt lat="44.68944" lon="6.85858">
        <ele>2184.1</ele>
        <time>2026-03-25T10:06:22Z</time>
      </trkpt>
      <trkpt lat="44.68944" lon="6.85858">
        <ele>2184.1</ele>
        <time>2026-03-25T10:06:23Z</time>
      </trkpt>
      <trkpt lat="44.68944" lon="6.85858">
        <ele>2184.1</ele>
        <time>2026-03-25T10:06:24Z</time>
      </trkpt>
      <trkpt lat="44.68944" lon="6.85858">
        <ele>2184.1</ele>
        <time>2026-03-25T10:06:25Z</time>
      </trkpt>
      <trkpt lat="44.68944" lon="6.85858">
        <ele>2184.1</ele>
        <time>2026-03-25T10:06:26Z</time>
      </trkpt>
      <trkpt lat="44.68944" lon="6.85858">
        <ele>2184.1</ele>
        <time>2026-03-25T10:06:27Z</time>
      </trkpt>
      <trkpt lat="44.68944" lon="6.85858">
        <ele>2184.1</ele>
        <time>2026-03-25T10:06:28Z</time>
      </trkpt>
      <trkpt lat="44.68944" lon="6.85858">
        <ele>2184.1</ele>
        <time>2026-03-25T10:06:29Z</time>
      </trkpt>
      <trkpt lat="44.68944" lon="6.85858">
        <ele>2184.1</ele>
        <time>2026-03-25T10:06:30Z</time>
      </trkpt>
      <trkpt lat="44.68944" lon="6.85858">
        <ele>2184.1</ele>
        <time>2026-03-25T10:06:31Z</time>
      </trkpt>
      <trkpt lat="44.68944" lon="6.85858">
        <ele>2184.1</ele>
        <time>2026-03-25T10:06:32Z</time>
      </trkpt>
      <trkpt lat="44.68944" lon="6.85858">
        <ele>2184.1</ele>
        <time>2026-03-25T10:06:33Z</time>
      </trkpt>
      <trkpt lat="44.68944" lon="6.85858">
        <ele>2184.1</ele>
        <time>2026-03-25T10:06:34Z</time>
      </trkpt>
      <trkpt lat="44.68944" lon="6.85858">
        <ele>2184.1</ele>
        <time>2026-03-25T10:06:35Z</time>
      </trkpt>
      <trkpt lat="44.68944" lon="6.85858">
        <ele>2184.1</ele>
        <time>2026-03-25T10:06:36Z</time>
      </trkpt>
      <trkpt lat="44.68944" lon="6.85858">
        <ele>2184.1</ele>
        <time>2026-03-25T10:06:37Z</time>
      </trkpt>
      <trkpt lat="44.68944" lon="6.85858">
        <ele>2184.1</ele>
        <time>2026-03-25T10:06:38Z</time>
      </trkpt>
      <trkpt lat="44.68944" lon="6.85858">
        <ele>2184.1</ele>
        <time>2026-03-25T10:06:39Z</time>
      </trkpt>
      <trkpt lat="44.68945" lon="6.85858">
        <ele>2184.1</ele>
        <time>2026-03-25T10:06:40Z</time>
      </trkpt>
      <trkpt lat="44.68945" lon="6.85859">
        <ele>2184.1</ele>
        <time>2026-03-25T10:06:41Z</time>
      </trkpt>
      <trkpt lat="44.68945" lon="6.85859">
        <ele>2184.1</ele>
        <time>2026-03-25T10:06:42Z</time>
      </trkpt>
      <trkpt lat="44.68945" lon="6.85859">
        <ele>2184.1</ele>
        <time>2026-03-25T10:06:43Z</time>
      </trkpt>
      <trkpt lat="44.68945" lon="6.85859">
        <ele>2184.1</ele>
        <time>2026-03-25T10:06:44Z</time>
      </trkpt>
      <trkpt lat="44.68945" lon="6.85859">
        <ele>2184.1</ele>
        <time>2026-03-25T10:06:45Z</time>
      </trkpt>
      <trkpt lat="44.68945" lon="6.85859">
        <ele>2184.1</ele>
        <time>2026-03-25T10:06:46Z</time>
      </trkpt>
      <trkpt lat="44.68945" lon="6.85859">
        <ele>2184.1</ele>
        <time>2026-03-25T10:06:47Z</time>
      </trkpt>
      <trkpt lat="44.68945" lon="6.85859">
        <ele>2184.1</ele>
        <time>2026-03-25T10:06:48Z</time>
      </trkpt>
      <trkpt lat="44.68945" lon="6.85859">
        <ele>2184.1</ele>
        <time>2026-03-25T10:06:49Z</time>
      </trkpt>
      <trkpt lat="44.68945" lon="6.85859">
        <ele>2184.1</ele>
        <time>2026-03-25T10:06:50Z</time>
      </trkpt>
      <trkpt lat="44.68945" lon="6.85859">
        <ele>2184.1</ele>
        <time>2026-03-25T10:06:51Z</time>
      </trkpt>
      <trkpt lat="44.68945" lon="6.85859">
        <ele>2184.1</ele>
        <time>2026-03-25T10:06:52Z</time>
      </trkpt>
      <trkpt lat="44.68945" lon="6.85859">
        <ele>2184.1</ele>
        <time>2026-03-25T10:06:53Z</time>
      </trkpt>
      <trkpt lat="44.68945" lon="6.85859">
        <ele>2184.1</ele>
        <time>2026-03-25T10:06:54Z</time>
      </trkpt>
      <trkpt lat="44.68945" lon="6.85859">
        <ele>2184.1</ele>
        <time>2026-03-25T10:06:55Z</time>
      </trkpt>
      <trkpt lat="44.68945" lon="6.85859">
        <ele>2184.1</ele>
        <time>2026-03-25T10:06:56Z</time>
      </trkpt>
      <trkpt lat="44.68945" lon="6.85859">
        <ele>2184.1</ele>
        <time>2026-03-25T10:06:57Z</time>
      </trkpt>
      <trkpt lat="44.68945" lon="6.85859">
        <ele>2184.1</ele>
        <time>2026-03-25T10:06:58Z</time>
      </trkpt>
      <trkpt lat="44.68945" lon="6.8586">
        <ele>2184.1</ele>
        <time>2026-03-25T10:06:59Z</time>
      </trkpt>
      <trkpt lat="44.68945" lon="6.8586">
        <ele>2185.3</ele>
        <time>2026-03-25T10:07:00Z</time>
      </trkpt>
      <trkpt lat="44.68945" lon="6.85861">
        <ele>2185.3</ele>
        <time>2026-03-25T10:07:01Z</time>
      </trkpt>
      <trkpt lat="44.68945" lon="6.85862">
        <ele>2185.3</ele>
        <time>2026-03-25T10:07:02Z</time>
      </trkpt>
      <trkpt lat="44.68947" lon="6.85864">
        <ele>2185.5</ele>
        <time>2026-03-25T10:07:03Z</time>
      </trkpt>
      <trkpt lat="44.68947" lon="6.85864">
        <ele>2185.5</ele>
        <time>2026-03-25T10:07:04Z</time>
      </trkpt>
      <trkpt lat="44.68948" lon="6.85864">
        <ele>2185.5</ele>
        <time>2026-03-25T10:07:05Z</time>
      </trkpt>
      <trkpt lat="44.68949" lon="6.85864">
        <ele>2185.5</ele>
        <time>2026-03-25T10:07:06Z</time>
      </trkpt>
      <trkpt lat="44.6895" lon="6.85864">
        <ele>2185.6</ele>
        <time>2026-03-25T10:07:07Z</time>
      </trkpt>
      <trkpt lat="44.68951" lon="6.85863">
        <ele>2185.6</ele>
        <time>2026-03-25T10:07:08Z</time>
      </trkpt>
      <trkpt lat="44.68951" lon="6.85862">
        <ele>2185.6</ele>
        <time>2026-03-25T10:07:09Z</time>
      </trkpt>
      <trkpt lat="44.68952" lon="6.85862">
        <ele>2185.6</ele>
        <time>2026-03-25T10:07:10Z</time>
      </trkpt>
      <trkpt lat="44.68953" lon="6.85861">
        <ele>2185.8</ele>
        <time>2026-03-25T10:07:11Z</time>
      </trkpt>
      <trkpt lat="44.68953" lon="6.85861">
        <ele>2185.8</ele>
        <time>2026-03-25T10:07:12Z</time>
      </trkpt>
      <trkpt lat="44.68953" lon="6.85862">
        <ele>2185.8</ele>
        <time>2026-03-25T10:07:13Z</time>
      </trkpt>
      <trkpt lat="44.68954" lon="6.85862">
        <ele>2185.8</ele>
        <time>2026-03-25T10:07:14Z</time>
      </trkpt>
      <trkpt lat="44.68954" lon="6.85863">
        <ele>2185.8</ele>
        <time>2026-03-25T10:07:15Z</time>
      </trkpt>
      <trkpt lat="44.68955" lon="6.85863">
        <ele>2185.8</ele>
        <time>2026-03-25T10:07:16Z</time>
      </trkpt>
      <trkpt lat="44.68955" lon="6.85864">
        <ele>2185.8</ele>
        <time>2026-03-25T10:07:17Z</time>
      </trkpt>
      <trkpt lat="44.68955" lon="6.85864">
        <ele>2185.8</ele>
        <time>2026-03-25T10:07:18Z</time>
      </trkpt>
      <trkpt lat="44.68956" lon="6.85864">
        <ele>2186</ele>
        <time>2026-03-25T10:07:19Z</time>
      </trkpt>
      <trkpt lat="44.68957" lon="6.85864">
        <ele>2186</ele>
        <time>2026-03-25T10:07:20Z</time>
      </trkpt>
      <trkpt lat="44.68957" lon="6.85864">
        <ele>2186</ele>
        <time>2026-03-25T10:07:21Z</time>
      </trkpt>
      <trkpt lat="44.68957" lon="6.85865">
        <ele>2187.2</ele>
        <time>2026-03-25T10:07:22Z</time>
      </trkpt>
      <trkpt lat="44.68958" lon="6.85865">
        <ele>2187.2</ele>
        <time>2026-03-25T10:07:23Z</time>
      </trkpt>
      <trkpt lat="44.68959" lon="6.85865">
        <ele>2187.2</ele>
        <time>2026-03-25T10:07:24Z</time>
      </trkpt>
      <trkpt lat="44.68959" lon="6.85866">
        <ele>2187.4</ele>
        <time>2026-03-25T10:07:25Z</time>
      </trkpt>
      <trkpt lat="44.68959" lon="6.85865">
        <ele>2187.2</ele>
        <time>2026-03-25T10:07:26Z</time>
      </trkpt>
      <trkpt lat="44.68959" lon="6.85865">
        <ele>2187.4</ele>
        <time>2026-03-25T10:07:27Z</time>
      </trkpt>
      <trkpt lat="44.6896" lon="6.85865">
        <ele>2187.4</ele>
        <time>2026-03-25T10:07:28Z</time>
      </trkpt>
      <trkpt lat="44.68961" lon="6.85865">
        <ele>2187.4</ele>
        <time>2026-03-25T10:07:29Z</time>
      </trkpt>
      <trkpt lat="44.68961" lon="6.85865">
        <ele>2187.4</ele>
        <time>2026-03-25T10:07:30Z</time>
      </trkpt>
      <trkpt lat="44.68962" lon="6.85865">
        <ele>2187.4</ele>
        <time>2026-03-25T10:07:31Z</time>
      </trkpt>
      <trkpt lat="44.68962" lon="6.85866">
        <ele>2187.7</ele>
        <time>2026-03-25T10:07:32Z</time>
      </trkpt>
      <trkpt lat="44.68962" lon="6.85866">
        <ele>2187.4</ele>
        <time>2026-03-25T10:07:33Z</time>
      </trkpt>
      <trkpt lat="44.68961" lon="6.85866">
        <ele>2187.4</ele>
        <time>2026-03-25T10:07:34Z</time>
      </trkpt>
      <trkpt lat="44.68962" lon="6.85866">
        <ele>2187.4</ele>
        <time>2026-03-25T10:07:35Z</time>
      </trkpt>
      <trkpt lat="44.68962" lon="6.85867">
        <ele>2187.7</ele>
        <time>2026-03-25T10:07:36Z</time>
      </trkpt>
      <trkpt lat="44.68962" lon="6.85867">
        <ele>2187.7</ele>
        <time>2026-03-25T10:07:37Z</time>
      </trkpt>
      <trkpt lat="44.68963" lon="6.85868">
        <ele>2187.7</ele>
        <time>2026-03-25T10:07:38Z</time>
      </trkpt>
      <trkpt lat="44.68963" lon="6.85868">
        <ele>2187.7</ele>
        <time>2026-03-25T10:07:39Z</time>
      </trkpt>
      <trkpt lat="44.68963" lon="6.85868">
        <ele>2187.7</ele>
        <time>2026-03-25T10:07:40Z</time>
      </trkpt>
      <trkpt lat="44.68963" lon="6.85868">
        <ele>2187.7</ele>
        <time>2026-03-25T10:07:41Z</time>
      </trkpt>
      <trkpt lat="44.68963" lon="6.85868">
        <ele>2187.7</ele>
        <time>2026-03-25T10:07:42Z</time>
      </trkpt>
      <trkpt lat="44.68963" lon="6.85868">
        <ele>2187.7</ele>
        <time>2026-03-25T10:07:43Z</time>
      </trkpt>
      <trkpt lat="44.68963" lon="6.85868">
        <ele>2187.7</ele>
        <time>2026-03-25T10:07:44Z</time>
      </trkpt>
      <trkpt lat="44.68963" lon="6.85868">
        <ele>2187.7</ele>
        <time>2026-03-25T10:07:45Z</time>
      </trkpt>
      <trkpt lat="44.68963" lon="6.85868">
        <ele>2187.7</ele>
        <time>2026-03-25T10:07:46Z</time>
      </trkpt>
      <trkpt lat="44.68963" lon="6.85868">
        <ele>2187.7</ele>
        <time>2026-03-25T10:07:47Z</time>
      </trkpt>
      <trkpt lat="44.68963" lon="6.85868">
        <ele>2187.7</ele>
        <time>2026-03-25T10:07:48Z</time>
      </trkpt>
      <trkpt lat="44.68963" lon="6.85868">
        <ele>2187.7</ele>
        <time>2026-03-25T10:07:49Z</time>
      </trkpt>
      <trkpt lat="44.68963" lon="6.85868">
        <ele>2187.7</ele>
        <time>2026-03-25T10:07:50Z</time>
      </trkpt>
      <trkpt lat="44.68963" lon="6.85868">
        <ele>2187.7</ele>
        <time>2026-03-25T10:07:51Z</time>
      </trkpt>
      <trkpt lat="44.68963" lon="6.85868">
        <ele>2187.7</ele>
        <time>2026-03-25T10:07:52Z</time>
      </trkpt>
      <trkpt lat="44.68963" lon="6.85868">
        <ele>2187.7</ele>
        <time>2026-03-25T10:07:53Z</time>
      </trkpt>
      <trkpt lat="44.68963" lon="6.85868">
        <ele>2187.7</ele>
        <time>2026-03-25T10:07:54Z</time>
      </trkpt>
      <trkpt lat="44.68963" lon="6.85868">
        <ele>2187.7</ele>
        <time>2026-03-25T10:07:55Z</time>
      </trkpt>
      <trkpt lat="44.68963" lon="6.85868">
        <ele>2187.7</ele>
        <time>2026-03-25T10:07:56Z</time>
      </trkpt>
      <trkpt lat="44.68963" lon="6.85868">
        <ele>2187.7</ele>
        <time>2026-03-25T10:07:57Z</time>
      </trkpt>
      <trkpt lat="44.68963" lon="6.85868">
        <ele>2187.7</ele>
        <time>2026-03-25T10:07:58Z</time>
      </trkpt>
      <trkpt lat="44.68963" lon="6.85868">
        <ele>2187.7</ele>
        <time>2026-03-25T10:07:59Z</time>
      </trkpt>
      <trkpt lat="44.68963" lon="6.85868">
        <ele>2187.7</ele>
        <time>2026-03-25T10:08:00Z</time>
      </trkpt>
      <trkpt lat="44.68963" lon="6.85868">
        <ele>2187.7</ele>
        <time>2026-03-25T10:08:01Z</time>
      </trkpt>
      <trkpt lat="44.68963" lon="6.85868">
        <ele>2187.7</ele>
        <time>2026-03-25T10:08:02Z</time>
      </trkpt>
      <trkpt lat="44.68963" lon="6.85868">
        <ele>2187.7</ele>
        <time>2026-03-25T10:08:03Z</time>
      </trkpt>
      <trkpt lat="44.68963" lon="6.85868">
        <ele>2187.7</ele>
        <time>2026-03-25T10:08:04Z</time>
      </trkpt>
      <trkpt lat="44.68963" lon="6.85868">
        <ele>2187.7</ele>
        <time>2026-03-25T10:08:05Z</time>
      </trkpt>
      <trkpt lat="44.68963" lon="6.85868">
        <ele>2187.7</ele>
        <time>2026-03-25T10:08:06Z</time>
      </trkpt>
      <trkpt lat="44.68963" lon="6.85868">
        <ele>2187.7</ele>
        <time>2026-03-25T10:08:07Z</time>
      </trkpt>
      <trkpt lat="44.68963" lon="6.85868">
        <ele>2187.7</ele>
        <time>2026-03-25T10:08:08Z</time>
      </trkpt>
      <trkpt lat="44.68963" lon="6.85868">
        <ele>2187.7</ele>
        <time>2026-03-25T10:08:09Z</time>
      </trkpt>
      <trkpt lat="44.68963" lon="6.85868">
        <ele>2187.7</ele>
        <time>2026-03-25T10:08:10Z</time>
      </trkpt>
      <trkpt lat="44.68963" lon="6.85868">
        <ele>2187.7</ele>
        <time>2026-03-25T10:08:11Z</time>
      </trkpt>
      <trkpt lat="44.68963" lon="6.85868">
        <ele>2187.7</ele>
        <time>2026-03-25T10:08:12Z</time>
      </trkpt>
      <trkpt lat="44.68963" lon="6.85868">
        <ele>2187.7</ele>
        <time>2026-03-25T10:08:13Z</time>
      </trkpt>
      <trkpt lat="44.68963" lon="6.85868">
        <ele>2187.7</ele>
        <time>2026-03-25T10:08:14Z</time>
      </trkpt>
      <trkpt lat="44.68963" lon="6.85868">
        <ele>2187.7</ele>
        <time>2026-03-25T10:08:15Z</time>
      </trkpt>
      <trkpt lat="44.68963" lon="6.85868">
        <ele>2187.7</ele>
        <time>2026-03-25T10:08:16Z</time>
      </trkpt>
      <trkpt lat="44.68964" lon="6.85869">
        <ele>2187.7</ele>
        <time>2026-03-25T10:08:17Z</time>
      </trkpt>
      <trkpt lat="44.68964" lon="6.85869">
        <ele>2187.7</ele>
        <time>2026-03-25T10:08:18Z</time>
      </trkpt>
      <trkpt lat="44.68965" lon="6.85869">
        <ele>2189.2</ele>
        <time>2026-03-25T10:08:19Z</time>
      </trkpt>
      <trkpt lat="44.68966" lon="6.85869">
        <ele>2189.2</ele>
        <time>2026-03-25T10:08:20Z</time>
      </trkpt>
      <trkpt lat="44.68966" lon="6.8587">
        <ele>2189.2</ele>
        <time>2026-03-25T10:08:21Z</time>
      </trkpt>
      <trkpt lat="44.68967" lon="6.8587">
        <ele>2189.2</ele>
        <time>2026-03-25T10:08:22Z</time>
      </trkpt>
      <trkpt lat="44.68967" lon="6.8587">
        <ele>2189.2</ele>
        <time>2026-03-25T10:08:23Z</time>
      </trkpt>
      <trkpt lat="44.68968" lon="6.85871">
        <ele>2189.2</ele>
        <time>2026-03-25T10:08:24Z</time>
      </trkpt>
      <trkpt lat="44.68968" lon="6.85871">
        <ele>2189.5</ele>
        <time>2026-03-25T10:08:25Z</time>
      </trkpt>
      <trkpt lat="44.68969" lon="6.85872">
        <ele>2189.5</ele>
        <time>2026-03-25T10:08:26Z</time>
      </trkpt>
      <trkpt lat="44.6897" lon="6.85872">
        <ele>2189.5</ele>
        <time>2026-03-25T10:08:27Z</time>
      </trkpt>
      <trkpt lat="44.68969" lon="6.85872">
        <ele>2189.5</ele>
        <time>2026-03-25T10:08:28Z</time>
      </trkpt>
      <trkpt lat="44.68969" lon="6.85872">
        <ele>2189.5</ele>
        <time>2026-03-25T10:08:29Z</time>
      </trkpt>
      <trkpt lat="44.6897" lon="6.85873">
        <ele>2189.5</ele>
        <time>2026-03-25T10:08:30Z</time>
      </trkpt>
      <trkpt lat="44.68971" lon="6.85873">
        <ele>2189.9</ele>
        <time>2026-03-25T10:08:31Z</time>
      </trkpt>
      <trkpt lat="44.68971" lon="6.85873">
        <ele>2189.9</ele>
        <time>2026-03-25T10:08:32Z</time>
      </trkpt>
      <trkpt lat="44.68972" lon="6.85873">
        <ele>2191.2</ele>
        <time>2026-03-25T10:08:33Z</time>
      </trkpt>
      <trkpt lat="44.68973" lon="6.85874">
        <ele>2191.2</ele>
        <time>2026-03-25T10:08:34Z</time>
      </trkpt>
      <trkpt lat="44.68973" lon="6.85874">
        <ele>2191.2</ele>
        <time>2026-03-25T10:08:35Z</time>
      </trkpt>
      <trkpt lat="44.68974" lon="6.85874">
        <ele>2191.2</ele>
        <time>2026-03-25T10:08:36Z</time>
      </trkpt>
      <trkpt lat="44.68974" lon="6.85874">
        <ele>2191.6</ele>
        <time>2026-03-25T10:08:37Z</time>
      </trkpt>
      <trkpt lat="44.68975" lon="6.85875">
        <ele>2191.6</ele>
        <time>2026-03-25T10:08:38Z</time>
      </trkpt>
      <trkpt lat="44.68976" lon="6.85875">
        <ele>2191.6</ele>
        <time>2026-03-25T10:08:39Z</time>
      </trkpt>
      <trkpt lat="44.68976" lon="6.85875">
        <ele>2191.6</ele>
        <time>2026-03-25T10:08:40Z</time>
      </trkpt>
      <trkpt lat="44.68977" lon="6.85875">
        <ele>2191.6</ele>
        <time>2026-03-25T10:08:41Z</time>
      </trkpt>
      <trkpt lat="44.68977" lon="6.85876">
        <ele>2191.6</ele>
        <time>2026-03-25T10:08:42Z</time>
      </trkpt>
      <trkpt lat="44.68977" lon="6.85876">
        <ele>2192.1</ele>
        <time>2026-03-25T10:08:43Z</time>
      </trkpt>
      <trkpt lat="44.68978" lon="6.85876">
        <ele>2192.1</ele>
        <time>2026-03-25T10:08:44Z</time>
      </trkpt>
      <trkpt lat="44.68978" lon="6.85876">
        <ele>2192.1</ele>
        <time>2026-03-25T10:08:45Z</time>
      </trkpt>
      <trkpt lat="44.68978" lon="6.85876">
        <ele>2192.1</ele>
        <time>2026-03-25T10:08:46Z</time>
      </trkpt>
      <trkpt lat="44.68979" lon="6.85877">
        <ele>2192.1</ele>
        <time>2026-03-25T10:08:47Z</time>
      </trkpt>
      <trkpt lat="44.68979" lon="6.85877">
        <ele>2192.1</ele>
        <time>2026-03-25T10:08:48Z</time>
      </trkpt>
      <trkpt lat="44.6898" lon="6.85877">
        <ele>2192.1</ele>
        <time>2026-03-25T10:08:49Z</time>
      </trkpt>
      <trkpt lat="44.6898" lon="6.85877">
        <ele>2193.9</ele>
        <time>2026-03-25T10:08:50Z</time>
      </trkpt>
      <trkpt lat="44.68981" lon="6.85878">
        <ele>2193.9</ele>
        <time>2026-03-25T10:08:51Z</time>
      </trkpt>
      <trkpt lat="44.68981" lon="6.85878">
        <ele>2193.9</ele>
        <time>2026-03-25T10:08:52Z</time>
      </trkpt>
      <trkpt lat="44.68982" lon="6.85878">
        <ele>2193.9</ele>
        <time>2026-03-25T10:08:53Z</time>
      </trkpt>
      <trkpt lat="44.68982" lon="6.85879">
        <ele>2193.9</ele>
        <time>2026-03-25T10:08:54Z</time>
      </trkpt>
      <trkpt lat="44.68983" lon="6.85879">
        <ele>2193.9</ele>
        <time>2026-03-25T10:08:55Z</time>
      </trkpt>
      <trkpt lat="44.68983" lon="6.8588">
        <ele>2194.4</ele>
        <time>2026-03-25T10:08:56Z</time>
      </trkpt>
      <trkpt lat="44.68984" lon="6.8588">
        <ele>2194.4</ele>
        <time>2026-03-25T10:08:57Z</time>
      </trkpt>
      <trkpt lat="44.68984" lon="6.85881">
        <ele>2194.4</ele>
        <time>2026-03-25T10:08:58Z</time>
      </trkpt>
      <trkpt lat="44.68985" lon="6.85881">
        <ele>2194.4</ele>
        <time>2026-03-25T10:08:59Z</time>
      </trkpt>
      <trkpt lat="44.68986" lon="6.85881">
        <ele>2194.4</ele>
        <time>2026-03-25T10:09:00Z</time>
      </trkpt>
      <trkpt lat="44.68986" lon="6.85881">
        <ele>2194.4</ele>
        <time>2026-03-25T10:09:01Z</time>
      </trkpt>
      <trkpt lat="44.68986" lon="6.85882">
        <ele>2196.4</ele>
        <time>2026-03-25T10:09:02Z</time>
      </trkpt>
      <trkpt lat="44.68986" lon="6.85882">
        <ele>2196.4</ele>
        <time>2026-03-25T10:09:03Z</time>
      </trkpt>
      <trkpt lat="44.68986" lon="6.85882">
        <ele>2196.4</ele>
        <time>2026-03-25T10:09:04Z</time>
      </trkpt>
      <trkpt lat="44.68986" lon="6.85882">
        <ele>2196.4</ele>
        <time>2026-03-25T10:09:05Z</time>
      </trkpt>
      <trkpt lat="44.68987" lon="6.85882">
        <ele>2196.4</ele>
        <time>2026-03-25T10:09:06Z</time>
      </trkpt>
      <trkpt lat="44.68987" lon="6.85883">
        <ele>2196.4</ele>
        <time>2026-03-25T10:09:07Z</time>
      </trkpt>
      <trkpt lat="44.68987" lon="6.85883">
        <ele>2196.4</ele>
        <time>2026-03-25T10:09:08Z</time>
      </trkpt>
      <trkpt lat="44.68988" lon="6.85884">
        <ele>2196.4</ele>
        <time>2026-03-25T10:09:09Z</time>
      </trkpt>
      <trkpt lat="44.68988" lon="6.85886">
        <ele>2196.4</ele>
        <time>2026-03-25T10:09:10Z</time>
      </trkpt>
      <trkpt lat="44.68988" lon="6.85886">
        <ele>2196.4</ele>
        <time>2026-03-25T10:09:11Z</time>
      </trkpt>
      <trkpt lat="44.68989" lon="6.85886">
        <ele>2198</ele>
        <time>2026-03-25T10:09:12Z</time>
      </trkpt>
      <trkpt lat="44.68989" lon="6.85886">
        <ele>2198.6</ele>
        <time>2026-03-25T10:09:13Z</time>
      </trkpt>
      <trkpt lat="44.6899" lon="6.85887">
        <ele>2198.6</ele>
        <time>2026-03-25T10:09:14Z</time>
      </trkpt>
      <trkpt lat="44.6899" lon="6.85887">
        <ele>2198.6</ele>
        <time>2026-03-25T10:09:15Z</time>
      </trkpt>
      <trkpt lat="44.68991" lon="6.85888">
        <ele>2198.6</ele>
        <time>2026-03-25T10:09:16Z</time>
      </trkpt>
      <trkpt lat="44.68991" lon="6.85888">
        <ele>2198.6</ele>
        <time>2026-03-25T10:09:17Z</time>
      </trkpt>
      <trkpt lat="44.68993" lon="6.85889">
        <ele>2199.1</ele>
        <time>2026-03-25T10:09:18Z</time>
      </trkpt>
      <trkpt lat="44.68992" lon="6.85888">
        <ele>2198.6</ele>
        <time>2026-03-25T10:09:19Z</time>
      </trkpt>
      <trkpt lat="44.68993" lon="6.85888">
        <ele>2199.1</ele>
        <time>2026-03-25T10:09:20Z</time>
      </trkpt>
      <trkpt lat="44.68994" lon="6.85888">
        <ele>2199.1</ele>
        <time>2026-03-25T10:09:21Z</time>
      </trkpt>
      <trkpt lat="44.68994" lon="6.85888">
        <ele>2199.1</ele>
        <time>2026-03-25T10:09:22Z</time>
      </trkpt>
      <trkpt lat="44.68994" lon="6.85889">
        <ele>2199.1</ele>
        <time>2026-03-25T10:09:23Z</time>
      </trkpt>
      <trkpt lat="44.68995" lon="6.85889">
        <ele>2199.1</ele>
        <time>2026-03-25T10:09:24Z</time>
      </trkpt>
      <trkpt lat="44.68996" lon="6.8589">
        <ele>2199.7</ele>
        <time>2026-03-25T10:09:25Z</time>
      </trkpt>
      <trkpt lat="44.68995" lon="6.8589">
        <ele>2199.7</ele>
        <time>2026-03-25T10:09:26Z</time>
      </trkpt>
      <trkpt lat="44.68996" lon="6.8589">
        <ele>2201.4</ele>
        <time>2026-03-25T10:09:27Z</time>
      </trkpt>
      <trkpt lat="44.68997" lon="6.85891">
        <ele>2201.4</ele>
        <time>2026-03-25T10:09:28Z</time>
      </trkpt>
      <trkpt lat="44.68997" lon="6.85891">
        <ele>2201.4</ele>
        <time>2026-03-25T10:09:29Z</time>
      </trkpt>
      <trkpt lat="44.68997" lon="6.85891">
        <ele>2201.4</ele>
        <time>2026-03-25T10:09:30Z</time>
      </trkpt>
      <trkpt lat="44.68998" lon="6.85891">
        <ele>2202</ele>
        <time>2026-03-25T10:09:31Z</time>
      </trkpt>
      <trkpt lat="44.68999" lon="6.85891">
        <ele>2202</ele>
        <time>2026-03-25T10:09:32Z</time>
      </trkpt>
      <trkpt lat="44.69" lon="6.85892">
        <ele>2202</ele>
        <time>2026-03-25T10:09:33Z</time>
      </trkpt>
      <trkpt lat="44.69" lon="6.85892">
        <ele>2202</ele>
        <time>2026-03-25T10:09:34Z</time>
      </trkpt>
      <trkpt lat="44.69001" lon="6.85892">
        <ele>2202</ele>
        <time>2026-03-25T10:09:35Z</time>
      </trkpt>
      <trkpt lat="44.69001" lon="6.85893">
        <ele>2202</ele>
        <time>2026-03-25T10:09:36Z</time>
      </trkpt>
      <trkpt lat="44.69002" lon="6.85893">
        <ele>2202.7</ele>
        <time>2026-03-25T10:09:37Z</time>
      </trkpt>
      <trkpt lat="44.69002" lon="6.85893">
        <ele>2202.7</ele>
        <time>2026-03-25T10:09:38Z</time>
      </trkpt>
      <trkpt lat="44.69003" lon="6.85893">
        <ele>2202.7</ele>
        <time>2026-03-25T10:09:39Z</time>
      </trkpt>
      <trkpt lat="44.69003" lon="6.85894">
        <ele>2202.7</ele>
        <time>2026-03-25T10:09:40Z</time>
      </trkpt>
      <trkpt lat="44.69004" lon="6.85894">
        <ele>2202.7</ele>
        <time>2026-03-25T10:09:41Z</time>
      </trkpt>
      <trkpt lat="44.69004" lon="6.85894">
        <ele>2203.4</ele>
        <time>2026-03-25T10:09:42Z</time>
      </trkpt>
      <trkpt lat="44.69005" lon="6.85895">
        <ele>2205.1</ele>
        <time>2026-03-25T10:09:43Z</time>
      </trkpt>
      <trkpt lat="44.69006" lon="6.85895">
        <ele>2205.1</ele>
        <time>2026-03-25T10:09:44Z</time>
      </trkpt>
      <trkpt lat="44.69006" lon="6.85895">
        <ele>2205.1</ele>
        <time>2026-03-25T10:09:45Z</time>
      </trkpt>
      <trkpt lat="44.69007" lon="6.85896">
        <ele>2205.1</ele>
        <time>2026-03-25T10:09:46Z</time>
      </trkpt>
      <trkpt lat="44.69007" lon="6.85896">
        <ele>2205.1</ele>
        <time>2026-03-25T10:09:47Z</time>
      </trkpt>
      <trkpt lat="44.69008" lon="6.85896">
        <ele>2205.8</ele>
        <time>2026-03-25T10:09:48Z</time>
      </trkpt>
      <trkpt lat="44.69008" lon="6.85896">
        <ele>2205.8</ele>
        <time>2026-03-25T10:09:49Z</time>
      </trkpt>
      <trkpt lat="44.69009" lon="6.85896">
        <ele>2205.8</ele>
        <time>2026-03-25T10:09:50Z</time>
      </trkpt>
      <trkpt lat="44.69009" lon="6.85896">
        <ele>2205.8</ele>
        <time>2026-03-25T10:09:51Z</time>
      </trkpt>
      <trkpt lat="44.69009" lon="6.85896">
        <ele>2205.8</ele>
        <time>2026-03-25T10:09:52Z</time>
      </trkpt>
      <trkpt lat="44.69009" lon="6.85896">
        <ele>2205.8</ele>
        <time>2026-03-25T10:09:53Z</time>
      </trkpt>
      <trkpt lat="44.6901" lon="6.85896">
        <ele>2205.8</ele>
        <time>2026-03-25T10:09:54Z</time>
      </trkpt>
      <trkpt lat="44.6901" lon="6.85896">
        <ele>2205.8</ele>
        <time>2026-03-25T10:09:55Z</time>
      </trkpt>
      <trkpt lat="44.6901" lon="6.85896">
        <ele>2205.8</ele>
        <time>2026-03-25T10:09:56Z</time>
      </trkpt>
      <trkpt lat="44.69011" lon="6.85896">
        <ele>2206.3</ele>
        <time>2026-03-25T10:09:57Z</time>
      </trkpt>
      <trkpt lat="44.69011" lon="6.85896">
        <ele>2206.3</ele>
        <time>2026-03-25T10:09:58Z</time>
      </trkpt>
      <trkpt lat="44.69011" lon="6.85896">
        <ele>2206.3</ele>
        <time>2026-03-25T10:09:59Z</time>
      </trkpt>
      <trkpt lat="44.69011" lon="6.85896">
        <ele>2206.3</ele>
        <time>2026-03-25T10:10:00Z</time>
      </trkpt>
      <trkpt lat="44.69011" lon="6.85896">
        <ele>2206.3</ele>
        <time>2026-03-25T10:10:01Z</time>
      </trkpt>
      <trkpt lat="44.69012" lon="6.85897">
        <ele>2206.3</ele>
        <time>2026-03-25T10:10:02Z</time>
      </trkpt>
      <trkpt lat="44.69012" lon="6.85897">
        <ele>2206.3</ele>
        <time>2026-03-25T10:10:03Z</time>
      </trkpt>
      <trkpt lat="44.69013" lon="6.85897">
        <ele>2206.3</ele>
        <time>2026-03-25T10:10:04Z</time>
      </trkpt>
      <trkpt lat="44.69013" lon="6.85897">
        <ele>2206.3</ele>
        <time>2026-03-25T10:10:05Z</time>
      </trkpt>
      <trkpt lat="44.69014" lon="6.85898">
        <ele>2206.9</ele>
        <time>2026-03-25T10:10:06Z</time>
      </trkpt>
      <trkpt lat="44.69014" lon="6.85898">
        <ele>2206.9</ele>
        <time>2026-03-25T10:10:07Z</time>
      </trkpt>
      <trkpt lat="44.69015" lon="6.85899">
        <ele>2206.9</ele>
        <time>2026-03-25T10:10:08Z</time>
      </trkpt>
      <trkpt lat="44.69015" lon="6.85899">
        <ele>2208.6</ele>
        <time>2026-03-25T10:10:09Z</time>
      </trkpt>
      <trkpt lat="44.69016" lon="6.859">
        <ele>2208.6</ele>
        <time>2026-03-25T10:10:10Z</time>
      </trkpt>
      <trkpt lat="44.69016" lon="6.859">
        <ele>2208.6</ele>
        <time>2026-03-25T10:10:11Z</time>
      </trkpt>
      <trkpt lat="44.69016" lon="6.85901">
        <ele>2208.6</ele>
        <time>2026-03-25T10:10:12Z</time>
      </trkpt>
      <trkpt lat="44.69017" lon="6.85901">
        <ele>2209.1</ele>
        <time>2026-03-25T10:10:13Z</time>
      </trkpt>
      <trkpt lat="44.69017" lon="6.85902">
        <ele>2209.1</ele>
        <time>2026-03-25T10:10:14Z</time>
      </trkpt>
      <trkpt lat="44.69018" lon="6.85902">
        <ele>2209.1</ele>
        <time>2026-03-25T10:10:15Z</time>
      </trkpt>
      <trkpt lat="44.69019" lon="6.85902">
        <ele>2209.1</ele>
        <time>2026-03-25T10:10:16Z</time>
      </trkpt>
      <trkpt lat="44.69019" lon="6.85902">
        <ele>2209.1</ele>
        <time>2026-03-25T10:10:17Z</time>
      </trkpt>
      <trkpt lat="44.6902" lon="6.85903">
        <ele>2209.7</ele>
        <time>2026-03-25T10:10:18Z</time>
      </trkpt>
      <trkpt lat="44.69021" lon="6.85903">
        <ele>2209.7</ele>
        <time>2026-03-25T10:10:19Z</time>
      </trkpt>
      <trkpt lat="44.69021" lon="6.85903">
        <ele>2211.3</ele>
        <time>2026-03-25T10:10:20Z</time>
      </trkpt>
      <trkpt lat="44.69021" lon="6.85903">
        <ele>2209.7</ele>
        <time>2026-03-25T10:10:21Z</time>
      </trkpt>
      <trkpt lat="44.69021" lon="6.85903">
        <ele>2209.7</ele>
        <time>2026-03-25T10:10:22Z</time>
      </trkpt>
      <trkpt lat="44.69022" lon="6.85903">
        <ele>2209.7</ele>
        <time>2026-03-25T10:10:23Z</time>
      </trkpt>
      <trkpt lat="44.69022" lon="6.85903">
        <ele>2211.3</ele>
        <time>2026-03-25T10:10:24Z</time>
      </trkpt>
      <trkpt lat="44.69023" lon="6.85904">
        <ele>2212</ele>
        <time>2026-03-25T10:10:25Z</time>
      </trkpt>
      <trkpt lat="44.69024" lon="6.85904">
        <ele>2212</ele>
        <time>2026-03-25T10:10:26Z</time>
      </trkpt>
      <trkpt lat="44.69024" lon="6.85905">
        <ele>2212</ele>
        <time>2026-03-25T10:10:27Z</time>
      </trkpt>
      <trkpt lat="44.69025" lon="6.85905">
        <ele>2212</ele>
        <time>2026-03-25T10:10:28Z</time>
      </trkpt>
      <trkpt lat="44.69025" lon="6.85905">
        <ele>2212</ele>
        <time>2026-03-25T10:10:29Z</time>
      </trkpt>
      <trkpt lat="44.69025" lon="6.85906">
        <ele>2212</ele>
        <time>2026-03-25T10:10:30Z</time>
      </trkpt>
      <trkpt lat="44.69026" lon="6.85906">
        <ele>2212.6</ele>
        <time>2026-03-25T10:10:31Z</time>
      </trkpt>
      <trkpt lat="44.69026" lon="6.85906">
        <ele>2212.6</ele>
        <time>2026-03-25T10:10:32Z</time>
      </trkpt>
      <trkpt lat="44.69027" lon="6.85906">
        <ele>2212.6</ele>
        <time>2026-03-25T10:10:33Z</time>
      </trkpt>
      <trkpt lat="44.69027" lon="6.85907">
        <ele>2212.6</ele>
        <time>2026-03-25T10:10:34Z</time>
      </trkpt>
      <trkpt lat="44.69028" lon="6.85907">
        <ele>2212.6</ele>
        <time>2026-03-25T10:10:35Z</time>
      </trkpt>
      <trkpt lat="44.69028" lon="6.85907">
        <ele>2212.6</ele>
        <time>2026-03-25T10:10:36Z</time>
      </trkpt>
      <trkpt lat="44.69029" lon="6.85907">
        <ele>2213.2</ele>
        <time>2026-03-25T10:10:37Z</time>
      </trkpt>
      <trkpt lat="44.6903" lon="6.85907">
        <ele>2213.2</ele>
        <time>2026-03-25T10:10:38Z</time>
      </trkpt>
      <trkpt lat="44.69031" lon="6.85907">
        <ele>2213.2</ele>
        <time>2026-03-25T10:10:39Z</time>
      </trkpt>
      <trkpt lat="44.69031" lon="6.85907">
        <ele>2213.2</ele>
        <time>2026-03-25T10:10:40Z</time>
      </trkpt>
      <trkpt lat="44.69031" lon="6.85907">
        <ele>2213.2</ele>
        <time>2026-03-25T10:10:41Z</time>
      </trkpt>
      <trkpt lat="44.69031" lon="6.85907">
        <ele>2213.2</ele>
        <time>2026-03-25T10:10:42Z</time>
      </trkpt>
      <trkpt lat="44.69032" lon="6.85907">
        <ele>2213.2</ele>
        <time>2026-03-25T10:10:43Z</time>
      </trkpt>
      <trkpt lat="44.69032" lon="6.85907">
        <ele>2213.2</ele>
        <time>2026-03-25T10:10:44Z</time>
      </trkpt>
      <trkpt lat="44.69032" lon="6.85907">
        <ele>2213.8</ele>
        <time>2026-03-25T10:10:45Z</time>
      </trkpt>
      <trkpt lat="44.69033" lon="6.85907">
        <ele>2213.8</ele>
        <time>2026-03-25T10:10:46Z</time>
      </trkpt>
      <trkpt lat="44.69033" lon="6.85907">
        <ele>2213.8</ele>
        <time>2026-03-25T10:10:47Z</time>
      </trkpt>
      <trkpt lat="44.69034" lon="6.85907">
        <ele>2213.8</ele>
        <time>2026-03-25T10:10:48Z</time>
      </trkpt>
      <trkpt lat="44.69034" lon="6.85907">
        <ele>2215.3</ele>
        <time>2026-03-25T10:10:49Z</time>
      </trkpt>
      <trkpt lat="44.69033" lon="6.85908">
        <ele>2215.3</ele>
        <time>2026-03-25T10:10:50Z</time>
      </trkpt>
      <trkpt lat="44.69034" lon="6.85908">
        <ele>2215.3</ele>
        <time>2026-03-25T10:10:51Z</time>
      </trkpt>
      <trkpt lat="44.69034" lon="6.85908">
        <ele>2215.3</ele>
        <time>2026-03-25T10:10:52Z</time>
      </trkpt>
      <trkpt lat="44.69035" lon="6.85908">
        <ele>2215.3</ele>
        <time>2026-03-25T10:10:53Z</time>
      </trkpt>
      <trkpt lat="44.69035" lon="6.85908">
        <ele>2215.9</ele>
        <time>2026-03-25T10:10:54Z</time>
      </trkpt>
      <trkpt lat="44.69036" lon="6.85908">
        <ele>2215.9</ele>
        <time>2026-03-25T10:10:55Z</time>
      </trkpt>
      <trkpt lat="44.69036" lon="6.85908">
        <ele>2215.9</ele>
        <time>2026-03-25T10:10:56Z</time>
      </trkpt>
      <trkpt lat="44.69036" lon="6.85909">
        <ele>2215.9</ele>
        <time>2026-03-25T10:10:57Z</time>
      </trkpt>
      <trkpt lat="44.69037" lon="6.85909">
        <ele>2215.9</ele>
        <time>2026-03-25T10:10:58Z</time>
      </trkpt>
      <trkpt lat="44.69037" lon="6.8591">
        <ele>2215.9</ele>
        <time>2026-03-25T10:10:59Z</time>
      </trkpt>
      <trkpt lat="44.69037" lon="6.85911">
        <ele>2215.9</ele>
        <time>2026-03-25T10:11:00Z</time>
      </trkpt>
      <trkpt lat="44.69037" lon="6.85911">
        <ele>2215.9</ele>
        <time>2026-03-25T10:11:01Z</time>
      </trkpt>
      <trkpt lat="44.69037" lon="6.85912">
        <ele>2217.4</ele>
        <time>2026-03-25T10:11:02Z</time>
      </trkpt>
      <trkpt lat="44.69037" lon="6.85913">
        <ele>2217.4</ele>
        <time>2026-03-25T10:11:03Z</time>
      </trkpt>
      <trkpt lat="44.69038" lon="6.85914">
        <ele>2217.4</ele>
        <time>2026-03-25T10:11:04Z</time>
      </trkpt>
      <trkpt lat="44.69038" lon="6.85915">
        <ele>2217.4</ele>
        <time>2026-03-25T10:11:05Z</time>
      </trkpt>
      <trkpt lat="44.69038" lon="6.85915">
        <ele>2217.4</ele>
        <time>2026-03-25T10:11:06Z</time>
      </trkpt>
      <trkpt lat="44.69038" lon="6.85916">
        <ele>2217.4</ele>
        <time>2026-03-25T10:11:07Z</time>
      </trkpt>
      <trkpt lat="44.69038" lon="6.85916">
        <ele>2218.8</ele>
        <time>2026-03-25T10:11:08Z</time>
      </trkpt>
      <trkpt lat="44.69038" lon="6.85917">
        <ele>2218.8</ele>
        <time>2026-03-25T10:11:09Z</time>
      </trkpt>
      <trkpt lat="44.69038" lon="6.85918">
        <ele>2218.8</ele>
        <time>2026-03-25T10:11:10Z</time>
      </trkpt>
      <trkpt lat="44.69038" lon="6.85918">
        <ele>2218.8</ele>
        <time>2026-03-25T10:11:11Z</time>
      </trkpt>
      <trkpt lat="44.69038" lon="6.85919">
        <ele>2218.8</ele>
        <time>2026-03-25T10:11:12Z</time>
      </trkpt>
      <trkpt lat="44.69037" lon="6.85919">
        <ele>2218.8</ele>
        <time>2026-03-25T10:11:13Z</time>
      </trkpt>
      <trkpt lat="44.69037" lon="6.8592">
        <ele>2218.8</ele>
        <time>2026-03-25T10:11:14Z</time>
      </trkpt>
      <trkpt lat="44.69037" lon="6.85921">
        <ele>2220.3</ele>
        <time>2026-03-25T10:11:15Z</time>
      </trkpt>
      <trkpt lat="44.69037" lon="6.85922">
        <ele>2220.3</ele>
        <time>2026-03-25T10:11:16Z</time>
      </trkpt>
      <trkpt lat="44.69038" lon="6.85923">
        <ele>2220.3</ele>
        <time>2026-03-25T10:11:17Z</time>
      </trkpt>
      <trkpt lat="44.69038" lon="6.85923">
        <ele>2220.3</ele>
        <time>2026-03-25T10:11:18Z</time>
      </trkpt>
      <trkpt lat="44.69038" lon="6.85924">
        <ele>2220.8</ele>
        <time>2026-03-25T10:11:19Z</time>
      </trkpt>
      <trkpt lat="44.69039" lon="6.85925">
        <ele>2220.8</ele>
        <time>2026-03-25T10:11:20Z</time>
      </trkpt>
      <trkpt lat="44.69039" lon="6.85925">
        <ele>2222.3</ele>
        <time>2026-03-25T10:11:21Z</time>
      </trkpt>
      <trkpt lat="44.69039" lon="6.85926">
        <ele>2222.3</ele>
        <time>2026-03-25T10:11:22Z</time>
      </trkpt>
      <trkpt lat="44.69039" lon="6.85926">
        <ele>2222.3</ele>
        <time>2026-03-25T10:11:23Z</time>
      </trkpt>
      <trkpt lat="44.69039" lon="6.85926">
        <ele>2222.3</ele>
        <time>2026-03-25T10:11:24Z</time>
      </trkpt>
      <trkpt lat="44.69039" lon="6.85926">
        <ele>2222.3</ele>
        <time>2026-03-25T10:11:25Z</time>
      </trkpt>
      <trkpt lat="44.69039" lon="6.85926">
        <ele>2222.3</ele>
        <time>2026-03-25T10:11:26Z</time>
      </trkpt>
      <trkpt lat="44.69038" lon="6.85925">
        <ele>2222.3</ele>
        <time>2026-03-25T10:11:27Z</time>
      </trkpt>
      <trkpt lat="44.69038" lon="6.85925">
        <ele>2222.3</ele>
        <time>2026-03-25T10:11:28Z</time>
      </trkpt>
      <trkpt lat="44.69038" lon="6.85926">
        <ele>2221.8</ele>
        <time>2026-03-25T10:11:29Z</time>
      </trkpt>
      <trkpt lat="44.69037" lon="6.85927">
        <ele>2221.8</ele>
        <time>2026-03-25T10:11:30Z</time>
      </trkpt>
      <trkpt lat="44.69037" lon="6.85928">
        <ele>2221.8</ele>
        <time>2026-03-25T10:11:31Z</time>
      </trkpt>
      <trkpt lat="44.69037" lon="6.85929">
        <ele>2223.3</ele>
        <time>2026-03-25T10:11:32Z</time>
      </trkpt>
      <trkpt lat="44.69037" lon="6.85929">
        <ele>2223.3</ele>
        <time>2026-03-25T10:11:33Z</time>
      </trkpt>
      <trkpt lat="44.69036" lon="6.85929">
        <ele>2223.3</ele>
        <time>2026-03-25T10:11:34Z</time>
      </trkpt>
      <trkpt lat="44.69036" lon="6.85929">
        <ele>2223.3</ele>
        <time>2026-03-25T10:11:35Z</time>
      </trkpt>
      <trkpt lat="44.69036" lon="6.85929">
        <ele>2223.3</ele>
        <time>2026-03-25T10:11:36Z</time>
      </trkpt>
      <trkpt lat="44.69036" lon="6.85929">
        <ele>2223.3</ele>
        <time>2026-03-25T10:11:37Z</time>
      </trkpt>
      <trkpt lat="44.69036" lon="6.85929">
        <ele>2223.3</ele>
        <time>2026-03-25T10:11:38Z</time>
      </trkpt>
      <trkpt lat="44.69036" lon="6.85929">
        <ele>2223.3</ele>
        <time>2026-03-25T10:11:39Z</time>
      </trkpt>
      <trkpt lat="44.69036" lon="6.85929">
        <ele>2223.3</ele>
        <time>2026-03-25T10:11:40Z</time>
      </trkpt>
      <trkpt lat="44.69036" lon="6.85929">
        <ele>2223.3</ele>
        <time>2026-03-25T10:11:41Z</time>
      </trkpt>
      <trkpt lat="44.69036" lon="6.85929">
        <ele>2223.3</ele>
        <time>2026-03-25T10:11:42Z</time>
      </trkpt>
      <trkpt lat="44.69036" lon="6.85929">
        <ele>2223.3</ele>
        <time>2026-03-25T10:11:43Z</time>
      </trkpt>
      <trkpt lat="44.69036" lon="6.85929">
        <ele>2223.3</ele>
        <time>2026-03-25T10:11:44Z</time>
      </trkpt>
      <trkpt lat="44.69036" lon="6.85929">
        <ele>2223.3</ele>
        <time>2026-03-25T10:11:45Z</time>
      </trkpt>
      <trkpt lat="44.69036" lon="6.85929">
        <ele>2223.3</ele>
        <time>2026-03-25T10:11:46Z</time>
      </trkpt>
      <trkpt lat="44.69036" lon="6.8593">
        <ele>2223.3</ele>
        <time>2026-03-25T10:11:47Z</time>
      </trkpt>
      <trkpt lat="44.69036" lon="6.8593">
        <ele>2223.3</ele>
        <time>2026-03-25T10:11:48Z</time>
      </trkpt>
      <trkpt lat="44.69036" lon="6.8593">
        <ele>2223.3</ele>
        <time>2026-03-25T10:11:49Z</time>
      </trkpt>
      <trkpt lat="44.69036" lon="6.8593">
        <ele>2223.3</ele>
        <time>2026-03-25T10:11:50Z</time>
      </trkpt>
      <trkpt lat="44.69036" lon="6.8593">
        <ele>2223.3</ele>
        <time>2026-03-25T10:11:51Z</time>
      </trkpt>
      <trkpt lat="44.69036" lon="6.8593">
        <ele>2223.3</ele>
        <time>2026-03-25T10:11:52Z</time>
      </trkpt>
      <trkpt lat="44.69036" lon="6.85931">
        <ele>2223.3</ele>
        <time>2026-03-25T10:11:53Z</time>
      </trkpt>
      <trkpt lat="44.69036" lon="6.85932">
        <ele>2223.3</ele>
        <time>2026-03-25T10:11:54Z</time>
      </trkpt>
      <trkpt lat="44.69036" lon="6.85933">
        <ele>2223.3</ele>
        <time>2026-03-25T10:11:55Z</time>
      </trkpt>
      <trkpt lat="44.69036" lon="6.85934">
        <ele>2224.9</ele>
        <time>2026-03-25T10:11:56Z</time>
      </trkpt>
      <trkpt lat="44.69036" lon="6.85935">
        <ele>2224.9</ele>
        <time>2026-03-25T10:11:57Z</time>
      </trkpt>
      <trkpt lat="44.69035" lon="6.85936">
        <ele>2224.9</ele>
        <time>2026-03-25T10:11:58Z</time>
      </trkpt>
      <trkpt lat="44.69035" lon="6.85936">
        <ele>2224.9</ele>
        <time>2026-03-25T10:11:59Z</time>
      </trkpt>
      <trkpt lat="44.69035" lon="6.85937">
        <ele>2224.4</ele>
        <time>2026-03-25T10:12:00Z</time>
      </trkpt>
      <trkpt lat="44.69035" lon="6.85938">
        <ele>2226</ele>
        <time>2026-03-25T10:12:01Z</time>
      </trkpt>
      <trkpt lat="44.69035" lon="6.85939">
        <ele>2226</ele>
        <time>2026-03-25T10:12:02Z</time>
      </trkpt>
      <trkpt lat="44.69034" lon="6.85939">
        <ele>2226</ele>
        <time>2026-03-25T10:12:03Z</time>
      </trkpt>
      <trkpt lat="44.69034" lon="6.8594">
        <ele>2226</ele>
        <time>2026-03-25T10:12:04Z</time>
      </trkpt>
      <trkpt lat="44.69034" lon="6.8594">
        <ele>2226</ele>
        <time>2026-03-25T10:12:05Z</time>
      </trkpt>
      <trkpt lat="44.69033" lon="6.8594">
        <ele>2226</ele>
        <time>2026-03-25T10:12:06Z</time>
      </trkpt>
      <trkpt lat="44.69033" lon="6.8594">
        <ele>2226</ele>
        <time>2026-03-25T10:12:07Z</time>
      </trkpt>
      <trkpt lat="44.69032" lon="6.85941">
        <ele>2226</ele>
        <time>2026-03-25T10:12:08Z</time>
      </trkpt>
      <trkpt lat="44.69032" lon="6.85941">
        <ele>2226</ele>
        <time>2026-03-25T10:12:09Z</time>
      </trkpt>
      <trkpt lat="44.69031" lon="6.85942">
        <ele>2225.4</ele>
        <time>2026-03-25T10:12:10Z</time>
      </trkpt>
      <trkpt lat="44.69031" lon="6.85942">
        <ele>2227</ele>
        <time>2026-03-25T10:12:11Z</time>
      </trkpt>
      <trkpt lat="44.69031" lon="6.85942">
        <ele>2227</ele>
        <time>2026-03-25T10:12:12Z</time>
      </trkpt>
      <trkpt lat="44.6903" lon="6.85943">
        <ele>2227</ele>
        <time>2026-03-25T10:12:13Z</time>
      </trkpt>
      <trkpt lat="44.6903" lon="6.85943">
        <ele>2227</ele>
        <time>2026-03-25T10:12:14Z</time>
      </trkpt>
      <trkpt lat="44.69029" lon="6.85943">
        <ele>2227</ele>
        <time>2026-03-25T10:12:15Z</time>
      </trkpt>
      <trkpt lat="44.69029" lon="6.85944">
        <ele>2227</ele>
        <time>2026-03-25T10:12:16Z</time>
      </trkpt>
      <trkpt lat="44.69028" lon="6.85945">
        <ele>2226.4</ele>
        <time>2026-03-25T10:12:17Z</time>
      </trkpt>
      <trkpt lat="44.69028" lon="6.85945">
        <ele>2226.4</ele>
        <time>2026-03-25T10:12:18Z</time>
      </trkpt>
      <trkpt lat="44.69029" lon="6.85945">
        <ele>2226.4</ele>
        <time>2026-03-25T10:12:19Z</time>
      </trkpt>
      <trkpt lat="44.69028" lon="6.85946">
        <ele>2226.4</ele>
        <time>2026-03-25T10:12:20Z</time>
      </trkpt>
      <trkpt lat="44.69028" lon="6.85946">
        <ele>2226.4</ele>
        <time>2026-03-25T10:12:21Z</time>
      </trkpt>
      <trkpt lat="44.69027" lon="6.85946">
        <ele>2227.9</ele>
        <time>2026-03-25T10:12:22Z</time>
      </trkpt>
      <trkpt lat="44.69027" lon="6.85947">
        <ele>2227.9</ele>
        <time>2026-03-25T10:12:23Z</time>
      </trkpt>
      <trkpt lat="44.69027" lon="6.85947">
        <ele>2227.9</ele>
        <time>2026-03-25T10:12:24Z</time>
      </trkpt>
      <trkpt lat="44.69027" lon="6.85947">
        <ele>2227.9</ele>
        <time>2026-03-25T10:12:25Z</time>
      </trkpt>
      <trkpt lat="44.69026" lon="6.85948">
        <ele>2227.9</ele>
        <time>2026-03-25T10:12:26Z</time>
      </trkpt>
      <trkpt lat="44.69026" lon="6.85949">
        <ele>2227.9</ele>
        <time>2026-03-25T10:12:27Z</time>
      </trkpt>
      <trkpt lat="44.69027" lon="6.8595">
        <ele>2227.9</ele>
        <time>2026-03-25T10:12:28Z</time>
      </trkpt>
      <trkpt lat="44.69027" lon="6.8595">
        <ele>2227.9</ele>
        <time>2026-03-25T10:12:29Z</time>
      </trkpt>
      <trkpt lat="44.69027" lon="6.85951">
        <ele>2229.4</ele>
        <time>2026-03-25T10:12:30Z</time>
      </trkpt>
      <trkpt lat="44.69027" lon="6.85951">
        <ele>2229.4</ele>
        <time>2026-03-25T10:12:31Z</time>
      </trkpt>
      <trkpt lat="44.69027" lon="6.85951">
        <ele>2229.4</ele>
        <time>2026-03-25T10:12:32Z</time>
      </trkpt>
      <trkpt lat="44.69028" lon="6.85951">
        <ele>2229.4</ele>
        <time>2026-03-25T10:12:33Z</time>
      </trkpt>
      <trkpt lat="44.69028" lon="6.85951">
        <ele>2229.4</ele>
        <time>2026-03-25T10:12:34Z</time>
      </trkpt>
      <trkpt lat="44.69028" lon="6.85951">
        <ele>2229.4</ele>
        <time>2026-03-25T10:12:35Z</time>
      </trkpt>
      <trkpt lat="44.69029" lon="6.85952">
        <ele>2229.4</ele>
        <time>2026-03-25T10:12:36Z</time>
      </trkpt>
      <trkpt lat="44.69029" lon="6.85953">
        <ele>2230</ele>
        <time>2026-03-25T10:12:37Z</time>
      </trkpt>
      <trkpt lat="44.6903" lon="6.85953">
        <ele>2230</ele>
        <time>2026-03-25T10:12:38Z</time>
      </trkpt>
      <trkpt lat="44.69031" lon="6.85954">
        <ele>2230</ele>
        <time>2026-03-25T10:12:39Z</time>
      </trkpt>
      <trkpt lat="44.6903" lon="6.85953">
        <ele>2230</ele>
        <time>2026-03-25T10:12:40Z</time>
      </trkpt>
      <trkpt lat="44.6903" lon="6.85953">
        <ele>2230</ele>
        <time>2026-03-25T10:12:41Z</time>
      </trkpt>
      <trkpt lat="44.6903" lon="6.85953">
        <ele>2230</ele>
        <time>2026-03-25T10:12:42Z</time>
      </trkpt>
      <trkpt lat="44.6903" lon="6.85953">
        <ele>2230</ele>
        <time>2026-03-25T10:12:43Z</time>
      </trkpt>
      <trkpt lat="44.6903" lon="6.85953">
        <ele>2230</ele>
        <time>2026-03-25T10:12:44Z</time>
      </trkpt>
      <trkpt lat="44.6903" lon="6.85953">
        <ele>2230</ele>
        <time>2026-03-25T10:12:45Z</time>
      </trkpt>
      <trkpt lat="44.6903" lon="6.85953">
        <ele>2230</ele>
        <time>2026-03-25T10:12:46Z</time>
      </trkpt>
      <trkpt lat="44.6903" lon="6.85953">
        <ele>2230</ele>
        <time>2026-03-25T10:12:47Z</time>
      </trkpt>
      <trkpt lat="44.6903" lon="6.85953">
        <ele>2230</ele>
        <time>2026-03-25T10:12:48Z</time>
      </trkpt>
      <trkpt lat="44.6903" lon="6.85953">
        <ele>2230</ele>
        <time>2026-03-25T10:12:49Z</time>
      </trkpt>
      <trkpt lat="44.6903" lon="6.85953">
        <ele>2230</ele>
        <time>2026-03-25T10:12:50Z</time>
      </trkpt>
      <trkpt lat="44.6903" lon="6.85953">
        <ele>2230</ele>
        <time>2026-03-25T10:12:51Z</time>
      </trkpt>
      <trkpt lat="44.6903" lon="6.85953">
        <ele>2230</ele>
        <time>2026-03-25T10:12:52Z</time>
      </trkpt>
      <trkpt lat="44.6903" lon="6.85953">
        <ele>2230</ele>
        <time>2026-03-25T10:12:53Z</time>
      </trkpt>
      <trkpt lat="44.6903" lon="6.85953">
        <ele>2230</ele>
        <time>2026-03-25T10:12:54Z</time>
      </trkpt>
      <trkpt lat="44.6903" lon="6.85953">
        <ele>2230</ele>
        <time>2026-03-25T10:12:55Z</time>
      </trkpt>
      <trkpt lat="44.6903" lon="6.85953">
        <ele>2230</ele>
        <time>2026-03-25T10:12:56Z</time>
      </trkpt>
      <trkpt lat="44.6903" lon="6.85953">
        <ele>2230</ele>
        <time>2026-03-25T10:12:57Z</time>
      </trkpt>
      <trkpt lat="44.6903" lon="6.85953">
        <ele>2230</ele>
        <time>2026-03-25T10:12:58Z</time>
      </trkpt>
      <trkpt lat="44.6903" lon="6.85953">
        <ele>2230</ele>
        <time>2026-03-25T10:12:59Z</time>
      </trkpt>
      <trkpt lat="44.6903" lon="6.85953">
        <ele>2230</ele>
        <time>2026-03-25T10:13:00Z</time>
      </trkpt>
      <trkpt lat="44.6903" lon="6.85953">
        <ele>2230</ele>
        <time>2026-03-25T10:13:01Z</time>
      </trkpt>
      <trkpt lat="44.6903" lon="6.85952">
        <ele>2230</ele>
        <time>2026-03-25T10:13:02Z</time>
      </trkpt>
      <trkpt lat="44.6903" lon="6.85952">
        <ele>2230</ele>
        <time>2026-03-25T10:13:03Z</time>
      </trkpt>
      <trkpt lat="44.69031" lon="6.85952">
        <ele>2230</ele>
        <time>2026-03-25T10:13:04Z</time>
      </trkpt>
      <trkpt lat="44.69031" lon="6.85953">
        <ele>2230</ele>
        <time>2026-03-25T10:13:05Z</time>
      </trkpt>
      <trkpt lat="44.69031" lon="6.85953">
        <ele>2230</ele>
        <time>2026-03-25T10:13:06Z</time>
      </trkpt>
      <trkpt lat="44.69031" lon="6.85954">
        <ele>2230</ele>
        <time>2026-03-25T10:13:07Z</time>
      </trkpt>
      <trkpt lat="44.69031" lon="6.85954">
        <ele>2230</ele>
        <time>2026-03-25T10:13:08Z</time>
      </trkpt>
      <trkpt lat="44.69032" lon="6.85954">
        <ele>2230.6</ele>
        <time>2026-03-25T10:13:09Z</time>
      </trkpt>
      <trkpt lat="44.69033" lon="6.85954">
        <ele>2230.6</ele>
        <time>2026-03-25T10:13:10Z</time>
      </trkpt>
      <trkpt lat="44.69033" lon="6.85954">
        <ele>2230.6</ele>
        <time>2026-03-25T10:13:11Z</time>
      </trkpt>
      <trkpt lat="44.69033" lon="6.85953">
        <ele>2230.6</ele>
        <time>2026-03-25T10:13:12Z</time>
      </trkpt>
      <trkpt lat="44.69034" lon="6.85954">
        <ele>2230.6</ele>
        <time>2026-03-25T10:13:13Z</time>
      </trkpt>
      <trkpt lat="44.69034" lon="6.85954">
        <ele>2230.6</ele>
        <time>2026-03-25T10:13:14Z</time>
      </trkpt>
      <trkpt lat="44.69035" lon="6.85955">
        <ele>2232</ele>
        <time>2026-03-25T10:13:15Z</time>
      </trkpt>
      <trkpt lat="44.69035" lon="6.85956">
        <ele>2232</ele>
        <time>2026-03-25T10:13:16Z</time>
      </trkpt>
      <trkpt lat="44.69035" lon="6.85957">
        <ele>2232.6</ele>
        <time>2026-03-25T10:13:17Z</time>
      </trkpt>
      <trkpt lat="44.69036" lon="6.85958">
        <ele>2232.6</ele>
        <time>2026-03-25T10:13:18Z</time>
      </trkpt>
      <trkpt lat="44.69036" lon="6.85959">
        <ele>2232.6</ele>
        <time>2026-03-25T10:13:19Z</time>
      </trkpt>
      <trkpt lat="44.69037" lon="6.85962">
        <ele>2233.9</ele>
        <time>2026-03-25T10:13:20Z</time>
      </trkpt>
      <trkpt lat="44.69037" lon="6.85963">
        <ele>2235.3</ele>
        <time>2026-03-25T10:13:21Z</time>
      </trkpt>
      <trkpt lat="44.69036" lon="6.85962">
        <ele>2233.9</ele>
        <time>2026-03-25T10:13:22Z</time>
      </trkpt>
      <trkpt lat="44.69036" lon="6.85962">
        <ele>2233.9</ele>
        <time>2026-03-25T10:13:23Z</time>
      </trkpt>
      <trkpt lat="44.69036" lon="6.85962">
        <ele>2233.9</ele>
        <time>2026-03-25T10:13:24Z</time>
      </trkpt>
      <trkpt lat="44.69036" lon="6.85962">
        <ele>2233.9</ele>
        <time>2026-03-25T10:13:25Z</time>
      </trkpt>
      <trkpt lat="44.69035" lon="6.85963">
        <ele>2233.9</ele>
        <time>2026-03-25T10:13:26Z</time>
      </trkpt>
      <trkpt lat="44.69035" lon="6.85964">
        <ele>2234.8</ele>
        <time>2026-03-25T10:13:27Z</time>
      </trkpt>
      <trkpt lat="44.69034" lon="6.85965">
        <ele>2234.8</ele>
        <time>2026-03-25T10:13:28Z</time>
      </trkpt>
      <trkpt lat="44.69034" lon="6.85965">
        <ele>2234.8</ele>
        <time>2026-03-25T10:13:29Z</time>
      </trkpt>
      <trkpt lat="44.69034" lon="6.85966">
        <ele>2234.8</ele>
        <time>2026-03-25T10:13:30Z</time>
      </trkpt>
      <trkpt lat="44.69033" lon="6.85967">
        <ele>2234.8</ele>
        <time>2026-03-25T10:13:31Z</time>
      </trkpt>
      <trkpt lat="44.69033" lon="6.85968">
        <ele>2236.2</ele>
        <time>2026-03-25T10:13:32Z</time>
      </trkpt>
      <trkpt lat="44.69033" lon="6.85969">
        <ele>2236.2</ele>
        <time>2026-03-25T10:13:33Z</time>
      </trkpt>
      <trkpt lat="44.69033" lon="6.85969">
        <ele>2236.2</ele>
        <time>2026-03-25T10:13:34Z</time>
      </trkpt>
      <trkpt lat="44.69033" lon="6.85969">
        <ele>2236.2</ele>
        <time>2026-03-25T10:13:35Z</time>
      </trkpt>
      <trkpt lat="44.69033" lon="6.85969">
        <ele>2236.2</ele>
        <time>2026-03-25T10:13:36Z</time>
      </trkpt>
      <trkpt lat="44.69033" lon="6.85969">
        <ele>2236.2</ele>
        <time>2026-03-25T10:13:37Z</time>
      </trkpt>
      <trkpt lat="44.69034" lon="6.85969">
        <ele>2236.2</ele>
        <time>2026-03-25T10:13:38Z</time>
      </trkpt>
      <trkpt lat="44.69034" lon="6.85969">
        <ele>2236.2</ele>
        <time>2026-03-25T10:13:39Z</time>
      </trkpt>
      <trkpt lat="44.69034" lon="6.85968">
        <ele>2236.2</ele>
        <time>2026-03-25T10:13:40Z</time>
      </trkpt>
      <trkpt lat="44.69034" lon="6.85968">
        <ele>2236.2</ele>
        <time>2026-03-25T10:13:41Z</time>
      </trkpt>
      <trkpt lat="44.69035" lon="6.85968">
        <ele>2236.2</ele>
        <time>2026-03-25T10:13:42Z</time>
      </trkpt>
      <trkpt lat="44.69035" lon="6.85968">
        <ele>2236.7</ele>
        <time>2026-03-25T10:13:43Z</time>
      </trkpt>
      <trkpt lat="44.69036" lon="6.85967">
        <ele>2235.3</ele>
        <time>2026-03-25T10:13:44Z</time>
      </trkpt>
      <trkpt lat="44.69035" lon="6.85966">
        <ele>2235.3</ele>
        <time>2026-03-25T10:13:45Z</time>
      </trkpt>
      <trkpt lat="44.69036" lon="6.85965">
        <ele>2235.3</ele>
        <time>2026-03-25T10:13:46Z</time>
      </trkpt>
      <trkpt lat="44.69036" lon="6.85965">
        <ele>2235.3</ele>
        <time>2026-03-25T10:13:47Z</time>
      </trkpt>
      <trkpt lat="44.69037" lon="6.85964">
        <ele>2235.3</ele>
        <time>2026-03-25T10:13:48Z</time>
      </trkpt>
      <trkpt lat="44.69037" lon="6.85964">
        <ele>2235.3</ele>
        <time>2026-03-25T10:13:49Z</time>
      </trkpt>
      <trkpt lat="44.69037" lon="6.85964">
        <ele>2235.3</ele>
        <time>2026-03-25T10:13:50Z</time>
      </trkpt>
      <trkpt lat="44.69037" lon="6.85964">
        <ele>2235.3</ele>
        <time>2026-03-25T10:13:51Z</time>
      </trkpt>
      <trkpt lat="44.69038" lon="6.85964">
        <ele>2235.3</ele>
        <time>2026-03-25T10:13:52Z</time>
      </trkpt>
      <trkpt lat="44.69039" lon="6.85965">
        <ele>2235.8</ele>
        <time>2026-03-25T10:13:53Z</time>
      </trkpt>
      <trkpt lat="44.69039" lon="6.85965">
        <ele>2235.8</ele>
        <time>2026-03-25T10:13:54Z</time>
      </trkpt>
      <trkpt lat="44.6904" lon="6.85966">
        <ele>2235.8</ele>
        <time>2026-03-25T10:13:55Z</time>
      </trkpt>
      <trkpt lat="44.6904" lon="6.85966">
        <ele>2235.8</ele>
        <time>2026-03-25T10:13:56Z</time>
      </trkpt>
      <trkpt lat="44.69041" lon="6.85967">
        <ele>2235.8</ele>
        <time>2026-03-25T10:13:57Z</time>
      </trkpt>
      <trkpt lat="44.69041" lon="6.85967">
        <ele>2235.8</ele>
        <time>2026-03-25T10:13:58Z</time>
      </trkpt>
      <trkpt lat="44.69041" lon="6.85967">
        <ele>2236.3</ele>
        <time>2026-03-25T10:13:59Z</time>
      </trkpt>
      <trkpt lat="44.69042" lon="6.85967">
        <ele>2236.3</ele>
        <time>2026-03-25T10:14:00Z</time>
      </trkpt>
      <trkpt lat="44.69042" lon="6.85967">
        <ele>2236.3</ele>
        <time>2026-03-25T10:14:01Z</time>
      </trkpt>
      <trkpt lat="44.69043" lon="6.85967">
        <ele>2236.3</ele>
        <time>2026-03-25T10:14:02Z</time>
      </trkpt>
      <trkpt lat="44.69043" lon="6.85966">
        <ele>2236.3</ele>
        <time>2026-03-25T10:14:03Z</time>
      </trkpt>
      <trkpt lat="44.69044" lon="6.85966">
        <ele>2236.3</ele>
        <time>2026-03-25T10:14:04Z</time>
      </trkpt>
      <trkpt lat="44.69044" lon="6.85966">
        <ele>2236.3</ele>
        <time>2026-03-25T10:14:05Z</time>
      </trkpt>
      <trkpt lat="44.69045" lon="6.85966">
        <ele>2236.7</ele>
        <time>2026-03-25T10:14:06Z</time>
      </trkpt>
      <trkpt lat="44.69045" lon="6.85966">
        <ele>2236.7</ele>
        <time>2026-03-25T10:14:07Z</time>
      </trkpt>
      <trkpt lat="44.69045" lon="6.85966">
        <ele>2236.7</ele>
        <time>2026-03-25T10:14:08Z</time>
      </trkpt>
      <trkpt lat="44.69046" lon="6.85966">
        <ele>2236.7</ele>
        <time>2026-03-25T10:14:09Z</time>
      </trkpt>
      <trkpt lat="44.69046" lon="6.85966">
        <ele>2236.7</ele>
        <time>2026-03-25T10:14:10Z</time>
      </trkpt>
      <trkpt lat="44.69047" lon="6.85966">
        <ele>2236.7</ele>
        <time>2026-03-25T10:14:11Z</time>
      </trkpt>
      <trkpt lat="44.69047" lon="6.85966">
        <ele>2237.2</ele>
        <time>2026-03-25T10:14:12Z</time>
      </trkpt>
      <trkpt lat="44.69048" lon="6.85966">
        <ele>2237.2</ele>
        <time>2026-03-25T10:14:13Z</time>
      </trkpt>
      <trkpt lat="44.69048" lon="6.85965">
        <ele>2237.2</ele>
        <time>2026-03-25T10:14:14Z</time>
      </trkpt>
      <trkpt lat="44.69049" lon="6.85965">
        <ele>2237.2</ele>
        <time>2026-03-25T10:14:15Z</time>
      </trkpt>
      <trkpt lat="44.69049" lon="6.85965">
        <ele>2237.2</ele>
        <time>2026-03-25T10:14:16Z</time>
      </trkpt>
      <trkpt lat="44.69049" lon="6.85965">
        <ele>2237.2</ele>
        <time>2026-03-25T10:14:17Z</time>
      </trkpt>
      <trkpt lat="44.6905" lon="6.85965">
        <ele>2237.2</ele>
        <time>2026-03-25T10:14:18Z</time>
      </trkpt>
      <trkpt lat="44.6905" lon="6.85965">
        <ele>2237.7</ele>
        <time>2026-03-25T10:14:19Z</time>
      </trkpt>
      <trkpt lat="44.69051" lon="6.85965">
        <ele>2237.7</ele>
        <time>2026-03-25T10:14:20Z</time>
      </trkpt>
      <trkpt lat="44.69052" lon="6.85964">
        <ele>2237.7</ele>
        <time>2026-03-25T10:14:21Z</time>
      </trkpt>
      <trkpt lat="44.69052" lon="6.85964">
        <ele>2237.7</ele>
        <time>2026-03-25T10:14:22Z</time>
      </trkpt>
      <trkpt lat="44.69053" lon="6.85963">
        <ele>2236.4</ele>
        <time>2026-03-25T10:14:23Z</time>
      </trkpt>
      <trkpt lat="44.69053" lon="6.85962">
        <ele>2236.4</ele>
        <time>2026-03-25T10:14:24Z</time>
      </trkpt>
      <trkpt lat="44.69054" lon="6.85962">
        <ele>2236.9</ele>
        <time>2026-03-25T10:14:25Z</time>
      </trkpt>
      <trkpt lat="44.69054" lon="6.85961">
        <ele>2236.9</ele>
        <time>2026-03-25T10:14:26Z</time>
      </trkpt>
      <trkpt lat="44.69055" lon="6.85962">
        <ele>2236.9</ele>
        <time>2026-03-25T10:14:27Z</time>
      </trkpt>
      <trkpt lat="44.69056" lon="6.85962">
        <ele>2236.9</ele>
        <time>2026-03-25T10:14:28Z</time>
      </trkpt>
      <trkpt lat="44.69056" lon="6.85962">
        <ele>2236.9</ele>
        <time>2026-03-25T10:14:29Z</time>
      </trkpt>
      <trkpt lat="44.69056" lon="6.85962">
        <ele>2237.4</ele>
        <time>2026-03-25T10:14:30Z</time>
      </trkpt>
      <trkpt lat="44.69057" lon="6.85963">
        <ele>2237.4</ele>
        <time>2026-03-25T10:14:31Z</time>
      </trkpt>
      <trkpt lat="44.69057" lon="6.85963">
        <ele>2238.7</ele>
        <time>2026-03-25T10:14:32Z</time>
      </trkpt>
      <trkpt lat="44.69057" lon="6.85964">
        <ele>2238.7</ele>
        <time>2026-03-25T10:14:33Z</time>
      </trkpt>
      <trkpt lat="44.69057" lon="6.85965">
        <ele>2238.7</ele>
        <time>2026-03-25T10:14:34Z</time>
      </trkpt>
      <trkpt lat="44.69057" lon="6.85966">
        <ele>2238.7</ele>
        <time>2026-03-25T10:14:35Z</time>
      </trkpt>
      <trkpt lat="44.69056" lon="6.85968">
        <ele>2239.5</ele>
        <time>2026-03-25T10:14:36Z</time>
      </trkpt>
      <trkpt lat="44.69056" lon="6.85969">
        <ele>2239.5</ele>
        <time>2026-03-25T10:14:37Z</time>
      </trkpt>
      <trkpt lat="44.69055" lon="6.85971">
        <ele>2239.5</ele>
        <time>2026-03-25T10:14:38Z</time>
      </trkpt>
      <trkpt lat="44.69055" lon="6.85972">
        <ele>2240.9</ele>
        <time>2026-03-25T10:14:39Z</time>
      </trkpt>
      <trkpt lat="44.69055" lon="6.85973">
        <ele>2240.9</ele>
        <time>2026-03-25T10:14:40Z</time>
      </trkpt>
      <trkpt lat="44.69055" lon="6.85974">
        <ele>2240.9</ele>
        <time>2026-03-25T10:14:41Z</time>
      </trkpt>
      <trkpt lat="44.69055" lon="6.85975">
        <ele>2240.9</ele>
        <time>2026-03-25T10:14:42Z</time>
      </trkpt>
      <trkpt lat="44.69055" lon="6.85975">
        <ele>2240.9</ele>
        <time>2026-03-25T10:14:43Z</time>
      </trkpt>
      <trkpt lat="44.69055" lon="6.85977">
        <ele>2242.3</ele>
        <time>2026-03-25T10:14:44Z</time>
      </trkpt>
      <trkpt lat="44.69055" lon="6.85978">
        <ele>2242.3</ele>
        <time>2026-03-25T10:14:45Z</time>
      </trkpt>
      <trkpt lat="44.69054" lon="6.85978">
        <ele>2242.3</ele>
        <time>2026-03-25T10:14:46Z</time>
      </trkpt>
      <trkpt lat="44.69054" lon="6.85979">
        <ele>2242.3</ele>
        <time>2026-03-25T10:14:47Z</time>
      </trkpt>
      <trkpt lat="44.69054" lon="6.8598">
        <ele>2242.3</ele>
        <time>2026-03-25T10:14:48Z</time>
      </trkpt>
      <trkpt lat="44.69054" lon="6.85981">
        <ele>2243.7</ele>
        <time>2026-03-25T10:14:49Z</time>
      </trkpt>
      <trkpt lat="44.69053" lon="6.85982">
        <ele>2243.7</ele>
        <time>2026-03-25T10:14:50Z</time>
      </trkpt>
      <trkpt lat="44.69053" lon="6.85983">
        <ele>2243.7</ele>
        <time>2026-03-25T10:14:51Z</time>
      </trkpt>
      <trkpt lat="44.69053" lon="6.85984">
        <ele>2243.7</ele>
        <time>2026-03-25T10:14:52Z</time>
      </trkpt>
      <trkpt lat="44.69053" lon="6.85985">
        <ele>2243.3</ele>
        <time>2026-03-25T10:14:53Z</time>
      </trkpt>
      <trkpt lat="44.69053" lon="6.85985">
        <ele>2244.6</ele>
        <time>2026-03-25T10:14:54Z</time>
      </trkpt>
      <trkpt lat="44.69053" lon="6.85986">
        <ele>2244.6</ele>
        <time>2026-03-25T10:14:55Z</time>
      </trkpt>
      <trkpt lat="44.69053" lon="6.85986">
        <ele>2244.6</ele>
        <time>2026-03-25T10:14:56Z</time>
      </trkpt>
      <trkpt lat="44.69052" lon="6.85987">
        <ele>2244.6</ele>
        <time>2026-03-25T10:14:57Z</time>
      </trkpt>
      <trkpt lat="44.69052" lon="6.85987">
        <ele>2244.6</ele>
        <time>2026-03-25T10:14:58Z</time>
      </trkpt>
      <trkpt lat="44.69051" lon="6.85987">
        <ele>2244.6</ele>
        <time>2026-03-25T10:14:59Z</time>
      </trkpt>
      <trkpt lat="44.69051" lon="6.85987">
        <ele>2244.6</ele>
        <time>2026-03-25T10:15:00Z</time>
      </trkpt>
      <trkpt lat="44.69051" lon="6.85988">
        <ele>2244.6</ele>
        <time>2026-03-25T10:15:01Z</time>
      </trkpt>
      <trkpt lat="44.6905" lon="6.85988">
        <ele>2244.2</ele>
        <time>2026-03-25T10:15:02Z</time>
      </trkpt>
      <trkpt lat="44.6905" lon="6.85988">
        <ele>2244.2</ele>
        <time>2026-03-25T10:15:03Z</time>
      </trkpt>
      <trkpt lat="44.69049" lon="6.85989">
        <ele>2244.2</ele>
        <time>2026-03-25T10:15:04Z</time>
      </trkpt>
      <trkpt lat="44.69049" lon="6.85989">
        <ele>2244.2</ele>
        <time>2026-03-25T10:15:05Z</time>
      </trkpt>
      <trkpt lat="44.69048" lon="6.85989">
        <ele>2245.4</ele>
        <time>2026-03-25T10:15:06Z</time>
      </trkpt>
      <trkpt lat="44.69048" lon="6.8599">
        <ele>2245.4</ele>
        <time>2026-03-25T10:15:07Z</time>
      </trkpt>
      <trkpt lat="44.69047" lon="6.8599">
        <ele>2245.4</ele>
        <time>2026-03-25T10:15:08Z</time>
      </trkpt>
      <trkpt lat="44.69047" lon="6.85991">
        <ele>2245.1</ele>
        <time>2026-03-25T10:15:09Z</time>
      </trkpt>
      <trkpt lat="44.69047" lon="6.85992">
        <ele>2245.1</ele>
        <time>2026-03-25T10:15:10Z</time>
      </trkpt>
      <trkpt lat="44.69047" lon="6.85992">
        <ele>2245.1</ele>
        <time>2026-03-25T10:15:11Z</time>
      </trkpt>
      <trkpt lat="44.69046" lon="6.85993">
        <ele>2245.1</ele>
        <time>2026-03-25T10:15:12Z</time>
      </trkpt>
      <trkpt lat="44.69046" lon="6.85993">
        <ele>2245.1</ele>
        <time>2026-03-25T10:15:13Z</time>
      </trkpt>
      <trkpt lat="44.69045" lon="6.85993">
        <ele>2246.3</ele>
        <time>2026-03-25T10:15:14Z</time>
      </trkpt>
      <trkpt lat="44.69045" lon="6.85994">
        <ele>2246.3</ele>
        <time>2026-03-25T10:15:15Z</time>
      </trkpt>
      <trkpt lat="44.69044" lon="6.85994">
        <ele>2246.3</ele>
        <time>2026-03-25T10:15:16Z</time>
      </trkpt>
      <trkpt lat="44.69044" lon="6.85994">
        <ele>2246.3</ele>
        <time>2026-03-25T10:15:17Z</time>
      </trkpt>
      <trkpt lat="44.69044" lon="6.85995">
        <ele>2246</ele>
        <time>2026-03-25T10:15:18Z</time>
      </trkpt>
      <trkpt lat="44.69044" lon="6.85996">
        <ele>2246</ele>
        <time>2026-03-25T10:15:19Z</time>
      </trkpt>
      <trkpt lat="44.69044" lon="6.85997">
        <ele>2246</ele>
        <time>2026-03-25T10:15:20Z</time>
      </trkpt>
      <trkpt lat="44.69044" lon="6.85997">
        <ele>2246</ele>
        <time>2026-03-25T10:15:21Z</time>
      </trkpt>
      <trkpt lat="44.69044" lon="6.85998">
        <ele>2247.2</ele>
        <time>2026-03-25T10:15:22Z</time>
      </trkpt>
      <trkpt lat="44.69044" lon="6.85998">
        <ele>2247.2</ele>
        <time>2026-03-25T10:15:23Z</time>
      </trkpt>
      <trkpt lat="44.69044" lon="6.85999">
        <ele>2247.2</ele>
        <time>2026-03-25T10:15:24Z</time>
      </trkpt>
      <trkpt lat="44.69044" lon="6.86">
        <ele>2247.2</ele>
        <time>2026-03-25T10:15:25Z</time>
      </trkpt>
      <trkpt lat="44.69044" lon="6.86">
        <ele>2247.2</ele>
        <time>2026-03-25T10:15:26Z</time>
      </trkpt>
      <trkpt lat="44.69044" lon="6.86001">
        <ele>2247.2</ele>
        <time>2026-03-25T10:15:27Z</time>
      </trkpt>
      <trkpt lat="44.69044" lon="6.86002">
        <ele>2247.2</ele>
        <time>2026-03-25T10:15:28Z</time>
      </trkpt>
      <trkpt lat="44.69043" lon="6.86002">
        <ele>2248.3</ele>
        <time>2026-03-25T10:15:29Z</time>
      </trkpt>
      <trkpt lat="44.69043" lon="6.86002">
        <ele>2248.3</ele>
        <time>2026-03-25T10:15:30Z</time>
      </trkpt>
      <trkpt lat="44.69043" lon="6.86003">
        <ele>2248.3</ele>
        <time>2026-03-25T10:15:31Z</time>
      </trkpt>
      <trkpt lat="44.69043" lon="6.86004">
        <ele>2248.3</ele>
        <time>2026-03-25T10:15:32Z</time>
      </trkpt>
      <trkpt lat="44.69043" lon="6.86004">
        <ele>2248.3</ele>
        <time>2026-03-25T10:15:33Z</time>
      </trkpt>
      <trkpt lat="44.69043" lon="6.86005">
        <ele>2248.3</ele>
        <time>2026-03-25T10:15:34Z</time>
      </trkpt>
      <trkpt lat="44.69043" lon="6.86006">
        <ele>2248.3</ele>
        <time>2026-03-25T10:15:35Z</time>
      </trkpt>
      <trkpt lat="44.69043" lon="6.86006">
        <ele>2249.5</ele>
        <time>2026-03-25T10:15:36Z</time>
      </trkpt>
      <trkpt lat="44.69043" lon="6.86007">
        <ele>2249.5</ele>
        <time>2026-03-25T10:15:37Z</time>
      </trkpt>
      <trkpt lat="44.69043" lon="6.86008">
        <ele>2249.5</ele>
        <time>2026-03-25T10:15:38Z</time>
      </trkpt>
      <trkpt lat="44.69043" lon="6.86008">
        <ele>2249.5</ele>
        <time>2026-03-25T10:15:39Z</time>
      </trkpt>
      <trkpt lat="44.69043" lon="6.86009">
        <ele>2249.5</ele>
        <time>2026-03-25T10:15:40Z</time>
      </trkpt>
      <trkpt lat="44.69042" lon="6.86009">
        <ele>2249.5</ele>
        <time>2026-03-25T10:15:41Z</time>
      </trkpt>
      <trkpt lat="44.69042" lon="6.8601">
        <ele>2249.5</ele>
        <time>2026-03-25T10:15:42Z</time>
      </trkpt>
      <trkpt lat="44.69041" lon="6.8601">
        <ele>2249.5</ele>
        <time>2026-03-25T10:15:43Z</time>
      </trkpt>
      <trkpt lat="44.69041" lon="6.86011">
        <ele>2250.4</ele>
        <time>2026-03-25T10:15:44Z</time>
      </trkpt>
      <trkpt lat="44.69041" lon="6.8601">
        <ele>2249.2</ele>
        <time>2026-03-25T10:15:45Z</time>
      </trkpt>
      <trkpt lat="44.69041" lon="6.8601">
        <ele>2249.2</ele>
        <time>2026-03-25T10:15:46Z</time>
      </trkpt>
      <trkpt lat="44.69041" lon="6.8601">
        <ele>2249.2</ele>
        <time>2026-03-25T10:15:47Z</time>
      </trkpt>
      <trkpt lat="44.6904" lon="6.86011">
        <ele>2250.4</ele>
        <time>2026-03-25T10:15:48Z</time>
      </trkpt>
      <trkpt lat="44.6904" lon="6.86011">
        <ele>2250.4</ele>
        <time>2026-03-25T10:15:49Z</time>
      </trkpt>
      <trkpt lat="44.69039" lon="6.86012">
        <ele>2250.4</ele>
        <time>2026-03-25T10:15:50Z</time>
      </trkpt>
      <trkpt lat="44.69039" lon="6.86012">
        <ele>2250.4</ele>
        <time>2026-03-25T10:15:51Z</time>
      </trkpt>
      <trkpt lat="44.69039" lon="6.86012">
        <ele>2250.4</ele>
        <time>2026-03-25T10:15:52Z</time>
      </trkpt>
      <trkpt lat="44.69038" lon="6.86013">
        <ele>2250.4</ele>
        <time>2026-03-25T10:15:53Z</time>
      </trkpt>
      <trkpt lat="44.69038" lon="6.86014">
        <ele>2250.1</ele>
        <time>2026-03-25T10:15:54Z</time>
      </trkpt>
      <trkpt lat="44.69037" lon="6.86014">
        <ele>2250.1</ele>
        <time>2026-03-25T10:15:55Z</time>
      </trkpt>
      <trkpt lat="44.69037" lon="6.86014">
        <ele>2250.1</ele>
        <time>2026-03-25T10:15:56Z</time>
      </trkpt>
      <trkpt lat="44.69037" lon="6.86014">
        <ele>2250.1</ele>
        <time>2026-03-25T10:15:57Z</time>
      </trkpt>
      <trkpt lat="44.69036" lon="6.86014">
        <ele>2250.1</ele>
        <time>2026-03-25T10:15:58Z</time>
      </trkpt>
      <trkpt lat="44.69036" lon="6.86014">
        <ele>2250.1</ele>
        <time>2026-03-25T10:15:59Z</time>
      </trkpt>
      <trkpt lat="44.69036" lon="6.86014">
        <ele>2250.1</ele>
        <time>2026-03-25T10:16:00Z</time>
      </trkpt>
      <trkpt lat="44.69035" lon="6.86014">
        <ele>2250.1</ele>
        <time>2026-03-25T10:16:01Z</time>
      </trkpt>
      <trkpt lat="44.69035" lon="6.86015">
        <ele>2251.1</ele>
        <time>2026-03-25T10:16:02Z</time>
      </trkpt>
      <trkpt lat="44.69034" lon="6.86016">
        <ele>2251.1</ele>
        <time>2026-03-25T10:16:03Z</time>
      </trkpt>
      <trkpt lat="44.69034" lon="6.86017">
        <ele>2251.1</ele>
        <time>2026-03-25T10:16:04Z</time>
      </trkpt>
      <trkpt lat="44.69033" lon="6.86018">
        <ele>2251.1</ele>
        <time>2026-03-25T10:16:05Z</time>
      </trkpt>
      <trkpt lat="44.69032" lon="6.86019">
        <ele>2252.4</ele>
        <time>2026-03-25T10:16:06Z</time>
      </trkpt>
      <trkpt lat="44.69032" lon="6.86019">
        <ele>2252.4</ele>
        <time>2026-03-25T10:16:07Z</time>
      </trkpt>
      <trkpt lat="44.69032" lon="6.8602">
        <ele>2252.4</ele>
        <time>2026-03-25T10:16:08Z</time>
      </trkpt>
      <trkpt lat="44.69032" lon="6.8602">
        <ele>2252.4</ele>
        <time>2026-03-25T10:16:09Z</time>
      </trkpt>
      <trkpt lat="44.69031" lon="6.86021">
        <ele>2252.2</ele>
        <time>2026-03-25T10:16:10Z</time>
      </trkpt>
      <trkpt lat="44.69031" lon="6.86021">
        <ele>2252.2</ele>
        <time>2026-03-25T10:16:11Z</time>
      </trkpt>
      <trkpt lat="44.69031" lon="6.86021">
        <ele>2252.2</ele>
        <time>2026-03-25T10:16:12Z</time>
      </trkpt>
      <trkpt lat="44.69031" lon="6.86022">
        <ele>2252.2</ele>
        <time>2026-03-25T10:16:13Z</time>
      </trkpt>
      <trkpt lat="44.6903" lon="6.86023">
        <ele>2252.2</ele>
        <time>2026-03-25T10:16:14Z</time>
      </trkpt>
      <trkpt lat="44.6903" lon="6.86023">
        <ele>2252.2</ele>
        <time>2026-03-25T10:16:15Z</time>
      </trkpt>
      <trkpt lat="44.69029" lon="6.86023">
        <ele>2252.2</ele>
        <time>2026-03-25T10:16:16Z</time>
      </trkpt>
      <trkpt lat="44.69029" lon="6.86024">
        <ele>2253.3</ele>
        <time>2026-03-25T10:16:17Z</time>
      </trkpt>
      <trkpt lat="44.69028" lon="6.86026">
        <ele>2253.3</ele>
        <time>2026-03-25T10:16:18Z</time>
      </trkpt>
      <trkpt lat="44.69028" lon="6.86027">
        <ele>2253.3</ele>
        <time>2026-03-25T10:16:19Z</time>
      </trkpt>
      <trkpt lat="44.69028" lon="6.86028">
        <ele>2254.7</ele>
        <time>2026-03-25T10:16:20Z</time>
      </trkpt>
      <trkpt lat="44.69027" lon="6.86028">
        <ele>2254.7</ele>
        <time>2026-03-25T10:16:21Z</time>
      </trkpt>
      <trkpt lat="44.69027" lon="6.86029">
        <ele>2254.7</ele>
        <time>2026-03-25T10:16:22Z</time>
      </trkpt>
      <trkpt lat="44.69026" lon="6.86029">
        <ele>2254.7</ele>
        <time>2026-03-25T10:16:23Z</time>
      </trkpt>
      <trkpt lat="44.69025" lon="6.8603">
        <ele>2254.4</ele>
        <time>2026-03-25T10:16:24Z</time>
      </trkpt>
      <trkpt lat="44.69024" lon="6.86031">
        <ele>2254.4</ele>
        <time>2026-03-25T10:16:25Z</time>
      </trkpt>
      <trkpt lat="44.69023" lon="6.86032">
        <ele>2254.4</ele>
        <time>2026-03-25T10:16:26Z</time>
      </trkpt>
      <trkpt lat="44.69022" lon="6.86032">
        <ele>2255.4</ele>
        <time>2026-03-25T10:16:27Z</time>
      </trkpt>
      <trkpt lat="44.69022" lon="6.86033">
        <ele>2255.4</ele>
        <time>2026-03-25T10:16:28Z</time>
      </trkpt>
      <trkpt lat="44.69022" lon="6.86033">
        <ele>2255.4</ele>
        <time>2026-03-25T10:16:29Z</time>
      </trkpt>
      <trkpt lat="44.69022" lon="6.86032">
        <ele>2255.4</ele>
        <time>2026-03-25T10:16:30Z</time>
      </trkpt>
      <trkpt lat="44.69021" lon="6.86033">
        <ele>2255.4</ele>
        <time>2026-03-25T10:16:31Z</time>
      </trkpt>
      <trkpt lat="44.69021" lon="6.86033">
        <ele>2255.4</ele>
        <time>2026-03-25T10:16:32Z</time>
      </trkpt>
      <trkpt lat="44.69021" lon="6.86033">
        <ele>2255.4</ele>
        <time>2026-03-25T10:16:33Z</time>
      </trkpt>
      <trkpt lat="44.6902" lon="6.86033">
        <ele>2255.4</ele>
        <time>2026-03-25T10:16:34Z</time>
      </trkpt>
      <trkpt lat="44.6902" lon="6.86033">
        <ele>2255.4</ele>
        <time>2026-03-25T10:16:35Z</time>
      </trkpt>
      <trkpt lat="44.6902" lon="6.86033">
        <ele>2255.4</ele>
        <time>2026-03-25T10:16:36Z</time>
      </trkpt>
      <trkpt lat="44.6902" lon="6.86033">
        <ele>2255.1</ele>
        <time>2026-03-25T10:16:37Z</time>
      </trkpt>
      <trkpt lat="44.6902" lon="6.86032">
        <ele>2255.1</ele>
        <time>2026-03-25T10:16:38Z</time>
      </trkpt>
      <trkpt lat="44.69019" lon="6.86032">
        <ele>2255.1</ele>
        <time>2026-03-25T10:16:39Z</time>
      </trkpt>
      <trkpt lat="44.69019" lon="6.86032">
        <ele>2255.1</ele>
        <time>2026-03-25T10:16:40Z</time>
      </trkpt>
      <trkpt lat="44.69019" lon="6.86032">
        <ele>2253.8</ele>
        <time>2026-03-25T10:16:41Z</time>
      </trkpt>
      <trkpt lat="44.69019" lon="6.86031">
        <ele>2253.8</ele>
        <time>2026-03-25T10:16:42Z</time>
      </trkpt>
      <trkpt lat="44.69019" lon="6.86032">
        <ele>2253.8</ele>
        <time>2026-03-25T10:16:43Z</time>
      </trkpt>
      <trkpt lat="44.69019" lon="6.86032">
        <ele>2253.8</ele>
        <time>2026-03-25T10:16:44Z</time>
      </trkpt>
      <trkpt lat="44.69019" lon="6.86032">
        <ele>2253.8</ele>
        <time>2026-03-25T10:16:45Z</time>
      </trkpt>
      <trkpt lat="44.69019" lon="6.86032">
        <ele>2253.8</ele>
        <time>2026-03-25T10:16:46Z</time>
      </trkpt>
      <trkpt lat="44.69018" lon="6.86032">
        <ele>2253.8</ele>
        <time>2026-03-25T10:16:47Z</time>
      </trkpt>
      <trkpt lat="44.69018" lon="6.86032">
        <ele>2253.8</ele>
        <time>2026-03-25T10:16:48Z</time>
      </trkpt>
      <trkpt lat="44.69018" lon="6.86032">
        <ele>2253.8</ele>
        <time>2026-03-25T10:16:49Z</time>
      </trkpt>
      <trkpt lat="44.69017" lon="6.86031">
        <ele>2253.8</ele>
        <time>2026-03-25T10:16:50Z</time>
      </trkpt>
      <trkpt lat="44.69017" lon="6.86032">
        <ele>2253.8</ele>
        <time>2026-03-25T10:16:51Z</time>
      </trkpt>
      <trkpt lat="44.69017" lon="6.86031">
        <ele>2253.8</ele>
        <time>2026-03-25T10:16:52Z</time>
      </trkpt>
      <trkpt lat="44.69016" lon="6.86031">
        <ele>2253.4</ele>
        <time>2026-03-25T10:16:53Z</time>
      </trkpt>
      <trkpt lat="44.69016" lon="6.86031">
        <ele>2253.4</ele>
        <time>2026-03-25T10:16:54Z</time>
      </trkpt>
      <trkpt lat="44.69016" lon="6.86031">
        <ele>2253.4</ele>
        <time>2026-03-25T10:16:55Z</time>
      </trkpt>
      <trkpt lat="44.69015" lon="6.86032">
        <ele>2253.4</ele>
        <time>2026-03-25T10:16:56Z</time>
      </trkpt>
      <trkpt lat="44.69014" lon="6.86032">
        <ele>2254.8</ele>
        <time>2026-03-25T10:16:57Z</time>
      </trkpt>
      <trkpt lat="44.69014" lon="6.86032">
        <ele>2254.8</ele>
        <time>2026-03-25T10:16:58Z</time>
      </trkpt>
      <trkpt lat="44.69014" lon="6.86032">
        <ele>2254.8</ele>
        <time>2026-03-25T10:16:59Z</time>
      </trkpt>
      <trkpt lat="44.69013" lon="6.86032">
        <ele>2254.4</ele>
        <time>2026-03-25T10:17:00Z</time>
      </trkpt>
      <trkpt lat="44.69013" lon="6.86032">
        <ele>2254.4</ele>
        <time>2026-03-25T10:17:01Z</time>
      </trkpt>
      <trkpt lat="44.69012" lon="6.86032">
        <ele>2254.4</ele>
        <time>2026-03-25T10:17:02Z</time>
      </trkpt>
      <trkpt lat="44.69012" lon="6.86033">
        <ele>2254.4</ele>
        <time>2026-03-25T10:17:03Z</time>
      </trkpt>
      <trkpt lat="44.69011" lon="6.86033">
        <ele>2254.4</ele>
        <time>2026-03-25T10:17:04Z</time>
      </trkpt>
      <trkpt lat="44.69011" lon="6.86033">
        <ele>2254.4</ele>
        <time>2026-03-25T10:17:05Z</time>
      </trkpt>
      <trkpt lat="44.6901" lon="6.86033">
        <ele>2254.1</ele>
        <time>2026-03-25T10:17:06Z</time>
      </trkpt>
      <trkpt lat="44.6901" lon="6.86033">
        <ele>2254.1</ele>
        <time>2026-03-25T10:17:07Z</time>
      </trkpt>
      <trkpt lat="44.6901" lon="6.86034">
        <ele>2254.1</ele>
        <time>2026-03-25T10:17:08Z</time>
      </trkpt>
      <trkpt lat="44.69009" lon="6.86034">
        <ele>2254.1</ele>
        <time>2026-03-25T10:17:09Z</time>
      </trkpt>
      <trkpt lat="44.69009" lon="6.86034">
        <ele>2254.1</ele>
        <time>2026-03-25T10:17:10Z</time>
      </trkpt>
      <trkpt lat="44.69009" lon="6.86035">
        <ele>2254.1</ele>
        <time>2026-03-25T10:17:11Z</time>
      </trkpt>
      <trkpt lat="44.69009" lon="6.86035">
        <ele>2254.1</ele>
        <time>2026-03-25T10:17:12Z</time>
      </trkpt>
      <trkpt lat="44.69009" lon="6.86035">
        <ele>2254.1</ele>
        <time>2026-03-25T10:17:13Z</time>
      </trkpt>
      <trkpt lat="44.69009" lon="6.86036">
        <ele>2254.1</ele>
        <time>2026-03-25T10:17:14Z</time>
      </trkpt>
      <trkpt lat="44.69008" lon="6.86037">
        <ele>2255.3</ele>
        <time>2026-03-25T10:17:15Z</time>
      </trkpt>
      <trkpt lat="44.69008" lon="6.86038">
        <ele>2255.3</ele>
        <time>2026-03-25T10:17:16Z</time>
      </trkpt>
      <trkpt lat="44.69008" lon="6.86038">
        <ele>2255.3</ele>
        <time>2026-03-25T10:17:17Z</time>
      </trkpt>
      <trkpt lat="44.69007" lon="6.86039">
        <ele>2254.8</ele>
        <time>2026-03-25T10:17:18Z</time>
      </trkpt>
      <trkpt lat="44.69007" lon="6.86039">
        <ele>2254.8</ele>
        <time>2026-03-25T10:17:19Z</time>
      </trkpt>
      <trkpt lat="44.69007" lon="6.86038">
        <ele>2254.8</ele>
        <time>2026-03-25T10:17:20Z</time>
      </trkpt>
      <trkpt lat="44.69007" lon="6.86039">
        <ele>2254.8</ele>
        <time>2026-03-25T10:17:21Z</time>
      </trkpt>
      <trkpt lat="44.69007" lon="6.86039">
        <ele>2254.8</ele>
        <time>2026-03-25T10:17:22Z</time>
      </trkpt>
      <trkpt lat="44.69007" lon="6.86039">
        <ele>2254.8</ele>
        <time>2026-03-25T10:17:23Z</time>
      </trkpt>
      <trkpt lat="44.69006" lon="6.86039">
        <ele>2254.8</ele>
        <time>2026-03-25T10:17:24Z</time>
      </trkpt>
      <trkpt lat="44.69006" lon="6.8604">
        <ele>2254.8</ele>
        <time>2026-03-25T10:17:25Z</time>
      </trkpt>
      <trkpt lat="44.69006" lon="6.8604">
        <ele>2254.8</ele>
        <time>2026-03-25T10:17:26Z</time>
      </trkpt>
      <trkpt lat="44.69005" lon="6.86041">
        <ele>2255.9</ele>
        <time>2026-03-25T10:17:27Z</time>
      </trkpt>
      <trkpt lat="44.69005" lon="6.86042">
        <ele>2255.9</ele>
        <time>2026-03-25T10:17:28Z</time>
      </trkpt>
      <trkpt lat="44.69005" lon="6.86042">
        <ele>2255.9</ele>
        <time>2026-03-25T10:17:29Z</time>
      </trkpt>
      <trkpt lat="44.69004" lon="6.86043">
        <ele>2255.9</ele>
        <time>2026-03-25T10:17:30Z</time>
      </trkpt>
      <trkpt lat="44.69004" lon="6.86043">
        <ele>2255.3</ele>
        <time>2026-03-25T10:17:31Z</time>
      </trkpt>
      <trkpt lat="44.69003" lon="6.86043">
        <ele>2255.3</ele>
        <time>2026-03-25T10:17:32Z</time>
      </trkpt>
      <trkpt lat="44.69003" lon="6.86043">
        <ele>2255.3</ele>
        <time>2026-03-25T10:17:33Z</time>
      </trkpt>
      <trkpt lat="44.69002" lon="6.86044">
        <ele>2255.3</ele>
        <time>2026-03-25T10:17:34Z</time>
      </trkpt>
      <trkpt lat="44.69001" lon="6.86044">
        <ele>2255.3</ele>
        <time>2026-03-25T10:17:35Z</time>
      </trkpt>
      <trkpt lat="44.69001" lon="6.86044">
        <ele>2254.7</ele>
        <time>2026-03-25T10:17:36Z</time>
      </trkpt>
      <trkpt lat="44.69" lon="6.86045">
        <ele>2255.8</ele>
        <time>2026-03-25T10:17:37Z</time>
      </trkpt>
      <trkpt lat="44.69" lon="6.86045">
        <ele>2255.8</ele>
        <time>2026-03-25T10:17:38Z</time>
      </trkpt>
      <trkpt lat="44.68999" lon="6.86045">
        <ele>2255.8</ele>
        <time>2026-03-25T10:17:39Z</time>
      </trkpt>
      <trkpt lat="44.68999" lon="6.86046">
        <ele>2255.8</ele>
        <time>2026-03-25T10:17:40Z</time>
      </trkpt>
      <trkpt lat="44.68999" lon="6.86047">
        <ele>2255.8</ele>
        <time>2026-03-25T10:17:41Z</time>
      </trkpt>
      <trkpt lat="44.68999" lon="6.86047">
        <ele>2255.8</ele>
        <time>2026-03-25T10:17:42Z</time>
      </trkpt>
      <trkpt lat="44.68998" lon="6.86048">
        <ele>2255.2</ele>
        <time>2026-03-25T10:17:43Z</time>
      </trkpt>
      <trkpt lat="44.68998" lon="6.86047">
        <ele>2255.8</ele>
        <time>2026-03-25T10:17:44Z</time>
      </trkpt>
      <trkpt lat="44.68998" lon="6.86047">
        <ele>2255.2</ele>
        <time>2026-03-25T10:17:45Z</time>
      </trkpt>
      <trkpt lat="44.68998" lon="6.86048">
        <ele>2255.2</ele>
        <time>2026-03-25T10:17:46Z</time>
      </trkpt>
      <trkpt lat="44.68997" lon="6.86049">
        <ele>2255.2</ele>
        <time>2026-03-25T10:17:47Z</time>
      </trkpt>
      <trkpt lat="44.68997" lon="6.86049">
        <ele>2255.2</ele>
        <time>2026-03-25T10:17:48Z</time>
      </trkpt>
      <trkpt lat="44.68996" lon="6.8605">
        <ele>2256.2</ele>
        <time>2026-03-25T10:17:49Z</time>
      </trkpt>
      <trkpt lat="44.68996" lon="6.8605">
        <ele>2256.2</ele>
        <time>2026-03-25T10:17:50Z</time>
      </trkpt>
      <trkpt lat="44.68996" lon="6.8605">
        <ele>2256.2</ele>
        <time>2026-03-25T10:17:51Z</time>
      </trkpt>
      <trkpt lat="44.68995" lon="6.86051">
        <ele>2255.6</ele>
        <time>2026-03-25T10:17:52Z</time>
      </trkpt>
      <trkpt lat="44.68995" lon="6.86051">
        <ele>2255.6</ele>
        <time>2026-03-25T10:17:53Z</time>
      </trkpt>
      <trkpt lat="44.68994" lon="6.86052">
        <ele>2255.6</ele>
        <time>2026-03-25T10:17:54Z</time>
      </trkpt>
      <trkpt lat="44.68994" lon="6.86052">
        <ele>2255.6</ele>
        <time>2026-03-25T10:17:55Z</time>
      </trkpt>
      <trkpt lat="44.68993" lon="6.86053">
        <ele>2255.6</ele>
        <time>2026-03-25T10:17:56Z</time>
      </trkpt>
      <trkpt lat="44.68993" lon="6.86053">
        <ele>2255.6</ele>
        <time>2026-03-25T10:17:57Z</time>
      </trkpt>
      <trkpt lat="44.68993" lon="6.86053">
        <ele>2255.6</ele>
        <time>2026-03-25T10:17:58Z</time>
      </trkpt>
      <trkpt lat="44.68993" lon="6.86054">
        <ele>2256.6</ele>
        <time>2026-03-25T10:17:59Z</time>
      </trkpt>
      <trkpt lat="44.68993" lon="6.86054">
        <ele>2256.6</ele>
        <time>2026-03-25T10:18:00Z</time>
      </trkpt>
      <trkpt lat="44.68992" lon="6.86055">
        <ele>2256.1</ele>
        <time>2026-03-25T10:18:01Z</time>
      </trkpt>
      <trkpt lat="44.68992" lon="6.86055">
        <ele>2256.1</ele>
        <time>2026-03-25T10:18:02Z</time>
      </trkpt>
      <trkpt lat="44.68992" lon="6.86055">
        <ele>2256.1</ele>
        <time>2026-03-25T10:18:03Z</time>
      </trkpt>
      <trkpt lat="44.68991" lon="6.86056">
        <ele>2256.1</ele>
        <time>2026-03-25T10:18:04Z</time>
      </trkpt>
      <trkpt lat="44.68991" lon="6.86056">
        <ele>2256.1</ele>
        <time>2026-03-25T10:18:05Z</time>
      </trkpt>
      <trkpt lat="44.68991" lon="6.86057">
        <ele>2256.1</ele>
        <time>2026-03-25T10:18:06Z</time>
      </trkpt>
      <trkpt lat="44.6899" lon="6.86057">
        <ele>2256.1</ele>
        <time>2026-03-25T10:18:07Z</time>
      </trkpt>
      <trkpt lat="44.6899" lon="6.86057">
        <ele>2256.1</ele>
        <time>2026-03-25T10:18:08Z</time>
      </trkpt>
      <trkpt lat="44.6899" lon="6.86057">
        <ele>2256.1</ele>
        <time>2026-03-25T10:18:09Z</time>
      </trkpt>
      <trkpt lat="44.68989" lon="6.86058">
        <ele>2257.2</ele>
        <time>2026-03-25T10:18:10Z</time>
      </trkpt>
      <trkpt lat="44.68989" lon="6.86059">
        <ele>2256.7</ele>
        <time>2026-03-25T10:18:11Z</time>
      </trkpt>
      <trkpt lat="44.68989" lon="6.86059">
        <ele>2256.7</ele>
        <time>2026-03-25T10:18:12Z</time>
      </trkpt>
      <trkpt lat="44.68988" lon="6.86059">
        <ele>2256.7</ele>
        <time>2026-03-25T10:18:13Z</time>
      </trkpt>
      <trkpt lat="44.68988" lon="6.8606">
        <ele>2256.7</ele>
        <time>2026-03-25T10:18:14Z</time>
      </trkpt>
      <trkpt lat="44.68988" lon="6.86061">
        <ele>2256.7</ele>
        <time>2026-03-25T10:18:15Z</time>
      </trkpt>
      <trkpt lat="44.68988" lon="6.86061">
        <ele>2256.7</ele>
        <time>2026-03-25T10:18:16Z</time>
      </trkpt>
      <trkpt lat="44.68988" lon="6.86061">
        <ele>2256.7</ele>
        <time>2026-03-25T10:18:17Z</time>
      </trkpt>
      <trkpt lat="44.68987" lon="6.86061">
        <ele>2256.7</ele>
        <time>2026-03-25T10:18:18Z</time>
      </trkpt>
      <trkpt lat="44.68987" lon="6.86061">
        <ele>2256.7</ele>
        <time>2026-03-25T10:18:19Z</time>
      </trkpt>
      <trkpt lat="44.68987" lon="6.86062">
        <ele>2257.8</ele>
        <time>2026-03-25T10:18:20Z</time>
      </trkpt>
      <trkpt lat="44.68987" lon="6.86062">
        <ele>2257.8</ele>
        <time>2026-03-25T10:18:21Z</time>
      </trkpt>
      <trkpt lat="44.68987" lon="6.86063">
        <ele>2257.8</ele>
        <time>2026-03-25T10:18:22Z</time>
      </trkpt>
      <trkpt lat="44.68987" lon="6.86064">
        <ele>2257.8</ele>
        <time>2026-03-25T10:18:23Z</time>
      </trkpt>
      <trkpt lat="44.68986" lon="6.86064">
        <ele>2257.8</ele>
        <time>2026-03-25T10:18:24Z</time>
      </trkpt>
      <trkpt lat="44.68986" lon="6.86065">
        <ele>2257.8</ele>
        <time>2026-03-25T10:18:25Z</time>
      </trkpt>
      <trkpt lat="44.68986" lon="6.86066">
        <ele>2257.8</ele>
        <time>2026-03-25T10:18:26Z</time>
      </trkpt>
      <trkpt lat="44.68986" lon="6.86066">
        <ele>2257.8</ele>
        <time>2026-03-25T10:18:27Z</time>
      </trkpt>
      <trkpt lat="44.68986" lon="6.86067">
        <ele>2258.9</ele>
        <time>2026-03-25T10:18:28Z</time>
      </trkpt>
      <trkpt lat="44.68986" lon="6.86067">
        <ele>2258.9</ele>
        <time>2026-03-25T10:18:29Z</time>
      </trkpt>
      <trkpt lat="44.68986" lon="6.86068">
        <ele>2258.9</ele>
        <time>2026-03-25T10:18:30Z</time>
      </trkpt>
      <trkpt lat="44.68986" lon="6.86068">
        <ele>2258.4</ele>
        <time>2026-03-25T10:18:31Z</time>
      </trkpt>
      <trkpt lat="44.68986" lon="6.86069">
        <ele>2258.4</ele>
        <time>2026-03-25T10:18:32Z</time>
      </trkpt>
      <trkpt lat="44.68986" lon="6.86069">
        <ele>2258.4</ele>
        <time>2026-03-25T10:18:33Z</time>
      </trkpt>
      <trkpt lat="44.68986" lon="6.8607">
        <ele>2258.4</ele>
        <time>2026-03-25T10:18:34Z</time>
      </trkpt>
      <trkpt lat="44.68985" lon="6.8607">
        <ele>2258.4</ele>
        <time>2026-03-25T10:18:35Z</time>
      </trkpt>
      <trkpt lat="44.68985" lon="6.86071">
        <ele>2259.5</ele>
        <time>2026-03-25T10:18:36Z</time>
      </trkpt>
      <trkpt lat="44.68985" lon="6.86071">
        <ele>2259.5</ele>
        <time>2026-03-25T10:18:37Z</time>
      </trkpt>
      <trkpt lat="44.68984" lon="6.86072">
        <ele>2259.5</ele>
        <time>2026-03-25T10:18:38Z</time>
      </trkpt>
      <trkpt lat="44.68984" lon="6.86073">
        <ele>2259.5</ele>
        <time>2026-03-25T10:18:39Z</time>
      </trkpt>
      <trkpt lat="44.68984" lon="6.86073">
        <ele>2259.5</ele>
        <time>2026-03-25T10:18:40Z</time>
      </trkpt>
      <trkpt lat="44.68984" lon="6.86074">
        <ele>2259.5</ele>
        <time>2026-03-25T10:18:41Z</time>
      </trkpt>
      <trkpt lat="44.68983" lon="6.86074">
        <ele>2259.5</ele>
        <time>2026-03-25T10:18:42Z</time>
      </trkpt>
      <trkpt lat="44.68983" lon="6.86074">
        <ele>2259.5</ele>
        <time>2026-03-25T10:18:43Z</time>
      </trkpt>
      <trkpt lat="44.68983" lon="6.86075">
        <ele>2260.7</ele>
        <time>2026-03-25T10:18:44Z</time>
      </trkpt>
      <trkpt lat="44.68983" lon="6.86075">
        <ele>2259.1</ele>
        <time>2026-03-25T10:18:45Z</time>
      </trkpt>
      <trkpt lat="44.68983" lon="6.86075">
        <ele>2260.2</ele>
        <time>2026-03-25T10:18:46Z</time>
      </trkpt>
      <trkpt lat="44.68982" lon="6.86075">
        <ele>2260.2</ele>
        <time>2026-03-25T10:18:47Z</time>
      </trkpt>
      <trkpt lat="44.68982" lon="6.86076">
        <ele>2260.2</ele>
        <time>2026-03-25T10:18:48Z</time>
      </trkpt>
      <trkpt lat="44.68982" lon="6.86076">
        <ele>2260.2</ele>
        <time>2026-03-25T10:18:49Z</time>
      </trkpt>
      <trkpt lat="44.68981" lon="6.86076">
        <ele>2260.2</ele>
        <time>2026-03-25T10:18:50Z</time>
      </trkpt>
      <trkpt lat="44.68981" lon="6.86077">
        <ele>2260.2</ele>
        <time>2026-03-25T10:18:51Z</time>
      </trkpt>
      <trkpt lat="44.68981" lon="6.86077">
        <ele>2260.2</ele>
        <time>2026-03-25T10:18:52Z</time>
      </trkpt>
      <trkpt lat="44.6898" lon="6.86078">
        <ele>2260.2</ele>
        <time>2026-03-25T10:18:53Z</time>
      </trkpt>
      <trkpt lat="44.6898" lon="6.86078">
        <ele>2259.7</ele>
        <time>2026-03-25T10:18:54Z</time>
      </trkpt>
      <trkpt lat="44.68979" lon="6.86079">
        <ele>2260.8</ele>
        <time>2026-03-25T10:18:55Z</time>
      </trkpt>
      <trkpt lat="44.68979" lon="6.8608">
        <ele>2260.8</ele>
        <time>2026-03-25T10:18:56Z</time>
      </trkpt>
      <trkpt lat="44.68978" lon="6.86081">
        <ele>2260.8</ele>
        <time>2026-03-25T10:18:57Z</time>
      </trkpt>
      <trkpt lat="44.68978" lon="6.86081">
        <ele>2260.8</ele>
        <time>2026-03-25T10:18:58Z</time>
      </trkpt>
      <trkpt lat="44.68977" lon="6.86081">
        <ele>2260.8</ele>
        <time>2026-03-25T10:18:59Z</time>
      </trkpt>
      <trkpt lat="44.68977" lon="6.86082">
        <ele>2260.8</ele>
        <time>2026-03-25T10:19:00Z</time>
      </trkpt>
      <trkpt lat="44.68977" lon="6.86083">
        <ele>2260.2</ele>
        <time>2026-03-25T10:19:01Z</time>
      </trkpt>
      <trkpt lat="44.68976" lon="6.86084">
        <ele>2261.2</ele>
        <time>2026-03-25T10:19:02Z</time>
      </trkpt>
      <trkpt lat="44.68976" lon="6.86085">
        <ele>2261.2</ele>
        <time>2026-03-25T10:19:03Z</time>
      </trkpt>
      <trkpt lat="44.68976" lon="6.86085">
        <ele>2261.2</ele>
        <time>2026-03-25T10:19:04Z</time>
      </trkpt>
      <trkpt lat="44.68975" lon="6.86086">
        <ele>2261.2</ele>
        <time>2026-03-25T10:19:05Z</time>
      </trkpt>
      <trkpt lat="44.68975" lon="6.86087">
        <ele>2261.2</ele>
        <time>2026-03-25T10:19:06Z</time>
      </trkpt>
      <trkpt lat="44.68975" lon="6.86087">
        <ele>2261.2</ele>
        <time>2026-03-25T10:19:07Z</time>
      </trkpt>
      <trkpt lat="44.68974" lon="6.86088">
        <ele>2262.2</ele>
        <time>2026-03-25T10:19:08Z</time>
      </trkpt>
      <trkpt lat="44.68974" lon="6.86089">
        <ele>2262.2</ele>
        <time>2026-03-25T10:19:09Z</time>
      </trkpt>
      <trkpt lat="44.68974" lon="6.86089">
        <ele>2261.6</ele>
        <time>2026-03-25T10:19:10Z</time>
      </trkpt>
      <trkpt lat="44.68973" lon="6.8609">
        <ele>2261.6</ele>
        <time>2026-03-25T10:19:11Z</time>
      </trkpt>
      <trkpt lat="44.68973" lon="6.86091">
        <ele>2261.6</ele>
        <time>2026-03-25T10:19:12Z</time>
      </trkpt>
      <trkpt lat="44.68973" lon="6.86091">
        <ele>2261.6</ele>
        <time>2026-03-25T10:19:13Z</time>
      </trkpt>
      <trkpt lat="44.68973" lon="6.86092">
        <ele>2262.5</ele>
        <time>2026-03-25T10:19:14Z</time>
      </trkpt>
      <trkpt lat="44.68972" lon="6.86092">
        <ele>2262.5</ele>
        <time>2026-03-25T10:19:15Z</time>
      </trkpt>
      <trkpt lat="44.68972" lon="6.86093">
        <ele>2262.5</ele>
        <time>2026-03-25T10:19:16Z</time>
      </trkpt>
      <trkpt lat="44.68972" lon="6.86094">
        <ele>2262.5</ele>
        <time>2026-03-25T10:19:17Z</time>
      </trkpt>
      <trkpt lat="44.68972" lon="6.86094">
        <ele>2262.5</ele>
        <time>2026-03-25T10:19:18Z</time>
      </trkpt>
      <trkpt lat="44.68972" lon="6.86095">
        <ele>2262.5</ele>
        <time>2026-03-25T10:19:19Z</time>
      </trkpt>
      <trkpt lat="44.68972" lon="6.86096">
        <ele>2262.5</ele>
        <time>2026-03-25T10:19:20Z</time>
      </trkpt>
      <trkpt lat="44.68972" lon="6.86097">
        <ele>2263.3</ele>
        <time>2026-03-25T10:19:21Z</time>
      </trkpt>
      <trkpt lat="44.68971" lon="6.86098">
        <ele>2263.3</ele>
        <time>2026-03-25T10:19:22Z</time>
      </trkpt>
      <trkpt lat="44.68971" lon="6.86099">
        <ele>2263.3</ele>
        <time>2026-03-25T10:19:23Z</time>
      </trkpt>
      <trkpt lat="44.68971" lon="6.86099">
        <ele>2263.3</ele>
        <time>2026-03-25T10:19:24Z</time>
      </trkpt>
      <trkpt lat="44.68971" lon="6.861">
        <ele>2262.7</ele>
        <time>2026-03-25T10:19:25Z</time>
      </trkpt>
      <trkpt lat="44.68971" lon="6.86101">
        <ele>2263.5</ele>
        <time>2026-03-25T10:19:26Z</time>
      </trkpt>
      <trkpt lat="44.6897" lon="6.86102">
        <ele>2263.5</ele>
        <time>2026-03-25T10:19:27Z</time>
      </trkpt>
      <trkpt lat="44.6897" lon="6.86102">
        <ele>2263.5</ele>
        <time>2026-03-25T10:19:28Z</time>
      </trkpt>
      <trkpt lat="44.68969" lon="6.86103">
        <ele>2263.5</ele>
        <time>2026-03-25T10:19:29Z</time>
      </trkpt>
      <trkpt lat="44.68969" lon="6.86103">
        <ele>2263.5</ele>
        <time>2026-03-25T10:19:30Z</time>
      </trkpt>
      <trkpt lat="44.68969" lon="6.86104">
        <ele>2263.5</ele>
        <time>2026-03-25T10:19:31Z</time>
      </trkpt>
      <trkpt lat="44.68969" lon="6.86104">
        <ele>2263.5</ele>
        <time>2026-03-25T10:19:32Z</time>
      </trkpt>
      <trkpt lat="44.68969" lon="6.86105">
        <ele>2264.4</ele>
        <time>2026-03-25T10:19:33Z</time>
      </trkpt>
      <trkpt lat="44.68969" lon="6.86106">
        <ele>2264.4</ele>
        <time>2026-03-25T10:19:34Z</time>
      </trkpt>
      <trkpt lat="44.68969" lon="6.86107">
        <ele>2264.4</ele>
        <time>2026-03-25T10:19:35Z</time>
      </trkpt>
      <trkpt lat="44.68968" lon="6.86107">
        <ele>2264.4</ele>
        <time>2026-03-25T10:19:36Z</time>
      </trkpt>
      <trkpt lat="44.68968" lon="6.86108">
        <ele>2264.4</ele>
        <time>2026-03-25T10:19:37Z</time>
      </trkpt>
      <trkpt lat="44.68968" lon="6.86109">
        <ele>2264.4</ele>
        <time>2026-03-25T10:19:38Z</time>
      </trkpt>
      <trkpt lat="44.68968" lon="6.86109">
        <ele>2264.4</ele>
        <time>2026-03-25T10:19:39Z</time>
      </trkpt>
      <trkpt lat="44.68968" lon="6.8611">
        <ele>2264.7</ele>
        <time>2026-03-25T10:19:40Z</time>
      </trkpt>
      <trkpt lat="44.68968" lon="6.8611">
        <ele>2264.7</ele>
        <time>2026-03-25T10:19:41Z</time>
      </trkpt>
      <trkpt lat="44.68967" lon="6.86111">
        <ele>2264.7</ele>
        <time>2026-03-25T10:19:42Z</time>
      </trkpt>
      <trkpt lat="44.68967" lon="6.86112">
        <ele>2264.7</ele>
        <time>2026-03-25T10:19:43Z</time>
      </trkpt>
      <trkpt lat="44.68967" lon="6.86112">
        <ele>2264.7</ele>
        <time>2026-03-25T10:19:44Z</time>
      </trkpt>
      <trkpt lat="44.68967" lon="6.86113">
        <ele>2264.7</ele>
        <time>2026-03-25T10:19:45Z</time>
      </trkpt>
      <trkpt lat="44.68967" lon="6.86114">
        <ele>2265.6</ele>
        <time>2026-03-25T10:19:46Z</time>
      </trkpt>
      <trkpt lat="44.68967" lon="6.86114">
        <ele>2265.6</ele>
        <time>2026-03-25T10:19:47Z</time>
      </trkpt>
      <trkpt lat="44.68967" lon="6.86115">
        <ele>2265.6</ele>
        <time>2026-03-25T10:19:48Z</time>
      </trkpt>
      <trkpt lat="44.68967" lon="6.86116">
        <ele>2265.6</ele>
        <time>2026-03-25T10:19:49Z</time>
      </trkpt>
      <trkpt lat="44.68966" lon="6.86117">
        <ele>2265.6</ele>
        <time>2026-03-25T10:19:50Z</time>
      </trkpt>
      <trkpt lat="44.68967" lon="6.86117">
        <ele>2265.6</ele>
        <time>2026-03-25T10:19:51Z</time>
      </trkpt>
      <trkpt lat="44.68966" lon="6.86118">
        <ele>2266.5</ele>
        <time>2026-03-25T10:19:52Z</time>
      </trkpt>
      <trkpt lat="44.68967" lon="6.86118">
        <ele>2266.5</ele>
        <time>2026-03-25T10:19:53Z</time>
      </trkpt>
      <trkpt lat="44.68967" lon="6.86119">
        <ele>2266.5</ele>
        <time>2026-03-25T10:19:54Z</time>
      </trkpt>
      <trkpt lat="44.68966" lon="6.86119">
        <ele>2266.5</ele>
        <time>2026-03-25T10:19:55Z</time>
      </trkpt>
      <trkpt lat="44.68966" lon="6.8612">
        <ele>2266.5</ele>
        <time>2026-03-25T10:19:56Z</time>
      </trkpt>
      <trkpt lat="44.68967" lon="6.86121">
        <ele>2266.5</ele>
        <time>2026-03-25T10:19:57Z</time>
      </trkpt>
      <trkpt lat="44.68966" lon="6.86122">
        <ele>2266.5</ele>
        <time>2026-03-25T10:19:58Z</time>
      </trkpt>
      <trkpt lat="44.68967" lon="6.86122">
        <ele>2267.4</ele>
        <time>2026-03-25T10:19:59Z</time>
      </trkpt>
      <trkpt lat="44.68966" lon="6.86123">
        <ele>2267.4</ele>
        <time>2026-03-25T10:20:00Z</time>
      </trkpt>
      <trkpt lat="44.68966" lon="6.86124">
        <ele>2267.4</ele>
        <time>2026-03-25T10:20:01Z</time>
      </trkpt>
      <trkpt lat="44.68966" lon="6.86125">
        <ele>2267.4</ele>
        <time>2026-03-25T10:20:02Z</time>
      </trkpt>
      <trkpt lat="44.68967" lon="6.86125">
        <ele>2267.4</ele>
        <time>2026-03-25T10:20:03Z</time>
      </trkpt>
      <trkpt lat="44.68967" lon="6.86126">
        <ele>2267.4</ele>
        <time>2026-03-25T10:20:04Z</time>
      </trkpt>
      <trkpt lat="44.68967" lon="6.86126">
        <ele>2267.4</ele>
        <time>2026-03-25T10:20:05Z</time>
      </trkpt>
      <trkpt lat="44.68967" lon="6.86127">
        <ele>2268.3</ele>
        <time>2026-03-25T10:20:06Z</time>
      </trkpt>
      <trkpt lat="44.68967" lon="6.86127">
        <ele>2268.3</ele>
        <time>2026-03-25T10:20:07Z</time>
      </trkpt>
      <trkpt lat="44.68967" lon="6.86128">
        <ele>2268.3</ele>
        <time>2026-03-25T10:20:08Z</time>
      </trkpt>
      <trkpt lat="44.68968" lon="6.86128">
        <ele>2268.9</ele>
        <time>2026-03-25T10:20:09Z</time>
      </trkpt>
      <trkpt lat="44.68968" lon="6.86129">
        <ele>2268.9</ele>
        <time>2026-03-25T10:20:10Z</time>
      </trkpt>
      <trkpt lat="44.68968" lon="6.8613">
        <ele>2268.9</ele>
        <time>2026-03-25T10:20:11Z</time>
      </trkpt>
      <trkpt lat="44.68969" lon="6.8613">
        <ele>2268.9</ele>
        <time>2026-03-25T10:20:12Z</time>
      </trkpt>
      <trkpt lat="44.68969" lon="6.8613">
        <ele>2268.9</ele>
        <time>2026-03-25T10:20:13Z</time>
      </trkpt>
      <trkpt lat="44.68969" lon="6.86131">
        <ele>2269.7</ele>
        <time>2026-03-25T10:20:14Z</time>
      </trkpt>
      <trkpt lat="44.68969" lon="6.86132">
        <ele>2269.7</ele>
        <time>2026-03-25T10:20:15Z</time>
      </trkpt>
      <trkpt lat="44.68969" lon="6.86132">
        <ele>2269.7</ele>
        <time>2026-03-25T10:20:16Z</time>
      </trkpt>
      <trkpt lat="44.68969" lon="6.86133">
        <ele>2269.7</ele>
        <time>2026-03-25T10:20:17Z</time>
      </trkpt>
      <trkpt lat="44.68969" lon="6.86133">
        <ele>2269.7</ele>
        <time>2026-03-25T10:20:18Z</time>
      </trkpt>
      <trkpt lat="44.68969" lon="6.86134">
        <ele>2269.7</ele>
        <time>2026-03-25T10:20:19Z</time>
      </trkpt>
      <trkpt lat="44.68969" lon="6.86134">
        <ele>2269.7</ele>
        <time>2026-03-25T10:20:20Z</time>
      </trkpt>
      <trkpt lat="44.68969" lon="6.86135">
        <ele>2270.5</ele>
        <time>2026-03-25T10:20:21Z</time>
      </trkpt>
      <trkpt lat="44.68969" lon="6.86136">
        <ele>2270.5</ele>
        <time>2026-03-25T10:20:22Z</time>
      </trkpt>
      <trkpt lat="44.68969" lon="6.86136">
        <ele>2270.5</ele>
        <time>2026-03-25T10:20:23Z</time>
      </trkpt>
      <trkpt lat="44.68969" lon="6.86137">
        <ele>2270.5</ele>
        <time>2026-03-25T10:20:24Z</time>
      </trkpt>
      <trkpt lat="44.68969" lon="6.86138">
        <ele>2270.5</ele>
        <time>2026-03-25T10:20:25Z</time>
      </trkpt>
      <trkpt lat="44.68969" lon="6.86138">
        <ele>2270.5</ele>
        <time>2026-03-25T10:20:26Z</time>
      </trkpt>
      <trkpt lat="44.68969" lon="6.86139">
        <ele>2270.5</ele>
        <time>2026-03-25T10:20:27Z</time>
      </trkpt>
      <trkpt lat="44.68969" lon="6.8614">
        <ele>2271.3</ele>
        <time>2026-03-25T10:20:28Z</time>
      </trkpt>
      <trkpt lat="44.68968" lon="6.8614">
        <ele>2271.3</ele>
        <time>2026-03-25T10:20:29Z</time>
      </trkpt>
      <trkpt lat="44.68968" lon="6.86141">
        <ele>2271.3</ele>
        <time>2026-03-25T10:20:30Z</time>
      </trkpt>
      <trkpt lat="44.68968" lon="6.86141">
        <ele>2271.3</ele>
        <time>2026-03-25T10:20:31Z</time>
      </trkpt>
      <trkpt lat="44.68968" lon="6.86141">
        <ele>2271.3</ele>
        <time>2026-03-25T10:20:32Z</time>
      </trkpt>
      <trkpt lat="44.68968" lon="6.86142">
        <ele>2271.3</ele>
        <time>2026-03-25T10:20:33Z</time>
      </trkpt>
      <trkpt lat="44.68968" lon="6.86143">
        <ele>2270.7</ele>
        <time>2026-03-25T10:20:34Z</time>
      </trkpt>
      <trkpt lat="44.68967" lon="6.86143">
        <ele>2270.7</ele>
        <time>2026-03-25T10:20:35Z</time>
      </trkpt>
      <trkpt lat="44.68967" lon="6.86144">
        <ele>2271.5</ele>
        <time>2026-03-25T10:20:36Z</time>
      </trkpt>
      <trkpt lat="44.68967" lon="6.86145">
        <ele>2271.5</ele>
        <time>2026-03-25T10:20:37Z</time>
      </trkpt>
      <trkpt lat="44.68967" lon="6.86145">
        <ele>2271.5</ele>
        <time>2026-03-25T10:20:38Z</time>
      </trkpt>
      <trkpt lat="44.68967" lon="6.86146">
        <ele>2271.5</ele>
        <time>2026-03-25T10:20:39Z</time>
      </trkpt>
      <trkpt lat="44.68967" lon="6.86146">
        <ele>2271.5</ele>
        <time>2026-03-25T10:20:40Z</time>
      </trkpt>
      <trkpt lat="44.68967" lon="6.86147">
        <ele>2271.5</ele>
        <time>2026-03-25T10:20:41Z</time>
      </trkpt>
      <trkpt lat="44.68967" lon="6.86147">
        <ele>2271.5</ele>
        <time>2026-03-25T10:20:42Z</time>
      </trkpt>
      <trkpt lat="44.68966" lon="6.86148">
        <ele>2271.5</ele>
        <time>2026-03-25T10:20:43Z</time>
      </trkpt>
      <trkpt lat="44.68966" lon="6.86148">
        <ele>2272.3</ele>
        <time>2026-03-25T10:20:44Z</time>
      </trkpt>
      <trkpt lat="44.68966" lon="6.86148">
        <ele>2272.3</ele>
        <time>2026-03-25T10:20:45Z</time>
      </trkpt>
      <trkpt lat="44.68966" lon="6.86149">
        <ele>2272.3</ele>
        <time>2026-03-25T10:20:46Z</time>
      </trkpt>
      <trkpt lat="44.68966" lon="6.8615">
        <ele>2272.3</ele>
        <time>2026-03-25T10:20:47Z</time>
      </trkpt>
      <trkpt lat="44.68966" lon="6.86151">
        <ele>2272.3</ele>
        <time>2026-03-25T10:20:48Z</time>
      </trkpt>
      <trkpt lat="44.68966" lon="6.86152">
        <ele>2272.3</ele>
        <time>2026-03-25T10:20:49Z</time>
      </trkpt>
      <trkpt lat="44.68966" lon="6.86152">
        <ele>2273.1</ele>
        <time>2026-03-25T10:20:50Z</time>
      </trkpt>
      <trkpt lat="44.68965" lon="6.86153">
        <ele>2273.1</ele>
        <time>2026-03-25T10:20:51Z</time>
      </trkpt>
      <trkpt lat="44.68965" lon="6.86154">
        <ele>2273.1</ele>
        <time>2026-03-25T10:20:52Z</time>
      </trkpt>
      <trkpt lat="44.68965" lon="6.86154">
        <ele>2273.1</ele>
        <time>2026-03-25T10:20:53Z</time>
      </trkpt>
      <trkpt lat="44.68965" lon="6.86155">
        <ele>2273.1</ele>
        <time>2026-03-25T10:20:54Z</time>
      </trkpt>
      <trkpt lat="44.68965" lon="6.86155">
        <ele>2272.5</ele>
        <time>2026-03-25T10:20:55Z</time>
      </trkpt>
      <trkpt lat="44.68965" lon="6.86156">
        <ele>2272.5</ele>
        <time>2026-03-25T10:20:56Z</time>
      </trkpt>
      <trkpt lat="44.68965" lon="6.86157">
        <ele>2273.4</ele>
        <time>2026-03-25T10:20:57Z</time>
      </trkpt>
      <trkpt lat="44.68964" lon="6.86157">
        <ele>2273.4</ele>
        <time>2026-03-25T10:20:58Z</time>
      </trkpt>
      <trkpt lat="44.68964" lon="6.86158">
        <ele>2273.4</ele>
        <time>2026-03-25T10:20:59Z</time>
      </trkpt>
      <trkpt lat="44.68964" lon="6.86159">
        <ele>2273.4</ele>
        <time>2026-03-25T10:21:00Z</time>
      </trkpt>
      <trkpt lat="44.68964" lon="6.86159">
        <ele>2273.4</ele>
        <time>2026-03-25T10:21:01Z</time>
      </trkpt>
      <trkpt lat="44.68964" lon="6.8616">
        <ele>2273.4</ele>
        <time>2026-03-25T10:21:02Z</time>
      </trkpt>
      <trkpt lat="44.68964" lon="6.86161">
        <ele>2274.3</ele>
        <time>2026-03-25T10:21:03Z</time>
      </trkpt>
      <trkpt lat="44.68963" lon="6.86161">
        <ele>2274.3</ele>
        <time>2026-03-25T10:21:04Z</time>
      </trkpt>
      <trkpt lat="44.68963" lon="6.86162">
        <ele>2274.3</ele>
        <time>2026-03-25T10:21:05Z</time>
      </trkpt>
      <trkpt lat="44.68963" lon="6.86162">
        <ele>2274.3</ele>
        <time>2026-03-25T10:21:06Z</time>
      </trkpt>
      <trkpt lat="44.68963" lon="6.86162">
        <ele>2274.3</ele>
        <time>2026-03-25T10:21:07Z</time>
      </trkpt>
      <trkpt lat="44.68963" lon="6.86163">
        <ele>2274.3</ele>
        <time>2026-03-25T10:21:08Z</time>
      </trkpt>
      <trkpt lat="44.68963" lon="6.86164">
        <ele>2274.3</ele>
        <time>2026-03-25T10:21:09Z</time>
      </trkpt>
      <trkpt lat="44.68963" lon="6.86164">
        <ele>2274.3</ele>
        <time>2026-03-25T10:21:10Z</time>
      </trkpt>
      <trkpt lat="44.68963" lon="6.86165">
        <ele>2275.1</ele>
        <time>2026-03-25T10:21:11Z</time>
      </trkpt>
      <trkpt lat="44.68962" lon="6.86165">
        <ele>2275.1</ele>
        <time>2026-03-25T10:21:12Z</time>
      </trkpt>
      <trkpt lat="44.68962" lon="6.86166">
        <ele>2275.1</ele>
        <time>2026-03-25T10:21:13Z</time>
      </trkpt>
      <trkpt lat="44.68962" lon="6.86167">
        <ele>2275.1</ele>
        <time>2026-03-25T10:21:14Z</time>
      </trkpt>
      <trkpt lat="44.68962" lon="6.86168">
        <ele>2275.1</ele>
        <time>2026-03-25T10:21:15Z</time>
      </trkpt>
      <trkpt lat="44.68962" lon="6.86169">
        <ele>2275.1</ele>
        <time>2026-03-25T10:21:16Z</time>
      </trkpt>
      <trkpt lat="44.68962" lon="6.8617">
        <ele>2275.5</ele>
        <time>2026-03-25T10:21:17Z</time>
      </trkpt>
      <trkpt lat="44.68961" lon="6.8617">
        <ele>2275.5</ele>
        <time>2026-03-25T10:21:18Z</time>
      </trkpt>
      <trkpt lat="44.68961" lon="6.86171">
        <ele>2275.5</ele>
        <time>2026-03-25T10:21:19Z</time>
      </trkpt>
      <trkpt lat="44.68961" lon="6.86171">
        <ele>2275.5</ele>
        <time>2026-03-25T10:21:20Z</time>
      </trkpt>
      <trkpt lat="44.68961" lon="6.86172">
        <ele>2275.5</ele>
        <time>2026-03-25T10:21:21Z</time>
      </trkpt>
      <trkpt lat="44.68961" lon="6.86172">
        <ele>2275.5</ele>
        <time>2026-03-25T10:21:22Z</time>
      </trkpt>
      <trkpt lat="44.68961" lon="6.86173">
        <ele>2275.5</ele>
        <time>2026-03-25T10:21:23Z</time>
      </trkpt>
      <trkpt lat="44.68961" lon="6.86173">
        <ele>2275.5</ele>
        <time>2026-03-25T10:21:24Z</time>
      </trkpt>
      <trkpt lat="44.6896" lon="6.86174">
        <ele>2276.4</ele>
        <time>2026-03-25T10:21:25Z</time>
      </trkpt>
      <trkpt lat="44.6896" lon="6.86174">
        <ele>2276.4</ele>
        <time>2026-03-25T10:21:26Z</time>
      </trkpt>
      <trkpt lat="44.6896" lon="6.86175">
        <ele>2276.4</ele>
        <time>2026-03-25T10:21:27Z</time>
      </trkpt>
      <trkpt lat="44.6896" lon="6.86175">
        <ele>2276.4</ele>
        <time>2026-03-25T10:21:28Z</time>
      </trkpt>
      <trkpt lat="44.68959" lon="6.86176">
        <ele>2276.4</ele>
        <time>2026-03-25T10:21:29Z</time>
      </trkpt>
      <trkpt lat="44.68959" lon="6.86177">
        <ele>2276.4</ele>
        <time>2026-03-25T10:21:30Z</time>
      </trkpt>
      <trkpt lat="44.68959" lon="6.86177">
        <ele>2276.4</ele>
        <time>2026-03-25T10:21:31Z</time>
      </trkpt>
      <trkpt lat="44.68959" lon="6.86178">
        <ele>2277.2</ele>
        <time>2026-03-25T10:21:32Z</time>
      </trkpt>
      <trkpt lat="44.68959" lon="6.86179">
        <ele>2277.2</ele>
        <time>2026-03-25T10:21:33Z</time>
      </trkpt>
      <trkpt lat="44.68959" lon="6.8618">
        <ele>2277.2</ele>
        <time>2026-03-25T10:21:34Z</time>
      </trkpt>
      <trkpt lat="44.68959" lon="6.86181">
        <ele>2277.2</ele>
        <time>2026-03-25T10:21:35Z</time>
      </trkpt>
      <trkpt lat="44.68959" lon="6.86182">
        <ele>2277.2</ele>
        <time>2026-03-25T10:21:36Z</time>
      </trkpt>
      <trkpt lat="44.68959" lon="6.86183">
        <ele>2277.5</ele>
        <time>2026-03-25T10:21:37Z</time>
      </trkpt>
      <trkpt lat="44.68958" lon="6.86184">
        <ele>2277.5</ele>
        <time>2026-03-25T10:21:38Z</time>
      </trkpt>
      <trkpt lat="44.68958" lon="6.86185">
        <ele>2277.5</ele>
        <time>2026-03-25T10:21:39Z</time>
      </trkpt>
      <trkpt lat="44.68958" lon="6.86185">
        <ele>2277.5</ele>
        <time>2026-03-25T10:21:40Z</time>
      </trkpt>
      <trkpt lat="44.68958" lon="6.86186">
        <ele>2277.5</ele>
        <time>2026-03-25T10:21:41Z</time>
      </trkpt>
      <trkpt lat="44.68958" lon="6.86186">
        <ele>2278.4</ele>
        <time>2026-03-25T10:21:42Z</time>
      </trkpt>
      <trkpt lat="44.68957" lon="6.86187">
        <ele>2278.4</ele>
        <time>2026-03-25T10:21:43Z</time>
      </trkpt>
      <trkpt lat="44.68957" lon="6.86188">
        <ele>2278.4</ele>
        <time>2026-03-25T10:21:44Z</time>
      </trkpt>
      <trkpt lat="44.68957" lon="6.86188">
        <ele>2278.4</ele>
        <time>2026-03-25T10:21:45Z</time>
      </trkpt>
      <trkpt lat="44.68957" lon="6.86189">
        <ele>2278.4</ele>
        <time>2026-03-25T10:21:46Z</time>
      </trkpt>
      <trkpt lat="44.68956" lon="6.86189">
        <ele>2278.4</ele>
        <time>2026-03-25T10:21:47Z</time>
      </trkpt>
      <trkpt lat="44.68956" lon="6.8619">
        <ele>2278.4</ele>
        <time>2026-03-25T10:21:48Z</time>
      </trkpt>
      <trkpt lat="44.68956" lon="6.8619">
        <ele>2278.4</ele>
        <time>2026-03-25T10:21:49Z</time>
      </trkpt>
      <trkpt lat="44.68956" lon="6.86191">
        <ele>2279.3</ele>
        <time>2026-03-25T10:21:50Z</time>
      </trkpt>
      <trkpt lat="44.68956" lon="6.86191">
        <ele>2278.9</ele>
        <time>2026-03-25T10:21:51Z</time>
      </trkpt>
      <trkpt lat="44.68955" lon="6.86192">
        <ele>2278.9</ele>
        <time>2026-03-25T10:21:52Z</time>
      </trkpt>
      <trkpt lat="44.68955" lon="6.86193">
        <ele>2278.9</ele>
        <time>2026-03-25T10:21:53Z</time>
      </trkpt>
      <trkpt lat="44.68955" lon="6.86193">
        <ele>2278.9</ele>
        <time>2026-03-25T10:21:54Z</time>
      </trkpt>
      <trkpt lat="44.68955" lon="6.86194">
        <ele>2278.9</ele>
        <time>2026-03-25T10:21:55Z</time>
      </trkpt>
      <trkpt lat="44.68955" lon="6.86194">
        <ele>2278.9</ele>
        <time>2026-03-25T10:21:56Z</time>
      </trkpt>
      <trkpt lat="44.68955" lon="6.86195">
        <ele>2278.9</ele>
        <time>2026-03-25T10:21:57Z</time>
      </trkpt>
      <trkpt lat="44.68955" lon="6.86196">
        <ele>2279.8</ele>
        <time>2026-03-25T10:21:58Z</time>
      </trkpt>
      <trkpt lat="44.68955" lon="6.86196">
        <ele>2279.8</ele>
        <time>2026-03-25T10:21:59Z</time>
      </trkpt>
      <trkpt lat="44.68955" lon="6.86197">
        <ele>2279.8</ele>
        <time>2026-03-25T10:22:00Z</time>
      </trkpt>
      <trkpt lat="44.68955" lon="6.86197">
        <ele>2279.8</ele>
        <time>2026-03-25T10:22:01Z</time>
      </trkpt>
      <trkpt lat="44.68954" lon="6.86198">
        <ele>2279.8</ele>
        <time>2026-03-25T10:22:02Z</time>
      </trkpt>
      <trkpt lat="44.68954" lon="6.86198">
        <ele>2279.8</ele>
        <time>2026-03-25T10:22:03Z</time>
      </trkpt>
      <trkpt lat="44.68954" lon="6.86199">
        <ele>2279.8</ele>
        <time>2026-03-25T10:22:04Z</time>
      </trkpt>
      <trkpt lat="44.68954" lon="6.862">
        <ele>2280.8</ele>
        <time>2026-03-25T10:22:05Z</time>
      </trkpt>
      <trkpt lat="44.68954" lon="6.862">
        <ele>2280.8</ele>
        <time>2026-03-25T10:22:06Z</time>
      </trkpt>
      <trkpt lat="44.68954" lon="6.86201">
        <ele>2280.8</ele>
        <time>2026-03-25T10:22:07Z</time>
      </trkpt>
      <trkpt lat="44.68954" lon="6.86202">
        <ele>2280.8</ele>
        <time>2026-03-25T10:22:08Z</time>
      </trkpt>
      <trkpt lat="44.68954" lon="6.86202">
        <ele>2280.8</ele>
        <time>2026-03-25T10:22:09Z</time>
      </trkpt>
      <trkpt lat="44.68953" lon="6.86203">
        <ele>2280.8</ele>
        <time>2026-03-25T10:22:10Z</time>
      </trkpt>
      <trkpt lat="44.68953" lon="6.86204">
        <ele>2281.9</ele>
        <time>2026-03-25T10:22:11Z</time>
      </trkpt>
      <trkpt lat="44.68953" lon="6.86204">
        <ele>2281.9</ele>
        <time>2026-03-25T10:22:12Z</time>
      </trkpt>
      <trkpt lat="44.68953" lon="6.86205">
        <ele>2281.5</ele>
        <time>2026-03-25T10:22:13Z</time>
      </trkpt>
      <trkpt lat="44.68952" lon="6.86206">
        <ele>2281.5</ele>
        <time>2026-03-25T10:22:14Z</time>
      </trkpt>
      <trkpt lat="44.68952" lon="6.86207">
        <ele>2281.5</ele>
        <time>2026-03-25T10:22:15Z</time>
      </trkpt>
      <trkpt lat="44.68952" lon="6.86207">
        <ele>2281.5</ele>
        <time>2026-03-25T10:22:16Z</time>
      </trkpt>
      <trkpt lat="44.68952" lon="6.86207">
        <ele>2281.5</ele>
        <time>2026-03-25T10:22:17Z</time>
      </trkpt>
      <trkpt lat="44.68952" lon="6.86207">
        <ele>2281.5</ele>
        <time>2026-03-25T10:22:18Z</time>
      </trkpt>
      <trkpt lat="44.68952" lon="6.86208">
        <ele>2281.5</ele>
        <time>2026-03-25T10:22:19Z</time>
      </trkpt>
      <trkpt lat="44.68952" lon="6.86208">
        <ele>2281.5</ele>
        <time>2026-03-25T10:22:20Z</time>
      </trkpt>
      <trkpt lat="44.68952" lon="6.86208">
        <ele>2282.5</ele>
        <time>2026-03-25T10:22:21Z</time>
      </trkpt>
      <trkpt lat="44.68952" lon="6.86209">
        <ele>2282.5</ele>
        <time>2026-03-25T10:22:22Z</time>
      </trkpt>
      <trkpt lat="44.68951" lon="6.86209">
        <ele>2282.5</ele>
        <time>2026-03-25T10:22:23Z</time>
      </trkpt>
      <trkpt lat="44.6895" lon="6.8621">
        <ele>2282.5</ele>
        <time>2026-03-25T10:22:24Z</time>
      </trkpt>
      <trkpt lat="44.6895" lon="6.8621">
        <ele>2282.5</ele>
        <time>2026-03-25T10:22:25Z</time>
      </trkpt>
      <trkpt lat="44.68949" lon="6.86211">
        <ele>2282.1</ele>
        <time>2026-03-25T10:22:26Z</time>
      </trkpt>
      <trkpt lat="44.68949" lon="6.86211">
        <ele>2282.1</ele>
        <time>2026-03-25T10:22:27Z</time>
      </trkpt>
      <trkpt lat="44.68948" lon="6.86212">
        <ele>2282.1</ele>
        <time>2026-03-25T10:22:28Z</time>
      </trkpt>
      <trkpt lat="44.68948" lon="6.86213">
        <ele>2283.2</ele>
        <time>2026-03-25T10:22:29Z</time>
      </trkpt>
      <trkpt lat="44.68947" lon="6.86213">
        <ele>2283.2</ele>
        <time>2026-03-25T10:22:30Z</time>
      </trkpt>
      <trkpt lat="44.68947" lon="6.86214">
        <ele>2283.2</ele>
        <time>2026-03-25T10:22:31Z</time>
      </trkpt>
      <trkpt lat="44.68947" lon="6.86214">
        <ele>2283.2</ele>
        <time>2026-03-25T10:22:32Z</time>
      </trkpt>
      <trkpt lat="44.68947" lon="6.86214">
        <ele>2283.2</ele>
        <time>2026-03-25T10:22:33Z</time>
      </trkpt>
      <trkpt lat="44.68946" lon="6.86214">
        <ele>2282.7</ele>
        <time>2026-03-25T10:22:34Z</time>
      </trkpt>
      <trkpt lat="44.68946" lon="6.86215">
        <ele>2282.7</ele>
        <time>2026-03-25T10:22:35Z</time>
      </trkpt>
      <trkpt lat="44.68946" lon="6.86215">
        <ele>2282.7</ele>
        <time>2026-03-25T10:22:36Z</time>
      </trkpt>
      <trkpt lat="44.68946" lon="6.86215">
        <ele>2282.7</ele>
        <time>2026-03-25T10:22:37Z</time>
      </trkpt>
      <trkpt lat="44.68946" lon="6.86216">
        <ele>2282.7</ele>
        <time>2026-03-25T10:22:38Z</time>
      </trkpt>
      <trkpt lat="44.68946" lon="6.86216">
        <ele>2282.7</ele>
        <time>2026-03-25T10:22:39Z</time>
      </trkpt>
      <trkpt lat="44.68946" lon="6.86216">
        <ele>2283.8</ele>
        <time>2026-03-25T10:22:40Z</time>
      </trkpt>
      <trkpt lat="44.68946" lon="6.86217">
        <ele>2283.8</ele>
        <time>2026-03-25T10:22:41Z</time>
      </trkpt>
      <trkpt lat="44.68945" lon="6.86217">
        <ele>2283.8</ele>
        <time>2026-03-25T10:22:42Z</time>
      </trkpt>
      <trkpt lat="44.68945" lon="6.86218">
        <ele>2283.8</ele>
        <time>2026-03-25T10:22:43Z</time>
      </trkpt>
      <trkpt lat="44.68944" lon="6.86219">
        <ele>2283.8</ele>
        <time>2026-03-25T10:22:44Z</time>
      </trkpt>
      <trkpt lat="44.68944" lon="6.86219">
        <ele>2283.8</ele>
        <time>2026-03-25T10:22:45Z</time>
      </trkpt>
      <trkpt lat="44.68944" lon="6.8622">
        <ele>2283.8</ele>
        <time>2026-03-25T10:22:46Z</time>
      </trkpt>
      <trkpt lat="44.68943" lon="6.8622">
        <ele>2283.3</ele>
        <time>2026-03-25T10:22:47Z</time>
      </trkpt>
      <trkpt lat="44.68943" lon="6.86221">
        <ele>2284.3</ele>
        <time>2026-03-25T10:22:48Z</time>
      </trkpt>
      <trkpt lat="44.68943" lon="6.86222">
        <ele>2284.3</ele>
        <time>2026-03-25T10:22:49Z</time>
      </trkpt>
      <trkpt lat="44.68942" lon="6.86222">
        <ele>2284.3</ele>
        <time>2026-03-25T10:22:50Z</time>
      </trkpt>
      <trkpt lat="44.68942" lon="6.86222">
        <ele>2284.3</ele>
        <time>2026-03-25T10:22:51Z</time>
      </trkpt>
      <trkpt lat="44.68942" lon="6.86223">
        <ele>2284.3</ele>
        <time>2026-03-25T10:22:52Z</time>
      </trkpt>
      <trkpt lat="44.68941" lon="6.86223">
        <ele>2284.3</ele>
        <time>2026-03-25T10:22:53Z</time>
      </trkpt>
      <trkpt lat="44.68941" lon="6.86224">
        <ele>2284.3</ele>
        <time>2026-03-25T10:22:54Z</time>
      </trkpt>
      <trkpt lat="44.68941" lon="6.86224">
        <ele>2284.3</ele>
        <time>2026-03-25T10:22:55Z</time>
      </trkpt>
      <trkpt lat="44.6894" lon="6.86224">
        <ele>2284.3</ele>
        <time>2026-03-25T10:22:56Z</time>
      </trkpt>
      <trkpt lat="44.6894" lon="6.86224">
        <ele>2283.9</ele>
        <time>2026-03-25T10:22:57Z</time>
      </trkpt>
      <trkpt lat="44.6894" lon="6.86225">
        <ele>2283.9</ele>
        <time>2026-03-25T10:22:58Z</time>
      </trkpt>
      <trkpt lat="44.68941" lon="6.86225">
        <ele>2284.3</ele>
        <time>2026-03-25T10:22:59Z</time>
      </trkpt>
      <trkpt lat="44.6894" lon="6.86226">
        <ele>2284.9</ele>
        <time>2026-03-25T10:23:00Z</time>
      </trkpt>
      <trkpt lat="44.6894" lon="6.86226">
        <ele>2284.9</ele>
        <time>2026-03-25T10:23:01Z</time>
      </trkpt>
      <trkpt lat="44.6894" lon="6.86226">
        <ele>2284.9</ele>
        <time>2026-03-25T10:23:02Z</time>
      </trkpt>
      <trkpt lat="44.6894" lon="6.86226">
        <ele>2284.9</ele>
        <time>2026-03-25T10:23:03Z</time>
      </trkpt>
      <trkpt lat="44.6894" lon="6.86226">
        <ele>2284.9</ele>
        <time>2026-03-25T10:23:04Z</time>
      </trkpt>
      <trkpt lat="44.6894" lon="6.86226">
        <ele>2284.9</ele>
        <time>2026-03-25T10:23:05Z</time>
      </trkpt>
      <trkpt lat="44.6894" lon="6.86226">
        <ele>2284.9</ele>
        <time>2026-03-25T10:23:06Z</time>
      </trkpt>
      <trkpt lat="44.6894" lon="6.86226">
        <ele>2284.9</ele>
        <time>2026-03-25T10:23:07Z</time>
      </trkpt>
      <trkpt lat="44.6894" lon="6.86226">
        <ele>2284.9</ele>
        <time>2026-03-25T10:23:08Z</time>
      </trkpt>
      <trkpt lat="44.6894" lon="6.86226">
        <ele>2284.9</ele>
        <time>2026-03-25T10:23:09Z</time>
      </trkpt>
      <trkpt lat="44.6894" lon="6.86226">
        <ele>2284.9</ele>
        <time>2026-03-25T10:23:10Z</time>
      </trkpt>
      <trkpt lat="44.6894" lon="6.86227">
        <ele>2284.9</ele>
        <time>2026-03-25T10:23:11Z</time>
      </trkpt>
      <trkpt lat="44.6894" lon="6.86227">
        <ele>2284.9</ele>
        <time>2026-03-25T10:23:12Z</time>
      </trkpt>
      <trkpt lat="44.68939" lon="6.86227">
        <ele>2284.9</ele>
        <time>2026-03-25T10:23:13Z</time>
      </trkpt>
      <trkpt lat="44.68939" lon="6.86228">
        <ele>2284.9</ele>
        <time>2026-03-25T10:23:14Z</time>
      </trkpt>
      <trkpt lat="44.68939" lon="6.86229">
        <ele>2284.9</ele>
        <time>2026-03-25T10:23:15Z</time>
      </trkpt>
      <trkpt lat="44.68939" lon="6.8623">
        <ele>2285.9</ele>
        <time>2026-03-25T10:23:16Z</time>
      </trkpt>
      <trkpt lat="44.68938" lon="6.8623">
        <ele>2285.9</ele>
        <time>2026-03-25T10:23:17Z</time>
      </trkpt>
      <trkpt lat="44.68938" lon="6.86231">
        <ele>2285.9</ele>
        <time>2026-03-25T10:23:18Z</time>
      </trkpt>
      <trkpt lat="44.68937" lon="6.86232">
        <ele>2285.9</ele>
        <time>2026-03-25T10:23:19Z</time>
      </trkpt>
      <trkpt lat="44.68937" lon="6.86232">
        <ele>2285.5</ele>
        <time>2026-03-25T10:23:20Z</time>
      </trkpt>
      <trkpt lat="44.68937" lon="6.86233">
        <ele>2285.5</ele>
        <time>2026-03-25T10:23:21Z</time>
      </trkpt>
      <trkpt lat="44.68936" lon="6.86233">
        <ele>2285.5</ele>
        <time>2026-03-25T10:23:22Z</time>
      </trkpt>
      <trkpt lat="44.68936" lon="6.86234">
        <ele>2286.5</ele>
        <time>2026-03-25T10:23:23Z</time>
      </trkpt>
      <trkpt lat="44.68936" lon="6.86235">
        <ele>2286.5</ele>
        <time>2026-03-25T10:23:24Z</time>
      </trkpt>
      <trkpt lat="44.68935" lon="6.86236">
        <ele>2286.5</ele>
        <time>2026-03-25T10:23:25Z</time>
      </trkpt>
      <trkpt lat="44.68935" lon="6.86236">
        <ele>2286.5</ele>
        <time>2026-03-25T10:23:26Z</time>
      </trkpt>
      <trkpt lat="44.68935" lon="6.86237">
        <ele>2286.5</ele>
        <time>2026-03-25T10:23:27Z</time>
      </trkpt>
      <trkpt lat="44.68934" lon="6.86238">
        <ele>2286.1</ele>
        <time>2026-03-25T10:23:28Z</time>
      </trkpt>
      <trkpt lat="44.68934" lon="6.86238">
        <ele>2287.3</ele>
        <time>2026-03-25T10:23:29Z</time>
      </trkpt>
      <trkpt lat="44.68933" lon="6.86239">
        <ele>2287.3</ele>
        <time>2026-03-25T10:23:30Z</time>
      </trkpt>
      <trkpt lat="44.68934" lon="6.86239">
        <ele>2287.3</ele>
        <time>2026-03-25T10:23:31Z</time>
      </trkpt>
      <trkpt lat="44.68933" lon="6.86239">
        <ele>2287.3</ele>
        <time>2026-03-25T10:23:32Z</time>
      </trkpt>
      <trkpt lat="44.68933" lon="6.86239">
        <ele>2287.3</ele>
        <time>2026-03-25T10:23:33Z</time>
      </trkpt>
      <trkpt lat="44.68933" lon="6.8624">
        <ele>2287.3</ele>
        <time>2026-03-25T10:23:34Z</time>
      </trkpt>
      <trkpt lat="44.68933" lon="6.8624">
        <ele>2287.3</ele>
        <time>2026-03-25T10:23:35Z</time>
      </trkpt>
      <trkpt lat="44.68932" lon="6.8624">
        <ele>2287.3</ele>
        <time>2026-03-25T10:23:36Z</time>
      </trkpt>
      <trkpt lat="44.68932" lon="6.86241">
        <ele>2287.3</ele>
        <time>2026-03-25T10:23:37Z</time>
      </trkpt>
      <trkpt lat="44.68932" lon="6.86242">
        <ele>2287.3</ele>
        <time>2026-03-25T10:23:38Z</time>
      </trkpt>
      <trkpt lat="44.68932" lon="6.86242">
        <ele>2287.3</ele>
        <time>2026-03-25T10:23:39Z</time>
      </trkpt>
      <trkpt lat="44.68931" lon="6.86243">
        <ele>2288.1</ele>
        <time>2026-03-25T10:23:40Z</time>
      </trkpt>
      <trkpt lat="44.68931" lon="6.86243">
        <ele>2288.1</ele>
        <time>2026-03-25T10:23:41Z</time>
      </trkpt>
      <trkpt lat="44.68931" lon="6.86243">
        <ele>2288.1</ele>
        <time>2026-03-25T10:23:42Z</time>
      </trkpt>
      <trkpt lat="44.68931" lon="6.86244">
        <ele>2288.1</ele>
        <time>2026-03-25T10:23:43Z</time>
      </trkpt>
      <trkpt lat="44.6893" lon="6.86244">
        <ele>2288.1</ele>
        <time>2026-03-25T10:23:44Z</time>
      </trkpt>
      <trkpt lat="44.6893" lon="6.86245">
        <ele>2288.1</ele>
        <time>2026-03-25T10:23:45Z</time>
      </trkpt>
      <trkpt lat="44.6893" lon="6.86245">
        <ele>2288.1</ele>
        <time>2026-03-25T10:23:46Z</time>
      </trkpt>
      <trkpt lat="44.68929" lon="6.86245">
        <ele>2288.1</ele>
        <time>2026-03-25T10:23:47Z</time>
      </trkpt>
      <trkpt lat="44.68929" lon="6.86246">
        <ele>2288.1</ele>
        <time>2026-03-25T10:23:48Z</time>
      </trkpt>
      <trkpt lat="44.68929" lon="6.86246">
        <ele>2288.1</ele>
        <time>2026-03-25T10:23:49Z</time>
      </trkpt>
      <trkpt lat="44.68929" lon="6.86245">
        <ele>2288.1</ele>
        <time>2026-03-25T10:23:50Z</time>
      </trkpt>
      <trkpt lat="44.68929" lon="6.86245">
        <ele>2288.1</ele>
        <time>2026-03-25T10:23:51Z</time>
      </trkpt>
      <trkpt lat="44.68929" lon="6.86245">
        <ele>2288.1</ele>
        <time>2026-03-25T10:23:52Z</time>
      </trkpt>
      <trkpt lat="44.68929" lon="6.86246">
        <ele>2288.1</ele>
        <time>2026-03-25T10:23:53Z</time>
      </trkpt>
      <trkpt lat="44.68929" lon="6.86246">
        <ele>2288.1</ele>
        <time>2026-03-25T10:23:54Z</time>
      </trkpt>
      <trkpt lat="44.68929" lon="6.86246">
        <ele>2288.1</ele>
        <time>2026-03-25T10:23:55Z</time>
      </trkpt>
      <trkpt lat="44.68929" lon="6.86247">
        <ele>2289.4</ele>
        <time>2026-03-25T10:23:56Z</time>
      </trkpt>
      <trkpt lat="44.68928" lon="6.86247">
        <ele>2289.4</ele>
        <time>2026-03-25T10:23:57Z</time>
      </trkpt>
      <trkpt lat="44.68928" lon="6.86247">
        <ele>2289.4</ele>
        <time>2026-03-25T10:23:58Z</time>
      </trkpt>
      <trkpt lat="44.68928" lon="6.86247">
        <ele>2289.4</ele>
        <time>2026-03-25T10:23:59Z</time>
      </trkpt>
      <trkpt lat="44.68928" lon="6.86247">
        <ele>2289.4</ele>
        <time>2026-03-25T10:24:00Z</time>
      </trkpt>
      <trkpt lat="44.68928" lon="6.86248">
        <ele>2289.1</ele>
        <time>2026-03-25T10:24:01Z</time>
      </trkpt>
      <trkpt lat="44.68928" lon="6.86248">
        <ele>2289.1</ele>
        <time>2026-03-25T10:24:02Z</time>
      </trkpt>
      <trkpt lat="44.68928" lon="6.86248">
        <ele>2289.1</ele>
        <time>2026-03-25T10:24:03Z</time>
      </trkpt>
      <trkpt lat="44.68928" lon="6.86249">
        <ele>2289.1</ele>
        <time>2026-03-25T10:24:04Z</time>
      </trkpt>
      <trkpt lat="44.68928" lon="6.86249">
        <ele>2289.1</ele>
        <time>2026-03-25T10:24:05Z</time>
      </trkpt>
      <trkpt lat="44.68927" lon="6.86249">
        <ele>2289.1</ele>
        <time>2026-03-25T10:24:06Z</time>
      </trkpt>
      <trkpt lat="44.68927" lon="6.8625">
        <ele>2289.1</ele>
        <time>2026-03-25T10:24:07Z</time>
      </trkpt>
      <trkpt lat="44.68927" lon="6.8625">
        <ele>2289.1</ele>
        <time>2026-03-25T10:24:08Z</time>
      </trkpt>
      <trkpt lat="44.68927" lon="6.8625">
        <ele>2289.1</ele>
        <time>2026-03-25T10:24:09Z</time>
      </trkpt>
      <trkpt lat="44.68927" lon="6.86251">
        <ele>2290.5</ele>
        <time>2026-03-25T10:24:10Z</time>
      </trkpt>
      <trkpt lat="44.68927" lon="6.86251">
        <ele>2290.5</ele>
        <time>2026-03-25T10:24:11Z</time>
      </trkpt>
      <trkpt lat="44.68927" lon="6.86251">
        <ele>2290.5</ele>
        <time>2026-03-25T10:24:12Z</time>
      </trkpt>
      <trkpt lat="44.68927" lon="6.86251">
        <ele>2290.5</ele>
        <time>2026-03-25T10:24:13Z</time>
      </trkpt>
      <trkpt lat="44.68926" lon="6.86252">
        <ele>2290.5</ele>
        <time>2026-03-25T10:24:14Z</time>
      </trkpt>
      <trkpt lat="44.68926" lon="6.86252">
        <ele>2290.5</ele>
        <time>2026-03-25T10:24:15Z</time>
      </trkpt>
      <trkpt lat="44.68926" lon="6.86253">
        <ele>2290.5</ele>
        <time>2026-03-25T10:24:16Z</time>
      </trkpt>
      <trkpt lat="44.68925" lon="6.86254">
        <ele>2290.5</ele>
        <time>2026-03-25T10:24:17Z</time>
      </trkpt>
      <trkpt lat="44.68925" lon="6.86255">
        <ele>2291.6</ele>
        <time>2026-03-25T10:24:18Z</time>
      </trkpt>
      <trkpt lat="44.68924" lon="6.86256">
        <ele>2291.6</ele>
        <time>2026-03-25T10:24:19Z</time>
      </trkpt>
      <trkpt lat="44.68924" lon="6.86257">
        <ele>2291.6</ele>
        <time>2026-03-25T10:24:20Z</time>
      </trkpt>
      <trkpt lat="44.68924" lon="6.86258">
        <ele>2291.6</ele>
        <time>2026-03-25T10:24:21Z</time>
      </trkpt>
      <trkpt lat="44.68923" lon="6.86259">
        <ele>2291.6</ele>
        <time>2026-03-25T10:24:22Z</time>
      </trkpt>
      <trkpt lat="44.68923" lon="6.86259">
        <ele>2291.6</ele>
        <time>2026-03-25T10:24:23Z</time>
      </trkpt>
      <trkpt lat="44.68922" lon="6.8626">
        <ele>2292.7</ele>
        <time>2026-03-25T10:24:24Z</time>
      </trkpt>
      <trkpt lat="44.68922" lon="6.8626">
        <ele>2292.7</ele>
        <time>2026-03-25T10:24:25Z</time>
      </trkpt>
      <trkpt lat="44.68921" lon="6.86261">
        <ele>2292.7</ele>
        <time>2026-03-25T10:24:26Z</time>
      </trkpt>
      <trkpt lat="44.68921" lon="6.86262">
        <ele>2292.7</ele>
        <time>2026-03-25T10:24:27Z</time>
      </trkpt>
      <trkpt lat="44.68921" lon="6.86262">
        <ele>2292.7</ele>
        <time>2026-03-25T10:24:28Z</time>
      </trkpt>
      <trkpt lat="44.68921" lon="6.86262">
        <ele>2292.7</ele>
        <time>2026-03-25T10:24:29Z</time>
      </trkpt>
      <trkpt lat="44.6892" lon="6.86263">
        <ele>2292.7</ele>
        <time>2026-03-25T10:24:30Z</time>
      </trkpt>
      <trkpt lat="44.6892" lon="6.86263">
        <ele>2292.7</ele>
        <time>2026-03-25T10:24:31Z</time>
      </trkpt>
      <trkpt lat="44.68919" lon="6.86264">
        <ele>2293.9</ele>
        <time>2026-03-25T10:24:32Z</time>
      </trkpt>
      <trkpt lat="44.68919" lon="6.86264">
        <ele>2293.9</ele>
        <time>2026-03-25T10:24:33Z</time>
      </trkpt>
      <trkpt lat="44.68919" lon="6.86265">
        <ele>2293.7</ele>
        <time>2026-03-25T10:24:34Z</time>
      </trkpt>
      <trkpt lat="44.68918" lon="6.86265">
        <ele>2293.7</ele>
        <time>2026-03-25T10:24:35Z</time>
      </trkpt>
      <trkpt lat="44.68918" lon="6.86265">
        <ele>2293.7</ele>
        <time>2026-03-25T10:24:36Z</time>
      </trkpt>
      <trkpt lat="44.68917" lon="6.86265">
        <ele>2293.7</ele>
        <time>2026-03-25T10:24:37Z</time>
      </trkpt>
      <trkpt lat="44.68917" lon="6.86266">
        <ele>2293.7</ele>
        <time>2026-03-25T10:24:38Z</time>
      </trkpt>
      <trkpt lat="44.68917" lon="6.86266">
        <ele>2293.7</ele>
        <time>2026-03-25T10:24:39Z</time>
      </trkpt>
      <trkpt lat="44.68917" lon="6.86266">
        <ele>2293.7</ele>
        <time>2026-03-25T10:24:40Z</time>
      </trkpt>
      <trkpt lat="44.68916" lon="6.86266">
        <ele>2293.7</ele>
        <time>2026-03-25T10:24:41Z</time>
      </trkpt>
      <trkpt lat="44.68916" lon="6.86267">
        <ele>2293.7</ele>
        <time>2026-03-25T10:24:42Z</time>
      </trkpt>
      <trkpt lat="44.68916" lon="6.86267">
        <ele>2293.4</ele>
        <time>2026-03-25T10:24:43Z</time>
      </trkpt>
      <trkpt lat="44.68916" lon="6.86267">
        <ele>2293.4</ele>
        <time>2026-03-25T10:24:44Z</time>
      </trkpt>
      <trkpt lat="44.68915" lon="6.86267">
        <ele>2293.4</ele>
        <time>2026-03-25T10:24:45Z</time>
      </trkpt>
      <trkpt lat="44.68915" lon="6.86267">
        <ele>2293.4</ele>
        <time>2026-03-25T10:24:46Z</time>
      </trkpt>
      <trkpt lat="44.68915" lon="6.86268">
        <ele>2293.4</ele>
        <time>2026-03-25T10:24:47Z</time>
      </trkpt>
      <trkpt lat="44.68915" lon="6.86268">
        <ele>2293.4</ele>
        <time>2026-03-25T10:24:48Z</time>
      </trkpt>
      <trkpt lat="44.68914" lon="6.86268">
        <ele>2294.7</ele>
        <time>2026-03-25T10:24:49Z</time>
      </trkpt>
      <trkpt lat="44.68914" lon="6.86268">
        <ele>2294.7</ele>
        <time>2026-03-25T10:24:50Z</time>
      </trkpt>
      <trkpt lat="44.68914" lon="6.86268">
        <ele>2294.7</ele>
        <time>2026-03-25T10:24:51Z</time>
      </trkpt>
      <trkpt lat="44.68913" lon="6.86269">
        <ele>2294.7</ele>
        <time>2026-03-25T10:24:52Z</time>
      </trkpt>
      <trkpt lat="44.68913" lon="6.86269">
        <ele>2294.4</ele>
        <time>2026-03-25T10:24:53Z</time>
      </trkpt>
      <trkpt lat="44.68912" lon="6.86269">
        <ele>2294.4</ele>
        <time>2026-03-25T10:24:54Z</time>
      </trkpt>
      <trkpt lat="44.68912" lon="6.8627">
        <ele>2294.4</ele>
        <time>2026-03-25T10:24:55Z</time>
      </trkpt>
      <trkpt lat="44.68911" lon="6.8627">
        <ele>2294.4</ele>
        <time>2026-03-25T10:24:56Z</time>
      </trkpt>
      <trkpt lat="44.68911" lon="6.86271">
        <ele>2294.4</ele>
        <time>2026-03-25T10:24:57Z</time>
      </trkpt>
      <trkpt lat="44.68911" lon="6.86271">
        <ele>2294.4</ele>
        <time>2026-03-25T10:24:58Z</time>
      </trkpt>
      <trkpt lat="44.6891" lon="6.86272">
        <ele>2294.4</ele>
        <time>2026-03-25T10:24:59Z</time>
      </trkpt>
      <trkpt lat="44.6891" lon="6.86272">
        <ele>2295.5</ele>
        <time>2026-03-25T10:25:00Z</time>
      </trkpt>
      <trkpt lat="44.68909" lon="6.86273">
        <ele>2295.5</ele>
        <time>2026-03-25T10:25:01Z</time>
      </trkpt>
      <trkpt lat="44.68909" lon="6.86274">
        <ele>2295.5</ele>
        <time>2026-03-25T10:25:02Z</time>
      </trkpt>
      <trkpt lat="44.68909" lon="6.86274">
        <ele>2295.5</ele>
        <time>2026-03-25T10:25:03Z</time>
      </trkpt>
      <trkpt lat="44.68908" lon="6.86275">
        <ele>2295.5</ele>
        <time>2026-03-25T10:25:04Z</time>
      </trkpt>
      <trkpt lat="44.68908" lon="6.86275">
        <ele>2295.5</ele>
        <time>2026-03-25T10:25:05Z</time>
      </trkpt>
      <trkpt lat="44.68908" lon="6.86276">
        <ele>2295.5</ele>
        <time>2026-03-25T10:25:06Z</time>
      </trkpt>
      <trkpt lat="44.68907" lon="6.86276">
        <ele>2295.5</ele>
        <time>2026-03-25T10:25:07Z</time>
      </trkpt>
      <trkpt lat="44.68906" lon="6.86277">
        <ele>2296.5</ele>
        <time>2026-03-25T10:25:08Z</time>
      </trkpt>
      <trkpt lat="44.68906" lon="6.86277">
        <ele>2296.5</ele>
        <time>2026-03-25T10:25:09Z</time>
      </trkpt>
      <trkpt lat="44.68905" lon="6.86278">
        <ele>2296.5</ele>
        <time>2026-03-25T10:25:10Z</time>
      </trkpt>
      <trkpt lat="44.68904" lon="6.86278">
        <ele>2296.5</ele>
        <time>2026-03-25T10:25:11Z</time>
      </trkpt>
      <trkpt lat="44.68903" lon="6.86278">
        <ele>2296.3</ele>
        <time>2026-03-25T10:25:12Z</time>
      </trkpt>
      <trkpt lat="44.68903" lon="6.86279">
        <ele>2296.3</ele>
        <time>2026-03-25T10:25:13Z</time>
      </trkpt>
      <trkpt lat="44.68903" lon="6.86279">
        <ele>2296.3</ele>
        <time>2026-03-25T10:25:14Z</time>
      </trkpt>
      <trkpt lat="44.68902" lon="6.8628">
        <ele>2296.3</ele>
        <time>2026-03-25T10:25:15Z</time>
      </trkpt>
      <trkpt lat="44.68902" lon="6.8628">
        <ele>2296.3</ele>
        <time>2026-03-25T10:25:16Z</time>
      </trkpt>
      <trkpt lat="44.68902" lon="6.86281">
        <ele>2296.3</ele>
        <time>2026-03-25T10:25:17Z</time>
      </trkpt>
      <trkpt lat="44.68902" lon="6.86281">
        <ele>2296.3</ele>
        <time>2026-03-25T10:25:18Z</time>
      </trkpt>
      <trkpt lat="44.68902" lon="6.86281">
        <ele>2296.3</ele>
        <time>2026-03-25T10:25:19Z</time>
      </trkpt>
      <trkpt lat="44.68901" lon="6.86281">
        <ele>2297.6</ele>
        <time>2026-03-25T10:25:20Z</time>
      </trkpt>
      <trkpt lat="44.68901" lon="6.86282">
        <ele>2297.6</ele>
        <time>2026-03-25T10:25:21Z</time>
      </trkpt>
      <trkpt lat="44.689" lon="6.86282">
        <ele>2297.4</ele>
        <time>2026-03-25T10:25:22Z</time>
      </trkpt>
      <trkpt lat="44.689" lon="6.86282">
        <ele>2297.4</ele>
        <time>2026-03-25T10:25:23Z</time>
      </trkpt>
      <trkpt lat="44.689" lon="6.86282">
        <ele>2297.4</ele>
        <time>2026-03-25T10:25:24Z</time>
      </trkpt>
      <trkpt lat="44.689" lon="6.86282">
        <ele>2297.4</ele>
        <time>2026-03-25T10:25:25Z</time>
      </trkpt>
      <trkpt lat="44.68899" lon="6.86282">
        <ele>2297.4</ele>
        <time>2026-03-25T10:25:26Z</time>
      </trkpt>
      <trkpt lat="44.68899" lon="6.86283">
        <ele>2297.4</ele>
        <time>2026-03-25T10:25:27Z</time>
      </trkpt>
      <trkpt lat="44.68898" lon="6.86283">
        <ele>2297.4</ele>
        <time>2026-03-25T10:25:28Z</time>
      </trkpt>
      <trkpt lat="44.68898" lon="6.86284">
        <ele>2297.4</ele>
        <time>2026-03-25T10:25:29Z</time>
      </trkpt>
      <trkpt lat="44.68898" lon="6.86284">
        <ele>2297.2</ele>
        <time>2026-03-25T10:25:30Z</time>
      </trkpt>
      <trkpt lat="44.68897" lon="6.86284">
        <ele>2297.2</ele>
        <time>2026-03-25T10:25:31Z</time>
      </trkpt>
      <trkpt lat="44.68897" lon="6.86284">
        <ele>2297.2</ele>
        <time>2026-03-25T10:25:32Z</time>
      </trkpt>
      <trkpt lat="44.68896" lon="6.86284">
        <ele>2297.2</ele>
        <time>2026-03-25T10:25:33Z</time>
      </trkpt>
      <trkpt lat="44.68896" lon="6.86285">
        <ele>2297.2</ele>
        <time>2026-03-25T10:25:34Z</time>
      </trkpt>
      <trkpt lat="44.68896" lon="6.86284">
        <ele>2297.2</ele>
        <time>2026-03-25T10:25:35Z</time>
      </trkpt>
      <trkpt lat="44.68896" lon="6.86284">
        <ele>2297.2</ele>
        <time>2026-03-25T10:25:36Z</time>
      </trkpt>
      <trkpt lat="44.68895" lon="6.86284">
        <ele>2297.2</ele>
        <time>2026-03-25T10:25:37Z</time>
      </trkpt>
      <trkpt lat="44.68895" lon="6.86284">
        <ele>2296.9</ele>
        <time>2026-03-25T10:25:38Z</time>
      </trkpt>
      <trkpt lat="44.68894" lon="6.86284">
        <ele>2296.9</ele>
        <time>2026-03-25T10:25:39Z</time>
      </trkpt>
      <trkpt lat="44.68893" lon="6.86284">
        <ele>2296.9</ele>
        <time>2026-03-25T10:25:40Z</time>
      </trkpt>
      <trkpt lat="44.68893" lon="6.86285">
        <ele>2296.9</ele>
        <time>2026-03-25T10:25:41Z</time>
      </trkpt>
      <trkpt lat="44.68892" lon="6.86285">
        <ele>2296.9</ele>
        <time>2026-03-25T10:25:42Z</time>
      </trkpt>
      <trkpt lat="44.68892" lon="6.86285">
        <ele>2296.9</ele>
        <time>2026-03-25T10:25:43Z</time>
      </trkpt>
      <trkpt lat="44.68891" lon="6.86285">
        <ele>2296.6</ele>
        <time>2026-03-25T10:25:44Z</time>
      </trkpt>
      <trkpt lat="44.68891" lon="6.86285">
        <ele>2296.6</ele>
        <time>2026-03-25T10:25:45Z</time>
      </trkpt>
      <trkpt lat="44.6889" lon="6.86285">
        <ele>2298</ele>
        <time>2026-03-25T10:25:46Z</time>
      </trkpt>
      <trkpt lat="44.6889" lon="6.86285">
        <ele>2298</ele>
        <time>2026-03-25T10:25:47Z</time>
      </trkpt>
      <trkpt lat="44.6889" lon="6.86285">
        <ele>2298</ele>
        <time>2026-03-25T10:25:48Z</time>
      </trkpt>
      <trkpt lat="44.6889" lon="6.86286">
        <ele>2298</ele>
        <time>2026-03-25T10:25:49Z</time>
      </trkpt>
      <trkpt lat="44.68889" lon="6.86286">
        <ele>2298</ele>
        <time>2026-03-25T10:25:50Z</time>
      </trkpt>
      <trkpt lat="44.68889" lon="6.86286">
        <ele>2298</ele>
        <time>2026-03-25T10:25:51Z</time>
      </trkpt>
      <trkpt lat="44.68888" lon="6.86286">
        <ele>2297.7</ele>
        <time>2026-03-25T10:25:52Z</time>
      </trkpt>
      <trkpt lat="44.68888" lon="6.86286">
        <ele>2297.7</ele>
        <time>2026-03-25T10:25:53Z</time>
      </trkpt>
      <trkpt lat="44.68887" lon="6.86286">
        <ele>2297.7</ele>
        <time>2026-03-25T10:25:54Z</time>
      </trkpt>
      <trkpt lat="44.68887" lon="6.86286">
        <ele>2297.7</ele>
        <time>2026-03-25T10:25:55Z</time>
      </trkpt>
      <trkpt lat="44.68886" lon="6.86286">
        <ele>2297.7</ele>
        <time>2026-03-25T10:25:56Z</time>
      </trkpt>
      <trkpt lat="44.68886" lon="6.86287">
        <ele>2297.7</ele>
        <time>2026-03-25T10:25:57Z</time>
      </trkpt>
      <trkpt lat="44.68886" lon="6.86287">
        <ele>2297.7</ele>
        <time>2026-03-25T10:25:58Z</time>
      </trkpt>
      <trkpt lat="44.68885" lon="6.86287">
        <ele>2297.3</ele>
        <time>2026-03-25T10:25:59Z</time>
      </trkpt>
      <trkpt lat="44.68885" lon="6.86287">
        <ele>2297.3</ele>
        <time>2026-03-25T10:26:00Z</time>
      </trkpt>
      <trkpt lat="44.68884" lon="6.86287">
        <ele>2297.3</ele>
        <time>2026-03-25T10:26:01Z</time>
      </trkpt>
      <trkpt lat="44.68884" lon="6.86287">
        <ele>2297.3</ele>
        <time>2026-03-25T10:26:02Z</time>
      </trkpt>
      <trkpt lat="44.68884" lon="6.86287">
        <ele>2297.3</ele>
        <time>2026-03-25T10:26:03Z</time>
      </trkpt>
      <trkpt lat="44.68884" lon="6.86287">
        <ele>2297.3</ele>
        <time>2026-03-25T10:26:04Z</time>
      </trkpt>
      <trkpt lat="44.68884" lon="6.86287">
        <ele>2297.3</ele>
        <time>2026-03-25T10:26:05Z</time>
      </trkpt>
      <trkpt lat="44.68883" lon="6.86288">
        <ele>2297.3</ele>
        <time>2026-03-25T10:26:06Z</time>
      </trkpt>
      <trkpt lat="44.68883" lon="6.86288">
        <ele>2297.3</ele>
        <time>2026-03-25T10:26:07Z</time>
      </trkpt>
      <trkpt lat="44.68882" lon="6.86288">
        <ele>2297.3</ele>
        <time>2026-03-25T10:26:08Z</time>
      </trkpt>
      <trkpt lat="44.68882" lon="6.86289">
        <ele>2297</ele>
        <time>2026-03-25T10:26:09Z</time>
      </trkpt>
      <trkpt lat="44.68882" lon="6.8629">
        <ele>2298.4</ele>
        <time>2026-03-25T10:26:10Z</time>
      </trkpt>
      <trkpt lat="44.68882" lon="6.8629">
        <ele>2298.4</ele>
        <time>2026-03-25T10:26:11Z</time>
      </trkpt>
      <trkpt lat="44.68882" lon="6.86291">
        <ele>2298.4</ele>
        <time>2026-03-25T10:26:12Z</time>
      </trkpt>
      <trkpt lat="44.68881" lon="6.86292">
        <ele>2298.4</ele>
        <time>2026-03-25T10:26:13Z</time>
      </trkpt>
      <trkpt lat="44.68881" lon="6.86292">
        <ele>2298.4</ele>
        <time>2026-03-25T10:26:14Z</time>
      </trkpt>
      <trkpt lat="44.68882" lon="6.86293">
        <ele>2298.4</ele>
        <time>2026-03-25T10:26:15Z</time>
      </trkpt>
      <trkpt lat="44.68882" lon="6.86293">
        <ele>2298.4</ele>
        <time>2026-03-25T10:26:16Z</time>
      </trkpt>
      <trkpt lat="44.68882" lon="6.86294">
        <ele>2299.9</ele>
        <time>2026-03-25T10:26:17Z</time>
      </trkpt>
      <trkpt lat="44.68882" lon="6.86294">
        <ele>2299.9</ele>
        <time>2026-03-25T10:26:18Z</time>
      </trkpt>
      <trkpt lat="44.68882" lon="6.86295">
        <ele>2299.9</ele>
        <time>2026-03-25T10:26:19Z</time>
      </trkpt>
      <trkpt lat="44.68882" lon="6.86295">
        <ele>2299.9</ele>
        <time>2026-03-25T10:26:20Z</time>
      </trkpt>
      <trkpt lat="44.68882" lon="6.86296">
        <ele>2299.9</ele>
        <time>2026-03-25T10:26:21Z</time>
      </trkpt>
      <trkpt lat="44.68883" lon="6.86296">
        <ele>2300.2</ele>
        <time>2026-03-25T10:26:22Z</time>
      </trkpt>
      <trkpt lat="44.68883" lon="6.86297">
        <ele>2300.2</ele>
        <time>2026-03-25T10:26:23Z</time>
      </trkpt>
      <trkpt lat="44.68883" lon="6.86297">
        <ele>2300.2</ele>
        <time>2026-03-25T10:26:24Z</time>
      </trkpt>
      <trkpt lat="44.68883" lon="6.86297">
        <ele>2300.2</ele>
        <time>2026-03-25T10:26:25Z</time>
      </trkpt>
      <trkpt lat="44.68883" lon="6.86297">
        <ele>2300.2</ele>
        <time>2026-03-25T10:26:26Z</time>
      </trkpt>
      <trkpt lat="44.68883" lon="6.86298">
        <ele>2300.2</ele>
        <time>2026-03-25T10:26:27Z</time>
      </trkpt>
      <trkpt lat="44.68883" lon="6.86298">
        <ele>2301.6</ele>
        <time>2026-03-25T10:26:28Z</time>
      </trkpt>
      <trkpt lat="44.68883" lon="6.86298">
        <ele>2301.6</ele>
        <time>2026-03-25T10:26:29Z</time>
      </trkpt>
      <trkpt lat="44.68884" lon="6.86299">
        <ele>2301.6</ele>
        <time>2026-03-25T10:26:30Z</time>
      </trkpt>
      <trkpt lat="44.68884" lon="6.86299">
        <ele>2301.6</ele>
        <time>2026-03-25T10:26:31Z</time>
      </trkpt>
      <trkpt lat="44.68884" lon="6.863">
        <ele>2301.6</ele>
        <time>2026-03-25T10:26:32Z</time>
      </trkpt>
      <trkpt lat="44.68884" lon="6.86299">
        <ele>2301.6</ele>
        <time>2026-03-25T10:26:33Z</time>
      </trkpt>
      <trkpt lat="44.68884" lon="6.863">
        <ele>2301.6</ele>
        <time>2026-03-25T10:26:34Z</time>
      </trkpt>
      <trkpt lat="44.68884" lon="6.863">
        <ele>2301.6</ele>
        <time>2026-03-25T10:26:35Z</time>
      </trkpt>
      <trkpt lat="44.68885" lon="6.86301">
        <ele>2301.6</ele>
        <time>2026-03-25T10:26:36Z</time>
      </trkpt>
      <trkpt lat="44.68885" lon="6.86301">
        <ele>2301.6</ele>
        <time>2026-03-25T10:26:37Z</time>
      </trkpt>
      <trkpt lat="44.68885" lon="6.86301">
        <ele>2301.6</ele>
        <time>2026-03-25T10:26:38Z</time>
      </trkpt>
      <trkpt lat="44.68885" lon="6.86302">
        <ele>2301.6</ele>
        <time>2026-03-25T10:26:39Z</time>
      </trkpt>
      <trkpt lat="44.68885" lon="6.86302">
        <ele>2301.6</ele>
        <time>2026-03-25T10:26:40Z</time>
      </trkpt>
      <trkpt lat="44.68886" lon="6.86302">
        <ele>2303.3</ele>
        <time>2026-03-25T10:26:41Z</time>
      </trkpt>
      <trkpt lat="44.68886" lon="6.86302">
        <ele>2303.3</ele>
        <time>2026-03-25T10:26:42Z</time>
      </trkpt>
      <trkpt lat="44.68886" lon="6.86303">
        <ele>2303.3</ele>
        <time>2026-03-25T10:26:43Z</time>
      </trkpt>
      <trkpt lat="44.68886" lon="6.86303">
        <ele>2303.3</ele>
        <time>2026-03-25T10:26:44Z</time>
      </trkpt>
      <trkpt lat="44.68886" lon="6.86303">
        <ele>2303.3</ele>
        <time>2026-03-25T10:26:45Z</time>
      </trkpt>
      <trkpt lat="44.68886" lon="6.86304">
        <ele>2303.3</ele>
        <time>2026-03-25T10:26:46Z</time>
      </trkpt>
      <trkpt lat="44.68886" lon="6.86304">
        <ele>2303.3</ele>
        <time>2026-03-25T10:26:47Z</time>
      </trkpt>
      <trkpt lat="44.68886" lon="6.86304">
        <ele>2303.3</ele>
        <time>2026-03-25T10:26:48Z</time>
      </trkpt>
      <trkpt lat="44.68886" lon="6.86304">
        <ele>2303.3</ele>
        <time>2026-03-25T10:26:49Z</time>
      </trkpt>
      <trkpt lat="44.68887" lon="6.86305">
        <ele>2303.3</ele>
        <time>2026-03-25T10:26:50Z</time>
      </trkpt>
      <trkpt lat="44.68887" lon="6.86305">
        <ele>2303.3</ele>
        <time>2026-03-25T10:26:51Z</time>
      </trkpt>
      <trkpt lat="44.68887" lon="6.86305">
        <ele>2303.3</ele>
        <time>2026-03-25T10:26:52Z</time>
      </trkpt>
      <trkpt lat="44.68887" lon="6.86305">
        <ele>2303.3</ele>
        <time>2026-03-25T10:26:53Z</time>
      </trkpt>
      <trkpt lat="44.68887" lon="6.86306">
        <ele>2303.3</ele>
        <time>2026-03-25T10:26:54Z</time>
      </trkpt>
      <trkpt lat="44.68887" lon="6.86306">
        <ele>2303.3</ele>
        <time>2026-03-25T10:26:55Z</time>
      </trkpt>
      <trkpt lat="44.68888" lon="6.86306">
        <ele>2303.3</ele>
        <time>2026-03-25T10:26:56Z</time>
      </trkpt>
      <trkpt lat="44.68888" lon="6.86307">
        <ele>2304.7</ele>
        <time>2026-03-25T10:26:57Z</time>
      </trkpt>
      <trkpt lat="44.68888" lon="6.86307">
        <ele>2304.7</ele>
        <time>2026-03-25T10:26:58Z</time>
      </trkpt>
      <trkpt lat="44.68888" lon="6.86308">
        <ele>2304.7</ele>
        <time>2026-03-25T10:26:59Z</time>
      </trkpt>
      <trkpt lat="44.68888" lon="6.86308">
        <ele>2304.7</ele>
        <time>2026-03-25T10:27:00Z</time>
      </trkpt>
      <trkpt lat="44.68889" lon="6.86308">
        <ele>2304.9</ele>
        <time>2026-03-25T10:27:01Z</time>
      </trkpt>
      <trkpt lat="44.68889" lon="6.86309">
        <ele>2304.9</ele>
        <time>2026-03-25T10:27:02Z</time>
      </trkpt>
      <trkpt lat="44.68889" lon="6.86308">
        <ele>2304.9</ele>
        <time>2026-03-25T10:27:03Z</time>
      </trkpt>
      <trkpt lat="44.68889" lon="6.86309">
        <ele>2304.9</ele>
        <time>2026-03-25T10:27:04Z</time>
      </trkpt>
      <trkpt lat="44.68889" lon="6.86309">
        <ele>2304.9</ele>
        <time>2026-03-25T10:27:05Z</time>
      </trkpt>
      <trkpt lat="44.6889" lon="6.8631">
        <ele>2304.9</ele>
        <time>2026-03-25T10:27:06Z</time>
      </trkpt>
      <trkpt lat="44.6889" lon="6.8631">
        <ele>2304.9</ele>
        <time>2026-03-25T10:27:07Z</time>
      </trkpt>
      <trkpt lat="44.6889" lon="6.8631">
        <ele>2304.9</ele>
        <time>2026-03-25T10:27:08Z</time>
      </trkpt>
      <trkpt lat="44.6889" lon="6.86311">
        <ele>2304.9</ele>
        <time>2026-03-25T10:27:09Z</time>
      </trkpt>
      <trkpt lat="44.6889" lon="6.86311">
        <ele>2304.9</ele>
        <time>2026-03-25T10:27:10Z</time>
      </trkpt>
      <trkpt lat="44.6889" lon="6.86311">
        <ele>2306.2</ele>
        <time>2026-03-25T10:27:11Z</time>
      </trkpt>
      <trkpt lat="44.6889" lon="6.8631">
        <ele>2304.9</ele>
        <time>2026-03-25T10:27:12Z</time>
      </trkpt>
      <trkpt lat="44.6889" lon="6.8631">
        <ele>2304.9</ele>
        <time>2026-03-25T10:27:13Z</time>
      </trkpt>
      <trkpt lat="44.6889" lon="6.8631">
        <ele>2304.9</ele>
        <time>2026-03-25T10:27:14Z</time>
      </trkpt>
      <trkpt lat="44.6889" lon="6.8631">
        <ele>2304.9</ele>
        <time>2026-03-25T10:27:15Z</time>
      </trkpt>
      <trkpt lat="44.6889" lon="6.8631">
        <ele>2304.9</ele>
        <time>2026-03-25T10:27:16Z</time>
      </trkpt>
      <trkpt lat="44.6889" lon="6.86311">
        <ele>2304.9</ele>
        <time>2026-03-25T10:27:17Z</time>
      </trkpt>
      <trkpt lat="44.6889" lon="6.86311">
        <ele>2304.9</ele>
        <time>2026-03-25T10:27:18Z</time>
      </trkpt>
      <trkpt lat="44.6889" lon="6.86311">
        <ele>2306.2</ele>
        <time>2026-03-25T10:27:19Z</time>
      </trkpt>
      <trkpt lat="44.68891" lon="6.86312">
        <ele>2306.2</ele>
        <time>2026-03-25T10:27:20Z</time>
      </trkpt>
      <trkpt lat="44.68892" lon="6.86313">
        <ele>2306.2</ele>
        <time>2026-03-25T10:27:21Z</time>
      </trkpt>
      <trkpt lat="44.68892" lon="6.86314">
        <ele>2306.5</ele>
        <time>2026-03-25T10:27:22Z</time>
      </trkpt>
      <trkpt lat="44.68893" lon="6.86314">
        <ele>2306.5</ele>
        <time>2026-03-25T10:27:23Z</time>
      </trkpt>
      <trkpt lat="44.68893" lon="6.86314">
        <ele>2306.5</ele>
        <time>2026-03-25T10:27:24Z</time>
      </trkpt>
      <trkpt lat="44.68894" lon="6.86315">
        <ele>2306.5</ele>
        <time>2026-03-25T10:27:25Z</time>
      </trkpt>
      <trkpt lat="44.68894" lon="6.86315">
        <ele>2307.7</ele>
        <time>2026-03-25T10:27:26Z</time>
      </trkpt>
      <trkpt lat="44.68894" lon="6.86315">
        <ele>2307.7</ele>
        <time>2026-03-25T10:27:27Z</time>
      </trkpt>
      <trkpt lat="44.68894" lon="6.86316">
        <ele>2307.7</ele>
        <time>2026-03-25T10:27:28Z</time>
      </trkpt>
      <trkpt lat="44.68894" lon="6.86316">
        <ele>2307.7</ele>
        <time>2026-03-25T10:27:29Z</time>
      </trkpt>
      <trkpt lat="44.68894" lon="6.86316">
        <ele>2307.7</ele>
        <time>2026-03-25T10:27:30Z</time>
      </trkpt>
      <trkpt lat="44.68893" lon="6.86317">
        <ele>2307.7</ele>
        <time>2026-03-25T10:27:31Z</time>
      </trkpt>
      <trkpt lat="44.68893" lon="6.86317">
        <ele>2307.7</ele>
        <time>2026-03-25T10:27:32Z</time>
      </trkpt>
      <trkpt lat="44.68893" lon="6.86317">
        <ele>2307.7</ele>
        <time>2026-03-25T10:27:33Z</time>
      </trkpt>
      <trkpt lat="44.68892" lon="6.86317">
        <ele>2307.7</ele>
        <time>2026-03-25T10:27:34Z</time>
      </trkpt>
      <trkpt lat="44.68892" lon="6.86317">
        <ele>2307.7</ele>
        <time>2026-03-25T10:27:35Z</time>
      </trkpt>
      <trkpt lat="44.68891" lon="6.86318">
        <ele>2307.4</ele>
        <time>2026-03-25T10:27:36Z</time>
      </trkpt>
      <trkpt lat="44.68891" lon="6.86318">
        <ele>2307.4</ele>
        <time>2026-03-25T10:27:37Z</time>
      </trkpt>
      <trkpt lat="44.6889" lon="6.86318">
        <ele>2307.4</ele>
        <time>2026-03-25T10:27:38Z</time>
      </trkpt>
      <trkpt lat="44.6889" lon="6.86319">
        <ele>2307.4</ele>
        <time>2026-03-25T10:27:39Z</time>
      </trkpt>
      <trkpt lat="44.68889" lon="6.86319">
        <ele>2307.4</ele>
        <time>2026-03-25T10:27:40Z</time>
      </trkpt>
      <trkpt lat="44.68889" lon="6.8632">
        <ele>2308.6</ele>
        <time>2026-03-25T10:27:41Z</time>
      </trkpt>
      <trkpt lat="44.68888" lon="6.8632">
        <ele>2308.4</ele>
        <time>2026-03-25T10:27:42Z</time>
      </trkpt>
      <trkpt lat="44.68888" lon="6.8632">
        <ele>2308.4</ele>
        <time>2026-03-25T10:27:43Z</time>
      </trkpt>
      <trkpt lat="44.68888" lon="6.8632">
        <ele>2308.4</ele>
        <time>2026-03-25T10:27:44Z</time>
      </trkpt>
      <trkpt lat="44.68887" lon="6.8632">
        <ele>2308.4</ele>
        <time>2026-03-25T10:27:45Z</time>
      </trkpt>
      <trkpt lat="44.68887" lon="6.86321">
        <ele>2308.4</ele>
        <time>2026-03-25T10:27:46Z</time>
      </trkpt>
      <trkpt lat="44.68887" lon="6.86321">
        <ele>2308.4</ele>
        <time>2026-03-25T10:27:47Z</time>
      </trkpt>
      <trkpt lat="44.68887" lon="6.86321">
        <ele>2308.4</ele>
        <time>2026-03-25T10:27:48Z</time>
      </trkpt>
      <trkpt lat="44.68887" lon="6.86321">
        <ele>2308.4</ele>
        <time>2026-03-25T10:27:49Z</time>
      </trkpt>
      <trkpt lat="44.68886" lon="6.86321">
        <ele>2308.4</ele>
        <time>2026-03-25T10:27:50Z</time>
      </trkpt>
      <trkpt lat="44.68885" lon="6.86321">
        <ele>2308.1</ele>
        <time>2026-03-25T10:27:51Z</time>
      </trkpt>
      <trkpt lat="44.68885" lon="6.86322">
        <ele>2308.1</ele>
        <time>2026-03-25T10:27:52Z</time>
      </trkpt>
      <trkpt lat="44.68884" lon="6.86323">
        <ele>2308.1</ele>
        <time>2026-03-25T10:27:53Z</time>
      </trkpt>
      <trkpt lat="44.68884" lon="6.86323">
        <ele>2308.1</ele>
        <time>2026-03-25T10:27:54Z</time>
      </trkpt>
      <trkpt lat="44.68883" lon="6.86323">
        <ele>2308.1</ele>
        <time>2026-03-25T10:27:55Z</time>
      </trkpt>
      <trkpt lat="44.68883" lon="6.86323">
        <ele>2308.1</ele>
        <time>2026-03-25T10:27:56Z</time>
      </trkpt>
      <trkpt lat="44.68883" lon="6.86323">
        <ele>2308.1</ele>
        <time>2026-03-25T10:27:57Z</time>
      </trkpt>
      <trkpt lat="44.68882" lon="6.86324">
        <ele>2308.1</ele>
        <time>2026-03-25T10:27:58Z</time>
      </trkpt>
      <trkpt lat="44.68882" lon="6.86324">
        <ele>2309.1</ele>
        <time>2026-03-25T10:27:59Z</time>
      </trkpt>
      <trkpt lat="44.68882" lon="6.86324">
        <ele>2309.1</ele>
        <time>2026-03-25T10:28:00Z</time>
      </trkpt>
      <trkpt lat="44.68881" lon="6.86324">
        <ele>2309.1</ele>
        <time>2026-03-25T10:28:01Z</time>
      </trkpt>
      <trkpt lat="44.68881" lon="6.86325">
        <ele>2309.1</ele>
        <time>2026-03-25T10:28:02Z</time>
      </trkpt>
      <trkpt lat="44.68881" lon="6.86325">
        <ele>2309.1</ele>
        <time>2026-03-25T10:28:03Z</time>
      </trkpt>
      <trkpt lat="44.68881" lon="6.86325">
        <ele>2309.1</ele>
        <time>2026-03-25T10:28:04Z</time>
      </trkpt>
      <trkpt lat="44.68881" lon="6.86325">
        <ele>2309.1</ele>
        <time>2026-03-25T10:28:05Z</time>
      </trkpt>
      <trkpt lat="44.6888" lon="6.86325">
        <ele>2309.1</ele>
        <time>2026-03-25T10:28:06Z</time>
      </trkpt>
      <trkpt lat="44.6888" lon="6.86325">
        <ele>2309.1</ele>
        <time>2026-03-25T10:28:07Z</time>
      </trkpt>
      <trkpt lat="44.6888" lon="6.86325">
        <ele>2309.1</ele>
        <time>2026-03-25T10:28:08Z</time>
      </trkpt>
      <trkpt lat="44.6888" lon="6.86325">
        <ele>2309.1</ele>
        <time>2026-03-25T10:28:09Z</time>
      </trkpt>
      <trkpt lat="44.6888" lon="6.86325">
        <ele>2309.1</ele>
        <time>2026-03-25T10:28:10Z</time>
      </trkpt>
      <trkpt lat="44.6888" lon="6.86325">
        <ele>2309.1</ele>
        <time>2026-03-25T10:28:11Z</time>
      </trkpt>
      <trkpt lat="44.6888" lon="6.86325">
        <ele>2309.1</ele>
        <time>2026-03-25T10:28:12Z</time>
      </trkpt>
      <trkpt lat="44.68879" lon="6.86325">
        <ele>2308.8</ele>
        <time>2026-03-25T10:28:13Z</time>
      </trkpt>
      <trkpt lat="44.68879" lon="6.86325">
        <ele>2308.8</ele>
        <time>2026-03-25T10:28:14Z</time>
      </trkpt>
      <trkpt lat="44.68879" lon="6.86325">
        <ele>2308.8</ele>
        <time>2026-03-25T10:28:15Z</time>
      </trkpt>
      <trkpt lat="44.68879" lon="6.86325">
        <ele>2308.8</ele>
        <time>2026-03-25T10:28:16Z</time>
      </trkpt>
      <trkpt lat="44.68879" lon="6.86325">
        <ele>2308.8</ele>
        <time>2026-03-25T10:28:17Z</time>
      </trkpt>
      <trkpt lat="44.68879" lon="6.86326">
        <ele>2308.8</ele>
        <time>2026-03-25T10:28:18Z</time>
      </trkpt>
      <trkpt lat="44.68879" lon="6.86326">
        <ele>2308.8</ele>
        <time>2026-03-25T10:28:19Z</time>
      </trkpt>
      <trkpt lat="44.68878" lon="6.86327">
        <ele>2308.8</ele>
        <time>2026-03-25T10:28:20Z</time>
      </trkpt>
      <trkpt lat="44.68877" lon="6.86327">
        <ele>2308.8</ele>
        <time>2026-03-25T10:28:21Z</time>
      </trkpt>
      <trkpt lat="44.68877" lon="6.86327">
        <ele>2308.8</ele>
        <time>2026-03-25T10:28:22Z</time>
      </trkpt>
      <trkpt lat="44.68877" lon="6.86328">
        <ele>2308.8</ele>
        <time>2026-03-25T10:28:23Z</time>
      </trkpt>
      <trkpt lat="44.68876" lon="6.86328">
        <ele>2308.8</ele>
        <time>2026-03-25T10:28:24Z</time>
      </trkpt>
      <trkpt lat="44.68876" lon="6.86328">
        <ele>2308.8</ele>
        <time>2026-03-25T10:28:25Z</time>
      </trkpt>
      <trkpt lat="44.68876" lon="6.86328">
        <ele>2308.8</ele>
        <time>2026-03-25T10:28:26Z</time>
      </trkpt>
      <trkpt lat="44.68876" lon="6.86328">
        <ele>2308.8</ele>
        <time>2026-03-25T10:28:27Z</time>
      </trkpt>
      <trkpt lat="44.68876" lon="6.86328">
        <ele>2309.8</ele>
        <time>2026-03-25T10:28:28Z</time>
      </trkpt>
      <trkpt lat="44.68876" lon="6.86328">
        <ele>2308.6</ele>
        <time>2026-03-25T10:28:29Z</time>
      </trkpt>
      <trkpt lat="44.68876" lon="6.86328">
        <ele>2308.6</ele>
        <time>2026-03-25T10:28:30Z</time>
      </trkpt>
      <trkpt lat="44.68875" lon="6.86328">
        <ele>2308.6</ele>
        <time>2026-03-25T10:28:31Z</time>
      </trkpt>
      <trkpt lat="44.68875" lon="6.86328">
        <ele>2308.6</ele>
        <time>2026-03-25T10:28:32Z</time>
      </trkpt>
      <trkpt lat="44.68874" lon="6.86329">
        <ele>2309.8</ele>
        <time>2026-03-25T10:28:33Z</time>
      </trkpt>
      <trkpt lat="44.68873" lon="6.86329">
        <ele>2309.6</ele>
        <time>2026-03-25T10:28:34Z</time>
      </trkpt>
      <trkpt lat="44.68872" lon="6.86329">
        <ele>2309.6</ele>
        <time>2026-03-25T10:28:35Z</time>
      </trkpt>
      <trkpt lat="44.68871" lon="6.8633">
        <ele>2309.6</ele>
        <time>2026-03-25T10:28:36Z</time>
      </trkpt>
      <trkpt lat="44.6887" lon="6.86331">
        <ele>2309.3</ele>
        <time>2026-03-25T10:28:37Z</time>
      </trkpt>
      <trkpt lat="44.6887" lon="6.86331">
        <ele>2309.3</ele>
        <time>2026-03-25T10:28:38Z</time>
      </trkpt>
      <trkpt lat="44.6887" lon="6.86332">
        <ele>2309.3</ele>
        <time>2026-03-25T10:28:39Z</time>
      </trkpt>
      <trkpt lat="44.68871" lon="6.86332">
        <ele>2309.6</ele>
        <time>2026-03-25T10:28:40Z</time>
      </trkpt>
      <trkpt lat="44.6887" lon="6.86333">
        <ele>2310.7</ele>
        <time>2026-03-25T10:28:41Z</time>
      </trkpt>
      <trkpt lat="44.68872" lon="6.86333">
        <ele>2310.9</ele>
        <time>2026-03-25T10:28:42Z</time>
      </trkpt>
      <trkpt lat="44.68873" lon="6.86334">
        <ele>2310.9</ele>
        <time>2026-03-25T10:28:43Z</time>
      </trkpt>
      <trkpt lat="44.68874" lon="6.86334">
        <ele>2311.2</ele>
        <time>2026-03-25T10:28:44Z</time>
      </trkpt>
      <trkpt lat="44.68874" lon="6.86334">
        <ele>2311.2</ele>
        <time>2026-03-25T10:28:45Z</time>
      </trkpt>
      <trkpt lat="44.68874" lon="6.86334">
        <ele>2311.2</ele>
        <time>2026-03-25T10:28:46Z</time>
      </trkpt>
      <trkpt lat="44.68874" lon="6.86334">
        <ele>2311.2</ele>
        <time>2026-03-25T10:28:47Z</time>
      </trkpt>
      <trkpt lat="44.68874" lon="6.86334">
        <ele>2311.2</ele>
        <time>2026-03-25T10:28:48Z</time>
      </trkpt>
      <trkpt lat="44.68875" lon="6.86334">
        <ele>2311.2</ele>
        <time>2026-03-25T10:28:49Z</time>
      </trkpt>
      <trkpt lat="44.68875" lon="6.86335">
        <ele>2311.2</ele>
        <time>2026-03-25T10:28:50Z</time>
      </trkpt>
      <trkpt lat="44.68875" lon="6.86335">
        <ele>2311.2</ele>
        <time>2026-03-25T10:28:51Z</time>
      </trkpt>
      <trkpt lat="44.68876" lon="6.86335">
        <ele>2311.2</ele>
        <time>2026-03-25T10:28:52Z</time>
      </trkpt>
      <trkpt lat="44.68876" lon="6.86336">
        <ele>2311.4</ele>
        <time>2026-03-25T10:28:53Z</time>
      </trkpt>
      <trkpt lat="44.68876" lon="6.86337">
        <ele>2312.8</ele>
        <time>2026-03-25T10:28:54Z</time>
      </trkpt>
      <trkpt lat="44.68876" lon="6.86337">
        <ele>2312.5</ele>
        <time>2026-03-25T10:28:55Z</time>
      </trkpt>
      <trkpt lat="44.68876" lon="6.86338">
        <ele>2312.5</ele>
        <time>2026-03-25T10:28:56Z</time>
      </trkpt>
      <trkpt lat="44.68875" lon="6.86338">
        <ele>2312.5</ele>
        <time>2026-03-25T10:28:57Z</time>
      </trkpt>
      <trkpt lat="44.68875" lon="6.86339">
        <ele>2312.5</ele>
        <time>2026-03-25T10:28:58Z</time>
      </trkpt>
      <trkpt lat="44.68875" lon="6.8634">
        <ele>2312.5</ele>
        <time>2026-03-25T10:28:59Z</time>
      </trkpt>
      <trkpt lat="44.68874" lon="6.86341">
        <ele>2312.5</ele>
        <time>2026-03-25T10:29:00Z</time>
      </trkpt>
      <trkpt lat="44.68874" lon="6.86341">
        <ele>2312.5</ele>
        <time>2026-03-25T10:29:01Z</time>
      </trkpt>
      <trkpt lat="44.68873" lon="6.86341">
        <ele>2313.9</ele>
        <time>2026-03-25T10:29:02Z</time>
      </trkpt>
      <trkpt lat="44.68873" lon="6.86341">
        <ele>2313.7</ele>
        <time>2026-03-25T10:29:03Z</time>
      </trkpt>
      <trkpt lat="44.68873" lon="6.86341">
        <ele>2313.7</ele>
        <time>2026-03-25T10:29:04Z</time>
      </trkpt>
      <trkpt lat="44.68872" lon="6.86341">
        <ele>2313.7</ele>
        <time>2026-03-25T10:29:05Z</time>
      </trkpt>
      <trkpt lat="44.68872" lon="6.86342">
        <ele>2313.7</ele>
        <time>2026-03-25T10:29:06Z</time>
      </trkpt>
      <trkpt lat="44.68872" lon="6.86342">
        <ele>2313.7</ele>
        <time>2026-03-25T10:29:07Z</time>
      </trkpt>
      <trkpt lat="44.68871" lon="6.86342">
        <ele>2313.7</ele>
        <time>2026-03-25T10:29:08Z</time>
      </trkpt>
      <trkpt lat="44.68871" lon="6.86343">
        <ele>2313.7</ele>
        <time>2026-03-25T10:29:09Z</time>
      </trkpt>
      <trkpt lat="44.68871" lon="6.86343">
        <ele>2313.7</ele>
        <time>2026-03-25T10:29:10Z</time>
      </trkpt>
      <trkpt lat="44.68871" lon="6.86344">
        <ele>2313.7</ele>
        <time>2026-03-25T10:29:11Z</time>
      </trkpt>
      <trkpt lat="44.6887" lon="6.86344">
        <ele>2313.4</ele>
        <time>2026-03-25T10:29:12Z</time>
      </trkpt>
      <trkpt lat="44.6887" lon="6.86344">
        <ele>2313.4</ele>
        <time>2026-03-25T10:29:13Z</time>
      </trkpt>
      <trkpt lat="44.6887" lon="6.86344">
        <ele>2313.4</ele>
        <time>2026-03-25T10:29:14Z</time>
      </trkpt>
      <trkpt lat="44.6887" lon="6.86344">
        <ele>2313.4</ele>
        <time>2026-03-25T10:29:15Z</time>
      </trkpt>
      <trkpt lat="44.6887" lon="6.86344">
        <ele>2313.4</ele>
        <time>2026-03-25T10:29:16Z</time>
      </trkpt>
      <trkpt lat="44.6887" lon="6.86345">
        <ele>2313.4</ele>
        <time>2026-03-25T10:29:17Z</time>
      </trkpt>
      <trkpt lat="44.68869" lon="6.86346">
        <ele>2314.8</ele>
        <time>2026-03-25T10:29:18Z</time>
      </trkpt>
      <trkpt lat="44.68869" lon="6.86346">
        <ele>2314.8</ele>
        <time>2026-03-25T10:29:19Z</time>
      </trkpt>
      <trkpt lat="44.68869" lon="6.86346">
        <ele>2314.8</ele>
        <time>2026-03-25T10:29:20Z</time>
      </trkpt>
      <trkpt lat="44.68869" lon="6.86347">
        <ele>2314.8</ele>
        <time>2026-03-25T10:29:21Z</time>
      </trkpt>
      <trkpt lat="44.68869" lon="6.86347">
        <ele>2314.8</ele>
        <time>2026-03-25T10:29:22Z</time>
      </trkpt>
      <trkpt lat="44.68869" lon="6.86347">
        <ele>2314.8</ele>
        <time>2026-03-25T10:29:23Z</time>
      </trkpt>
      <trkpt lat="44.68869" lon="6.86347">
        <ele>2314.8</ele>
        <time>2026-03-25T10:29:24Z</time>
      </trkpt>
      <trkpt lat="44.68869" lon="6.86347">
        <ele>2314.8</ele>
        <time>2026-03-25T10:29:25Z</time>
      </trkpt>
      <trkpt lat="44.68869" lon="6.86347">
        <ele>2314.8</ele>
        <time>2026-03-25T10:29:26Z</time>
      </trkpt>
      <trkpt lat="44.68869" lon="6.86347">
        <ele>2314.8</ele>
        <time>2026-03-25T10:29:27Z</time>
      </trkpt>
      <trkpt lat="44.68869" lon="6.86347">
        <ele>2314.8</ele>
        <time>2026-03-25T10:29:28Z</time>
      </trkpt>
      <trkpt lat="44.68869" lon="6.86347">
        <ele>2314.8</ele>
        <time>2026-03-25T10:29:29Z</time>
      </trkpt>
      <trkpt lat="44.68869" lon="6.86347">
        <ele>2314.8</ele>
        <time>2026-03-25T10:29:30Z</time>
      </trkpt>
      <trkpt lat="44.68869" lon="6.86348">
        <ele>2314.8</ele>
        <time>2026-03-25T10:29:31Z</time>
      </trkpt>
      <trkpt lat="44.68869" lon="6.86349">
        <ele>2314.8</ele>
        <time>2026-03-25T10:29:32Z</time>
      </trkpt>
      <trkpt lat="44.68869" lon="6.8635">
        <ele>2316.1</ele>
        <time>2026-03-25T10:29:33Z</time>
      </trkpt>
      <trkpt lat="44.68869" lon="6.86351">
        <ele>2316.1</ele>
        <time>2026-03-25T10:29:34Z</time>
      </trkpt>
      <trkpt lat="44.68869" lon="6.86352">
        <ele>2316.1</ele>
        <time>2026-03-25T10:29:35Z</time>
      </trkpt>
      <trkpt lat="44.68869" lon="6.86353">
        <ele>2316.1</ele>
        <time>2026-03-25T10:29:36Z</time>
      </trkpt>
      <trkpt lat="44.68868" lon="6.86352">
        <ele>2316.1</ele>
        <time>2026-03-25T10:29:37Z</time>
      </trkpt>
      <trkpt lat="44.68868" lon="6.86352">
        <ele>2316.1</ele>
        <time>2026-03-25T10:29:38Z</time>
      </trkpt>
      <trkpt lat="44.68868" lon="6.86352">
        <ele>2316.1</ele>
        <time>2026-03-25T10:29:39Z</time>
      </trkpt>
      <trkpt lat="44.68868" lon="6.86352">
        <ele>2316.1</ele>
        <time>2026-03-25T10:29:40Z</time>
      </trkpt>
      <trkpt lat="44.68868" lon="6.86352">
        <ele>2316.1</ele>
        <time>2026-03-25T10:29:41Z</time>
      </trkpt>
      <trkpt lat="44.68868" lon="6.86352">
        <ele>2316.1</ele>
        <time>2026-03-25T10:29:42Z</time>
      </trkpt>
      <trkpt lat="44.68868" lon="6.86352">
        <ele>2316.1</ele>
        <time>2026-03-25T10:29:43Z</time>
      </trkpt>
      <trkpt lat="44.68868" lon="6.86352">
        <ele>2316.1</ele>
        <time>2026-03-25T10:29:44Z</time>
      </trkpt>
      <trkpt lat="44.68868" lon="6.86352">
        <ele>2316.1</ele>
        <time>2026-03-25T10:29:45Z</time>
      </trkpt>
      <trkpt lat="44.68868" lon="6.86352">
        <ele>2316.1</ele>
        <time>2026-03-25T10:29:46Z</time>
      </trkpt>
      <trkpt lat="44.68868" lon="6.86352">
        <ele>2316.1</ele>
        <time>2026-03-25T10:29:47Z</time>
      </trkpt>
      <trkpt lat="44.68868" lon="6.86352">
        <ele>2316.1</ele>
        <time>2026-03-25T10:29:48Z</time>
      </trkpt>
      <trkpt lat="44.68868" lon="6.86352">
        <ele>2316.1</ele>
        <time>2026-03-25T10:29:49Z</time>
      </trkpt>
      <trkpt lat="44.68868" lon="6.86352">
        <ele>2316.1</ele>
        <time>2026-03-25T10:29:50Z</time>
      </trkpt>
      <trkpt lat="44.68868" lon="6.86352">
        <ele>2316.1</ele>
        <time>2026-03-25T10:29:51Z</time>
      </trkpt>
      <trkpt lat="44.68868" lon="6.86352">
        <ele>2316.1</ele>
        <time>2026-03-25T10:29:52Z</time>
      </trkpt>
      <trkpt lat="44.68868" lon="6.86352">
        <ele>2316.1</ele>
        <time>2026-03-25T10:29:53Z</time>
      </trkpt>
      <trkpt lat="44.68868" lon="6.86352">
        <ele>2316.1</ele>
        <time>2026-03-25T10:29:54Z</time>
      </trkpt>
      <trkpt lat="44.68868" lon="6.86352">
        <ele>2316.1</ele>
        <time>2026-03-25T10:29:55Z</time>
      </trkpt>
      <trkpt lat="44.68868" lon="6.86352">
        <ele>2316.1</ele>
        <time>2026-03-25T10:29:56Z</time>
      </trkpt>
      <trkpt lat="44.68868" lon="6.86352">
        <ele>2316.1</ele>
        <time>2026-03-25T10:29:57Z</time>
      </trkpt>
      <trkpt lat="44.68868" lon="6.86352">
        <ele>2316.1</ele>
        <time>2026-03-25T10:29:58Z</time>
      </trkpt>
      <trkpt lat="44.68868" lon="6.86352">
        <ele>2316.1</ele>
        <time>2026-03-25T10:29:59Z</time>
      </trkpt>
      <trkpt lat="44.68868" lon="6.86352">
        <ele>2316.1</ele>
        <time>2026-03-25T10:30:00Z</time>
      </trkpt>
      <trkpt lat="44.68868" lon="6.86352">
        <ele>2316.1</ele>
        <time>2026-03-25T10:30:01Z</time>
      </trkpt>
      <trkpt lat="44.68868" lon="6.86352">
        <ele>2316.1</ele>
        <time>2026-03-25T10:30:02Z</time>
      </trkpt>
      <trkpt lat="44.68868" lon="6.86352">
        <ele>2316.1</ele>
        <time>2026-03-25T10:30:03Z</time>
      </trkpt>
      <trkpt lat="44.68868" lon="6.86352">
        <ele>2316.1</ele>
        <time>2026-03-25T10:30:04Z</time>
      </trkpt>
      <trkpt lat="44.68868" lon="6.86352">
        <ele>2316.1</ele>
        <time>2026-03-25T10:30:05Z</time>
      </trkpt>
      <trkpt lat="44.68868" lon="6.86352">
        <ele>2316.1</ele>
        <time>2026-03-25T10:30:06Z</time>
      </trkpt>
      <trkpt lat="44.68868" lon="6.86352">
        <ele>2316.1</ele>
        <time>2026-03-25T10:30:07Z</time>
      </trkpt>
      <trkpt lat="44.68868" lon="6.86352">
        <ele>2316.1</ele>
        <time>2026-03-25T10:30:08Z</time>
      </trkpt>
      <trkpt lat="44.68868" lon="6.86352">
        <ele>2316.1</ele>
        <time>2026-03-25T10:30:09Z</time>
      </trkpt>
      <trkpt lat="44.68868" lon="6.86352">
        <ele>2316.1</ele>
        <time>2026-03-25T10:30:10Z</time>
      </trkpt>
      <trkpt lat="44.68868" lon="6.86352">
        <ele>2316.1</ele>
        <time>2026-03-25T10:30:11Z</time>
      </trkpt>
      <trkpt lat="44.68868" lon="6.86353">
        <ele>2316.1</ele>
        <time>2026-03-25T10:30:12Z</time>
      </trkpt>
      <trkpt lat="44.68868" lon="6.86353">
        <ele>2316.1</ele>
        <time>2026-03-25T10:30:13Z</time>
      </trkpt>
      <trkpt lat="44.68868" lon="6.86353">
        <ele>2316.1</ele>
        <time>2026-03-25T10:30:14Z</time>
      </trkpt>
      <trkpt lat="44.68868" lon="6.86353">
        <ele>2316.1</ele>
        <time>2026-03-25T10:30:15Z</time>
      </trkpt>
      <trkpt lat="44.68868" lon="6.86353">
        <ele>2316.1</ele>
        <time>2026-03-25T10:30:16Z</time>
      </trkpt>
      <trkpt lat="44.68868" lon="6.86353">
        <ele>2316.1</ele>
        <time>2026-03-25T10:30:17Z</time>
      </trkpt>
      <trkpt lat="44.68868" lon="6.86353">
        <ele>2316.1</ele>
        <time>2026-03-25T10:30:18Z</time>
      </trkpt>
      <trkpt lat="44.68868" lon="6.86352">
        <ele>2316.1</ele>
        <time>2026-03-25T10:30:19Z</time>
      </trkpt>
      <trkpt lat="44.68868" lon="6.86352">
        <ele>2316.1</ele>
        <time>2026-03-25T10:30:20Z</time>
      </trkpt>
      <trkpt lat="44.68868" lon="6.86352">
        <ele>2316.1</ele>
        <time>2026-03-25T10:30:21Z</time>
      </trkpt>
      <trkpt lat="44.68868" lon="6.86352">
        <ele>2316.1</ele>
        <time>2026-03-25T10:30:22Z</time>
      </trkpt>
      <trkpt lat="44.68868" lon="6.86352">
        <ele>2316.1</ele>
        <time>2026-03-25T10:30:23Z</time>
      </trkpt>
      <trkpt lat="44.68868" lon="6.86352">
        <ele>2316.1</ele>
        <time>2026-03-25T10:30:24Z</time>
      </trkpt>
      <trkpt lat="44.68868" lon="6.86352">
        <ele>2316.1</ele>
        <time>2026-03-25T10:30:25Z</time>
      </trkpt>
      <trkpt lat="44.68868" lon="6.86352">
        <ele>2316.1</ele>
        <time>2026-03-25T10:30:26Z</time>
      </trkpt>
      <trkpt lat="44.68868" lon="6.86352">
        <ele>2316.1</ele>
        <time>2026-03-25T10:30:27Z</time>
      </trkpt>
      <trkpt lat="44.68868" lon="6.86352">
        <ele>2316.1</ele>
        <time>2026-03-25T10:30:28Z</time>
      </trkpt>
      <trkpt lat="44.68868" lon="6.86352">
        <ele>2316.1</ele>
        <time>2026-03-25T10:30:29Z</time>
      </trkpt>
      <trkpt lat="44.68867" lon="6.86352">
        <ele>2315.9</ele>
        <time>2026-03-25T10:30:30Z</time>
      </trkpt>
      <trkpt lat="44.68867" lon="6.86352">
        <ele>2315.9</ele>
        <time>2026-03-25T10:30:31Z</time>
      </trkpt>
      <trkpt lat="44.68867" lon="6.86352">
        <ele>2315.9</ele>
        <time>2026-03-25T10:30:32Z</time>
      </trkpt>
      <trkpt lat="44.68867" lon="6.86352">
        <ele>2315.9</ele>
        <time>2026-03-25T10:30:33Z</time>
      </trkpt>
      <trkpt lat="44.68867" lon="6.86352">
        <ele>2315.9</ele>
        <time>2026-03-25T10:30:34Z</time>
      </trkpt>
      <trkpt lat="44.68867" lon="6.86352">
        <ele>2315.9</ele>
        <time>2026-03-25T10:30:35Z</time>
      </trkpt>
      <trkpt lat="44.68867" lon="6.86352">
        <ele>2315.9</ele>
        <time>2026-03-25T10:30:36Z</time>
      </trkpt>
      <trkpt lat="44.68867" lon="6.86352">
        <ele>2315.9</ele>
        <time>2026-03-25T10:30:37Z</time>
      </trkpt>
      <trkpt lat="44.68867" lon="6.86352">
        <ele>2315.9</ele>
        <time>2026-03-25T10:30:38Z</time>
      </trkpt>
      <trkpt lat="44.68867" lon="6.86352">
        <ele>2315.9</ele>
        <time>2026-03-25T10:30:39Z</time>
      </trkpt>
      <trkpt lat="44.68867" lon="6.86352">
        <ele>2315.9</ele>
        <time>2026-03-25T10:30:40Z</time>
      </trkpt>
      <trkpt lat="44.68867" lon="6.86352">
        <ele>2315.9</ele>
        <time>2026-03-25T10:30:41Z</time>
      </trkpt>
      <trkpt lat="44.68867" lon="6.86352">
        <ele>2315.9</ele>
        <time>2026-03-25T10:30:42Z</time>
      </trkpt>
      <trkpt lat="44.68867" lon="6.86352">
        <ele>2315.9</ele>
        <time>2026-03-25T10:30:43Z</time>
      </trkpt>
      <trkpt lat="44.68867" lon="6.86352">
        <ele>2315.9</ele>
        <time>2026-03-25T10:30:44Z</time>
      </trkpt>
      <trkpt lat="44.68867" lon="6.86352">
        <ele>2315.9</ele>
        <time>2026-03-25T10:30:45Z</time>
      </trkpt>
      <trkpt lat="44.68867" lon="6.86352">
        <ele>2315.9</ele>
        <time>2026-03-25T10:30:46Z</time>
      </trkpt>
      <trkpt lat="44.68867" lon="6.86352">
        <ele>2315.9</ele>
        <time>2026-03-25T10:30:47Z</time>
      </trkpt>
      <trkpt lat="44.68867" lon="6.86352">
        <ele>2315.9</ele>
        <time>2026-03-25T10:30:48Z</time>
      </trkpt>
      <trkpt lat="44.68867" lon="6.86352">
        <ele>2315.9</ele>
        <time>2026-03-25T10:30:49Z</time>
      </trkpt>
      <trkpt lat="44.68867" lon="6.86352">
        <ele>2315.9</ele>
        <time>2026-03-25T10:30:50Z</time>
      </trkpt>
      <trkpt lat="44.68867" lon="6.86352">
        <ele>2315.9</ele>
        <time>2026-03-25T10:30:51Z</time>
      </trkpt>
      <trkpt lat="44.68867" lon="6.86352">
        <ele>2315.9</ele>
        <time>2026-03-25T10:30:52Z</time>
      </trkpt>
      <trkpt lat="44.68867" lon="6.86352">
        <ele>2315.9</ele>
        <time>2026-03-25T10:30:53Z</time>
      </trkpt>
      <trkpt lat="44.68867" lon="6.86352">
        <ele>2315.9</ele>
        <time>2026-03-25T10:30:54Z</time>
      </trkpt>
      <trkpt lat="44.68867" lon="6.86352">
        <ele>2315.9</ele>
        <time>2026-03-25T10:30:55Z</time>
      </trkpt>
      <trkpt lat="44.68867" lon="6.86352">
        <ele>2315.9</ele>
        <time>2026-03-25T10:30:56Z</time>
      </trkpt>
      <trkpt lat="44.68867" lon="6.86352">
        <ele>2315.9</ele>
        <time>2026-03-25T10:30:57Z</time>
      </trkpt>
      <trkpt lat="44.68867" lon="6.86352">
        <ele>2315.9</ele>
        <time>2026-03-25T10:30:58Z</time>
      </trkpt>
      <trkpt lat="44.68867" lon="6.86352">
        <ele>2315.9</ele>
        <time>2026-03-25T10:30:59Z</time>
      </trkpt>
      <trkpt lat="44.68867" lon="6.86352">
        <ele>2315.9</ele>
        <time>2026-03-25T10:31:00Z</time>
      </trkpt>
      <trkpt lat="44.68867" lon="6.86352">
        <ele>2315.9</ele>
        <time>2026-03-25T10:31:01Z</time>
      </trkpt>
      <trkpt lat="44.68867" lon="6.86352">
        <ele>2315.9</ele>
        <time>2026-03-25T10:31:02Z</time>
      </trkpt>
      <trkpt lat="44.68867" lon="6.86352">
        <ele>2315.9</ele>
        <time>2026-03-25T10:31:03Z</time>
      </trkpt>
      <trkpt lat="44.68867" lon="6.86352">
        <ele>2315.9</ele>
        <time>2026-03-25T10:31:04Z</time>
      </trkpt>
      <trkpt lat="44.68867" lon="6.86352">
        <ele>2315.9</ele>
        <time>2026-03-25T10:31:05Z</time>
      </trkpt>
      <trkpt lat="44.68867" lon="6.86352">
        <ele>2315.9</ele>
        <time>2026-03-25T10:31:06Z</time>
      </trkpt>
      <trkpt lat="44.68867" lon="6.86352">
        <ele>2315.9</ele>
        <time>2026-03-25T10:31:07Z</time>
      </trkpt>
      <trkpt lat="44.68867" lon="6.86352">
        <ele>2315.9</ele>
        <time>2026-03-25T10:31:08Z</time>
      </trkpt>
      <trkpt lat="44.68867" lon="6.86352">
        <ele>2315.9</ele>
        <time>2026-03-25T10:31:09Z</time>
      </trkpt>
      <trkpt lat="44.68867" lon="6.86352">
        <ele>2315.9</ele>
        <time>2026-03-25T10:31:10Z</time>
      </trkpt>
      <trkpt lat="44.68867" lon="6.86352">
        <ele>2315.9</ele>
        <time>2026-03-25T10:31:11Z</time>
      </trkpt>
      <trkpt lat="44.68867" lon="6.86352">
        <ele>2315.9</ele>
        <time>2026-03-25T10:31:12Z</time>
      </trkpt>
      <trkpt lat="44.68867" lon="6.86352">
        <ele>2315.9</ele>
        <time>2026-03-25T10:31:13Z</time>
      </trkpt>
      <trkpt lat="44.68867" lon="6.86352">
        <ele>2315.9</ele>
        <time>2026-03-25T10:31:14Z</time>
      </trkpt>
      <trkpt lat="44.68867" lon="6.86352">
        <ele>2315.9</ele>
        <time>2026-03-25T10:31:15Z</time>
      </trkpt>
      <trkpt lat="44.68867" lon="6.86352">
        <ele>2315.9</ele>
        <time>2026-03-25T10:31:16Z</time>
      </trkpt>
      <trkpt lat="44.68867" lon="6.86352">
        <ele>2315.9</ele>
        <time>2026-03-25T10:31:17Z</time>
      </trkpt>
      <trkpt lat="44.68867" lon="6.86352">
        <ele>2315.9</ele>
        <time>2026-03-25T10:31:18Z</time>
      </trkpt>
      <trkpt lat="44.68867" lon="6.86352">
        <ele>2315.9</ele>
        <time>2026-03-25T10:31:19Z</time>
      </trkpt>
      <trkpt lat="44.68867" lon="6.86352">
        <ele>2315.9</ele>
        <time>2026-03-25T10:31:20Z</time>
      </trkpt>
      <trkpt lat="44.68867" lon="6.86352">
        <ele>2315.9</ele>
        <time>2026-03-25T10:31:21Z</time>
      </trkpt>
      <trkpt lat="44.68867" lon="6.86352">
        <ele>2315.9</ele>
        <time>2026-03-25T10:31:22Z</time>
      </trkpt>
      <trkpt lat="44.68867" lon="6.86352">
        <ele>2315.9</ele>
        <time>2026-03-25T10:31:23Z</time>
      </trkpt>
      <trkpt lat="44.68867" lon="6.86352">
        <ele>2315.9</ele>
        <time>2026-03-25T10:31:24Z</time>
      </trkpt>
      <trkpt lat="44.68867" lon="6.86352">
        <ele>2315.9</ele>
        <time>2026-03-25T10:31:25Z</time>
      </trkpt>
      <trkpt lat="44.68867" lon="6.86352">
        <ele>2315.9</ele>
        <time>2026-03-25T10:31:26Z</time>
      </trkpt>
      <trkpt lat="44.68867" lon="6.86352">
        <ele>2315.9</ele>
        <time>2026-03-25T10:31:27Z</time>
      </trkpt>
      <trkpt lat="44.68867" lon="6.86352">
        <ele>2315.9</ele>
        <time>2026-03-25T10:31:28Z</time>
      </trkpt>
      <trkpt lat="44.68867" lon="6.86353">
        <ele>2315.9</ele>
        <time>2026-03-25T10:31:29Z</time>
      </trkpt>
      <trkpt lat="44.68867" lon="6.86354">
        <ele>2315.9</ele>
        <time>2026-03-25T10:31:30Z</time>
      </trkpt>
      <trkpt lat="44.68867" lon="6.86354">
        <ele>2317.2</ele>
        <time>2026-03-25T10:31:31Z</time>
      </trkpt>
      <trkpt lat="44.68868" lon="6.86355">
        <ele>2317.4</ele>
        <time>2026-03-25T10:31:32Z</time>
      </trkpt>
      <trkpt lat="44.68868" lon="6.86356">
        <ele>2317.4</ele>
        <time>2026-03-25T10:31:33Z</time>
      </trkpt>
      <trkpt lat="44.68868" lon="6.86357">
        <ele>2317.4</ele>
        <time>2026-03-25T10:31:34Z</time>
      </trkpt>
      <trkpt lat="44.68868" lon="6.86358">
        <ele>2317.4</ele>
        <time>2026-03-25T10:31:35Z</time>
      </trkpt>
      <trkpt lat="44.68868" lon="6.86359">
        <ele>2318.7</ele>
        <time>2026-03-25T10:31:36Z</time>
      </trkpt>
      <trkpt lat="44.68868" lon="6.8636">
        <ele>2318.7</ele>
        <time>2026-03-25T10:31:37Z</time>
      </trkpt>
      <trkpt lat="44.68868" lon="6.86361">
        <ele>2318.7</ele>
        <time>2026-03-25T10:31:38Z</time>
      </trkpt>
      <trkpt lat="44.68868" lon="6.86361">
        <ele>2318.7</ele>
        <time>2026-03-25T10:31:39Z</time>
      </trkpt>
      <trkpt lat="44.68868" lon="6.86362">
        <ele>2318.7</ele>
        <time>2026-03-25T10:31:40Z</time>
      </trkpt>
      <trkpt lat="44.68869" lon="6.86363">
        <ele>2319.9</ele>
        <time>2026-03-25T10:31:41Z</time>
      </trkpt>
      <trkpt lat="44.68869" lon="6.86364">
        <ele>2319.9</ele>
        <time>2026-03-25T10:31:42Z</time>
      </trkpt>
      <trkpt lat="44.68869" lon="6.86364">
        <ele>2319.9</ele>
        <time>2026-03-25T10:31:43Z</time>
      </trkpt>
      <trkpt lat="44.68869" lon="6.86363">
        <ele>2319.9</ele>
        <time>2026-03-25T10:31:44Z</time>
      </trkpt>
      <trkpt lat="44.68869" lon="6.86364">
        <ele>2319.9</ele>
        <time>2026-03-25T10:31:45Z</time>
      </trkpt>
      <trkpt lat="44.68869" lon="6.86365">
        <ele>2319.9</ele>
        <time>2026-03-25T10:31:46Z</time>
      </trkpt>
      <trkpt lat="44.68869" lon="6.86366">
        <ele>2319.9</ele>
        <time>2026-03-25T10:31:47Z</time>
      </trkpt>
      <trkpt lat="44.68869" lon="6.86367">
        <ele>2319.9</ele>
        <time>2026-03-25T10:31:48Z</time>
      </trkpt>
      <trkpt lat="44.68869" lon="6.86367">
        <ele>2321</ele>
        <time>2026-03-25T10:31:49Z</time>
      </trkpt>
      <trkpt lat="44.68869" lon="6.86367">
        <ele>2321</ele>
        <time>2026-03-25T10:31:50Z</time>
      </trkpt>
      <trkpt lat="44.68869" lon="6.86367">
        <ele>2321</ele>
        <time>2026-03-25T10:31:51Z</time>
      </trkpt>
      <trkpt lat="44.68869" lon="6.86367">
        <ele>2319.9</ele>
        <time>2026-03-25T10:31:52Z</time>
      </trkpt>
      <trkpt lat="44.68869" lon="6.86366">
        <ele>2319.9</ele>
        <time>2026-03-25T10:31:53Z</time>
      </trkpt>
      <trkpt lat="44.68869" lon="6.86366">
        <ele>2319.9</ele>
        <time>2026-03-25T10:31:54Z</time>
      </trkpt>
      <trkpt lat="44.68869" lon="6.86366">
        <ele>2319.9</ele>
        <time>2026-03-25T10:31:55Z</time>
      </trkpt>
      <trkpt lat="44.68869" lon="6.86366">
        <ele>2319.9</ele>
        <time>2026-03-25T10:31:56Z</time>
      </trkpt>
      <trkpt lat="44.68869" lon="6.86366">
        <ele>2319.9</ele>
        <time>2026-03-25T10:31:57Z</time>
      </trkpt>
      <trkpt lat="44.68869" lon="6.86366">
        <ele>2319.9</ele>
        <time>2026-03-25T10:31:58Z</time>
      </trkpt>
      <trkpt lat="44.68869" lon="6.86367">
        <ele>2321</ele>
        <time>2026-03-25T10:31:59Z</time>
      </trkpt>
      <trkpt lat="44.68869" lon="6.86367">
        <ele>2321</ele>
        <time>2026-03-25T10:32:00Z</time>
      </trkpt>
      <trkpt lat="44.68869" lon="6.86368">
        <ele>2321</ele>
        <time>2026-03-25T10:32:01Z</time>
      </trkpt>
      <trkpt lat="44.68869" lon="6.86368">
        <ele>2321</ele>
        <time>2026-03-25T10:32:02Z</time>
      </trkpt>
      <trkpt lat="44.6887" lon="6.86369">
        <ele>2321</ele>
        <time>2026-03-25T10:32:03Z</time>
      </trkpt>
      <trkpt lat="44.6887" lon="6.8637">
        <ele>2321</ele>
        <time>2026-03-25T10:32:04Z</time>
      </trkpt>
      <trkpt lat="44.6887" lon="6.86371">
        <ele>2322.3</ele>
        <time>2026-03-25T10:32:05Z</time>
      </trkpt>
      <trkpt lat="44.68871" lon="6.86372">
        <ele>2322.3</ele>
        <time>2026-03-25T10:32:06Z</time>
      </trkpt>
      <trkpt lat="44.68871" lon="6.86373">
        <ele>2322.3</ele>
        <time>2026-03-25T10:32:07Z</time>
      </trkpt>
      <trkpt lat="44.68871" lon="6.86374">
        <ele>2322.3</ele>
        <time>2026-03-25T10:32:08Z</time>
      </trkpt>
      <trkpt lat="44.68871" lon="6.86375">
        <ele>2322.3</ele>
        <time>2026-03-25T10:32:09Z</time>
      </trkpt>
      <trkpt lat="44.68872" lon="6.86376">
        <ele>2323.4</ele>
        <time>2026-03-25T10:32:10Z</time>
      </trkpt>
      <trkpt lat="44.68872" lon="6.86377">
        <ele>2323.4</ele>
        <time>2026-03-25T10:32:11Z</time>
      </trkpt>
      <trkpt lat="44.68872" lon="6.86377">
        <ele>2323.4</ele>
        <time>2026-03-25T10:32:12Z</time>
      </trkpt>
      <trkpt lat="44.68872" lon="6.86378">
        <ele>2323.4</ele>
        <time>2026-03-25T10:32:13Z</time>
      </trkpt>
      <trkpt lat="44.68872" lon="6.86379">
        <ele>2323.4</ele>
        <time>2026-03-25T10:32:14Z</time>
      </trkpt>
      <trkpt lat="44.68872" lon="6.86378">
        <ele>2323.4</ele>
        <time>2026-03-25T10:32:15Z</time>
      </trkpt>
      <trkpt lat="44.68871" lon="6.86378">
        <ele>2323.4</ele>
        <time>2026-03-25T10:32:16Z</time>
      </trkpt>
      <trkpt lat="44.68871" lon="6.86378">
        <ele>2323.4</ele>
        <time>2026-03-25T10:32:17Z</time>
      </trkpt>
      <trkpt lat="44.68871" lon="6.86378">
        <ele>2323.4</ele>
        <time>2026-03-25T10:32:18Z</time>
      </trkpt>
      <trkpt lat="44.68872" lon="6.86378">
        <ele>2323.4</ele>
        <time>2026-03-25T10:32:19Z</time>
      </trkpt>
      <trkpt lat="44.68872" lon="6.86379">
        <ele>2323.4</ele>
        <time>2026-03-25T10:32:20Z</time>
      </trkpt>
      <trkpt lat="44.68872" lon="6.8638">
        <ele>2324.5</ele>
        <time>2026-03-25T10:32:21Z</time>
      </trkpt>
      <trkpt lat="44.68872" lon="6.86381">
        <ele>2324.5</ele>
        <time>2026-03-25T10:32:22Z</time>
      </trkpt>
      <trkpt lat="44.68872" lon="6.86382">
        <ele>2324.5</ele>
        <time>2026-03-25T10:32:23Z</time>
      </trkpt>
      <trkpt lat="44.68873" lon="6.86383">
        <ele>2324.5</ele>
        <time>2026-03-25T10:32:24Z</time>
      </trkpt>
      <trkpt lat="44.68873" lon="6.86386">
        <ele>2325.6</ele>
        <time>2026-03-25T10:32:25Z</time>
      </trkpt>
      <trkpt lat="44.68873" lon="6.86387">
        <ele>2325.6</ele>
        <time>2026-03-25T10:32:27Z</time>
      </trkpt>
      <trkpt lat="44.68873" lon="6.86388">
        <ele>2325.7</ele>
        <time>2026-03-25T10:32:28Z</time>
      </trkpt>
      <trkpt lat="44.68873" lon="6.86389">
        <ele>2326.8</ele>
        <time>2026-03-25T10:32:29Z</time>
      </trkpt>
      <trkpt lat="44.68874" lon="6.86389">
        <ele>2326.8</ele>
        <time>2026-03-25T10:32:30Z</time>
      </trkpt>
      <trkpt lat="44.68874" lon="6.8639">
        <ele>2326.8</ele>
        <time>2026-03-25T10:32:31Z</time>
      </trkpt>
      <trkpt lat="44.68874" lon="6.86391">
        <ele>2326.8</ele>
        <time>2026-03-25T10:32:32Z</time>
      </trkpt>
      <trkpt lat="44.68874" lon="6.86391">
        <ele>2326.8</ele>
        <time>2026-03-25T10:32:33Z</time>
      </trkpt>
      <trkpt lat="44.68874" lon="6.86392">
        <ele>2326.8</ele>
        <time>2026-03-25T10:32:34Z</time>
      </trkpt>
      <trkpt lat="44.68874" lon="6.86393">
        <ele>2327.8</ele>
        <time>2026-03-25T10:32:35Z</time>
      </trkpt>
      <trkpt lat="44.68874" lon="6.86394">
        <ele>2327.8</ele>
        <time>2026-03-25T10:32:36Z</time>
      </trkpt>
      <trkpt lat="44.68874" lon="6.86394">
        <ele>2327.8</ele>
        <time>2026-03-25T10:32:37Z</time>
      </trkpt>
      <trkpt lat="44.68874" lon="6.86395">
        <ele>2327.8</ele>
        <time>2026-03-25T10:32:38Z</time>
      </trkpt>
      <trkpt lat="44.68875" lon="6.86396">
        <ele>2327.8</ele>
        <time>2026-03-25T10:32:39Z</time>
      </trkpt>
      <trkpt lat="44.68875" lon="6.86397">
        <ele>2328.7</ele>
        <time>2026-03-25T10:32:40Z</time>
      </trkpt>
      <trkpt lat="44.68875" lon="6.86398">
        <ele>2328.7</ele>
        <time>2026-03-25T10:32:41Z</time>
      </trkpt>
      <trkpt lat="44.68875" lon="6.86398">
        <ele>2328.7</ele>
        <time>2026-03-25T10:32:42Z</time>
      </trkpt>
      <trkpt lat="44.68875" lon="6.86399">
        <ele>2328.7</ele>
        <time>2026-03-25T10:32:44Z</time>
      </trkpt>
      <trkpt lat="44.68875" lon="6.864">
        <ele>2328.7</ele>
        <time>2026-03-25T10:32:45Z</time>
      </trkpt>
      <trkpt lat="44.68875" lon="6.864">
        <ele>2328.7</ele>
        <time>2026-03-25T10:32:46Z</time>
      </trkpt>
      <trkpt lat="44.68875" lon="6.86401">
        <ele>2328.7</ele>
        <time>2026-03-25T10:32:47Z</time>
      </trkpt>
      <trkpt lat="44.68875" lon="6.86401">
        <ele>2329.6</ele>
        <time>2026-03-25T10:32:48Z</time>
      </trkpt>
      <trkpt lat="44.68875" lon="6.86402">
        <ele>2329.6</ele>
        <time>2026-03-25T10:32:49Z</time>
      </trkpt>
      <trkpt lat="44.68875" lon="6.86402">
        <ele>2329.6</ele>
        <time>2026-03-25T10:32:50Z</time>
      </trkpt>
      <trkpt lat="44.68875" lon="6.86403">
        <ele>2329.6</ele>
        <time>2026-03-25T10:32:51Z</time>
      </trkpt>
      <trkpt lat="44.68875" lon="6.86404">
        <ele>2329.6</ele>
        <time>2026-03-25T10:32:52Z</time>
      </trkpt>
      <trkpt lat="44.68876" lon="6.86405">
        <ele>2329.6</ele>
        <time>2026-03-25T10:32:53Z</time>
      </trkpt>
      <trkpt lat="44.68876" lon="6.86406">
        <ele>2330.4</ele>
        <time>2026-03-25T10:32:54Z</time>
      </trkpt>
      <trkpt lat="44.68876" lon="6.86406">
        <ele>2330.4</ele>
        <time>2026-03-25T10:32:55Z</time>
      </trkpt>
      <trkpt lat="44.68876" lon="6.86407">
        <ele>2330.4</ele>
        <time>2026-03-25T10:32:56Z</time>
      </trkpt>
      <trkpt lat="44.68876" lon="6.86408">
        <ele>2330.4</ele>
        <time>2026-03-25T10:32:57Z</time>
      </trkpt>
      <trkpt lat="44.68876" lon="6.86409">
        <ele>2330.4</ele>
        <time>2026-03-25T10:32:58Z</time>
      </trkpt>
      <trkpt lat="44.68876" lon="6.86409">
        <ele>2330.4</ele>
        <time>2026-03-25T10:32:59Z</time>
      </trkpt>
      <trkpt lat="44.68876" lon="6.8641">
        <ele>2331.2</ele>
        <time>2026-03-25T10:33:00Z</time>
      </trkpt>
      <trkpt lat="44.68876" lon="6.86411">
        <ele>2331.2</ele>
        <time>2026-03-25T10:33:01Z</time>
      </trkpt>
      <trkpt lat="44.68876" lon="6.86412">
        <ele>2331.2</ele>
        <time>2026-03-25T10:33:02Z</time>
      </trkpt>
      <trkpt lat="44.68875" lon="6.86413">
        <ele>2331.2</ele>
        <time>2026-03-25T10:33:03Z</time>
      </trkpt>
      <trkpt lat="44.68875" lon="6.86413">
        <ele>2331.2</ele>
        <time>2026-03-25T10:33:04Z</time>
      </trkpt>
      <trkpt lat="44.68875" lon="6.86414">
        <ele>2332</ele>
        <time>2026-03-25T10:33:05Z</time>
      </trkpt>
      <trkpt lat="44.68876" lon="6.86415">
        <ele>2332</ele>
        <time>2026-03-25T10:33:06Z</time>
      </trkpt>
      <trkpt lat="44.68876" lon="6.86415">
        <ele>2332</ele>
        <time>2026-03-25T10:33:07Z</time>
      </trkpt>
      <trkpt lat="44.68876" lon="6.86416">
        <ele>2332</ele>
        <time>2026-03-25T10:33:08Z</time>
      </trkpt>
      <trkpt lat="44.68876" lon="6.86417">
        <ele>2332</ele>
        <time>2026-03-25T10:33:10Z</time>
      </trkpt>
      <trkpt lat="44.68876" lon="6.86418">
        <ele>2332</ele>
        <time>2026-03-25T10:33:11Z</time>
      </trkpt>
      <trkpt lat="44.68876" lon="6.86418">
        <ele>2332.7</ele>
        <time>2026-03-25T10:33:12Z</time>
      </trkpt>
      <trkpt lat="44.68876" lon="6.86419">
        <ele>2332.7</ele>
        <time>2026-03-25T10:33:13Z</time>
      </trkpt>
      <trkpt lat="44.68876" lon="6.86419">
        <ele>2332.7</ele>
        <time>2026-03-25T10:33:14Z</time>
      </trkpt>
      <trkpt lat="44.68876" lon="6.8642">
        <ele>2332.6</ele>
        <time>2026-03-25T10:33:15Z</time>
      </trkpt>
      <trkpt lat="44.68876" lon="6.86421">
        <ele>2332.6</ele>
        <time>2026-03-25T10:33:16Z</time>
      </trkpt>
      <trkpt lat="44.68877" lon="6.86421">
        <ele>2332.6</ele>
        <time>2026-03-25T10:33:18Z</time>
      </trkpt>
      <trkpt lat="44.68877" lon="6.86422">
        <ele>2332.6</ele>
        <time>2026-03-25T10:33:19Z</time>
      </trkpt>
      <trkpt lat="44.68877" lon="6.86422">
        <ele>2332.6</ele>
        <time>2026-03-25T10:33:20Z</time>
      </trkpt>
      <trkpt lat="44.68877" lon="6.86423">
        <ele>2333.4</ele>
        <time>2026-03-25T10:33:21Z</time>
      </trkpt>
      <trkpt lat="44.68877" lon="6.86423">
        <ele>2333.4</ele>
        <time>2026-03-25T10:33:22Z</time>
      </trkpt>
      <trkpt lat="44.68877" lon="6.86424">
        <ele>2333.4</ele>
        <time>2026-03-25T10:33:23Z</time>
      </trkpt>
      <trkpt lat="44.68877" lon="6.86424">
        <ele>2333.4</ele>
        <time>2026-03-25T10:33:24Z</time>
      </trkpt>
      <trkpt lat="44.68878" lon="6.86425">
        <ele>2333.4</ele>
        <time>2026-03-25T10:33:25Z</time>
      </trkpt>
      <trkpt lat="44.68878" lon="6.86425">
        <ele>2333.4</ele>
        <time>2026-03-25T10:33:26Z</time>
      </trkpt>
      <trkpt lat="44.68878" lon="6.86426">
        <ele>2333.4</ele>
        <time>2026-03-25T10:33:27Z</time>
      </trkpt>
      <trkpt lat="44.68878" lon="6.86426">
        <ele>2333.4</ele>
        <time>2026-03-25T10:33:28Z</time>
      </trkpt>
      <trkpt lat="44.68878" lon="6.86427">
        <ele>2334.1</ele>
        <time>2026-03-25T10:33:29Z</time>
      </trkpt>
      <trkpt lat="44.68878" lon="6.86427">
        <ele>2334.1</ele>
        <time>2026-03-25T10:33:30Z</time>
      </trkpt>
      <trkpt lat="44.68878" lon="6.86427">
        <ele>2334.1</ele>
        <time>2026-03-25T10:33:31Z</time>
      </trkpt>
      <trkpt lat="44.68878" lon="6.86427">
        <ele>2333.4</ele>
        <time>2026-03-25T10:33:32Z</time>
      </trkpt>
      <trkpt lat="44.68878" lon="6.86427">
        <ele>2333.4</ele>
        <time>2026-03-25T10:33:33Z</time>
      </trkpt>
      <trkpt lat="44.68878" lon="6.86427">
        <ele>2333.4</ele>
        <time>2026-03-25T10:33:34Z</time>
      </trkpt>
      <trkpt lat="44.68878" lon="6.86427">
        <ele>2333.4</ele>
        <time>2026-03-25T10:33:35Z</time>
      </trkpt>
      <trkpt lat="44.68878" lon="6.86427">
        <ele>2333.4</ele>
        <time>2026-03-25T10:33:36Z</time>
      </trkpt>
      <trkpt lat="44.68878" lon="6.86426">
        <ele>2333.4</ele>
        <time>2026-03-25T10:33:37Z</time>
      </trkpt>
      <trkpt lat="44.68878" lon="6.86426">
        <ele>2333.4</ele>
        <time>2026-03-25T10:33:38Z</time>
      </trkpt>
      <trkpt lat="44.68878" lon="6.86426">
        <ele>2333.4</ele>
        <time>2026-03-25T10:33:39Z</time>
      </trkpt>
      <trkpt lat="44.68878" lon="6.86426">
        <ele>2333.4</ele>
        <time>2026-03-25T10:33:40Z</time>
      </trkpt>
      <trkpt lat="44.68878" lon="6.86426">
        <ele>2333.4</ele>
        <time>2026-03-25T10:33:41Z</time>
      </trkpt>
      <trkpt lat="44.68878" lon="6.86426">
        <ele>2333.4</ele>
        <time>2026-03-25T10:33:42Z</time>
      </trkpt>
      <trkpt lat="44.68878" lon="6.86427">
        <ele>2333.4</ele>
        <time>2026-03-25T10:33:43Z</time>
      </trkpt>
      <trkpt lat="44.68878" lon="6.86427">
        <ele>2333.4</ele>
        <time>2026-03-25T10:33:44Z</time>
      </trkpt>
      <trkpt lat="44.68878" lon="6.86427">
        <ele>2333.4</ele>
        <time>2026-03-25T10:33:45Z</time>
      </trkpt>
      <trkpt lat="44.68878" lon="6.86427">
        <ele>2333.4</ele>
        <time>2026-03-25T10:33:46Z</time>
      </trkpt>
      <trkpt lat="44.68878" lon="6.86427">
        <ele>2333.4</ele>
        <time>2026-03-25T10:33:47Z</time>
      </trkpt>
      <trkpt lat="44.68878" lon="6.86427">
        <ele>2333.4</ele>
        <time>2026-03-25T10:33:48Z</time>
      </trkpt>
      <trkpt lat="44.68878" lon="6.86427">
        <ele>2333.4</ele>
        <time>2026-03-25T10:33:49Z</time>
      </trkpt>
      <trkpt lat="44.68878" lon="6.86427">
        <ele>2333.4</ele>
        <time>2026-03-25T10:33:50Z</time>
      </trkpt>
      <trkpt lat="44.68878" lon="6.86427">
        <ele>2333.4</ele>
        <time>2026-03-25T10:33:51Z</time>
      </trkpt>
      <trkpt lat="44.68878" lon="6.86426">
        <ele>2333.4</ele>
        <time>2026-03-25T10:33:52Z</time>
      </trkpt>
      <trkpt lat="44.68878" lon="6.86426">
        <ele>2333.4</ele>
        <time>2026-03-25T10:33:53Z</time>
      </trkpt>
      <trkpt lat="44.68878" lon="6.86426">
        <ele>2333.4</ele>
        <time>2026-03-25T10:33:54Z</time>
      </trkpt>
      <trkpt lat="44.68878" lon="6.86426">
        <ele>2333.4</ele>
        <time>2026-03-25T10:33:55Z</time>
      </trkpt>
      <trkpt lat="44.68878" lon="6.86426">
        <ele>2333.4</ele>
        <time>2026-03-25T10:33:56Z</time>
      </trkpt>
      <trkpt lat="44.68878" lon="6.86426">
        <ele>2333.4</ele>
        <time>2026-03-25T10:33:57Z</time>
      </trkpt>
      <trkpt lat="44.68878" lon="6.86426">
        <ele>2333.4</ele>
        <time>2026-03-25T10:33:58Z</time>
      </trkpt>
      <trkpt lat="44.68878" lon="6.86426">
        <ele>2333.4</ele>
        <time>2026-03-25T10:33:59Z</time>
      </trkpt>
      <trkpt lat="44.68878" lon="6.86426">
        <ele>2333.4</ele>
        <time>2026-03-25T10:34:00Z</time>
      </trkpt>
      <trkpt lat="44.68878" lon="6.86426">
        <ele>2333.4</ele>
        <time>2026-03-25T10:34:01Z</time>
      </trkpt>
      <trkpt lat="44.68878" lon="6.86426">
        <ele>2333.4</ele>
        <time>2026-03-25T10:34:02Z</time>
      </trkpt>
      <trkpt lat="44.68878" lon="6.86426">
        <ele>2333.4</ele>
        <time>2026-03-25T10:34:03Z</time>
      </trkpt>
      <trkpt lat="44.68878" lon="6.86426">
        <ele>2333.4</ele>
        <time>2026-03-25T10:34:04Z</time>
      </trkpt>
      <trkpt lat="44.68878" lon="6.86426">
        <ele>2333.4</ele>
        <time>2026-03-25T10:34:05Z</time>
      </trkpt>
      <trkpt lat="44.68878" lon="6.86426">
        <ele>2333.4</ele>
        <time>2026-03-25T10:34:06Z</time>
      </trkpt>
      <trkpt lat="44.68878" lon="6.86426">
        <ele>2333.4</ele>
        <time>2026-03-25T10:34:07Z</time>
      </trkpt>
      <trkpt lat="44.68878" lon="6.86426">
        <ele>2333.4</ele>
        <time>2026-03-25T10:34:08Z</time>
      </trkpt>
      <trkpt lat="44.68878" lon="6.86426">
        <ele>2333.4</ele>
        <time>2026-03-25T10:34:09Z</time>
      </trkpt>
      <trkpt lat="44.68878" lon="6.86426">
        <ele>2333.4</ele>
        <time>2026-03-25T10:34:10Z</time>
      </trkpt>
      <trkpt lat="44.68878" lon="6.86426">
        <ele>2333.4</ele>
        <time>2026-03-25T10:34:11Z</time>
      </trkpt>
      <trkpt lat="44.68878" lon="6.86426">
        <ele>2333.4</ele>
        <time>2026-03-25T10:34:12Z</time>
      </trkpt>
      <trkpt lat="44.68878" lon="6.86426">
        <ele>2333.4</ele>
        <time>2026-03-25T10:34:13Z</time>
      </trkpt>
      <trkpt lat="44.68878" lon="6.86426">
        <ele>2333.4</ele>
        <time>2026-03-25T10:34:14Z</time>
      </trkpt>
      <trkpt lat="44.68878" lon="6.86426">
        <ele>2333.4</ele>
        <time>2026-03-25T10:34:15Z</time>
      </trkpt>
      <trkpt lat="44.68878" lon="6.86427">
        <ele>2334.1</ele>
        <time>2026-03-25T10:34:16Z</time>
      </trkpt>
      <trkpt lat="44.68878" lon="6.86429">
        <ele>2334.1</ele>
        <time>2026-03-25T10:34:18Z</time>
      </trkpt>
      <trkpt lat="44.68878" lon="6.86431">
        <ele>2334.1</ele>
        <time>2026-03-25T10:34:19Z</time>
      </trkpt>
      <trkpt lat="44.68878" lon="6.86433">
        <ele>2334.7</ele>
        <time>2026-03-25T10:34:20Z</time>
      </trkpt>
      <trkpt lat="44.68878" lon="6.86434">
        <ele>2334.7</ele>
        <time>2026-03-25T10:34:21Z</time>
      </trkpt>
      <trkpt lat="44.68878" lon="6.86435">
        <ele>2335.3</ele>
        <time>2026-03-25T10:34:22Z</time>
      </trkpt>
      <trkpt lat="44.68877" lon="6.86438">
        <ele>2335.3</ele>
        <time>2026-03-25T10:34:23Z</time>
      </trkpt>
      <trkpt lat="44.68877" lon="6.86439">
        <ele>2335.3</ele>
        <time>2026-03-25T10:34:25Z</time>
      </trkpt>
      <trkpt lat="44.68877" lon="6.8644">
        <ele>2335.9</ele>
        <time>2026-03-25T10:34:26Z</time>
      </trkpt>
      <trkpt lat="44.68877" lon="6.86442">
        <ele>2335.9</ele>
        <time>2026-03-25T10:34:27Z</time>
      </trkpt>
      <trkpt lat="44.68877" lon="6.86443">
        <ele>2335.9</ele>
        <time>2026-03-25T10:34:28Z</time>
      </trkpt>
      <trkpt lat="44.68877" lon="6.86444">
        <ele>2335.9</ele>
        <time>2026-03-25T10:34:30Z</time>
      </trkpt>
      <trkpt lat="44.68877" lon="6.86445">
        <ele>2336.4</ele>
        <time>2026-03-25T10:34:31Z</time>
      </trkpt>
      <trkpt lat="44.68877" lon="6.86445">
        <ele>2336.4</ele>
        <time>2026-03-25T10:34:32Z</time>
      </trkpt>
      <trkpt lat="44.68877" lon="6.86447">
        <ele>2336.4</ele>
        <time>2026-03-25T10:34:33Z</time>
      </trkpt>
      <trkpt lat="44.68877" lon="6.86447">
        <ele>2336.4</ele>
        <time>2026-03-25T10:34:34Z</time>
      </trkpt>
      <trkpt lat="44.68877" lon="6.86448">
        <ele>2336.9</ele>
        <time>2026-03-25T10:34:35Z</time>
      </trkpt>
      <trkpt lat="44.68877" lon="6.86449">
        <ele>2336.9</ele>
        <time>2026-03-25T10:34:36Z</time>
      </trkpt>
      <trkpt lat="44.68876" lon="6.8645">
        <ele>2336.9</ele>
        <time>2026-03-25T10:34:37Z</time>
      </trkpt>
      <trkpt lat="44.68876" lon="6.86451">
        <ele>2336.9</ele>
        <time>2026-03-25T10:34:38Z</time>
      </trkpt>
      <trkpt lat="44.68876" lon="6.86452">
        <ele>2337.1</ele>
        <time>2026-03-25T10:34:39Z</time>
      </trkpt>
      <trkpt lat="44.68876" lon="6.86454">
        <ele>2337.6</ele>
        <time>2026-03-25T10:34:40Z</time>
      </trkpt>
      <trkpt lat="44.68876" lon="6.86455">
        <ele>2337.6</ele>
        <time>2026-03-25T10:34:42Z</time>
      </trkpt>
      <trkpt lat="44.68876" lon="6.86456">
        <ele>2337.6</ele>
        <time>2026-03-25T10:34:43Z</time>
      </trkpt>
      <trkpt lat="44.68876" lon="6.86457">
        <ele>2338.1</ele>
        <time>2026-03-25T10:34:44Z</time>
      </trkpt>
      <trkpt lat="44.68876" lon="6.86458">
        <ele>2338.1</ele>
        <time>2026-03-25T10:34:45Z</time>
      </trkpt>
      <trkpt lat="44.68876" lon="6.86458">
        <ele>2338.1</ele>
        <time>2026-03-25T10:34:46Z</time>
      </trkpt>
      <trkpt lat="44.68875" lon="6.8646">
        <ele>2338.1</ele>
        <time>2026-03-25T10:34:47Z</time>
      </trkpt>
      <trkpt lat="44.68875" lon="6.86461">
        <ele>2338.5</ele>
        <time>2026-03-25T10:34:48Z</time>
      </trkpt>
      <trkpt lat="44.68875" lon="6.86462">
        <ele>2338.5</ele>
        <time>2026-03-25T10:34:50Z</time>
      </trkpt>
      <trkpt lat="44.68875" lon="6.86463">
        <ele>2338.5</ele>
        <time>2026-03-25T10:34:51Z</time>
      </trkpt>
      <trkpt lat="44.68875" lon="6.86464">
        <ele>2338.5</ele>
        <time>2026-03-25T10:34:52Z</time>
      </trkpt>
      <trkpt lat="44.68875" lon="6.86464">
        <ele>2338.5</ele>
        <time>2026-03-25T10:34:53Z</time>
      </trkpt>
      <trkpt lat="44.68875" lon="6.86465">
        <ele>2338.5</ele>
        <time>2026-03-25T10:34:54Z</time>
      </trkpt>
      <trkpt lat="44.68875" lon="6.86466">
        <ele>2339</ele>
        <time>2026-03-25T10:34:55Z</time>
      </trkpt>
      <trkpt lat="44.68875" lon="6.86467">
        <ele>2339</ele>
        <time>2026-03-25T10:34:56Z</time>
      </trkpt>
      <trkpt lat="44.68875" lon="6.86468">
        <ele>2339</ele>
        <time>2026-03-25T10:34:57Z</time>
      </trkpt>
      <trkpt lat="44.68874" lon="6.86468">
        <ele>2339</ele>
        <time>2026-03-25T10:34:58Z</time>
      </trkpt>
      <trkpt lat="44.68874" lon="6.86469">
        <ele>2339</ele>
        <time>2026-03-25T10:34:59Z</time>
      </trkpt>
      <trkpt lat="44.68874" lon="6.8647">
        <ele>2339.5</ele>
        <time>2026-03-25T10:35:00Z</time>
      </trkpt>
      <trkpt lat="44.68874" lon="6.86472">
        <ele>2339.5</ele>
        <time>2026-03-25T10:35:01Z</time>
      </trkpt>
      <trkpt lat="44.68874" lon="6.86473">
        <ele>2339.5</ele>
        <time>2026-03-25T10:35:02Z</time>
      </trkpt>
      <trkpt lat="44.68873" lon="6.86474">
        <ele>2339.5</ele>
        <time>2026-03-25T10:35:04Z</time>
      </trkpt>
      <trkpt lat="44.68873" lon="6.86475">
        <ele>2340.2</ele>
        <time>2026-03-25T10:35:05Z</time>
      </trkpt>
      <trkpt lat="44.68873" lon="6.86475">
        <ele>2340.2</ele>
        <time>2026-03-25T10:35:06Z</time>
      </trkpt>
      <trkpt lat="44.68873" lon="6.86476">
        <ele>2340.2</ele>
        <time>2026-03-25T10:35:07Z</time>
      </trkpt>
      <trkpt lat="44.68873" lon="6.86477">
        <ele>2340.2</ele>
        <time>2026-03-25T10:35:08Z</time>
      </trkpt>
      <trkpt lat="44.68872" lon="6.86478">
        <ele>2340.2</ele>
        <time>2026-03-25T10:35:09Z</time>
      </trkpt>
      <trkpt lat="44.68872" lon="6.86479">
        <ele>2340.7</ele>
        <time>2026-03-25T10:35:10Z</time>
      </trkpt>
      <trkpt lat="44.68872" lon="6.8648">
        <ele>2340.7</ele>
        <time>2026-03-25T10:35:11Z</time>
      </trkpt>
      <trkpt lat="44.68872" lon="6.8648">
        <ele>2340.7</ele>
        <time>2026-03-25T10:35:12Z</time>
      </trkpt>
      <trkpt lat="44.68872" lon="6.86481">
        <ele>2340.7</ele>
        <time>2026-03-25T10:35:13Z</time>
      </trkpt>
      <trkpt lat="44.68872" lon="6.86482">
        <ele>2340.7</ele>
        <time>2026-03-25T10:35:14Z</time>
      </trkpt>
      <trkpt lat="44.68871" lon="6.86483">
        <ele>2341.2</ele>
        <time>2026-03-25T10:35:15Z</time>
      </trkpt>
      <trkpt lat="44.68871" lon="6.86484">
        <ele>2341.2</ele>
        <time>2026-03-25T10:35:16Z</time>
      </trkpt>
      <trkpt lat="44.68871" lon="6.86484">
        <ele>2341.2</ele>
        <time>2026-03-25T10:35:17Z</time>
      </trkpt>
      <trkpt lat="44.68871" lon="6.86485">
        <ele>2341.2</ele>
        <time>2026-03-25T10:35:18Z</time>
      </trkpt>
      <trkpt lat="44.68871" lon="6.86486">
        <ele>2341.2</ele>
        <time>2026-03-25T10:35:19Z</time>
      </trkpt>
      <trkpt lat="44.68871" lon="6.86487">
        <ele>2341.2</ele>
        <time>2026-03-25T10:35:20Z</time>
      </trkpt>
      <trkpt lat="44.6887" lon="6.86487">
        <ele>2341.5</ele>
        <time>2026-03-25T10:35:21Z</time>
      </trkpt>
      <trkpt lat="44.6887" lon="6.86488">
        <ele>2341.5</ele>
        <time>2026-03-25T10:35:22Z</time>
      </trkpt>
      <trkpt lat="44.6887" lon="6.8649">
        <ele>2341.9</ele>
        <time>2026-03-25T10:35:23Z</time>
      </trkpt>
      <trkpt lat="44.6887" lon="6.8649">
        <ele>2341.9</ele>
        <time>2026-03-25T10:35:24Z</time>
      </trkpt>
      <trkpt lat="44.6887" lon="6.86491">
        <ele>2341.9</ele>
        <time>2026-03-25T10:35:26Z</time>
      </trkpt>
      <trkpt lat="44.68869" lon="6.86492">
        <ele>2342.2</ele>
        <time>2026-03-25T10:35:27Z</time>
      </trkpt>
      <trkpt lat="44.68869" lon="6.86492">
        <ele>2342.2</ele>
        <time>2026-03-25T10:35:28Z</time>
      </trkpt>
      <trkpt lat="44.68869" lon="6.86493">
        <ele>2342.2</ele>
        <time>2026-03-25T10:35:29Z</time>
      </trkpt>
      <trkpt lat="44.68869" lon="6.86494">
        <ele>2342.2</ele>
        <time>2026-03-25T10:35:30Z</time>
      </trkpt>
      <trkpt lat="44.68868" lon="6.86496">
        <ele>2342.5</ele>
        <time>2026-03-25T10:35:31Z</time>
      </trkpt>
      <trkpt lat="44.68869" lon="6.86497">
        <ele>2342.5</ele>
        <time>2026-03-25T10:35:33Z</time>
      </trkpt>
      <trkpt lat="44.68869" lon="6.86497">
        <ele>2342.5</ele>
        <time>2026-03-25T10:35:34Z</time>
      </trkpt>
      <trkpt lat="44.68869" lon="6.86498">
        <ele>2342.5</ele>
        <time>2026-03-25T10:35:35Z</time>
      </trkpt>
      <trkpt lat="44.68869" lon="6.86498">
        <ele>2342.5</ele>
        <time>2026-03-25T10:35:36Z</time>
      </trkpt>
      <trkpt lat="44.68869" lon="6.86499">
        <ele>2342.5</ele>
        <time>2026-03-25T10:35:37Z</time>
      </trkpt>
      <trkpt lat="44.68869" lon="6.865">
        <ele>2342.8</ele>
        <time>2026-03-25T10:35:38Z</time>
      </trkpt>
      <trkpt lat="44.68869" lon="6.865">
        <ele>2342.8</ele>
        <time>2026-03-25T10:35:39Z</time>
      </trkpt>
      <trkpt lat="44.68869" lon="6.86501">
        <ele>2342.8</ele>
        <time>2026-03-25T10:35:40Z</time>
      </trkpt>
      <trkpt lat="44.6887" lon="6.86502">
        <ele>2342.8</ele>
        <time>2026-03-25T10:35:41Z</time>
      </trkpt>
      <trkpt lat="44.6887" lon="6.86503">
        <ele>2342.8</ele>
        <time>2026-03-25T10:35:42Z</time>
      </trkpt>
      <trkpt lat="44.6887" lon="6.86503">
        <ele>2342.8</ele>
        <time>2026-03-25T10:35:43Z</time>
      </trkpt>
      <trkpt lat="44.6887" lon="6.86504">
        <ele>2343</ele>
        <time>2026-03-25T10:35:44Z</time>
      </trkpt>
      <trkpt lat="44.68869" lon="6.86505">
        <ele>2343</ele>
        <time>2026-03-25T10:35:45Z</time>
      </trkpt>
      <trkpt lat="44.68869" lon="6.86506">
        <ele>2343</ele>
        <time>2026-03-25T10:35:46Z</time>
      </trkpt>
      <trkpt lat="44.68869" lon="6.86506">
        <ele>2343</ele>
        <time>2026-03-25T10:35:47Z</time>
      </trkpt>
      <trkpt lat="44.68869" lon="6.86507">
        <ele>2343</ele>
        <time>2026-03-25T10:35:48Z</time>
      </trkpt>
      <trkpt lat="44.68869" lon="6.86508">
        <ele>2343</ele>
        <time>2026-03-25T10:35:49Z</time>
      </trkpt>
      <trkpt lat="44.68868" lon="6.86509">
        <ele>2343.2</ele>
        <time>2026-03-25T10:35:50Z</time>
      </trkpt>
      <trkpt lat="44.68868" lon="6.86509">
        <ele>2343.2</ele>
        <time>2026-03-25T10:35:51Z</time>
      </trkpt>
      <trkpt lat="44.68868" lon="6.8651">
        <ele>2343.2</ele>
        <time>2026-03-25T10:35:52Z</time>
      </trkpt>
      <trkpt lat="44.68868" lon="6.86511">
        <ele>2343.2</ele>
        <time>2026-03-25T10:35:53Z</time>
      </trkpt>
      <trkpt lat="44.68867" lon="6.86511">
        <ele>2343.2</ele>
        <time>2026-03-25T10:35:54Z</time>
      </trkpt>
      <trkpt lat="44.68867" lon="6.86512">
        <ele>2343.6</ele>
        <time>2026-03-25T10:35:55Z</time>
      </trkpt>
      <trkpt lat="44.68867" lon="6.86514">
        <ele>2343.8</ele>
        <time>2026-03-25T10:35:56Z</time>
      </trkpt>
      <trkpt lat="44.68866" lon="6.86514">
        <ele>2343.8</ele>
        <time>2026-03-25T10:35:57Z</time>
      </trkpt>
      <trkpt lat="44.68866" lon="6.86515">
        <ele>2343.8</ele>
        <time>2026-03-25T10:35:58Z</time>
      </trkpt>
      <trkpt lat="44.68866" lon="6.86516">
        <ele>2343.8</ele>
        <time>2026-03-25T10:35:59Z</time>
      </trkpt>
      <trkpt lat="44.68865" lon="6.86516">
        <ele>2343.8</ele>
        <time>2026-03-25T10:36:00Z</time>
      </trkpt>
      <trkpt lat="44.68865" lon="6.86517">
        <ele>2344</ele>
        <time>2026-03-25T10:36:01Z</time>
      </trkpt>
      <trkpt lat="44.68865" lon="6.86518">
        <ele>2344</ele>
        <time>2026-03-25T10:36:02Z</time>
      </trkpt>
      <trkpt lat="44.68865" lon="6.86518">
        <ele>2344</ele>
        <time>2026-03-25T10:36:03Z</time>
      </trkpt>
      <trkpt lat="44.68864" lon="6.86519">
        <ele>2344</ele>
        <time>2026-03-25T10:36:05Z</time>
      </trkpt>
      <trkpt lat="44.68864" lon="6.8652">
        <ele>2344</ele>
        <time>2026-03-25T10:36:06Z</time>
      </trkpt>
      <trkpt lat="44.68864" lon="6.8652">
        <ele>2344.4</ele>
        <time>2026-03-25T10:36:07Z</time>
      </trkpt>
      <trkpt lat="44.68864" lon="6.86521">
        <ele>2344.6</ele>
        <time>2026-03-25T10:36:08Z</time>
      </trkpt>
      <trkpt lat="44.68864" lon="6.86522">
        <ele>2344.6</ele>
        <time>2026-03-25T10:36:09Z</time>
      </trkpt>
      <trkpt lat="44.68863" lon="6.86522">
        <ele>2344.6</ele>
        <time>2026-03-25T10:36:10Z</time>
      </trkpt>
      <trkpt lat="44.68863" lon="6.86523">
        <ele>2344.6</ele>
        <time>2026-03-25T10:36:11Z</time>
      </trkpt>
      <trkpt lat="44.68863" lon="6.86524">
        <ele>2344.6</ele>
        <time>2026-03-25T10:36:12Z</time>
      </trkpt>
      <trkpt lat="44.68863" lon="6.86525">
        <ele>2344.6</ele>
        <time>2026-03-25T10:36:13Z</time>
      </trkpt>
      <trkpt lat="44.68863" lon="6.86525">
        <ele>2344.6</ele>
        <time>2026-03-25T10:36:14Z</time>
      </trkpt>
      <trkpt lat="44.68862" lon="6.86527">
        <ele>2344.8</ele>
        <time>2026-03-25T10:36:15Z</time>
      </trkpt>
      <trkpt lat="44.68862" lon="6.86527">
        <ele>2344.8</ele>
        <time>2026-03-25T10:36:16Z</time>
      </trkpt>
      <trkpt lat="44.68862" lon="6.86528">
        <ele>2344.8</ele>
        <time>2026-03-25T10:36:17Z</time>
      </trkpt>
      <trkpt lat="44.68862" lon="6.86529">
        <ele>2344.8</ele>
        <time>2026-03-25T10:36:18Z</time>
      </trkpt>
      <trkpt lat="44.68861" lon="6.86529">
        <ele>2344.8</ele>
        <time>2026-03-25T10:36:19Z</time>
      </trkpt>
      <trkpt lat="44.68861" lon="6.8653">
        <ele>2344.8</ele>
        <time>2026-03-25T10:36:21Z</time>
      </trkpt>
      <trkpt lat="44.68861" lon="6.8653">
        <ele>2345.4</ele>
        <time>2026-03-25T10:36:22Z</time>
      </trkpt>
      <trkpt lat="44.6886" lon="6.8653">
        <ele>2345.4</ele>
        <time>2026-03-25T10:36:23Z</time>
      </trkpt>
      <trkpt lat="44.6886" lon="6.86531">
        <ele>2345.4</ele>
        <time>2026-03-25T10:36:24Z</time>
      </trkpt>
      <trkpt lat="44.68859" lon="6.86531">
        <ele>2345.4</ele>
        <time>2026-03-25T10:36:25Z</time>
      </trkpt>
      <trkpt lat="44.68859" lon="6.86532">
        <ele>2345.4</ele>
        <time>2026-03-25T10:36:26Z</time>
      </trkpt>
      <trkpt lat="44.68858" lon="6.86532">
        <ele>2345.4</ele>
        <time>2026-03-25T10:36:27Z</time>
      </trkpt>
      <trkpt lat="44.68858" lon="6.86532">
        <ele>2345.4</ele>
        <time>2026-03-25T10:36:28Z</time>
      </trkpt>
      <trkpt lat="44.68858" lon="6.86532">
        <ele>2345.8</ele>
        <time>2026-03-25T10:36:29Z</time>
      </trkpt>
      <trkpt lat="44.68857" lon="6.86533">
        <ele>2345.8</ele>
        <time>2026-03-25T10:36:30Z</time>
      </trkpt>
      <trkpt lat="44.68856" lon="6.86534">
        <ele>2345.8</ele>
        <time>2026-03-25T10:36:31Z</time>
      </trkpt>
      <trkpt lat="44.68856" lon="6.86534">
        <ele>2346</ele>
        <time>2026-03-25T10:36:32Z</time>
      </trkpt>
      <trkpt lat="44.68855" lon="6.86535">
        <ele>2346</ele>
        <time>2026-03-25T10:36:33Z</time>
      </trkpt>
      <trkpt lat="44.68855" lon="6.86536">
        <ele>2346.4</ele>
        <time>2026-03-25T10:36:34Z</time>
      </trkpt>
      <trkpt lat="44.68854" lon="6.86537">
        <ele>2346.4</ele>
        <time>2026-03-25T10:36:35Z</time>
      </trkpt>
      <trkpt lat="44.68854" lon="6.86537">
        <ele>2346.4</ele>
        <time>2026-03-25T10:36:37Z</time>
      </trkpt>
      <trkpt lat="44.68854" lon="6.86538">
        <ele>2346.4</ele>
        <time>2026-03-25T10:36:38Z</time>
      </trkpt>
      <trkpt lat="44.68854" lon="6.86538">
        <ele>2346.4</ele>
        <time>2026-03-25T10:36:39Z</time>
      </trkpt>
      <trkpt lat="44.68853" lon="6.86539">
        <ele>2346.6</ele>
        <time>2026-03-25T10:36:40Z</time>
      </trkpt>
      <trkpt lat="44.68853" lon="6.8654">
        <ele>2346.6</ele>
        <time>2026-03-25T10:36:41Z</time>
      </trkpt>
      <trkpt lat="44.68853" lon="6.8654">
        <ele>2346.6</ele>
        <time>2026-03-25T10:36:42Z</time>
      </trkpt>
      <trkpt lat="44.68852" lon="6.86541">
        <ele>2346.6</ele>
        <time>2026-03-25T10:36:43Z</time>
      </trkpt>
      <trkpt lat="44.68852" lon="6.86542">
        <ele>2346.6</ele>
        <time>2026-03-25T10:36:44Z</time>
      </trkpt>
      <trkpt lat="44.68852" lon="6.86542">
        <ele>2346.9</ele>
        <time>2026-03-25T10:36:45Z</time>
      </trkpt>
      <trkpt lat="44.68852" lon="6.86543">
        <ele>2347.2</ele>
        <time>2026-03-25T10:36:46Z</time>
      </trkpt>
      <trkpt lat="44.68851" lon="6.86543">
        <ele>2347.2</ele>
        <time>2026-03-25T10:36:47Z</time>
      </trkpt>
      <trkpt lat="44.68851" lon="6.86544">
        <ele>2347.2</ele>
        <time>2026-03-25T10:36:48Z</time>
      </trkpt>
      <trkpt lat="44.68851" lon="6.86545">
        <ele>2347.2</ele>
        <time>2026-03-25T10:36:49Z</time>
      </trkpt>
      <trkpt lat="44.6885" lon="6.86545">
        <ele>2347.2</ele>
        <time>2026-03-25T10:36:50Z</time>
      </trkpt>
      <trkpt lat="44.6885" lon="6.86546">
        <ele>2347.2</ele>
        <time>2026-03-25T10:36:51Z</time>
      </trkpt>
      <trkpt lat="44.6885" lon="6.86546">
        <ele>2347.2</ele>
        <time>2026-03-25T10:36:52Z</time>
      </trkpt>
      <trkpt lat="44.6885" lon="6.86547">
        <ele>2347.2</ele>
        <time>2026-03-25T10:36:53Z</time>
      </trkpt>
      <trkpt lat="44.68849" lon="6.86547">
        <ele>2347.4</ele>
        <time>2026-03-25T10:36:54Z</time>
      </trkpt>
      <trkpt lat="44.68849" lon="6.86548">
        <ele>2347.4</ele>
        <time>2026-03-25T10:36:55Z</time>
      </trkpt>
      <trkpt lat="44.68849" lon="6.86548">
        <ele>2347.8</ele>
        <time>2026-03-25T10:36:56Z</time>
      </trkpt>
      <trkpt lat="44.68849" lon="6.86549">
        <ele>2347.8</ele>
        <time>2026-03-25T10:36:57Z</time>
      </trkpt>
      <trkpt lat="44.68848" lon="6.86549">
        <ele>2347.8</ele>
        <time>2026-03-25T10:36:58Z</time>
      </trkpt>
      <trkpt lat="44.68848" lon="6.8655">
        <ele>2347.8</ele>
        <time>2026-03-25T10:36:59Z</time>
      </trkpt>
      <trkpt lat="44.68848" lon="6.86551">
        <ele>2347.8</ele>
        <time>2026-03-25T10:37:00Z</time>
      </trkpt>
      <trkpt lat="44.68848" lon="6.86551">
        <ele>2348.1</ele>
        <time>2026-03-25T10:37:01Z</time>
      </trkpt>
      <trkpt lat="44.68848" lon="6.86552">
        <ele>2348.1</ele>
        <time>2026-03-25T10:37:02Z</time>
      </trkpt>
      <trkpt lat="44.68847" lon="6.86552">
        <ele>2348.1</ele>
        <time>2026-03-25T10:37:03Z</time>
      </trkpt>
      <trkpt lat="44.68847" lon="6.86553">
        <ele>2348.1</ele>
        <time>2026-03-25T10:37:04Z</time>
      </trkpt>
      <trkpt lat="44.68847" lon="6.86554">
        <ele>2348.1</ele>
        <time>2026-03-25T10:37:05Z</time>
      </trkpt>
      <trkpt lat="44.68847" lon="6.86554">
        <ele>2348.1</ele>
        <time>2026-03-25T10:37:06Z</time>
      </trkpt>
      <trkpt lat="44.68846" lon="6.86555">
        <ele>2348.1</ele>
        <time>2026-03-25T10:37:07Z</time>
      </trkpt>
      <trkpt lat="44.68846" lon="6.86556">
        <ele>2348.4</ele>
        <time>2026-03-25T10:37:08Z</time>
      </trkpt>
      <trkpt lat="44.68846" lon="6.86556">
        <ele>2348.8</ele>
        <time>2026-03-25T10:37:09Z</time>
      </trkpt>
      <trkpt lat="44.68845" lon="6.86557">
        <ele>2348.8</ele>
        <time>2026-03-25T10:37:10Z</time>
      </trkpt>
      <trkpt lat="44.68845" lon="6.86557">
        <ele>2348.8</ele>
        <time>2026-03-25T10:37:11Z</time>
      </trkpt>
      <trkpt lat="44.68845" lon="6.86558">
        <ele>2348.8</ele>
        <time>2026-03-25T10:37:12Z</time>
      </trkpt>
      <trkpt lat="44.68844" lon="6.86558">
        <ele>2348.8</ele>
        <time>2026-03-25T10:37:13Z</time>
      </trkpt>
      <trkpt lat="44.68844" lon="6.86559">
        <ele>2348.8</ele>
        <time>2026-03-25T10:37:14Z</time>
      </trkpt>
      <trkpt lat="44.68844" lon="6.8656">
        <ele>2349.1</ele>
        <time>2026-03-25T10:37:15Z</time>
      </trkpt>
      <trkpt lat="44.68844" lon="6.86561">
        <ele>2349.1</ele>
        <time>2026-03-25T10:37:16Z</time>
      </trkpt>
      <trkpt lat="44.68844" lon="6.86562">
        <ele>2349.1</ele>
        <time>2026-03-25T10:37:17Z</time>
      </trkpt>
      <trkpt lat="44.68843" lon="6.86563">
        <ele>2349.1</ele>
        <time>2026-03-25T10:37:18Z</time>
      </trkpt>
      <trkpt lat="44.68843" lon="6.86563">
        <ele>2349.1</ele>
        <time>2026-03-25T10:37:19Z</time>
      </trkpt>
      <trkpt lat="44.68843" lon="6.86564">
        <ele>2349.4</ele>
        <time>2026-03-25T10:37:20Z</time>
      </trkpt>
      <trkpt lat="44.68843" lon="6.86565">
        <ele>2349.4</ele>
        <time>2026-03-25T10:37:21Z</time>
      </trkpt>
      <trkpt lat="44.68843" lon="6.86565">
        <ele>2349.4</ele>
        <time>2026-03-25T10:37:22Z</time>
      </trkpt>
      <trkpt lat="44.68843" lon="6.86566">
        <ele>2349.4</ele>
        <time>2026-03-25T10:37:23Z</time>
      </trkpt>
      <trkpt lat="44.68843" lon="6.86567">
        <ele>2349.9</ele>
        <time>2026-03-25T10:37:24Z</time>
      </trkpt>
      <trkpt lat="44.68842" lon="6.86567">
        <ele>2349.9</ele>
        <time>2026-03-25T10:37:25Z</time>
      </trkpt>
      <trkpt lat="44.68842" lon="6.86568">
        <ele>2349.9</ele>
        <time>2026-03-25T10:37:26Z</time>
      </trkpt>
      <trkpt lat="44.68842" lon="6.86568">
        <ele>2350.2</ele>
        <time>2026-03-25T10:37:27Z</time>
      </trkpt>
      <trkpt lat="44.68842" lon="6.86569">
        <ele>2350.2</ele>
        <time>2026-03-25T10:37:28Z</time>
      </trkpt>
      <trkpt lat="44.68841" lon="6.8657">
        <ele>2350.2</ele>
        <time>2026-03-25T10:37:29Z</time>
      </trkpt>
      <trkpt lat="44.68841" lon="6.86571">
        <ele>2350.2</ele>
        <time>2026-03-25T10:37:30Z</time>
      </trkpt>
      <trkpt lat="44.6884" lon="6.86572">
        <ele>2350.2</ele>
        <time>2026-03-25T10:37:32Z</time>
      </trkpt>
      <trkpt lat="44.6884" lon="6.86572">
        <ele>2350.2</ele>
        <time>2026-03-25T10:37:33Z</time>
      </trkpt>
      <trkpt lat="44.6884" lon="6.86573">
        <ele>2350.4</ele>
        <time>2026-03-25T10:37:34Z</time>
      </trkpt>
      <trkpt lat="44.6884" lon="6.86573">
        <ele>2350.4</ele>
        <time>2026-03-25T10:37:35Z</time>
      </trkpt>
      <trkpt lat="44.6884" lon="6.86574">
        <ele>2350.9</ele>
        <time>2026-03-25T10:37:36Z</time>
      </trkpt>
      <trkpt lat="44.68839" lon="6.86575">
        <ele>2350.9</ele>
        <time>2026-03-25T10:37:37Z</time>
      </trkpt>
      <trkpt lat="44.68839" lon="6.86575">
        <ele>2350.9</ele>
        <time>2026-03-25T10:37:38Z</time>
      </trkpt>
      <trkpt lat="44.68839" lon="6.86576">
        <ele>2350.9</ele>
        <time>2026-03-25T10:37:39Z</time>
      </trkpt>
      <trkpt lat="44.68838" lon="6.86576">
        <ele>2350.9</ele>
        <time>2026-03-25T10:37:40Z</time>
      </trkpt>
      <trkpt lat="44.68837" lon="6.86577">
        <ele>2350.9</ele>
        <time>2026-03-25T10:37:41Z</time>
      </trkpt>
      <trkpt lat="44.68837" lon="6.86577">
        <ele>2351.1</ele>
        <time>2026-03-25T10:37:42Z</time>
      </trkpt>
      <trkpt lat="44.68836" lon="6.86577">
        <ele>2351.5</ele>
        <time>2026-03-25T10:37:43Z</time>
      </trkpt>
      <trkpt lat="44.68836" lon="6.86578">
        <ele>2351.5</ele>
        <time>2026-03-25T10:37:44Z</time>
      </trkpt>
      <trkpt lat="44.68835" lon="6.86578">
        <ele>2351.5</ele>
        <time>2026-03-25T10:37:45Z</time>
      </trkpt>
      <trkpt lat="44.68835" lon="6.86578">
        <ele>2351.5</ele>
        <time>2026-03-25T10:37:46Z</time>
      </trkpt>
      <trkpt lat="44.68834" lon="6.86579">
        <ele>2351.5</ele>
        <time>2026-03-25T10:37:47Z</time>
      </trkpt>
      <trkpt lat="44.68833" lon="6.86579">
        <ele>2352</ele>
        <time>2026-03-25T10:37:49Z</time>
      </trkpt>
      <trkpt lat="44.68833" lon="6.86579">
        <ele>2352</ele>
        <time>2026-03-25T10:37:50Z</time>
      </trkpt>
      <trkpt lat="44.68832" lon="6.8658">
        <ele>2352</ele>
        <time>2026-03-25T10:37:51Z</time>
      </trkpt>
      <trkpt lat="44.68831" lon="6.8658">
        <ele>2352</ele>
        <time>2026-03-25T10:37:52Z</time>
      </trkpt>
      <trkpt lat="44.68831" lon="6.86581">
        <ele>2352</ele>
        <time>2026-03-25T10:37:53Z</time>
      </trkpt>
      <trkpt lat="44.68831" lon="6.86581">
        <ele>2352</ele>
        <time>2026-03-25T10:37:54Z</time>
      </trkpt>
      <trkpt lat="44.6883" lon="6.86581">
        <ele>2352.4</ele>
        <time>2026-03-25T10:37:55Z</time>
      </trkpt>
      <trkpt lat="44.68829" lon="6.86582">
        <ele>2352.6</ele>
        <time>2026-03-25T10:37:56Z</time>
      </trkpt>
      <trkpt lat="44.68829" lon="6.86582">
        <ele>2352.6</ele>
        <time>2026-03-25T10:37:58Z</time>
      </trkpt>
      <trkpt lat="44.68829" lon="6.86582">
        <ele>2352.6</ele>
        <time>2026-03-25T10:37:59Z</time>
      </trkpt>
      <trkpt lat="44.68828" lon="6.86582">
        <ele>2352.6</ele>
        <time>2026-03-25T10:38:00Z</time>
      </trkpt>
      <trkpt lat="44.68828" lon="6.86582">
        <ele>2352.6</ele>
        <time>2026-03-25T10:38:01Z</time>
      </trkpt>
      <trkpt lat="44.68827" lon="6.86583">
        <ele>2353</ele>
        <time>2026-03-25T10:38:02Z</time>
      </trkpt>
      <trkpt lat="44.68827" lon="6.86583">
        <ele>2353</ele>
        <time>2026-03-25T10:38:03Z</time>
      </trkpt>
      <trkpt lat="44.68826" lon="6.86583">
        <ele>2353</ele>
        <time>2026-03-25T10:38:04Z</time>
      </trkpt>
      <trkpt lat="44.68826" lon="6.86584">
        <ele>2353</ele>
        <time>2026-03-25T10:38:05Z</time>
      </trkpt>
      <trkpt lat="44.68825" lon="6.86584">
        <ele>2353</ele>
        <time>2026-03-25T10:38:06Z</time>
      </trkpt>
      <trkpt lat="44.68825" lon="6.86585">
        <ele>2353</ele>
        <time>2026-03-25T10:38:07Z</time>
      </trkpt>
      <trkpt lat="44.68824" lon="6.86585">
        <ele>2353.3</ele>
        <time>2026-03-25T10:38:08Z</time>
      </trkpt>
      <trkpt lat="44.68824" lon="6.86585">
        <ele>2353.3</ele>
        <time>2026-03-25T10:38:10Z</time>
      </trkpt>
      <trkpt lat="44.68823" lon="6.86586">
        <ele>2353.5</ele>
        <time>2026-03-25T10:38:11Z</time>
      </trkpt>
      <trkpt lat="44.68823" lon="6.86586">
        <ele>2353.5</ele>
        <time>2026-03-25T10:38:12Z</time>
      </trkpt>
      <trkpt lat="44.68822" lon="6.86587">
        <ele>2353.5</ele>
        <time>2026-03-25T10:38:13Z</time>
      </trkpt>
      <trkpt lat="44.68822" lon="6.86588">
        <ele>2353.5</ele>
        <time>2026-03-25T10:38:14Z</time>
      </trkpt>
      <trkpt lat="44.68821" lon="6.86588">
        <ele>2353.8</ele>
        <time>2026-03-25T10:38:15Z</time>
      </trkpt>
      <trkpt lat="44.68821" lon="6.86589">
        <ele>2353.8</ele>
        <time>2026-03-25T10:38:16Z</time>
      </trkpt>
      <trkpt lat="44.6882" lon="6.86589">
        <ele>2353.8</ele>
        <time>2026-03-25T10:38:17Z</time>
      </trkpt>
      <trkpt lat="44.6882" lon="6.8659">
        <ele>2353.8</ele>
        <time>2026-03-25T10:38:18Z</time>
      </trkpt>
      <trkpt lat="44.68819" lon="6.8659">
        <ele>2354</ele>
        <time>2026-03-25T10:38:19Z</time>
      </trkpt>
      <trkpt lat="44.68818" lon="6.86591">
        <ele>2354.3</ele>
        <time>2026-03-25T10:38:20Z</time>
      </trkpt>
      <trkpt lat="44.68818" lon="6.86591">
        <ele>2354.3</ele>
        <time>2026-03-25T10:38:21Z</time>
      </trkpt>
      <trkpt lat="44.68817" lon="6.86591">
        <ele>2354.3</ele>
        <time>2026-03-25T10:38:23Z</time>
      </trkpt>
      <trkpt lat="44.68817" lon="6.86592">
        <ele>2354.3</ele>
        <time>2026-03-25T10:38:24Z</time>
      </trkpt>
      <trkpt lat="44.68816" lon="6.86592">
        <ele>2354.3</ele>
        <time>2026-03-25T10:38:25Z</time>
      </trkpt>
      <trkpt lat="44.68815" lon="6.86593">
        <ele>2354.5</ele>
        <time>2026-03-25T10:38:26Z</time>
      </trkpt>
      <trkpt lat="44.68814" lon="6.86594">
        <ele>2354.5</ele>
        <time>2026-03-25T10:38:27Z</time>
      </trkpt>
      <trkpt lat="44.68813" lon="6.86594">
        <ele>2354.7</ele>
        <time>2026-03-25T10:38:28Z</time>
      </trkpt>
      <trkpt lat="44.68813" lon="6.86595">
        <ele>2354.7</ele>
        <time>2026-03-25T10:38:29Z</time>
      </trkpt>
      <trkpt lat="44.68812" lon="6.86595">
        <ele>2354.7</ele>
        <time>2026-03-25T10:38:30Z</time>
      </trkpt>
      <trkpt lat="44.68812" lon="6.86596">
        <ele>2355</ele>
        <time>2026-03-25T10:38:31Z</time>
      </trkpt>
      <trkpt lat="44.68811" lon="6.86596">
        <ele>2355</ele>
        <time>2026-03-25T10:38:32Z</time>
      </trkpt>
      <trkpt lat="44.68811" lon="6.86596">
        <ele>2355</ele>
        <time>2026-03-25T10:38:33Z</time>
      </trkpt>
      <trkpt lat="44.6881" lon="6.86597">
        <ele>2355</ele>
        <time>2026-03-25T10:38:34Z</time>
      </trkpt>
      <trkpt lat="44.6881" lon="6.86597">
        <ele>2355</ele>
        <time>2026-03-25T10:38:35Z</time>
      </trkpt>
      <trkpt lat="44.6881" lon="6.86598">
        <ele>2355</ele>
        <time>2026-03-25T10:38:36Z</time>
      </trkpt>
      <trkpt lat="44.68809" lon="6.86598">
        <ele>2355.3</ele>
        <time>2026-03-25T10:38:37Z</time>
      </trkpt>
      <trkpt lat="44.68809" lon="6.86599">
        <ele>2355.5</ele>
        <time>2026-03-25T10:38:38Z</time>
      </trkpt>
      <trkpt lat="44.68808" lon="6.86599">
        <ele>2355.5</ele>
        <time>2026-03-25T10:38:39Z</time>
      </trkpt>
      <trkpt lat="44.68808" lon="6.866">
        <ele>2355.5</ele>
        <time>2026-03-25T10:38:40Z</time>
      </trkpt>
      <trkpt lat="44.68807" lon="6.866">
        <ele>2355.5</ele>
        <time>2026-03-25T10:38:41Z</time>
      </trkpt>
      <trkpt lat="44.68807" lon="6.866">
        <ele>2355.5</ele>
        <time>2026-03-25T10:38:42Z</time>
      </trkpt>
      <trkpt lat="44.68806" lon="6.86601">
        <ele>2355.5</ele>
        <time>2026-03-25T10:38:43Z</time>
      </trkpt>
      <trkpt lat="44.68806" lon="6.86601">
        <ele>2355.8</ele>
        <time>2026-03-25T10:38:44Z</time>
      </trkpt>
      <trkpt lat="44.68804" lon="6.86603">
        <ele>2355.8</ele>
        <time>2026-03-25T10:38:45Z</time>
      </trkpt>
      <trkpt lat="44.68804" lon="6.86603">
        <ele>2356</ele>
        <time>2026-03-25T10:38:46Z</time>
      </trkpt>
      <trkpt lat="44.68803" lon="6.86604">
        <ele>2356</ele>
        <time>2026-03-25T10:38:47Z</time>
      </trkpt>
      <trkpt lat="44.68803" lon="6.86604">
        <ele>2356.2</ele>
        <time>2026-03-25T10:38:49Z</time>
      </trkpt>
      <trkpt lat="44.68802" lon="6.86605">
        <ele>2356.2</ele>
        <time>2026-03-25T10:38:50Z</time>
      </trkpt>
      <trkpt lat="44.68802" lon="6.86605">
        <ele>2356.2</ele>
        <time>2026-03-25T10:38:51Z</time>
      </trkpt>
      <trkpt lat="44.68802" lon="6.86605">
        <ele>2356.2</ele>
        <time>2026-03-25T10:38:52Z</time>
      </trkpt>
      <trkpt lat="44.68803" lon="6.86605">
        <ele>2356.2</ele>
        <time>2026-03-25T10:38:53Z</time>
      </trkpt>
      <trkpt lat="44.68803" lon="6.86604">
        <ele>2356.2</ele>
        <time>2026-03-25T10:38:54Z</time>
      </trkpt>
      <trkpt lat="44.68803" lon="6.86604">
        <ele>2356.2</ele>
        <time>2026-03-25T10:38:55Z</time>
      </trkpt>
      <trkpt lat="44.68803" lon="6.86604">
        <ele>2356.2</ele>
        <time>2026-03-25T10:38:56Z</time>
      </trkpt>
      <trkpt lat="44.68803" lon="6.86604">
        <ele>2356.2</ele>
        <time>2026-03-25T10:38:57Z</time>
      </trkpt>
      <trkpt lat="44.68803" lon="6.86604">
        <ele>2356.2</ele>
        <time>2026-03-25T10:38:58Z</time>
      </trkpt>
      <trkpt lat="44.68803" lon="6.86604">
        <ele>2356</ele>
        <time>2026-03-25T10:38:59Z</time>
      </trkpt>
      <trkpt lat="44.68803" lon="6.86604">
        <ele>2356</ele>
        <time>2026-03-25T10:39:00Z</time>
      </trkpt>
      <trkpt lat="44.68803" lon="6.86604">
        <ele>2356</ele>
        <time>2026-03-25T10:39:01Z</time>
      </trkpt>
      <trkpt lat="44.68803" lon="6.86603">
        <ele>2356</ele>
        <time>2026-03-25T10:39:02Z</time>
      </trkpt>
      <trkpt lat="44.68803" lon="6.86603">
        <ele>2356</ele>
        <time>2026-03-25T10:39:03Z</time>
      </trkpt>
      <trkpt lat="44.68803" lon="6.86603">
        <ele>2356</ele>
        <time>2026-03-25T10:39:04Z</time>
      </trkpt>
      <trkpt lat="44.68803" lon="6.86603">
        <ele>2356</ele>
        <time>2026-03-25T10:39:05Z</time>
      </trkpt>
      <trkpt lat="44.68803" lon="6.86603">
        <ele>2356</ele>
        <time>2026-03-25T10:39:06Z</time>
      </trkpt>
      <trkpt lat="44.68803" lon="6.86603">
        <ele>2356</ele>
        <time>2026-03-25T10:39:07Z</time>
      </trkpt>
      <trkpt lat="44.68803" lon="6.86603">
        <ele>2356</ele>
        <time>2026-03-25T10:39:08Z</time>
      </trkpt>
      <trkpt lat="44.68803" lon="6.86603">
        <ele>2356</ele>
        <time>2026-03-25T10:39:09Z</time>
      </trkpt>
      <trkpt lat="44.68803" lon="6.86603">
        <ele>2356</ele>
        <time>2026-03-25T10:39:10Z</time>
      </trkpt>
      <trkpt lat="44.68803" lon="6.86603">
        <ele>2356</ele>
        <time>2026-03-25T10:39:11Z</time>
      </trkpt>
      <trkpt lat="44.68803" lon="6.86603">
        <ele>2356</ele>
        <time>2026-03-25T10:39:12Z</time>
      </trkpt>
      <trkpt lat="44.68803" lon="6.86603">
        <ele>2356</ele>
        <time>2026-03-25T10:39:13Z</time>
      </trkpt>
      <trkpt lat="44.68803" lon="6.86603">
        <ele>2356</ele>
        <time>2026-03-25T10:39:14Z</time>
      </trkpt>
      <trkpt lat="44.68803" lon="6.86603">
        <ele>2356</ele>
        <time>2026-03-25T10:39:15Z</time>
      </trkpt>
      <trkpt lat="44.68803" lon="6.86603">
        <ele>2356</ele>
        <time>2026-03-25T10:39:16Z</time>
      </trkpt>
      <trkpt lat="44.68803" lon="6.86603">
        <ele>2356</ele>
        <time>2026-03-25T10:39:17Z</time>
      </trkpt>
      <trkpt lat="44.68803" lon="6.86603">
        <ele>2356</ele>
        <time>2026-03-25T10:39:18Z</time>
      </trkpt>
      <trkpt lat="44.68803" lon="6.86603">
        <ele>2356</ele>
        <time>2026-03-25T10:39:19Z</time>
      </trkpt>
      <trkpt lat="44.68804" lon="6.86602">
        <ele>2355.8</ele>
        <time>2026-03-25T10:39:20Z</time>
      </trkpt>
      <trkpt lat="44.68804" lon="6.86602">
        <ele>2355.8</ele>
        <time>2026-03-25T10:39:21Z</time>
      </trkpt>
      <trkpt lat="44.68804" lon="6.86602">
        <ele>2355.8</ele>
        <time>2026-03-25T10:39:22Z</time>
      </trkpt>
      <trkpt lat="44.68804" lon="6.86602">
        <ele>2355.8</ele>
        <time>2026-03-25T10:39:23Z</time>
      </trkpt>
      <trkpt lat="44.68804" lon="6.86602">
        <ele>2355.8</ele>
        <time>2026-03-25T10:39:24Z</time>
      </trkpt>
      <trkpt lat="44.68804" lon="6.86602">
        <ele>2355.8</ele>
        <time>2026-03-25T10:39:25Z</time>
      </trkpt>
      <trkpt lat="44.68804" lon="6.86602">
        <ele>2355.8</ele>
        <time>2026-03-25T10:39:26Z</time>
      </trkpt>
      <trkpt lat="44.68804" lon="6.86602">
        <ele>2355.8</ele>
        <time>2026-03-25T10:39:27Z</time>
      </trkpt>
      <trkpt lat="44.68804" lon="6.86602">
        <ele>2355.8</ele>
        <time>2026-03-25T10:39:28Z</time>
      </trkpt>
      <trkpt lat="44.68804" lon="6.86602">
        <ele>2355.8</ele>
        <time>2026-03-25T10:39:29Z</time>
      </trkpt>
      <trkpt lat="44.68804" lon="6.86602">
        <ele>2355.8</ele>
        <time>2026-03-25T10:39:30Z</time>
      </trkpt>
      <trkpt lat="44.68804" lon="6.86601">
        <ele>2355.8</ele>
        <time>2026-03-25T10:39:31Z</time>
      </trkpt>
      <trkpt lat="44.68804" lon="6.86602">
        <ele>2355.8</ele>
        <time>2026-03-25T10:39:32Z</time>
      </trkpt>
      <trkpt lat="44.68803" lon="6.86602">
        <ele>2356</ele>
        <time>2026-03-25T10:39:33Z</time>
      </trkpt>
      <trkpt lat="44.68802" lon="6.86603">
        <ele>2356.2</ele>
        <time>2026-03-25T10:39:34Z</time>
      </trkpt>
      <trkpt lat="44.68801" lon="6.86603">
        <ele>2356.2</ele>
        <time>2026-03-25T10:39:35Z</time>
      </trkpt>
      <trkpt lat="44.688" lon="6.86604">
        <ele>2356.2</ele>
        <time>2026-03-25T10:39:36Z</time>
      </trkpt>
      <trkpt lat="44.688" lon="6.86604">
        <ele>2356.5</ele>
        <time>2026-03-25T10:39:37Z</time>
      </trkpt>
      <trkpt lat="44.68799" lon="6.86605">
        <ele>2356.5</ele>
        <time>2026-03-25T10:39:38Z</time>
      </trkpt>
      <trkpt lat="44.68798" lon="6.86606">
        <ele>2356.5</ele>
        <time>2026-03-25T10:39:39Z</time>
      </trkpt>
      <trkpt lat="44.68797" lon="6.86606">
        <ele>2356.5</ele>
        <time>2026-03-25T10:39:40Z</time>
      </trkpt>
      <trkpt lat="44.68797" lon="6.86607">
        <ele>2356.9</ele>
        <time>2026-03-25T10:39:41Z</time>
      </trkpt>
      <trkpt lat="44.68796" lon="6.86608">
        <ele>2356.9</ele>
        <time>2026-03-25T10:39:42Z</time>
      </trkpt>
      <trkpt lat="44.68795" lon="6.86608">
        <ele>2356.9</ele>
        <time>2026-03-25T10:39:43Z</time>
      </trkpt>
      <trkpt lat="44.68795" lon="6.86609">
        <ele>2356.9</ele>
        <time>2026-03-25T10:39:44Z</time>
      </trkpt>
      <trkpt lat="44.68794" lon="6.86609">
        <ele>2357.1</ele>
        <time>2026-03-25T10:39:45Z</time>
      </trkpt>
      <trkpt lat="44.68793" lon="6.8661">
        <ele>2357.1</ele>
        <time>2026-03-25T10:39:46Z</time>
      </trkpt>
      <trkpt lat="44.68792" lon="6.8661">
        <ele>2357.1</ele>
        <time>2026-03-25T10:39:47Z</time>
      </trkpt>
      <trkpt lat="44.68792" lon="6.86611">
        <ele>2357.1</ele>
        <time>2026-03-25T10:39:48Z</time>
      </trkpt>
      <trkpt lat="44.68791" lon="6.86611">
        <ele>2357.3</ele>
        <time>2026-03-25T10:39:49Z</time>
      </trkpt>
      <trkpt lat="44.6879" lon="6.86612">
        <ele>2357.5</ele>
        <time>2026-03-25T10:39:50Z</time>
      </trkpt>
      <trkpt lat="44.6879" lon="6.86612">
        <ele>2357.5</ele>
        <time>2026-03-25T10:39:51Z</time>
      </trkpt>
      <trkpt lat="44.68789" lon="6.86613">
        <ele>2357.5</ele>
        <time>2026-03-25T10:39:52Z</time>
      </trkpt>
      <trkpt lat="44.68788" lon="6.86614">
        <ele>2357.5</ele>
        <time>2026-03-25T10:39:53Z</time>
      </trkpt>
      <trkpt lat="44.68788" lon="6.86615">
        <ele>2357.5</ele>
        <time>2026-03-25T10:39:54Z</time>
      </trkpt>
      <trkpt lat="44.68787" lon="6.86615">
        <ele>2357.7</ele>
        <time>2026-03-25T10:39:55Z</time>
      </trkpt>
      <trkpt lat="44.68787" lon="6.86616">
        <ele>2357.9</ele>
        <time>2026-03-25T10:39:56Z</time>
      </trkpt>
      <trkpt lat="44.68786" lon="6.86616">
        <ele>2357.9</ele>
        <time>2026-03-25T10:39:57Z</time>
      </trkpt>
      <trkpt lat="44.68785" lon="6.86617">
        <ele>2357.9</ele>
        <time>2026-03-25T10:39:58Z</time>
      </trkpt>
      <trkpt lat="44.68785" lon="6.86618">
        <ele>2358.1</ele>
        <time>2026-03-25T10:39:59Z</time>
      </trkpt>
      <trkpt lat="44.68784" lon="6.86618">
        <ele>2358.1</ele>
        <time>2026-03-25T10:40:00Z</time>
      </trkpt>
      <trkpt lat="44.68784" lon="6.86619">
        <ele>2358.1</ele>
        <time>2026-03-25T10:40:01Z</time>
      </trkpt>
      <trkpt lat="44.68783" lon="6.8662">
        <ele>2358.1</ele>
        <time>2026-03-25T10:40:02Z</time>
      </trkpt>
      <trkpt lat="44.68783" lon="6.8662">
        <ele>2358.3</ele>
        <time>2026-03-25T10:40:03Z</time>
      </trkpt>
      <trkpt lat="44.68782" lon="6.86621">
        <ele>2358.3</ele>
        <time>2026-03-25T10:40:04Z</time>
      </trkpt>
      <trkpt lat="44.68782" lon="6.86621">
        <ele>2358.6</ele>
        <time>2026-03-25T10:40:05Z</time>
      </trkpt>
      <trkpt lat="44.68781" lon="6.86623">
        <ele>2358.6</ele>
        <time>2026-03-25T10:40:06Z</time>
      </trkpt>
      <trkpt lat="44.68781" lon="6.86623">
        <ele>2358.6</ele>
        <time>2026-03-25T10:40:07Z</time>
      </trkpt>
      <trkpt lat="44.6878" lon="6.86624">
        <ele>2358.6</ele>
        <time>2026-03-25T10:40:08Z</time>
      </trkpt>
      <trkpt lat="44.6878" lon="6.86624">
        <ele>2358.8</ele>
        <time>2026-03-25T10:40:09Z</time>
      </trkpt>
      <trkpt lat="44.68779" lon="6.86625">
        <ele>2358.8</ele>
        <time>2026-03-25T10:40:10Z</time>
      </trkpt>
      <trkpt lat="44.68779" lon="6.86625">
        <ele>2359</ele>
        <time>2026-03-25T10:40:11Z</time>
      </trkpt>
      <trkpt lat="44.68778" lon="6.86625">
        <ele>2359</ele>
        <time>2026-03-25T10:40:12Z</time>
      </trkpt>
      <trkpt lat="44.68778" lon="6.86626">
        <ele>2359</ele>
        <time>2026-03-25T10:40:13Z</time>
      </trkpt>
      <trkpt lat="44.68778" lon="6.86626">
        <ele>2359</ele>
        <time>2026-03-25T10:40:14Z</time>
      </trkpt>
      <trkpt lat="44.68778" lon="6.86626">
        <ele>2359</ele>
        <time>2026-03-25T10:40:15Z</time>
      </trkpt>
      <trkpt lat="44.68778" lon="6.86626">
        <ele>2359</ele>
        <time>2026-03-25T10:40:16Z</time>
      </trkpt>
      <trkpt lat="44.68778" lon="6.86626">
        <ele>2359</ele>
        <time>2026-03-25T10:40:17Z</time>
      </trkpt>
      <trkpt lat="44.68778" lon="6.86626">
        <ele>2359</ele>
        <time>2026-03-25T10:40:18Z</time>
      </trkpt>
      <trkpt lat="44.68778" lon="6.86626">
        <ele>2359</ele>
        <time>2026-03-25T10:40:19Z</time>
      </trkpt>
      <trkpt lat="44.68778" lon="6.86626">
        <ele>2359</ele>
        <time>2026-03-25T10:40:20Z</time>
      </trkpt>
      <trkpt lat="44.68778" lon="6.86625">
        <ele>2359</ele>
        <time>2026-03-25T10:40:21Z</time>
      </trkpt>
      <trkpt lat="44.68778" lon="6.86625">
        <ele>2359</ele>
        <time>2026-03-25T10:40:22Z</time>
      </trkpt>
      <trkpt lat="44.68778" lon="6.86625">
        <ele>2359</ele>
        <time>2026-03-25T10:40:23Z</time>
      </trkpt>
      <trkpt lat="44.68778" lon="6.86625">
        <ele>2359</ele>
        <time>2026-03-25T10:40:24Z</time>
      </trkpt>
      <trkpt lat="44.68778" lon="6.86625">
        <ele>2359</ele>
        <time>2026-03-25T10:40:25Z</time>
      </trkpt>
      <trkpt lat="44.68778" lon="6.86625">
        <ele>2359</ele>
        <time>2026-03-25T10:40:26Z</time>
      </trkpt>
      <trkpt lat="44.68778" lon="6.86625">
        <ele>2359</ele>
        <time>2026-03-25T10:40:27Z</time>
      </trkpt>
      <trkpt lat="44.68778" lon="6.86625">
        <ele>2359</ele>
        <time>2026-03-25T10:40:28Z</time>
      </trkpt>
      <trkpt lat="44.68778" lon="6.86625">
        <ele>2359</ele>
        <time>2026-03-25T10:40:29Z</time>
      </trkpt>
      <trkpt lat="44.68778" lon="6.86625">
        <ele>2359</ele>
        <time>2026-03-25T10:40:30Z</time>
      </trkpt>
      <trkpt lat="44.68778" lon="6.86624">
        <ele>2359</ele>
        <time>2026-03-25T10:40:31Z</time>
      </trkpt>
      <trkpt lat="44.68778" lon="6.86624">
        <ele>2359</ele>
        <time>2026-03-25T10:40:32Z</time>
      </trkpt>
      <trkpt lat="44.68778" lon="6.86624">
        <ele>2359</ele>
        <time>2026-03-25T10:40:33Z</time>
      </trkpt>
      <trkpt lat="44.68778" lon="6.86624">
        <ele>2359</ele>
        <time>2026-03-25T10:40:34Z</time>
      </trkpt>
      <trkpt lat="44.68778" lon="6.86624">
        <ele>2359</ele>
        <time>2026-03-25T10:40:35Z</time>
      </trkpt>
      <trkpt lat="44.68778" lon="6.86624">
        <ele>2359</ele>
        <time>2026-03-25T10:40:36Z</time>
      </trkpt>
      <trkpt lat="44.68778" lon="6.86624">
        <ele>2359</ele>
        <time>2026-03-25T10:40:37Z</time>
      </trkpt>
      <trkpt lat="44.68778" lon="6.86624">
        <ele>2359</ele>
        <time>2026-03-25T10:40:38Z</time>
      </trkpt>
      <trkpt lat="44.68778" lon="6.86624">
        <ele>2359</ele>
        <time>2026-03-25T10:40:39Z</time>
      </trkpt>
      <trkpt lat="44.68778" lon="6.86624">
        <ele>2359</ele>
        <time>2026-03-25T10:40:40Z</time>
      </trkpt>
      <trkpt lat="44.68778" lon="6.86624">
        <ele>2359</ele>
        <time>2026-03-25T10:40:41Z</time>
      </trkpt>
      <trkpt lat="44.68778" lon="6.86624">
        <ele>2359</ele>
        <time>2026-03-25T10:40:42Z</time>
      </trkpt>
      <trkpt lat="44.68778" lon="6.86624">
        <ele>2359</ele>
        <time>2026-03-25T10:40:43Z</time>
      </trkpt>
      <trkpt lat="44.68778" lon="6.86624">
        <ele>2358.9</ele>
        <time>2026-03-25T10:40:44Z</time>
      </trkpt>
      <trkpt lat="44.68778" lon="6.86624">
        <ele>2358.9</ele>
        <time>2026-03-25T10:40:45Z</time>
      </trkpt>
      <trkpt lat="44.68778" lon="6.86624">
        <ele>2358.9</ele>
        <time>2026-03-25T10:40:46Z</time>
      </trkpt>
      <trkpt lat="44.68778" lon="6.86624">
        <ele>2358.9</ele>
        <time>2026-03-25T10:40:47Z</time>
      </trkpt>
      <trkpt lat="44.68778" lon="6.86624">
        <ele>2358.9</ele>
        <time>2026-03-25T10:40:48Z</time>
      </trkpt>
      <trkpt lat="44.68778" lon="6.86624">
        <ele>2358.9</ele>
        <time>2026-03-25T10:40:49Z</time>
      </trkpt>
      <trkpt lat="44.68778" lon="6.86624">
        <ele>2358.9</ele>
        <time>2026-03-25T10:40:50Z</time>
      </trkpt>
      <trkpt lat="44.68778" lon="6.86624">
        <ele>2358.9</ele>
        <time>2026-03-25T10:40:51Z</time>
      </trkpt>
      <trkpt lat="44.68778" lon="6.86624">
        <ele>2358.9</ele>
        <time>2026-03-25T10:40:52Z</time>
      </trkpt>
      <trkpt lat="44.68778" lon="6.86624">
        <ele>2358.9</ele>
        <time>2026-03-25T10:40:53Z</time>
      </trkpt>
      <trkpt lat="44.68778" lon="6.86624">
        <ele>2358.9</ele>
        <time>2026-03-25T10:40:54Z</time>
      </trkpt>
      <trkpt lat="44.68778" lon="6.86624">
        <ele>2358.9</ele>
        <time>2026-03-25T10:40:55Z</time>
      </trkpt>
      <trkpt lat="44.68778" lon="6.86624">
        <ele>2358.9</ele>
        <time>2026-03-25T10:40:56Z</time>
      </trkpt>
      <trkpt lat="44.68778" lon="6.86624">
        <ele>2358.9</ele>
        <time>2026-03-25T10:40:57Z</time>
      </trkpt>
      <trkpt lat="44.68778" lon="6.86624">
        <ele>2358.9</ele>
        <time>2026-03-25T10:40:58Z</time>
      </trkpt>
      <trkpt lat="44.68778" lon="6.86624">
        <ele>2358.9</ele>
        <time>2026-03-25T10:40:59Z</time>
      </trkpt>
      <trkpt lat="44.68778" lon="6.86624">
        <ele>2358.9</ele>
        <time>2026-03-25T10:41:00Z</time>
      </trkpt>
      <trkpt lat="44.68778" lon="6.86624">
        <ele>2358.9</ele>
        <time>2026-03-25T10:41:01Z</time>
      </trkpt>
      <trkpt lat="44.68778" lon="6.86624">
        <ele>2358.9</ele>
        <time>2026-03-25T10:41:02Z</time>
      </trkpt>
      <trkpt lat="44.68778" lon="6.86624">
        <ele>2358.9</ele>
        <time>2026-03-25T10:41:03Z</time>
      </trkpt>
      <trkpt lat="44.68778" lon="6.86624">
        <ele>2358.9</ele>
        <time>2026-03-25T10:41:04Z</time>
      </trkpt>
      <trkpt lat="44.68777" lon="6.86625">
        <ele>2359</ele>
        <time>2026-03-25T10:41:05Z</time>
      </trkpt>
      <trkpt lat="44.68777" lon="6.86625">
        <ele>2359</ele>
        <time>2026-03-25T10:41:06Z</time>
      </trkpt>
      <trkpt lat="44.68777" lon="6.86626">
        <ele>2359</ele>
        <time>2026-03-25T10:41:07Z</time>
      </trkpt>
      <trkpt lat="44.68777" lon="6.86626">
        <ele>2359</ele>
        <time>2026-03-25T10:41:08Z</time>
      </trkpt>
      <trkpt lat="44.68777" lon="6.86626">
        <ele>2359</ele>
        <time>2026-03-25T10:41:09Z</time>
      </trkpt>
      <trkpt lat="44.68777" lon="6.86626">
        <ele>2359</ele>
        <time>2026-03-25T10:41:10Z</time>
      </trkpt>
      <trkpt lat="44.68777" lon="6.86626">
        <ele>2359</ele>
        <time>2026-03-25T10:41:11Z</time>
      </trkpt>
      <trkpt lat="44.68777" lon="6.86627">
        <ele>2359</ele>
        <time>2026-03-25T10:41:12Z</time>
      </trkpt>
      <trkpt lat="44.68777" lon="6.86627">
        <ele>2359</ele>
        <time>2026-03-25T10:41:13Z</time>
      </trkpt>
      <trkpt lat="44.68777" lon="6.86627">
        <ele>2359</ele>
        <time>2026-03-25T10:41:14Z</time>
      </trkpt>
      <trkpt lat="44.68777" lon="6.86627">
        <ele>2359</ele>
        <time>2026-03-25T10:41:15Z</time>
      </trkpt>
      <trkpt lat="44.68777" lon="6.86627">
        <ele>2359</ele>
        <time>2026-03-25T10:41:16Z</time>
      </trkpt>
      <trkpt lat="44.68777" lon="6.86627">
        <ele>2359</ele>
        <time>2026-03-25T10:41:17Z</time>
      </trkpt>
      <trkpt lat="44.68777" lon="6.86627">
        <ele>2359</ele>
        <time>2026-03-25T10:41:18Z</time>
      </trkpt>
      <trkpt lat="44.68777" lon="6.86627">
        <ele>2359</ele>
        <time>2026-03-25T10:41:19Z</time>
      </trkpt>
      <trkpt lat="44.68777" lon="6.86627">
        <ele>2359</ele>
        <time>2026-03-25T10:41:20Z</time>
      </trkpt>
      <trkpt lat="44.68777" lon="6.86627">
        <ele>2359</ele>
        <time>2026-03-25T10:41:21Z</time>
      </trkpt>
      <trkpt lat="44.68777" lon="6.86627">
        <ele>2359</ele>
        <time>2026-03-25T10:41:22Z</time>
      </trkpt>
      <trkpt lat="44.68777" lon="6.86627">
        <ele>2359</ele>
        <time>2026-03-25T10:41:23Z</time>
      </trkpt>
      <trkpt lat="44.68777" lon="6.86627">
        <ele>2359</ele>
        <time>2026-03-25T10:41:24Z</time>
      </trkpt>
      <trkpt lat="44.68777" lon="6.86627">
        <ele>2359</ele>
        <time>2026-03-25T10:41:25Z</time>
      </trkpt>
      <trkpt lat="44.68777" lon="6.86627">
        <ele>2359</ele>
        <time>2026-03-25T10:41:26Z</time>
      </trkpt>
      <trkpt lat="44.68777" lon="6.86627">
        <ele>2359</ele>
        <time>2026-03-25T10:41:27Z</time>
      </trkpt>
      <trkpt lat="44.68777" lon="6.86627">
        <ele>2359</ele>
        <time>2026-03-25T10:41:28Z</time>
      </trkpt>
      <trkpt lat="44.68777" lon="6.86627">
        <ele>2359</ele>
        <time>2026-03-25T10:41:29Z</time>
      </trkpt>
      <trkpt lat="44.68777" lon="6.86627">
        <ele>2359</ele>
        <time>2026-03-25T10:41:30Z</time>
      </trkpt>
      <trkpt lat="44.68777" lon="6.86627">
        <ele>2359</ele>
        <time>2026-03-25T10:41:31Z</time>
      </trkpt>
      <trkpt lat="44.68777" lon="6.86627">
        <ele>2359</ele>
        <time>2026-03-25T10:41:32Z</time>
      </trkpt>
      <trkpt lat="44.68777" lon="6.86627">
        <ele>2359</ele>
        <time>2026-03-25T10:41:33Z</time>
      </trkpt>
      <trkpt lat="44.68777" lon="6.86627">
        <ele>2359</ele>
        <time>2026-03-25T10:41:34Z</time>
      </trkpt>
      <trkpt lat="44.68777" lon="6.86627">
        <ele>2359</ele>
        <time>2026-03-25T10:41:35Z</time>
      </trkpt>
      <trkpt lat="44.68777" lon="6.86627">
        <ele>2359</ele>
        <time>2026-03-25T10:41:36Z</time>
      </trkpt>
      <trkpt lat="44.68777" lon="6.86627">
        <ele>2359</ele>
        <time>2026-03-25T10:41:37Z</time>
      </trkpt>
      <trkpt lat="44.68777" lon="6.86627">
        <ele>2359</ele>
        <time>2026-03-25T10:41:38Z</time>
      </trkpt>
      <trkpt lat="44.68777" lon="6.86627">
        <ele>2359</ele>
        <time>2026-03-25T10:41:39Z</time>
      </trkpt>
      <trkpt lat="44.68777" lon="6.86627">
        <ele>2359</ele>
        <time>2026-03-25T10:41:40Z</time>
      </trkpt>
      <trkpt lat="44.68777" lon="6.86627">
        <ele>2359</ele>
        <time>2026-03-25T10:41:41Z</time>
      </trkpt>
      <trkpt lat="44.68777" lon="6.86627">
        <ele>2359</ele>
        <time>2026-03-25T10:41:42Z</time>
      </trkpt>
      <trkpt lat="44.68777" lon="6.86627">
        <ele>2359</ele>
        <time>2026-03-25T10:41:43Z</time>
      </trkpt>
      <trkpt lat="44.68777" lon="6.86627">
        <ele>2359</ele>
        <time>2026-03-25T10:41:44Z</time>
      </trkpt>
      <trkpt lat="44.68777" lon="6.86627">
        <ele>2359</ele>
        <time>2026-03-25T10:41:45Z</time>
      </trkpt>
      <trkpt lat="44.68777" lon="6.86627">
        <ele>2359</ele>
        <time>2026-03-25T10:41:46Z</time>
      </trkpt>
      <trkpt lat="44.68777" lon="6.86627">
        <ele>2359</ele>
        <time>2026-03-25T10:41:47Z</time>
      </trkpt>
      <trkpt lat="44.68777" lon="6.86627">
        <ele>2359</ele>
        <time>2026-03-25T10:41:48Z</time>
      </trkpt>
      <trkpt lat="44.68777" lon="6.86627">
        <ele>2359</ele>
        <time>2026-03-25T10:41:49Z</time>
      </trkpt>
      <trkpt lat="44.68777" lon="6.86627">
        <ele>2359</ele>
        <time>2026-03-25T10:41:50Z</time>
      </trkpt>
      <trkpt lat="44.68777" lon="6.86627">
        <ele>2359</ele>
        <time>2026-03-25T10:41:51Z</time>
      </trkpt>
      <trkpt lat="44.68777" lon="6.86627">
        <ele>2359</ele>
        <time>2026-03-25T10:41:52Z</time>
      </trkpt>
      <trkpt lat="44.68777" lon="6.86627">
        <ele>2359</ele>
        <time>2026-03-25T10:41:53Z</time>
      </trkpt>
      <trkpt lat="44.68777" lon="6.86627">
        <ele>2359</ele>
        <time>2026-03-25T10:41:54Z</time>
      </trkpt>
      <trkpt lat="44.68777" lon="6.86627">
        <ele>2359</ele>
        <time>2026-03-25T10:41:55Z</time>
      </trkpt>
      <trkpt lat="44.68777" lon="6.86627">
        <ele>2359</ele>
        <time>2026-03-25T10:41:56Z</time>
      </trkpt>
      <trkpt lat="44.68777" lon="6.86627">
        <ele>2359</ele>
        <time>2026-03-25T10:41:57Z</time>
      </trkpt>
      <trkpt lat="44.68777" lon="6.86627">
        <ele>2359</ele>
        <time>2026-03-25T10:41:58Z</time>
      </trkpt>
      <trkpt lat="44.68777" lon="6.86627">
        <ele>2359</ele>
        <time>2026-03-25T10:41:59Z</time>
      </trkpt>
      <trkpt lat="44.68777" lon="6.86627">
        <ele>2359</ele>
        <time>2026-03-25T10:42:00Z</time>
      </trkpt>
      <trkpt lat="44.68777" lon="6.86627">
        <ele>2359</ele>
        <time>2026-03-25T10:42:01Z</time>
      </trkpt>
      <trkpt lat="44.68776" lon="6.86627">
        <ele>2359</ele>
        <time>2026-03-25T10:42:02Z</time>
      </trkpt>
      <trkpt lat="44.68776" lon="6.86628">
        <ele>2359</ele>
        <time>2026-03-25T10:42:03Z</time>
      </trkpt>
      <trkpt lat="44.68776" lon="6.86629">
        <ele>2359.2</ele>
        <time>2026-03-25T10:42:04Z</time>
      </trkpt>
      <trkpt lat="44.68775" lon="6.86629">
        <ele>2359.5</ele>
        <time>2026-03-25T10:42:05Z</time>
      </trkpt>
      <trkpt lat="44.68775" lon="6.86629">
        <ele>2359.5</ele>
        <time>2026-03-25T10:42:06Z</time>
      </trkpt>
      <trkpt lat="44.68774" lon="6.86629">
        <ele>2359.5</ele>
        <time>2026-03-25T10:42:07Z</time>
      </trkpt>
      <trkpt lat="44.68774" lon="6.8663">
        <ele>2359.5</ele>
        <time>2026-03-25T10:42:08Z</time>
      </trkpt>
      <trkpt lat="44.68773" lon="6.86631">
        <ele>2359.5</ele>
        <time>2026-03-25T10:42:09Z</time>
      </trkpt>
      <trkpt lat="44.68773" lon="6.86632">
        <ele>2359.8</ele>
        <time>2026-03-25T10:42:10Z</time>
      </trkpt>
      <trkpt lat="44.68772" lon="6.86633">
        <ele>2359.8</ele>
        <time>2026-03-25T10:42:11Z</time>
      </trkpt>
      <trkpt lat="44.68771" lon="6.86633">
        <ele>2360</ele>
        <time>2026-03-25T10:42:12Z</time>
      </trkpt>
      <trkpt lat="44.68771" lon="6.86634">
        <ele>2360</ele>
        <time>2026-03-25T10:42:13Z</time>
      </trkpt>
      <trkpt lat="44.6877" lon="6.86635">
        <ele>2360</ele>
        <time>2026-03-25T10:42:14Z</time>
      </trkpt>
      <trkpt lat="44.6877" lon="6.86636">
        <ele>2360</ele>
        <time>2026-03-25T10:42:15Z</time>
      </trkpt>
      <trkpt lat="44.68769" lon="6.86636">
        <ele>2360.2</ele>
        <time>2026-03-25T10:42:16Z</time>
      </trkpt>
      <trkpt lat="44.68769" lon="6.86637">
        <ele>2360.4</ele>
        <time>2026-03-25T10:42:17Z</time>
      </trkpt>
      <trkpt lat="44.68768" lon="6.86638">
        <ele>2360.4</ele>
        <time>2026-03-25T10:42:18Z</time>
      </trkpt>
      <trkpt lat="44.68767" lon="6.86639">
        <ele>2360.4</ele>
        <time>2026-03-25T10:42:19Z</time>
      </trkpt>
      <trkpt lat="44.68767" lon="6.8664">
        <ele>2360.4</ele>
        <time>2026-03-25T10:42:20Z</time>
      </trkpt>
      <trkpt lat="44.68766" lon="6.86641">
        <ele>2360.7</ele>
        <time>2026-03-25T10:42:21Z</time>
      </trkpt>
      <trkpt lat="44.68765" lon="6.86642">
        <ele>2361</ele>
        <time>2026-03-25T10:42:22Z</time>
      </trkpt>
      <trkpt lat="44.68765" lon="6.86642">
        <ele>2361</ele>
        <time>2026-03-25T10:42:23Z</time>
      </trkpt>
      <trkpt lat="44.68764" lon="6.86643">
        <ele>2361</ele>
        <time>2026-03-25T10:42:24Z</time>
      </trkpt>
      <trkpt lat="44.68764" lon="6.86644">
        <ele>2361</ele>
        <time>2026-03-25T10:42:25Z</time>
      </trkpt>
      <trkpt lat="44.68764" lon="6.86645">
        <ele>2361</ele>
        <time>2026-03-25T10:42:26Z</time>
      </trkpt>
      <trkpt lat="44.68763" lon="6.86645">
        <ele>2361.2</ele>
        <time>2026-03-25T10:42:27Z</time>
      </trkpt>
      <trkpt lat="44.68763" lon="6.86646">
        <ele>2361.5</ele>
        <time>2026-03-25T10:42:28Z</time>
      </trkpt>
      <trkpt lat="44.68762" lon="6.86646">
        <ele>2361.5</ele>
        <time>2026-03-25T10:42:29Z</time>
      </trkpt>
      <trkpt lat="44.68762" lon="6.86647">
        <ele>2361.5</ele>
        <time>2026-03-25T10:42:30Z</time>
      </trkpt>
      <trkpt lat="44.68761" lon="6.86647">
        <ele>2361.5</ele>
        <time>2026-03-25T10:42:31Z</time>
      </trkpt>
      <trkpt lat="44.68761" lon="6.86648">
        <ele>2361.5</ele>
        <time>2026-03-25T10:42:32Z</time>
      </trkpt>
      <trkpt lat="44.6876" lon="6.86648">
        <ele>2361.7</ele>
        <time>2026-03-25T10:42:33Z</time>
      </trkpt>
      <trkpt lat="44.68759" lon="6.86649">
        <ele>2361.7</ele>
        <time>2026-03-25T10:42:34Z</time>
      </trkpt>
      <trkpt lat="44.68759" lon="6.86649">
        <ele>2361.8</ele>
        <time>2026-03-25T10:42:35Z</time>
      </trkpt>
      <trkpt lat="44.68758" lon="6.86649">
        <ele>2361.8</ele>
        <time>2026-03-25T10:42:36Z</time>
      </trkpt>
      <trkpt lat="44.68757" lon="6.8665">
        <ele>2361.8</ele>
        <time>2026-03-25T10:42:37Z</time>
      </trkpt>
      <trkpt lat="44.68757" lon="6.8665">
        <ele>2362.1</ele>
        <time>2026-03-25T10:42:38Z</time>
      </trkpt>
      <trkpt lat="44.68756" lon="6.8665">
        <ele>2362.1</ele>
        <time>2026-03-25T10:42:39Z</time>
      </trkpt>
      <trkpt lat="44.68755" lon="6.86651">
        <ele>2362.1</ele>
        <time>2026-03-25T10:42:40Z</time>
      </trkpt>
      <trkpt lat="44.68755" lon="6.86651">
        <ele>2362.1</ele>
        <time>2026-03-25T10:42:41Z</time>
      </trkpt>
      <trkpt lat="44.68754" lon="6.86652">
        <ele>2362.3</ele>
        <time>2026-03-25T10:42:42Z</time>
      </trkpt>
      <trkpt lat="44.68753" lon="6.86652">
        <ele>2362.3</ele>
        <time>2026-03-25T10:42:43Z</time>
      </trkpt>
      <trkpt lat="44.68752" lon="6.86652">
        <ele>2362.3</ele>
        <time>2026-03-25T10:42:44Z</time>
      </trkpt>
      <trkpt lat="44.68752" lon="6.86652">
        <ele>2362.4</ele>
        <time>2026-03-25T10:42:45Z</time>
      </trkpt>
      <trkpt lat="44.68751" lon="6.86653">
        <ele>2362.5</ele>
        <time>2026-03-25T10:42:46Z</time>
      </trkpt>
      <trkpt lat="44.68751" lon="6.86653">
        <ele>2362.6</ele>
        <time>2026-03-25T10:42:47Z</time>
      </trkpt>
      <trkpt lat="44.6875" lon="6.86653">
        <ele>2362.6</ele>
        <time>2026-03-25T10:42:48Z</time>
      </trkpt>
      <trkpt lat="44.68749" lon="6.86653">
        <ele>2362.6</ele>
        <time>2026-03-25T10:42:49Z</time>
      </trkpt>
      <trkpt lat="44.68749" lon="6.86654">
        <ele>2362.6</ele>
        <time>2026-03-25T10:42:50Z</time>
      </trkpt>
      <trkpt lat="44.68748" lon="6.86654">
        <ele>2362.7</ele>
        <time>2026-03-25T10:42:51Z</time>
      </trkpt>
      <trkpt lat="44.68748" lon="6.86655">
        <ele>2362.9</ele>
        <time>2026-03-25T10:42:52Z</time>
      </trkpt>
      <trkpt lat="44.68747" lon="6.86655">
        <ele>2362.9</ele>
        <time>2026-03-25T10:42:53Z</time>
      </trkpt>
      <trkpt lat="44.68746" lon="6.86655">
        <ele>2363</ele>
        <time>2026-03-25T10:42:54Z</time>
      </trkpt>
      <trkpt lat="44.68745" lon="6.86655">
        <ele>2363</ele>
        <time>2026-03-25T10:42:55Z</time>
      </trkpt>
      <trkpt lat="44.68745" lon="6.86656">
        <ele>2363.2</ele>
        <time>2026-03-25T10:42:56Z</time>
      </trkpt>
      <trkpt lat="44.68744" lon="6.86656">
        <ele>2363.2</ele>
        <time>2026-03-25T10:42:57Z</time>
      </trkpt>
      <trkpt lat="44.68743" lon="6.86656">
        <ele>2363.3</ele>
        <time>2026-03-25T10:42:58Z</time>
      </trkpt>
      <trkpt lat="44.68743" lon="6.86656">
        <ele>2363.3</ele>
        <time>2026-03-25T10:42:59Z</time>
      </trkpt>
      <trkpt lat="44.68742" lon="6.86656">
        <ele>2363.3</ele>
        <time>2026-03-25T10:43:00Z</time>
      </trkpt>
      <trkpt lat="44.68742" lon="6.86656">
        <ele>2363.4</ele>
        <time>2026-03-25T10:43:01Z</time>
      </trkpt>
      <trkpt lat="44.68741" lon="6.86656">
        <ele>2363.5</ele>
        <time>2026-03-25T10:43:02Z</time>
      </trkpt>
      <trkpt lat="44.6874" lon="6.86656">
        <ele>2363.5</ele>
        <time>2026-03-25T10:43:03Z</time>
      </trkpt>
      <trkpt lat="44.6874" lon="6.86656">
        <ele>2363.6</ele>
        <time>2026-03-25T10:43:04Z</time>
      </trkpt>
      <trkpt lat="44.6874" lon="6.86657">
        <ele>2363.6</ele>
        <time>2026-03-25T10:43:05Z</time>
      </trkpt>
      <trkpt lat="44.68739" lon="6.86657">
        <ele>2363.7</ele>
        <time>2026-03-25T10:43:06Z</time>
      </trkpt>
      <trkpt lat="44.68738" lon="6.86657">
        <ele>2363.8</ele>
        <time>2026-03-25T10:43:07Z</time>
      </trkpt>
      <trkpt lat="44.68738" lon="6.86658">
        <ele>2363.8</ele>
        <time>2026-03-25T10:43:08Z</time>
      </trkpt>
      <trkpt lat="44.68737" lon="6.86658">
        <ele>2363.9</ele>
        <time>2026-03-25T10:43:09Z</time>
      </trkpt>
      <trkpt lat="44.68737" lon="6.86658">
        <ele>2363.9</ele>
        <time>2026-03-25T10:43:10Z</time>
      </trkpt>
      <trkpt lat="44.68736" lon="6.86659">
        <ele>2364</ele>
        <time>2026-03-25T10:43:11Z</time>
      </trkpt>
      <trkpt lat="44.68736" lon="6.86659">
        <ele>2364.1</ele>
        <time>2026-03-25T10:43:12Z</time>
      </trkpt>
      <trkpt lat="44.68735" lon="6.86659">
        <ele>2364.2</ele>
        <time>2026-03-25T10:43:13Z</time>
      </trkpt>
      <trkpt lat="44.68734" lon="6.8666">
        <ele>2364.2</ele>
        <time>2026-03-25T10:43:14Z</time>
      </trkpt>
      <trkpt lat="44.68734" lon="6.8666">
        <ele>2364.3</ele>
        <time>2026-03-25T10:43:15Z</time>
      </trkpt>
      <trkpt lat="44.68733" lon="6.8666">
        <ele>2364.3</ele>
        <time>2026-03-25T10:43:16Z</time>
      </trkpt>
      <trkpt lat="44.68733" lon="6.86661">
        <ele>2364.5</ele>
        <time>2026-03-25T10:43:17Z</time>
      </trkpt>
      <trkpt lat="44.68732" lon="6.86661">
        <ele>2364.5</ele>
        <time>2026-03-25T10:43:18Z</time>
      </trkpt>
      <trkpt lat="44.68732" lon="6.86661">
        <ele>2364.6</ele>
        <time>2026-03-25T10:43:19Z</time>
      </trkpt>
      <trkpt lat="44.68731" lon="6.86661">
        <ele>2364.6</ele>
        <time>2026-03-25T10:43:20Z</time>
      </trkpt>
      <trkpt lat="44.6873" lon="6.86661">
        <ele>2364.7</ele>
        <time>2026-03-25T10:43:21Z</time>
      </trkpt>
      <trkpt lat="44.6873" lon="6.86661">
        <ele>2364.7</ele>
        <time>2026-03-25T10:43:22Z</time>
      </trkpt>
      <trkpt lat="44.68729" lon="6.86662">
        <ele>2364.8</ele>
        <time>2026-03-25T10:43:23Z</time>
      </trkpt>
      <trkpt lat="44.68729" lon="6.86662">
        <ele>2364.9</ele>
        <time>2026-03-25T10:43:24Z</time>
      </trkpt>
      <trkpt lat="44.68729" lon="6.86662">
        <ele>2364.9</ele>
        <time>2026-03-25T10:43:25Z</time>
      </trkpt>
      <trkpt lat="44.68728" lon="6.86662">
        <ele>2365</ele>
        <time>2026-03-25T10:43:26Z</time>
      </trkpt>
      <trkpt lat="44.68728" lon="6.86663">
        <ele>2365.1</ele>
        <time>2026-03-25T10:43:27Z</time>
      </trkpt>
      <trkpt lat="44.68727" lon="6.86663">
        <ele>2365.2</ele>
        <time>2026-03-25T10:43:28Z</time>
      </trkpt>
      <trkpt lat="44.68727" lon="6.86663">
        <ele>2365.3</ele>
        <time>2026-03-25T10:43:29Z</time>
      </trkpt>
      <trkpt lat="44.68726" lon="6.86663">
        <ele>2365.3</ele>
        <time>2026-03-25T10:43:30Z</time>
      </trkpt>
      <trkpt lat="44.68726" lon="6.86664">
        <ele>2365.4</ele>
        <time>2026-03-25T10:43:31Z</time>
      </trkpt>
      <trkpt lat="44.68725" lon="6.86664">
        <ele>2365.5</ele>
        <time>2026-03-25T10:43:32Z</time>
      </trkpt>
      <trkpt lat="44.68725" lon="6.86664">
        <ele>2365.5</ele>
        <time>2026-03-25T10:43:33Z</time>
      </trkpt>
      <trkpt lat="44.68724" lon="6.86665">
        <ele>2365.6</ele>
        <time>2026-03-25T10:43:34Z</time>
      </trkpt>
      <trkpt lat="44.68724" lon="6.86665">
        <ele>2365.8</ele>
        <time>2026-03-25T10:43:35Z</time>
      </trkpt>
      <trkpt lat="44.68723" lon="6.86665">
        <ele>2365.9</ele>
        <time>2026-03-25T10:43:36Z</time>
      </trkpt>
      <trkpt lat="44.68723" lon="6.86666">
        <ele>2365.9</ele>
        <time>2026-03-25T10:43:37Z</time>
      </trkpt>
      <trkpt lat="44.68722" lon="6.86666">
        <ele>2366</ele>
        <time>2026-03-25T10:43:38Z</time>
      </trkpt>
      <trkpt lat="44.68722" lon="6.86667">
        <ele>2366.1</ele>
        <time>2026-03-25T10:43:39Z</time>
      </trkpt>
      <trkpt lat="44.68721" lon="6.86668">
        <ele>2366.2</ele>
        <time>2026-03-25T10:43:40Z</time>
      </trkpt>
      <trkpt lat="44.68721" lon="6.86668">
        <ele>2366.3</ele>
        <time>2026-03-25T10:43:41Z</time>
      </trkpt>
      <trkpt lat="44.6872" lon="6.86669">
        <ele>2366.5</ele>
        <time>2026-03-25T10:43:42Z</time>
      </trkpt>
      <trkpt lat="44.6872" lon="6.86669">
        <ele>2366.6</ele>
        <time>2026-03-25T10:43:43Z</time>
      </trkpt>
      <trkpt lat="44.68719" lon="6.86669">
        <ele>2366.7</ele>
        <time>2026-03-25T10:43:44Z</time>
      </trkpt>
      <trkpt lat="44.68718" lon="6.86669">
        <ele>2366.8</ele>
        <time>2026-03-25T10:43:45Z</time>
      </trkpt>
      <trkpt lat="44.68718" lon="6.86669">
        <ele>2366.8</ele>
        <time>2026-03-25T10:43:46Z</time>
      </trkpt>
      <trkpt lat="44.68717" lon="6.8667">
        <ele>2367</ele>
        <time>2026-03-25T10:43:47Z</time>
      </trkpt>
      <trkpt lat="44.68716" lon="6.8667">
        <ele>2367.2</ele>
        <time>2026-03-25T10:43:48Z</time>
      </trkpt>
      <trkpt lat="44.68716" lon="6.8667">
        <ele>2367.3</ele>
        <time>2026-03-25T10:43:49Z</time>
      </trkpt>
      <trkpt lat="44.68715" lon="6.8667">
        <ele>2367.4</ele>
        <time>2026-03-25T10:43:50Z</time>
      </trkpt>
      <trkpt lat="44.68715" lon="6.86671">
        <ele>2367.5</ele>
        <time>2026-03-25T10:43:51Z</time>
      </trkpt>
      <trkpt lat="44.68714" lon="6.86671">
        <ele>2367.6</ele>
        <time>2026-03-25T10:43:52Z</time>
      </trkpt>
      <trkpt lat="44.68713" lon="6.86671">
        <ele>2367.6</ele>
        <time>2026-03-25T10:43:53Z</time>
      </trkpt>
      <trkpt lat="44.68713" lon="6.86671">
        <ele>2367.8</ele>
        <time>2026-03-25T10:43:54Z</time>
      </trkpt>
      <trkpt lat="44.68713" lon="6.86672">
        <ele>2367.9</ele>
        <time>2026-03-25T10:43:55Z</time>
      </trkpt>
      <trkpt lat="44.68712" lon="6.86672">
        <ele>2368</ele>
        <time>2026-03-25T10:43:56Z</time>
      </trkpt>
      <trkpt lat="44.68712" lon="6.86672">
        <ele>2368.1</ele>
        <time>2026-03-25T10:43:57Z</time>
      </trkpt>
      <trkpt lat="44.68711" lon="6.86673">
        <ele>2368.2</ele>
        <time>2026-03-25T10:43:58Z</time>
      </trkpt>
      <trkpt lat="44.6871" lon="6.86673">
        <ele>2368.3</ele>
        <time>2026-03-25T10:43:59Z</time>
      </trkpt>
      <trkpt lat="44.6871" lon="6.86673">
        <ele>2368.4</ele>
        <time>2026-03-25T10:44:00Z</time>
      </trkpt>
      <trkpt lat="44.68709" lon="6.86674">
        <ele>2368.5</ele>
        <time>2026-03-25T10:44:01Z</time>
      </trkpt>
      <trkpt lat="44.68709" lon="6.86674">
        <ele>2368.6</ele>
        <time>2026-03-25T10:44:02Z</time>
      </trkpt>
      <trkpt lat="44.68708" lon="6.86674">
        <ele>2368.7</ele>
        <time>2026-03-25T10:44:03Z</time>
      </trkpt>
      <trkpt lat="44.68708" lon="6.86675">
        <ele>2368.8</ele>
        <time>2026-03-25T10:44:04Z</time>
      </trkpt>
      <trkpt lat="44.68707" lon="6.86675">
        <ele>2368.9</ele>
        <time>2026-03-25T10:44:05Z</time>
      </trkpt>
      <trkpt lat="44.68707" lon="6.86675">
        <ele>2369</ele>
        <time>2026-03-25T10:44:06Z</time>
      </trkpt>
      <trkpt lat="44.68706" lon="6.86675">
        <ele>2369.1</ele>
        <time>2026-03-25T10:44:07Z</time>
      </trkpt>
      <trkpt lat="44.68706" lon="6.86675">
        <ele>2369.2</ele>
        <time>2026-03-25T10:44:08Z</time>
      </trkpt>
      <trkpt lat="44.68705" lon="6.86675">
        <ele>2369.3</ele>
        <time>2026-03-25T10:44:09Z</time>
      </trkpt>
      <trkpt lat="44.68705" lon="6.86676">
        <ele>2369.4</ele>
        <time>2026-03-25T10:44:10Z</time>
      </trkpt>
      <trkpt lat="44.68704" lon="6.86676">
        <ele>2369.5</ele>
        <time>2026-03-25T10:44:11Z</time>
      </trkpt>
      <trkpt lat="44.68704" lon="6.86676">
        <ele>2369.6</ele>
        <time>2026-03-25T10:44:12Z</time>
      </trkpt>
      <trkpt lat="44.68703" lon="6.86677">
        <ele>2369.7</ele>
        <time>2026-03-25T10:44:13Z</time>
      </trkpt>
      <trkpt lat="44.68702" lon="6.86677">
        <ele>2369.9</ele>
        <time>2026-03-25T10:44:14Z</time>
      </trkpt>
      <trkpt lat="44.68702" lon="6.86677">
        <ele>2370</ele>
        <time>2026-03-25T10:44:15Z</time>
      </trkpt>
      <trkpt lat="44.68701" lon="6.86677">
        <ele>2370.1</ele>
        <time>2026-03-25T10:44:16Z</time>
      </trkpt>
      <trkpt lat="44.68701" lon="6.86678">
        <ele>2370.2</ele>
        <time>2026-03-25T10:44:17Z</time>
      </trkpt>
      <trkpt lat="44.687" lon="6.86678">
        <ele>2370.3</ele>
        <time>2026-03-25T10:44:18Z</time>
      </trkpt>
      <trkpt lat="44.687" lon="6.86678">
        <ele>2370.4</ele>
        <time>2026-03-25T10:44:19Z</time>
      </trkpt>
      <trkpt lat="44.68699" lon="6.86678">
        <ele>2370.6</ele>
        <time>2026-03-25T10:44:20Z</time>
      </trkpt>
      <trkpt lat="44.68699" lon="6.86679">
        <ele>2370.7</ele>
        <time>2026-03-25T10:44:21Z</time>
      </trkpt>
      <trkpt lat="44.68698" lon="6.86679">
        <ele>2370.8</ele>
        <time>2026-03-25T10:44:22Z</time>
      </trkpt>
      <trkpt lat="44.68698" lon="6.86679">
        <ele>2370.9</ele>
        <time>2026-03-25T10:44:23Z</time>
      </trkpt>
      <trkpt lat="44.68697" lon="6.86679">
        <ele>2371</ele>
        <time>2026-03-25T10:44:24Z</time>
      </trkpt>
      <trkpt lat="44.68697" lon="6.86679">
        <ele>2371.1</ele>
        <time>2026-03-25T10:44:25Z</time>
      </trkpt>
      <trkpt lat="44.68696" lon="6.8668">
        <ele>2371.2</ele>
        <time>2026-03-25T10:44:26Z</time>
      </trkpt>
      <trkpt lat="44.68696" lon="6.8668">
        <ele>2371.3</ele>
        <time>2026-03-25T10:44:27Z</time>
      </trkpt>
      <trkpt lat="44.68695" lon="6.86681">
        <ele>2371.4</ele>
        <time>2026-03-25T10:44:28Z</time>
      </trkpt>
      <trkpt lat="44.68695" lon="6.86681">
        <ele>2371.6</ele>
        <time>2026-03-25T10:44:29Z</time>
      </trkpt>
      <trkpt lat="44.68695" lon="6.86682">
        <ele>2371.7</ele>
        <time>2026-03-25T10:44:30Z</time>
      </trkpt>
      <trkpt lat="44.68694" lon="6.86683">
        <ele>2371.8</ele>
        <time>2026-03-25T10:44:31Z</time>
      </trkpt>
      <trkpt lat="44.68694" lon="6.86684">
        <ele>2372</ele>
        <time>2026-03-25T10:44:32Z</time>
      </trkpt>
      <trkpt lat="44.68693" lon="6.86684">
        <ele>2372.1</ele>
        <time>2026-03-25T10:44:33Z</time>
      </trkpt>
      <trkpt lat="44.68693" lon="6.86685">
        <ele>2372.2</ele>
        <time>2026-03-25T10:44:34Z</time>
      </trkpt>
      <trkpt lat="44.68693" lon="6.86685">
        <ele>2372.3</ele>
        <time>2026-03-25T10:44:35Z</time>
      </trkpt>
      <trkpt lat="44.68693" lon="6.86686">
        <ele>2372.3</ele>
        <time>2026-03-25T10:44:36Z</time>
      </trkpt>
      <trkpt lat="44.68693" lon="6.86686">
        <ele>2372.4</ele>
        <time>2026-03-25T10:44:37Z</time>
      </trkpt>
      <trkpt lat="44.68692" lon="6.86687">
        <ele>2372.5</ele>
        <time>2026-03-25T10:44:38Z</time>
      </trkpt>
      <trkpt lat="44.68692" lon="6.86688">
        <ele>2372.6</ele>
        <time>2026-03-25T10:44:39Z</time>
      </trkpt>
      <trkpt lat="44.68692" lon="6.86688">
        <ele>2372.8</ele>
        <time>2026-03-25T10:44:40Z</time>
      </trkpt>
      <trkpt lat="44.68691" lon="6.86689">
        <ele>2372.9</ele>
        <time>2026-03-25T10:44:41Z</time>
      </trkpt>
      <trkpt lat="44.68691" lon="6.8669">
        <ele>2373</ele>
        <time>2026-03-25T10:44:42Z</time>
      </trkpt>
      <trkpt lat="44.68691" lon="6.8669">
        <ele>2373.1</ele>
        <time>2026-03-25T10:44:43Z</time>
      </trkpt>
      <trkpt lat="44.68691" lon="6.86691">
        <ele>2373.2</ele>
        <time>2026-03-25T10:44:44Z</time>
      </trkpt>
      <trkpt lat="44.6869" lon="6.86692">
        <ele>2373.3</ele>
        <time>2026-03-25T10:44:45Z</time>
      </trkpt>
      <trkpt lat="44.6869" lon="6.86692">
        <ele>2373.4</ele>
        <time>2026-03-25T10:44:46Z</time>
      </trkpt>
      <trkpt lat="44.6869" lon="6.86693">
        <ele>2373.5</ele>
        <time>2026-03-25T10:44:47Z</time>
      </trkpt>
      <trkpt lat="44.6869" lon="6.86693">
        <ele>2373.6</ele>
        <time>2026-03-25T10:44:48Z</time>
      </trkpt>
      <trkpt lat="44.6869" lon="6.86694">
        <ele>2373.6</ele>
        <time>2026-03-25T10:44:49Z</time>
      </trkpt>
      <trkpt lat="44.68689" lon="6.86694">
        <ele>2373.7</ele>
        <time>2026-03-25T10:44:50Z</time>
      </trkpt>
      <trkpt lat="44.68689" lon="6.86695">
        <ele>2373.8</ele>
        <time>2026-03-25T10:44:51Z</time>
      </trkpt>
      <trkpt lat="44.68689" lon="6.86696">
        <ele>2374</ele>
        <time>2026-03-25T10:44:52Z</time>
      </trkpt>
      <trkpt lat="44.68688" lon="6.86696">
        <ele>2374.1</ele>
        <time>2026-03-25T10:44:53Z</time>
      </trkpt>
      <trkpt lat="44.68688" lon="6.86698">
        <ele>2374.3</ele>
        <time>2026-03-25T10:44:54Z</time>
      </trkpt>
      <trkpt lat="44.68687" lon="6.86699">
        <ele>2374.5</ele>
        <time>2026-03-25T10:44:56Z</time>
      </trkpt>
      <trkpt lat="44.68687" lon="6.86699">
        <ele>2374.6</ele>
        <time>2026-03-25T10:44:57Z</time>
      </trkpt>
      <trkpt lat="44.68687" lon="6.867">
        <ele>2374.7</ele>
        <time>2026-03-25T10:44:59Z</time>
      </trkpt>
      <trkpt lat="44.68686" lon="6.867">
        <ele>2374.8</ele>
        <time>2026-03-25T10:45:00Z</time>
      </trkpt>
      <trkpt lat="44.68686" lon="6.86701">
        <ele>2374.8</ele>
        <time>2026-03-25T10:45:01Z</time>
      </trkpt>
      <trkpt lat="44.68686" lon="6.86701">
        <ele>2374.9</ele>
        <time>2026-03-25T10:45:02Z</time>
      </trkpt>
      <trkpt lat="44.68686" lon="6.86702">
        <ele>2375</ele>
        <time>2026-03-25T10:45:03Z</time>
      </trkpt>
      <trkpt lat="44.68685" lon="6.86702">
        <ele>2375.2</ele>
        <time>2026-03-25T10:45:04Z</time>
      </trkpt>
      <trkpt lat="44.68685" lon="6.86703">
        <ele>2375.2</ele>
        <time>2026-03-25T10:45:05Z</time>
      </trkpt>
      <trkpt lat="44.68684" lon="6.86703">
        <ele>2375.3</ele>
        <time>2026-03-25T10:45:06Z</time>
      </trkpt>
      <trkpt lat="44.68684" lon="6.86703">
        <ele>2375.4</ele>
        <time>2026-03-25T10:45:07Z</time>
      </trkpt>
      <trkpt lat="44.68684" lon="6.86704">
        <ele>2375.5</ele>
        <time>2026-03-25T10:45:08Z</time>
      </trkpt>
      <trkpt lat="44.68683" lon="6.86704">
        <ele>2375.6</ele>
        <time>2026-03-25T10:45:09Z</time>
      </trkpt>
      <trkpt lat="44.68683" lon="6.86705">
        <ele>2375.7</ele>
        <time>2026-03-25T10:45:10Z</time>
      </trkpt>
      <trkpt lat="44.68682" lon="6.86705">
        <ele>2375.8</ele>
        <time>2026-03-25T10:45:11Z</time>
      </trkpt>
      <trkpt lat="44.68682" lon="6.86705">
        <ele>2375.9</ele>
        <time>2026-03-25T10:45:12Z</time>
      </trkpt>
      <trkpt lat="44.68682" lon="6.86706">
        <ele>2376</ele>
        <time>2026-03-25T10:45:13Z</time>
      </trkpt>
      <trkpt lat="44.68681" lon="6.86706">
        <ele>2376.1</ele>
        <time>2026-03-25T10:45:14Z</time>
      </trkpt>
      <trkpt lat="44.68681" lon="6.86707">
        <ele>2376.2</ele>
        <time>2026-03-25T10:45:15Z</time>
      </trkpt>
      <trkpt lat="44.6868" lon="6.86707">
        <ele>2376.4</ele>
        <time>2026-03-25T10:45:16Z</time>
      </trkpt>
      <trkpt lat="44.6868" lon="6.86707">
        <ele>2376.5</ele>
        <time>2026-03-25T10:45:17Z</time>
      </trkpt>
      <trkpt lat="44.68679" lon="6.86708">
        <ele>2376.5</ele>
        <time>2026-03-25T10:45:18Z</time>
      </trkpt>
      <trkpt lat="44.68679" lon="6.86709">
        <ele>2376.7</ele>
        <time>2026-03-25T10:45:19Z</time>
      </trkpt>
      <trkpt lat="44.68678" lon="6.86709">
        <ele>2376.8</ele>
        <time>2026-03-25T10:45:20Z</time>
      </trkpt>
      <trkpt lat="44.68678" lon="6.86709">
        <ele>2376.9</ele>
        <time>2026-03-25T10:45:21Z</time>
      </trkpt>
      <trkpt lat="44.68678" lon="6.8671">
        <ele>2377</ele>
        <time>2026-03-25T10:45:22Z</time>
      </trkpt>
      <trkpt lat="44.68678" lon="6.8671">
        <ele>2377</ele>
        <time>2026-03-25T10:45:24Z</time>
      </trkpt>
      <trkpt lat="44.68677" lon="6.86711">
        <ele>2377.2</ele>
        <time>2026-03-25T10:45:25Z</time>
      </trkpt>
      <trkpt lat="44.68677" lon="6.86712">
        <ele>2377.3</ele>
        <time>2026-03-25T10:45:26Z</time>
      </trkpt>
      <trkpt lat="44.68676" lon="6.86712">
        <ele>2377.4</ele>
        <time>2026-03-25T10:45:27Z</time>
      </trkpt>
      <trkpt lat="44.68676" lon="6.86713">
        <ele>2377.6</ele>
        <time>2026-03-25T10:45:28Z</time>
      </trkpt>
      <trkpt lat="44.68676" lon="6.86713">
        <ele>2377.6</ele>
        <time>2026-03-25T10:45:29Z</time>
      </trkpt>
      <trkpt lat="44.68675" lon="6.86713">
        <ele>2377.7</ele>
        <time>2026-03-25T10:45:30Z</time>
      </trkpt>
      <trkpt lat="44.68675" lon="6.86714">
        <ele>2377.8</ele>
        <time>2026-03-25T10:45:31Z</time>
      </trkpt>
      <trkpt lat="44.68674" lon="6.86714">
        <ele>2377.9</ele>
        <time>2026-03-25T10:45:32Z</time>
      </trkpt>
      <trkpt lat="44.68674" lon="6.86714">
        <ele>2378.1</ele>
        <time>2026-03-25T10:45:33Z</time>
      </trkpt>
      <trkpt lat="44.68673" lon="6.86715">
        <ele>2378.2</ele>
        <time>2026-03-25T10:45:34Z</time>
      </trkpt>
      <trkpt lat="44.68673" lon="6.86715">
        <ele>2378.3</ele>
        <time>2026-03-25T10:45:35Z</time>
      </trkpt>
      <trkpt lat="44.68672" lon="6.86716">
        <ele>2378.5</ele>
        <time>2026-03-25T10:45:36Z</time>
      </trkpt>
      <trkpt lat="44.68672" lon="6.86716">
        <ele>2378.6</ele>
        <time>2026-03-25T10:45:38Z</time>
      </trkpt>
      <trkpt lat="44.68671" lon="6.86716">
        <ele>2378.7</ele>
        <time>2026-03-25T10:45:39Z</time>
      </trkpt>
      <trkpt lat="44.68671" lon="6.86716">
        <ele>2378.8</ele>
        <time>2026-03-25T10:45:40Z</time>
      </trkpt>
      <trkpt lat="44.6867" lon="6.86716">
        <ele>2378.9</ele>
        <time>2026-03-25T10:45:41Z</time>
      </trkpt>
      <trkpt lat="44.6867" lon="6.86717">
        <ele>2379.1</ele>
        <time>2026-03-25T10:45:42Z</time>
      </trkpt>
      <trkpt lat="44.68669" lon="6.86717">
        <ele>2379.2</ele>
        <time>2026-03-25T10:45:43Z</time>
      </trkpt>
      <trkpt lat="44.68669" lon="6.86717">
        <ele>2379.3</ele>
        <time>2026-03-25T10:45:44Z</time>
      </trkpt>
      <trkpt lat="44.68668" lon="6.86718">
        <ele>2379.5</ele>
        <time>2026-03-25T10:45:45Z</time>
      </trkpt>
      <trkpt lat="44.68668" lon="6.86718">
        <ele>2379.5</ele>
        <time>2026-03-25T10:45:46Z</time>
      </trkpt>
      <trkpt lat="44.68668" lon="6.86718">
        <ele>2379.5</ele>
        <time>2026-03-25T10:45:47Z</time>
      </trkpt>
      <trkpt lat="44.68668" lon="6.86718">
        <ele>2379.6</ele>
        <time>2026-03-25T10:45:48Z</time>
      </trkpt>
      <trkpt lat="44.68668" lon="6.86718">
        <ele>2379.6</ele>
        <time>2026-03-25T10:45:49Z</time>
      </trkpt>
      <trkpt lat="44.68668" lon="6.86718">
        <ele>2379.7</ele>
        <time>2026-03-25T10:45:50Z</time>
      </trkpt>
      <trkpt lat="44.68667" lon="6.86718">
        <ele>2379.8</ele>
        <time>2026-03-25T10:45:51Z</time>
      </trkpt>
      <trkpt lat="44.68667" lon="6.86719">
        <ele>2379.9</ele>
        <time>2026-03-25T10:45:52Z</time>
      </trkpt>
      <trkpt lat="44.68666" lon="6.86719">
        <ele>2380.2</ele>
        <time>2026-03-25T10:45:53Z</time>
      </trkpt>
      <trkpt lat="44.68665" lon="6.8672">
        <ele>2380.3</ele>
        <time>2026-03-25T10:45:54Z</time>
      </trkpt>
      <trkpt lat="44.68665" lon="6.8672">
        <ele>2380.4</ele>
        <time>2026-03-25T10:45:55Z</time>
      </trkpt>
      <trkpt lat="44.68664" lon="6.86721">
        <ele>2380.6</ele>
        <time>2026-03-25T10:45:56Z</time>
      </trkpt>
      <trkpt lat="44.68664" lon="6.86721">
        <ele>2380.7</ele>
        <time>2026-03-25T10:45:57Z</time>
      </trkpt>
      <trkpt lat="44.68663" lon="6.86722">
        <ele>2380.9</ele>
        <time>2026-03-25T10:45:58Z</time>
      </trkpt>
      <trkpt lat="44.68663" lon="6.86722">
        <ele>2381.1</ele>
        <time>2026-03-25T10:45:59Z</time>
      </trkpt>
      <trkpt lat="44.68661" lon="6.86724">
        <ele>2381.4</ele>
        <time>2026-03-25T10:46:00Z</time>
      </trkpt>
      <trkpt lat="44.68661" lon="6.86724">
        <ele>2381.6</ele>
        <time>2026-03-25T10:46:02Z</time>
      </trkpt>
      <trkpt lat="44.6866" lon="6.86725">
        <ele>2381.7</ele>
        <time>2026-03-25T10:46:03Z</time>
      </trkpt>
      <trkpt lat="44.6866" lon="6.86725">
        <ele>2381.9</ele>
        <time>2026-03-25T10:46:04Z</time>
      </trkpt>
      <trkpt lat="44.68659" lon="6.86726">
        <ele>2382</ele>
        <time>2026-03-25T10:46:05Z</time>
      </trkpt>
      <trkpt lat="44.68659" lon="6.86726">
        <ele>2382.2</ele>
        <time>2026-03-25T10:46:06Z</time>
      </trkpt>
      <trkpt lat="44.68658" lon="6.86727">
        <ele>2382.3</ele>
        <time>2026-03-25T10:46:07Z</time>
      </trkpt>
      <trkpt lat="44.68658" lon="6.86727">
        <ele>2382.4</ele>
        <time>2026-03-25T10:46:08Z</time>
      </trkpt>
      <trkpt lat="44.68658" lon="6.86728">
        <ele>2382.5</ele>
        <time>2026-03-25T10:46:09Z</time>
      </trkpt>
      <trkpt lat="44.68657" lon="6.86729">
        <ele>2382.8</ele>
        <time>2026-03-25T10:46:10Z</time>
      </trkpt>
      <trkpt lat="44.68656" lon="6.86729">
        <ele>2382.9</ele>
        <time>2026-03-25T10:46:11Z</time>
      </trkpt>
      <trkpt lat="44.68656" lon="6.8673">
        <ele>2383</ele>
        <time>2026-03-25T10:46:12Z</time>
      </trkpt>
      <trkpt lat="44.68656" lon="6.8673">
        <ele>2383.1</ele>
        <time>2026-03-25T10:46:13Z</time>
      </trkpt>
      <trkpt lat="44.68655" lon="6.8673">
        <ele>2383.2</ele>
        <time>2026-03-25T10:46:15Z</time>
      </trkpt>
      <trkpt lat="44.68655" lon="6.8673">
        <ele>2383.3</ele>
        <time>2026-03-25T10:46:16Z</time>
      </trkpt>
      <trkpt lat="44.68655" lon="6.86731">
        <ele>2383.3</ele>
        <time>2026-03-25T10:46:17Z</time>
      </trkpt>
      <trkpt lat="44.68655" lon="6.86731">
        <ele>2383.4</ele>
        <time>2026-03-25T10:46:18Z</time>
      </trkpt>
      <trkpt lat="44.68654" lon="6.86731">
        <ele>2383.5</ele>
        <time>2026-03-25T10:46:19Z</time>
      </trkpt>
      <trkpt lat="44.68654" lon="6.86732">
        <ele>2383.6</ele>
        <time>2026-03-25T10:46:20Z</time>
      </trkpt>
      <trkpt lat="44.68654" lon="6.86732">
        <ele>2383.8</ele>
        <time>2026-03-25T10:46:21Z</time>
      </trkpt>
      <trkpt lat="44.68653" lon="6.86733">
        <ele>2383.9</ele>
        <time>2026-03-25T10:46:22Z</time>
      </trkpt>
      <trkpt lat="44.68653" lon="6.86733">
        <ele>2384</ele>
        <time>2026-03-25T10:46:23Z</time>
      </trkpt>
      <trkpt lat="44.68652" lon="6.86734">
        <ele>2384.1</ele>
        <time>2026-03-25T10:46:24Z</time>
      </trkpt>
      <trkpt lat="44.68652" lon="6.86734">
        <ele>2384.2</ele>
        <time>2026-03-25T10:46:25Z</time>
      </trkpt>
      <trkpt lat="44.68651" lon="6.86735">
        <ele>2384.5</ele>
        <time>2026-03-25T10:46:26Z</time>
      </trkpt>
      <trkpt lat="44.68651" lon="6.86735">
        <ele>2384.6</ele>
        <time>2026-03-25T10:46:28Z</time>
      </trkpt>
      <trkpt lat="44.6865" lon="6.86736">
        <ele>2384.7</ele>
        <time>2026-03-25T10:46:29Z</time>
      </trkpt>
      <trkpt lat="44.6865" lon="6.86736">
        <ele>2384.8</ele>
        <time>2026-03-25T10:46:30Z</time>
      </trkpt>
      <trkpt lat="44.6865" lon="6.86737">
        <ele>2384.9</ele>
        <time>2026-03-25T10:46:31Z</time>
      </trkpt>
      <trkpt lat="44.68649" lon="6.86737">
        <ele>2385</ele>
        <time>2026-03-25T10:46:32Z</time>
      </trkpt>
      <trkpt lat="44.68649" lon="6.86737">
        <ele>2385.1</ele>
        <time>2026-03-25T10:46:33Z</time>
      </trkpt>
      <trkpt lat="44.68649" lon="6.86738">
        <ele>2385.2</ele>
        <time>2026-03-25T10:46:34Z</time>
      </trkpt>
      <trkpt lat="44.68648" lon="6.86738">
        <ele>2385.3</ele>
        <time>2026-03-25T10:46:35Z</time>
      </trkpt>
      <trkpt lat="44.68649" lon="6.86737">
        <ele>2385.4</ele>
        <time>2026-03-25T10:46:36Z</time>
      </trkpt>
      <trkpt lat="44.68649" lon="6.86737">
        <ele>2385.4</ele>
        <time>2026-03-25T10:46:37Z</time>
      </trkpt>
      <trkpt lat="44.68649" lon="6.86737">
        <ele>2385.5</ele>
        <time>2026-03-25T10:46:38Z</time>
      </trkpt>
      <trkpt lat="44.68649" lon="6.86737">
        <ele>2385.5</ele>
        <time>2026-03-25T10:46:39Z</time>
      </trkpt>
      <trkpt lat="44.68649" lon="6.86737">
        <ele>2385.5</ele>
        <time>2026-03-25T10:46:40Z</time>
      </trkpt>
      <trkpt lat="44.68649" lon="6.86737">
        <ele>2385.5</ele>
        <time>2026-03-25T10:46:41Z</time>
      </trkpt>
      <trkpt lat="44.68649" lon="6.86737">
        <ele>2385.5</ele>
        <time>2026-03-25T10:46:42Z</time>
      </trkpt>
      <trkpt lat="44.68649" lon="6.86737">
        <ele>2385.5</ele>
        <time>2026-03-25T10:46:44Z</time>
      </trkpt>
      <trkpt lat="44.68649" lon="6.86737">
        <ele>2385.6</ele>
        <time>2026-03-25T10:46:45Z</time>
      </trkpt>
      <trkpt lat="44.68649" lon="6.86737">
        <ele>2385.6</ele>
        <time>2026-03-25T10:46:46Z</time>
      </trkpt>
      <trkpt lat="44.68649" lon="6.86737">
        <ele>2385.6</ele>
        <time>2026-03-25T10:46:47Z</time>
      </trkpt>
      <trkpt lat="44.68649" lon="6.86737">
        <ele>2385.6</ele>
        <time>2026-03-25T10:46:48Z</time>
      </trkpt>
      <trkpt lat="44.68649" lon="6.86737">
        <ele>2385.6</ele>
        <time>2026-03-25T10:46:49Z</time>
      </trkpt>
      <trkpt lat="44.68649" lon="6.86737">
        <ele>2385.6</ele>
        <time>2026-03-25T10:46:50Z</time>
      </trkpt>
      <trkpt lat="44.68649" lon="6.86737">
        <ele>2385.6</ele>
        <time>2026-03-25T10:46:51Z</time>
      </trkpt>
      <trkpt lat="44.68649" lon="6.86737">
        <ele>2385.6</ele>
        <time>2026-03-25T10:46:52Z</time>
      </trkpt>
      <trkpt lat="44.68649" lon="6.86736">
        <ele>2385.6</ele>
        <time>2026-03-25T10:46:53Z</time>
      </trkpt>
      <trkpt lat="44.68649" lon="6.86736">
        <ele>2385.7</ele>
        <time>2026-03-25T10:46:55Z</time>
      </trkpt>
      <trkpt lat="44.68649" lon="6.86736">
        <ele>2385.7</ele>
        <time>2026-03-25T10:46:56Z</time>
      </trkpt>
      <trkpt lat="44.68649" lon="6.86736">
        <ele>2385.7</ele>
        <time>2026-03-25T10:46:57Z</time>
      </trkpt>
      <trkpt lat="44.68649" lon="6.86736">
        <ele>2385.7</ele>
        <time>2026-03-25T10:46:58Z</time>
      </trkpt>
      <trkpt lat="44.68649" lon="6.86736">
        <ele>2385.7</ele>
        <time>2026-03-25T10:46:59Z</time>
      </trkpt>
      <trkpt lat="44.68649" lon="6.86736">
        <ele>2385.7</ele>
        <time>2026-03-25T10:47:00Z</time>
      </trkpt>
      <trkpt lat="44.68649" lon="6.86736">
        <ele>2385.7</ele>
        <time>2026-03-25T10:47:01Z</time>
      </trkpt>
      <trkpt lat="44.68649" lon="6.86736">
        <ele>2385.8</ele>
        <time>2026-03-25T10:47:02Z</time>
      </trkpt>
      <trkpt lat="44.68649" lon="6.86736">
        <ele>2385.8</ele>
        <time>2026-03-25T10:47:03Z</time>
      </trkpt>
      <trkpt lat="44.68649" lon="6.86736">
        <ele>2385.8</ele>
        <time>2026-03-25T10:47:04Z</time>
      </trkpt>
      <trkpt lat="44.6865" lon="6.86736">
        <ele>2385.8</ele>
        <time>2026-03-25T10:47:05Z</time>
      </trkpt>
      <trkpt lat="44.68649" lon="6.86736">
        <ele>2385.8</ele>
        <time>2026-03-25T10:47:06Z</time>
      </trkpt>
      <trkpt lat="44.6865" lon="6.86736">
        <ele>2385.9</ele>
        <time>2026-03-25T10:47:07Z</time>
      </trkpt>
      <trkpt lat="44.6865" lon="6.86735">
        <ele>2385.9</ele>
        <time>2026-03-25T10:47:08Z</time>
      </trkpt>
      <trkpt lat="44.6865" lon="6.86735">
        <ele>2386</ele>
        <time>2026-03-25T10:47:10Z</time>
      </trkpt>
      <trkpt lat="44.6865" lon="6.86735">
        <ele>2386.1</ele>
        <time>2026-03-25T10:47:11Z</time>
      </trkpt>
      <trkpt lat="44.6865" lon="6.86734">
        <ele>2386.1</ele>
        <time>2026-03-25T10:47:12Z</time>
      </trkpt>
      <trkpt lat="44.6865" lon="6.86734">
        <ele>2386.2</ele>
        <time>2026-03-25T10:47:13Z</time>
      </trkpt>
      <trkpt lat="44.6865" lon="6.86734">
        <ele>2386.2</ele>
        <time>2026-03-25T10:47:14Z</time>
      </trkpt>
      <trkpt lat="44.6865" lon="6.86734">
        <ele>2386.3</ele>
        <time>2026-03-25T10:47:15Z</time>
      </trkpt>
      <trkpt lat="44.6865" lon="6.86734">
        <ele>2386.3</ele>
        <time>2026-03-25T10:47:17Z</time>
      </trkpt>
      <trkpt lat="44.6865" lon="6.86733">
        <ele>2386.3</ele>
        <time>2026-03-25T10:47:18Z</time>
      </trkpt>
      <trkpt lat="44.6865" lon="6.86733">
        <ele>2386.4</ele>
        <time>2026-03-25T10:47:19Z</time>
      </trkpt>
      <trkpt lat="44.6865" lon="6.86733">
        <ele>2386.4</ele>
        <time>2026-03-25T10:47:21Z</time>
      </trkpt>
      <trkpt lat="44.6865" lon="6.86733">
        <ele>2386.4</ele>
        <time>2026-03-25T10:47:22Z</time>
      </trkpt>
      <trkpt lat="44.6865" lon="6.86733">
        <ele>2386.4</ele>
        <time>2026-03-25T10:47:23Z</time>
      </trkpt>
      <trkpt lat="44.6865" lon="6.86733">
        <ele>2386.5</ele>
        <time>2026-03-25T10:47:24Z</time>
      </trkpt>
      <trkpt lat="44.6865" lon="6.86733">
        <ele>2386.6</ele>
        <time>2026-03-25T10:47:25Z</time>
      </trkpt>
      <trkpt lat="44.6865" lon="6.86733">
        <ele>2386.7</ele>
        <time>2026-03-25T10:47:26Z</time>
      </trkpt>
      <trkpt lat="44.6865" lon="6.86733">
        <ele>2386.7</ele>
        <time>2026-03-25T10:47:27Z</time>
      </trkpt>
      <trkpt lat="44.6865" lon="6.86733">
        <ele>2386.7</ele>
        <time>2026-03-25T10:47:28Z</time>
      </trkpt>
      <trkpt lat="44.6865" lon="6.86733">
        <ele>2386.7</ele>
        <time>2026-03-25T10:47:29Z</time>
      </trkpt>
      <trkpt lat="44.6865" lon="6.86733">
        <ele>2386.7</ele>
        <time>2026-03-25T10:47:30Z</time>
      </trkpt>
      <trkpt lat="44.6865" lon="6.86733">
        <ele>2386.7</ele>
        <time>2026-03-25T10:47:31Z</time>
      </trkpt>
      <trkpt lat="44.6865" lon="6.86733">
        <ele>2386.7</ele>
        <time>2026-03-25T10:47:32Z</time>
      </trkpt>
      <trkpt lat="44.6865" lon="6.86733">
        <ele>2386.7</ele>
        <time>2026-03-25T10:47:33Z</time>
      </trkpt>
      <trkpt lat="44.6865" lon="6.86733">
        <ele>2386.7</ele>
        <time>2026-03-25T10:47:34Z</time>
      </trkpt>
      <trkpt lat="44.6865" lon="6.86733">
        <ele>2386.7</ele>
        <time>2026-03-25T10:47:35Z</time>
      </trkpt>
      <trkpt lat="44.6865" lon="6.86733">
        <ele>2386.7</ele>
        <time>2026-03-25T10:47:36Z</time>
      </trkpt>
      <trkpt lat="44.68651" lon="6.86733">
        <ele>2386.7</ele>
        <time>2026-03-25T10:47:37Z</time>
      </trkpt>
      <trkpt lat="44.68651" lon="6.86733">
        <ele>2386.8</ele>
        <time>2026-03-25T10:47:38Z</time>
      </trkpt>
      <trkpt lat="44.68651" lon="6.86733">
        <ele>2386.8</ele>
        <time>2026-03-25T10:47:39Z</time>
      </trkpt>
      <trkpt lat="44.68651" lon="6.86733">
        <ele>2386.8</ele>
        <time>2026-03-25T10:47:40Z</time>
      </trkpt>
      <trkpt lat="44.68651" lon="6.86733">
        <ele>2386.8</ele>
        <time>2026-03-25T10:47:41Z</time>
      </trkpt>
      <trkpt lat="44.68651" lon="6.86733">
        <ele>2386.8</ele>
        <time>2026-03-25T10:47:42Z</time>
      </trkpt>
      <trkpt lat="44.68651" lon="6.86733">
        <ele>2386.8</ele>
        <time>2026-03-25T10:47:43Z</time>
      </trkpt>
      <trkpt lat="44.68651" lon="6.86733">
        <ele>2386.8</ele>
        <time>2026-03-25T10:47:44Z</time>
      </trkpt>
      <trkpt lat="44.68651" lon="6.86733">
        <ele>2386.8</ele>
        <time>2026-03-25T10:47:45Z</time>
      </trkpt>
      <trkpt lat="44.68651" lon="6.86733">
        <ele>2386.8</ele>
        <time>2026-03-25T10:47:46Z</time>
      </trkpt>
      <trkpt lat="44.68651" lon="6.86733">
        <ele>2386.8</ele>
        <time>2026-03-25T10:47:47Z</time>
      </trkpt>
      <trkpt lat="44.68651" lon="6.86733">
        <ele>2386.8</ele>
        <time>2026-03-25T10:47:48Z</time>
      </trkpt>
      <trkpt lat="44.68651" lon="6.86733">
        <ele>2386.8</ele>
        <time>2026-03-25T10:47:49Z</time>
      </trkpt>
      <trkpt lat="44.68651" lon="6.86733">
        <ele>2386.8</ele>
        <time>2026-03-25T10:47:50Z</time>
      </trkpt>
      <trkpt lat="44.68651" lon="6.86733">
        <ele>2386.8</ele>
        <time>2026-03-25T10:47:51Z</time>
      </trkpt>
      <trkpt lat="44.68651" lon="6.86733">
        <ele>2386.9</ele>
        <time>2026-03-25T10:47:52Z</time>
      </trkpt>
      <trkpt lat="44.68651" lon="6.86732">
        <ele>2386.9</ele>
        <time>2026-03-25T10:47:53Z</time>
      </trkpt>
      <trkpt lat="44.68651" lon="6.86732">
        <ele>2386.9</ele>
        <time>2026-03-25T10:47:54Z</time>
      </trkpt>
      <trkpt lat="44.68651" lon="6.86732">
        <ele>2386.9</ele>
        <time>2026-03-25T10:47:55Z</time>
      </trkpt>
      <trkpt lat="44.68651" lon="6.86732">
        <ele>2386.9</ele>
        <time>2026-03-25T10:47:56Z</time>
      </trkpt>
      <trkpt lat="44.68651" lon="6.86732">
        <ele>2386.9</ele>
        <time>2026-03-25T10:47:57Z</time>
      </trkpt>
      <trkpt lat="44.68651" lon="6.86732">
        <ele>2387</ele>
        <time>2026-03-25T10:47:58Z</time>
      </trkpt>
      <trkpt lat="44.68651" lon="6.86732">
        <ele>2387</ele>
        <time>2026-03-25T10:47:59Z</time>
      </trkpt>
      <trkpt lat="44.68651" lon="6.86732">
        <ele>2387</ele>
        <time>2026-03-25T10:48:00Z</time>
      </trkpt>
      <trkpt lat="44.68651" lon="6.86732">
        <ele>2387</ele>
        <time>2026-03-25T10:48:01Z</time>
      </trkpt>
      <trkpt lat="44.68651" lon="6.86732">
        <ele>2387</ele>
        <time>2026-03-25T10:48:02Z</time>
      </trkpt>
      <trkpt lat="44.68651" lon="6.86732">
        <ele>2387</ele>
        <time>2026-03-25T10:48:03Z</time>
      </trkpt>
      <trkpt lat="44.68651" lon="6.86732">
        <ele>2387</ele>
        <time>2026-03-25T10:48:04Z</time>
      </trkpt>
      <trkpt lat="44.68651" lon="6.86732">
        <ele>2387</ele>
        <time>2026-03-25T10:48:05Z</time>
      </trkpt>
      <trkpt lat="44.68651" lon="6.86732">
        <ele>2387</ele>
        <time>2026-03-25T10:48:06Z</time>
      </trkpt>
      <trkpt lat="44.68651" lon="6.86732">
        <ele>2387</ele>
        <time>2026-03-25T10:48:07Z</time>
      </trkpt>
      <trkpt lat="44.68651" lon="6.86732">
        <ele>2387</ele>
        <time>2026-03-25T10:48:08Z</time>
      </trkpt>
      <trkpt lat="44.68651" lon="6.86732">
        <ele>2387</ele>
        <time>2026-03-25T10:48:09Z</time>
      </trkpt>
      <trkpt lat="44.68651" lon="6.86732">
        <ele>2387</ele>
        <time>2026-03-25T10:48:10Z</time>
      </trkpt>
      <trkpt lat="44.68651" lon="6.86732">
        <ele>2387</ele>
        <time>2026-03-25T10:48:11Z</time>
      </trkpt>
      <trkpt lat="44.68651" lon="6.86732">
        <ele>2387</ele>
        <time>2026-03-25T10:48:12Z</time>
      </trkpt>
      <trkpt lat="44.68651" lon="6.86732">
        <ele>2387</ele>
        <time>2026-03-25T10:48:13Z</time>
      </trkpt>
      <trkpt lat="44.68651" lon="6.86732">
        <ele>2387</ele>
        <time>2026-03-25T10:48:14Z</time>
      </trkpt>
      <trkpt lat="44.68651" lon="6.86732">
        <ele>2387</ele>
        <time>2026-03-25T10:48:15Z</time>
      </trkpt>
      <trkpt lat="44.68651" lon="6.86732">
        <ele>2387</ele>
        <time>2026-03-25T10:48:16Z</time>
      </trkpt>
      <trkpt lat="44.68651" lon="6.86732">
        <ele>2387</ele>
        <time>2026-03-25T10:48:17Z</time>
      </trkpt>
      <trkpt lat="44.68651" lon="6.86732">
        <ele>2387</ele>
        <time>2026-03-25T10:48:18Z</time>
      </trkpt>
      <trkpt lat="44.68651" lon="6.86732">
        <ele>2387.1</ele>
        <time>2026-03-25T10:48:19Z</time>
      </trkpt>
      <trkpt lat="44.68651" lon="6.86732">
        <ele>2387.2</ele>
        <time>2026-03-25T10:48:20Z</time>
      </trkpt>
      <trkpt lat="44.68651" lon="6.86732">
        <ele>2387.2</ele>
        <time>2026-03-25T10:48:21Z</time>
      </trkpt>
      <trkpt lat="44.68651" lon="6.86732">
        <ele>2387.2</ele>
        <time>2026-03-25T10:48:22Z</time>
      </trkpt>
      <trkpt lat="44.68651" lon="6.86732">
        <ele>2387.2</ele>
        <time>2026-03-25T10:48:23Z</time>
      </trkpt>
      <trkpt lat="44.68651" lon="6.86732">
        <ele>2387.2</ele>
        <time>2026-03-25T10:48:24Z</time>
      </trkpt>
      <trkpt lat="44.68651" lon="6.86731">
        <ele>2387.3</ele>
        <time>2026-03-25T10:48:25Z</time>
      </trkpt>
      <trkpt lat="44.68651" lon="6.86731">
        <ele>2387.4</ele>
        <time>2026-03-25T10:48:26Z</time>
      </trkpt>
      <trkpt lat="44.68651" lon="6.86731">
        <ele>2387.5</ele>
        <time>2026-03-25T10:48:27Z</time>
      </trkpt>
      <trkpt lat="44.68652" lon="6.86731">
        <ele>2387.6</ele>
        <time>2026-03-25T10:48:28Z</time>
      </trkpt>
      <trkpt lat="44.68652" lon="6.86731">
        <ele>2387.6</ele>
        <time>2026-03-25T10:48:29Z</time>
      </trkpt>
      <trkpt lat="44.68652" lon="6.86731">
        <ele>2387.6</ele>
        <time>2026-03-25T10:48:30Z</time>
      </trkpt>
      <trkpt lat="44.68652" lon="6.86731">
        <ele>2387.6</ele>
        <time>2026-03-25T10:48:31Z</time>
      </trkpt>
      <trkpt lat="44.68652" lon="6.86731">
        <ele>2387.6</ele>
        <time>2026-03-25T10:48:32Z</time>
      </trkpt>
      <trkpt lat="44.68652" lon="6.86731">
        <ele>2387.6</ele>
        <time>2026-03-25T10:48:33Z</time>
      </trkpt>
      <trkpt lat="44.68651" lon="6.86732">
        <ele>2387.7</ele>
        <time>2026-03-25T10:48:34Z</time>
      </trkpt>
      <trkpt lat="44.68651" lon="6.86732">
        <ele>2387.8</ele>
        <time>2026-03-25T10:48:35Z</time>
      </trkpt>
      <trkpt lat="44.68651" lon="6.86732">
        <ele>2387.9</ele>
        <time>2026-03-25T10:48:36Z</time>
      </trkpt>
      <trkpt lat="44.68651" lon="6.86732">
        <ele>2387.9</ele>
        <time>2026-03-25T10:48:37Z</time>
      </trkpt>
      <trkpt lat="44.68651" lon="6.86731">
        <ele>2388</ele>
        <time>2026-03-25T10:48:38Z</time>
      </trkpt>
      <trkpt lat="44.68651" lon="6.86731">
        <ele>2388</ele>
        <time>2026-03-25T10:48:39Z</time>
      </trkpt>
      <trkpt lat="44.68651" lon="6.86731">
        <ele>2388</ele>
        <time>2026-03-25T10:48:40Z</time>
      </trkpt>
      <trkpt lat="44.68651" lon="6.86731">
        <ele>2388</ele>
        <time>2026-03-25T10:48:41Z</time>
      </trkpt>
      <trkpt lat="44.68651" lon="6.86731">
        <ele>2388</ele>
        <time>2026-03-25T10:48:42Z</time>
      </trkpt>
      <trkpt lat="44.68651" lon="6.86731">
        <ele>2388</ele>
        <time>2026-03-25T10:48:43Z</time>
      </trkpt>
      <trkpt lat="44.68651" lon="6.86731">
        <ele>2388</ele>
        <time>2026-03-25T10:48:44Z</time>
      </trkpt>
      <trkpt lat="44.68651" lon="6.86731">
        <ele>2388</ele>
        <time>2026-03-25T10:48:45Z</time>
      </trkpt>
      <trkpt lat="44.68651" lon="6.86731">
        <ele>2388</ele>
        <time>2026-03-25T10:48:46Z</time>
      </trkpt>
      <trkpt lat="44.68651" lon="6.86731">
        <ele>2388</ele>
        <time>2026-03-25T10:48:47Z</time>
      </trkpt>
      <trkpt lat="44.68651" lon="6.86731">
        <ele>2388</ele>
        <time>2026-03-25T10:48:48Z</time>
      </trkpt>
      <trkpt lat="44.68651" lon="6.86731">
        <ele>2388</ele>
        <time>2026-03-25T10:48:49Z</time>
      </trkpt>
      <trkpt lat="44.68651" lon="6.86731">
        <ele>2388</ele>
        <time>2026-03-25T10:48:50Z</time>
      </trkpt>
      <trkpt lat="44.68651" lon="6.86731">
        <ele>2388</ele>
        <time>2026-03-25T10:48:51Z</time>
      </trkpt>
      <trkpt lat="44.68651" lon="6.86731">
        <ele>2388</ele>
        <time>2026-03-25T10:48:52Z</time>
      </trkpt>
      <trkpt lat="44.68651" lon="6.86731">
        <ele>2388</ele>
        <time>2026-03-25T10:48:53Z</time>
      </trkpt>
      <trkpt lat="44.68651" lon="6.86732">
        <ele>2388.1</ele>
        <time>2026-03-25T10:48:54Z</time>
      </trkpt>
      <trkpt lat="44.68651" lon="6.86732">
        <ele>2388.1</ele>
        <time>2026-03-25T10:48:55Z</time>
      </trkpt>
      <trkpt lat="44.68651" lon="6.86732">
        <ele>2388.1</ele>
        <time>2026-03-25T10:48:56Z</time>
      </trkpt>
      <trkpt lat="44.68651" lon="6.86732">
        <ele>2388.1</ele>
        <time>2026-03-25T10:48:57Z</time>
      </trkpt>
      <trkpt lat="44.68651" lon="6.86732">
        <ele>2388.1</ele>
        <time>2026-03-25T10:48:58Z</time>
      </trkpt>
      <trkpt lat="44.68651" lon="6.86732">
        <ele>2388.1</ele>
        <time>2026-03-25T10:48:59Z</time>
      </trkpt>
      <trkpt lat="44.68651" lon="6.86732">
        <ele>2388.1</ele>
        <time>2026-03-25T10:49:00Z</time>
      </trkpt>
      <trkpt lat="44.68651" lon="6.86732">
        <ele>2388.1</ele>
        <time>2026-03-25T10:49:01Z</time>
      </trkpt>
      <trkpt lat="44.68651" lon="6.86732">
        <ele>2388.1</ele>
        <time>2026-03-25T10:49:02Z</time>
      </trkpt>
      <trkpt lat="44.68651" lon="6.86732">
        <ele>2388.1</ele>
        <time>2026-03-25T10:49:03Z</time>
      </trkpt>
      <trkpt lat="44.68651" lon="6.86732">
        <ele>2388.2</ele>
        <time>2026-03-25T10:49:04Z</time>
      </trkpt>
      <trkpt lat="44.68651" lon="6.86731">
        <ele>2388.2</ele>
        <time>2026-03-25T10:49:05Z</time>
      </trkpt>
      <trkpt lat="44.68651" lon="6.86731">
        <ele>2388.2</ele>
        <time>2026-03-25T10:49:06Z</time>
      </trkpt>
      <trkpt lat="44.68651" lon="6.86731">
        <ele>2388.2</ele>
        <time>2026-03-25T10:49:07Z</time>
      </trkpt>
      <trkpt lat="44.68651" lon="6.86731">
        <ele>2388.2</ele>
        <time>2026-03-25T10:49:08Z</time>
      </trkpt>
      <trkpt lat="44.68651" lon="6.86731">
        <ele>2388.2</ele>
        <time>2026-03-25T10:49:09Z</time>
      </trkpt>
      <trkpt lat="44.68651" lon="6.86731">
        <ele>2388.2</ele>
        <time>2026-03-25T10:49:10Z</time>
      </trkpt>
      <trkpt lat="44.68651" lon="6.86731">
        <ele>2388.3</ele>
        <time>2026-03-25T10:49:11Z</time>
      </trkpt>
      <trkpt lat="44.68651" lon="6.86731">
        <ele>2388.3</ele>
        <time>2026-03-25T10:49:12Z</time>
      </trkpt>
      <trkpt lat="44.68651" lon="6.86731">
        <ele>2388.3</ele>
        <time>2026-03-25T10:49:13Z</time>
      </trkpt>
      <trkpt lat="44.68651" lon="6.86731">
        <ele>2388.3</ele>
        <time>2026-03-25T10:49:14Z</time>
      </trkpt>
      <trkpt lat="44.68651" lon="6.86731">
        <ele>2388.3</ele>
        <time>2026-03-25T10:49:15Z</time>
      </trkpt>
      <trkpt lat="44.68651" lon="6.86731">
        <ele>2388.3</ele>
        <time>2026-03-25T10:49:16Z</time>
      </trkpt>
      <trkpt lat="44.68651" lon="6.86731">
        <ele>2388.3</ele>
        <time>2026-03-25T10:49:17Z</time>
      </trkpt>
      <trkpt lat="44.68651" lon="6.86731">
        <ele>2388.3</ele>
        <time>2026-03-25T10:49:18Z</time>
      </trkpt>
      <trkpt lat="44.68651" lon="6.86731">
        <ele>2388.3</ele>
        <time>2026-03-25T10:49:19Z</time>
      </trkpt>
      <trkpt lat="44.68651" lon="6.86731">
        <ele>2388.3</ele>
        <time>2026-03-25T10:49:20Z</time>
      </trkpt>
      <trkpt lat="44.6865" lon="6.86732">
        <ele>2388.4</ele>
        <time>2026-03-25T10:49:21Z</time>
      </trkpt>
      <trkpt lat="44.68649" lon="6.86732">
        <ele>2388.6</ele>
        <time>2026-03-25T10:49:22Z</time>
      </trkpt>
      <trkpt lat="44.68649" lon="6.86733">
        <ele>2388.8</ele>
        <time>2026-03-25T10:49:23Z</time>
      </trkpt>
      <trkpt lat="44.68648" lon="6.86734">
        <ele>2389</ele>
        <time>2026-03-25T10:49:24Z</time>
      </trkpt>
      <trkpt lat="44.68647" lon="6.86734">
        <ele>2389.2</ele>
        <time>2026-03-25T10:49:25Z</time>
      </trkpt>
      <trkpt lat="44.68647" lon="6.86735">
        <ele>2389.3</ele>
        <time>2026-03-25T10:49:26Z</time>
      </trkpt>
      <trkpt lat="44.68646" lon="6.86735">
        <ele>2389.5</ele>
        <time>2026-03-25T10:49:27Z</time>
      </trkpt>
      <trkpt lat="44.68645" lon="6.86735">
        <ele>2389.7</ele>
        <time>2026-03-25T10:49:28Z</time>
      </trkpt>
      <trkpt lat="44.68644" lon="6.86736">
        <ele>2389.9</ele>
        <time>2026-03-25T10:49:29Z</time>
      </trkpt>
      <trkpt lat="44.68644" lon="6.86737">
        <ele>2390.1</ele>
        <time>2026-03-25T10:49:30Z</time>
      </trkpt>
      <trkpt lat="44.68643" lon="6.86737">
        <ele>2390.2</ele>
        <time>2026-03-25T10:49:31Z</time>
      </trkpt>
      <trkpt lat="44.68642" lon="6.86738">
        <ele>2390.4</ele>
        <time>2026-03-25T10:49:32Z</time>
      </trkpt>
      <trkpt lat="44.68642" lon="6.86738">
        <ele>2390.6</ele>
        <time>2026-03-25T10:49:33Z</time>
      </trkpt>
      <trkpt lat="44.68641" lon="6.86739">
        <ele>2390.7</ele>
        <time>2026-03-25T10:49:34Z</time>
      </trkpt>
      <trkpt lat="44.68641" lon="6.86739">
        <ele>2390.9</ele>
        <time>2026-03-25T10:49:35Z</time>
      </trkpt>
      <trkpt lat="44.6864" lon="6.8674">
        <ele>2391</ele>
        <time>2026-03-25T10:49:36Z</time>
      </trkpt>
      <trkpt lat="44.68639" lon="6.8674">
        <ele>2391.1</ele>
        <time>2026-03-25T10:49:37Z</time>
      </trkpt>
      <trkpt lat="44.68639" lon="6.86739">
        <ele>2391.3</ele>
        <time>2026-03-25T10:49:38Z</time>
      </trkpt>
      <trkpt lat="44.68639" lon="6.86739">
        <ele>2391.4</ele>
        <time>2026-03-25T10:49:39Z</time>
      </trkpt>
      <trkpt lat="44.68639" lon="6.86739">
        <ele>2391.5</ele>
        <time>2026-03-25T10:49:40Z</time>
      </trkpt>
      <trkpt lat="44.68639" lon="6.86739">
        <ele>2391.5</ele>
        <time>2026-03-25T10:49:41Z</time>
      </trkpt>
      <trkpt lat="44.68639" lon="6.86739">
        <ele>2391.5</ele>
        <time>2026-03-25T10:49:42Z</time>
      </trkpt>
      <trkpt lat="44.68639" lon="6.86739">
        <ele>2391.5</ele>
        <time>2026-03-25T10:49:43Z</time>
      </trkpt>
      <trkpt lat="44.68639" lon="6.86739">
        <ele>2391.6</ele>
        <time>2026-03-25T10:49:44Z</time>
      </trkpt>
      <trkpt lat="44.68639" lon="6.86739">
        <ele>2391.6</ele>
        <time>2026-03-25T10:49:45Z</time>
      </trkpt>
      <trkpt lat="44.68639" lon="6.8674">
        <ele>2391.6</ele>
        <time>2026-03-25T10:49:46Z</time>
      </trkpt>
      <trkpt lat="44.68639" lon="6.8674">
        <ele>2391.6</ele>
        <time>2026-03-25T10:49:47Z</time>
      </trkpt>
      <trkpt lat="44.68639" lon="6.8674">
        <ele>2391.6</ele>
        <time>2026-03-25T10:49:48Z</time>
      </trkpt>
      <trkpt lat="44.68639" lon="6.86739">
        <ele>2391.6</ele>
        <time>2026-03-25T10:49:49Z</time>
      </trkpt>
      <trkpt lat="44.68639" lon="6.86739">
        <ele>2391.6</ele>
        <time>2026-03-25T10:49:50Z</time>
      </trkpt>
      <trkpt lat="44.68639" lon="6.86739">
        <ele>2391.6</ele>
        <time>2026-03-25T10:49:51Z</time>
      </trkpt>
      <trkpt lat="44.68639" lon="6.86739">
        <ele>2391.6</ele>
        <time>2026-03-25T10:49:52Z</time>
      </trkpt>
      <trkpt lat="44.68639" lon="6.86739">
        <ele>2391.7</ele>
        <time>2026-03-25T10:49:53Z</time>
      </trkpt>
      <trkpt lat="44.68639" lon="6.86739">
        <ele>2391.7</ele>
        <time>2026-03-25T10:49:54Z</time>
      </trkpt>
      <trkpt lat="44.68638" lon="6.8674">
        <ele>2391.9</ele>
        <time>2026-03-25T10:49:55Z</time>
      </trkpt>
      <trkpt lat="44.68638" lon="6.8674">
        <ele>2392</ele>
        <time>2026-03-25T10:49:56Z</time>
      </trkpt>
      <trkpt lat="44.68637" lon="6.8674">
        <ele>2392.1</ele>
        <time>2026-03-25T10:49:57Z</time>
      </trkpt>
      <trkpt lat="44.68637" lon="6.8674">
        <ele>2392.1</ele>
        <time>2026-03-25T10:49:58Z</time>
      </trkpt>
      <trkpt lat="44.68637" lon="6.8674">
        <ele>2392.3</ele>
        <time>2026-03-25T10:49:59Z</time>
      </trkpt>
      <trkpt lat="44.68636" lon="6.86741">
        <ele>2392.5</ele>
        <time>2026-03-25T10:50:01Z</time>
      </trkpt>
      <trkpt lat="44.68634" lon="6.86743">
        <ele>2393</ele>
        <time>2026-03-25T10:50:02Z</time>
      </trkpt>
      <trkpt lat="44.68633" lon="6.86744">
        <ele>2393.2</ele>
        <time>2026-03-25T10:50:03Z</time>
      </trkpt>
      <trkpt lat="44.68633" lon="6.86745">
        <ele>2393.3</ele>
        <time>2026-03-25T10:50:04Z</time>
      </trkpt>
      <trkpt lat="44.68632" lon="6.86746">
        <ele>2393.6</ele>
        <time>2026-03-25T10:50:05Z</time>
      </trkpt>
      <trkpt lat="44.6863" lon="6.86747">
        <ele>2394.1</ele>
        <time>2026-03-25T10:50:06Z</time>
      </trkpt>
      <trkpt lat="44.68629" lon="6.86748">
        <ele>2394.2</ele>
        <time>2026-03-25T10:50:08Z</time>
      </trkpt>
      <trkpt lat="44.68629" lon="6.86749">
        <ele>2394.5</ele>
        <time>2026-03-25T10:50:09Z</time>
      </trkpt>
      <trkpt lat="44.68627" lon="6.8675">
        <ele>2394.9</ele>
        <time>2026-03-25T10:50:10Z</time>
      </trkpt>
      <trkpt lat="44.68627" lon="6.86751">
        <ele>2395</ele>
        <time>2026-03-25T10:50:12Z</time>
      </trkpt>
      <trkpt lat="44.68626" lon="6.86752">
        <ele>2395.2</ele>
        <time>2026-03-25T10:50:13Z</time>
      </trkpt>
      <trkpt lat="44.68625" lon="6.86753">
        <ele>2395.6</ele>
        <time>2026-03-25T10:50:14Z</time>
      </trkpt>
      <trkpt lat="44.68624" lon="6.86754">
        <ele>2395.8</ele>
        <time>2026-03-25T10:50:16Z</time>
      </trkpt>
      <trkpt lat="44.68624" lon="6.86755">
        <ele>2396</ele>
        <time>2026-03-25T10:50:17Z</time>
      </trkpt>
      <trkpt lat="44.68623" lon="6.86755">
        <ele>2396.1</ele>
        <time>2026-03-25T10:50:18Z</time>
      </trkpt>
      <trkpt lat="44.68623" lon="6.86756">
        <ele>2396.3</ele>
        <time>2026-03-25T10:50:19Z</time>
      </trkpt>
      <trkpt lat="44.68622" lon="6.86757">
        <ele>2396.5</ele>
        <time>2026-03-25T10:50:20Z</time>
      </trkpt>
      <trkpt lat="44.68621" lon="6.86758">
        <ele>2396.7</ele>
        <time>2026-03-25T10:50:21Z</time>
      </trkpt>
      <trkpt lat="44.68621" lon="6.86758">
        <ele>2396.9</ele>
        <time>2026-03-25T10:50:22Z</time>
      </trkpt>
      <trkpt lat="44.6862" lon="6.86759">
        <ele>2397.1</ele>
        <time>2026-03-25T10:50:23Z</time>
      </trkpt>
      <trkpt lat="44.68619" lon="6.86759">
        <ele>2397.2</ele>
        <time>2026-03-25T10:50:24Z</time>
      </trkpt>
      <trkpt lat="44.68618" lon="6.8676">
        <ele>2397.4</ele>
        <time>2026-03-25T10:50:25Z</time>
      </trkpt>
      <trkpt lat="44.68618" lon="6.86761">
        <ele>2397.6</ele>
        <time>2026-03-25T10:50:26Z</time>
      </trkpt>
      <trkpt lat="44.68617" lon="6.86761">
        <ele>2397.8</ele>
        <time>2026-03-25T10:50:27Z</time>
      </trkpt>
      <trkpt lat="44.68616" lon="6.86762">
        <ele>2398</ele>
        <time>2026-03-25T10:50:28Z</time>
      </trkpt>
      <trkpt lat="44.68615" lon="6.86763">
        <ele>2398.2</ele>
        <time>2026-03-25T10:50:29Z</time>
      </trkpt>
      <trkpt lat="44.68615" lon="6.86763">
        <ele>2398.4</ele>
        <time>2026-03-25T10:50:30Z</time>
      </trkpt>
      <trkpt lat="44.68614" lon="6.86764">
        <ele>2398.6</ele>
        <time>2026-03-25T10:50:31Z</time>
      </trkpt>
      <trkpt lat="44.68613" lon="6.86764">
        <ele>2398.7</ele>
        <time>2026-03-25T10:50:32Z</time>
      </trkpt>
      <trkpt lat="44.68613" lon="6.86764">
        <ele>2398.9</ele>
        <time>2026-03-25T10:50:33Z</time>
      </trkpt>
      <trkpt lat="44.68612" lon="6.86765">
        <ele>2399</ele>
        <time>2026-03-25T10:50:34Z</time>
      </trkpt>
      <trkpt lat="44.68611" lon="6.86765">
        <ele>2399.2</ele>
        <time>2026-03-25T10:50:35Z</time>
      </trkpt>
      <trkpt lat="44.6861" lon="6.86765">
        <ele>2399.4</ele>
        <time>2026-03-25T10:50:36Z</time>
      </trkpt>
      <trkpt lat="44.6861" lon="6.86765">
        <ele>2399.5</ele>
        <time>2026-03-25T10:50:37Z</time>
      </trkpt>
      <trkpt lat="44.68609" lon="6.86765">
        <ele>2399.6</ele>
        <time>2026-03-25T10:50:38Z</time>
      </trkpt>
      <trkpt lat="44.68608" lon="6.86766">
        <ele>2399.8</ele>
        <time>2026-03-25T10:50:39Z</time>
      </trkpt>
      <trkpt lat="44.68608" lon="6.86766">
        <ele>2399.9</ele>
        <time>2026-03-25T10:50:40Z</time>
      </trkpt>
      <trkpt lat="44.68607" lon="6.86766">
        <ele>2400</ele>
        <time>2026-03-25T10:50:41Z</time>
      </trkpt>
      <trkpt lat="44.68607" lon="6.86766">
        <ele>2400.1</ele>
        <time>2026-03-25T10:50:42Z</time>
      </trkpt>
      <trkpt lat="44.68606" lon="6.86766">
        <ele>2400.2</ele>
        <time>2026-03-25T10:50:43Z</time>
      </trkpt>
      <trkpt lat="44.68606" lon="6.86766">
        <ele>2400.3</ele>
        <time>2026-03-25T10:50:44Z</time>
      </trkpt>
      <trkpt lat="44.68605" lon="6.86766">
        <ele>2400.4</ele>
        <time>2026-03-25T10:50:45Z</time>
      </trkpt>
      <trkpt lat="44.68605" lon="6.86766">
        <ele>2400.5</ele>
        <time>2026-03-25T10:50:46Z</time>
      </trkpt>
      <trkpt lat="44.68604" lon="6.86766">
        <ele>2400.6</ele>
        <time>2026-03-25T10:50:47Z</time>
      </trkpt>
      <trkpt lat="44.68604" lon="6.86766">
        <ele>2400.7</ele>
        <time>2026-03-25T10:50:48Z</time>
      </trkpt>
      <trkpt lat="44.68603" lon="6.86766">
        <ele>2400.8</ele>
        <time>2026-03-25T10:50:49Z</time>
      </trkpt>
      <trkpt lat="44.68602" lon="6.86766">
        <ele>2400.9</ele>
        <time>2026-03-25T10:50:50Z</time>
      </trkpt>
      <trkpt lat="44.68602" lon="6.86766">
        <ele>2401</ele>
        <time>2026-03-25T10:50:51Z</time>
      </trkpt>
      <trkpt lat="44.68601" lon="6.86766">
        <ele>2401.1</ele>
        <time>2026-03-25T10:50:52Z</time>
      </trkpt>
      <trkpt lat="44.686" lon="6.86767">
        <ele>2401.3</ele>
        <time>2026-03-25T10:50:53Z</time>
      </trkpt>
      <trkpt lat="44.68599" lon="6.86767">
        <ele>2401.4</ele>
        <time>2026-03-25T10:50:54Z</time>
      </trkpt>
      <trkpt lat="44.68599" lon="6.86767">
        <ele>2401.5</ele>
        <time>2026-03-25T10:50:55Z</time>
      </trkpt>
      <trkpt lat="44.68598" lon="6.86767">
        <ele>2401.6</ele>
        <time>2026-03-25T10:50:56Z</time>
      </trkpt>
      <trkpt lat="44.68597" lon="6.86768">
        <ele>2401.8</ele>
        <time>2026-03-25T10:50:57Z</time>
      </trkpt>
      <trkpt lat="44.68597" lon="6.86768">
        <ele>2401.9</ele>
        <time>2026-03-25T10:50:58Z</time>
      </trkpt>
      <trkpt lat="44.68596" lon="6.86767">
        <ele>2401.9</ele>
        <time>2026-03-25T10:50:59Z</time>
      </trkpt>
      <trkpt lat="44.68596" lon="6.86767">
        <ele>2402</ele>
        <time>2026-03-25T10:51:00Z</time>
      </trkpt>
      <trkpt lat="44.68595" lon="6.86767">
        <ele>2402.1</ele>
        <time>2026-03-25T10:51:01Z</time>
      </trkpt>
      <trkpt lat="44.68595" lon="6.86767">
        <ele>2402.2</ele>
        <time>2026-03-25T10:51:02Z</time>
      </trkpt>
      <trkpt lat="44.68594" lon="6.86767">
        <ele>2402.2</ele>
        <time>2026-03-25T10:51:03Z</time>
      </trkpt>
      <trkpt lat="44.68594" lon="6.86768">
        <ele>2402.4</ele>
        <time>2026-03-25T10:51:04Z</time>
      </trkpt>
      <trkpt lat="44.68594" lon="6.86768">
        <ele>2402.4</ele>
        <time>2026-03-25T10:51:05Z</time>
      </trkpt>
      <trkpt lat="44.68594" lon="6.86768">
        <ele>2402.4</ele>
        <time>2026-03-25T10:51:06Z</time>
      </trkpt>
      <trkpt lat="44.68594" lon="6.86768">
        <ele>2402.4</ele>
        <time>2026-03-25T10:51:07Z</time>
      </trkpt>
      <trkpt lat="44.68594" lon="6.86768">
        <ele>2402.5</ele>
        <time>2026-03-25T10:51:08Z</time>
      </trkpt>
      <trkpt lat="44.68594" lon="6.86767">
        <ele>2402.5</ele>
        <time>2026-03-25T10:51:09Z</time>
      </trkpt>
      <trkpt lat="44.68594" lon="6.86767">
        <ele>2402.5</ele>
        <time>2026-03-25T10:51:10Z</time>
      </trkpt>
      <trkpt lat="44.68593" lon="6.86768">
        <ele>2402.5</ele>
        <time>2026-03-25T10:51:11Z</time>
      </trkpt>
      <trkpt lat="44.68593" lon="6.86767">
        <ele>2402.6</ele>
        <time>2026-03-25T10:51:12Z</time>
      </trkpt>
      <trkpt lat="44.68593" lon="6.86767">
        <ele>2402.6</ele>
        <time>2026-03-25T10:51:13Z</time>
      </trkpt>
      <trkpt lat="44.68592" lon="6.86767">
        <ele>2402.7</ele>
        <time>2026-03-25T10:51:14Z</time>
      </trkpt>
      <trkpt lat="44.68592" lon="6.86767">
        <ele>2402.7</ele>
        <time>2026-03-25T10:51:15Z</time>
      </trkpt>
      <trkpt lat="44.68592" lon="6.86767">
        <ele>2402.8</ele>
        <time>2026-03-25T10:51:16Z</time>
      </trkpt>
      <trkpt lat="44.68591" lon="6.86767">
        <ele>2402.9</ele>
        <time>2026-03-25T10:51:17Z</time>
      </trkpt>
      <trkpt lat="44.68591" lon="6.86767">
        <ele>2402.9</ele>
        <time>2026-03-25T10:51:18Z</time>
      </trkpt>
      <trkpt lat="44.68591" lon="6.86767">
        <ele>2402.9</ele>
        <time>2026-03-25T10:51:19Z</time>
      </trkpt>
      <trkpt lat="44.68591" lon="6.86767">
        <ele>2403</ele>
        <time>2026-03-25T10:51:20Z</time>
      </trkpt>
      <trkpt lat="44.6859" lon="6.86767">
        <ele>2403.1</ele>
        <time>2026-03-25T10:51:21Z</time>
      </trkpt>
      <trkpt lat="44.6859" lon="6.86768">
        <ele>2403.1</ele>
        <time>2026-03-25T10:51:22Z</time>
      </trkpt>
      <trkpt lat="44.68589" lon="6.86768">
        <ele>2403.2</ele>
        <time>2026-03-25T10:51:23Z</time>
      </trkpt>
      <trkpt lat="44.68589" lon="6.86768">
        <ele>2403.3</ele>
        <time>2026-03-25T10:51:24Z</time>
      </trkpt>
      <trkpt lat="44.68588" lon="6.86769">
        <ele>2403.4</ele>
        <time>2026-03-25T10:51:25Z</time>
      </trkpt>
      <trkpt lat="44.68588" lon="6.86769">
        <ele>2403.5</ele>
        <time>2026-03-25T10:51:26Z</time>
      </trkpt>
      <trkpt lat="44.68587" lon="6.86769">
        <ele>2403.6</ele>
        <time>2026-03-25T10:51:27Z</time>
      </trkpt>
      <trkpt lat="44.68587" lon="6.8677">
        <ele>2403.7</ele>
        <time>2026-03-25T10:51:28Z</time>
      </trkpt>
      <trkpt lat="44.68586" lon="6.8677">
        <ele>2403.9</ele>
        <time>2026-03-25T10:51:29Z</time>
      </trkpt>
      <trkpt lat="44.68585" lon="6.86771">
        <ele>2404</ele>
        <time>2026-03-25T10:51:30Z</time>
      </trkpt>
      <trkpt lat="44.68584" lon="6.86771">
        <ele>2404.1</ele>
        <time>2026-03-25T10:51:31Z</time>
      </trkpt>
      <trkpt lat="44.68584" lon="6.86771">
        <ele>2404.2</ele>
        <time>2026-03-25T10:51:32Z</time>
      </trkpt>
      <trkpt lat="44.68583" lon="6.86772">
        <ele>2404.3</ele>
        <time>2026-03-25T10:51:33Z</time>
      </trkpt>
      <trkpt lat="44.68583" lon="6.86772">
        <ele>2404.5</ele>
        <time>2026-03-25T10:51:34Z</time>
      </trkpt>
      <trkpt lat="44.68582" lon="6.86772">
        <ele>2404.5</ele>
        <time>2026-03-25T10:51:35Z</time>
      </trkpt>
      <trkpt lat="44.68582" lon="6.86773">
        <ele>2404.6</ele>
        <time>2026-03-25T10:51:36Z</time>
      </trkpt>
      <trkpt lat="44.68581" lon="6.86773">
        <ele>2404.8</ele>
        <time>2026-03-25T10:51:37Z</time>
      </trkpt>
      <trkpt lat="44.6858" lon="6.86773">
        <ele>2404.9</ele>
        <time>2026-03-25T10:51:38Z</time>
      </trkpt>
      <trkpt lat="44.68579" lon="6.86773">
        <ele>2405</ele>
        <time>2026-03-25T10:51:39Z</time>
      </trkpt>
      <trkpt lat="44.68579" lon="6.86773">
        <ele>2405.1</ele>
        <time>2026-03-25T10:51:40Z</time>
      </trkpt>
      <trkpt lat="44.68578" lon="6.86773">
        <ele>2405.2</ele>
        <time>2026-03-25T10:51:41Z</time>
      </trkpt>
      <trkpt lat="44.68578" lon="6.86773">
        <ele>2405.3</ele>
        <time>2026-03-25T10:51:42Z</time>
      </trkpt>
      <trkpt lat="44.68577" lon="6.86773">
        <ele>2405.4</ele>
        <time>2026-03-25T10:51:43Z</time>
      </trkpt>
      <trkpt lat="44.68577" lon="6.86773">
        <ele>2405.5</ele>
        <time>2026-03-25T10:51:44Z</time>
      </trkpt>
      <trkpt lat="44.68576" lon="6.86773">
        <ele>2405.6</ele>
        <time>2026-03-25T10:51:45Z</time>
      </trkpt>
      <trkpt lat="44.68575" lon="6.86774">
        <ele>2405.7</ele>
        <time>2026-03-25T10:51:46Z</time>
      </trkpt>
      <trkpt lat="44.68575" lon="6.86774">
        <ele>2405.8</ele>
        <time>2026-03-25T10:51:47Z</time>
      </trkpt>
      <trkpt lat="44.68574" lon="6.86773">
        <ele>2405.9</ele>
        <time>2026-03-25T10:51:48Z</time>
      </trkpt>
      <trkpt lat="44.68573" lon="6.86773">
        <ele>2406.1</ele>
        <time>2026-03-25T10:51:49Z</time>
      </trkpt>
      <trkpt lat="44.68573" lon="6.86773">
        <ele>2406.2</ele>
        <time>2026-03-25T10:51:50Z</time>
      </trkpt>
      <trkpt lat="44.68572" lon="6.86773">
        <ele>2406.3</ele>
        <time>2026-03-25T10:51:51Z</time>
      </trkpt>
      <trkpt lat="44.68571" lon="6.86773">
        <ele>2406.4</ele>
        <time>2026-03-25T10:51:52Z</time>
      </trkpt>
      <trkpt lat="44.68571" lon="6.86773">
        <ele>2406.5</ele>
        <time>2026-03-25T10:51:53Z</time>
      </trkpt>
      <trkpt lat="44.6857" lon="6.86773">
        <ele>2406.6</ele>
        <time>2026-03-25T10:51:54Z</time>
      </trkpt>
      <trkpt lat="44.68569" lon="6.86773">
        <ele>2406.7</ele>
        <time>2026-03-25T10:51:55Z</time>
      </trkpt>
      <trkpt lat="44.68569" lon="6.86773">
        <ele>2406.8</ele>
        <time>2026-03-25T10:51:56Z</time>
      </trkpt>
      <trkpt lat="44.68568" lon="6.86773">
        <ele>2406.9</ele>
        <time>2026-03-25T10:51:57Z</time>
      </trkpt>
      <trkpt lat="44.68567" lon="6.86773">
        <ele>2407</ele>
        <time>2026-03-25T10:51:58Z</time>
      </trkpt>
      <trkpt lat="44.68566" lon="6.86774">
        <ele>2407.1</ele>
        <time>2026-03-25T10:51:59Z</time>
      </trkpt>
      <trkpt lat="44.68566" lon="6.86774">
        <ele>2407.2</ele>
        <time>2026-03-25T10:52:00Z</time>
      </trkpt>
      <trkpt lat="44.68565" lon="6.86774">
        <ele>2407.3</ele>
        <time>2026-03-25T10:52:01Z</time>
      </trkpt>
      <trkpt lat="44.68564" lon="6.86774">
        <ele>2407.4</ele>
        <time>2026-03-25T10:52:02Z</time>
      </trkpt>
      <trkpt lat="44.68564" lon="6.86774">
        <ele>2407.5</ele>
        <time>2026-03-25T10:52:03Z</time>
      </trkpt>
      <trkpt lat="44.68563" lon="6.86774">
        <ele>2407.6</ele>
        <time>2026-03-25T10:52:04Z</time>
      </trkpt>
      <trkpt lat="44.68562" lon="6.86774">
        <ele>2407.7</ele>
        <time>2026-03-25T10:52:05Z</time>
      </trkpt>
      <trkpt lat="44.68562" lon="6.86774">
        <ele>2407.8</ele>
        <time>2026-03-25T10:52:06Z</time>
      </trkpt>
      <trkpt lat="44.68561" lon="6.86774">
        <ele>2407.8</ele>
        <time>2026-03-25T10:52:07Z</time>
      </trkpt>
      <trkpt lat="44.6856" lon="6.86774">
        <ele>2407.9</ele>
        <time>2026-03-25T10:52:08Z</time>
      </trkpt>
      <trkpt lat="44.6856" lon="6.86774">
        <ele>2408</ele>
        <time>2026-03-25T10:52:09Z</time>
      </trkpt>
      <trkpt lat="44.68559" lon="6.86773">
        <ele>2408.1</ele>
        <time>2026-03-25T10:52:10Z</time>
      </trkpt>
      <trkpt lat="44.68559" lon="6.86773">
        <ele>2408.1</ele>
        <time>2026-03-25T10:52:11Z</time>
      </trkpt>
      <trkpt lat="44.68558" lon="6.86773">
        <ele>2408.2</ele>
        <time>2026-03-25T10:52:12Z</time>
      </trkpt>
      <trkpt lat="44.68557" lon="6.86773">
        <ele>2408.3</ele>
        <time>2026-03-25T10:52:13Z</time>
      </trkpt>
      <trkpt lat="44.68556" lon="6.86773">
        <ele>2408.3</ele>
        <time>2026-03-25T10:52:14Z</time>
      </trkpt>
      <trkpt lat="44.68556" lon="6.86773">
        <ele>2408.4</ele>
        <time>2026-03-25T10:52:15Z</time>
      </trkpt>
      <trkpt lat="44.68555" lon="6.86773">
        <ele>2408.5</ele>
        <time>2026-03-25T10:52:16Z</time>
      </trkpt>
      <trkpt lat="44.68554" lon="6.86773">
        <ele>2408.5</ele>
        <time>2026-03-25T10:52:17Z</time>
      </trkpt>
      <trkpt lat="44.68554" lon="6.86773">
        <ele>2408.6</ele>
        <time>2026-03-25T10:52:18Z</time>
      </trkpt>
      <trkpt lat="44.68553" lon="6.86773">
        <ele>2408.7</ele>
        <time>2026-03-25T10:52:19Z</time>
      </trkpt>
      <trkpt lat="44.68552" lon="6.86773">
        <ele>2408.7</ele>
        <time>2026-03-25T10:52:20Z</time>
      </trkpt>
      <trkpt lat="44.68552" lon="6.86773">
        <ele>2408.8</ele>
        <time>2026-03-25T10:52:21Z</time>
      </trkpt>
      <trkpt lat="44.68551" lon="6.86773">
        <ele>2408.8</ele>
        <time>2026-03-25T10:52:22Z</time>
      </trkpt>
      <trkpt lat="44.6855" lon="6.86773">
        <ele>2408.9</ele>
        <time>2026-03-25T10:52:23Z</time>
      </trkpt>
      <trkpt lat="44.68549" lon="6.86773">
        <ele>2409</ele>
        <time>2026-03-25T10:52:24Z</time>
      </trkpt>
      <trkpt lat="44.68548" lon="6.86773">
        <ele>2409</ele>
        <time>2026-03-25T10:52:25Z</time>
      </trkpt>
      <trkpt lat="44.68548" lon="6.86773">
        <ele>2409.1</ele>
        <time>2026-03-25T10:52:26Z</time>
      </trkpt>
      <trkpt lat="44.68547" lon="6.86773">
        <ele>2409.1</ele>
        <time>2026-03-25T10:52:27Z</time>
      </trkpt>
      <trkpt lat="44.68546" lon="6.86773">
        <ele>2409.2</ele>
        <time>2026-03-25T10:52:28Z</time>
      </trkpt>
      <trkpt lat="44.68546" lon="6.86772">
        <ele>2409.2</ele>
        <time>2026-03-25T10:52:29Z</time>
      </trkpt>
      <trkpt lat="44.68545" lon="6.86773">
        <ele>2409.3</ele>
        <time>2026-03-25T10:52:30Z</time>
      </trkpt>
      <trkpt lat="44.68544" lon="6.86772">
        <ele>2409.3</ele>
        <time>2026-03-25T10:52:31Z</time>
      </trkpt>
      <trkpt lat="44.68544" lon="6.86772">
        <ele>2409.4</ele>
        <time>2026-03-25T10:52:32Z</time>
      </trkpt>
      <trkpt lat="44.68543" lon="6.86772">
        <ele>2409.4</ele>
        <time>2026-03-25T10:52:33Z</time>
      </trkpt>
      <trkpt lat="44.68542" lon="6.86772">
        <ele>2409.5</ele>
        <time>2026-03-25T10:52:34Z</time>
      </trkpt>
      <trkpt lat="44.68541" lon="6.86772">
        <ele>2409.5</ele>
        <time>2026-03-25T10:52:35Z</time>
      </trkpt>
      <trkpt lat="44.68541" lon="6.86772">
        <ele>2409.5</ele>
        <time>2026-03-25T10:52:36Z</time>
      </trkpt>
      <trkpt lat="44.6854" lon="6.86771">
        <ele>2409.6</ele>
        <time>2026-03-25T10:52:37Z</time>
      </trkpt>
      <trkpt lat="44.68539" lon="6.86771">
        <ele>2409.6</ele>
        <time>2026-03-25T10:52:38Z</time>
      </trkpt>
      <trkpt lat="44.68539" lon="6.86771">
        <ele>2409.6</ele>
        <time>2026-03-25T10:52:39Z</time>
      </trkpt>
      <trkpt lat="44.68538" lon="6.86771">
        <ele>2409.7</ele>
        <time>2026-03-25T10:52:40Z</time>
      </trkpt>
      <trkpt lat="44.68537" lon="6.86771">
        <ele>2409.7</ele>
        <time>2026-03-25T10:52:41Z</time>
      </trkpt>
      <trkpt lat="44.68537" lon="6.8677">
        <ele>2409.7</ele>
        <time>2026-03-25T10:52:42Z</time>
      </trkpt>
      <trkpt lat="44.68536" lon="6.8677">
        <ele>2409.8</ele>
        <time>2026-03-25T10:52:43Z</time>
      </trkpt>
      <trkpt lat="44.68535" lon="6.8677">
        <ele>2409.8</ele>
        <time>2026-03-25T10:52:44Z</time>
      </trkpt>
      <trkpt lat="44.68535" lon="6.8677">
        <ele>2409.8</ele>
        <time>2026-03-25T10:52:45Z</time>
      </trkpt>
      <trkpt lat="44.68534" lon="6.8677">
        <ele>2409.9</ele>
        <time>2026-03-25T10:52:46Z</time>
      </trkpt>
      <trkpt lat="44.68534" lon="6.8677">
        <ele>2409.9</ele>
        <time>2026-03-25T10:52:47Z</time>
      </trkpt>
      <trkpt lat="44.68533" lon="6.8677">
        <ele>2409.9</ele>
        <time>2026-03-25T10:52:48Z</time>
      </trkpt>
      <trkpt lat="44.68532" lon="6.8677">
        <ele>2410</ele>
        <time>2026-03-25T10:52:49Z</time>
      </trkpt>
      <trkpt lat="44.68531" lon="6.86771">
        <ele>2410</ele>
        <time>2026-03-25T10:52:50Z</time>
      </trkpt>
      <trkpt lat="44.68531" lon="6.86771">
        <ele>2410</ele>
        <time>2026-03-25T10:52:51Z</time>
      </trkpt>
      <trkpt lat="44.6853" lon="6.86772">
        <ele>2410</ele>
        <time>2026-03-25T10:52:52Z</time>
      </trkpt>
      <trkpt lat="44.6853" lon="6.86772">
        <ele>2410.1</ele>
        <time>2026-03-25T10:52:53Z</time>
      </trkpt>
      <trkpt lat="44.68529" lon="6.86773">
        <ele>2410.1</ele>
        <time>2026-03-25T10:52:54Z</time>
      </trkpt>
      <trkpt lat="44.68528" lon="6.86773">
        <ele>2410.1</ele>
        <time>2026-03-25T10:52:55Z</time>
      </trkpt>
      <trkpt lat="44.68528" lon="6.86774">
        <ele>2410.2</ele>
        <time>2026-03-25T10:52:56Z</time>
      </trkpt>
      <trkpt lat="44.68527" lon="6.86774">
        <ele>2410.2</ele>
        <time>2026-03-25T10:52:57Z</time>
      </trkpt>
      <trkpt lat="44.68527" lon="6.86775">
        <ele>2410.2</ele>
        <time>2026-03-25T10:52:58Z</time>
      </trkpt>
      <trkpt lat="44.68526" lon="6.86776">
        <ele>2410.2</ele>
        <time>2026-03-25T10:52:59Z</time>
      </trkpt>
      <trkpt lat="44.68526" lon="6.86777">
        <ele>2410.3</ele>
        <time>2026-03-25T10:53:00Z</time>
      </trkpt>
      <trkpt lat="44.68526" lon="6.86777">
        <ele>2410.3</ele>
        <time>2026-03-25T10:53:01Z</time>
      </trkpt>
      <trkpt lat="44.68526" lon="6.86776">
        <ele>2410.3</ele>
        <time>2026-03-25T10:53:02Z</time>
      </trkpt>
      <trkpt lat="44.68526" lon="6.86777">
        <ele>2410.3</ele>
        <time>2026-03-25T10:53:03Z</time>
      </trkpt>
      <trkpt lat="44.68525" lon="6.86777">
        <ele>2410.3</ele>
        <time>2026-03-25T10:53:04Z</time>
      </trkpt>
      <trkpt lat="44.68524" lon="6.86778">
        <ele>2410.3</ele>
        <time>2026-03-25T10:53:05Z</time>
      </trkpt>
      <trkpt lat="44.68524" lon="6.86778">
        <ele>2410.3</ele>
        <time>2026-03-25T10:53:06Z</time>
      </trkpt>
      <trkpt lat="44.68523" lon="6.86779">
        <ele>2410.4</ele>
        <time>2026-03-25T10:53:07Z</time>
      </trkpt>
      <trkpt lat="44.68523" lon="6.8678">
        <ele>2410.4</ele>
        <time>2026-03-25T10:53:08Z</time>
      </trkpt>
      <trkpt lat="44.68522" lon="6.86781">
        <ele>2410.4</ele>
        <time>2026-03-25T10:53:09Z</time>
      </trkpt>
      <trkpt lat="44.68521" lon="6.86781">
        <ele>2410.4</ele>
        <time>2026-03-25T10:53:10Z</time>
      </trkpt>
      <trkpt lat="44.68521" lon="6.86782">
        <ele>2410.5</ele>
        <time>2026-03-25T10:53:11Z</time>
      </trkpt>
      <trkpt lat="44.6852" lon="6.86783">
        <ele>2410.5</ele>
        <time>2026-03-25T10:53:12Z</time>
      </trkpt>
      <trkpt lat="44.6852" lon="6.86783">
        <ele>2410.5</ele>
        <time>2026-03-25T10:53:13Z</time>
      </trkpt>
      <trkpt lat="44.68519" lon="6.86784">
        <ele>2410.5</ele>
        <time>2026-03-25T10:53:14Z</time>
      </trkpt>
      <trkpt lat="44.68519" lon="6.86785">
        <ele>2410.5</ele>
        <time>2026-03-25T10:53:15Z</time>
      </trkpt>
      <trkpt lat="44.68518" lon="6.86785">
        <ele>2410.6</ele>
        <time>2026-03-25T10:53:16Z</time>
      </trkpt>
      <trkpt lat="44.68518" lon="6.86786">
        <ele>2410.6</ele>
        <time>2026-03-25T10:53:17Z</time>
      </trkpt>
      <trkpt lat="44.68517" lon="6.86786">
        <ele>2410.6</ele>
        <time>2026-03-25T10:53:18Z</time>
      </trkpt>
      <trkpt lat="44.68517" lon="6.86787">
        <ele>2410.6</ele>
        <time>2026-03-25T10:53:19Z</time>
      </trkpt>
      <trkpt lat="44.68517" lon="6.86787">
        <ele>2410.6</ele>
        <time>2026-03-25T10:53:20Z</time>
      </trkpt>
      <trkpt lat="44.68516" lon="6.86788">
        <ele>2410.7</ele>
        <time>2026-03-25T10:53:21Z</time>
      </trkpt>
      <trkpt lat="44.68516" lon="6.86788">
        <ele>2410.7</ele>
        <time>2026-03-25T10:53:22Z</time>
      </trkpt>
      <trkpt lat="44.68516" lon="6.86788">
        <ele>2410.7</ele>
        <time>2026-03-25T10:53:23Z</time>
      </trkpt>
      <trkpt lat="44.68516" lon="6.86788">
        <ele>2410.7</ele>
        <time>2026-03-25T10:53:24Z</time>
      </trkpt>
      <trkpt lat="44.68516" lon="6.86788">
        <ele>2410.7</ele>
        <time>2026-03-25T10:53:25Z</time>
      </trkpt>
      <trkpt lat="44.68516" lon="6.86788">
        <ele>2410.7</ele>
        <time>2026-03-25T10:53:26Z</time>
      </trkpt>
      <trkpt lat="44.68516" lon="6.86788">
        <ele>2410.7</ele>
        <time>2026-03-25T10:53:27Z</time>
      </trkpt>
      <trkpt lat="44.68516" lon="6.86788">
        <ele>2410.7</ele>
        <time>2026-03-25T10:53:28Z</time>
      </trkpt>
      <trkpt lat="44.68516" lon="6.86788">
        <ele>2410.7</ele>
        <time>2026-03-25T10:53:29Z</time>
      </trkpt>
      <trkpt lat="44.68516" lon="6.86788">
        <ele>2410.7</ele>
        <time>2026-03-25T10:53:30Z</time>
      </trkpt>
      <trkpt lat="44.68516" lon="6.86788">
        <ele>2410.7</ele>
        <time>2026-03-25T10:53:31Z</time>
      </trkpt>
      <trkpt lat="44.68516" lon="6.86788">
        <ele>2410.7</ele>
        <time>2026-03-25T10:53:32Z</time>
      </trkpt>
      <trkpt lat="44.68516" lon="6.86788">
        <ele>2410.7</ele>
        <time>2026-03-25T10:53:33Z</time>
      </trkpt>
      <trkpt lat="44.68516" lon="6.86788">
        <ele>2410.7</ele>
        <time>2026-03-25T10:53:34Z</time>
      </trkpt>
      <trkpt lat="44.68516" lon="6.86788">
        <ele>2410.7</ele>
        <time>2026-03-25T10:53:35Z</time>
      </trkpt>
      <trkpt lat="44.68516" lon="6.86788">
        <ele>2410.7</ele>
        <time>2026-03-25T10:53:36Z</time>
      </trkpt>
      <trkpt lat="44.68516" lon="6.86789">
        <ele>2410.7</ele>
        <time>2026-03-25T10:53:37Z</time>
      </trkpt>
      <trkpt lat="44.68516" lon="6.86789">
        <ele>2410.7</ele>
        <time>2026-03-25T10:53:38Z</time>
      </trkpt>
      <trkpt lat="44.68516" lon="6.86789">
        <ele>2410.7</ele>
        <time>2026-03-25T10:53:39Z</time>
      </trkpt>
      <trkpt lat="44.68516" lon="6.86789">
        <ele>2410.7</ele>
        <time>2026-03-25T10:53:40Z</time>
      </trkpt>
      <trkpt lat="44.68516" lon="6.86789">
        <ele>2410.7</ele>
        <time>2026-03-25T10:53:41Z</time>
      </trkpt>
      <trkpt lat="44.68516" lon="6.86789">
        <ele>2410.7</ele>
        <time>2026-03-25T10:53:42Z</time>
      </trkpt>
      <trkpt lat="44.68516" lon="6.86789">
        <ele>2410.7</ele>
        <time>2026-03-25T10:53:43Z</time>
      </trkpt>
      <trkpt lat="44.68516" lon="6.86789">
        <ele>2410.7</ele>
        <time>2026-03-25T10:53:44Z</time>
      </trkpt>
      <trkpt lat="44.68516" lon="6.86789">
        <ele>2410.7</ele>
        <time>2026-03-25T10:53:45Z</time>
      </trkpt>
      <trkpt lat="44.68516" lon="6.86789">
        <ele>2410.7</ele>
        <time>2026-03-25T10:53:46Z</time>
      </trkpt>
      <trkpt lat="44.68516" lon="6.86789">
        <ele>2410.7</ele>
        <time>2026-03-25T10:53:47Z</time>
      </trkpt>
      <trkpt lat="44.68516" lon="6.86789">
        <ele>2410.7</ele>
        <time>2026-03-25T10:53:48Z</time>
      </trkpt>
      <trkpt lat="44.68516" lon="6.86789">
        <ele>2410.7</ele>
        <time>2026-03-25T10:53:49Z</time>
      </trkpt>
      <trkpt lat="44.68516" lon="6.86789">
        <ele>2410.7</ele>
        <time>2026-03-25T10:53:50Z</time>
      </trkpt>
      <trkpt lat="44.68516" lon="6.86789">
        <ele>2410.7</ele>
        <time>2026-03-25T10:53:51Z</time>
      </trkpt>
      <trkpt lat="44.68516" lon="6.86789">
        <ele>2410.7</ele>
        <time>2026-03-25T10:53:52Z</time>
      </trkpt>
      <trkpt lat="44.68516" lon="6.86789">
        <ele>2410.7</ele>
        <time>2026-03-25T10:53:53Z</time>
      </trkpt>
      <trkpt lat="44.68516" lon="6.86789">
        <ele>2410.7</ele>
        <time>2026-03-25T10:53:54Z</time>
      </trkpt>
      <trkpt lat="44.68516" lon="6.86789">
        <ele>2410.7</ele>
        <time>2026-03-25T10:53:55Z</time>
      </trkpt>
      <trkpt lat="44.68516" lon="6.86789">
        <ele>2410.7</ele>
        <time>2026-03-25T10:53:56Z</time>
      </trkpt>
      <trkpt lat="44.68516" lon="6.86789">
        <ele>2410.7</ele>
        <time>2026-03-25T10:53:57Z</time>
      </trkpt>
      <trkpt lat="44.68516" lon="6.86789">
        <ele>2410.7</ele>
        <time>2026-03-25T10:53:58Z</time>
      </trkpt>
      <trkpt lat="44.68516" lon="6.86789">
        <ele>2410.7</ele>
        <time>2026-03-25T10:53:59Z</time>
      </trkpt>
      <trkpt lat="44.68516" lon="6.86789">
        <ele>2410.7</ele>
        <time>2026-03-25T10:54:00Z</time>
      </trkpt>
      <trkpt lat="44.68516" lon="6.86789">
        <ele>2410.7</ele>
        <time>2026-03-25T10:54:01Z</time>
      </trkpt>
      <trkpt lat="44.68516" lon="6.86789">
        <ele>2410.7</ele>
        <time>2026-03-25T10:54:02Z</time>
      </trkpt>
      <trkpt lat="44.68516" lon="6.86789">
        <ele>2410.7</ele>
        <time>2026-03-25T10:54:03Z</time>
      </trkpt>
      <trkpt lat="44.68516" lon="6.86789">
        <ele>2410.7</ele>
        <time>2026-03-25T10:54:04Z</time>
      </trkpt>
      <trkpt lat="44.68516" lon="6.86789">
        <ele>2410.7</ele>
        <time>2026-03-25T10:54:05Z</time>
      </trkpt>
      <trkpt lat="44.68516" lon="6.86789">
        <ele>2410.7</ele>
        <time>2026-03-25T10:54:06Z</time>
      </trkpt>
      <trkpt lat="44.68516" lon="6.86789">
        <ele>2410.7</ele>
        <time>2026-03-25T10:54:07Z</time>
      </trkpt>
      <trkpt lat="44.68516" lon="6.86789">
        <ele>2410.7</ele>
        <time>2026-03-25T10:54:08Z</time>
      </trkpt>
      <trkpt lat="44.68516" lon="6.86789">
        <ele>2410.7</ele>
        <time>2026-03-25T10:54:09Z</time>
      </trkpt>
      <trkpt lat="44.68516" lon="6.86789">
        <ele>2410.7</ele>
        <time>2026-03-25T10:54:10Z</time>
      </trkpt>
      <trkpt lat="44.68516" lon="6.86789">
        <ele>2410.7</ele>
        <time>2026-03-25T10:54:11Z</time>
      </trkpt>
      <trkpt lat="44.68516" lon="6.86789">
        <ele>2410.7</ele>
        <time>2026-03-25T10:54:12Z</time>
      </trkpt>
      <trkpt lat="44.68516" lon="6.86789">
        <ele>2410.7</ele>
        <time>2026-03-25T10:54:13Z</time>
      </trkpt>
      <trkpt lat="44.68516" lon="6.86789">
        <ele>2410.7</ele>
        <time>2026-03-25T10:54:14Z</time>
      </trkpt>
      <trkpt lat="44.68516" lon="6.86789">
        <ele>2410.7</ele>
        <time>2026-03-25T10:54:15Z</time>
      </trkpt>
      <trkpt lat="44.68516" lon="6.86789">
        <ele>2410.7</ele>
        <time>2026-03-25T10:54:16Z</time>
      </trkpt>
      <trkpt lat="44.68516" lon="6.86789">
        <ele>2410.7</ele>
        <time>2026-03-25T10:54:17Z</time>
      </trkpt>
      <trkpt lat="44.68516" lon="6.86789">
        <ele>2410.7</ele>
        <time>2026-03-25T10:54:18Z</time>
      </trkpt>
      <trkpt lat="44.68516" lon="6.86789">
        <ele>2410.7</ele>
        <time>2026-03-25T10:54:19Z</time>
      </trkpt>
      <trkpt lat="44.68516" lon="6.86789">
        <ele>2410.7</ele>
        <time>2026-03-25T10:54:20Z</time>
      </trkpt>
      <trkpt lat="44.68516" lon="6.86789">
        <ele>2410.7</ele>
        <time>2026-03-25T10:54:21Z</time>
      </trkpt>
      <trkpt lat="44.68516" lon="6.86789">
        <ele>2410.7</ele>
        <time>2026-03-25T10:54:22Z</time>
      </trkpt>
      <trkpt lat="44.68516" lon="6.86789">
        <ele>2410.7</ele>
        <time>2026-03-25T10:54:23Z</time>
      </trkpt>
      <trkpt lat="44.68516" lon="6.86789">
        <ele>2410.7</ele>
        <time>2026-03-25T10:54:24Z</time>
      </trkpt>
      <trkpt lat="44.68516" lon="6.86789">
        <ele>2410.7</ele>
        <time>2026-03-25T10:54:25Z</time>
      </trkpt>
      <trkpt lat="44.68516" lon="6.86789">
        <ele>2410.7</ele>
        <time>2026-03-25T10:54:26Z</time>
      </trkpt>
      <trkpt lat="44.68516" lon="6.86789">
        <ele>2410.7</ele>
        <time>2026-03-25T10:54:27Z</time>
      </trkpt>
      <trkpt lat="44.68516" lon="6.86789">
        <ele>2410.7</ele>
        <time>2026-03-25T10:54:28Z</time>
      </trkpt>
      <trkpt lat="44.68516" lon="6.86789">
        <ele>2410.7</ele>
        <time>2026-03-25T10:54:29Z</time>
      </trkpt>
      <trkpt lat="44.68516" lon="6.86789">
        <ele>2410.7</ele>
        <time>2026-03-25T10:54:30Z</time>
      </trkpt>
      <trkpt lat="44.68516" lon="6.86789">
        <ele>2410.7</ele>
        <time>2026-03-25T10:54:31Z</time>
      </trkpt>
      <trkpt lat="44.68516" lon="6.86789">
        <ele>2410.7</ele>
        <time>2026-03-25T10:54:32Z</time>
      </trkpt>
      <trkpt lat="44.68516" lon="6.86789">
        <ele>2410.7</ele>
        <time>2026-03-25T10:54:33Z</time>
      </trkpt>
      <trkpt lat="44.68516" lon="6.86789">
        <ele>2410.7</ele>
        <time>2026-03-25T10:54:34Z</time>
      </trkpt>
      <trkpt lat="44.68516" lon="6.86789">
        <ele>2410.7</ele>
        <time>2026-03-25T10:54:35Z</time>
      </trkpt>
      <trkpt lat="44.68516" lon="6.86789">
        <ele>2410.7</ele>
        <time>2026-03-25T10:54:36Z</time>
      </trkpt>
      <trkpt lat="44.68516" lon="6.86789">
        <ele>2410.7</ele>
        <time>2026-03-25T10:54:37Z</time>
      </trkpt>
      <trkpt lat="44.68516" lon="6.86789">
        <ele>2410.7</ele>
        <time>2026-03-25T10:54:38Z</time>
      </trkpt>
      <trkpt lat="44.68516" lon="6.86789">
        <ele>2410.7</ele>
        <time>2026-03-25T10:54:39Z</time>
      </trkpt>
      <trkpt lat="44.68516" lon="6.86789">
        <ele>2410.7</ele>
        <time>2026-03-25T10:54:40Z</time>
      </trkpt>
      <trkpt lat="44.68516" lon="6.86789">
        <ele>2410.7</ele>
        <time>2026-03-25T10:54:41Z</time>
      </trkpt>
      <trkpt lat="44.68516" lon="6.86789">
        <ele>2410.7</ele>
        <time>2026-03-25T10:54:42Z</time>
      </trkpt>
      <trkpt lat="44.68516" lon="6.86789">
        <ele>2410.7</ele>
        <time>2026-03-25T10:54:43Z</time>
      </trkpt>
      <trkpt lat="44.68516" lon="6.86789">
        <ele>2410.7</ele>
        <time>2026-03-25T10:54:44Z</time>
      </trkpt>
      <trkpt lat="44.68516" lon="6.86789">
        <ele>2410.7</ele>
        <time>2026-03-25T10:54:45Z</time>
      </trkpt>
      <trkpt lat="44.68516" lon="6.86789">
        <ele>2410.7</ele>
        <time>2026-03-25T10:54:46Z</time>
      </trkpt>
      <trkpt lat="44.68516" lon="6.86789">
        <ele>2410.7</ele>
        <time>2026-03-25T10:54:47Z</time>
      </trkpt>
      <trkpt lat="44.68516" lon="6.86789">
        <ele>2410.7</ele>
        <time>2026-03-25T10:54:48Z</time>
      </trkpt>
      <trkpt lat="44.68516" lon="6.86789">
        <ele>2410.7</ele>
        <time>2026-03-25T10:54:49Z</time>
      </trkpt>
      <trkpt lat="44.68516" lon="6.86789">
        <ele>2410.7</ele>
        <time>2026-03-25T10:54:50Z</time>
      </trkpt>
      <trkpt lat="44.68516" lon="6.86789">
        <ele>2410.7</ele>
        <time>2026-03-25T10:54:51Z</time>
      </trkpt>
      <trkpt lat="44.68516" lon="6.86789">
        <ele>2410.7</ele>
        <time>2026-03-25T10:54:52Z</time>
      </trkpt>
      <trkpt lat="44.68516" lon="6.86789">
        <ele>2410.7</ele>
        <time>2026-03-25T10:54:53Z</time>
      </trkpt>
      <trkpt lat="44.68516" lon="6.86789">
        <ele>2410.7</ele>
        <time>2026-03-25T10:54:54Z</time>
      </trkpt>
      <trkpt lat="44.68516" lon="6.86789">
        <ele>2410.7</ele>
        <time>2026-03-25T10:54:55Z</time>
      </trkpt>
      <trkpt lat="44.68516" lon="6.86789">
        <ele>2410.7</ele>
        <time>2026-03-25T10:54:56Z</time>
      </trkpt>
      <trkpt lat="44.68516" lon="6.86789">
        <ele>2410.7</ele>
        <time>2026-03-25T10:54:57Z</time>
      </trkpt>
      <trkpt lat="44.68516" lon="6.86789">
        <ele>2410.7</ele>
        <time>2026-03-25T10:54:58Z</time>
      </trkpt>
      <trkpt lat="44.68516" lon="6.86789">
        <ele>2410.7</ele>
        <time>2026-03-25T10:54:59Z</time>
      </trkpt>
      <trkpt lat="44.68516" lon="6.86789">
        <ele>2410.7</ele>
        <time>2026-03-25T10:55:00Z</time>
      </trkpt>
      <trkpt lat="44.68516" lon="6.86789">
        <ele>2410.7</ele>
        <time>2026-03-25T10:55:01Z</time>
      </trkpt>
      <trkpt lat="44.68516" lon="6.86789">
        <ele>2410.7</ele>
        <time>2026-03-25T10:55:02Z</time>
      </trkpt>
      <trkpt lat="44.68516" lon="6.86789">
        <ele>2410.7</ele>
        <time>2026-03-25T10:55:03Z</time>
      </trkpt>
      <trkpt lat="44.68516" lon="6.86789">
        <ele>2410.7</ele>
        <time>2026-03-25T10:55:04Z</time>
      </trkpt>
      <trkpt lat="44.68516" lon="6.86789">
        <ele>2410.7</ele>
        <time>2026-03-25T10:55:05Z</time>
      </trkpt>
      <trkpt lat="44.68516" lon="6.86789">
        <ele>2410.7</ele>
        <time>2026-03-25T10:55:06Z</time>
      </trkpt>
      <trkpt lat="44.68516" lon="6.86789">
        <ele>2410.7</ele>
        <time>2026-03-25T10:55:07Z</time>
      </trkpt>
      <trkpt lat="44.68516" lon="6.86789">
        <ele>2410.7</ele>
        <time>2026-03-25T10:55:08Z</time>
      </trkpt>
      <trkpt lat="44.68516" lon="6.86789">
        <ele>2410.7</ele>
        <time>2026-03-25T10:55:09Z</time>
      </trkpt>
      <trkpt lat="44.68516" lon="6.86789">
        <ele>2410.7</ele>
        <time>2026-03-25T10:55:10Z</time>
      </trkpt>
      <trkpt lat="44.68516" lon="6.86789">
        <ele>2410.7</ele>
        <time>2026-03-25T10:55:11Z</time>
      </trkpt>
      <trkpt lat="44.68516" lon="6.86789">
        <ele>2410.7</ele>
        <time>2026-03-25T10:55:12Z</time>
      </trkpt>
      <trkpt lat="44.68516" lon="6.86789">
        <ele>2410.7</ele>
        <time>2026-03-25T10:55:13Z</time>
      </trkpt>
      <trkpt lat="44.68516" lon="6.86789">
        <ele>2410.7</ele>
        <time>2026-03-25T10:55:14Z</time>
      </trkpt>
      <trkpt lat="44.68516" lon="6.86789">
        <ele>2410.7</ele>
        <time>2026-03-25T10:55:15Z</time>
      </trkpt>
      <trkpt lat="44.68516" lon="6.86789">
        <ele>2410.7</ele>
        <time>2026-03-25T10:55:16Z</time>
      </trkpt>
      <trkpt lat="44.68516" lon="6.86789">
        <ele>2410.7</ele>
        <time>2026-03-25T10:55:17Z</time>
      </trkpt>
      <trkpt lat="44.68516" lon="6.86789">
        <ele>2410.7</ele>
        <time>2026-03-25T10:55:18Z</time>
      </trkpt>
      <trkpt lat="44.68516" lon="6.86789">
        <ele>2410.7</ele>
        <time>2026-03-25T10:55:19Z</time>
      </trkpt>
      <trkpt lat="44.68516" lon="6.86789">
        <ele>2410.7</ele>
        <time>2026-03-25T10:55:20Z</time>
      </trkpt>
      <trkpt lat="44.68516" lon="6.86789">
        <ele>2410.7</ele>
        <time>2026-03-25T10:55:21Z</time>
      </trkpt>
      <trkpt lat="44.68516" lon="6.86789">
        <ele>2410.7</ele>
        <time>2026-03-25T10:55:22Z</time>
      </trkpt>
      <trkpt lat="44.68516" lon="6.86789">
        <ele>2410.7</ele>
        <time>2026-03-25T10:55:23Z</time>
      </trkpt>
      <trkpt lat="44.68516" lon="6.86789">
        <ele>2410.7</ele>
        <time>2026-03-25T10:55:24Z</time>
      </trkpt>
      <trkpt lat="44.68516" lon="6.86789">
        <ele>2410.7</ele>
        <time>2026-03-25T10:55:25Z</time>
      </trkpt>
      <trkpt lat="44.68516" lon="6.86789">
        <ele>2410.7</ele>
        <time>2026-03-25T10:55:26Z</time>
      </trkpt>
      <trkpt lat="44.68516" lon="6.86789">
        <ele>2410.7</ele>
        <time>2026-03-25T10:55:27Z</time>
      </trkpt>
      <trkpt lat="44.68516" lon="6.86789">
        <ele>2410.7</ele>
        <time>2026-03-25T10:55:28Z</time>
      </trkpt>
      <trkpt lat="44.68516" lon="6.86789">
        <ele>2410.7</ele>
        <time>2026-03-25T10:55:29Z</time>
      </trkpt>
      <trkpt lat="44.68516" lon="6.86789">
        <ele>2410.7</ele>
        <time>2026-03-25T10:55:30Z</time>
      </trkpt>
      <trkpt lat="44.68516" lon="6.86789">
        <ele>2409.9</ele>
        <time>2026-03-25T10:55:31Z</time>
      </trkpt>
      <trkpt lat="44.68516" lon="6.86789">
        <ele>2409.9</ele>
        <time>2026-03-25T10:55:32Z</time>
      </trkpt>
      <trkpt lat="44.68516" lon="6.86789">
        <ele>2409.9</ele>
        <time>2026-03-25T10:55:33Z</time>
      </trkpt>
      <trkpt lat="44.68517" lon="6.86789">
        <ele>2409.9</ele>
        <time>2026-03-25T10:55:34Z</time>
      </trkpt>
      <trkpt lat="44.68517" lon="6.86789">
        <ele>2409.9</ele>
        <time>2026-03-25T10:55:35Z</time>
      </trkpt>
      <trkpt lat="44.68517" lon="6.86788">
        <ele>2409.9</ele>
        <time>2026-03-25T10:55:36Z</time>
      </trkpt>
      <trkpt lat="44.68517" lon="6.86788">
        <ele>2409.9</ele>
        <time>2026-03-25T10:55:37Z</time>
      </trkpt>
      <trkpt lat="44.68517" lon="6.86788">
        <ele>2409.9</ele>
        <time>2026-03-25T10:55:38Z</time>
      </trkpt>
      <trkpt lat="44.68517" lon="6.86787">
        <ele>2409.9</ele>
        <time>2026-03-25T10:55:39Z</time>
      </trkpt>
      <trkpt lat="44.68516" lon="6.86787">
        <ele>2409.9</ele>
        <time>2026-03-25T10:55:40Z</time>
      </trkpt>
      <trkpt lat="44.68516" lon="6.86788">
        <ele>2409.9</ele>
        <time>2026-03-25T10:55:41Z</time>
      </trkpt>
      <trkpt lat="44.68516" lon="6.86788">
        <ele>2409.9</ele>
        <time>2026-03-25T10:55:42Z</time>
      </trkpt>
      <trkpt lat="44.68516" lon="6.86788">
        <ele>2409.9</ele>
        <time>2026-03-25T10:55:43Z</time>
      </trkpt>
      <trkpt lat="44.68516" lon="6.86788">
        <ele>2409.9</ele>
        <time>2026-03-25T10:55:44Z</time>
      </trkpt>
      <trkpt lat="44.68516" lon="6.86788">
        <ele>2409.9</ele>
        <time>2026-03-25T10:55:45Z</time>
      </trkpt>
      <trkpt lat="44.68516" lon="6.86788">
        <ele>2409.9</ele>
        <time>2026-03-25T10:55:46Z</time>
      </trkpt>
      <trkpt lat="44.68516" lon="6.86788">
        <ele>2409.9</ele>
        <time>2026-03-25T10:55:47Z</time>
      </trkpt>
      <trkpt lat="44.68516" lon="6.86788">
        <ele>2409.9</ele>
        <time>2026-03-25T10:55:48Z</time>
      </trkpt>
      <trkpt lat="44.68516" lon="6.86788">
        <ele>2409.9</ele>
        <time>2026-03-25T10:55:49Z</time>
      </trkpt>
      <trkpt lat="44.68516" lon="6.86788">
        <ele>2409.9</ele>
        <time>2026-03-25T10:55:50Z</time>
      </trkpt>
      <trkpt lat="44.68516" lon="6.86788">
        <ele>2409.9</ele>
        <time>2026-03-25T10:55:51Z</time>
      </trkpt>
      <trkpt lat="44.68516" lon="6.86788">
        <ele>2409.9</ele>
        <time>2026-03-25T10:55:52Z</time>
      </trkpt>
      <trkpt lat="44.68516" lon="6.86788">
        <ele>2409.9</ele>
        <time>2026-03-25T10:55:53Z</time>
      </trkpt>
      <trkpt lat="44.68516" lon="6.86788">
        <ele>2409.9</ele>
        <time>2026-03-25T10:55:54Z</time>
      </trkpt>
      <trkpt lat="44.68516" lon="6.86788">
        <ele>2409.9</ele>
        <time>2026-03-25T10:55:55Z</time>
      </trkpt>
      <trkpt lat="44.68516" lon="6.86788">
        <ele>2409.9</ele>
        <time>2026-03-25T10:55:56Z</time>
      </trkpt>
      <trkpt lat="44.68516" lon="6.86788">
        <ele>2409.9</ele>
        <time>2026-03-25T10:55:57Z</time>
      </trkpt>
      <trkpt lat="44.68516" lon="6.86788">
        <ele>2409.9</ele>
        <time>2026-03-25T10:55:58Z</time>
      </trkpt>
      <trkpt lat="44.68516" lon="6.86788">
        <ele>2409.9</ele>
        <time>2026-03-25T10:55:59Z</time>
      </trkpt>
      <trkpt lat="44.68516" lon="6.86788">
        <ele>2409.9</ele>
        <time>2026-03-25T10:56:00Z</time>
      </trkpt>
      <trkpt lat="44.68516" lon="6.86788">
        <ele>2409.9</ele>
        <time>2026-03-25T10:56:01Z</time>
      </trkpt>
      <trkpt lat="44.68516" lon="6.86788">
        <ele>2409.9</ele>
        <time>2026-03-25T10:56:02Z</time>
      </trkpt>
      <trkpt lat="44.68516" lon="6.86788">
        <ele>2409.9</ele>
        <time>2026-03-25T10:56:03Z</time>
      </trkpt>
      <trkpt lat="44.68516" lon="6.86788">
        <ele>2409.9</ele>
        <time>2026-03-25T10:56:04Z</time>
      </trkpt>
      <trkpt lat="44.68516" lon="6.86788">
        <ele>2409.9</ele>
        <time>2026-03-25T10:56:05Z</time>
      </trkpt>
      <trkpt lat="44.68516" lon="6.86788">
        <ele>2409.9</ele>
        <time>2026-03-25T10:56:06Z</time>
      </trkpt>
      <trkpt lat="44.68516" lon="6.86788">
        <ele>2409.9</ele>
        <time>2026-03-25T10:56:07Z</time>
      </trkpt>
      <trkpt lat="44.68516" lon="6.86788">
        <ele>2409.9</ele>
        <time>2026-03-25T10:56:08Z</time>
      </trkpt>
      <trkpt lat="44.68516" lon="6.86788">
        <ele>2409.9</ele>
        <time>2026-03-25T10:56:09Z</time>
      </trkpt>
      <trkpt lat="44.68516" lon="6.86788">
        <ele>2409.9</ele>
        <time>2026-03-25T10:56:10Z</time>
      </trkpt>
      <trkpt lat="44.68516" lon="6.86788">
        <ele>2409.9</ele>
        <time>2026-03-25T10:56:11Z</time>
      </trkpt>
      <trkpt lat="44.68516" lon="6.86788">
        <ele>2409.9</ele>
        <time>2026-03-25T10:56:12Z</time>
      </trkpt>
      <trkpt lat="44.68516" lon="6.86788">
        <ele>2409.9</ele>
        <time>2026-03-25T10:56:13Z</time>
      </trkpt>
      <trkpt lat="44.68516" lon="6.86788">
        <ele>2409.9</ele>
        <time>2026-03-25T10:56:14Z</time>
      </trkpt>
      <trkpt lat="44.68516" lon="6.86788">
        <ele>2409.9</ele>
        <time>2026-03-25T10:56:15Z</time>
      </trkpt>
      <trkpt lat="44.68516" lon="6.86788">
        <ele>2409.9</ele>
        <time>2026-03-25T10:56:16Z</time>
      </trkpt>
      <trkpt lat="44.68516" lon="6.86788">
        <ele>2409.9</ele>
        <time>2026-03-25T10:56:17Z</time>
      </trkpt>
      <trkpt lat="44.68516" lon="6.86788">
        <ele>2409.9</ele>
        <time>2026-03-25T10:56:18Z</time>
      </trkpt>
      <trkpt lat="44.68516" lon="6.86788">
        <ele>2409.8</ele>
        <time>2026-03-25T10:56:19Z</time>
      </trkpt>
      <trkpt lat="44.68516" lon="6.86788">
        <ele>2409.8</ele>
        <time>2026-03-25T10:56:20Z</time>
      </trkpt>
      <trkpt lat="44.68516" lon="6.86788">
        <ele>2409.8</ele>
        <time>2026-03-25T10:56:21Z</time>
      </trkpt>
      <trkpt lat="44.68516" lon="6.86788">
        <ele>2409.8</ele>
        <time>2026-03-25T10:56:22Z</time>
      </trkpt>
      <trkpt lat="44.68516" lon="6.86788">
        <ele>2409.8</ele>
        <time>2026-03-25T10:56:23Z</time>
      </trkpt>
      <trkpt lat="44.68516" lon="6.86788">
        <ele>2409.8</ele>
        <time>2026-03-25T10:56:24Z</time>
      </trkpt>
      <trkpt lat="44.68516" lon="6.86788">
        <ele>2409.8</ele>
        <time>2026-03-25T10:56:25Z</time>
      </trkpt>
      <trkpt lat="44.68516" lon="6.86788">
        <ele>2409.8</ele>
        <time>2026-03-25T10:56:26Z</time>
      </trkpt>
      <trkpt lat="44.68516" lon="6.86788">
        <ele>2409.8</ele>
        <time>2026-03-25T10:56:27Z</time>
      </trkpt>
      <trkpt lat="44.68516" lon="6.86788">
        <ele>2409.8</ele>
        <time>2026-03-25T10:56:28Z</time>
      </trkpt>
      <trkpt lat="44.68516" lon="6.86788">
        <ele>2409.8</ele>
        <time>2026-03-25T10:56:29Z</time>
      </trkpt>
      <trkpt lat="44.68516" lon="6.86788">
        <ele>2409.8</ele>
        <time>2026-03-25T10:56:30Z</time>
      </trkpt>
      <trkpt lat="44.68516" lon="6.86788">
        <ele>2409.8</ele>
        <time>2026-03-25T10:56:31Z</time>
      </trkpt>
      <trkpt lat="44.68516" lon="6.86788">
        <ele>2409.8</ele>
        <time>2026-03-25T10:56:32Z</time>
      </trkpt>
      <trkpt lat="44.68516" lon="6.86788">
        <ele>2409.8</ele>
        <time>2026-03-25T10:56:33Z</time>
      </trkpt>
      <trkpt lat="44.68516" lon="6.86788">
        <ele>2409.8</ele>
        <time>2026-03-25T10:56:34Z</time>
      </trkpt>
      <trkpt lat="44.68516" lon="6.86788">
        <ele>2409.8</ele>
        <time>2026-03-25T10:56:35Z</time>
      </trkpt>
      <trkpt lat="44.68516" lon="6.86788">
        <ele>2409.8</ele>
        <time>2026-03-25T10:56:36Z</time>
      </trkpt>
      <trkpt lat="44.68516" lon="6.86788">
        <ele>2409.8</ele>
        <time>2026-03-25T10:56:37Z</time>
      </trkpt>
      <trkpt lat="44.68516" lon="6.86788">
        <ele>2409.8</ele>
        <time>2026-03-25T10:56:38Z</time>
      </trkpt>
      <trkpt lat="44.68516" lon="6.86788">
        <ele>2409.8</ele>
        <time>2026-03-25T10:56:39Z</time>
      </trkpt>
      <trkpt lat="44.68516" lon="6.86788">
        <ele>2409.8</ele>
        <time>2026-03-25T10:56:40Z</time>
      </trkpt>
      <trkpt lat="44.68516" lon="6.86788">
        <ele>2409.8</ele>
        <time>2026-03-25T10:56:41Z</time>
      </trkpt>
      <trkpt lat="44.68516" lon="6.86788">
        <ele>2409.8</ele>
        <time>2026-03-25T10:56:42Z</time>
      </trkpt>
      <trkpt lat="44.68516" lon="6.86788">
        <ele>2409.8</ele>
        <time>2026-03-25T10:56:43Z</time>
      </trkpt>
      <trkpt lat="44.68516" lon="6.86788">
        <ele>2409.8</ele>
        <time>2026-03-25T10:56:44Z</time>
      </trkpt>
      <trkpt lat="44.68516" lon="6.86788">
        <ele>2409.8</ele>
        <time>2026-03-25T10:56:45Z</time>
      </trkpt>
      <trkpt lat="44.68516" lon="6.86788">
        <ele>2409.8</ele>
        <time>2026-03-25T10:56:46Z</time>
      </trkpt>
      <trkpt lat="44.68516" lon="6.86788">
        <ele>2409.8</ele>
        <time>2026-03-25T10:56:47Z</time>
      </trkpt>
      <trkpt lat="44.68516" lon="6.86788">
        <ele>2409.8</ele>
        <time>2026-03-25T10:56:48Z</time>
      </trkpt>
      <trkpt lat="44.68516" lon="6.86788">
        <ele>2409.8</ele>
        <time>2026-03-25T10:56:49Z</time>
      </trkpt>
      <trkpt lat="44.68516" lon="6.86788">
        <ele>2409.8</ele>
        <time>2026-03-25T10:56:50Z</time>
      </trkpt>
      <trkpt lat="44.68516" lon="6.86788">
        <ele>2409.8</ele>
        <time>2026-03-25T10:56:51Z</time>
      </trkpt>
      <trkpt lat="44.68516" lon="6.86788">
        <ele>2409.8</ele>
        <time>2026-03-25T10:56:52Z</time>
      </trkpt>
      <trkpt lat="44.68516" lon="6.86788">
        <ele>2409.8</ele>
        <time>2026-03-25T10:56:53Z</time>
      </trkpt>
      <trkpt lat="44.68516" lon="6.86788">
        <ele>2409.8</ele>
        <time>2026-03-25T10:56:54Z</time>
      </trkpt>
      <trkpt lat="44.68516" lon="6.86788">
        <ele>2409.8</ele>
        <time>2026-03-25T10:56:55Z</time>
      </trkpt>
      <trkpt lat="44.68516" lon="6.86788">
        <ele>2409.8</ele>
        <time>2026-03-25T10:56:56Z</time>
      </trkpt>
      <trkpt lat="44.68516" lon="6.86788">
        <ele>2409.8</ele>
        <time>2026-03-25T10:56:57Z</time>
      </trkpt>
      <trkpt lat="44.68516" lon="6.86788">
        <ele>2409.8</ele>
        <time>2026-03-25T10:56:58Z</time>
      </trkpt>
      <trkpt lat="44.68516" lon="6.86788">
        <ele>2409.8</ele>
        <time>2026-03-25T10:56:59Z</time>
      </trkpt>
      <trkpt lat="44.68516" lon="6.86788">
        <ele>2409.8</ele>
        <time>2026-03-25T10:57:00Z</time>
      </trkpt>
      <trkpt lat="44.68516" lon="6.86788">
        <ele>2409.8</ele>
        <time>2026-03-25T10:57:01Z</time>
      </trkpt>
      <trkpt lat="44.68516" lon="6.86788">
        <ele>2409.8</ele>
        <time>2026-03-25T10:57:02Z</time>
      </trkpt>
      <trkpt lat="44.68516" lon="6.86788">
        <ele>2409.8</ele>
        <time>2026-03-25T10:57:03Z</time>
      </trkpt>
      <trkpt lat="44.68516" lon="6.86788">
        <ele>2409.8</ele>
        <time>2026-03-25T10:57:04Z</time>
      </trkpt>
      <trkpt lat="44.68516" lon="6.86788">
        <ele>2409.8</ele>
        <time>2026-03-25T10:57:05Z</time>
      </trkpt>
      <trkpt lat="44.68516" lon="6.86788">
        <ele>2409.8</ele>
        <time>2026-03-25T10:57:06Z</time>
      </trkpt>
      <trkpt lat="44.68516" lon="6.86788">
        <ele>2409.8</ele>
        <time>2026-03-25T10:57:07Z</time>
      </trkpt>
      <trkpt lat="44.68516" lon="6.86788">
        <ele>2409.8</ele>
        <time>2026-03-25T10:57:08Z</time>
      </trkpt>
      <trkpt lat="44.68516" lon="6.86788">
        <ele>2409.8</ele>
        <time>2026-03-25T10:57:09Z</time>
      </trkpt>
      <trkpt lat="44.68516" lon="6.86788">
        <ele>2409.8</ele>
        <time>2026-03-25T10:57:10Z</time>
      </trkpt>
      <trkpt lat="44.68516" lon="6.86788">
        <ele>2409.8</ele>
        <time>2026-03-25T10:57:11Z</time>
      </trkpt>
      <trkpt lat="44.68516" lon="6.86788">
        <ele>2409.8</ele>
        <time>2026-03-25T10:57:12Z</time>
      </trkpt>
      <trkpt lat="44.68516" lon="6.86788">
        <ele>2409.8</ele>
        <time>2026-03-25T10:57:13Z</time>
      </trkpt>
      <trkpt lat="44.68516" lon="6.86788">
        <ele>2409.8</ele>
        <time>2026-03-25T10:57:14Z</time>
      </trkpt>
      <trkpt lat="44.68516" lon="6.86788">
        <ele>2409.8</ele>
        <time>2026-03-25T10:57:15Z</time>
      </trkpt>
      <trkpt lat="44.68516" lon="6.86788">
        <ele>2409.8</ele>
        <time>2026-03-25T10:57:16Z</time>
      </trkpt>
      <trkpt lat="44.68516" lon="6.86788">
        <ele>2409.8</ele>
        <time>2026-03-25T10:57:17Z</time>
      </trkpt>
      <trkpt lat="44.68516" lon="6.86788">
        <ele>2409.8</ele>
        <time>2026-03-25T10:57:18Z</time>
      </trkpt>
      <trkpt lat="44.68516" lon="6.86788">
        <ele>2409.8</ele>
        <time>2026-03-25T10:57:19Z</time>
      </trkpt>
      <trkpt lat="44.68516" lon="6.86788">
        <ele>2409.8</ele>
        <time>2026-03-25T10:57:20Z</time>
      </trkpt>
      <trkpt lat="44.68516" lon="6.86788">
        <ele>2409.8</ele>
        <time>2026-03-25T10:57:21Z</time>
      </trkpt>
      <trkpt lat="44.68516" lon="6.86788">
        <ele>2410.6</ele>
        <time>2026-03-25T10:57:22Z</time>
      </trkpt>
      <trkpt lat="44.68516" lon="6.86788">
        <ele>2410.6</ele>
        <time>2026-03-25T10:57:23Z</time>
      </trkpt>
      <trkpt lat="44.68516" lon="6.86788">
        <ele>2410.6</ele>
        <time>2026-03-25T10:57:24Z</time>
      </trkpt>
      <trkpt lat="44.68516" lon="6.86788">
        <ele>2410.5</ele>
        <time>2026-03-25T10:57:25Z</time>
      </trkpt>
      <trkpt lat="44.68516" lon="6.86788">
        <ele>2410.5</ele>
        <time>2026-03-25T10:57:26Z</time>
      </trkpt>
      <trkpt lat="44.68516" lon="6.86787">
        <ele>2410.5</ele>
        <time>2026-03-25T10:57:27Z</time>
      </trkpt>
      <trkpt lat="44.68516" lon="6.86787">
        <ele>2410.5</ele>
        <time>2026-03-25T10:57:28Z</time>
      </trkpt>
      <trkpt lat="44.68516" lon="6.86787">
        <ele>2410.5</ele>
        <time>2026-03-25T10:57:29Z</time>
      </trkpt>
      <trkpt lat="44.68516" lon="6.86787">
        <ele>2410.4</ele>
        <time>2026-03-25T10:57:30Z</time>
      </trkpt>
      <trkpt lat="44.68516" lon="6.86787">
        <ele>2410.4</ele>
        <time>2026-03-25T10:57:31Z</time>
      </trkpt>
      <trkpt lat="44.68516" lon="6.86787">
        <ele>2410.4</ele>
        <time>2026-03-25T10:57:32Z</time>
      </trkpt>
      <trkpt lat="44.68516" lon="6.86787">
        <ele>2410.4</ele>
        <time>2026-03-25T10:57:33Z</time>
      </trkpt>
      <trkpt lat="44.68516" lon="6.86787">
        <ele>2410.4</ele>
        <time>2026-03-25T10:57:34Z</time>
      </trkpt>
      <trkpt lat="44.68516" lon="6.86787">
        <ele>2410.4</ele>
        <time>2026-03-25T10:57:35Z</time>
      </trkpt>
      <trkpt lat="44.68516" lon="6.86787">
        <ele>2410.4</ele>
        <time>2026-03-25T10:57:36Z</time>
      </trkpt>
      <trkpt lat="44.68516" lon="6.86787">
        <ele>2410.4</ele>
        <time>2026-03-25T10:57:37Z</time>
      </trkpt>
      <trkpt lat="44.68516" lon="6.86787">
        <ele>2410.4</ele>
        <time>2026-03-25T10:57:38Z</time>
      </trkpt>
      <trkpt lat="44.68516" lon="6.86787">
        <ele>2410.4</ele>
        <time>2026-03-25T10:57:39Z</time>
      </trkpt>
      <trkpt lat="44.68516" lon="6.86787">
        <ele>2410.4</ele>
        <time>2026-03-25T10:57:40Z</time>
      </trkpt>
      <trkpt lat="44.68517" lon="6.86787">
        <ele>2410.4</ele>
        <time>2026-03-25T10:57:41Z</time>
      </trkpt>
      <trkpt lat="44.68517" lon="6.86787">
        <ele>2410.4</ele>
        <time>2026-03-25T10:57:42Z</time>
      </trkpt>
      <trkpt lat="44.68517" lon="6.86787">
        <ele>2410.4</ele>
        <time>2026-03-25T10:57:43Z</time>
      </trkpt>
      <trkpt lat="44.68517" lon="6.86787">
        <ele>2410.4</ele>
        <time>2026-03-25T10:57:44Z</time>
      </trkpt>
      <trkpt lat="44.68517" lon="6.86787">
        <ele>2410.4</ele>
        <time>2026-03-25T10:57:45Z</time>
      </trkpt>
      <trkpt lat="44.68517" lon="6.86787">
        <ele>2410.4</ele>
        <time>2026-03-25T10:57:46Z</time>
      </trkpt>
      <trkpt lat="44.68517" lon="6.86787">
        <ele>2410.4</ele>
        <time>2026-03-25T10:57:47Z</time>
      </trkpt>
      <trkpt lat="44.68517" lon="6.86787">
        <ele>2410.4</ele>
        <time>2026-03-25T10:57:48Z</time>
      </trkpt>
      <trkpt lat="44.68517" lon="6.86787">
        <ele>2410.4</ele>
        <time>2026-03-25T10:57:49Z</time>
      </trkpt>
      <trkpt lat="44.68517" lon="6.86787">
        <ele>2410.4</ele>
        <time>2026-03-25T10:57:50Z</time>
      </trkpt>
      <trkpt lat="44.68517" lon="6.86787">
        <ele>2410.4</ele>
        <time>2026-03-25T10:57:51Z</time>
      </trkpt>
      <trkpt lat="44.68517" lon="6.86787">
        <ele>2410.4</ele>
        <time>2026-03-25T10:57:52Z</time>
      </trkpt>
      <trkpt lat="44.68517" lon="6.86787">
        <ele>2410.4</ele>
        <time>2026-03-25T10:57:53Z</time>
      </trkpt>
      <trkpt lat="44.68517" lon="6.86787">
        <ele>2410.4</ele>
        <time>2026-03-25T10:57:54Z</time>
      </trkpt>
      <trkpt lat="44.68517" lon="6.86787">
        <ele>2410.4</ele>
        <time>2026-03-25T10:57:55Z</time>
      </trkpt>
      <trkpt lat="44.68517" lon="6.86787">
        <ele>2410.4</ele>
        <time>2026-03-25T10:57:56Z</time>
      </trkpt>
      <trkpt lat="44.68517" lon="6.86787">
        <ele>2410.4</ele>
        <time>2026-03-25T10:57:57Z</time>
      </trkpt>
      <trkpt lat="44.68517" lon="6.86787">
        <ele>2410.4</ele>
        <time>2026-03-25T10:57:58Z</time>
      </trkpt>
      <trkpt lat="44.68517" lon="6.86787">
        <ele>2410.4</ele>
        <time>2026-03-25T10:57:59Z</time>
      </trkpt>
      <trkpt lat="44.68517" lon="6.86787">
        <ele>2410.4</ele>
        <time>2026-03-25T10:58:00Z</time>
      </trkpt>
      <trkpt lat="44.68517" lon="6.86787">
        <ele>2410.4</ele>
        <time>2026-03-25T10:58:01Z</time>
      </trkpt>
      <trkpt lat="44.68517" lon="6.86787">
        <ele>2410.4</ele>
        <time>2026-03-25T10:58:02Z</time>
      </trkpt>
      <trkpt lat="44.68517" lon="6.86787">
        <ele>2410.4</ele>
        <time>2026-03-25T10:58:03Z</time>
      </trkpt>
      <trkpt lat="44.68517" lon="6.86787">
        <ele>2410.4</ele>
        <time>2026-03-25T10:58:04Z</time>
      </trkpt>
      <trkpt lat="44.68517" lon="6.86787">
        <ele>2410.4</ele>
        <time>2026-03-25T10:58:05Z</time>
      </trkpt>
      <trkpt lat="44.68517" lon="6.86787">
        <ele>2410.4</ele>
        <time>2026-03-25T10:58:06Z</time>
      </trkpt>
      <trkpt lat="44.68517" lon="6.86787">
        <ele>2410.4</ele>
        <time>2026-03-25T10:58:07Z</time>
      </trkpt>
      <trkpt lat="44.68517" lon="6.86787">
        <ele>2410.4</ele>
        <time>2026-03-25T10:58:08Z</time>
      </trkpt>
      <trkpt lat="44.68517" lon="6.86787">
        <ele>2410.4</ele>
        <time>2026-03-25T10:58:09Z</time>
      </trkpt>
      <trkpt lat="44.68517" lon="6.86787">
        <ele>2410.4</ele>
        <time>2026-03-25T10:58:10Z</time>
      </trkpt>
      <trkpt lat="44.68517" lon="6.86787">
        <ele>2410.4</ele>
        <time>2026-03-25T10:58:11Z</time>
      </trkpt>
      <trkpt lat="44.68517" lon="6.86787">
        <ele>2410.4</ele>
        <time>2026-03-25T10:58:12Z</time>
      </trkpt>
      <trkpt lat="44.68517" lon="6.86787">
        <ele>2410.4</ele>
        <time>2026-03-25T10:58:13Z</time>
      </trkpt>
      <trkpt lat="44.68517" lon="6.86787">
        <ele>2410.4</ele>
        <time>2026-03-25T10:58:14Z</time>
      </trkpt>
      <trkpt lat="44.68517" lon="6.86787">
        <ele>2410.4</ele>
        <time>2026-03-25T10:58:15Z</time>
      </trkpt>
      <trkpt lat="44.68517" lon="6.86787">
        <ele>2410.4</ele>
        <time>2026-03-25T10:58:16Z</time>
      </trkpt>
      <trkpt lat="44.68517" lon="6.86787">
        <ele>2410.4</ele>
        <time>2026-03-25T10:58:17Z</time>
      </trkpt>
      <trkpt lat="44.68517" lon="6.86787">
        <ele>2410.4</ele>
        <time>2026-03-25T10:58:18Z</time>
      </trkpt>
      <trkpt lat="44.68517" lon="6.86787">
        <ele>2410.4</ele>
        <time>2026-03-25T10:58:19Z</time>
      </trkpt>
      <trkpt lat="44.68517" lon="6.86787">
        <ele>2410.4</ele>
        <time>2026-03-25T10:58:20Z</time>
      </trkpt>
      <trkpt lat="44.68517" lon="6.86787">
        <ele>2410.4</ele>
        <time>2026-03-25T10:58:21Z</time>
      </trkpt>
      <trkpt lat="44.68517" lon="6.86787">
        <ele>2410.4</ele>
        <time>2026-03-25T10:58:22Z</time>
      </trkpt>
      <trkpt lat="44.68517" lon="6.86787">
        <ele>2410.4</ele>
        <time>2026-03-25T10:58:23Z</time>
      </trkpt>
      <trkpt lat="44.68517" lon="6.86787">
        <ele>2410.4</ele>
        <time>2026-03-25T10:58:24Z</time>
      </trkpt>
      <trkpt lat="44.68517" lon="6.86787">
        <ele>2410.4</ele>
        <time>2026-03-25T10:58:25Z</time>
      </trkpt>
      <trkpt lat="44.68517" lon="6.86787">
        <ele>2410.4</ele>
        <time>2026-03-25T10:58:26Z</time>
      </trkpt>
      <trkpt lat="44.68517" lon="6.86787">
        <ele>2410.4</ele>
        <time>2026-03-25T10:58:27Z</time>
      </trkpt>
      <trkpt lat="44.68517" lon="6.86787">
        <ele>2410.4</ele>
        <time>2026-03-25T10:58:28Z</time>
      </trkpt>
      <trkpt lat="44.68517" lon="6.86787">
        <ele>2410.4</ele>
        <time>2026-03-25T10:58:29Z</time>
      </trkpt>
      <trkpt lat="44.68517" lon="6.86787">
        <ele>2410.3</ele>
        <time>2026-03-25T10:58:30Z</time>
      </trkpt>
      <trkpt lat="44.68517" lon="6.86786">
        <ele>2410.3</ele>
        <time>2026-03-25T10:58:31Z</time>
      </trkpt>
      <trkpt lat="44.68517" lon="6.86786">
        <ele>2410.3</ele>
        <time>2026-03-25T10:58:32Z</time>
      </trkpt>
      <trkpt lat="44.68517" lon="6.86786">
        <ele>2410.3</ele>
        <time>2026-03-25T10:58:33Z</time>
      </trkpt>
      <trkpt lat="44.68517" lon="6.86786">
        <ele>2410.3</ele>
        <time>2026-03-25T10:58:34Z</time>
      </trkpt>
      <trkpt lat="44.68517" lon="6.86786">
        <ele>2410.3</ele>
        <time>2026-03-25T10:58:35Z</time>
      </trkpt>
      <trkpt lat="44.68517" lon="6.86786">
        <ele>2410.3</ele>
        <time>2026-03-25T10:58:36Z</time>
      </trkpt>
      <trkpt lat="44.68517" lon="6.86786">
        <ele>2410.3</ele>
        <time>2026-03-25T10:58:37Z</time>
      </trkpt>
      <trkpt lat="44.68517" lon="6.86786">
        <ele>2410.3</ele>
        <time>2026-03-25T10:58:38Z</time>
      </trkpt>
      <trkpt lat="44.68517" lon="6.86786">
        <ele>2410.3</ele>
        <time>2026-03-25T10:58:39Z</time>
      </trkpt>
      <trkpt lat="44.68517" lon="6.86786">
        <ele>2410.3</ele>
        <time>2026-03-25T10:58:40Z</time>
      </trkpt>
      <trkpt lat="44.68517" lon="6.86786">
        <ele>2410.3</ele>
        <time>2026-03-25T10:58:41Z</time>
      </trkpt>
      <trkpt lat="44.68517" lon="6.86786">
        <ele>2410.3</ele>
        <time>2026-03-25T10:58:42Z</time>
      </trkpt>
      <trkpt lat="44.68517" lon="6.86786">
        <ele>2410.3</ele>
        <time>2026-03-25T10:58:43Z</time>
      </trkpt>
      <trkpt lat="44.68517" lon="6.86786">
        <ele>2410.3</ele>
        <time>2026-03-25T10:58:44Z</time>
      </trkpt>
      <trkpt lat="44.68517" lon="6.86786">
        <ele>2410.3</ele>
        <time>2026-03-25T10:58:45Z</time>
      </trkpt>
      <trkpt lat="44.68517" lon="6.86786">
        <ele>2410.3</ele>
        <time>2026-03-25T10:58:46Z</time>
      </trkpt>
      <trkpt lat="44.68517" lon="6.86786">
        <ele>2410.3</ele>
        <time>2026-03-25T10:58:47Z</time>
      </trkpt>
      <trkpt lat="44.68517" lon="6.86786">
        <ele>2410.3</ele>
        <time>2026-03-25T10:58:48Z</time>
      </trkpt>
      <trkpt lat="44.68517" lon="6.86786">
        <ele>2410.3</ele>
        <time>2026-03-25T10:58:49Z</time>
      </trkpt>
      <trkpt lat="44.68516" lon="6.86786">
        <ele>2410.3</ele>
        <time>2026-03-25T10:58:50Z</time>
      </trkpt>
      <trkpt lat="44.68516" lon="6.86786">
        <ele>2410.3</ele>
        <time>2026-03-25T10:58:51Z</time>
      </trkpt>
      <trkpt lat="44.68516" lon="6.86786">
        <ele>2410.3</ele>
        <time>2026-03-25T10:58:52Z</time>
      </trkpt>
      <trkpt lat="44.68516" lon="6.86786">
        <ele>2410.3</ele>
        <time>2026-03-25T10:58:53Z</time>
      </trkpt>
      <trkpt lat="44.68516" lon="6.86786">
        <ele>2410.3</ele>
        <time>2026-03-25T10:58:54Z</time>
      </trkpt>
      <trkpt lat="44.68516" lon="6.86786">
        <ele>2410.3</ele>
        <time>2026-03-25T10:58:55Z</time>
      </trkpt>
      <trkpt lat="44.68516" lon="6.86786">
        <ele>2410.3</ele>
        <time>2026-03-25T10:58:56Z</time>
      </trkpt>
      <trkpt lat="44.68516" lon="6.86786">
        <ele>2410.3</ele>
        <time>2026-03-25T10:58:57Z</time>
      </trkpt>
      <trkpt lat="44.68516" lon="6.86786">
        <ele>2410.3</ele>
        <time>2026-03-25T10:58:58Z</time>
      </trkpt>
      <trkpt lat="44.68516" lon="6.86786">
        <ele>2410.3</ele>
        <time>2026-03-25T10:58:59Z</time>
      </trkpt>
      <trkpt lat="44.68516" lon="6.86786">
        <ele>2410.3</ele>
        <time>2026-03-25T10:59:00Z</time>
      </trkpt>
      <trkpt lat="44.68516" lon="6.86786">
        <ele>2410.3</ele>
        <time>2026-03-25T10:59:01Z</time>
      </trkpt>
      <trkpt lat="44.68516" lon="6.86786">
        <ele>2410.3</ele>
        <time>2026-03-25T10:59:02Z</time>
      </trkpt>
      <trkpt lat="44.68516" lon="6.86786">
        <ele>2410.3</ele>
        <time>2026-03-25T10:59:03Z</time>
      </trkpt>
      <trkpt lat="44.68516" lon="6.86786">
        <ele>2410.3</ele>
        <time>2026-03-25T10:59:04Z</time>
      </trkpt>
      <trkpt lat="44.68517" lon="6.86786">
        <ele>2410.3</ele>
        <time>2026-03-25T10:59:05Z</time>
      </trkpt>
      <trkpt lat="44.68517" lon="6.86786">
        <ele>2410.3</ele>
        <time>2026-03-25T10:59:06Z</time>
      </trkpt>
      <trkpt lat="44.68516" lon="6.86786">
        <ele>2410.3</ele>
        <time>2026-03-25T10:59:07Z</time>
      </trkpt>
      <trkpt lat="44.68516" lon="6.86786">
        <ele>2411.1</ele>
        <time>2026-03-25T10:59:08Z</time>
      </trkpt>
      <trkpt lat="44.68516" lon="6.86786">
        <ele>2411.1</ele>
        <time>2026-03-25T10:59:09Z</time>
      </trkpt>
      <trkpt lat="44.68516" lon="6.86785">
        <ele>2411.1</ele>
        <time>2026-03-25T10:59:10Z</time>
      </trkpt>
      <trkpt lat="44.68516" lon="6.86785">
        <ele>2411.1</ele>
        <time>2026-03-25T10:59:11Z</time>
      </trkpt>
      <trkpt lat="44.68516" lon="6.86785">
        <ele>2411.1</ele>
        <time>2026-03-25T10:59:12Z</time>
      </trkpt>
      <trkpt lat="44.68516" lon="6.86785">
        <ele>2411.1</ele>
        <time>2026-03-25T10:59:13Z</time>
      </trkpt>
      <trkpt lat="44.68516" lon="6.86785">
        <ele>2411.1</ele>
        <time>2026-03-25T10:59:14Z</time>
      </trkpt>
      <trkpt lat="44.68516" lon="6.86785">
        <ele>2411.1</ele>
        <time>2026-03-25T10:59:15Z</time>
      </trkpt>
      <trkpt lat="44.68516" lon="6.86785">
        <ele>2411.1</ele>
        <time>2026-03-25T10:59:16Z</time>
      </trkpt>
      <trkpt lat="44.68516" lon="6.86785">
        <ele>2411.1</ele>
        <time>2026-03-25T10:59:17Z</time>
      </trkpt>
      <trkpt lat="44.68516" lon="6.86785">
        <ele>2411.1</ele>
        <time>2026-03-25T10:59:18Z</time>
      </trkpt>
      <trkpt lat="44.68516" lon="6.86785">
        <ele>2411.1</ele>
        <time>2026-03-25T10:59:19Z</time>
      </trkpt>
      <trkpt lat="44.68516" lon="6.86785">
        <ele>2411.1</ele>
        <time>2026-03-25T10:59:20Z</time>
      </trkpt>
      <trkpt lat="44.68516" lon="6.86784">
        <ele>2411.1</ele>
        <time>2026-03-25T10:59:21Z</time>
      </trkpt>
      <trkpt lat="44.68516" lon="6.86784">
        <ele>2411.1</ele>
        <time>2026-03-25T10:59:22Z</time>
      </trkpt>
      <trkpt lat="44.68516" lon="6.86784">
        <ele>2411.1</ele>
        <time>2026-03-25T10:59:23Z</time>
      </trkpt>
      <trkpt lat="44.68516" lon="6.86784">
        <ele>2411.1</ele>
        <time>2026-03-25T10:59:24Z</time>
      </trkpt>
      <trkpt lat="44.68516" lon="6.86784">
        <ele>2411.1</ele>
        <time>2026-03-25T10:59:25Z</time>
      </trkpt>
      <trkpt lat="44.68516" lon="6.86784">
        <ele>2411.1</ele>
        <time>2026-03-25T10:59:26Z</time>
      </trkpt>
      <trkpt lat="44.68516" lon="6.86784">
        <ele>2411.1</ele>
        <time>2026-03-25T10:59:27Z</time>
      </trkpt>
      <trkpt lat="44.68516" lon="6.86784">
        <ele>2411.1</ele>
        <time>2026-03-25T10:59:28Z</time>
      </trkpt>
      <trkpt lat="44.68516" lon="6.86784">
        <ele>2411.1</ele>
        <time>2026-03-25T10:59:29Z</time>
      </trkpt>
      <trkpt lat="44.68516" lon="6.86784">
        <ele>2411.1</ele>
        <time>2026-03-25T10:59:30Z</time>
      </trkpt>
      <trkpt lat="44.68516" lon="6.86785">
        <ele>2411.1</ele>
        <time>2026-03-25T10:59:31Z</time>
      </trkpt>
      <trkpt lat="44.68516" lon="6.86785">
        <ele>2411</ele>
        <time>2026-03-25T10:59:32Z</time>
      </trkpt>
      <trkpt lat="44.68516" lon="6.86785">
        <ele>2411</ele>
        <time>2026-03-25T10:59:33Z</time>
      </trkpt>
      <trkpt lat="44.68516" lon="6.86785">
        <ele>2411</ele>
        <time>2026-03-25T10:59:34Z</time>
      </trkpt>
      <trkpt lat="44.68516" lon="6.86785">
        <ele>2411</ele>
        <time>2026-03-25T10:59:35Z</time>
      </trkpt>
      <trkpt lat="44.68516" lon="6.86785">
        <ele>2411</ele>
        <time>2026-03-25T10:59:36Z</time>
      </trkpt>
      <trkpt lat="44.68516" lon="6.86785">
        <ele>2411</ele>
        <time>2026-03-25T10:59:37Z</time>
      </trkpt>
      <trkpt lat="44.68516" lon="6.86785">
        <ele>2411</ele>
        <time>2026-03-25T10:59:38Z</time>
      </trkpt>
      <trkpt lat="44.68516" lon="6.86785">
        <ele>2411</ele>
        <time>2026-03-25T10:59:39Z</time>
      </trkpt>
      <trkpt lat="44.68516" lon="6.86784">
        <ele>2411</ele>
        <time>2026-03-25T10:59:40Z</time>
      </trkpt>
      <trkpt lat="44.68516" lon="6.86784">
        <ele>2411</ele>
        <time>2026-03-25T10:59:41Z</time>
      </trkpt>
      <trkpt lat="44.68516" lon="6.86783">
        <ele>2411.7</ele>
        <time>2026-03-25T10:59:42Z</time>
      </trkpt>
      <trkpt lat="44.68516" lon="6.86781">
        <ele>2411.7</ele>
        <time>2026-03-25T10:59:43Z</time>
      </trkpt>
      <trkpt lat="44.68516" lon="6.8678">
        <ele>2411.7</ele>
        <time>2026-03-25T10:59:44Z</time>
      </trkpt>
      <trkpt lat="44.68516" lon="6.86779">
        <ele>2411.7</ele>
        <time>2026-03-25T10:59:45Z</time>
      </trkpt>
      <trkpt lat="44.68516" lon="6.86777">
        <ele>2412.2</ele>
        <time>2026-03-25T10:59:46Z</time>
      </trkpt>
      <trkpt lat="44.68516" lon="6.86776">
        <ele>2412.2</ele>
        <time>2026-03-25T10:59:47Z</time>
      </trkpt>
      <trkpt lat="44.68516" lon="6.86775">
        <ele>2412.2</ele>
        <time>2026-03-25T10:59:48Z</time>
      </trkpt>
      <trkpt lat="44.68516" lon="6.86774">
        <ele>2412.8</ele>
        <time>2026-03-25T10:59:49Z</time>
      </trkpt>
      <trkpt lat="44.68516" lon="6.86772">
        <ele>2412.8</ele>
        <time>2026-03-25T10:59:50Z</time>
      </trkpt>
      <trkpt lat="44.68516" lon="6.86771">
        <ele>2412.8</ele>
        <time>2026-03-25T10:59:51Z</time>
      </trkpt>
      <trkpt lat="44.68516" lon="6.8677">
        <ele>2413.3</ele>
        <time>2026-03-25T10:59:52Z</time>
      </trkpt>
      <trkpt lat="44.68516" lon="6.86768">
        <ele>2413.3</ele>
        <time>2026-03-25T10:59:53Z</time>
      </trkpt>
      <trkpt lat="44.68516" lon="6.86767">
        <ele>2413.3</ele>
        <time>2026-03-25T10:59:54Z</time>
      </trkpt>
      <trkpt lat="44.68516" lon="6.86766">
        <ele>2412.5</ele>
        <time>2026-03-25T10:59:55Z</time>
      </trkpt>
      <trkpt lat="44.68517" lon="6.86765">
        <ele>2412.9</ele>
        <time>2026-03-25T10:59:56Z</time>
      </trkpt>
      <trkpt lat="44.68517" lon="6.86763">
        <ele>2412.9</ele>
        <time>2026-03-25T10:59:57Z</time>
      </trkpt>
      <trkpt lat="44.68517" lon="6.86762">
        <ele>2412.9</ele>
        <time>2026-03-25T10:59:58Z</time>
      </trkpt>
      <trkpt lat="44.68517" lon="6.86761">
        <ele>2413.4</ele>
        <time>2026-03-25T10:59:59Z</time>
      </trkpt>
      <trkpt lat="44.68517" lon="6.8676">
        <ele>2413.4</ele>
        <time>2026-03-25T11:00:00Z</time>
      </trkpt>
      <trkpt lat="44.68518" lon="6.86759">
        <ele>2413.4</ele>
        <time>2026-03-25T11:00:01Z</time>
      </trkpt>
      <trkpt lat="44.68517" lon="6.86758">
        <ele>2413.4</ele>
        <time>2026-03-25T11:00:02Z</time>
      </trkpt>
      <trkpt lat="44.68517" lon="6.86757">
        <ele>2413.8</ele>
        <time>2026-03-25T11:00:03Z</time>
      </trkpt>
      <trkpt lat="44.68517" lon="6.86756">
        <ele>2413.8</ele>
        <time>2026-03-25T11:00:04Z</time>
      </trkpt>
      <trkpt lat="44.68517" lon="6.86755">
        <ele>2413.8</ele>
        <time>2026-03-25T11:00:05Z</time>
      </trkpt>
      <trkpt lat="44.68517" lon="6.86753">
        <ele>2413.8</ele>
        <time>2026-03-25T11:00:06Z</time>
      </trkpt>
      <trkpt lat="44.68517" lon="6.86752">
        <ele>2414.2</ele>
        <time>2026-03-25T11:00:07Z</time>
      </trkpt>
      <trkpt lat="44.68517" lon="6.86751">
        <ele>2414.2</ele>
        <time>2026-03-25T11:00:08Z</time>
      </trkpt>
      <trkpt lat="44.68517" lon="6.8675">
        <ele>2414.2</ele>
        <time>2026-03-25T11:00:09Z</time>
      </trkpt>
      <trkpt lat="44.68517" lon="6.86749">
        <ele>2414.2</ele>
        <time>2026-03-25T11:00:10Z</time>
      </trkpt>
      <trkpt lat="44.68516" lon="6.86748">
        <ele>2415.3</ele>
        <time>2026-03-25T11:00:11Z</time>
      </trkpt>
      <trkpt lat="44.68515" lon="6.86746">
        <ele>2415.3</ele>
        <time>2026-03-25T11:00:12Z</time>
      </trkpt>
      <trkpt lat="44.68515" lon="6.86744">
        <ele>2415.3</ele>
        <time>2026-03-25T11:00:14Z</time>
      </trkpt>
      <trkpt lat="44.68514" lon="6.86744">
        <ele>2415.6</ele>
        <time>2026-03-25T11:00:15Z</time>
      </trkpt>
      <trkpt lat="44.68514" lon="6.86743">
        <ele>2415.6</ele>
        <time>2026-03-25T11:00:16Z</time>
      </trkpt>
      <trkpt lat="44.68513" lon="6.86742">
        <ele>2415.6</ele>
        <time>2026-03-25T11:00:17Z</time>
      </trkpt>
      <trkpt lat="44.68513" lon="6.86741">
        <ele>2416.4</ele>
        <time>2026-03-25T11:00:19Z</time>
      </trkpt>
      <trkpt lat="44.68513" lon="6.8674">
        <ele>2416.6</ele>
        <time>2026-03-25T11:00:20Z</time>
      </trkpt>
      <trkpt lat="44.68512" lon="6.86739">
        <ele>2416.6</ele>
        <time>2026-03-25T11:00:22Z</time>
      </trkpt>
      <trkpt lat="44.68512" lon="6.86738">
        <ele>2416.6</ele>
        <time>2026-03-25T11:00:23Z</time>
      </trkpt>
      <trkpt lat="44.68512" lon="6.86737">
        <ele>2416.6</ele>
        <time>2026-03-25T11:00:24Z</time>
      </trkpt>
      <trkpt lat="44.68511" lon="6.86737">
        <ele>2416.6</ele>
        <time>2026-03-25T11:00:25Z</time>
      </trkpt>
      <trkpt lat="44.68511" lon="6.86736">
        <ele>2416.6</ele>
        <time>2026-03-25T11:00:26Z</time>
      </trkpt>
      <trkpt lat="44.68511" lon="6.86736">
        <ele>2416.8</ele>
        <time>2026-03-25T11:00:27Z</time>
      </trkpt>
      <trkpt lat="44.6851" lon="6.86735">
        <ele>2416.8</ele>
        <time>2026-03-25T11:00:28Z</time>
      </trkpt>
      <trkpt lat="44.6851" lon="6.86734">
        <ele>2417.5</ele>
        <time>2026-03-25T11:00:29Z</time>
      </trkpt>
      <trkpt lat="44.6851" lon="6.86733">
        <ele>2417.5</ele>
        <time>2026-03-25T11:00:30Z</time>
      </trkpt>
      <trkpt lat="44.68509" lon="6.86733">
        <ele>2417.5</ele>
        <time>2026-03-25T11:00:31Z</time>
      </trkpt>
      <trkpt lat="44.68508" lon="6.86731">
        <ele>2417.6</ele>
        <time>2026-03-25T11:00:32Z</time>
      </trkpt>
      <trkpt lat="44.68508" lon="6.86731">
        <ele>2417.6</ele>
        <time>2026-03-25T11:00:33Z</time>
      </trkpt>
      <trkpt lat="44.68507" lon="6.8673">
        <ele>2417.6</ele>
        <time>2026-03-25T11:00:35Z</time>
      </trkpt>
      <trkpt lat="44.68507" lon="6.86729">
        <ele>2418.3</ele>
        <time>2026-03-25T11:00:36Z</time>
      </trkpt>
      <trkpt lat="44.68506" lon="6.86729">
        <ele>2418.3</ele>
        <time>2026-03-25T11:00:37Z</time>
      </trkpt>
      <trkpt lat="44.68506" lon="6.86728">
        <ele>2418.3</ele>
        <time>2026-03-25T11:00:38Z</time>
      </trkpt>
      <trkpt lat="44.68506" lon="6.86728">
        <ele>2418.3</ele>
        <time>2026-03-25T11:00:39Z</time>
      </trkpt>
      <trkpt lat="44.68505" lon="6.86727">
        <ele>2418.3</ele>
        <time>2026-03-25T11:00:40Z</time>
      </trkpt>
      <trkpt lat="44.68505" lon="6.86727">
        <ele>2418.3</ele>
        <time>2026-03-25T11:00:41Z</time>
      </trkpt>
      <trkpt lat="44.68503" lon="6.86725">
        <ele>2419.1</ele>
        <time>2026-03-25T11:00:42Z</time>
      </trkpt>
      <trkpt lat="44.68502" lon="6.86724">
        <ele>2419.1</ele>
        <time>2026-03-25T11:00:43Z</time>
      </trkpt>
      <trkpt lat="44.68502" lon="6.86722">
        <ele>2419</ele>
        <time>2026-03-25T11:00:44Z</time>
      </trkpt>
      <trkpt lat="44.685" lon="6.86721">
        <ele>2419.8</ele>
        <time>2026-03-25T11:00:45Z</time>
      </trkpt>
      <trkpt lat="44.68499" lon="6.8672">
        <ele>2419.8</ele>
        <time>2026-03-25T11:00:46Z</time>
      </trkpt>
      <trkpt lat="44.68498" lon="6.86719">
        <ele>2419.8</ele>
        <time>2026-03-25T11:00:47Z</time>
      </trkpt>
      <trkpt lat="44.68496" lon="6.86717">
        <ele>2420.3</ele>
        <time>2026-03-25T11:00:48Z</time>
      </trkpt>
      <trkpt lat="44.68496" lon="6.86716">
        <ele>2420.3</ele>
        <time>2026-03-25T11:00:49Z</time>
      </trkpt>
      <trkpt lat="44.68493" lon="6.86713">
        <ele>2420.7</ele>
        <time>2026-03-25T11:00:50Z</time>
      </trkpt>
      <trkpt lat="44.68492" lon="6.86712">
        <ele>2420.7</ele>
        <time>2026-03-25T11:00:51Z</time>
      </trkpt>
      <trkpt lat="44.68491" lon="6.8671">
        <ele>2421.3</ele>
        <time>2026-03-25T11:00:52Z</time>
      </trkpt>
      <trkpt lat="44.6849" lon="6.86709">
        <ele>2420.9</ele>
        <time>2026-03-25T11:00:53Z</time>
      </trkpt>
      <trkpt lat="44.68489" lon="6.86707">
        <ele>2420.9</ele>
        <time>2026-03-25T11:00:54Z</time>
      </trkpt>
      <trkpt lat="44.68488" lon="6.86707">
        <ele>2421.4</ele>
        <time>2026-03-25T11:00:55Z</time>
      </trkpt>
      <trkpt lat="44.68488" lon="6.86706">
        <ele>2421.4</ele>
        <time>2026-03-25T11:00:56Z</time>
      </trkpt>
      <trkpt lat="44.68487" lon="6.86705">
        <ele>2420.9</ele>
        <time>2026-03-25T11:00:57Z</time>
      </trkpt>
      <trkpt lat="44.68486" lon="6.86704">
        <ele>2420.9</ele>
        <time>2026-03-25T11:00:58Z</time>
      </trkpt>
      <trkpt lat="44.68485" lon="6.86704">
        <ele>2421.4</ele>
        <time>2026-03-25T11:00:59Z</time>
      </trkpt>
      <trkpt lat="44.68484" lon="6.86702">
        <ele>2421.4</ele>
        <time>2026-03-25T11:01:00Z</time>
      </trkpt>
      <trkpt lat="44.68483" lon="6.86702">
        <ele>2421.4</ele>
        <time>2026-03-25T11:01:01Z</time>
      </trkpt>
      <trkpt lat="44.68483" lon="6.86701">
        <ele>2421.4</ele>
        <time>2026-03-25T11:01:02Z</time>
      </trkpt>
      <trkpt lat="44.68482" lon="6.86701">
        <ele>2421.2</ele>
        <time>2026-03-25T11:01:03Z</time>
      </trkpt>
      <trkpt lat="44.68481" lon="6.867">
        <ele>2421.2</ele>
        <time>2026-03-25T11:01:04Z</time>
      </trkpt>
      <trkpt lat="44.6848" lon="6.86699">
        <ele>2421.2</ele>
        <time>2026-03-25T11:01:05Z</time>
      </trkpt>
      <trkpt lat="44.68479" lon="6.86698">
        <ele>2421.7</ele>
        <time>2026-03-25T11:01:06Z</time>
      </trkpt>
      <trkpt lat="44.68478" lon="6.86698">
        <ele>2421.7</ele>
        <time>2026-03-25T11:01:07Z</time>
      </trkpt>
      <trkpt lat="44.68478" lon="6.86697">
        <ele>2420.9</ele>
        <time>2026-03-25T11:01:08Z</time>
      </trkpt>
      <trkpt lat="44.68477" lon="6.86696">
        <ele>2421.4</ele>
        <time>2026-03-25T11:01:09Z</time>
      </trkpt>
      <trkpt lat="44.68475" lon="6.86695">
        <ele>2421.4</ele>
        <time>2026-03-25T11:01:10Z</time>
      </trkpt>
      <trkpt lat="44.68474" lon="6.86694">
        <ele>2421.4</ele>
        <time>2026-03-25T11:01:11Z</time>
      </trkpt>
      <trkpt lat="44.68474" lon="6.86694">
        <ele>2421.4</ele>
        <time>2026-03-25T11:01:12Z</time>
      </trkpt>
      <trkpt lat="44.68473" lon="6.86693">
        <ele>2421.1</ele>
        <time>2026-03-25T11:01:13Z</time>
      </trkpt>
      <trkpt lat="44.68472" lon="6.86692">
        <ele>2421.1</ele>
        <time>2026-03-25T11:01:14Z</time>
      </trkpt>
      <trkpt lat="44.68472" lon="6.86691">
        <ele>2421.1</ele>
        <time>2026-03-25T11:01:15Z</time>
      </trkpt>
      <trkpt lat="44.68471" lon="6.8669">
        <ele>2421.1</ele>
        <time>2026-03-25T11:01:16Z</time>
      </trkpt>
      <trkpt lat="44.68469" lon="6.86688">
        <ele>2420.6</ele>
        <time>2026-03-25T11:01:17Z</time>
      </trkpt>
      <trkpt lat="44.68467" lon="6.86685">
        <ele>2421.1</ele>
        <time>2026-03-25T11:01:18Z</time>
      </trkpt>
      <trkpt lat="44.68466" lon="6.86685">
        <ele>2421.1</ele>
        <time>2026-03-25T11:01:19Z</time>
      </trkpt>
      <trkpt lat="44.68463" lon="6.86682">
        <ele>2420.5</ele>
        <time>2026-03-25T11:01:20Z</time>
      </trkpt>
      <trkpt lat="44.68463" lon="6.86681">
        <ele>2420.5</ele>
        <time>2026-03-25T11:01:21Z</time>
      </trkpt>
      <trkpt lat="44.6846" lon="6.86677">
        <ele>2419.9</ele>
        <time>2026-03-25T11:01:22Z</time>
      </trkpt>
      <trkpt lat="44.68459" lon="6.86676">
        <ele>2419.9</ele>
        <time>2026-03-25T11:01:23Z</time>
      </trkpt>
      <trkpt lat="44.68456" lon="6.86672">
        <ele>2419.1</ele>
        <time>2026-03-25T11:01:24Z</time>
      </trkpt>
      <trkpt lat="44.68455" lon="6.86671">
        <ele>2417.8</ele>
        <time>2026-03-25T11:01:25Z</time>
      </trkpt>
      <trkpt lat="44.68452" lon="6.86668">
        <ele>2418.1</ele>
        <time>2026-03-25T11:01:26Z</time>
      </trkpt>
      <trkpt lat="44.68451" lon="6.86667">
        <ele>2417</ele>
        <time>2026-03-25T11:01:27Z</time>
      </trkpt>
      <trkpt lat="44.68449" lon="6.86664">
        <ele>2417.2</ele>
        <time>2026-03-25T11:01:28Z</time>
      </trkpt>
      <trkpt lat="44.68448" lon="6.86663">
        <ele>2417.2</ele>
        <time>2026-03-25T11:01:29Z</time>
      </trkpt>
      <trkpt lat="44.68445" lon="6.86659">
        <ele>2415.9</ele>
        <time>2026-03-25T11:01:30Z</time>
      </trkpt>
      <trkpt lat="44.68444" lon="6.86658">
        <ele>2414.3</ele>
        <time>2026-03-25T11:01:31Z</time>
      </trkpt>
      <trkpt lat="44.68441" lon="6.86655">
        <ele>2414.5</ele>
        <time>2026-03-25T11:01:32Z</time>
      </trkpt>
      <trkpt lat="44.6844" lon="6.86654">
        <ele>2414.6</ele>
        <time>2026-03-25T11:01:33Z</time>
      </trkpt>
      <trkpt lat="44.68438" lon="6.86652">
        <ele>2413</ele>
        <time>2026-03-25T11:01:34Z</time>
      </trkpt>
      <trkpt lat="44.68437" lon="6.86651">
        <ele>2413.1</ele>
        <time>2026-03-25T11:01:35Z</time>
      </trkpt>
      <trkpt lat="44.68436" lon="6.8665">
        <ele>2413.1</ele>
        <time>2026-03-25T11:01:36Z</time>
      </trkpt>
      <trkpt lat="44.68435" lon="6.8665">
        <ele>2413.1</ele>
        <time>2026-03-25T11:01:37Z</time>
      </trkpt>
      <trkpt lat="44.68434" lon="6.8665">
        <ele>2413.1</ele>
        <time>2026-03-25T11:01:38Z</time>
      </trkpt>
      <trkpt lat="44.68434" lon="6.8665">
        <ele>2413.2</ele>
        <time>2026-03-25T11:01:39Z</time>
      </trkpt>
      <trkpt lat="44.68433" lon="6.8665">
        <ele>2413.2</ele>
        <time>2026-03-25T11:01:40Z</time>
      </trkpt>
      <trkpt lat="44.68432" lon="6.8665">
        <ele>2413.2</ele>
        <time>2026-03-25T11:01:41Z</time>
      </trkpt>
      <trkpt lat="44.68431" lon="6.8665">
        <ele>2413.2</ele>
        <time>2026-03-25T11:01:42Z</time>
      </trkpt>
      <trkpt lat="44.6843" lon="6.8665">
        <ele>2413.3</ele>
        <time>2026-03-25T11:01:43Z</time>
      </trkpt>
      <trkpt lat="44.68429" lon="6.86651">
        <ele>2413.3</ele>
        <time>2026-03-25T11:01:44Z</time>
      </trkpt>
      <trkpt lat="44.68428" lon="6.86651">
        <ele>2413.3</ele>
        <time>2026-03-25T11:01:45Z</time>
      </trkpt>
      <trkpt lat="44.68428" lon="6.86651">
        <ele>2413.4</ele>
        <time>2026-03-25T11:01:46Z</time>
      </trkpt>
      <trkpt lat="44.68427" lon="6.86651">
        <ele>2413.4</ele>
        <time>2026-03-25T11:01:47Z</time>
      </trkpt>
      <trkpt lat="44.68426" lon="6.86651">
        <ele>2413.4</ele>
        <time>2026-03-25T11:01:48Z</time>
      </trkpt>
      <trkpt lat="44.68425" lon="6.8665">
        <ele>2413.4</ele>
        <time>2026-03-25T11:01:49Z</time>
      </trkpt>
      <trkpt lat="44.68424" lon="6.8665">
        <ele>2413.4</ele>
        <time>2026-03-25T11:01:50Z</time>
      </trkpt>
      <trkpt lat="44.68423" lon="6.8665">
        <ele>2413.4</ele>
        <time>2026-03-25T11:01:51Z</time>
      </trkpt>
      <trkpt lat="44.68422" lon="6.8665">
        <ele>2413.4</ele>
        <time>2026-03-25T11:01:52Z</time>
      </trkpt>
      <trkpt lat="44.68421" lon="6.8665">
        <ele>2413.5</ele>
        <time>2026-03-25T11:01:53Z</time>
      </trkpt>
      <trkpt lat="44.6842" lon="6.86651">
        <ele>2413.5</ele>
        <time>2026-03-25T11:01:54Z</time>
      </trkpt>
      <trkpt lat="44.68419" lon="6.86651">
        <ele>2413.5</ele>
        <time>2026-03-25T11:01:55Z</time>
      </trkpt>
      <trkpt lat="44.68418" lon="6.86651">
        <ele>2413.7</ele>
        <time>2026-03-25T11:01:56Z</time>
      </trkpt>
      <trkpt lat="44.68417" lon="6.86651">
        <ele>2413.7</ele>
        <time>2026-03-25T11:01:57Z</time>
      </trkpt>
      <trkpt lat="44.68417" lon="6.86651">
        <ele>2413.7</ele>
        <time>2026-03-25T11:01:58Z</time>
      </trkpt>
      <trkpt lat="44.68416" lon="6.86651">
        <ele>2413.8</ele>
        <time>2026-03-25T11:01:59Z</time>
      </trkpt>
      <trkpt lat="44.68415" lon="6.86651">
        <ele>2413.8</ele>
        <time>2026-03-25T11:02:00Z</time>
      </trkpt>
      <trkpt lat="44.68414" lon="6.86652">
        <ele>2413.8</ele>
        <time>2026-03-25T11:02:01Z</time>
      </trkpt>
      <trkpt lat="44.68413" lon="6.86652">
        <ele>2413.8</ele>
        <time>2026-03-25T11:02:02Z</time>
      </trkpt>
      <trkpt lat="44.68412" lon="6.86652">
        <ele>2413.9</ele>
        <time>2026-03-25T11:02:03Z</time>
      </trkpt>
      <trkpt lat="44.68411" lon="6.86652">
        <ele>2413.9</ele>
        <time>2026-03-25T11:02:04Z</time>
      </trkpt>
      <trkpt lat="44.68411" lon="6.86652">
        <ele>2413.9</ele>
        <time>2026-03-25T11:02:05Z</time>
      </trkpt>
      <trkpt lat="44.6841" lon="6.86652">
        <ele>2413.9</ele>
        <time>2026-03-25T11:02:06Z</time>
      </trkpt>
      <trkpt lat="44.68408" lon="6.86652">
        <ele>2414</ele>
        <time>2026-03-25T11:02:07Z</time>
      </trkpt>
      <trkpt lat="44.68408" lon="6.86652">
        <ele>2414</ele>
        <time>2026-03-25T11:02:08Z</time>
      </trkpt>
      <trkpt lat="44.68407" lon="6.86652">
        <ele>2414</ele>
        <time>2026-03-25T11:02:09Z</time>
      </trkpt>
      <trkpt lat="44.68406" lon="6.86652">
        <ele>2414</ele>
        <time>2026-03-25T11:02:10Z</time>
      </trkpt>
      <trkpt lat="44.68405" lon="6.86652">
        <ele>2414</ele>
        <time>2026-03-25T11:02:11Z</time>
      </trkpt>
      <trkpt lat="44.68404" lon="6.86652">
        <ele>2414</ele>
        <time>2026-03-25T11:02:12Z</time>
      </trkpt>
      <trkpt lat="44.68403" lon="6.86652">
        <ele>2414.1</ele>
        <time>2026-03-25T11:02:13Z</time>
      </trkpt>
      <trkpt lat="44.68402" lon="6.86652">
        <ele>2414.1</ele>
        <time>2026-03-25T11:02:14Z</time>
      </trkpt>
      <trkpt lat="44.68401" lon="6.86652">
        <ele>2414.1</ele>
        <time>2026-03-25T11:02:15Z</time>
      </trkpt>
      <trkpt lat="44.684" lon="6.86652">
        <ele>2414.1</ele>
        <time>2026-03-25T11:02:16Z</time>
      </trkpt>
      <trkpt lat="44.684" lon="6.86652">
        <ele>2414.2</ele>
        <time>2026-03-25T11:02:17Z</time>
      </trkpt>
      <trkpt lat="44.68399" lon="6.86652">
        <ele>2414.2</ele>
        <time>2026-03-25T11:02:18Z</time>
      </trkpt>
      <trkpt lat="44.68398" lon="6.86652">
        <ele>2414.2</ele>
        <time>2026-03-25T11:02:19Z</time>
      </trkpt>
      <trkpt lat="44.68397" lon="6.86652">
        <ele>2414.3</ele>
        <time>2026-03-25T11:02:20Z</time>
      </trkpt>
      <trkpt lat="44.68397" lon="6.86652">
        <ele>2414.3</ele>
        <time>2026-03-25T11:02:21Z</time>
      </trkpt>
      <trkpt lat="44.68395" lon="6.86652">
        <ele>2414.3</ele>
        <time>2026-03-25T11:02:22Z</time>
      </trkpt>
      <trkpt lat="44.68394" lon="6.86652">
        <ele>2414.3</ele>
        <time>2026-03-25T11:02:23Z</time>
      </trkpt>
      <trkpt lat="44.68393" lon="6.86651">
        <ele>2414.4</ele>
        <time>2026-03-25T11:02:24Z</time>
      </trkpt>
      <trkpt lat="44.68392" lon="6.86651">
        <ele>2414.4</ele>
        <time>2026-03-25T11:02:25Z</time>
      </trkpt>
      <trkpt lat="44.68392" lon="6.86651">
        <ele>2414.4</ele>
        <time>2026-03-25T11:02:26Z</time>
      </trkpt>
      <trkpt lat="44.68391" lon="6.8665">
        <ele>2414.6</ele>
        <time>2026-03-25T11:02:27Z</time>
      </trkpt>
      <trkpt lat="44.6839" lon="6.8665">
        <ele>2414.6</ele>
        <time>2026-03-25T11:02:28Z</time>
      </trkpt>
      <trkpt lat="44.68389" lon="6.8665">
        <ele>2412.7</ele>
        <time>2026-03-25T11:02:29Z</time>
      </trkpt>
      <trkpt lat="44.68388" lon="6.86649">
        <ele>2412.7</ele>
        <time>2026-03-25T11:02:30Z</time>
      </trkpt>
      <trkpt lat="44.68388" lon="6.86649">
        <ele>2412.8</ele>
        <time>2026-03-25T11:02:31Z</time>
      </trkpt>
      <trkpt lat="44.68387" lon="6.86648">
        <ele>2412.8</ele>
        <time>2026-03-25T11:02:32Z</time>
      </trkpt>
      <trkpt lat="44.68386" lon="6.86648">
        <ele>2412.8</ele>
        <time>2026-03-25T11:02:33Z</time>
      </trkpt>
      <trkpt lat="44.68385" lon="6.86648">
        <ele>2412.8</ele>
        <time>2026-03-25T11:02:34Z</time>
      </trkpt>
      <trkpt lat="44.68385" lon="6.86648">
        <ele>2413</ele>
        <time>2026-03-25T11:02:35Z</time>
      </trkpt>
      <trkpt lat="44.68384" lon="6.86648">
        <ele>2413</ele>
        <time>2026-03-25T11:02:36Z</time>
      </trkpt>
      <trkpt lat="44.68383" lon="6.86647">
        <ele>2413</ele>
        <time>2026-03-25T11:02:37Z</time>
      </trkpt>
      <trkpt lat="44.68382" lon="6.86647">
        <ele>2413.1</ele>
        <time>2026-03-25T11:02:38Z</time>
      </trkpt>
      <trkpt lat="44.68381" lon="6.86647">
        <ele>2413.1</ele>
        <time>2026-03-25T11:02:39Z</time>
      </trkpt>
      <trkpt lat="44.6838" lon="6.86647">
        <ele>2413.1</ele>
        <time>2026-03-25T11:02:40Z</time>
      </trkpt>
      <trkpt lat="44.68378" lon="6.86647">
        <ele>2413.3</ele>
        <time>2026-03-25T11:02:41Z</time>
      </trkpt>
      <trkpt lat="44.68378" lon="6.86646">
        <ele>2413.3</ele>
        <time>2026-03-25T11:02:42Z</time>
      </trkpt>
      <trkpt lat="44.68377" lon="6.86645">
        <ele>2410.4</ele>
        <time>2026-03-25T11:02:43Z</time>
      </trkpt>
      <trkpt lat="44.68376" lon="6.86644">
        <ele>2410.3</ele>
        <time>2026-03-25T11:02:44Z</time>
      </trkpt>
      <trkpt lat="44.68375" lon="6.86644">
        <ele>2410.5</ele>
        <time>2026-03-25T11:02:45Z</time>
      </trkpt>
      <trkpt lat="44.68374" lon="6.86643">
        <ele>2410.5</ele>
        <time>2026-03-25T11:02:46Z</time>
      </trkpt>
      <trkpt lat="44.68373" lon="6.86643">
        <ele>2410.5</ele>
        <time>2026-03-25T11:02:47Z</time>
      </trkpt>
      <trkpt lat="44.68372" lon="6.86643">
        <ele>2410.7</ele>
        <time>2026-03-25T11:02:48Z</time>
      </trkpt>
      <trkpt lat="44.68372" lon="6.86643">
        <ele>2410.7</ele>
        <time>2026-03-25T11:02:49Z</time>
      </trkpt>
      <trkpt lat="44.68371" lon="6.86643">
        <ele>2410.7</ele>
        <time>2026-03-25T11:02:50Z</time>
      </trkpt>
      <trkpt lat="44.68371" lon="6.86642">
        <ele>2410.7</ele>
        <time>2026-03-25T11:02:51Z</time>
      </trkpt>
      <trkpt lat="44.6837" lon="6.86642">
        <ele>2410.7</ele>
        <time>2026-03-25T11:02:52Z</time>
      </trkpt>
      <trkpt lat="44.68369" lon="6.86641">
        <ele>2409.2</ele>
        <time>2026-03-25T11:02:53Z</time>
      </trkpt>
      <trkpt lat="44.68369" lon="6.86641">
        <ele>2409.2</ele>
        <time>2026-03-25T11:02:54Z</time>
      </trkpt>
      <trkpt lat="44.68368" lon="6.86641">
        <ele>2409.2</ele>
        <time>2026-03-25T11:02:55Z</time>
      </trkpt>
      <trkpt lat="44.68367" lon="6.8664">
        <ele>2409.2</ele>
        <time>2026-03-25T11:02:56Z</time>
      </trkpt>
      <trkpt lat="44.68367" lon="6.8664">
        <ele>2409.2</ele>
        <time>2026-03-25T11:02:57Z</time>
      </trkpt>
      <trkpt lat="44.68366" lon="6.8664">
        <ele>2409.5</ele>
        <time>2026-03-25T11:02:58Z</time>
      </trkpt>
      <trkpt lat="44.68366" lon="6.8664">
        <ele>2409.5</ele>
        <time>2026-03-25T11:02:59Z</time>
      </trkpt>
      <trkpt lat="44.68365" lon="6.8664">
        <ele>2409.5</ele>
        <time>2026-03-25T11:03:00Z</time>
      </trkpt>
      <trkpt lat="44.68364" lon="6.8664">
        <ele>2409.5</ele>
        <time>2026-03-25T11:03:01Z</time>
      </trkpt>
      <trkpt lat="44.68363" lon="6.86639">
        <ele>2409.8</ele>
        <time>2026-03-25T11:03:02Z</time>
      </trkpt>
      <trkpt lat="44.68363" lon="6.86639">
        <ele>2409.8</ele>
        <time>2026-03-25T11:03:03Z</time>
      </trkpt>
      <trkpt lat="44.68362" lon="6.86639">
        <ele>2409.8</ele>
        <time>2026-03-25T11:03:04Z</time>
      </trkpt>
      <trkpt lat="44.68361" lon="6.86639">
        <ele>2409.8</ele>
        <time>2026-03-25T11:03:05Z</time>
      </trkpt>
      <trkpt lat="44.6836" lon="6.86639">
        <ele>2410</ele>
        <time>2026-03-25T11:03:06Z</time>
      </trkpt>
      <trkpt lat="44.6836" lon="6.86639">
        <ele>2410</ele>
        <time>2026-03-25T11:03:07Z</time>
      </trkpt>
      <trkpt lat="44.68359" lon="6.86639">
        <ele>2410</ele>
        <time>2026-03-25T11:03:08Z</time>
      </trkpt>
      <trkpt lat="44.68358" lon="6.86639">
        <ele>2410</ele>
        <time>2026-03-25T11:03:09Z</time>
      </trkpt>
      <trkpt lat="44.68357" lon="6.86639">
        <ele>2410.3</ele>
        <time>2026-03-25T11:03:10Z</time>
      </trkpt>
      <trkpt lat="44.68356" lon="6.86639">
        <ele>2410.3</ele>
        <time>2026-03-25T11:03:11Z</time>
      </trkpt>
      <trkpt lat="44.68355" lon="6.86639">
        <ele>2410.3</ele>
        <time>2026-03-25T11:03:12Z</time>
      </trkpt>
      <trkpt lat="44.68354" lon="6.86638">
        <ele>2410.5</ele>
        <time>2026-03-25T11:03:13Z</time>
      </trkpt>
      <trkpt lat="44.68353" lon="6.86637">
        <ele>2410.5</ele>
        <time>2026-03-25T11:03:14Z</time>
      </trkpt>
      <trkpt lat="44.68351" lon="6.86636">
        <ele>2409.1</ele>
        <time>2026-03-25T11:03:15Z</time>
      </trkpt>
      <trkpt lat="44.6835" lon="6.86636">
        <ele>2409.1</ele>
        <time>2026-03-25T11:03:16Z</time>
      </trkpt>
      <trkpt lat="44.68349" lon="6.86635">
        <ele>2409.1</ele>
        <time>2026-03-25T11:03:17Z</time>
      </trkpt>
      <trkpt lat="44.68349" lon="6.86635">
        <ele>2409.1</ele>
        <time>2026-03-25T11:03:18Z</time>
      </trkpt>
      <trkpt lat="44.68348" lon="6.86635">
        <ele>2409.3</ele>
        <time>2026-03-25T11:03:19Z</time>
      </trkpt>
      <trkpt lat="44.68347" lon="6.86634">
        <ele>2409.3</ele>
        <time>2026-03-25T11:03:20Z</time>
      </trkpt>
      <trkpt lat="44.68347" lon="6.86634">
        <ele>2409.3</ele>
        <time>2026-03-25T11:03:21Z</time>
      </trkpt>
      <trkpt lat="44.68345" lon="6.86633">
        <ele>2409.3</ele>
        <time>2026-03-25T11:03:22Z</time>
      </trkpt>
      <trkpt lat="44.68344" lon="6.86633">
        <ele>2409.5</ele>
        <time>2026-03-25T11:03:23Z</time>
      </trkpt>
      <trkpt lat="44.68343" lon="6.86632">
        <ele>2407.8</ele>
        <time>2026-03-25T11:03:24Z</time>
      </trkpt>
      <trkpt lat="44.68342" lon="6.86631">
        <ele>2408</ele>
        <time>2026-03-25T11:03:25Z</time>
      </trkpt>
      <trkpt lat="44.6834" lon="6.86629">
        <ele>2408</ele>
        <time>2026-03-25T11:03:26Z</time>
      </trkpt>
      <trkpt lat="44.68339" lon="6.86628">
        <ele>2406.6</ele>
        <time>2026-03-25T11:03:27Z</time>
      </trkpt>
      <trkpt lat="44.68336" lon="6.86625">
        <ele>2406.9</ele>
        <time>2026-03-25T11:03:28Z</time>
      </trkpt>
      <trkpt lat="44.68335" lon="6.86624">
        <ele>2406.9</ele>
        <time>2026-03-25T11:03:29Z</time>
      </trkpt>
      <trkpt lat="44.68332" lon="6.86622">
        <ele>2405.5</ele>
        <time>2026-03-25T11:03:30Z</time>
      </trkpt>
      <trkpt lat="44.68331" lon="6.86621">
        <ele>2405.5</ele>
        <time>2026-03-25T11:03:31Z</time>
      </trkpt>
      <trkpt lat="44.6833" lon="6.8662">
        <ele>2405.9</ele>
        <time>2026-03-25T11:03:32Z</time>
      </trkpt>
      <trkpt lat="44.68329" lon="6.8662">
        <ele>2405.9</ele>
        <time>2026-03-25T11:03:33Z</time>
      </trkpt>
      <trkpt lat="44.68329" lon="6.86619">
        <ele>2404.2</ele>
        <time>2026-03-25T11:03:34Z</time>
      </trkpt>
      <trkpt lat="44.68328" lon="6.86619">
        <ele>2404.2</ele>
        <time>2026-03-25T11:03:35Z</time>
      </trkpt>
      <trkpt lat="44.68327" lon="6.8662">
        <ele>2404.6</ele>
        <time>2026-03-25T11:03:36Z</time>
      </trkpt>
      <trkpt lat="44.68326" lon="6.86619">
        <ele>2404.6</ele>
        <time>2026-03-25T11:03:37Z</time>
      </trkpt>
      <trkpt lat="44.68326" lon="6.86619">
        <ele>2404.6</ele>
        <time>2026-03-25T11:03:38Z</time>
      </trkpt>
      <trkpt lat="44.68325" lon="6.86619">
        <ele>2404.6</ele>
        <time>2026-03-25T11:03:39Z</time>
      </trkpt>
      <trkpt lat="44.68325" lon="6.86619">
        <ele>2404.6</ele>
        <time>2026-03-25T11:03:40Z</time>
      </trkpt>
      <trkpt lat="44.68324" lon="6.86619">
        <ele>2404.9</ele>
        <time>2026-03-25T11:03:41Z</time>
      </trkpt>
      <trkpt lat="44.68323" lon="6.86619">
        <ele>2404.9</ele>
        <time>2026-03-25T11:03:42Z</time>
      </trkpt>
      <trkpt lat="44.68323" lon="6.86619">
        <ele>2404.9</ele>
        <time>2026-03-25T11:03:43Z</time>
      </trkpt>
      <trkpt lat="44.68322" lon="6.86619">
        <ele>2404.9</ele>
        <time>2026-03-25T11:03:44Z</time>
      </trkpt>
      <trkpt lat="44.68322" lon="6.86619">
        <ele>2404.9</ele>
        <time>2026-03-25T11:03:45Z</time>
      </trkpt>
      <trkpt lat="44.68321" lon="6.86619">
        <ele>2404.9</ele>
        <time>2026-03-25T11:03:46Z</time>
      </trkpt>
      <trkpt lat="44.6832" lon="6.86619">
        <ele>2405.3</ele>
        <time>2026-03-25T11:03:47Z</time>
      </trkpt>
      <trkpt lat="44.6832" lon="6.86619">
        <ele>2405.3</ele>
        <time>2026-03-25T11:03:48Z</time>
      </trkpt>
      <trkpt lat="44.68319" lon="6.86619">
        <ele>2405.3</ele>
        <time>2026-03-25T11:03:49Z</time>
      </trkpt>
      <trkpt lat="44.68318" lon="6.86619">
        <ele>2405.3</ele>
        <time>2026-03-25T11:03:50Z</time>
      </trkpt>
      <trkpt lat="44.68318" lon="6.86619">
        <ele>2405.7</ele>
        <time>2026-03-25T11:03:51Z</time>
      </trkpt>
      <trkpt lat="44.68317" lon="6.86619">
        <ele>2405.7</ele>
        <time>2026-03-25T11:03:52Z</time>
      </trkpt>
      <trkpt lat="44.68316" lon="6.86618">
        <ele>2405.7</ele>
        <time>2026-03-25T11:03:53Z</time>
      </trkpt>
      <trkpt lat="44.68315" lon="6.86618">
        <ele>2405.7</ele>
        <time>2026-03-25T11:03:54Z</time>
      </trkpt>
      <trkpt lat="44.68315" lon="6.86618">
        <ele>2406.1</ele>
        <time>2026-03-25T11:03:55Z</time>
      </trkpt>
      <trkpt lat="44.68314" lon="6.86618">
        <ele>2406.1</ele>
        <time>2026-03-25T11:03:56Z</time>
      </trkpt>
      <trkpt lat="44.68314" lon="6.86617">
        <ele>2406.1</ele>
        <time>2026-03-25T11:03:57Z</time>
      </trkpt>
      <trkpt lat="44.68313" lon="6.86617">
        <ele>2406.1</ele>
        <time>2026-03-25T11:03:58Z</time>
      </trkpt>
      <trkpt lat="44.68313" lon="6.86617">
        <ele>2406.1</ele>
        <time>2026-03-25T11:03:59Z</time>
      </trkpt>
      <trkpt lat="44.68312" lon="6.86617">
        <ele>2406.1</ele>
        <time>2026-03-25T11:04:00Z</time>
      </trkpt>
      <trkpt lat="44.68311" lon="6.86617">
        <ele>2406.6</ele>
        <time>2026-03-25T11:04:01Z</time>
      </trkpt>
      <trkpt lat="44.68311" lon="6.86616">
        <ele>2406.6</ele>
        <time>2026-03-25T11:04:02Z</time>
      </trkpt>
      <trkpt lat="44.6831" lon="6.86616">
        <ele>2406.6</ele>
        <time>2026-03-25T11:04:03Z</time>
      </trkpt>
      <trkpt lat="44.68309" lon="6.86616">
        <ele>2406.6</ele>
        <time>2026-03-25T11:04:04Z</time>
      </trkpt>
      <trkpt lat="44.68309" lon="6.86616">
        <ele>2407.3</ele>
        <time>2026-03-25T11:04:05Z</time>
      </trkpt>
      <trkpt lat="44.68308" lon="6.86616">
        <ele>2407.3</ele>
        <time>2026-03-25T11:04:06Z</time>
      </trkpt>
      <trkpt lat="44.68308" lon="6.86616">
        <ele>2407.2</ele>
        <time>2026-03-25T11:04:07Z</time>
      </trkpt>
      <trkpt lat="44.68307" lon="6.86616">
        <ele>2407.2</ele>
        <time>2026-03-25T11:04:08Z</time>
      </trkpt>
      <trkpt lat="44.68306" lon="6.86616">
        <ele>2407.2</ele>
        <time>2026-03-25T11:04:09Z</time>
      </trkpt>
      <trkpt lat="44.68306" lon="6.86615">
        <ele>2406.3</ele>
        <time>2026-03-25T11:04:10Z</time>
      </trkpt>
      <trkpt lat="44.68305" lon="6.86615">
        <ele>2406.3</ele>
        <time>2026-03-25T11:04:11Z</time>
      </trkpt>
      <trkpt lat="44.68305" lon="6.86614">
        <ele>2406.3</ele>
        <time>2026-03-25T11:04:12Z</time>
      </trkpt>
      <trkpt lat="44.68304" lon="6.86614">
        <ele>2406.2</ele>
        <time>2026-03-25T11:04:13Z</time>
      </trkpt>
      <trkpt lat="44.68304" lon="6.86613">
        <ele>2406.2</ele>
        <time>2026-03-25T11:04:14Z</time>
      </trkpt>
      <trkpt lat="44.68303" lon="6.86613">
        <ele>2406.2</ele>
        <time>2026-03-25T11:04:15Z</time>
      </trkpt>
      <trkpt lat="44.68303" lon="6.86612">
        <ele>2406.2</ele>
        <time>2026-03-25T11:04:16Z</time>
      </trkpt>
      <trkpt lat="44.68303" lon="6.86612">
        <ele>2406.9</ele>
        <time>2026-03-25T11:04:17Z</time>
      </trkpt>
      <trkpt lat="44.68301" lon="6.86611">
        <ele>2405.3</ele>
        <time>2026-03-25T11:04:18Z</time>
      </trkpt>
      <trkpt lat="44.68301" lon="6.86611">
        <ele>2405.3</ele>
        <time>2026-03-25T11:04:20Z</time>
      </trkpt>
      <trkpt lat="44.68301" lon="6.8661">
        <ele>2405.3</ele>
        <time>2026-03-25T11:04:21Z</time>
      </trkpt>
      <trkpt lat="44.683" lon="6.8661">
        <ele>2405.3</ele>
        <time>2026-03-25T11:04:22Z</time>
      </trkpt>
      <trkpt lat="44.683" lon="6.86609">
        <ele>2405.9</ele>
        <time>2026-03-25T11:04:23Z</time>
      </trkpt>
      <trkpt lat="44.68299" lon="6.86609">
        <ele>2405.9</ele>
        <time>2026-03-25T11:04:24Z</time>
      </trkpt>
      <trkpt lat="44.68299" lon="6.86608">
        <ele>2405.9</ele>
        <time>2026-03-25T11:04:25Z</time>
      </trkpt>
      <trkpt lat="44.68298" lon="6.86607">
        <ele>2405.9</ele>
        <time>2026-03-25T11:04:26Z</time>
      </trkpt>
      <trkpt lat="44.68298" lon="6.86607">
        <ele>2404.3</ele>
        <time>2026-03-25T11:04:27Z</time>
      </trkpt>
      <trkpt lat="44.68297" lon="6.86606">
        <ele>2404.3</ele>
        <time>2026-03-25T11:04:28Z</time>
      </trkpt>
      <trkpt lat="44.68296" lon="6.86605">
        <ele>2404.9</ele>
        <time>2026-03-25T11:04:29Z</time>
      </trkpt>
      <trkpt lat="44.68296" lon="6.86605">
        <ele>2404.9</ele>
        <time>2026-03-25T11:04:31Z</time>
      </trkpt>
      <trkpt lat="44.68295" lon="6.86604">
        <ele>2404.9</ele>
        <time>2026-03-25T11:04:32Z</time>
      </trkpt>
      <trkpt lat="44.68295" lon="6.86604">
        <ele>2404.9</ele>
        <time>2026-03-25T11:04:33Z</time>
      </trkpt>
      <trkpt lat="44.68294" lon="6.86604">
        <ele>2404.9</ele>
        <time>2026-03-25T11:04:34Z</time>
      </trkpt>
      <trkpt lat="44.68294" lon="6.86603">
        <ele>2404.9</ele>
        <time>2026-03-25T11:04:35Z</time>
      </trkpt>
      <trkpt lat="44.68293" lon="6.86603">
        <ele>2405.4</ele>
        <time>2026-03-25T11:04:36Z</time>
      </trkpt>
      <trkpt lat="44.68293" lon="6.86603">
        <ele>2405.4</ele>
        <time>2026-03-25T11:04:37Z</time>
      </trkpt>
      <trkpt lat="44.68292" lon="6.86602">
        <ele>2404</ele>
        <time>2026-03-25T11:04:38Z</time>
      </trkpt>
      <trkpt lat="44.68292" lon="6.86602">
        <ele>2404</ele>
        <time>2026-03-25T11:04:39Z</time>
      </trkpt>
      <trkpt lat="44.68291" lon="6.86602">
        <ele>2404</ele>
        <time>2026-03-25T11:04:40Z</time>
      </trkpt>
      <trkpt lat="44.68291" lon="6.86602">
        <ele>2404</ele>
        <time>2026-03-25T11:04:41Z</time>
      </trkpt>
      <trkpt lat="44.6829" lon="6.86602">
        <ele>2404.6</ele>
        <time>2026-03-25T11:04:42Z</time>
      </trkpt>
      <trkpt lat="44.68289" lon="6.86603">
        <ele>2406</ele>
        <time>2026-03-25T11:04:43Z</time>
      </trkpt>
      <trkpt lat="44.68289" lon="6.86603">
        <ele>2406</ele>
        <time>2026-03-25T11:04:44Z</time>
      </trkpt>
      <trkpt lat="44.68288" lon="6.86604">
        <ele>2406</ele>
        <time>2026-03-25T11:04:45Z</time>
      </trkpt>
      <trkpt lat="44.68288" lon="6.86606">
        <ele>2406</ele>
        <time>2026-03-25T11:04:47Z</time>
      </trkpt>
      <trkpt lat="44.68288" lon="6.86607">
        <ele>2406</ele>
        <time>2026-03-25T11:04:49Z</time>
      </trkpt>
      <trkpt lat="44.68288" lon="6.86608">
        <ele>2407.6</ele>
        <time>2026-03-25T11:04:50Z</time>
      </trkpt>
      <trkpt lat="44.68288" lon="6.86609">
        <ele>2407.6</ele>
        <time>2026-03-25T11:04:51Z</time>
      </trkpt>
      <trkpt lat="44.68288" lon="6.8661">
        <ele>2407.6</ele>
        <time>2026-03-25T11:04:52Z</time>
      </trkpt>
      <trkpt lat="44.68288" lon="6.8661">
        <ele>2407.6</ele>
        <time>2026-03-25T11:04:53Z</time>
      </trkpt>
      <trkpt lat="44.68288" lon="6.86611">
        <ele>2407.6</ele>
        <time>2026-03-25T11:04:54Z</time>
      </trkpt>
      <trkpt lat="44.68288" lon="6.86612">
        <ele>2409.2</ele>
        <time>2026-03-25T11:04:55Z</time>
      </trkpt>
      <trkpt lat="44.68288" lon="6.86613">
        <ele>2409.2</ele>
        <time>2026-03-25T11:04:56Z</time>
      </trkpt>
      <trkpt lat="44.68288" lon="6.86613">
        <ele>2409.2</ele>
        <time>2026-03-25T11:04:57Z</time>
      </trkpt>
      <trkpt lat="44.68288" lon="6.86615">
        <ele>2409.2</ele>
        <time>2026-03-25T11:04:58Z</time>
      </trkpt>
      <trkpt lat="44.68288" lon="6.86616">
        <ele>2410.8</ele>
        <time>2026-03-25T11:05:00Z</time>
      </trkpt>
      <trkpt lat="44.68288" lon="6.86617">
        <ele>2410.8</ele>
        <time>2026-03-25T11:05:01Z</time>
      </trkpt>
      <trkpt lat="44.68288" lon="6.86617">
        <ele>2410.8</ele>
        <time>2026-03-25T11:05:02Z</time>
      </trkpt>
      <trkpt lat="44.68288" lon="6.86618">
        <ele>2410.8</ele>
        <time>2026-03-25T11:05:03Z</time>
      </trkpt>
      <trkpt lat="44.68288" lon="6.86619">
        <ele>2410.8</ele>
        <time>2026-03-25T11:05:04Z</time>
      </trkpt>
      <trkpt lat="44.68288" lon="6.8662">
        <ele>2410.8</ele>
        <time>2026-03-25T11:05:05Z</time>
      </trkpt>
      <trkpt lat="44.68288" lon="6.8662">
        <ele>2412.5</ele>
        <time>2026-03-25T11:05:06Z</time>
      </trkpt>
      <trkpt lat="44.68288" lon="6.86621">
        <ele>2412.5</ele>
        <time>2026-03-25T11:05:07Z</time>
      </trkpt>
      <trkpt lat="44.68288" lon="6.86622">
        <ele>2412.4</ele>
        <time>2026-03-25T11:05:08Z</time>
      </trkpt>
      <trkpt lat="44.68288" lon="6.86622">
        <ele>2412.4</ele>
        <time>2026-03-25T11:05:09Z</time>
      </trkpt>
      <trkpt lat="44.68288" lon="6.86623">
        <ele>2412.4</ele>
        <time>2026-03-25T11:05:10Z</time>
      </trkpt>
      <trkpt lat="44.68287" lon="6.86624">
        <ele>2412.4</ele>
        <time>2026-03-25T11:05:11Z</time>
      </trkpt>
      <trkpt lat="44.68287" lon="6.86624">
        <ele>2414.7</ele>
        <time>2026-03-25T11:05:12Z</time>
      </trkpt>
      <trkpt lat="44.68287" lon="6.86625">
        <ele>2414.7</ele>
        <time>2026-03-25T11:05:13Z</time>
      </trkpt>
      <trkpt lat="44.68287" lon="6.86626">
        <ele>2414.7</ele>
        <time>2026-03-25T11:05:14Z</time>
      </trkpt>
      <trkpt lat="44.68287" lon="6.86627">
        <ele>2414.7</ele>
        <time>2026-03-25T11:05:15Z</time>
      </trkpt>
      <trkpt lat="44.68287" lon="6.86628">
        <ele>2414.7</ele>
        <time>2026-03-25T11:05:16Z</time>
      </trkpt>
      <trkpt lat="44.68287" lon="6.86628">
        <ele>2414.7</ele>
        <time>2026-03-25T11:05:17Z</time>
      </trkpt>
      <trkpt lat="44.68287" lon="6.86629">
        <ele>2416.2</ele>
        <time>2026-03-25T11:05:18Z</time>
      </trkpt>
      <trkpt lat="44.68287" lon="6.86629">
        <ele>2416.2</ele>
        <time>2026-03-25T11:05:19Z</time>
      </trkpt>
      <trkpt lat="44.68287" lon="6.86629">
        <ele>2416.2</ele>
        <time>2026-03-25T11:05:20Z</time>
      </trkpt>
      <trkpt lat="44.68287" lon="6.8663">
        <ele>2416.2</ele>
        <time>2026-03-25T11:05:21Z</time>
      </trkpt>
      <trkpt lat="44.68287" lon="6.8663">
        <ele>2416.2</ele>
        <time>2026-03-25T11:05:22Z</time>
      </trkpt>
      <trkpt lat="44.68287" lon="6.8663">
        <ele>2416.2</ele>
        <time>2026-03-25T11:05:23Z</time>
      </trkpt>
      <trkpt lat="44.68287" lon="6.86631">
        <ele>2416.2</ele>
        <time>2026-03-25T11:05:24Z</time>
      </trkpt>
      <trkpt lat="44.68287" lon="6.86632">
        <ele>2416.2</ele>
        <time>2026-03-25T11:05:25Z</time>
      </trkpt>
      <trkpt lat="44.68286" lon="6.86633">
        <ele>2416.2</ele>
        <time>2026-03-25T11:05:26Z</time>
      </trkpt>
      <trkpt lat="44.68286" lon="6.86633">
        <ele>2417.7</ele>
        <time>2026-03-25T11:05:27Z</time>
      </trkpt>
      <trkpt lat="44.68286" lon="6.86634">
        <ele>2417.7</ele>
        <time>2026-03-25T11:05:28Z</time>
      </trkpt>
      <trkpt lat="44.68286" lon="6.86635">
        <ele>2417.7</ele>
        <time>2026-03-25T11:05:29Z</time>
      </trkpt>
      <trkpt lat="44.68286" lon="6.86635">
        <ele>2417.7</ele>
        <time>2026-03-25T11:05:30Z</time>
      </trkpt>
      <trkpt lat="44.68286" lon="6.86636">
        <ele>2417.7</ele>
        <time>2026-03-25T11:05:31Z</time>
      </trkpt>
      <trkpt lat="44.68286" lon="6.86636">
        <ele>2417.7</ele>
        <time>2026-03-25T11:05:32Z</time>
      </trkpt>
      <trkpt lat="44.68286" lon="6.86637">
        <ele>2419.3</ele>
        <time>2026-03-25T11:05:33Z</time>
      </trkpt>
      <trkpt lat="44.68286" lon="6.86638">
        <ele>2419.3</ele>
        <time>2026-03-25T11:05:34Z</time>
      </trkpt>
      <trkpt lat="44.68286" lon="6.86638">
        <ele>2419.3</ele>
        <time>2026-03-25T11:05:35Z</time>
      </trkpt>
      <trkpt lat="44.68286" lon="6.86639">
        <ele>2419.3</ele>
        <time>2026-03-25T11:05:36Z</time>
      </trkpt>
      <trkpt lat="44.68286" lon="6.8664">
        <ele>2419.3</ele>
        <time>2026-03-25T11:05:37Z</time>
      </trkpt>
      <trkpt lat="44.68286" lon="6.8664">
        <ele>2419.3</ele>
        <time>2026-03-25T11:05:38Z</time>
      </trkpt>
      <trkpt lat="44.68286" lon="6.86641">
        <ele>2419.3</ele>
        <time>2026-03-25T11:05:39Z</time>
      </trkpt>
      <trkpt lat="44.68286" lon="6.86642">
        <ele>2420.9</ele>
        <time>2026-03-25T11:05:40Z</time>
      </trkpt>
      <trkpt lat="44.68286" lon="6.86642">
        <ele>2420.9</ele>
        <time>2026-03-25T11:05:41Z</time>
      </trkpt>
      <trkpt lat="44.68285" lon="6.86643">
        <ele>2420.9</ele>
        <time>2026-03-25T11:05:42Z</time>
      </trkpt>
      <trkpt lat="44.68285" lon="6.86643">
        <ele>2420.9</ele>
        <time>2026-03-25T11:05:44Z</time>
      </trkpt>
      <trkpt lat="44.68285" lon="6.86644">
        <ele>2420.9</ele>
        <time>2026-03-25T11:05:45Z</time>
      </trkpt>
      <trkpt lat="44.68285" lon="6.86644">
        <ele>2420.9</ele>
        <time>2026-03-25T11:05:46Z</time>
      </trkpt>
      <trkpt lat="44.68285" lon="6.86644">
        <ele>2420.8</ele>
        <time>2026-03-25T11:05:47Z</time>
      </trkpt>
      <trkpt lat="44.68285" lon="6.86644">
        <ele>2420.8</ele>
        <time>2026-03-25T11:05:48Z</time>
      </trkpt>
      <trkpt lat="44.68284" lon="6.86644">
        <ele>2421.5</ele>
        <time>2026-03-25T11:05:49Z</time>
      </trkpt>
      <trkpt lat="44.68284" lon="6.86644">
        <ele>2421.5</ele>
        <time>2026-03-25T11:05:50Z</time>
      </trkpt>
      <trkpt lat="44.68284" lon="6.86644">
        <ele>2421.5</ele>
        <time>2026-03-25T11:05:51Z</time>
      </trkpt>
      <trkpt lat="44.68284" lon="6.86644">
        <ele>2421.5</ele>
        <time>2026-03-25T11:05:52Z</time>
      </trkpt>
      <trkpt lat="44.68284" lon="6.86644">
        <ele>2421.5</ele>
        <time>2026-03-25T11:05:53Z</time>
      </trkpt>
      <trkpt lat="44.68284" lon="6.86644">
        <ele>2421.5</ele>
        <time>2026-03-25T11:05:54Z</time>
      </trkpt>
      <trkpt lat="44.68284" lon="6.86644">
        <ele>2421.5</ele>
        <time>2026-03-25T11:05:55Z</time>
      </trkpt>
      <trkpt lat="44.68284" lon="6.86644">
        <ele>2421.5</ele>
        <time>2026-03-25T11:05:56Z</time>
      </trkpt>
      <trkpt lat="44.68284" lon="6.86644">
        <ele>2421.5</ele>
        <time>2026-03-25T11:05:57Z</time>
      </trkpt>
      <trkpt lat="44.68283" lon="6.86644">
        <ele>2421.5</ele>
        <time>2026-03-25T11:05:58Z</time>
      </trkpt>
      <trkpt lat="44.68283" lon="6.86644">
        <ele>2421.5</ele>
        <time>2026-03-25T11:05:59Z</time>
      </trkpt>
      <trkpt lat="44.68283" lon="6.86644">
        <ele>2421.5</ele>
        <time>2026-03-25T11:06:00Z</time>
      </trkpt>
      <trkpt lat="44.68283" lon="6.86644">
        <ele>2421.5</ele>
        <time>2026-03-25T11:06:01Z</time>
      </trkpt>
      <trkpt lat="44.68282" lon="6.86644">
        <ele>2421.5</ele>
        <time>2026-03-25T11:06:02Z</time>
      </trkpt>
      <trkpt lat="44.68282" lon="6.86644">
        <ele>2421.5</ele>
        <time>2026-03-25T11:06:03Z</time>
      </trkpt>
      <trkpt lat="44.68282" lon="6.86644">
        <ele>2421.5</ele>
        <time>2026-03-25T11:06:04Z</time>
      </trkpt>
      <trkpt lat="44.68282" lon="6.86644">
        <ele>2421.5</ele>
        <time>2026-03-25T11:06:05Z</time>
      </trkpt>
      <trkpt lat="44.68282" lon="6.86644">
        <ele>2421.5</ele>
        <time>2026-03-25T11:06:06Z</time>
      </trkpt>
      <trkpt lat="44.68282" lon="6.86644">
        <ele>2421.5</ele>
        <time>2026-03-25T11:06:07Z</time>
      </trkpt>
      <trkpt lat="44.68282" lon="6.86644">
        <ele>2421.5</ele>
        <time>2026-03-25T11:06:08Z</time>
      </trkpt>
      <trkpt lat="44.68282" lon="6.86644">
        <ele>2421.5</ele>
        <time>2026-03-25T11:06:09Z</time>
      </trkpt>
      <trkpt lat="44.68282" lon="6.86644">
        <ele>2421.5</ele>
        <time>2026-03-25T11:06:10Z</time>
      </trkpt>
      <trkpt lat="44.68282" lon="6.86644">
        <ele>2421.5</ele>
        <time>2026-03-25T11:06:11Z</time>
      </trkpt>
      <trkpt lat="44.68282" lon="6.86644">
        <ele>2421.5</ele>
        <time>2026-03-25T11:06:12Z</time>
      </trkpt>
      <trkpt lat="44.68282" lon="6.86644">
        <ele>2421.5</ele>
        <time>2026-03-25T11:06:13Z</time>
      </trkpt>
      <trkpt lat="44.68282" lon="6.86644">
        <ele>2421.5</ele>
        <time>2026-03-25T11:06:14Z</time>
      </trkpt>
      <trkpt lat="44.68282" lon="6.86644">
        <ele>2421.5</ele>
        <time>2026-03-25T11:06:15Z</time>
      </trkpt>
      <trkpt lat="44.68281" lon="6.86644">
        <ele>2421.5</ele>
        <time>2026-03-25T11:06:16Z</time>
      </trkpt>
      <trkpt lat="44.68281" lon="6.86643">
        <ele>2422.2</ele>
        <time>2026-03-25T11:06:17Z</time>
      </trkpt>
      <trkpt lat="44.68281" lon="6.86643">
        <ele>2422.2</ele>
        <time>2026-03-25T11:06:18Z</time>
      </trkpt>
      <trkpt lat="44.6828" lon="6.86643">
        <ele>2422.2</ele>
        <time>2026-03-25T11:06:19Z</time>
      </trkpt>
      <trkpt lat="44.6828" lon="6.86643">
        <ele>2422.2</ele>
        <time>2026-03-25T11:06:20Z</time>
      </trkpt>
      <trkpt lat="44.6828" lon="6.86643">
        <ele>2422.2</ele>
        <time>2026-03-25T11:06:21Z</time>
      </trkpt>
      <trkpt lat="44.68279" lon="6.86642">
        <ele>2422.2</ele>
        <time>2026-03-25T11:06:22Z</time>
      </trkpt>
      <trkpt lat="44.68279" lon="6.86641">
        <ele>2422.2</ele>
        <time>2026-03-25T11:06:23Z</time>
      </trkpt>
      <trkpt lat="44.68279" lon="6.8664">
        <ele>2420.6</ele>
        <time>2026-03-25T11:06:24Z</time>
      </trkpt>
      <trkpt lat="44.68278" lon="6.86639">
        <ele>2421.4</ele>
        <time>2026-03-25T11:06:25Z</time>
      </trkpt>
      <trkpt lat="44.68278" lon="6.86638">
        <ele>2421.4</ele>
        <time>2026-03-25T11:06:26Z</time>
      </trkpt>
      <trkpt lat="44.68277" lon="6.86638">
        <ele>2421.4</ele>
        <time>2026-03-25T11:06:27Z</time>
      </trkpt>
      <trkpt lat="44.68276" lon="6.86637">
        <ele>2421.4</ele>
        <time>2026-03-25T11:06:28Z</time>
      </trkpt>
      <trkpt lat="44.68276" lon="6.86637">
        <ele>2419.8</ele>
        <time>2026-03-25T11:06:29Z</time>
      </trkpt>
      <trkpt lat="44.68275" lon="6.86636">
        <ele>2420.5</ele>
        <time>2026-03-25T11:06:30Z</time>
      </trkpt>
      <trkpt lat="44.68274" lon="6.86636">
        <ele>2420.5</ele>
        <time>2026-03-25T11:06:31Z</time>
      </trkpt>
      <trkpt lat="44.68274" lon="6.86635">
        <ele>2420.5</ele>
        <time>2026-03-25T11:06:32Z</time>
      </trkpt>
      <trkpt lat="44.68273" lon="6.86635">
        <ele>2420.5</ele>
        <time>2026-03-25T11:06:33Z</time>
      </trkpt>
      <trkpt lat="44.68273" lon="6.86635">
        <ele>2420.5</ele>
        <time>2026-03-25T11:06:34Z</time>
      </trkpt>
      <trkpt lat="44.68272" lon="6.86635">
        <ele>2421.2</ele>
        <time>2026-03-25T11:06:36Z</time>
      </trkpt>
      <trkpt lat="44.68272" lon="6.86635">
        <ele>2421.2</ele>
        <time>2026-03-25T11:06:37Z</time>
      </trkpt>
      <trkpt lat="44.68271" lon="6.86634">
        <ele>2421.2</ele>
        <time>2026-03-25T11:06:38Z</time>
      </trkpt>
      <trkpt lat="44.6827" lon="6.86634">
        <ele>2421.2</ele>
        <time>2026-03-25T11:06:39Z</time>
      </trkpt>
      <trkpt lat="44.6827" lon="6.86634">
        <ele>2421.2</ele>
        <time>2026-03-25T11:06:40Z</time>
      </trkpt>
      <trkpt lat="44.6827" lon="6.86634">
        <ele>2421.2</ele>
        <time>2026-03-25T11:06:41Z</time>
      </trkpt>
      <trkpt lat="44.68269" lon="6.86634">
        <ele>2421.2</ele>
        <time>2026-03-25T11:06:42Z</time>
      </trkpt>
      <trkpt lat="44.68269" lon="6.86634">
        <ele>2421.2</ele>
        <time>2026-03-25T11:06:43Z</time>
      </trkpt>
      <trkpt lat="44.68269" lon="6.86634">
        <ele>2421.9</ele>
        <time>2026-03-25T11:06:44Z</time>
      </trkpt>
      <trkpt lat="44.68268" lon="6.86633">
        <ele>2421.9</ele>
        <time>2026-03-25T11:06:45Z</time>
      </trkpt>
      <trkpt lat="44.68268" lon="6.86633">
        <ele>2421.9</ele>
        <time>2026-03-25T11:06:46Z</time>
      </trkpt>
      <trkpt lat="44.68267" lon="6.86633">
        <ele>2421.9</ele>
        <time>2026-03-25T11:06:47Z</time>
      </trkpt>
      <trkpt lat="44.68267" lon="6.86632">
        <ele>2420.4</ele>
        <time>2026-03-25T11:06:48Z</time>
      </trkpt>
      <trkpt lat="44.68266" lon="6.86632">
        <ele>2420.4</ele>
        <time>2026-03-25T11:06:49Z</time>
      </trkpt>
      <trkpt lat="44.68266" lon="6.86632">
        <ele>2421.1</ele>
        <time>2026-03-25T11:06:50Z</time>
      </trkpt>
      <trkpt lat="44.68265" lon="6.86632">
        <ele>2421.1</ele>
        <time>2026-03-25T11:06:51Z</time>
      </trkpt>
      <trkpt lat="44.68265" lon="6.86632">
        <ele>2421.1</ele>
        <time>2026-03-25T11:06:52Z</time>
      </trkpt>
      <trkpt lat="44.68265" lon="6.86633">
        <ele>2421.1</ele>
        <time>2026-03-25T11:06:54Z</time>
      </trkpt>
      <trkpt lat="44.68265" lon="6.86633">
        <ele>2422.6</ele>
        <time>2026-03-25T11:06:55Z</time>
      </trkpt>
      <trkpt lat="44.68264" lon="6.86634">
        <ele>2422.6</ele>
        <time>2026-03-25T11:06:56Z</time>
      </trkpt>
      <trkpt lat="44.68264" lon="6.86634">
        <ele>2422.6</ele>
        <time>2026-03-25T11:06:57Z</time>
      </trkpt>
      <trkpt lat="44.68264" lon="6.86635">
        <ele>2422.6</ele>
        <time>2026-03-25T11:06:58Z</time>
      </trkpt>
      <trkpt lat="44.68264" lon="6.86636">
        <ele>2422.6</ele>
        <time>2026-03-25T11:06:59Z</time>
      </trkpt>
      <trkpt lat="44.68264" lon="6.86636">
        <ele>2422.6</ele>
        <time>2026-03-25T11:07:00Z</time>
      </trkpt>
      <trkpt lat="44.68264" lon="6.86637">
        <ele>2422.6</ele>
        <time>2026-03-25T11:07:01Z</time>
      </trkpt>
      <trkpt lat="44.68264" lon="6.86637">
        <ele>2422.6</ele>
        <time>2026-03-25T11:07:02Z</time>
      </trkpt>
      <trkpt lat="44.68264" lon="6.86638">
        <ele>2424</ele>
        <time>2026-03-25T11:07:03Z</time>
      </trkpt>
      <trkpt lat="44.68264" lon="6.86639">
        <ele>2424</ele>
        <time>2026-03-25T11:07:04Z</time>
      </trkpt>
      <trkpt lat="44.68264" lon="6.8664">
        <ele>2424</ele>
        <time>2026-03-25T11:07:05Z</time>
      </trkpt>
      <trkpt lat="44.68265" lon="6.86641">
        <ele>2424</ele>
        <time>2026-03-25T11:07:06Z</time>
      </trkpt>
      <trkpt lat="44.68265" lon="6.86642">
        <ele>2425.5</ele>
        <time>2026-03-25T11:07:08Z</time>
      </trkpt>
      <trkpt lat="44.68265" lon="6.86643">
        <ele>2425.5</ele>
        <time>2026-03-25T11:07:09Z</time>
      </trkpt>
      <trkpt lat="44.68264" lon="6.86645">
        <ele>2425.5</ele>
        <time>2026-03-25T11:07:10Z</time>
      </trkpt>
      <trkpt lat="44.68264" lon="6.86645">
        <ele>2425.5</ele>
        <time>2026-03-25T11:07:12Z</time>
      </trkpt>
      <trkpt lat="44.68264" lon="6.86645">
        <ele>2425.5</ele>
        <time>2026-03-25T11:07:13Z</time>
      </trkpt>
      <trkpt lat="44.68265" lon="6.86645">
        <ele>2425.5</ele>
        <time>2026-03-25T11:07:14Z</time>
      </trkpt>
      <trkpt lat="44.68265" lon="6.86645">
        <ele>2425.5</ele>
        <time>2026-03-25T11:07:15Z</time>
      </trkpt>
      <trkpt lat="44.68264" lon="6.86645">
        <ele>2425.5</ele>
        <time>2026-03-25T11:07:16Z</time>
      </trkpt>
      <trkpt lat="44.68265" lon="6.86645">
        <ele>2425.5</ele>
        <time>2026-03-25T11:07:17Z</time>
      </trkpt>
      <trkpt lat="44.68265" lon="6.86646">
        <ele>2425.5</ele>
        <time>2026-03-25T11:07:18Z</time>
      </trkpt>
      <trkpt lat="44.68265" lon="6.86646">
        <ele>2427.9</ele>
        <time>2026-03-25T11:07:19Z</time>
      </trkpt>
      <trkpt lat="44.68265" lon="6.86647">
        <ele>2427.9</ele>
        <time>2026-03-25T11:07:20Z</time>
      </trkpt>
      <trkpt lat="44.68265" lon="6.86647">
        <ele>2427.9</ele>
        <time>2026-03-25T11:07:21Z</time>
      </trkpt>
      <trkpt lat="44.68265" lon="6.86648">
        <ele>2427.9</ele>
        <time>2026-03-25T11:07:22Z</time>
      </trkpt>
      <trkpt lat="44.68265" lon="6.86648">
        <ele>2427.9</ele>
        <time>2026-03-25T11:07:23Z</time>
      </trkpt>
      <trkpt lat="44.68265" lon="6.86649">
        <ele>2427.9</ele>
        <time>2026-03-25T11:07:24Z</time>
      </trkpt>
      <trkpt lat="44.68265" lon="6.8665">
        <ele>2427.9</ele>
        <time>2026-03-25T11:07:25Z</time>
      </trkpt>
      <trkpt lat="44.68265" lon="6.8665">
        <ele>2429.4</ele>
        <time>2026-03-25T11:07:26Z</time>
      </trkpt>
      <trkpt lat="44.68265" lon="6.86651">
        <ele>2429.4</ele>
        <time>2026-03-25T11:07:27Z</time>
      </trkpt>
      <trkpt lat="44.68265" lon="6.86652">
        <ele>2429.4</ele>
        <time>2026-03-25T11:07:28Z</time>
      </trkpt>
      <trkpt lat="44.68265" lon="6.86653">
        <ele>2429.4</ele>
        <time>2026-03-25T11:07:29Z</time>
      </trkpt>
      <trkpt lat="44.68265" lon="6.86653">
        <ele>2429.4</ele>
        <time>2026-03-25T11:07:30Z</time>
      </trkpt>
      <trkpt lat="44.68265" lon="6.86654">
        <ele>2429.4</ele>
        <time>2026-03-25T11:07:31Z</time>
      </trkpt>
      <trkpt lat="44.68265" lon="6.86655">
        <ele>2431</ele>
        <time>2026-03-25T11:07:32Z</time>
      </trkpt>
      <trkpt lat="44.68265" lon="6.86655">
        <ele>2431</ele>
        <time>2026-03-25T11:07:33Z</time>
      </trkpt>
      <trkpt lat="44.68265" lon="6.86656">
        <ele>2431</ele>
        <time>2026-03-25T11:07:34Z</time>
      </trkpt>
      <trkpt lat="44.68265" lon="6.86657">
        <ele>2431</ele>
        <time>2026-03-25T11:07:35Z</time>
      </trkpt>
      <trkpt lat="44.68264" lon="6.86658">
        <ele>2431</ele>
        <time>2026-03-25T11:07:36Z</time>
      </trkpt>
      <trkpt lat="44.68264" lon="6.86658">
        <ele>2431</ele>
        <time>2026-03-25T11:07:37Z</time>
      </trkpt>
      <trkpt lat="44.68264" lon="6.86659">
        <ele>2432.6</ele>
        <time>2026-03-25T11:07:38Z</time>
      </trkpt>
      <trkpt lat="44.68264" lon="6.8666">
        <ele>2432.6</ele>
        <time>2026-03-25T11:07:39Z</time>
      </trkpt>
      <trkpt lat="44.68264" lon="6.8666">
        <ele>2432.6</ele>
        <time>2026-03-25T11:07:40Z</time>
      </trkpt>
      <trkpt lat="44.68264" lon="6.86661">
        <ele>2432.6</ele>
        <time>2026-03-25T11:07:41Z</time>
      </trkpt>
      <trkpt lat="44.68264" lon="6.86662">
        <ele>2432.6</ele>
        <time>2026-03-25T11:07:42Z</time>
      </trkpt>
      <trkpt lat="44.68263" lon="6.86662">
        <ele>2432.6</ele>
        <time>2026-03-25T11:07:43Z</time>
      </trkpt>
      <trkpt lat="44.68263" lon="6.86663">
        <ele>2434.7</ele>
        <time>2026-03-25T11:07:44Z</time>
      </trkpt>
      <trkpt lat="44.68263" lon="6.86663">
        <ele>2434.7</ele>
        <time>2026-03-25T11:07:45Z</time>
      </trkpt>
      <trkpt lat="44.68262" lon="6.86663">
        <ele>2434.7</ele>
        <time>2026-03-25T11:07:46Z</time>
      </trkpt>
      <trkpt lat="44.68262" lon="6.86663">
        <ele>2434.7</ele>
        <time>2026-03-25T11:07:47Z</time>
      </trkpt>
      <trkpt lat="44.68262" lon="6.86663">
        <ele>2433.2</ele>
        <time>2026-03-25T11:07:48Z</time>
      </trkpt>
      <trkpt lat="44.68261" lon="6.86662">
        <ele>2433.2</ele>
        <time>2026-03-25T11:07:49Z</time>
      </trkpt>
      <trkpt lat="44.68261" lon="6.86662">
        <ele>2433.2</ele>
        <time>2026-03-25T11:07:50Z</time>
      </trkpt>
      <trkpt lat="44.6826" lon="6.86661">
        <ele>2433.8</ele>
        <time>2026-03-25T11:07:51Z</time>
      </trkpt>
      <trkpt lat="44.6826" lon="6.86661">
        <ele>2433.8</ele>
        <time>2026-03-25T11:07:52Z</time>
      </trkpt>
      <trkpt lat="44.68259" lon="6.8666">
        <ele>2433.8</ele>
        <time>2026-03-25T11:07:53Z</time>
      </trkpt>
      <trkpt lat="44.68259" lon="6.8666">
        <ele>2433.8</ele>
        <time>2026-03-25T11:07:54Z</time>
      </trkpt>
      <trkpt lat="44.68259" lon="6.86659">
        <ele>2433.8</ele>
        <time>2026-03-25T11:07:55Z</time>
      </trkpt>
      <trkpt lat="44.68258" lon="6.86659">
        <ele>2433.8</ele>
        <time>2026-03-25T11:07:56Z</time>
      </trkpt>
      <trkpt lat="44.68258" lon="6.86659">
        <ele>2433.8</ele>
        <time>2026-03-25T11:07:57Z</time>
      </trkpt>
      <trkpt lat="44.68258" lon="6.86658">
        <ele>2432.2</ele>
        <time>2026-03-25T11:07:58Z</time>
      </trkpt>
      <trkpt lat="44.68258" lon="6.86658">
        <ele>2432.2</ele>
        <time>2026-03-25T11:07:59Z</time>
      </trkpt>
      <trkpt lat="44.68257" lon="6.86657">
        <ele>2432.2</ele>
        <time>2026-03-25T11:08:00Z</time>
      </trkpt>
      <trkpt lat="44.68257" lon="6.86657">
        <ele>2432.9</ele>
        <time>2026-03-25T11:08:01Z</time>
      </trkpt>
      <trkpt lat="44.68256" lon="6.86657">
        <ele>2432.9</ele>
        <time>2026-03-25T11:08:02Z</time>
      </trkpt>
      <trkpt lat="44.68256" lon="6.86656">
        <ele>2432.9</ele>
        <time>2026-03-25T11:08:03Z</time>
      </trkpt>
      <trkpt lat="44.68255" lon="6.86656">
        <ele>2432.9</ele>
        <time>2026-03-25T11:08:04Z</time>
      </trkpt>
      <trkpt lat="44.68255" lon="6.86656">
        <ele>2432.9</ele>
        <time>2026-03-25T11:08:05Z</time>
      </trkpt>
      <trkpt lat="44.68254" lon="6.86655">
        <ele>2432.9</ele>
        <time>2026-03-25T11:08:06Z</time>
      </trkpt>
      <trkpt lat="44.68254" lon="6.86655">
        <ele>2433.6</ele>
        <time>2026-03-25T11:08:07Z</time>
      </trkpt>
      <trkpt lat="44.68253" lon="6.86654">
        <ele>2433.6</ele>
        <time>2026-03-25T11:08:08Z</time>
      </trkpt>
      <trkpt lat="44.68252" lon="6.86654">
        <ele>2432.1</ele>
        <time>2026-03-25T11:08:09Z</time>
      </trkpt>
      <trkpt lat="44.68252" lon="6.86653">
        <ele>2432.1</ele>
        <time>2026-03-25T11:08:10Z</time>
      </trkpt>
      <trkpt lat="44.68251" lon="6.86653">
        <ele>2432.1</ele>
        <time>2026-03-25T11:08:11Z</time>
      </trkpt>
      <trkpt lat="44.68251" lon="6.86652">
        <ele>2432.1</ele>
        <time>2026-03-25T11:08:12Z</time>
      </trkpt>
      <trkpt lat="44.68251" lon="6.86651">
        <ele>2432.9</ele>
        <time>2026-03-25T11:08:13Z</time>
      </trkpt>
      <trkpt lat="44.6825" lon="6.86651">
        <ele>2432.9</ele>
        <time>2026-03-25T11:08:14Z</time>
      </trkpt>
      <trkpt lat="44.6825" lon="6.8665">
        <ele>2432.9</ele>
        <time>2026-03-25T11:08:15Z</time>
      </trkpt>
      <trkpt lat="44.6825" lon="6.8665">
        <ele>2431.4</ele>
        <time>2026-03-25T11:08:16Z</time>
      </trkpt>
      <trkpt lat="44.68249" lon="6.86649">
        <ele>2431.4</ele>
        <time>2026-03-25T11:08:17Z</time>
      </trkpt>
      <trkpt lat="44.68249" lon="6.86649">
        <ele>2431.4</ele>
        <time>2026-03-25T11:08:18Z</time>
      </trkpt>
      <trkpt lat="44.68249" lon="6.86649">
        <ele>2431.4</ele>
        <time>2026-03-25T11:08:19Z</time>
      </trkpt>
      <trkpt lat="44.68248" lon="6.86649">
        <ele>2431.4</ele>
        <time>2026-03-25T11:08:20Z</time>
      </trkpt>
      <trkpt lat="44.68248" lon="6.86649">
        <ele>2432.3</ele>
        <time>2026-03-25T11:08:21Z</time>
      </trkpt>
      <trkpt lat="44.68248" lon="6.8665">
        <ele>2432.3</ele>
        <time>2026-03-25T11:08:22Z</time>
      </trkpt>
      <trkpt lat="44.68247" lon="6.8665">
        <ele>2433.7</ele>
        <time>2026-03-25T11:08:23Z</time>
      </trkpt>
      <trkpt lat="44.68247" lon="6.86651">
        <ele>2433.7</ele>
        <time>2026-03-25T11:08:24Z</time>
      </trkpt>
      <trkpt lat="44.68247" lon="6.86651">
        <ele>2433.7</ele>
        <time>2026-03-25T11:08:25Z</time>
      </trkpt>
      <trkpt lat="44.68247" lon="6.86651">
        <ele>2433.7</ele>
        <time>2026-03-25T11:08:27Z</time>
      </trkpt>
      <trkpt lat="44.68247" lon="6.86652">
        <ele>2433.7</ele>
        <time>2026-03-25T11:08:28Z</time>
      </trkpt>
      <trkpt lat="44.68247" lon="6.86652">
        <ele>2433.7</ele>
        <time>2026-03-25T11:08:29Z</time>
      </trkpt>
      <trkpt lat="44.68247" lon="6.86653">
        <ele>2433.7</ele>
        <time>2026-03-25T11:08:30Z</time>
      </trkpt>
      <trkpt lat="44.68247" lon="6.86654">
        <ele>2435.1</ele>
        <time>2026-03-25T11:08:31Z</time>
      </trkpt>
      <trkpt lat="44.68247" lon="6.86655">
        <ele>2435.1</ele>
        <time>2026-03-25T11:08:32Z</time>
      </trkpt>
      <trkpt lat="44.68247" lon="6.86656">
        <ele>2435.1</ele>
        <time>2026-03-25T11:08:33Z</time>
      </trkpt>
      <trkpt lat="44.68247" lon="6.86657">
        <ele>2435.1</ele>
        <time>2026-03-25T11:08:34Z</time>
      </trkpt>
      <trkpt lat="44.68247" lon="6.86657">
        <ele>2435.1</ele>
        <time>2026-03-25T11:08:35Z</time>
      </trkpt>
      <trkpt lat="44.68247" lon="6.86658">
        <ele>2435.1</ele>
        <time>2026-03-25T11:08:36Z</time>
      </trkpt>
      <trkpt lat="44.68246" lon="6.86659">
        <ele>2436.6</ele>
        <time>2026-03-25T11:08:37Z</time>
      </trkpt>
      <trkpt lat="44.68247" lon="6.86659">
        <ele>2436.6</ele>
        <time>2026-03-25T11:08:38Z</time>
      </trkpt>
      <trkpt lat="44.68247" lon="6.8666">
        <ele>2436.6</ele>
        <time>2026-03-25T11:08:39Z</time>
      </trkpt>
      <trkpt lat="44.68246" lon="6.86661">
        <ele>2436.6</ele>
        <time>2026-03-25T11:08:40Z</time>
      </trkpt>
      <trkpt lat="44.68246" lon="6.86662">
        <ele>2436.6</ele>
        <time>2026-03-25T11:08:41Z</time>
      </trkpt>
      <trkpt lat="44.68246" lon="6.86663">
        <ele>2436.6</ele>
        <time>2026-03-25T11:08:42Z</time>
      </trkpt>
      <trkpt lat="44.68246" lon="6.86663">
        <ele>2438</ele>
        <time>2026-03-25T11:08:43Z</time>
      </trkpt>
      <trkpt lat="44.68246" lon="6.86664">
        <ele>2438</ele>
        <time>2026-03-25T11:08:44Z</time>
      </trkpt>
      <trkpt lat="44.68246" lon="6.86665">
        <ele>2438</ele>
        <time>2026-03-25T11:08:45Z</time>
      </trkpt>
      <trkpt lat="44.68246" lon="6.86665">
        <ele>2438</ele>
        <time>2026-03-25T11:08:46Z</time>
      </trkpt>
      <trkpt lat="44.68246" lon="6.86666">
        <ele>2438</ele>
        <time>2026-03-25T11:08:47Z</time>
      </trkpt>
      <trkpt lat="44.68246" lon="6.86666">
        <ele>2438</ele>
        <time>2026-03-25T11:08:48Z</time>
      </trkpt>
      <trkpt lat="44.68246" lon="6.86667">
        <ele>2439.4</ele>
        <time>2026-03-25T11:08:49Z</time>
      </trkpt>
      <trkpt lat="44.68246" lon="6.86667">
        <ele>2439.4</ele>
        <time>2026-03-25T11:08:50Z</time>
      </trkpt>
      <trkpt lat="44.68246" lon="6.86668">
        <ele>2439.4</ele>
        <time>2026-03-25T11:08:51Z</time>
      </trkpt>
      <trkpt lat="44.68246" lon="6.86668">
        <ele>2439.4</ele>
        <time>2026-03-25T11:08:52Z</time>
      </trkpt>
      <trkpt lat="44.68246" lon="6.86668">
        <ele>2439.4</ele>
        <time>2026-03-25T11:08:53Z</time>
      </trkpt>
      <trkpt lat="44.68246" lon="6.86669">
        <ele>2439.4</ele>
        <time>2026-03-25T11:08:54Z</time>
      </trkpt>
      <trkpt lat="44.68246" lon="6.86669">
        <ele>2439.4</ele>
        <time>2026-03-25T11:08:55Z</time>
      </trkpt>
      <trkpt lat="44.68246" lon="6.8667">
        <ele>2439.4</ele>
        <time>2026-03-25T11:08:56Z</time>
      </trkpt>
      <trkpt lat="44.68246" lon="6.86671">
        <ele>2439.4</ele>
        <time>2026-03-25T11:08:57Z</time>
      </trkpt>
      <trkpt lat="44.68246" lon="6.86672">
        <ele>2440.8</ele>
        <time>2026-03-25T11:08:58Z</time>
      </trkpt>
      <trkpt lat="44.68246" lon="6.86672">
        <ele>2440.8</ele>
        <time>2026-03-25T11:08:59Z</time>
      </trkpt>
      <trkpt lat="44.68246" lon="6.86673">
        <ele>2440.8</ele>
        <time>2026-03-25T11:09:00Z</time>
      </trkpt>
      <trkpt lat="44.68246" lon="6.86674">
        <ele>2440.8</ele>
        <time>2026-03-25T11:09:01Z</time>
      </trkpt>
      <trkpt lat="44.68246" lon="6.86674">
        <ele>2440.8</ele>
        <time>2026-03-25T11:09:02Z</time>
      </trkpt>
      <trkpt lat="44.68246" lon="6.86675">
        <ele>2440.8</ele>
        <time>2026-03-25T11:09:03Z</time>
      </trkpt>
      <trkpt lat="44.68246" lon="6.86676">
        <ele>2442.1</ele>
        <time>2026-03-25T11:09:04Z</time>
      </trkpt>
      <trkpt lat="44.68246" lon="6.86677">
        <ele>2442.1</ele>
        <time>2026-03-25T11:09:05Z</time>
      </trkpt>
      <trkpt lat="44.68246" lon="6.86677">
        <ele>2442.1</ele>
        <time>2026-03-25T11:09:06Z</time>
      </trkpt>
      <trkpt lat="44.68245" lon="6.86678">
        <ele>2442.1</ele>
        <time>2026-03-25T11:09:07Z</time>
      </trkpt>
      <trkpt lat="44.68245" lon="6.86679">
        <ele>2442.1</ele>
        <time>2026-03-25T11:09:08Z</time>
      </trkpt>
      <trkpt lat="44.68245" lon="6.8668">
        <ele>2442.1</ele>
        <time>2026-03-25T11:09:09Z</time>
      </trkpt>
      <trkpt lat="44.68245" lon="6.8668">
        <ele>2443.4</ele>
        <time>2026-03-25T11:09:10Z</time>
      </trkpt>
      <trkpt lat="44.68246" lon="6.86681">
        <ele>2443.4</ele>
        <time>2026-03-25T11:09:11Z</time>
      </trkpt>
      <trkpt lat="44.68246" lon="6.86682">
        <ele>2443.4</ele>
        <time>2026-03-25T11:09:12Z</time>
      </trkpt>
      <trkpt lat="44.68246" lon="6.86682">
        <ele>2443.4</ele>
        <time>2026-03-25T11:09:13Z</time>
      </trkpt>
      <trkpt lat="44.68246" lon="6.86683">
        <ele>2443.4</ele>
        <time>2026-03-25T11:09:14Z</time>
      </trkpt>
      <trkpt lat="44.68246" lon="6.86683">
        <ele>2443.4</ele>
        <time>2026-03-25T11:09:15Z</time>
      </trkpt>
      <trkpt lat="44.68246" lon="6.86684">
        <ele>2443.4</ele>
        <time>2026-03-25T11:09:16Z</time>
      </trkpt>
      <trkpt lat="44.68246" lon="6.86685">
        <ele>2444.8</ele>
        <time>2026-03-25T11:09:17Z</time>
      </trkpt>
      <trkpt lat="44.68246" lon="6.86686">
        <ele>2444.8</ele>
        <time>2026-03-25T11:09:18Z</time>
      </trkpt>
      <trkpt lat="44.68246" lon="6.86686">
        <ele>2444.8</ele>
        <time>2026-03-25T11:09:19Z</time>
      </trkpt>
      <trkpt lat="44.68246" lon="6.86687">
        <ele>2444.8</ele>
        <time>2026-03-25T11:09:20Z</time>
      </trkpt>
      <trkpt lat="44.68246" lon="6.86688">
        <ele>2444.8</ele>
        <time>2026-03-25T11:09:21Z</time>
      </trkpt>
      <trkpt lat="44.68246" lon="6.86689">
        <ele>2446.3</ele>
        <time>2026-03-25T11:09:22Z</time>
      </trkpt>
      <trkpt lat="44.68246" lon="6.86689">
        <ele>2446.3</ele>
        <time>2026-03-25T11:09:23Z</time>
      </trkpt>
      <trkpt lat="44.68246" lon="6.8669">
        <ele>2446.3</ele>
        <time>2026-03-25T11:09:24Z</time>
      </trkpt>
      <trkpt lat="44.68246" lon="6.86691">
        <ele>2446.3</ele>
        <time>2026-03-25T11:09:25Z</time>
      </trkpt>
      <trkpt lat="44.68246" lon="6.86691">
        <ele>2446.3</ele>
        <time>2026-03-25T11:09:26Z</time>
      </trkpt>
      <trkpt lat="44.68246" lon="6.86692">
        <ele>2446.3</ele>
        <time>2026-03-25T11:09:27Z</time>
      </trkpt>
      <trkpt lat="44.68246" lon="6.86693">
        <ele>2447.9</ele>
        <time>2026-03-25T11:09:28Z</time>
      </trkpt>
      <trkpt lat="44.68246" lon="6.86694">
        <ele>2447.9</ele>
        <time>2026-03-25T11:09:29Z</time>
      </trkpt>
      <trkpt lat="44.68246" lon="6.86694">
        <ele>2447.9</ele>
        <time>2026-03-25T11:09:30Z</time>
      </trkpt>
      <trkpt lat="44.68246" lon="6.86695">
        <ele>2447.9</ele>
        <time>2026-03-25T11:09:31Z</time>
      </trkpt>
      <trkpt lat="44.68246" lon="6.86696">
        <ele>2447.9</ele>
        <time>2026-03-25T11:09:33Z</time>
      </trkpt>
      <trkpt lat="44.68247" lon="6.86696">
        <ele>2447.9</ele>
        <time>2026-03-25T11:09:34Z</time>
      </trkpt>
      <trkpt lat="44.68247" lon="6.86696">
        <ele>2447.9</ele>
        <time>2026-03-25T11:09:35Z</time>
      </trkpt>
      <trkpt lat="44.68247" lon="6.86697">
        <ele>2447.9</ele>
        <time>2026-03-25T11:09:36Z</time>
      </trkpt>
      <trkpt lat="44.68247" lon="6.86698">
        <ele>2449.5</ele>
        <time>2026-03-25T11:09:37Z</time>
      </trkpt>
      <trkpt lat="44.68247" lon="6.86698">
        <ele>2449.5</ele>
        <time>2026-03-25T11:09:39Z</time>
      </trkpt>
      <trkpt lat="44.68247" lon="6.86699">
        <ele>2449.5</ele>
        <time>2026-03-25T11:09:40Z</time>
      </trkpt>
      <trkpt lat="44.68248" lon="6.86699">
        <ele>2449.5</ele>
        <time>2026-03-25T11:09:41Z</time>
      </trkpt>
      <trkpt lat="44.68248" lon="6.867">
        <ele>2449.5</ele>
        <time>2026-03-25T11:09:42Z</time>
      </trkpt>
      <trkpt lat="44.68248" lon="6.86701">
        <ele>2448.9</ele>
        <time>2026-03-25T11:09:44Z</time>
      </trkpt>
      <trkpt lat="44.68248" lon="6.86702">
        <ele>2450.6</ele>
        <time>2026-03-25T11:09:45Z</time>
      </trkpt>
      <trkpt lat="44.68248" lon="6.86702">
        <ele>2450.6</ele>
        <time>2026-03-25T11:09:46Z</time>
      </trkpt>
      <trkpt lat="44.68248" lon="6.86703">
        <ele>2450.6</ele>
        <time>2026-03-25T11:09:47Z</time>
      </trkpt>
      <trkpt lat="44.68248" lon="6.86704">
        <ele>2451.1</ele>
        <time>2026-03-25T11:09:48Z</time>
      </trkpt>
      <trkpt lat="44.68248" lon="6.86704">
        <ele>2451.1</ele>
        <time>2026-03-25T11:09:49Z</time>
      </trkpt>
      <trkpt lat="44.68247" lon="6.86705">
        <ele>2451.1</ele>
        <time>2026-03-25T11:09:50Z</time>
      </trkpt>
      <trkpt lat="44.68247" lon="6.86705">
        <ele>2451.1</ele>
        <time>2026-03-25T11:09:51Z</time>
      </trkpt>
      <trkpt lat="44.68247" lon="6.86705">
        <ele>2451.1</ele>
        <time>2026-03-25T11:09:52Z</time>
      </trkpt>
      <trkpt lat="44.68247" lon="6.86706">
        <ele>2452.7</ele>
        <time>2026-03-25T11:09:53Z</time>
      </trkpt>
      <trkpt lat="44.68247" lon="6.86706">
        <ele>2452.7</ele>
        <time>2026-03-25T11:09:54Z</time>
      </trkpt>
      <trkpt lat="44.68246" lon="6.86706">
        <ele>2452.7</ele>
        <time>2026-03-25T11:09:55Z</time>
      </trkpt>
      <trkpt lat="44.68246" lon="6.86706">
        <ele>2452.7</ele>
        <time>2026-03-25T11:09:56Z</time>
      </trkpt>
      <trkpt lat="44.68246" lon="6.86707">
        <ele>2452.7</ele>
        <time>2026-03-25T11:09:57Z</time>
      </trkpt>
      <trkpt lat="44.68245" lon="6.86707">
        <ele>2452.7</ele>
        <time>2026-03-25T11:09:58Z</time>
      </trkpt>
      <trkpt lat="44.68245" lon="6.86707">
        <ele>2452.7</ele>
        <time>2026-03-25T11:09:59Z</time>
      </trkpt>
      <trkpt lat="44.68245" lon="6.86707">
        <ele>2453.2</ele>
        <time>2026-03-25T11:10:00Z</time>
      </trkpt>
      <trkpt lat="44.68244" lon="6.86707">
        <ele>2453.2</ele>
        <time>2026-03-25T11:10:01Z</time>
      </trkpt>
      <trkpt lat="44.68244" lon="6.86707">
        <ele>2453.2</ele>
        <time>2026-03-25T11:10:02Z</time>
      </trkpt>
      <trkpt lat="44.68244" lon="6.86707">
        <ele>2453.2</ele>
        <time>2026-03-25T11:10:03Z</time>
      </trkpt>
      <trkpt lat="44.68244" lon="6.86707">
        <ele>2453.2</ele>
        <time>2026-03-25T11:10:04Z</time>
      </trkpt>
      <trkpt lat="44.68244" lon="6.86707">
        <ele>2453.2</ele>
        <time>2026-03-25T11:10:05Z</time>
      </trkpt>
      <trkpt lat="44.68244" lon="6.86707">
        <ele>2453.2</ele>
        <time>2026-03-25T11:10:06Z</time>
      </trkpt>
      <trkpt lat="44.68243" lon="6.86707">
        <ele>2453.2</ele>
        <time>2026-03-25T11:10:07Z</time>
      </trkpt>
      <trkpt lat="44.68243" lon="6.86707">
        <ele>2453.2</ele>
        <time>2026-03-25T11:10:08Z</time>
      </trkpt>
      <trkpt lat="44.68242" lon="6.86707">
        <ele>2453.2</ele>
        <time>2026-03-25T11:10:09Z</time>
      </trkpt>
      <trkpt lat="44.68242" lon="6.86707">
        <ele>2453.2</ele>
        <time>2026-03-25T11:10:10Z</time>
      </trkpt>
      <trkpt lat="44.68242" lon="6.86707">
        <ele>2453.8</ele>
        <time>2026-03-25T11:10:11Z</time>
      </trkpt>
      <trkpt lat="44.68241" lon="6.86707">
        <ele>2453.8</ele>
        <time>2026-03-25T11:10:12Z</time>
      </trkpt>
      <trkpt lat="44.68241" lon="6.86707">
        <ele>2453.8</ele>
        <time>2026-03-25T11:10:13Z</time>
      </trkpt>
      <trkpt lat="44.6824" lon="6.86707">
        <ele>2453.8</ele>
        <time>2026-03-25T11:10:14Z</time>
      </trkpt>
      <trkpt lat="44.6824" lon="6.86707">
        <ele>2453.8</ele>
        <time>2026-03-25T11:10:15Z</time>
      </trkpt>
      <trkpt lat="44.68239" lon="6.86707">
        <ele>2453.8</ele>
        <time>2026-03-25T11:10:16Z</time>
      </trkpt>
      <trkpt lat="44.68239" lon="6.86707">
        <ele>2453.8</ele>
        <time>2026-03-25T11:10:17Z</time>
      </trkpt>
      <trkpt lat="44.68238" lon="6.86707">
        <ele>2454.3</ele>
        <time>2026-03-25T11:10:18Z</time>
      </trkpt>
      <trkpt lat="44.68237" lon="6.86707">
        <ele>2454.3</ele>
        <time>2026-03-25T11:10:19Z</time>
      </trkpt>
      <trkpt lat="44.68237" lon="6.86707">
        <ele>2454.3</ele>
        <time>2026-03-25T11:10:20Z</time>
      </trkpt>
      <trkpt lat="44.68236" lon="6.86707">
        <ele>2454.3</ele>
        <time>2026-03-25T11:10:21Z</time>
      </trkpt>
      <trkpt lat="44.68236" lon="6.86707">
        <ele>2454.3</ele>
        <time>2026-03-25T11:10:22Z</time>
      </trkpt>
      <trkpt lat="44.68235" lon="6.86707">
        <ele>2454.8</ele>
        <time>2026-03-25T11:10:23Z</time>
      </trkpt>
      <trkpt lat="44.68234" lon="6.86707">
        <ele>2454.8</ele>
        <time>2026-03-25T11:10:24Z</time>
      </trkpt>
      <trkpt lat="44.68234" lon="6.86707">
        <ele>2454.8</ele>
        <time>2026-03-25T11:10:25Z</time>
      </trkpt>
      <trkpt lat="44.68235" lon="6.86707">
        <ele>2454.8</ele>
        <time>2026-03-25T11:10:26Z</time>
      </trkpt>
      <trkpt lat="44.68235" lon="6.86707">
        <ele>2454.8</ele>
        <time>2026-03-25T11:10:27Z</time>
      </trkpt>
      <trkpt lat="44.68236" lon="6.86708">
        <ele>2454.8</ele>
        <time>2026-03-25T11:10:29Z</time>
      </trkpt>
      <trkpt lat="44.68236" lon="6.86708">
        <ele>2454.8</ele>
        <time>2026-03-25T11:10:30Z</time>
      </trkpt>
      <trkpt lat="44.68236" lon="6.86708">
        <ele>2454.8</ele>
        <time>2026-03-25T11:10:31Z</time>
      </trkpt>
      <trkpt lat="44.68235" lon="6.86707">
        <ele>2454.8</ele>
        <time>2026-03-25T11:10:32Z</time>
      </trkpt>
      <trkpt lat="44.68235" lon="6.86708">
        <ele>2454.8</ele>
        <time>2026-03-25T11:10:33Z</time>
      </trkpt>
      <trkpt lat="44.68235" lon="6.86708">
        <ele>2454.8</ele>
        <time>2026-03-25T11:10:34Z</time>
      </trkpt>
      <trkpt lat="44.68235" lon="6.86708">
        <ele>2454.8</ele>
        <time>2026-03-25T11:10:35Z</time>
      </trkpt>
      <trkpt lat="44.68235" lon="6.86708">
        <ele>2454.8</ele>
        <time>2026-03-25T11:10:36Z</time>
      </trkpt>
      <trkpt lat="44.68234" lon="6.86708">
        <ele>2454.8</ele>
        <time>2026-03-25T11:10:37Z</time>
      </trkpt>
      <trkpt lat="44.68234" lon="6.86708">
        <ele>2454.8</ele>
        <time>2026-03-25T11:10:38Z</time>
      </trkpt>
      <trkpt lat="44.68233" lon="6.86708">
        <ele>2454.8</ele>
        <time>2026-03-25T11:10:39Z</time>
      </trkpt>
      <trkpt lat="44.68232" lon="6.86707">
        <ele>2455.3</ele>
        <time>2026-03-25T11:10:40Z</time>
      </trkpt>
      <trkpt lat="44.68231" lon="6.86707">
        <ele>2455.3</ele>
        <time>2026-03-25T11:10:41Z</time>
      </trkpt>
      <trkpt lat="44.68231" lon="6.86707">
        <ele>2455.3</ele>
        <time>2026-03-25T11:10:42Z</time>
      </trkpt>
      <trkpt lat="44.6823" lon="6.86707">
        <ele>2455.3</ele>
        <time>2026-03-25T11:10:43Z</time>
      </trkpt>
      <trkpt lat="44.68229" lon="6.86707">
        <ele>2456</ele>
        <time>2026-03-25T11:10:44Z</time>
      </trkpt>
      <trkpt lat="44.68229" lon="6.86707">
        <ele>2456</ele>
        <time>2026-03-25T11:10:45Z</time>
      </trkpt>
      <trkpt lat="44.68229" lon="6.86707">
        <ele>2456</ele>
        <time>2026-03-25T11:10:46Z</time>
      </trkpt>
      <trkpt lat="44.68228" lon="6.86707">
        <ele>2456</ele>
        <time>2026-03-25T11:10:47Z</time>
      </trkpt>
      <trkpt lat="44.68227" lon="6.86707">
        <ele>2456</ele>
        <time>2026-03-25T11:10:48Z</time>
      </trkpt>
      <trkpt lat="44.68226" lon="6.86707">
        <ele>2456.8</ele>
        <time>2026-03-25T11:10:49Z</time>
      </trkpt>
      <trkpt lat="44.68226" lon="6.86707">
        <ele>2456.8</ele>
        <time>2026-03-25T11:10:50Z</time>
      </trkpt>
      <trkpt lat="44.68225" lon="6.86706">
        <ele>2456.8</ele>
        <time>2026-03-25T11:10:51Z</time>
      </trkpt>
      <trkpt lat="44.68224" lon="6.86706">
        <ele>2456.8</ele>
        <time>2026-03-25T11:10:52Z</time>
      </trkpt>
      <trkpt lat="44.68224" lon="6.86706">
        <ele>2456.8</ele>
        <time>2026-03-25T11:10:53Z</time>
      </trkpt>
      <trkpt lat="44.68223" lon="6.86706">
        <ele>2457.7</ele>
        <time>2026-03-25T11:10:54Z</time>
      </trkpt>
      <trkpt lat="44.68223" lon="6.86705">
        <ele>2456.3</ele>
        <time>2026-03-25T11:10:55Z</time>
      </trkpt>
      <trkpt lat="44.68222" lon="6.86705">
        <ele>2456.3</ele>
        <time>2026-03-25T11:10:56Z</time>
      </trkpt>
      <trkpt lat="44.68222" lon="6.86705">
        <ele>2456.3</ele>
        <time>2026-03-25T11:10:57Z</time>
      </trkpt>
      <trkpt lat="44.68222" lon="6.86705">
        <ele>2456.3</ele>
        <time>2026-03-25T11:10:58Z</time>
      </trkpt>
      <trkpt lat="44.68221" lon="6.86704">
        <ele>2456.3</ele>
        <time>2026-03-25T11:10:59Z</time>
      </trkpt>
      <trkpt lat="44.68221" lon="6.86704">
        <ele>2456.3</ele>
        <time>2026-03-25T11:11:00Z</time>
      </trkpt>
      <trkpt lat="44.68221" lon="6.86704">
        <ele>2456.3</ele>
        <time>2026-03-25T11:11:01Z</time>
      </trkpt>
      <trkpt lat="44.6822" lon="6.86704">
        <ele>2456.3</ele>
        <time>2026-03-25T11:11:02Z</time>
      </trkpt>
      <trkpt lat="44.6822" lon="6.86704">
        <ele>2457.2</ele>
        <time>2026-03-25T11:11:03Z</time>
      </trkpt>
      <trkpt lat="44.6822" lon="6.86703">
        <ele>2457.2</ele>
        <time>2026-03-25T11:11:04Z</time>
      </trkpt>
      <trkpt lat="44.6822" lon="6.86703">
        <ele>2457.2</ele>
        <time>2026-03-25T11:11:05Z</time>
      </trkpt>
      <trkpt lat="44.68219" lon="6.86703">
        <ele>2457.2</ele>
        <time>2026-03-25T11:11:06Z</time>
      </trkpt>
      <trkpt lat="44.68219" lon="6.86703">
        <ele>2457.2</ele>
        <time>2026-03-25T11:11:07Z</time>
      </trkpt>
      <trkpt lat="44.68219" lon="6.86703">
        <ele>2457.2</ele>
        <time>2026-03-25T11:11:08Z</time>
      </trkpt>
      <trkpt lat="44.68219" lon="6.86703">
        <ele>2457.2</ele>
        <time>2026-03-25T11:11:09Z</time>
      </trkpt>
      <trkpt lat="44.68219" lon="6.86703">
        <ele>2457.2</ele>
        <time>2026-03-25T11:11:10Z</time>
      </trkpt>
      <trkpt lat="44.68219" lon="6.86703">
        <ele>2457.2</ele>
        <time>2026-03-25T11:11:11Z</time>
      </trkpt>
      <trkpt lat="44.68218" lon="6.86702">
        <ele>2457.2</ele>
        <time>2026-03-25T11:11:12Z</time>
      </trkpt>
      <trkpt lat="44.68217" lon="6.86701">
        <ele>2458.3</ele>
        <time>2026-03-25T11:11:14Z</time>
      </trkpt>
      <trkpt lat="44.68216" lon="6.86701">
        <ele>2456.8</ele>
        <time>2026-03-25T11:11:15Z</time>
      </trkpt>
      <trkpt lat="44.68216" lon="6.867">
        <ele>2456.8</ele>
        <time>2026-03-25T11:11:16Z</time>
      </trkpt>
      <trkpt lat="44.68215" lon="6.86699">
        <ele>2456.8</ele>
        <time>2026-03-25T11:11:17Z</time>
      </trkpt>
      <trkpt lat="44.68215" lon="6.86699">
        <ele>2456.8</ele>
        <time>2026-03-25T11:11:18Z</time>
      </trkpt>
      <trkpt lat="44.68214" lon="6.86699">
        <ele>2456.8</ele>
        <time>2026-03-25T11:11:19Z</time>
      </trkpt>
      <trkpt lat="44.68213" lon="6.86698">
        <ele>2457.8</ele>
        <time>2026-03-25T11:11:20Z</time>
      </trkpt>
      <trkpt lat="44.68213" lon="6.86697">
        <ele>2457.8</ele>
        <time>2026-03-25T11:11:21Z</time>
      </trkpt>
      <trkpt lat="44.68212" lon="6.86697">
        <ele>2456.4</ele>
        <time>2026-03-25T11:11:22Z</time>
      </trkpt>
      <trkpt lat="44.68212" lon="6.86697">
        <ele>2456.4</ele>
        <time>2026-03-25T11:11:23Z</time>
      </trkpt>
      <trkpt lat="44.68211" lon="6.86696">
        <ele>2456.4</ele>
        <time>2026-03-25T11:11:25Z</time>
      </trkpt>
      <trkpt lat="44.68211" lon="6.86696">
        <ele>2456.4</ele>
        <time>2026-03-25T11:11:26Z</time>
      </trkpt>
      <trkpt lat="44.68211" lon="6.86695">
        <ele>2457.4</ele>
        <time>2026-03-25T11:11:27Z</time>
      </trkpt>
      <trkpt lat="44.68211" lon="6.86695">
        <ele>2457.4</ele>
        <time>2026-03-25T11:11:28Z</time>
      </trkpt>
      <trkpt lat="44.6821" lon="6.86694">
        <ele>2457.4</ele>
        <time>2026-03-25T11:11:29Z</time>
      </trkpt>
      <trkpt lat="44.6821" lon="6.86694">
        <ele>2457.4</ele>
        <time>2026-03-25T11:11:30Z</time>
      </trkpt>
      <trkpt lat="44.68209" lon="6.86693">
        <ele>2457.4</ele>
        <time>2026-03-25T11:11:31Z</time>
      </trkpt>
      <trkpt lat="44.68209" lon="6.86693">
        <ele>2456.1</ele>
        <time>2026-03-25T11:11:32Z</time>
      </trkpt>
      <trkpt lat="44.68209" lon="6.86692">
        <ele>2456.1</ele>
        <time>2026-03-25T11:11:33Z</time>
      </trkpt>
      <trkpt lat="44.68208" lon="6.86692">
        <ele>2456.1</ele>
        <time>2026-03-25T11:11:34Z</time>
      </trkpt>
      <trkpt lat="44.68208" lon="6.86692">
        <ele>2457.2</ele>
        <time>2026-03-25T11:11:35Z</time>
      </trkpt>
      <trkpt lat="44.68208" lon="6.86691">
        <ele>2457.2</ele>
        <time>2026-03-25T11:11:36Z</time>
      </trkpt>
      <trkpt lat="44.68207" lon="6.86691">
        <ele>2457.2</ele>
        <time>2026-03-25T11:11:37Z</time>
      </trkpt>
      <trkpt lat="44.68207" lon="6.8669">
        <ele>2457.2</ele>
        <time>2026-03-25T11:11:38Z</time>
      </trkpt>
      <trkpt lat="44.68207" lon="6.8669">
        <ele>2457.2</ele>
        <time>2026-03-25T11:11:39Z</time>
      </trkpt>
      <trkpt lat="44.68207" lon="6.8669">
        <ele>2457.2</ele>
        <time>2026-03-25T11:11:40Z</time>
      </trkpt>
      <trkpt lat="44.68206" lon="6.86689">
        <ele>2457.2</ele>
        <time>2026-03-25T11:11:41Z</time>
      </trkpt>
      <trkpt lat="44.68206" lon="6.86689">
        <ele>2457.2</ele>
        <time>2026-03-25T11:11:42Z</time>
      </trkpt>
      <trkpt lat="44.68206" lon="6.86689">
        <ele>2457.2</ele>
        <time>2026-03-25T11:11:43Z</time>
      </trkpt>
      <trkpt lat="44.68206" lon="6.86688">
        <ele>2456</ele>
        <time>2026-03-25T11:11:44Z</time>
      </trkpt>
      <trkpt lat="44.68205" lon="6.86688">
        <ele>2456</ele>
        <time>2026-03-25T11:11:45Z</time>
      </trkpt>
      <trkpt lat="44.68205" lon="6.86688">
        <ele>2457.2</ele>
        <time>2026-03-25T11:11:46Z</time>
      </trkpt>
      <trkpt lat="44.68205" lon="6.86688">
        <ele>2457.2</ele>
        <time>2026-03-25T11:11:47Z</time>
      </trkpt>
      <trkpt lat="44.68204" lon="6.86687">
        <ele>2457.2</ele>
        <time>2026-03-25T11:11:48Z</time>
      </trkpt>
      <trkpt lat="44.68204" lon="6.86687">
        <ele>2457.2</ele>
        <time>2026-03-25T11:11:49Z</time>
      </trkpt>
      <trkpt lat="44.68203" lon="6.86687">
        <ele>2457.2</ele>
        <time>2026-03-25T11:11:50Z</time>
      </trkpt>
      <trkpt lat="44.68202" lon="6.86688">
        <ele>2457.2</ele>
        <time>2026-03-25T11:11:51Z</time>
      </trkpt>
      <trkpt lat="44.68202" lon="6.86688">
        <ele>2458.5</ele>
        <time>2026-03-25T11:11:52Z</time>
      </trkpt>
      <trkpt lat="44.68201" lon="6.86689">
        <ele>2459.6</ele>
        <time>2026-03-25T11:11:53Z</time>
      </trkpt>
      <trkpt lat="44.68201" lon="6.86689">
        <ele>2459.6</ele>
        <time>2026-03-25T11:11:54Z</time>
      </trkpt>
      <trkpt lat="44.68201" lon="6.8669">
        <ele>2459.6</ele>
        <time>2026-03-25T11:11:55Z</time>
      </trkpt>
      <trkpt lat="44.682" lon="6.8669">
        <ele>2459.6</ele>
        <time>2026-03-25T11:11:56Z</time>
      </trkpt>
      <trkpt lat="44.682" lon="6.86691">
        <ele>2459.6</ele>
        <time>2026-03-25T11:11:57Z</time>
      </trkpt>
      <trkpt lat="44.682" lon="6.86692">
        <ele>2459.6</ele>
        <time>2026-03-25T11:11:58Z</time>
      </trkpt>
      <trkpt lat="44.68199" lon="6.86692">
        <ele>2459.6</ele>
        <time>2026-03-25T11:11:59Z</time>
      </trkpt>
      <trkpt lat="44.68199" lon="6.86693">
        <ele>2459.6</ele>
        <time>2026-03-25T11:12:00Z</time>
      </trkpt>
      <trkpt lat="44.68199" lon="6.86693">
        <ele>2462.3</ele>
        <time>2026-03-25T11:12:01Z</time>
      </trkpt>
      <trkpt lat="44.68199" lon="6.86694">
        <ele>2462.3</ele>
        <time>2026-03-25T11:12:02Z</time>
      </trkpt>
      <trkpt lat="44.68198" lon="6.86695">
        <ele>2462.3</ele>
        <time>2026-03-25T11:12:03Z</time>
      </trkpt>
      <trkpt lat="44.68198" lon="6.86695">
        <ele>2462.3</ele>
        <time>2026-03-25T11:12:04Z</time>
      </trkpt>
      <trkpt lat="44.68198" lon="6.86696">
        <ele>2462.3</ele>
        <time>2026-03-25T11:12:05Z</time>
      </trkpt>
      <trkpt lat="44.68198" lon="6.86697">
        <ele>2462.3</ele>
        <time>2026-03-25T11:12:06Z</time>
      </trkpt>
      <trkpt lat="44.68198" lon="6.86697">
        <ele>2463.5</ele>
        <time>2026-03-25T11:12:07Z</time>
      </trkpt>
      <trkpt lat="44.68198" lon="6.86698">
        <ele>2463.5</ele>
        <time>2026-03-25T11:12:08Z</time>
      </trkpt>
      <trkpt lat="44.68198" lon="6.86698">
        <ele>2463.5</ele>
        <time>2026-03-25T11:12:09Z</time>
      </trkpt>
      <trkpt lat="44.68198" lon="6.86699">
        <ele>2463.5</ele>
        <time>2026-03-25T11:12:10Z</time>
      </trkpt>
      <trkpt lat="44.68197" lon="6.86699">
        <ele>2463.5</ele>
        <time>2026-03-25T11:12:11Z</time>
      </trkpt>
      <trkpt lat="44.68197" lon="6.867">
        <ele>2463.5</ele>
        <time>2026-03-25T11:12:12Z</time>
      </trkpt>
      <trkpt lat="44.68197" lon="6.867">
        <ele>2463.5</ele>
        <time>2026-03-25T11:12:14Z</time>
      </trkpt>
      <trkpt lat="44.68197" lon="6.86701">
        <ele>2463.5</ele>
        <time>2026-03-25T11:12:15Z</time>
      </trkpt>
      <trkpt lat="44.68197" lon="6.86701">
        <ele>2463.5</ele>
        <time>2026-03-25T11:12:16Z</time>
      </trkpt>
      <trkpt lat="44.68197" lon="6.86701">
        <ele>2464.8</ele>
        <time>2026-03-25T11:12:17Z</time>
      </trkpt>
      <trkpt lat="44.68197" lon="6.86702">
        <ele>2464.8</ele>
        <time>2026-03-25T11:12:18Z</time>
      </trkpt>
      <trkpt lat="44.68197" lon="6.86703">
        <ele>2464.8</ele>
        <time>2026-03-25T11:12:19Z</time>
      </trkpt>
      <trkpt lat="44.68196" lon="6.86703">
        <ele>2464.8</ele>
        <time>2026-03-25T11:12:20Z</time>
      </trkpt>
      <trkpt lat="44.68196" lon="6.86704">
        <ele>2464.8</ele>
        <time>2026-03-25T11:12:21Z</time>
      </trkpt>
      <trkpt lat="44.68196" lon="6.86705">
        <ele>2464.8</ele>
        <time>2026-03-25T11:12:22Z</time>
      </trkpt>
      <trkpt lat="44.68196" lon="6.86705">
        <ele>2466.2</ele>
        <time>2026-03-25T11:12:23Z</time>
      </trkpt>
      <trkpt lat="44.68196" lon="6.86706">
        <ele>2467.5</ele>
        <time>2026-03-25T11:12:24Z</time>
      </trkpt>
      <trkpt lat="44.68196" lon="6.86706">
        <ele>2467.5</ele>
        <time>2026-03-25T11:12:25Z</time>
      </trkpt>
      <trkpt lat="44.68195" lon="6.86707">
        <ele>2467.5</ele>
        <time>2026-03-25T11:12:26Z</time>
      </trkpt>
      <trkpt lat="44.68195" lon="6.86708">
        <ele>2467.5</ele>
        <time>2026-03-25T11:12:27Z</time>
      </trkpt>
      <trkpt lat="44.68195" lon="6.86708">
        <ele>2467.5</ele>
        <time>2026-03-25T11:12:28Z</time>
      </trkpt>
      <trkpt lat="44.68195" lon="6.86709">
        <ele>2467.5</ele>
        <time>2026-03-25T11:12:29Z</time>
      </trkpt>
      <trkpt lat="44.68195" lon="6.86709">
        <ele>2467.5</ele>
        <time>2026-03-25T11:12:30Z</time>
      </trkpt>
      <trkpt lat="44.68195" lon="6.8671">
        <ele>2467.5</ele>
        <time>2026-03-25T11:12:31Z</time>
      </trkpt>
      <trkpt lat="44.68195" lon="6.8671">
        <ele>2468.8</ele>
        <time>2026-03-25T11:12:32Z</time>
      </trkpt>
      <trkpt lat="44.68195" lon="6.8671">
        <ele>2468.8</ele>
        <time>2026-03-25T11:12:33Z</time>
      </trkpt>
      <trkpt lat="44.68194" lon="6.86711">
        <ele>2468.8</ele>
        <time>2026-03-25T11:12:34Z</time>
      </trkpt>
      <trkpt lat="44.68194" lon="6.86712">
        <ele>2468.8</ele>
        <time>2026-03-25T11:12:35Z</time>
      </trkpt>
      <trkpt lat="44.68194" lon="6.86713">
        <ele>2468.7</ele>
        <time>2026-03-25T11:12:36Z</time>
      </trkpt>
      <trkpt lat="44.68194" lon="6.86713">
        <ele>2468.7</ele>
        <time>2026-03-25T11:12:37Z</time>
      </trkpt>
      <trkpt lat="44.68194" lon="6.86714">
        <ele>2470</ele>
        <time>2026-03-25T11:12:38Z</time>
      </trkpt>
      <trkpt lat="44.68194" lon="6.86715">
        <ele>2470</ele>
        <time>2026-03-25T11:12:39Z</time>
      </trkpt>
      <trkpt lat="44.68194" lon="6.86715">
        <ele>2470</ele>
        <time>2026-03-25T11:12:40Z</time>
      </trkpt>
      <trkpt lat="44.68193" lon="6.86716">
        <ele>2470</ele>
        <time>2026-03-25T11:12:41Z</time>
      </trkpt>
      <trkpt lat="44.68193" lon="6.86717">
        <ele>2470</ele>
        <time>2026-03-25T11:12:42Z</time>
      </trkpt>
      <trkpt lat="44.68193" lon="6.86718">
        <ele>2470</ele>
        <time>2026-03-25T11:12:43Z</time>
      </trkpt>
      <trkpt lat="44.68193" lon="6.86718">
        <ele>2470</ele>
        <time>2026-03-25T11:12:44Z</time>
      </trkpt>
      <trkpt lat="44.68193" lon="6.86719">
        <ele>2471.3</ele>
        <time>2026-03-25T11:12:45Z</time>
      </trkpt>
      <trkpt lat="44.68193" lon="6.8672">
        <ele>2471.3</ele>
        <time>2026-03-25T11:12:46Z</time>
      </trkpt>
      <trkpt lat="44.68193" lon="6.8672">
        <ele>2471.3</ele>
        <time>2026-03-25T11:12:48Z</time>
      </trkpt>
      <trkpt lat="44.68193" lon="6.8672">
        <ele>2471.3</ele>
        <time>2026-03-25T11:12:49Z</time>
      </trkpt>
      <trkpt lat="44.68193" lon="6.86721">
        <ele>2472.7</ele>
        <time>2026-03-25T11:12:50Z</time>
      </trkpt>
      <trkpt lat="44.68192" lon="6.86721">
        <ele>2472.7</ele>
        <time>2026-03-25T11:12:51Z</time>
      </trkpt>
      <trkpt lat="44.68192" lon="6.86721">
        <ele>2472.7</ele>
        <time>2026-03-25T11:12:52Z</time>
      </trkpt>
      <trkpt lat="44.68192" lon="6.86721">
        <ele>2472.7</ele>
        <time>2026-03-25T11:12:53Z</time>
      </trkpt>
      <trkpt lat="44.68191" lon="6.86721">
        <ele>2472.7</ele>
        <time>2026-03-25T11:12:54Z</time>
      </trkpt>
      <trkpt lat="44.68191" lon="6.86721">
        <ele>2472.7</ele>
        <time>2026-03-25T11:12:55Z</time>
      </trkpt>
      <trkpt lat="44.68191" lon="6.86721">
        <ele>2472.7</ele>
        <time>2026-03-25T11:12:56Z</time>
      </trkpt>
      <trkpt lat="44.6819" lon="6.86721">
        <ele>2472.7</ele>
        <time>2026-03-25T11:12:57Z</time>
      </trkpt>
      <trkpt lat="44.6819" lon="6.8672">
        <ele>2472.7</ele>
        <time>2026-03-25T11:12:58Z</time>
      </trkpt>
      <trkpt lat="44.68189" lon="6.8672">
        <ele>2474.1</ele>
        <time>2026-03-25T11:12:59Z</time>
      </trkpt>
      <trkpt lat="44.68189" lon="6.86719">
        <ele>2474.1</ele>
        <time>2026-03-25T11:13:01Z</time>
      </trkpt>
      <trkpt lat="44.68189" lon="6.86719">
        <ele>2474.1</ele>
        <time>2026-03-25T11:13:02Z</time>
      </trkpt>
      <trkpt lat="44.68189" lon="6.86718">
        <ele>2472.8</ele>
        <time>2026-03-25T11:13:03Z</time>
      </trkpt>
      <trkpt lat="44.68189" lon="6.86718">
        <ele>2472.8</ele>
        <time>2026-03-25T11:13:04Z</time>
      </trkpt>
      <trkpt lat="44.68189" lon="6.86717">
        <ele>2472.8</ele>
        <time>2026-03-25T11:13:05Z</time>
      </trkpt>
      <trkpt lat="44.68188" lon="6.86717">
        <ele>2472.8</ele>
        <time>2026-03-25T11:13:06Z</time>
      </trkpt>
      <trkpt lat="44.68188" lon="6.86716">
        <ele>2472.8</ele>
        <time>2026-03-25T11:13:07Z</time>
      </trkpt>
      <trkpt lat="44.68188" lon="6.86716">
        <ele>2472.8</ele>
        <time>2026-03-25T11:13:08Z</time>
      </trkpt>
      <trkpt lat="44.68187" lon="6.86715">
        <ele>2472.8</ele>
        <time>2026-03-25T11:13:09Z</time>
      </trkpt>
      <trkpt lat="44.68187" lon="6.86715">
        <ele>2472.8</ele>
        <time>2026-03-25T11:13:10Z</time>
      </trkpt>
      <trkpt lat="44.68187" lon="6.86714">
        <ele>2471.5</ele>
        <time>2026-03-25T11:13:11Z</time>
      </trkpt>
      <trkpt lat="44.68187" lon="6.86713">
        <ele>2472.9</ele>
        <time>2026-03-25T11:13:12Z</time>
      </trkpt>
      <trkpt lat="44.68186" lon="6.86713">
        <ele>2472.9</ele>
        <time>2026-03-25T11:13:13Z</time>
      </trkpt>
      <trkpt lat="44.68186" lon="6.86712">
        <ele>2472.9</ele>
        <time>2026-03-25T11:13:14Z</time>
      </trkpt>
      <trkpt lat="44.68186" lon="6.86712">
        <ele>2472.9</ele>
        <time>2026-03-25T11:13:15Z</time>
      </trkpt>
      <trkpt lat="44.68185" lon="6.86711">
        <ele>2472.9</ele>
        <time>2026-03-25T11:13:16Z</time>
      </trkpt>
      <trkpt lat="44.68185" lon="6.86711">
        <ele>2472.9</ele>
        <time>2026-03-25T11:13:17Z</time>
      </trkpt>
      <trkpt lat="44.68185" lon="6.8671">
        <ele>2472.9</ele>
        <time>2026-03-25T11:13:18Z</time>
      </trkpt>
      <trkpt lat="44.68185" lon="6.8671">
        <ele>2472.9</ele>
        <time>2026-03-25T11:13:19Z</time>
      </trkpt>
      <trkpt lat="44.68184" lon="6.8671">
        <ele>2472.9</ele>
        <time>2026-03-25T11:13:20Z</time>
      </trkpt>
      <trkpt lat="44.68184" lon="6.8671">
        <ele>2471.7</ele>
        <time>2026-03-25T11:13:21Z</time>
      </trkpt>
      <trkpt lat="44.68184" lon="6.86709">
        <ele>2471.7</ele>
        <time>2026-03-25T11:13:22Z</time>
      </trkpt>
      <trkpt lat="44.68184" lon="6.86709">
        <ele>2471.7</ele>
        <time>2026-03-25T11:13:23Z</time>
      </trkpt>
      <trkpt lat="44.68184" lon="6.86708">
        <ele>2471.7</ele>
        <time>2026-03-25T11:13:24Z</time>
      </trkpt>
      <trkpt lat="44.68184" lon="6.86708">
        <ele>2473.1</ele>
        <time>2026-03-25T11:13:25Z</time>
      </trkpt>
      <trkpt lat="44.68183" lon="6.86707">
        <ele>2473.1</ele>
        <time>2026-03-25T11:13:26Z</time>
      </trkpt>
      <trkpt lat="44.68183" lon="6.86706">
        <ele>2473.1</ele>
        <time>2026-03-25T11:13:27Z</time>
      </trkpt>
      <trkpt lat="44.68182" lon="6.86705">
        <ele>2471.9</ele>
        <time>2026-03-25T11:13:28Z</time>
      </trkpt>
      <trkpt lat="44.68182" lon="6.86705">
        <ele>2471.9</ele>
        <time>2026-03-25T11:13:29Z</time>
      </trkpt>
      <trkpt lat="44.68181" lon="6.86704">
        <ele>2471.9</ele>
        <time>2026-03-25T11:13:30Z</time>
      </trkpt>
      <trkpt lat="44.68181" lon="6.86704">
        <ele>2471.9</ele>
        <time>2026-03-25T11:13:31Z</time>
      </trkpt>
      <trkpt lat="44.68181" lon="6.86703">
        <ele>2471.9</ele>
        <time>2026-03-25T11:13:32Z</time>
      </trkpt>
      <trkpt lat="44.6818" lon="6.86703">
        <ele>2473.3</ele>
        <time>2026-03-25T11:13:33Z</time>
      </trkpt>
      <trkpt lat="44.6818" lon="6.86702">
        <ele>2473.3</ele>
        <time>2026-03-25T11:13:34Z</time>
      </trkpt>
      <trkpt lat="44.6818" lon="6.86702">
        <ele>2473.3</ele>
        <time>2026-03-25T11:13:35Z</time>
      </trkpt>
      <trkpt lat="44.68179" lon="6.86701">
        <ele>2473.3</ele>
        <time>2026-03-25T11:13:36Z</time>
      </trkpt>
      <trkpt lat="44.68179" lon="6.86701">
        <ele>2472.2</ele>
        <time>2026-03-25T11:13:37Z</time>
      </trkpt>
      <trkpt lat="44.68179" lon="6.86701">
        <ele>2472.2</ele>
        <time>2026-03-25T11:13:38Z</time>
      </trkpt>
      <trkpt lat="44.68179" lon="6.867">
        <ele>2472.2</ele>
        <time>2026-03-25T11:13:39Z</time>
      </trkpt>
      <trkpt lat="44.68178" lon="6.867">
        <ele>2472.2</ele>
        <time>2026-03-25T11:13:40Z</time>
      </trkpt>
      <trkpt lat="44.68178" lon="6.86699">
        <ele>2472.2</ele>
        <time>2026-03-25T11:13:41Z</time>
      </trkpt>
      <trkpt lat="44.68178" lon="6.86699">
        <ele>2473.8</ele>
        <time>2026-03-25T11:13:42Z</time>
      </trkpt>
      <trkpt lat="44.68177" lon="6.86698">
        <ele>2473.8</ele>
        <time>2026-03-25T11:13:43Z</time>
      </trkpt>
      <trkpt lat="44.68177" lon="6.86697">
        <ele>2472.7</ele>
        <time>2026-03-25T11:13:44Z</time>
      </trkpt>
      <trkpt lat="44.68176" lon="6.86696">
        <ele>2472.7</ele>
        <time>2026-03-25T11:13:45Z</time>
      </trkpt>
      <trkpt lat="44.68176" lon="6.86696">
        <ele>2472.7</ele>
        <time>2026-03-25T11:13:47Z</time>
      </trkpt>
      <trkpt lat="44.68176" lon="6.86696">
        <ele>2472.7</ele>
        <time>2026-03-25T11:13:48Z</time>
      </trkpt>
      <trkpt lat="44.68175" lon="6.86696">
        <ele>2472.7</ele>
        <time>2026-03-25T11:13:49Z</time>
      </trkpt>
      <trkpt lat="44.68175" lon="6.86696">
        <ele>2472.7</ele>
        <time>2026-03-25T11:13:50Z</time>
      </trkpt>
      <trkpt lat="44.68175" lon="6.86696">
        <ele>2472.7</ele>
        <time>2026-03-25T11:13:51Z</time>
      </trkpt>
      <trkpt lat="44.68174" lon="6.86697">
        <ele>2474.4</ele>
        <time>2026-03-25T11:13:52Z</time>
      </trkpt>
      <trkpt lat="44.68174" lon="6.86697">
        <ele>2474.4</ele>
        <time>2026-03-25T11:13:54Z</time>
      </trkpt>
      <trkpt lat="44.68174" lon="6.86697">
        <ele>2475.4</ele>
        <time>2026-03-25T11:13:55Z</time>
      </trkpt>
      <trkpt lat="44.68173" lon="6.86698">
        <ele>2475.4</ele>
        <time>2026-03-25T11:13:56Z</time>
      </trkpt>
      <trkpt lat="44.68173" lon="6.86699">
        <ele>2475.4</ele>
        <time>2026-03-25T11:13:57Z</time>
      </trkpt>
      <trkpt lat="44.68173" lon="6.86699">
        <ele>2475.4</ele>
        <time>2026-03-25T11:13:58Z</time>
      </trkpt>
      <trkpt lat="44.68172" lon="6.867">
        <ele>2475.4</ele>
        <time>2026-03-25T11:13:59Z</time>
      </trkpt>
      <trkpt lat="44.68172" lon="6.86702">
        <ele>2476.5</ele>
        <time>2026-03-25T11:14:00Z</time>
      </trkpt>
      <trkpt lat="44.68171" lon="6.86703">
        <ele>2478.3</ele>
        <time>2026-03-25T11:14:02Z</time>
      </trkpt>
      <trkpt lat="44.68171" lon="6.86704">
        <ele>2478.3</ele>
        <time>2026-03-25T11:14:04Z</time>
      </trkpt>
      <trkpt lat="44.6817" lon="6.86706">
        <ele>2478.3</ele>
        <time>2026-03-25T11:14:05Z</time>
      </trkpt>
      <trkpt lat="44.6817" lon="6.86706">
        <ele>2479.4</ele>
        <time>2026-03-25T11:14:06Z</time>
      </trkpt>
      <trkpt lat="44.6817" lon="6.86707">
        <ele>2479.4</ele>
        <time>2026-03-25T11:14:07Z</time>
      </trkpt>
      <trkpt lat="44.6817" lon="6.86708">
        <ele>2479.4</ele>
        <time>2026-03-25T11:14:08Z</time>
      </trkpt>
      <trkpt lat="44.6817" lon="6.86708">
        <ele>2479.4</ele>
        <time>2026-03-25T11:14:09Z</time>
      </trkpt>
      <trkpt lat="44.6817" lon="6.86708">
        <ele>2479.4</ele>
        <time>2026-03-25T11:14:10Z</time>
      </trkpt>
      <trkpt lat="44.68169" lon="6.86709">
        <ele>2479.4</ele>
        <time>2026-03-25T11:14:11Z</time>
      </trkpt>
      <trkpt lat="44.68169" lon="6.8671">
        <ele>2479.4</ele>
        <time>2026-03-25T11:14:13Z</time>
      </trkpt>
      <trkpt lat="44.68169" lon="6.8671">
        <ele>2480.5</ele>
        <time>2026-03-25T11:14:14Z</time>
      </trkpt>
      <trkpt lat="44.68169" lon="6.86711">
        <ele>2480.5</ele>
        <time>2026-03-25T11:14:15Z</time>
      </trkpt>
      <trkpt lat="44.68169" lon="6.86712">
        <ele>2480.5</ele>
        <time>2026-03-25T11:14:16Z</time>
      </trkpt>
      <trkpt lat="44.68169" lon="6.86713">
        <ele>2480.5</ele>
        <time>2026-03-25T11:14:17Z</time>
      </trkpt>
      <trkpt lat="44.68169" lon="6.86713">
        <ele>2480.5</ele>
        <time>2026-03-25T11:14:18Z</time>
      </trkpt>
      <trkpt lat="44.68169" lon="6.86714">
        <ele>2480.5</ele>
        <time>2026-03-25T11:14:19Z</time>
      </trkpt>
      <trkpt lat="44.68169" lon="6.86715">
        <ele>2481.6</ele>
        <time>2026-03-25T11:14:20Z</time>
      </trkpt>
      <trkpt lat="44.68169" lon="6.86716">
        <ele>2481.6</ele>
        <time>2026-03-25T11:14:21Z</time>
      </trkpt>
      <trkpt lat="44.68169" lon="6.86717">
        <ele>2481.6</ele>
        <time>2026-03-25T11:14:22Z</time>
      </trkpt>
      <trkpt lat="44.68169" lon="6.86718">
        <ele>2481.6</ele>
        <time>2026-03-25T11:14:23Z</time>
      </trkpt>
      <trkpt lat="44.68169" lon="6.86718">
        <ele>2481.6</ele>
        <time>2026-03-25T11:14:24Z</time>
      </trkpt>
      <trkpt lat="44.68169" lon="6.86718">
        <ele>2481.6</ele>
        <time>2026-03-25T11:14:25Z</time>
      </trkpt>
      <trkpt lat="44.68169" lon="6.86718">
        <ele>2481.6</ele>
        <time>2026-03-25T11:14:27Z</time>
      </trkpt>
      <trkpt lat="44.68169" lon="6.86718">
        <ele>2481.6</ele>
        <time>2026-03-25T11:14:28Z</time>
      </trkpt>
      <trkpt lat="44.68169" lon="6.86718">
        <ele>2481.6</ele>
        <time>2026-03-25T11:14:29Z</time>
      </trkpt>
      <trkpt lat="44.68169" lon="6.86719">
        <ele>2482.8</ele>
        <time>2026-03-25T11:14:30Z</time>
      </trkpt>
      <trkpt lat="44.68169" lon="6.8672">
        <ele>2482.8</ele>
        <time>2026-03-25T11:14:31Z</time>
      </trkpt>
      <trkpt lat="44.68169" lon="6.86721">
        <ele>2482.8</ele>
        <time>2026-03-25T11:14:32Z</time>
      </trkpt>
      <trkpt lat="44.68169" lon="6.86722">
        <ele>2482.8</ele>
        <time>2026-03-25T11:14:33Z</time>
      </trkpt>
      <trkpt lat="44.68169" lon="6.86723">
        <ele>2482.8</ele>
        <time>2026-03-25T11:14:34Z</time>
      </trkpt>
      <trkpt lat="44.68169" lon="6.86723">
        <ele>2484</ele>
        <time>2026-03-25T11:14:35Z</time>
      </trkpt>
      <trkpt lat="44.68169" lon="6.86723">
        <ele>2484</ele>
        <time>2026-03-25T11:14:36Z</time>
      </trkpt>
      <trkpt lat="44.68169" lon="6.86724">
        <ele>2484</ele>
        <time>2026-03-25T11:14:37Z</time>
      </trkpt>
      <trkpt lat="44.68169" lon="6.86725">
        <ele>2484</ele>
        <time>2026-03-25T11:14:38Z</time>
      </trkpt>
      <trkpt lat="44.68168" lon="6.86725">
        <ele>2484</ele>
        <time>2026-03-25T11:14:39Z</time>
      </trkpt>
      <trkpt lat="44.68168" lon="6.86726">
        <ele>2485.6</ele>
        <time>2026-03-25T11:14:40Z</time>
      </trkpt>
      <trkpt lat="44.68168" lon="6.86727">
        <ele>2485.6</ele>
        <time>2026-03-25T11:14:41Z</time>
      </trkpt>
      <trkpt lat="44.68168" lon="6.86727">
        <ele>2486.9</ele>
        <time>2026-03-25T11:14:42Z</time>
      </trkpt>
      <trkpt lat="44.68168" lon="6.86728">
        <ele>2486.9</ele>
        <time>2026-03-25T11:14:43Z</time>
      </trkpt>
      <trkpt lat="44.68168" lon="6.86728">
        <ele>2486.9</ele>
        <time>2026-03-25T11:14:44Z</time>
      </trkpt>
      <trkpt lat="44.68168" lon="6.86729">
        <ele>2486.9</ele>
        <time>2026-03-25T11:14:45Z</time>
      </trkpt>
      <trkpt lat="44.68168" lon="6.8673">
        <ele>2486.9</ele>
        <time>2026-03-25T11:14:46Z</time>
      </trkpt>
      <trkpt lat="44.68168" lon="6.86731">
        <ele>2486.9</ele>
        <time>2026-03-25T11:14:47Z</time>
      </trkpt>
      <trkpt lat="44.68168" lon="6.86732">
        <ele>2488.2</ele>
        <time>2026-03-25T11:14:48Z</time>
      </trkpt>
      <trkpt lat="44.68167" lon="6.86733">
        <ele>2488.2</ele>
        <time>2026-03-25T11:14:50Z</time>
      </trkpt>
      <trkpt lat="44.68167" lon="6.86734">
        <ele>2488.2</ele>
        <time>2026-03-25T11:14:51Z</time>
      </trkpt>
      <trkpt lat="44.68167" lon="6.86734">
        <ele>2488.2</ele>
        <time>2026-03-25T11:14:52Z</time>
      </trkpt>
      <trkpt lat="44.68167" lon="6.86735">
        <ele>2488.2</ele>
        <time>2026-03-25T11:14:53Z</time>
      </trkpt>
      <trkpt lat="44.68167" lon="6.86735">
        <ele>2488.2</ele>
        <time>2026-03-25T11:14:54Z</time>
      </trkpt>
      <trkpt lat="44.68167" lon="6.86736">
        <ele>2489.6</ele>
        <time>2026-03-25T11:14:55Z</time>
      </trkpt>
      <trkpt lat="44.68167" lon="6.86737">
        <ele>2489.6</ele>
        <time>2026-03-25T11:14:56Z</time>
      </trkpt>
      <trkpt lat="44.68167" lon="6.86738">
        <ele>2489.6</ele>
        <time>2026-03-25T11:14:57Z</time>
      </trkpt>
      <trkpt lat="44.68167" lon="6.86739">
        <ele>2489.6</ele>
        <time>2026-03-25T11:14:58Z</time>
      </trkpt>
      <trkpt lat="44.68167" lon="6.8674">
        <ele>2489.6</ele>
        <time>2026-03-25T11:14:59Z</time>
      </trkpt>
      <trkpt lat="44.68167" lon="6.8674">
        <ele>2491.1</ele>
        <time>2026-03-25T11:15:00Z</time>
      </trkpt>
      <trkpt lat="44.68167" lon="6.86741">
        <ele>2491.1</ele>
        <time>2026-03-25T11:15:01Z</time>
      </trkpt>
      <trkpt lat="44.68167" lon="6.86742">
        <ele>2491.1</ele>
        <time>2026-03-25T11:15:02Z</time>
      </trkpt>
      <trkpt lat="44.68167" lon="6.86743">
        <ele>2491</ele>
        <time>2026-03-25T11:15:03Z</time>
      </trkpt>
      <trkpt lat="44.68167" lon="6.86743">
        <ele>2491</ele>
        <time>2026-03-25T11:15:04Z</time>
      </trkpt>
      <trkpt lat="44.68167" lon="6.86744">
        <ele>2491</ele>
        <time>2026-03-25T11:15:05Z</time>
      </trkpt>
      <trkpt lat="44.68167" lon="6.86745">
        <ele>2492.6</ele>
        <time>2026-03-25T11:15:06Z</time>
      </trkpt>
      <trkpt lat="44.68167" lon="6.86745">
        <ele>2492.6</ele>
        <time>2026-03-25T11:15:07Z</time>
      </trkpt>
      <trkpt lat="44.68167" lon="6.86746">
        <ele>2492.6</ele>
        <time>2026-03-25T11:15:08Z</time>
      </trkpt>
      <trkpt lat="44.68167" lon="6.86746">
        <ele>2492.6</ele>
        <time>2026-03-25T11:15:09Z</time>
      </trkpt>
      <trkpt lat="44.68167" lon="6.86747">
        <ele>2492.6</ele>
        <time>2026-03-25T11:15:10Z</time>
      </trkpt>
      <trkpt lat="44.68167" lon="6.86748">
        <ele>2492.6</ele>
        <time>2026-03-25T11:15:11Z</time>
      </trkpt>
      <trkpt lat="44.68167" lon="6.86749">
        <ele>2492.6</ele>
        <time>2026-03-25T11:15:12Z</time>
      </trkpt>
      <trkpt lat="44.68167" lon="6.86749">
        <ele>2494.1</ele>
        <time>2026-03-25T11:15:13Z</time>
      </trkpt>
      <trkpt lat="44.68167" lon="6.8675">
        <ele>2494.1</ele>
        <time>2026-03-25T11:15:14Z</time>
      </trkpt>
      <trkpt lat="44.68167" lon="6.86751">
        <ele>2494.1</ele>
        <time>2026-03-25T11:15:15Z</time>
      </trkpt>
      <trkpt lat="44.68167" lon="6.86751">
        <ele>2494.1</ele>
        <time>2026-03-25T11:15:16Z</time>
      </trkpt>
      <trkpt lat="44.68167" lon="6.86751">
        <ele>2494.1</ele>
        <time>2026-03-25T11:15:17Z</time>
      </trkpt>
      <trkpt lat="44.68168" lon="6.86752">
        <ele>2494.1</ele>
        <time>2026-03-25T11:15:18Z</time>
      </trkpt>
      <trkpt lat="44.68168" lon="6.86753">
        <ele>2494.1</ele>
        <time>2026-03-25T11:15:19Z</time>
      </trkpt>
      <trkpt lat="44.68168" lon="6.86753">
        <ele>2495.7</ele>
        <time>2026-03-25T11:15:20Z</time>
      </trkpt>
      <trkpt lat="44.68168" lon="6.86754">
        <ele>2495.7</ele>
        <time>2026-03-25T11:15:21Z</time>
      </trkpt>
      <trkpt lat="44.68168" lon="6.86754">
        <ele>2495.7</ele>
        <time>2026-03-25T11:15:22Z</time>
      </trkpt>
      <trkpt lat="44.68168" lon="6.86755">
        <ele>2495.7</ele>
        <time>2026-03-25T11:15:23Z</time>
      </trkpt>
      <trkpt lat="44.68169" lon="6.86755">
        <ele>2494.2</ele>
        <time>2026-03-25T11:15:24Z</time>
      </trkpt>
      <trkpt lat="44.68169" lon="6.86756">
        <ele>2494.2</ele>
        <time>2026-03-25T11:15:26Z</time>
      </trkpt>
      <trkpt lat="44.68169" lon="6.86756">
        <ele>2494.2</ele>
        <time>2026-03-25T11:15:27Z</time>
      </trkpt>
      <trkpt lat="44.68169" lon="6.86756">
        <ele>2494.2</ele>
        <time>2026-03-25T11:15:28Z</time>
      </trkpt>
      <trkpt lat="44.6817" lon="6.86757">
        <ele>2494.2</ele>
        <time>2026-03-25T11:15:29Z</time>
      </trkpt>
      <trkpt lat="44.6817" lon="6.86757">
        <ele>2494.2</ele>
        <time>2026-03-25T11:15:30Z</time>
      </trkpt>
      <trkpt lat="44.6817" lon="6.86757">
        <ele>2495.7</ele>
        <time>2026-03-25T11:15:31Z</time>
      </trkpt>
      <trkpt lat="44.6817" lon="6.86758">
        <ele>2495.7</ele>
        <time>2026-03-25T11:15:32Z</time>
      </trkpt>
      <trkpt lat="44.6817" lon="6.86758">
        <ele>2495.7</ele>
        <time>2026-03-25T11:15:33Z</time>
      </trkpt>
      <trkpt lat="44.68171" lon="6.86759">
        <ele>2495.7</ele>
        <time>2026-03-25T11:15:34Z</time>
      </trkpt>
      <trkpt lat="44.68171" lon="6.86759">
        <ele>2495.7</ele>
        <time>2026-03-25T11:15:35Z</time>
      </trkpt>
      <trkpt lat="44.68171" lon="6.8676">
        <ele>2495.7</ele>
        <time>2026-03-25T11:15:36Z</time>
      </trkpt>
      <trkpt lat="44.68171" lon="6.8676">
        <ele>2495.7</ele>
        <time>2026-03-25T11:15:37Z</time>
      </trkpt>
      <trkpt lat="44.68172" lon="6.8676">
        <ele>2494.3</ele>
        <time>2026-03-25T11:15:38Z</time>
      </trkpt>
      <trkpt lat="44.68172" lon="6.86761">
        <ele>2494.3</ele>
        <time>2026-03-25T11:15:39Z</time>
      </trkpt>
      <trkpt lat="44.68172" lon="6.86762">
        <ele>2495.8</ele>
        <time>2026-03-25T11:15:40Z</time>
      </trkpt>
      <trkpt lat="44.68172" lon="6.86762">
        <ele>2495.8</ele>
        <time>2026-03-25T11:15:41Z</time>
      </trkpt>
      <trkpt lat="44.68173" lon="6.86762">
        <ele>2495.8</ele>
        <time>2026-03-25T11:15:42Z</time>
      </trkpt>
      <trkpt lat="44.68173" lon="6.86763">
        <ele>2495.8</ele>
        <time>2026-03-25T11:15:43Z</time>
      </trkpt>
      <trkpt lat="44.68173" lon="6.86763">
        <ele>2495.8</ele>
        <time>2026-03-25T11:15:44Z</time>
      </trkpt>
      <trkpt lat="44.68173" lon="6.86763">
        <ele>2495.8</ele>
        <time>2026-03-25T11:15:45Z</time>
      </trkpt>
      <trkpt lat="44.68173" lon="6.86763">
        <ele>2495.8</ele>
        <time>2026-03-25T11:15:46Z</time>
      </trkpt>
      <trkpt lat="44.68173" lon="6.86763">
        <ele>2495.8</ele>
        <time>2026-03-25T11:15:47Z</time>
      </trkpt>
      <trkpt lat="44.68173" lon="6.86764">
        <ele>2495.8</ele>
        <time>2026-03-25T11:15:48Z</time>
      </trkpt>
      <trkpt lat="44.68174" lon="6.86764">
        <ele>2495.7</ele>
        <time>2026-03-25T11:15:49Z</time>
      </trkpt>
      <trkpt lat="44.68174" lon="6.86765">
        <ele>2495.7</ele>
        <time>2026-03-25T11:15:51Z</time>
      </trkpt>
      <trkpt lat="44.68174" lon="6.86765">
        <ele>2495.7</ele>
        <time>2026-03-25T11:15:52Z</time>
      </trkpt>
      <trkpt lat="44.68174" lon="6.86765">
        <ele>2495.7</ele>
        <time>2026-03-25T11:15:53Z</time>
      </trkpt>
      <trkpt lat="44.68174" lon="6.86766">
        <ele>2497.2</ele>
        <time>2026-03-25T11:15:54Z</time>
      </trkpt>
      <trkpt lat="44.68174" lon="6.86766">
        <ele>2497.2</ele>
        <time>2026-03-25T11:15:55Z</time>
      </trkpt>
      <trkpt lat="44.68174" lon="6.86767">
        <ele>2497.2</ele>
        <time>2026-03-25T11:15:56Z</time>
      </trkpt>
      <trkpt lat="44.68175" lon="6.86767">
        <ele>2495.9</ele>
        <time>2026-03-25T11:15:57Z</time>
      </trkpt>
      <trkpt lat="44.68175" lon="6.86768">
        <ele>2495.9</ele>
        <time>2026-03-25T11:15:58Z</time>
      </trkpt>
      <trkpt lat="44.68175" lon="6.86768">
        <ele>2495.8</ele>
        <time>2026-03-25T11:15:59Z</time>
      </trkpt>
      <trkpt lat="44.68175" lon="6.86769">
        <ele>2495.8</ele>
        <time>2026-03-25T11:16:00Z</time>
      </trkpt>
      <trkpt lat="44.68175" lon="6.86769">
        <ele>2495.8</ele>
        <time>2026-03-25T11:16:02Z</time>
      </trkpt>
      <trkpt lat="44.68175" lon="6.8677">
        <ele>2495.8</ele>
        <time>2026-03-25T11:16:03Z</time>
      </trkpt>
      <trkpt lat="44.68176" lon="6.8677">
        <ele>2497.4</ele>
        <time>2026-03-25T11:16:04Z</time>
      </trkpt>
      <trkpt lat="44.68176" lon="6.86771">
        <ele>2497.4</ele>
        <time>2026-03-25T11:16:05Z</time>
      </trkpt>
      <trkpt lat="44.68176" lon="6.86771">
        <ele>2497.4</ele>
        <time>2026-03-25T11:16:06Z</time>
      </trkpt>
      <trkpt lat="44.68176" lon="6.86772">
        <ele>2497.4</ele>
        <time>2026-03-25T11:16:07Z</time>
      </trkpt>
      <trkpt lat="44.68176" lon="6.86772">
        <ele>2497.4</ele>
        <time>2026-03-25T11:16:08Z</time>
      </trkpt>
      <trkpt lat="44.68176" lon="6.86772">
        <ele>2497.4</ele>
        <time>2026-03-25T11:16:09Z</time>
      </trkpt>
      <trkpt lat="44.68176" lon="6.86773">
        <ele>2497.4</ele>
        <time>2026-03-25T11:16:10Z</time>
      </trkpt>
      <trkpt lat="44.68176" lon="6.86774">
        <ele>2497.4</ele>
        <time>2026-03-25T11:16:11Z</time>
      </trkpt>
      <trkpt lat="44.68176" lon="6.86774">
        <ele>2497.4</ele>
        <time>2026-03-25T11:16:12Z</time>
      </trkpt>
      <trkpt lat="44.68176" lon="6.86775">
        <ele>2499</ele>
        <time>2026-03-25T11:16:13Z</time>
      </trkpt>
      <trkpt lat="44.68177" lon="6.86776">
        <ele>2499</ele>
        <time>2026-03-25T11:16:14Z</time>
      </trkpt>
      <trkpt lat="44.68177" lon="6.86777">
        <ele>2499</ele>
        <time>2026-03-25T11:16:15Z</time>
      </trkpt>
      <trkpt lat="44.68177" lon="6.86778">
        <ele>2499</ele>
        <time>2026-03-25T11:16:16Z</time>
      </trkpt>
      <trkpt lat="44.68177" lon="6.86779">
        <ele>2499</ele>
        <time>2026-03-25T11:16:17Z</time>
      </trkpt>
      <trkpt lat="44.68177" lon="6.86779">
        <ele>2500.6</ele>
        <time>2026-03-25T11:16:18Z</time>
      </trkpt>
      <trkpt lat="44.68178" lon="6.8678">
        <ele>2500.6</ele>
        <time>2026-03-25T11:16:19Z</time>
      </trkpt>
      <trkpt lat="44.68178" lon="6.86781">
        <ele>2499.4</ele>
        <time>2026-03-25T11:16:20Z</time>
      </trkpt>
      <trkpt lat="44.68178" lon="6.86781">
        <ele>2499.4</ele>
        <time>2026-03-25T11:16:21Z</time>
      </trkpt>
      <trkpt lat="44.68178" lon="6.86782">
        <ele>2499.3</ele>
        <time>2026-03-25T11:16:22Z</time>
      </trkpt>
      <trkpt lat="44.68178" lon="6.86782">
        <ele>2499.3</ele>
        <time>2026-03-25T11:16:23Z</time>
      </trkpt>
      <trkpt lat="44.68178" lon="6.86783">
        <ele>2499.3</ele>
        <time>2026-03-25T11:16:24Z</time>
      </trkpt>
      <trkpt lat="44.68179" lon="6.86784">
        <ele>2501.1</ele>
        <time>2026-03-25T11:16:26Z</time>
      </trkpt>
      <trkpt lat="44.68179" lon="6.86784">
        <ele>2501.1</ele>
        <time>2026-03-25T11:16:27Z</time>
      </trkpt>
      <trkpt lat="44.68179" lon="6.86785">
        <ele>2501.1</ele>
        <time>2026-03-25T11:16:28Z</time>
      </trkpt>
      <trkpt lat="44.68179" lon="6.86786">
        <ele>2501.1</ele>
        <time>2026-03-25T11:16:29Z</time>
      </trkpt>
      <trkpt lat="44.68179" lon="6.86787">
        <ele>2501.1</ele>
        <time>2026-03-25T11:16:31Z</time>
      </trkpt>
      <trkpt lat="44.68179" lon="6.86787">
        <ele>2501</ele>
        <time>2026-03-25T11:16:32Z</time>
      </trkpt>
      <trkpt lat="44.68179" lon="6.86788">
        <ele>2502.8</ele>
        <time>2026-03-25T11:16:33Z</time>
      </trkpt>
      <trkpt lat="44.68179" lon="6.86788">
        <ele>2502.8</ele>
        <time>2026-03-25T11:16:34Z</time>
      </trkpt>
      <trkpt lat="44.68179" lon="6.86789">
        <ele>2502.8</ele>
        <time>2026-03-25T11:16:35Z</time>
      </trkpt>
      <trkpt lat="44.68179" lon="6.86789">
        <ele>2502.8</ele>
        <time>2026-03-25T11:16:36Z</time>
      </trkpt>
      <trkpt lat="44.68179" lon="6.8679">
        <ele>2502.8</ele>
        <time>2026-03-25T11:16:37Z</time>
      </trkpt>
      <trkpt lat="44.68179" lon="6.8679">
        <ele>2502.8</ele>
        <time>2026-03-25T11:16:38Z</time>
      </trkpt>
      <trkpt lat="44.68179" lon="6.86791">
        <ele>2502.8</ele>
        <time>2026-03-25T11:16:39Z</time>
      </trkpt>
      <trkpt lat="44.6818" lon="6.86792">
        <ele>2504.5</ele>
        <time>2026-03-25T11:16:40Z</time>
      </trkpt>
      <trkpt lat="44.6818" lon="6.86792">
        <ele>2504.5</ele>
        <time>2026-03-25T11:16:41Z</time>
      </trkpt>
      <trkpt lat="44.6818" lon="6.86793">
        <ele>2504.5</ele>
        <time>2026-03-25T11:16:42Z</time>
      </trkpt>
      <trkpt lat="44.6818" lon="6.86794">
        <ele>2504.5</ele>
        <time>2026-03-25T11:16:43Z</time>
      </trkpt>
      <trkpt lat="44.6818" lon="6.86794">
        <ele>2504.5</ele>
        <time>2026-03-25T11:16:44Z</time>
      </trkpt>
      <trkpt lat="44.6818" lon="6.86795">
        <ele>2504.5</ele>
        <time>2026-03-25T11:16:45Z</time>
      </trkpt>
      <trkpt lat="44.6818" lon="6.86796">
        <ele>2506.1</ele>
        <time>2026-03-25T11:16:46Z</time>
      </trkpt>
      <trkpt lat="44.6818" lon="6.86797">
        <ele>2506.1</ele>
        <time>2026-03-25T11:16:47Z</time>
      </trkpt>
      <trkpt lat="44.6818" lon="6.86797">
        <ele>2506.1</ele>
        <time>2026-03-25T11:16:48Z</time>
      </trkpt>
      <trkpt lat="44.6818" lon="6.86798">
        <ele>2506.1</ele>
        <time>2026-03-25T11:16:49Z</time>
      </trkpt>
      <trkpt lat="44.6818" lon="6.86799">
        <ele>2506.1</ele>
        <time>2026-03-25T11:16:50Z</time>
      </trkpt>
      <trkpt lat="44.68179" lon="6.86799">
        <ele>2506.1</ele>
        <time>2026-03-25T11:16:51Z</time>
      </trkpt>
      <trkpt lat="44.68179" lon="6.868">
        <ele>2507.8</ele>
        <time>2026-03-25T11:16:52Z</time>
      </trkpt>
      <trkpt lat="44.68179" lon="6.86801">
        <ele>2507.8</ele>
        <time>2026-03-25T11:16:53Z</time>
      </trkpt>
      <trkpt lat="44.68179" lon="6.86801">
        <ele>2507.8</ele>
        <time>2026-03-25T11:16:54Z</time>
      </trkpt>
      <trkpt lat="44.68179" lon="6.86802">
        <ele>2507.8</ele>
        <time>2026-03-25T11:16:55Z</time>
      </trkpt>
      <trkpt lat="44.6818" lon="6.86802">
        <ele>2507.8</ele>
        <time>2026-03-25T11:16:56Z</time>
      </trkpt>
      <trkpt lat="44.6818" lon="6.86803">
        <ele>2507.8</ele>
        <time>2026-03-25T11:16:57Z</time>
      </trkpt>
      <trkpt lat="44.6818" lon="6.86803">
        <ele>2507.8</ele>
        <time>2026-03-25T11:16:58Z</time>
      </trkpt>
      <trkpt lat="44.6818" lon="6.86804">
        <ele>2507.8</ele>
        <time>2026-03-25T11:16:59Z</time>
      </trkpt>
      <trkpt lat="44.6818" lon="6.86805">
        <ele>2509.3</ele>
        <time>2026-03-25T11:17:00Z</time>
      </trkpt>
      <trkpt lat="44.6818" lon="6.86805">
        <ele>2509.3</ele>
        <time>2026-03-25T11:17:01Z</time>
      </trkpt>
      <trkpt lat="44.6818" lon="6.86806">
        <ele>2509.3</ele>
        <time>2026-03-25T11:17:02Z</time>
      </trkpt>
      <trkpt lat="44.6818" lon="6.86806">
        <ele>2509.3</ele>
        <time>2026-03-25T11:17:03Z</time>
      </trkpt>
      <trkpt lat="44.6818" lon="6.86806">
        <ele>2509.3</ele>
        <time>2026-03-25T11:17:04Z</time>
      </trkpt>
      <trkpt lat="44.6818" lon="6.86807">
        <ele>2509.3</ele>
        <time>2026-03-25T11:17:06Z</time>
      </trkpt>
      <trkpt lat="44.6818" lon="6.86808">
        <ele>2509.3</ele>
        <time>2026-03-25T11:17:07Z</time>
      </trkpt>
      <trkpt lat="44.6818" lon="6.86808">
        <ele>2509.3</ele>
        <time>2026-03-25T11:17:08Z</time>
      </trkpt>
      <trkpt lat="44.6818" lon="6.86809">
        <ele>2510.8</ele>
        <time>2026-03-25T11:17:09Z</time>
      </trkpt>
      <trkpt lat="44.6818" lon="6.86809">
        <ele>2510.8</ele>
        <time>2026-03-25T11:17:10Z</time>
      </trkpt>
      <trkpt lat="44.68181" lon="6.8681">
        <ele>2510.8</ele>
        <time>2026-03-25T11:17:11Z</time>
      </trkpt>
      <trkpt lat="44.68181" lon="6.8681">
        <ele>2509.8</ele>
        <time>2026-03-25T11:17:12Z</time>
      </trkpt>
      <trkpt lat="44.68181" lon="6.86811">
        <ele>2509.8</ele>
        <time>2026-03-25T11:17:13Z</time>
      </trkpt>
      <trkpt lat="44.68181" lon="6.86811">
        <ele>2509.8</ele>
        <time>2026-03-25T11:17:14Z</time>
      </trkpt>
      <trkpt lat="44.68181" lon="6.86812">
        <ele>2509.8</ele>
        <time>2026-03-25T11:17:15Z</time>
      </trkpt>
      <trkpt lat="44.68181" lon="6.86812">
        <ele>2509.8</ele>
        <time>2026-03-25T11:17:16Z</time>
      </trkpt>
      <trkpt lat="44.68182" lon="6.86813">
        <ele>2509.8</ele>
        <time>2026-03-25T11:17:17Z</time>
      </trkpt>
      <trkpt lat="44.68182" lon="6.86813">
        <ele>2511.2</ele>
        <time>2026-03-25T11:17:18Z</time>
      </trkpt>
      <trkpt lat="44.68182" lon="6.86814">
        <ele>2511.2</ele>
        <time>2026-03-25T11:17:19Z</time>
      </trkpt>
      <trkpt lat="44.68182" lon="6.86814">
        <ele>2511.2</ele>
        <time>2026-03-25T11:17:20Z</time>
      </trkpt>
      <trkpt lat="44.68182" lon="6.86814">
        <ele>2511.2</ele>
        <time>2026-03-25T11:17:21Z</time>
      </trkpt>
      <trkpt lat="44.68182" lon="6.86815">
        <ele>2511.2</ele>
        <time>2026-03-25T11:17:22Z</time>
      </trkpt>
      <trkpt lat="44.68182" lon="6.86815">
        <ele>2511.2</ele>
        <time>2026-03-25T11:17:23Z</time>
      </trkpt>
      <trkpt lat="44.68182" lon="6.86815">
        <ele>2511.2</ele>
        <time>2026-03-25T11:17:24Z</time>
      </trkpt>
      <trkpt lat="44.68182" lon="6.86814">
        <ele>2511.2</ele>
        <time>2026-03-25T11:17:25Z</time>
      </trkpt>
      <trkpt lat="44.68182" lon="6.86814">
        <ele>2511.2</ele>
        <time>2026-03-25T11:17:26Z</time>
      </trkpt>
      <trkpt lat="44.68182" lon="6.86814">
        <ele>2511.2</ele>
        <time>2026-03-25T11:17:27Z</time>
      </trkpt>
      <trkpt lat="44.68181" lon="6.86814">
        <ele>2511.2</ele>
        <time>2026-03-25T11:17:29Z</time>
      </trkpt>
      <trkpt lat="44.68181" lon="6.86814">
        <ele>2511.2</ele>
        <time>2026-03-25T11:17:30Z</time>
      </trkpt>
      <trkpt lat="44.68181" lon="6.86814">
        <ele>2511.2</ele>
        <time>2026-03-25T11:17:31Z</time>
      </trkpt>
      <trkpt lat="44.68181" lon="6.86814">
        <ele>2511.2</ele>
        <time>2026-03-25T11:17:32Z</time>
      </trkpt>
      <trkpt lat="44.68181" lon="6.86814">
        <ele>2511.2</ele>
        <time>2026-03-25T11:17:33Z</time>
      </trkpt>
      <trkpt lat="44.68181" lon="6.86815">
        <ele>2511.2</ele>
        <time>2026-03-25T11:17:34Z</time>
      </trkpt>
      <trkpt lat="44.68181" lon="6.86815">
        <ele>2512.1</ele>
        <time>2026-03-25T11:17:35Z</time>
      </trkpt>
      <trkpt lat="44.6818" lon="6.86815">
        <ele>2512.1</ele>
        <time>2026-03-25T11:17:37Z</time>
      </trkpt>
      <trkpt lat="44.6818" lon="6.86815">
        <ele>2512.1</ele>
        <time>2026-03-25T11:17:38Z</time>
      </trkpt>
      <trkpt lat="44.68179" lon="6.86815">
        <ele>2512.1</ele>
        <time>2026-03-25T11:17:39Z</time>
      </trkpt>
      <trkpt lat="44.68179" lon="6.86815">
        <ele>2512.1</ele>
        <time>2026-03-25T11:17:40Z</time>
      </trkpt>
      <trkpt lat="44.68178" lon="6.86815">
        <ele>2512.1</ele>
        <time>2026-03-25T11:17:41Z</time>
      </trkpt>
      <trkpt lat="44.68178" lon="6.86815">
        <ele>2513.1</ele>
        <time>2026-03-25T11:17:42Z</time>
      </trkpt>
      <trkpt lat="44.68177" lon="6.86814">
        <ele>2513.1</ele>
        <time>2026-03-25T11:17:43Z</time>
      </trkpt>
      <trkpt lat="44.68177" lon="6.86814">
        <ele>2513.1</ele>
        <time>2026-03-25T11:17:44Z</time>
      </trkpt>
      <trkpt lat="44.68176" lon="6.86814">
        <ele>2513.1</ele>
        <time>2026-03-25T11:17:45Z</time>
      </trkpt>
      <trkpt lat="44.68176" lon="6.86814">
        <ele>2513.1</ele>
        <time>2026-03-25T11:17:46Z</time>
      </trkpt>
      <trkpt lat="44.68175" lon="6.86814">
        <ele>2513.1</ele>
        <time>2026-03-25T11:17:47Z</time>
      </trkpt>
      <trkpt lat="44.68175" lon="6.86813">
        <ele>2513.1</ele>
        <time>2026-03-25T11:17:48Z</time>
      </trkpt>
      <trkpt lat="44.68174" lon="6.86813">
        <ele>2514.1</ele>
        <time>2026-03-25T11:17:49Z</time>
      </trkpt>
      <trkpt lat="44.68174" lon="6.86813">
        <ele>2512.8</ele>
        <time>2026-03-25T11:17:50Z</time>
      </trkpt>
      <trkpt lat="44.68173" lon="6.86813">
        <ele>2512.8</ele>
        <time>2026-03-25T11:17:51Z</time>
      </trkpt>
      <trkpt lat="44.68173" lon="6.86812">
        <ele>2512.8</ele>
        <time>2026-03-25T11:17:52Z</time>
      </trkpt>
      <trkpt lat="44.68172" lon="6.86812">
        <ele>2512.8</ele>
        <time>2026-03-25T11:17:53Z</time>
      </trkpt>
      <trkpt lat="44.68171" lon="6.86812">
        <ele>2513.9</ele>
        <time>2026-03-25T11:17:54Z</time>
      </trkpt>
      <trkpt lat="44.68171" lon="6.86812">
        <ele>2513.9</ele>
        <time>2026-03-25T11:17:55Z</time>
      </trkpt>
      <trkpt lat="44.68171" lon="6.86811">
        <ele>2513.9</ele>
        <time>2026-03-25T11:17:56Z</time>
      </trkpt>
      <trkpt lat="44.6817" lon="6.86811">
        <ele>2513.9</ele>
        <time>2026-03-25T11:17:57Z</time>
      </trkpt>
      <trkpt lat="44.6817" lon="6.86811">
        <ele>2513.9</ele>
        <time>2026-03-25T11:17:58Z</time>
      </trkpt>
      <trkpt lat="44.6817" lon="6.86811">
        <ele>2513.9</ele>
        <time>2026-03-25T11:17:59Z</time>
      </trkpt>
      <trkpt lat="44.6817" lon="6.86811">
        <ele>2513.9</ele>
        <time>2026-03-25T11:18:00Z</time>
      </trkpt>
      <trkpt lat="44.68169" lon="6.86811">
        <ele>2513.9</ele>
        <time>2026-03-25T11:18:01Z</time>
      </trkpt>
      <trkpt lat="44.68169" lon="6.8681">
        <ele>2513.9</ele>
        <time>2026-03-25T11:18:02Z</time>
      </trkpt>
      <trkpt lat="44.68168" lon="6.8681">
        <ele>2515</ele>
        <time>2026-03-25T11:18:03Z</time>
      </trkpt>
      <trkpt lat="44.68168" lon="6.8681">
        <ele>2515</ele>
        <time>2026-03-25T11:18:04Z</time>
      </trkpt>
      <trkpt lat="44.68167" lon="6.8681">
        <ele>2515</ele>
        <time>2026-03-25T11:18:05Z</time>
      </trkpt>
      <trkpt lat="44.68167" lon="6.8681">
        <ele>2515</ele>
        <time>2026-03-25T11:18:06Z</time>
      </trkpt>
      <trkpt lat="44.68167" lon="6.8681">
        <ele>2515</ele>
        <time>2026-03-25T11:18:07Z</time>
      </trkpt>
      <trkpt lat="44.68166" lon="6.8681">
        <ele>2515</ele>
        <time>2026-03-25T11:18:08Z</time>
      </trkpt>
      <trkpt lat="44.68166" lon="6.8681">
        <ele>2515</ele>
        <time>2026-03-25T11:18:10Z</time>
      </trkpt>
      <trkpt lat="44.68165" lon="6.8681">
        <ele>2516.1</ele>
        <time>2026-03-25T11:18:11Z</time>
      </trkpt>
      <trkpt lat="44.68165" lon="6.8681">
        <ele>2516.1</ele>
        <time>2026-03-25T11:18:12Z</time>
      </trkpt>
      <trkpt lat="44.68165" lon="6.8681">
        <ele>2516.1</ele>
        <time>2026-03-25T11:18:13Z</time>
      </trkpt>
      <trkpt lat="44.68165" lon="6.8681">
        <ele>2516.1</ele>
        <time>2026-03-25T11:18:14Z</time>
      </trkpt>
      <trkpt lat="44.68164" lon="6.8681">
        <ele>2516.1</ele>
        <time>2026-03-25T11:18:15Z</time>
      </trkpt>
      <trkpt lat="44.68164" lon="6.8681">
        <ele>2516.1</ele>
        <time>2026-03-25T11:18:16Z</time>
      </trkpt>
      <trkpt lat="44.68164" lon="6.86809">
        <ele>2516.1</ele>
        <time>2026-03-25T11:18:17Z</time>
      </trkpt>
      <trkpt lat="44.68164" lon="6.86809">
        <ele>2516.1</ele>
        <time>2026-03-25T11:18:18Z</time>
      </trkpt>
      <trkpt lat="44.68163" lon="6.86809">
        <ele>2516.1</ele>
        <time>2026-03-25T11:18:20Z</time>
      </trkpt>
      <trkpt lat="44.68163" lon="6.86809">
        <ele>2516.1</ele>
        <time>2026-03-25T11:18:21Z</time>
      </trkpt>
      <trkpt lat="44.68163" lon="6.86809">
        <ele>2516.1</ele>
        <time>2026-03-25T11:18:22Z</time>
      </trkpt>
      <trkpt lat="44.68162" lon="6.86809">
        <ele>2514.8</ele>
        <time>2026-03-25T11:18:23Z</time>
      </trkpt>
      <trkpt lat="44.68162" lon="6.86808">
        <ele>2515.8</ele>
        <time>2026-03-25T11:18:24Z</time>
      </trkpt>
      <trkpt lat="44.68162" lon="6.86808">
        <ele>2515.8</ele>
        <time>2026-03-25T11:18:25Z</time>
      </trkpt>
      <trkpt lat="44.68162" lon="6.86808">
        <ele>2515.8</ele>
        <time>2026-03-25T11:18:26Z</time>
      </trkpt>
      <trkpt lat="44.68161" lon="6.86808">
        <ele>2515.8</ele>
        <time>2026-03-25T11:18:27Z</time>
      </trkpt>
      <trkpt lat="44.68161" lon="6.86807">
        <ele>2515.8</ele>
        <time>2026-03-25T11:18:28Z</time>
      </trkpt>
      <trkpt lat="44.6816" lon="6.86807">
        <ele>2515.8</ele>
        <time>2026-03-25T11:18:29Z</time>
      </trkpt>
      <trkpt lat="44.6816" lon="6.86807">
        <ele>2515.8</ele>
        <time>2026-03-25T11:18:30Z</time>
      </trkpt>
      <trkpt lat="44.68159" lon="6.86807">
        <ele>2516.9</ele>
        <time>2026-03-25T11:18:31Z</time>
      </trkpt>
      <trkpt lat="44.68159" lon="6.86806">
        <ele>2516.9</ele>
        <time>2026-03-25T11:18:32Z</time>
      </trkpt>
      <trkpt lat="44.68158" lon="6.86806">
        <ele>2516.9</ele>
        <time>2026-03-25T11:18:33Z</time>
      </trkpt>
      <trkpt lat="44.68157" lon="6.86805">
        <ele>2516.9</ele>
        <time>2026-03-25T11:18:35Z</time>
      </trkpt>
      <trkpt lat="44.68157" lon="6.86805">
        <ele>2516.9</ele>
        <time>2026-03-25T11:18:36Z</time>
      </trkpt>
      <trkpt lat="44.68157" lon="6.86805">
        <ele>2516.9</ele>
        <time>2026-03-25T11:18:37Z</time>
      </trkpt>
      <trkpt lat="44.68156" lon="6.86805">
        <ele>2516.9</ele>
        <time>2026-03-25T11:18:38Z</time>
      </trkpt>
      <trkpt lat="44.68156" lon="6.86804">
        <ele>2517.9</ele>
        <time>2026-03-25T11:18:39Z</time>
      </trkpt>
      <trkpt lat="44.68155" lon="6.86804">
        <ele>2516.5</ele>
        <time>2026-03-25T11:18:40Z</time>
      </trkpt>
      <trkpt lat="44.68155" lon="6.86804">
        <ele>2516.5</ele>
        <time>2026-03-25T11:18:41Z</time>
      </trkpt>
      <trkpt lat="44.68155" lon="6.86803">
        <ele>2516.5</ele>
        <time>2026-03-25T11:18:42Z</time>
      </trkpt>
      <trkpt lat="44.68154" lon="6.86803">
        <ele>2516.5</ele>
        <time>2026-03-25T11:18:43Z</time>
      </trkpt>
      <trkpt lat="44.68154" lon="6.86803">
        <ele>2516.5</ele>
        <time>2026-03-25T11:18:44Z</time>
      </trkpt>
      <trkpt lat="44.68153" lon="6.86803">
        <ele>2516.5</ele>
        <time>2026-03-25T11:18:45Z</time>
      </trkpt>
      <trkpt lat="44.68153" lon="6.86802">
        <ele>2517.5</ele>
        <time>2026-03-25T11:18:46Z</time>
      </trkpt>
      <trkpt lat="44.68152" lon="6.86802">
        <ele>2517.5</ele>
        <time>2026-03-25T11:18:47Z</time>
      </trkpt>
      <trkpt lat="44.68152" lon="6.86802">
        <ele>2517.5</ele>
        <time>2026-03-25T11:18:48Z</time>
      </trkpt>
      <trkpt lat="44.68152" lon="6.86802">
        <ele>2517.5</ele>
        <time>2026-03-25T11:18:49Z</time>
      </trkpt>
      <trkpt lat="44.68152" lon="6.86803">
        <ele>2517.5</ele>
        <time>2026-03-25T11:18:50Z</time>
      </trkpt>
      <trkpt lat="44.68152" lon="6.86803">
        <ele>2517.5</ele>
        <time>2026-03-25T11:18:51Z</time>
      </trkpt>
      <trkpt lat="44.68152" lon="6.86803">
        <ele>2517.5</ele>
        <time>2026-03-25T11:18:52Z</time>
      </trkpt>
      <trkpt lat="44.68152" lon="6.86803">
        <ele>2517.5</ele>
        <time>2026-03-25T11:18:53Z</time>
      </trkpt>
      <trkpt lat="44.68152" lon="6.86803">
        <ele>2517.5</ele>
        <time>2026-03-25T11:18:54Z</time>
      </trkpt>
      <trkpt lat="44.68152" lon="6.86803">
        <ele>2517.5</ele>
        <time>2026-03-25T11:18:55Z</time>
      </trkpt>
      <trkpt lat="44.68152" lon="6.86803">
        <ele>2517.5</ele>
        <time>2026-03-25T11:18:56Z</time>
      </trkpt>
      <trkpt lat="44.68152" lon="6.86803">
        <ele>2517.5</ele>
        <time>2026-03-25T11:18:57Z</time>
      </trkpt>
      <trkpt lat="44.68152" lon="6.86804">
        <ele>2517.5</ele>
        <time>2026-03-25T11:18:58Z</time>
      </trkpt>
      <trkpt lat="44.68152" lon="6.86804">
        <ele>2517.5</ele>
        <time>2026-03-25T11:18:59Z</time>
      </trkpt>
      <trkpt lat="44.68152" lon="6.86804">
        <ele>2517.5</ele>
        <time>2026-03-25T11:19:00Z</time>
      </trkpt>
      <trkpt lat="44.68152" lon="6.86804">
        <ele>2517.5</ele>
        <time>2026-03-25T11:19:01Z</time>
      </trkpt>
      <trkpt lat="44.68152" lon="6.86804">
        <ele>2517.5</ele>
        <time>2026-03-25T11:19:03Z</time>
      </trkpt>
      <trkpt lat="44.68152" lon="6.86804">
        <ele>2517.5</ele>
        <time>2026-03-25T11:19:04Z</time>
      </trkpt>
      <trkpt lat="44.68152" lon="6.86804">
        <ele>2517.5</ele>
        <time>2026-03-25T11:19:05Z</time>
      </trkpt>
      <trkpt lat="44.68152" lon="6.86804">
        <ele>2517.5</ele>
        <time>2026-03-25T11:19:06Z</time>
      </trkpt>
      <trkpt lat="44.68152" lon="6.86804">
        <ele>2518.9</ele>
        <time>2026-03-25T11:19:08Z</time>
      </trkpt>
      <trkpt lat="44.68152" lon="6.86805">
        <ele>2518.9</ele>
        <time>2026-03-25T11:19:09Z</time>
      </trkpt>
      <trkpt lat="44.68152" lon="6.86805">
        <ele>2518.9</ele>
        <time>2026-03-25T11:19:10Z</time>
      </trkpt>
      <trkpt lat="44.68152" lon="6.86805">
        <ele>2518.9</ele>
        <time>2026-03-25T11:19:11Z</time>
      </trkpt>
      <trkpt lat="44.68152" lon="6.86806">
        <ele>2518.9</ele>
        <time>2026-03-25T11:19:12Z</time>
      </trkpt>
      <trkpt lat="44.68152" lon="6.86806">
        <ele>2518.9</ele>
        <time>2026-03-25T11:19:13Z</time>
      </trkpt>
      <trkpt lat="44.68152" lon="6.86806">
        <ele>2518.9</ele>
        <time>2026-03-25T11:19:14Z</time>
      </trkpt>
      <trkpt lat="44.68152" lon="6.86807">
        <ele>2518.9</ele>
        <time>2026-03-25T11:19:15Z</time>
      </trkpt>
      <trkpt lat="44.68152" lon="6.86808">
        <ele>2518.9</ele>
        <time>2026-03-25T11:19:16Z</time>
      </trkpt>
      <trkpt lat="44.68152" lon="6.86808">
        <ele>2518.9</ele>
        <time>2026-03-25T11:19:17Z</time>
      </trkpt>
      <trkpt lat="44.68152" lon="6.86809">
        <ele>2520.2</ele>
        <time>2026-03-25T11:19:19Z</time>
      </trkpt>
      <trkpt lat="44.68152" lon="6.8681">
        <ele>2520.2</ele>
        <time>2026-03-25T11:19:20Z</time>
      </trkpt>
      <trkpt lat="44.68152" lon="6.8681">
        <ele>2520.2</ele>
        <time>2026-03-25T11:19:21Z</time>
      </trkpt>
      <trkpt lat="44.68152" lon="6.86811">
        <ele>2520.2</ele>
        <time>2026-03-25T11:19:22Z</time>
      </trkpt>
      <trkpt lat="44.68152" lon="6.86811">
        <ele>2520.2</ele>
        <time>2026-03-25T11:19:23Z</time>
      </trkpt>
      <trkpt lat="44.68152" lon="6.86812">
        <ele>2520.2</ele>
        <time>2026-03-25T11:19:24Z</time>
      </trkpt>
      <trkpt lat="44.68152" lon="6.86812">
        <ele>2520.2</ele>
        <time>2026-03-25T11:19:25Z</time>
      </trkpt>
      <trkpt lat="44.68153" lon="6.86813">
        <ele>2521.4</ele>
        <time>2026-03-25T11:19:26Z</time>
      </trkpt>
      <trkpt lat="44.68153" lon="6.86814">
        <ele>2521.4</ele>
        <time>2026-03-25T11:19:27Z</time>
      </trkpt>
      <trkpt lat="44.68153" lon="6.86815">
        <ele>2521.4</ele>
        <time>2026-03-25T11:19:28Z</time>
      </trkpt>
      <trkpt lat="44.68153" lon="6.86816">
        <ele>2521.4</ele>
        <time>2026-03-25T11:19:29Z</time>
      </trkpt>
      <trkpt lat="44.68153" lon="6.86817">
        <ele>2521.4</ele>
        <time>2026-03-25T11:19:31Z</time>
      </trkpt>
      <trkpt lat="44.68153" lon="6.86818">
        <ele>2521.6</ele>
        <time>2026-03-25T11:19:32Z</time>
      </trkpt>
      <trkpt lat="44.68153" lon="6.86818">
        <ele>2521.6</ele>
        <time>2026-03-25T11:19:33Z</time>
      </trkpt>
      <trkpt lat="44.68154" lon="6.86819">
        <ele>2521.6</ele>
        <time>2026-03-25T11:19:34Z</time>
      </trkpt>
      <trkpt lat="44.68154" lon="6.8682">
        <ele>2521.6</ele>
        <time>2026-03-25T11:19:35Z</time>
      </trkpt>
      <trkpt lat="44.68154" lon="6.8682">
        <ele>2521.6</ele>
        <time>2026-03-25T11:19:36Z</time>
      </trkpt>
      <trkpt lat="44.68154" lon="6.86821">
        <ele>2521.6</ele>
        <time>2026-03-25T11:19:37Z</time>
      </trkpt>
      <trkpt lat="44.68154" lon="6.86821">
        <ele>2521.6</ele>
        <time>2026-03-25T11:19:38Z</time>
      </trkpt>
      <trkpt lat="44.68154" lon="6.86822">
        <ele>2522.8</ele>
        <time>2026-03-25T11:19:39Z</time>
      </trkpt>
      <trkpt lat="44.68154" lon="6.86822">
        <ele>2522.8</ele>
        <time>2026-03-25T11:19:40Z</time>
      </trkpt>
      <trkpt lat="44.68154" lon="6.86823">
        <ele>2522.8</ele>
        <time>2026-03-25T11:19:41Z</time>
      </trkpt>
      <trkpt lat="44.68154" lon="6.86824">
        <ele>2522.8</ele>
        <time>2026-03-25T11:19:43Z</time>
      </trkpt>
      <trkpt lat="44.68154" lon="6.86825">
        <ele>2522.8</ele>
        <time>2026-03-25T11:19:45Z</time>
      </trkpt>
      <trkpt lat="44.68154" lon="6.86826">
        <ele>2523.9</ele>
        <time>2026-03-25T11:19:46Z</time>
      </trkpt>
      <trkpt lat="44.68155" lon="6.86827">
        <ele>2523.9</ele>
        <time>2026-03-25T11:19:47Z</time>
      </trkpt>
      <trkpt lat="44.68155" lon="6.86827">
        <ele>2523.9</ele>
        <time>2026-03-25T11:19:48Z</time>
      </trkpt>
      <trkpt lat="44.68155" lon="6.86827">
        <ele>2523.9</ele>
        <time>2026-03-25T11:19:49Z</time>
      </trkpt>
      <trkpt lat="44.68155" lon="6.86828">
        <ele>2523.9</ele>
        <time>2026-03-25T11:19:50Z</time>
      </trkpt>
      <trkpt lat="44.68155" lon="6.86828">
        <ele>2523.9</ele>
        <time>2026-03-25T11:19:51Z</time>
      </trkpt>
      <trkpt lat="44.68155" lon="6.86829">
        <ele>2523.9</ele>
        <time>2026-03-25T11:19:53Z</time>
      </trkpt>
      <trkpt lat="44.68155" lon="6.86829">
        <ele>2523.9</ele>
        <time>2026-03-25T11:19:54Z</time>
      </trkpt>
      <trkpt lat="44.68155" lon="6.86829">
        <ele>2523.9</ele>
        <time>2026-03-25T11:19:55Z</time>
      </trkpt>
      <trkpt lat="44.68155" lon="6.8683">
        <ele>2523.9</ele>
        <time>2026-03-25T11:19:56Z</time>
      </trkpt>
      <trkpt lat="44.68155" lon="6.8683">
        <ele>2525</ele>
        <time>2026-03-25T11:19:57Z</time>
      </trkpt>
      <trkpt lat="44.68155" lon="6.86831">
        <ele>2525</ele>
        <time>2026-03-25T11:19:58Z</time>
      </trkpt>
      <trkpt lat="44.68154" lon="6.86831">
        <ele>2525</ele>
        <time>2026-03-25T11:19:59Z</time>
      </trkpt>
      <trkpt lat="44.68154" lon="6.86832">
        <ele>2525</ele>
        <time>2026-03-25T11:20:01Z</time>
      </trkpt>
      <trkpt lat="44.68154" lon="6.86832">
        <ele>2525</ele>
        <time>2026-03-25T11:20:02Z</time>
      </trkpt>
      <trkpt lat="44.68154" lon="6.86833">
        <ele>2525</ele>
        <time>2026-03-25T11:20:03Z</time>
      </trkpt>
      <trkpt lat="44.68154" lon="6.86833">
        <ele>2525</ele>
        <time>2026-03-25T11:20:04Z</time>
      </trkpt>
      <trkpt lat="44.68154" lon="6.86834">
        <ele>2525</ele>
        <time>2026-03-25T11:20:05Z</time>
      </trkpt>
      <trkpt lat="44.68155" lon="6.86834">
        <ele>2525</ele>
        <time>2026-03-25T11:20:06Z</time>
      </trkpt>
      <trkpt lat="44.68155" lon="6.86834">
        <ele>2525</ele>
        <time>2026-03-25T11:20:07Z</time>
      </trkpt>
      <trkpt lat="44.68155" lon="6.86834">
        <ele>2525</ele>
        <time>2026-03-25T11:20:08Z</time>
      </trkpt>
      <trkpt lat="44.68155" lon="6.86835">
        <ele>2526.1</ele>
        <time>2026-03-25T11:20:09Z</time>
      </trkpt>
      <trkpt lat="44.68155" lon="6.86835">
        <ele>2526.1</ele>
        <time>2026-03-25T11:20:10Z</time>
      </trkpt>
      <trkpt lat="44.68155" lon="6.86835">
        <ele>2526.1</ele>
        <time>2026-03-25T11:20:11Z</time>
      </trkpt>
      <trkpt lat="44.68155" lon="6.86835">
        <ele>2526.1</ele>
        <time>2026-03-25T11:20:12Z</time>
      </trkpt>
      <trkpt lat="44.68155" lon="6.86836">
        <ele>2526.1</ele>
        <time>2026-03-25T11:20:13Z</time>
      </trkpt>
      <trkpt lat="44.68155" lon="6.86836">
        <ele>2526.1</ele>
        <time>2026-03-25T11:20:14Z</time>
      </trkpt>
      <trkpt lat="44.68155" lon="6.86836">
        <ele>2526.1</ele>
        <time>2026-03-25T11:20:15Z</time>
      </trkpt>
      <trkpt lat="44.68154" lon="6.86836">
        <ele>2526.1</ele>
        <time>2026-03-25T11:20:16Z</time>
      </trkpt>
      <trkpt lat="44.68154" lon="6.86836">
        <ele>2526.1</ele>
        <time>2026-03-25T11:20:17Z</time>
      </trkpt>
      <trkpt lat="44.68154" lon="6.86836">
        <ele>2526.1</ele>
        <time>2026-03-25T11:20:18Z</time>
      </trkpt>
      <trkpt lat="44.68154" lon="6.86837">
        <ele>2526.1</ele>
        <time>2026-03-25T11:20:19Z</time>
      </trkpt>
      <trkpt lat="44.68154" lon="6.86837">
        <ele>2526.1</ele>
        <time>2026-03-25T11:20:20Z</time>
      </trkpt>
      <trkpt lat="44.68154" lon="6.86837">
        <ele>2526.1</ele>
        <time>2026-03-25T11:20:21Z</time>
      </trkpt>
      <trkpt lat="44.68154" lon="6.86837">
        <ele>2526.1</ele>
        <time>2026-03-25T11:20:22Z</time>
      </trkpt>
      <trkpt lat="44.68154" lon="6.86837">
        <ele>2526.1</ele>
        <time>2026-03-25T11:20:23Z</time>
      </trkpt>
      <trkpt lat="44.68154" lon="6.86837">
        <ele>2526.1</ele>
        <time>2026-03-25T11:20:24Z</time>
      </trkpt>
      <trkpt lat="44.68154" lon="6.86837">
        <ele>2526.1</ele>
        <time>2026-03-25T11:20:25Z</time>
      </trkpt>
      <trkpt lat="44.68154" lon="6.86837">
        <ele>2526.1</ele>
        <time>2026-03-25T11:20:26Z</time>
      </trkpt>
      <trkpt lat="44.68153" lon="6.86837">
        <ele>2526.1</ele>
        <time>2026-03-25T11:20:27Z</time>
      </trkpt>
      <trkpt lat="44.68153" lon="6.86837">
        <ele>2527.1</ele>
        <time>2026-03-25T11:20:28Z</time>
      </trkpt>
      <trkpt lat="44.68153" lon="6.86837">
        <ele>2527.1</ele>
        <time>2026-03-25T11:20:29Z</time>
      </trkpt>
      <trkpt lat="44.68153" lon="6.86837">
        <ele>2527.1</ele>
        <time>2026-03-25T11:20:30Z</time>
      </trkpt>
      <trkpt lat="44.68152" lon="6.86837">
        <ele>2527.1</ele>
        <time>2026-03-25T11:20:31Z</time>
      </trkpt>
      <trkpt lat="44.68152" lon="6.86837">
        <ele>2527.1</ele>
        <time>2026-03-25T11:20:33Z</time>
      </trkpt>
      <trkpt lat="44.68151" lon="6.86836">
        <ele>2527.1</ele>
        <time>2026-03-25T11:20:34Z</time>
      </trkpt>
      <trkpt lat="44.68151" lon="6.86836">
        <ele>2527.1</ele>
        <time>2026-03-25T11:20:35Z</time>
      </trkpt>
      <trkpt lat="44.68151" lon="6.86836">
        <ele>2527.1</ele>
        <time>2026-03-25T11:20:36Z</time>
      </trkpt>
      <trkpt lat="44.6815" lon="6.86836">
        <ele>2527.1</ele>
        <time>2026-03-25T11:20:37Z</time>
      </trkpt>
      <trkpt lat="44.6815" lon="6.86836">
        <ele>2528.1</ele>
        <time>2026-03-25T11:20:38Z</time>
      </trkpt>
      <trkpt lat="44.6815" lon="6.86835">
        <ele>2528.1</ele>
        <time>2026-03-25T11:20:39Z</time>
      </trkpt>
      <trkpt lat="44.68149" lon="6.86835">
        <ele>2528.1</ele>
        <time>2026-03-25T11:20:40Z</time>
      </trkpt>
      <trkpt lat="44.68149" lon="6.86835">
        <ele>2528.1</ele>
        <time>2026-03-25T11:20:42Z</time>
      </trkpt>
      <trkpt lat="44.68149" lon="6.86835">
        <ele>2528.1</ele>
        <time>2026-03-25T11:20:43Z</time>
      </trkpt>
      <trkpt lat="44.68148" lon="6.86835">
        <ele>2528.1</ele>
        <time>2026-03-25T11:20:44Z</time>
      </trkpt>
      <trkpt lat="44.68148" lon="6.86834">
        <ele>2528.1</ele>
        <time>2026-03-25T11:20:45Z</time>
      </trkpt>
      <trkpt lat="44.68148" lon="6.86834">
        <ele>2527</ele>
        <time>2026-03-25T11:20:46Z</time>
      </trkpt>
      <trkpt lat="44.68148" lon="6.86834">
        <ele>2527</ele>
        <time>2026-03-25T11:20:47Z</time>
      </trkpt>
      <trkpt lat="44.68147" lon="6.86834">
        <ele>2527</ele>
        <time>2026-03-25T11:20:48Z</time>
      </trkpt>
      <trkpt lat="44.68147" lon="6.86834">
        <ele>2528</ele>
        <time>2026-03-25T11:20:49Z</time>
      </trkpt>
      <trkpt lat="44.68147" lon="6.86834">
        <ele>2528</ele>
        <time>2026-03-25T11:20:50Z</time>
      </trkpt>
      <trkpt lat="44.68146" lon="6.86833">
        <ele>2528</ele>
        <time>2026-03-25T11:20:51Z</time>
      </trkpt>
      <trkpt lat="44.68146" lon="6.86833">
        <ele>2528</ele>
        <time>2026-03-25T11:20:52Z</time>
      </trkpt>
      <trkpt lat="44.68145" lon="6.86833">
        <ele>2528</ele>
        <time>2026-03-25T11:20:53Z</time>
      </trkpt>
      <trkpt lat="44.68145" lon="6.86833">
        <ele>2528</ele>
        <time>2026-03-25T11:20:54Z</time>
      </trkpt>
      <trkpt lat="44.68145" lon="6.86833">
        <ele>2528</ele>
        <time>2026-03-25T11:20:55Z</time>
      </trkpt>
      <trkpt lat="44.68144" lon="6.86833">
        <ele>2528</ele>
        <time>2026-03-25T11:20:56Z</time>
      </trkpt>
      <trkpt lat="44.68144" lon="6.86833">
        <ele>2529.1</ele>
        <time>2026-03-25T11:20:57Z</time>
      </trkpt>
      <trkpt lat="44.68143" lon="6.86833">
        <ele>2529.1</ele>
        <time>2026-03-25T11:20:58Z</time>
      </trkpt>
      <trkpt lat="44.68142" lon="6.86833">
        <ele>2529.1</ele>
        <time>2026-03-25T11:20:59Z</time>
      </trkpt>
      <trkpt lat="44.68141" lon="6.86833">
        <ele>2529.1</ele>
        <time>2026-03-25T11:21:01Z</time>
      </trkpt>
      <trkpt lat="44.6814" lon="6.86833">
        <ele>2530.3</ele>
        <time>2026-03-25T11:21:02Z</time>
      </trkpt>
      <trkpt lat="44.6814" lon="6.86832">
        <ele>2530.3</ele>
        <time>2026-03-25T11:21:03Z</time>
      </trkpt>
      <trkpt lat="44.68139" lon="6.86832">
        <ele>2530.3</ele>
        <time>2026-03-25T11:21:04Z</time>
      </trkpt>
      <trkpt lat="44.68139" lon="6.86832">
        <ele>2530.3</ele>
        <time>2026-03-25T11:21:05Z</time>
      </trkpt>
      <trkpt lat="44.68138" lon="6.86832">
        <ele>2530.3</ele>
        <time>2026-03-25T11:21:06Z</time>
      </trkpt>
      <trkpt lat="44.68137" lon="6.86831">
        <ele>2531.5</ele>
        <time>2026-03-25T11:21:07Z</time>
      </trkpt>
      <trkpt lat="44.68136" lon="6.86831">
        <ele>2531.5</ele>
        <time>2026-03-25T11:21:09Z</time>
      </trkpt>
      <trkpt lat="44.68136" lon="6.86831">
        <ele>2531.5</ele>
        <time>2026-03-25T11:21:10Z</time>
      </trkpt>
      <trkpt lat="44.68135" lon="6.86831">
        <ele>2531.5</ele>
        <time>2026-03-25T11:21:11Z</time>
      </trkpt>
      <trkpt lat="44.68135" lon="6.86831">
        <ele>2532.7</ele>
        <time>2026-03-25T11:21:12Z</time>
      </trkpt>
      <trkpt lat="44.68134" lon="6.86831">
        <ele>2532.7</ele>
        <time>2026-03-25T11:21:13Z</time>
      </trkpt>
      <trkpt lat="44.68132" lon="6.86831">
        <ele>2532.7</ele>
        <time>2026-03-25T11:21:15Z</time>
      </trkpt>
      <trkpt lat="44.68132" lon="6.86832">
        <ele>2532.7</ele>
        <time>2026-03-25T11:21:16Z</time>
      </trkpt>
      <trkpt lat="44.68132" lon="6.86832">
        <ele>2532.7</ele>
        <time>2026-03-25T11:21:17Z</time>
      </trkpt>
      <trkpt lat="44.68132" lon="6.86832">
        <ele>2532.7</ele>
        <time>2026-03-25T11:21:18Z</time>
      </trkpt>
      <trkpt lat="44.68132" lon="6.86832">
        <ele>2532.7</ele>
        <time>2026-03-25T11:21:19Z</time>
      </trkpt>
      <trkpt lat="44.68132" lon="6.86832">
        <ele>2533.9</ele>
        <time>2026-03-25T11:21:20Z</time>
      </trkpt>
      <trkpt lat="44.68132" lon="6.86832">
        <ele>2533.9</ele>
        <time>2026-03-25T11:21:21Z</time>
      </trkpt>
      <trkpt lat="44.68132" lon="6.86833">
        <ele>2533.9</ele>
        <time>2026-03-25T11:21:22Z</time>
      </trkpt>
      <trkpt lat="44.68132" lon="6.86833">
        <ele>2533.9</ele>
        <time>2026-03-25T11:21:23Z</time>
      </trkpt>
      <trkpt lat="44.68132" lon="6.86833">
        <ele>2533.9</ele>
        <time>2026-03-25T11:21:24Z</time>
      </trkpt>
      <trkpt lat="44.68132" lon="6.86833">
        <ele>2532.7</ele>
        <time>2026-03-25T11:21:26Z</time>
      </trkpt>
      <trkpt lat="44.68132" lon="6.86834">
        <ele>2532.7</ele>
        <time>2026-03-25T11:21:27Z</time>
      </trkpt>
      <trkpt lat="44.68132" lon="6.86834">
        <ele>2532.7</ele>
        <time>2026-03-25T11:21:28Z</time>
      </trkpt>
      <trkpt lat="44.68132" lon="6.86834">
        <ele>2533.8</ele>
        <time>2026-03-25T11:21:29Z</time>
      </trkpt>
      <trkpt lat="44.68133" lon="6.86835">
        <ele>2533.8</ele>
        <time>2026-03-25T11:21:30Z</time>
      </trkpt>
      <trkpt lat="44.68133" lon="6.86835">
        <ele>2533.8</ele>
        <time>2026-03-25T11:21:31Z</time>
      </trkpt>
      <trkpt lat="44.68133" lon="6.86835">
        <ele>2533.8</ele>
        <time>2026-03-25T11:21:32Z</time>
      </trkpt>
      <trkpt lat="44.68133" lon="6.86836">
        <ele>2533.8</ele>
        <time>2026-03-25T11:21:33Z</time>
      </trkpt>
      <trkpt lat="44.68133" lon="6.86837">
        <ele>2533.8</ele>
        <time>2026-03-25T11:21:34Z</time>
      </trkpt>
      <trkpt lat="44.68133" lon="6.86837">
        <ele>2533.8</ele>
        <time>2026-03-25T11:21:35Z</time>
      </trkpt>
      <trkpt lat="44.68133" lon="6.86838">
        <ele>2533.8</ele>
        <time>2026-03-25T11:21:36Z</time>
      </trkpt>
      <trkpt lat="44.68134" lon="6.86838">
        <ele>2533.8</ele>
        <time>2026-03-25T11:21:37Z</time>
      </trkpt>
      <trkpt lat="44.68134" lon="6.86839">
        <ele>2534.7</ele>
        <time>2026-03-25T11:21:38Z</time>
      </trkpt>
      <trkpt lat="44.68134" lon="6.86839">
        <ele>2534.7</ele>
        <time>2026-03-25T11:21:39Z</time>
      </trkpt>
      <trkpt lat="44.68135" lon="6.8684">
        <ele>2534.7</ele>
        <time>2026-03-25T11:21:40Z</time>
      </trkpt>
      <trkpt lat="44.68135" lon="6.86841">
        <ele>2533.5</ele>
        <time>2026-03-25T11:21:41Z</time>
      </trkpt>
      <trkpt lat="44.68135" lon="6.86841">
        <ele>2533.5</ele>
        <time>2026-03-25T11:21:42Z</time>
      </trkpt>
      <trkpt lat="44.68135" lon="6.86842">
        <ele>2533.5</ele>
        <time>2026-03-25T11:21:43Z</time>
      </trkpt>
      <trkpt lat="44.68136" lon="6.86843">
        <ele>2533.5</ele>
        <time>2026-03-25T11:21:44Z</time>
      </trkpt>
      <trkpt lat="44.68136" lon="6.86843">
        <ele>2534.4</ele>
        <time>2026-03-25T11:21:45Z</time>
      </trkpt>
      <trkpt lat="44.68136" lon="6.86844">
        <ele>2534.4</ele>
        <time>2026-03-25T11:21:46Z</time>
      </trkpt>
      <trkpt lat="44.68136" lon="6.86845">
        <ele>2534.4</ele>
        <time>2026-03-25T11:21:47Z</time>
      </trkpt>
      <trkpt lat="44.68136" lon="6.86845">
        <ele>2534.4</ele>
        <time>2026-03-25T11:21:49Z</time>
      </trkpt>
      <trkpt lat="44.68137" lon="6.86846">
        <ele>2534.4</ele>
        <time>2026-03-25T11:21:50Z</time>
      </trkpt>
      <trkpt lat="44.68137" lon="6.86846">
        <ele>2534.4</ele>
        <time>2026-03-25T11:21:51Z</time>
      </trkpt>
      <trkpt lat="44.68137" lon="6.86847">
        <ele>2534.4</ele>
        <time>2026-03-25T11:21:52Z</time>
      </trkpt>
      <trkpt lat="44.68137" lon="6.86848">
        <ele>2535.1</ele>
        <time>2026-03-25T11:21:53Z</time>
      </trkpt>
      <trkpt lat="44.68138" lon="6.86849">
        <ele>2535.1</ele>
        <time>2026-03-25T11:21:54Z</time>
      </trkpt>
      <trkpt lat="44.68138" lon="6.86849">
        <ele>2533.9</ele>
        <time>2026-03-25T11:21:55Z</time>
      </trkpt>
      <trkpt lat="44.68138" lon="6.8685">
        <ele>2533.9</ele>
        <time>2026-03-25T11:21:56Z</time>
      </trkpt>
      <trkpt lat="44.68138" lon="6.8685">
        <ele>2533.9</ele>
        <time>2026-03-25T11:21:57Z</time>
      </trkpt>
      <trkpt lat="44.68139" lon="6.8685">
        <ele>2533.9</ele>
        <time>2026-03-25T11:21:58Z</time>
      </trkpt>
      <trkpt lat="44.68138" lon="6.86851">
        <ele>2533.9</ele>
        <time>2026-03-25T11:21:59Z</time>
      </trkpt>
      <trkpt lat="44.68138" lon="6.86851">
        <ele>2533.9</ele>
        <time>2026-03-25T11:22:00Z</time>
      </trkpt>
      <trkpt lat="44.68138" lon="6.86851">
        <ele>2533.9</ele>
        <time>2026-03-25T11:22:01Z</time>
      </trkpt>
      <trkpt lat="44.68138" lon="6.86851">
        <ele>2535.1</ele>
        <time>2026-03-25T11:22:02Z</time>
      </trkpt>
      <trkpt lat="44.68137" lon="6.86851">
        <ele>2535.1</ele>
        <time>2026-03-25T11:22:03Z</time>
      </trkpt>
      <trkpt lat="44.68137" lon="6.86851">
        <ele>2535.1</ele>
        <time>2026-03-25T11:22:04Z</time>
      </trkpt>
      <trkpt lat="44.68136" lon="6.86851">
        <ele>2535.1</ele>
        <time>2026-03-25T11:22:05Z</time>
      </trkpt>
      <trkpt lat="44.68136" lon="6.86851">
        <ele>2535.1</ele>
        <time>2026-03-25T11:22:06Z</time>
      </trkpt>
      <trkpt lat="44.68135" lon="6.86851">
        <ele>2535.1</ele>
        <time>2026-03-25T11:22:07Z</time>
      </trkpt>
      <trkpt lat="44.68134" lon="6.86851">
        <ele>2536.3</ele>
        <time>2026-03-25T11:22:08Z</time>
      </trkpt>
      <trkpt lat="44.68134" lon="6.86851">
        <ele>2536.3</ele>
        <time>2026-03-25T11:22:09Z</time>
      </trkpt>
      <trkpt lat="44.68133" lon="6.86851">
        <ele>2536.3</ele>
        <time>2026-03-25T11:22:10Z</time>
      </trkpt>
      <trkpt lat="44.68133" lon="6.86851">
        <ele>2536.3</ele>
        <time>2026-03-25T11:22:11Z</time>
      </trkpt>
      <trkpt lat="44.68132" lon="6.86851">
        <ele>2536.3</ele>
        <time>2026-03-25T11:22:12Z</time>
      </trkpt>
      <trkpt lat="44.68132" lon="6.86851">
        <ele>2537.5</ele>
        <time>2026-03-25T11:22:13Z</time>
      </trkpt>
      <trkpt lat="44.68131" lon="6.86851">
        <ele>2537.5</ele>
        <time>2026-03-25T11:22:14Z</time>
      </trkpt>
      <trkpt lat="44.68131" lon="6.86851">
        <ele>2537.5</ele>
        <time>2026-03-25T11:22:15Z</time>
      </trkpt>
      <trkpt lat="44.6813" lon="6.86851">
        <ele>2537.5</ele>
        <time>2026-03-25T11:22:16Z</time>
      </trkpt>
      <trkpt lat="44.6813" lon="6.86851">
        <ele>2537.5</ele>
        <time>2026-03-25T11:22:17Z</time>
      </trkpt>
      <trkpt lat="44.6813" lon="6.86851">
        <ele>2537.5</ele>
        <time>2026-03-25T11:22:18Z</time>
      </trkpt>
      <trkpt lat="44.68129" lon="6.8685">
        <ele>2537.5</ele>
        <time>2026-03-25T11:22:19Z</time>
      </trkpt>
      <trkpt lat="44.68129" lon="6.8685">
        <ele>2537.5</ele>
        <time>2026-03-25T11:22:21Z</time>
      </trkpt>
      <trkpt lat="44.68129" lon="6.8685">
        <ele>2538.6</ele>
        <time>2026-03-25T11:22:22Z</time>
      </trkpt>
      <trkpt lat="44.68128" lon="6.8685">
        <ele>2538.6</ele>
        <time>2026-03-25T11:22:23Z</time>
      </trkpt>
      <trkpt lat="44.68128" lon="6.8685">
        <ele>2538.6</ele>
        <time>2026-03-25T11:22:24Z</time>
      </trkpt>
      <trkpt lat="44.68128" lon="6.8685">
        <ele>2538.6</ele>
        <time>2026-03-25T11:22:25Z</time>
      </trkpt>
      <trkpt lat="44.68127" lon="6.86849">
        <ele>2538.6</ele>
        <time>2026-03-25T11:22:26Z</time>
      </trkpt>
      <trkpt lat="44.68126" lon="6.86849">
        <ele>2538.6</ele>
        <time>2026-03-25T11:22:27Z</time>
      </trkpt>
      <trkpt lat="44.68126" lon="6.86849">
        <ele>2538.6</ele>
        <time>2026-03-25T11:22:28Z</time>
      </trkpt>
      <trkpt lat="44.68125" lon="6.86849">
        <ele>2539.6</ele>
        <time>2026-03-25T11:22:29Z</time>
      </trkpt>
      <trkpt lat="44.68125" lon="6.86849">
        <ele>2539.6</ele>
        <time>2026-03-25T11:22:31Z</time>
      </trkpt>
      <trkpt lat="44.68125" lon="6.86849">
        <ele>2539.6</ele>
        <time>2026-03-25T11:22:32Z</time>
      </trkpt>
      <trkpt lat="44.68124" lon="6.86848">
        <ele>2539.6</ele>
        <time>2026-03-25T11:22:33Z</time>
      </trkpt>
      <trkpt lat="44.68124" lon="6.86848">
        <ele>2539.6</ele>
        <time>2026-03-25T11:22:34Z</time>
      </trkpt>
      <trkpt lat="44.68124" lon="6.86848">
        <ele>2539.6</ele>
        <time>2026-03-25T11:22:35Z</time>
      </trkpt>
      <trkpt lat="44.68123" lon="6.86847">
        <ele>2539.6</ele>
        <time>2026-03-25T11:22:36Z</time>
      </trkpt>
      <trkpt lat="44.68123" lon="6.86847">
        <ele>2539.9</ele>
        <time>2026-03-25T11:22:37Z</time>
      </trkpt>
      <trkpt lat="44.68122" lon="6.86846">
        <ele>2539.9</ele>
        <time>2026-03-25T11:22:39Z</time>
      </trkpt>
      <trkpt lat="44.68122" lon="6.86845">
        <ele>2539.9</ele>
        <time>2026-03-25T11:22:40Z</time>
      </trkpt>
      <trkpt lat="44.68121" lon="6.86845">
        <ele>2539.9</ele>
        <time>2026-03-25T11:22:41Z</time>
      </trkpt>
      <trkpt lat="44.68121" lon="6.86845">
        <ele>2539.9</ele>
        <time>2026-03-25T11:22:42Z</time>
      </trkpt>
      <trkpt lat="44.68121" lon="6.86845">
        <ele>2539.9</ele>
        <time>2026-03-25T11:22:44Z</time>
      </trkpt>
      <trkpt lat="44.68121" lon="6.86845">
        <ele>2539.9</ele>
        <time>2026-03-25T11:22:45Z</time>
      </trkpt>
      <trkpt lat="44.68121" lon="6.86845">
        <ele>2539.9</ele>
        <time>2026-03-25T11:22:46Z</time>
      </trkpt>
      <trkpt lat="44.68121" lon="6.86845">
        <ele>2539.9</ele>
        <time>2026-03-25T11:22:47Z</time>
      </trkpt>
      <trkpt lat="44.68121" lon="6.86845">
        <ele>2539.9</ele>
        <time>2026-03-25T11:22:48Z</time>
      </trkpt>
      <trkpt lat="44.68121" lon="6.86845">
        <ele>2539.9</ele>
        <time>2026-03-25T11:22:49Z</time>
      </trkpt>
      <trkpt lat="44.68121" lon="6.86845">
        <ele>2539.9</ele>
        <time>2026-03-25T11:22:50Z</time>
      </trkpt>
      <trkpt lat="44.68121" lon="6.86845">
        <ele>2539.9</ele>
        <time>2026-03-25T11:22:52Z</time>
      </trkpt>
      <trkpt lat="44.68121" lon="6.86845">
        <ele>2539.9</ele>
        <time>2026-03-25T11:22:53Z</time>
      </trkpt>
      <trkpt lat="44.68121" lon="6.86846">
        <ele>2539.9</ele>
        <time>2026-03-25T11:22:54Z</time>
      </trkpt>
      <trkpt lat="44.68121" lon="6.86846">
        <ele>2539.9</ele>
        <time>2026-03-25T11:22:55Z</time>
      </trkpt>
      <trkpt lat="44.68121" lon="6.86846">
        <ele>2539.9</ele>
        <time>2026-03-25T11:22:56Z</time>
      </trkpt>
      <trkpt lat="44.68121" lon="6.86846">
        <ele>2539.9</ele>
        <time>2026-03-25T11:22:57Z</time>
      </trkpt>
      <trkpt lat="44.68121" lon="6.86847">
        <ele>2539.9</ele>
        <time>2026-03-25T11:22:58Z</time>
      </trkpt>
      <trkpt lat="44.68121" lon="6.86848">
        <ele>2540.6</ele>
        <time>2026-03-25T11:22:59Z</time>
      </trkpt>
      <trkpt lat="44.68121" lon="6.86849">
        <ele>2540.6</ele>
        <time>2026-03-25T11:23:00Z</time>
      </trkpt>
      <trkpt lat="44.68121" lon="6.86849">
        <ele>2540.6</ele>
        <time>2026-03-25T11:23:01Z</time>
      </trkpt>
      <trkpt lat="44.68121" lon="6.8685">
        <ele>2540.6</ele>
        <time>2026-03-25T11:23:02Z</time>
      </trkpt>
      <trkpt lat="44.68121" lon="6.8685">
        <ele>2540.6</ele>
        <time>2026-03-25T11:23:03Z</time>
      </trkpt>
      <trkpt lat="44.68121" lon="6.86851">
        <ele>2540.6</ele>
        <time>2026-03-25T11:23:04Z</time>
      </trkpt>
      <trkpt lat="44.68121" lon="6.86851">
        <ele>2540.6</ele>
        <time>2026-03-25T11:23:05Z</time>
      </trkpt>
      <trkpt lat="44.68121" lon="6.86852">
        <ele>2541.2</ele>
        <time>2026-03-25T11:23:06Z</time>
      </trkpt>
      <trkpt lat="44.68121" lon="6.86853">
        <ele>2541.2</ele>
        <time>2026-03-25T11:23:08Z</time>
      </trkpt>
      <trkpt lat="44.68121" lon="6.86854">
        <ele>2541.2</ele>
        <time>2026-03-25T11:23:09Z</time>
      </trkpt>
      <trkpt lat="44.68122" lon="6.86855">
        <ele>2541.2</ele>
        <time>2026-03-25T11:23:10Z</time>
      </trkpt>
      <trkpt lat="44.68122" lon="6.86855">
        <ele>2541.2</ele>
        <time>2026-03-25T11:23:11Z</time>
      </trkpt>
      <trkpt lat="44.68122" lon="6.86856">
        <ele>2541.2</ele>
        <time>2026-03-25T11:23:12Z</time>
      </trkpt>
      <trkpt lat="44.68122" lon="6.86856">
        <ele>2541.8</ele>
        <time>2026-03-25T11:23:13Z</time>
      </trkpt>
      <trkpt lat="44.68123" lon="6.86857">
        <ele>2541.8</ele>
        <time>2026-03-25T11:23:14Z</time>
      </trkpt>
      <trkpt lat="44.68123" lon="6.86858">
        <ele>2540.7</ele>
        <time>2026-03-25T11:23:15Z</time>
      </trkpt>
      <trkpt lat="44.68123" lon="6.86859">
        <ele>2540.7</ele>
        <time>2026-03-25T11:23:16Z</time>
      </trkpt>
      <trkpt lat="44.68123" lon="6.8686">
        <ele>2540.7</ele>
        <time>2026-03-25T11:23:17Z</time>
      </trkpt>
      <trkpt lat="44.68124" lon="6.86861">
        <ele>2541.2</ele>
        <time>2026-03-25T11:23:18Z</time>
      </trkpt>
      <trkpt lat="44.68124" lon="6.86861">
        <ele>2541.2</ele>
        <time>2026-03-25T11:23:19Z</time>
      </trkpt>
      <trkpt lat="44.68124" lon="6.86862">
        <ele>2541.2</ele>
        <time>2026-03-25T11:23:20Z</time>
      </trkpt>
      <trkpt lat="44.68124" lon="6.86863">
        <ele>2541.2</ele>
        <time>2026-03-25T11:23:21Z</time>
      </trkpt>
      <trkpt lat="44.68124" lon="6.86864">
        <ele>2541.2</ele>
        <time>2026-03-25T11:23:23Z</time>
      </trkpt>
      <trkpt lat="44.68124" lon="6.86864">
        <ele>2541.7</ele>
        <time>2026-03-25T11:23:24Z</time>
      </trkpt>
      <trkpt lat="44.68124" lon="6.86865">
        <ele>2541.7</ele>
        <time>2026-03-25T11:23:25Z</time>
      </trkpt>
      <trkpt lat="44.68124" lon="6.86866">
        <ele>2541.7</ele>
        <time>2026-03-25T11:23:26Z</time>
      </trkpt>
      <trkpt lat="44.68124" lon="6.86867">
        <ele>2541.7</ele>
        <time>2026-03-25T11:23:27Z</time>
      </trkpt>
      <trkpt lat="44.68124" lon="6.86867">
        <ele>2541.7</ele>
        <time>2026-03-25T11:23:28Z</time>
      </trkpt>
      <trkpt lat="44.68124" lon="6.86868">
        <ele>2541.6</ele>
        <time>2026-03-25T11:23:29Z</time>
      </trkpt>
      <trkpt lat="44.68124" lon="6.86869">
        <ele>2541.6</ele>
        <time>2026-03-25T11:23:30Z</time>
      </trkpt>
      <trkpt lat="44.68124" lon="6.86869">
        <ele>2542.1</ele>
        <time>2026-03-25T11:23:31Z</time>
      </trkpt>
      <trkpt lat="44.68125" lon="6.8687">
        <ele>2542.1</ele>
        <time>2026-03-25T11:23:32Z</time>
      </trkpt>
      <trkpt lat="44.68125" lon="6.86871">
        <ele>2542.1</ele>
        <time>2026-03-25T11:23:33Z</time>
      </trkpt>
      <trkpt lat="44.68125" lon="6.86872">
        <ele>2542.1</ele>
        <time>2026-03-25T11:23:34Z</time>
      </trkpt>
      <trkpt lat="44.68125" lon="6.86872">
        <ele>2542.1</ele>
        <time>2026-03-25T11:23:36Z</time>
      </trkpt>
      <trkpt lat="44.68125" lon="6.86873">
        <ele>2542.1</ele>
        <time>2026-03-25T11:23:37Z</time>
      </trkpt>
      <trkpt lat="44.68125" lon="6.86873">
        <ele>2542.4</ele>
        <time>2026-03-25T11:23:38Z</time>
      </trkpt>
      <trkpt lat="44.68125" lon="6.86874">
        <ele>2542.4</ele>
        <time>2026-03-25T11:23:39Z</time>
      </trkpt>
      <trkpt lat="44.68126" lon="6.86874">
        <ele>2542.4</ele>
        <time>2026-03-25T11:23:40Z</time>
      </trkpt>
      <trkpt lat="44.68126" lon="6.86875">
        <ele>2542.4</ele>
        <time>2026-03-25T11:23:41Z</time>
      </trkpt>
      <trkpt lat="44.68126" lon="6.86875">
        <ele>2541.5</ele>
        <time>2026-03-25T11:23:42Z</time>
      </trkpt>
      <trkpt lat="44.68126" lon="6.86876">
        <ele>2541.5</ele>
        <time>2026-03-25T11:23:43Z</time>
      </trkpt>
      <trkpt lat="44.68126" lon="6.86877">
        <ele>2541.4</ele>
        <time>2026-03-25T11:23:44Z</time>
      </trkpt>
      <trkpt lat="44.68126" lon="6.86877">
        <ele>2541.4</ele>
        <time>2026-03-25T11:23:45Z</time>
      </trkpt>
      <trkpt lat="44.68126" lon="6.86877">
        <ele>2541.8</ele>
        <time>2026-03-25T11:23:46Z</time>
      </trkpt>
      <trkpt lat="44.68126" lon="6.86878">
        <ele>2541.8</ele>
        <time>2026-03-25T11:23:47Z</time>
      </trkpt>
      <trkpt lat="44.68126" lon="6.86877">
        <ele>2541.8</ele>
        <time>2026-03-25T11:23:48Z</time>
      </trkpt>
      <trkpt lat="44.68126" lon="6.86877">
        <ele>2541.8</ele>
        <time>2026-03-25T11:23:49Z</time>
      </trkpt>
      <trkpt lat="44.68126" lon="6.86877">
        <ele>2541.8</ele>
        <time>2026-03-25T11:23:50Z</time>
      </trkpt>
      <trkpt lat="44.68126" lon="6.86877">
        <ele>2541.8</ele>
        <time>2026-03-25T11:23:51Z</time>
      </trkpt>
      <trkpt lat="44.68126" lon="6.86878">
        <ele>2541.8</ele>
        <time>2026-03-25T11:23:52Z</time>
      </trkpt>
      <trkpt lat="44.68127" lon="6.86878">
        <ele>2541.8</ele>
        <time>2026-03-25T11:23:53Z</time>
      </trkpt>
      <trkpt lat="44.68127" lon="6.86878">
        <ele>2541.8</ele>
        <time>2026-03-25T11:23:55Z</time>
      </trkpt>
      <trkpt lat="44.68127" lon="6.86878">
        <ele>2541.8</ele>
        <time>2026-03-25T11:23:56Z</time>
      </trkpt>
      <trkpt lat="44.68127" lon="6.86879">
        <ele>2541.8</ele>
        <time>2026-03-25T11:23:57Z</time>
      </trkpt>
      <trkpt lat="44.68127" lon="6.8688">
        <ele>2541.8</ele>
        <time>2026-03-25T11:23:58Z</time>
      </trkpt>
      <trkpt lat="44.68128" lon="6.8688">
        <ele>2541.8</ele>
        <time>2026-03-25T11:23:59Z</time>
      </trkpt>
      <trkpt lat="44.68128" lon="6.8688">
        <ele>2541.8</ele>
        <time>2026-03-25T11:24:00Z</time>
      </trkpt>
      <trkpt lat="44.68128" lon="6.86881">
        <ele>2541.8</ele>
        <time>2026-03-25T11:24:01Z</time>
      </trkpt>
      <trkpt lat="44.68128" lon="6.86882">
        <ele>2542.1</ele>
        <time>2026-03-25T11:24:03Z</time>
      </trkpt>
      <trkpt lat="44.68128" lon="6.86882">
        <ele>2542.1</ele>
        <time>2026-03-25T11:24:04Z</time>
      </trkpt>
      <trkpt lat="44.68128" lon="6.86883">
        <ele>2542.1</ele>
        <time>2026-03-25T11:24:05Z</time>
      </trkpt>
      <trkpt lat="44.68129" lon="6.86883">
        <ele>2542.1</ele>
        <time>2026-03-25T11:24:06Z</time>
      </trkpt>
      <trkpt lat="44.68129" lon="6.86884">
        <ele>2541.1</ele>
        <time>2026-03-25T11:24:07Z</time>
      </trkpt>
      <trkpt lat="44.6813" lon="6.86885">
        <ele>2541.1</ele>
        <time>2026-03-25T11:24:08Z</time>
      </trkpt>
      <trkpt lat="44.6813" lon="6.86885">
        <ele>2541.1</ele>
        <time>2026-03-25T11:24:10Z</time>
      </trkpt>
      <trkpt lat="44.6813" lon="6.86885">
        <ele>2541.1</ele>
        <time>2026-03-25T11:24:11Z</time>
      </trkpt>
      <trkpt lat="44.6813" lon="6.86885">
        <ele>2541.1</ele>
        <time>2026-03-25T11:24:12Z</time>
      </trkpt>
      <trkpt lat="44.6813" lon="6.86885">
        <ele>2541.1</ele>
        <time>2026-03-25T11:24:13Z</time>
      </trkpt>
      <trkpt lat="44.6813" lon="6.86885">
        <ele>2541.1</ele>
        <time>2026-03-25T11:24:14Z</time>
      </trkpt>
      <trkpt lat="44.6813" lon="6.86885">
        <ele>2541.1</ele>
        <time>2026-03-25T11:24:15Z</time>
      </trkpt>
      <trkpt lat="44.6813" lon="6.86885">
        <ele>2541.1</ele>
        <time>2026-03-25T11:24:16Z</time>
      </trkpt>
      <trkpt lat="44.68131" lon="6.86886">
        <ele>2541.1</ele>
        <time>2026-03-25T11:24:18Z</time>
      </trkpt>
      <trkpt lat="44.68131" lon="6.86886">
        <ele>2541.1</ele>
        <time>2026-03-25T11:24:19Z</time>
      </trkpt>
      <trkpt lat="44.68131" lon="6.86886">
        <ele>2541</ele>
        <time>2026-03-25T11:24:20Z</time>
      </trkpt>
      <trkpt lat="44.68132" lon="6.86886">
        <ele>2540.2</ele>
        <time>2026-03-25T11:24:21Z</time>
      </trkpt>
      <trkpt lat="44.68132" lon="6.86886">
        <ele>2540.2</ele>
        <time>2026-03-25T11:24:22Z</time>
      </trkpt>
      <trkpt lat="44.68132" lon="6.86886">
        <ele>2540.2</ele>
        <time>2026-03-25T11:24:23Z</time>
      </trkpt>
      <trkpt lat="44.68132" lon="6.86886">
        <ele>2540.2</ele>
        <time>2026-03-25T11:24:24Z</time>
      </trkpt>
      <trkpt lat="44.68132" lon="6.86887">
        <ele>2540.2</ele>
        <time>2026-03-25T11:24:25Z</time>
      </trkpt>
      <trkpt lat="44.68133" lon="6.86887">
        <ele>2540.2</ele>
        <time>2026-03-25T11:24:26Z</time>
      </trkpt>
      <trkpt lat="44.68133" lon="6.86887">
        <ele>2540.2</ele>
        <time>2026-03-25T11:24:28Z</time>
      </trkpt>
      <trkpt lat="44.68133" lon="6.86888">
        <ele>2540.2</ele>
        <time>2026-03-25T11:24:29Z</time>
      </trkpt>
      <trkpt lat="44.68134" lon="6.86888">
        <ele>2540.2</ele>
        <time>2026-03-25T11:24:30Z</time>
      </trkpt>
      <trkpt lat="44.68134" lon="6.86888">
        <ele>2540.2</ele>
        <time>2026-03-25T11:24:31Z</time>
      </trkpt>
      <trkpt lat="44.68134" lon="6.86889">
        <ele>2540.2</ele>
        <time>2026-03-25T11:24:32Z</time>
      </trkpt>
      <trkpt lat="44.68135" lon="6.86889">
        <ele>2540.2</ele>
        <time>2026-03-25T11:24:33Z</time>
      </trkpt>
      <trkpt lat="44.68135" lon="6.86889">
        <ele>2539.1</ele>
        <time>2026-03-25T11:24:34Z</time>
      </trkpt>
      <trkpt lat="44.68136" lon="6.8689">
        <ele>2539.1</ele>
        <time>2026-03-25T11:24:35Z</time>
      </trkpt>
      <trkpt lat="44.68136" lon="6.8689">
        <ele>2539.1</ele>
        <time>2026-03-25T11:24:36Z</time>
      </trkpt>
      <trkpt lat="44.68137" lon="6.8689">
        <ele>2539.3</ele>
        <time>2026-03-25T11:24:37Z</time>
      </trkpt>
      <trkpt lat="44.68139" lon="6.86891">
        <ele>2538.2</ele>
        <time>2026-03-25T11:24:39Z</time>
      </trkpt>
      <trkpt lat="44.68139" lon="6.86891">
        <ele>2538.2</ele>
        <time>2026-03-25T11:24:41Z</time>
      </trkpt>
      <trkpt lat="44.6814" lon="6.86891">
        <ele>2538.2</ele>
        <time>2026-03-25T11:24:42Z</time>
      </trkpt>
      <trkpt lat="44.6814" lon="6.86891">
        <ele>2538.2</ele>
        <time>2026-03-25T11:24:43Z</time>
      </trkpt>
      <trkpt lat="44.68141" lon="6.86891">
        <ele>2538.2</ele>
        <time>2026-03-25T11:24:44Z</time>
      </trkpt>
      <trkpt lat="44.68141" lon="6.86891">
        <ele>2537.1</ele>
        <time>2026-03-25T11:24:45Z</time>
      </trkpt>
      <trkpt lat="44.68141" lon="6.86891">
        <ele>2537.1</ele>
        <time>2026-03-25T11:24:46Z</time>
      </trkpt>
      <trkpt lat="44.68141" lon="6.86892">
        <ele>2537.1</ele>
        <time>2026-03-25T11:24:47Z</time>
      </trkpt>
      <trkpt lat="44.68141" lon="6.86892">
        <ele>2537.1</ele>
        <time>2026-03-25T11:24:48Z</time>
      </trkpt>
      <trkpt lat="44.68141" lon="6.86892">
        <ele>2537.1</ele>
        <time>2026-03-25T11:24:49Z</time>
      </trkpt>
      <trkpt lat="44.68142" lon="6.86891">
        <ele>2537.1</ele>
        <time>2026-03-25T11:24:50Z</time>
      </trkpt>
      <trkpt lat="44.68143" lon="6.86891">
        <ele>2537.1</ele>
        <time>2026-03-25T11:24:51Z</time>
      </trkpt>
      <trkpt lat="44.68143" lon="6.86891">
        <ele>2537.1</ele>
        <time>2026-03-25T11:24:52Z</time>
      </trkpt>
      <trkpt lat="44.68144" lon="6.86892">
        <ele>2536.1</ele>
        <time>2026-03-25T11:24:53Z</time>
      </trkpt>
      <trkpt lat="44.68145" lon="6.86892">
        <ele>2536.1</ele>
        <time>2026-03-25T11:24:54Z</time>
      </trkpt>
      <trkpt lat="44.68145" lon="6.86892">
        <ele>2536.1</ele>
        <time>2026-03-25T11:24:56Z</time>
      </trkpt>
      <trkpt lat="44.68145" lon="6.86893">
        <ele>2536.1</ele>
        <time>2026-03-25T11:24:57Z</time>
      </trkpt>
      <trkpt lat="44.68145" lon="6.86894">
        <ele>2536.1</ele>
        <time>2026-03-25T11:24:59Z</time>
      </trkpt>
      <trkpt lat="44.68145" lon="6.86895">
        <ele>2536.3</ele>
        <time>2026-03-25T11:25:00Z</time>
      </trkpt>
      <trkpt lat="44.68145" lon="6.86895">
        <ele>2536.3</ele>
        <time>2026-03-25T11:25:01Z</time>
      </trkpt>
      <trkpt lat="44.68145" lon="6.86895">
        <ele>2536.3</ele>
        <time>2026-03-25T11:25:02Z</time>
      </trkpt>
      <trkpt lat="44.68145" lon="6.86895">
        <ele>2536.3</ele>
        <time>2026-03-25T11:25:03Z</time>
      </trkpt>
      <trkpt lat="44.68145" lon="6.86895">
        <ele>2536.3</ele>
        <time>2026-03-25T11:25:04Z</time>
      </trkpt>
      <trkpt lat="44.68145" lon="6.86895">
        <ele>2536.3</ele>
        <time>2026-03-25T11:25:05Z</time>
      </trkpt>
      <trkpt lat="44.68145" lon="6.86896">
        <ele>2536.3</ele>
        <time>2026-03-25T11:25:07Z</time>
      </trkpt>
      <trkpt lat="44.68144" lon="6.86897">
        <ele>2536.3</ele>
        <time>2026-03-25T11:25:08Z</time>
      </trkpt>
      <trkpt lat="44.68144" lon="6.86897">
        <ele>2537.2</ele>
        <time>2026-03-25T11:25:09Z</time>
      </trkpt>
      <trkpt lat="44.68143" lon="6.86898">
        <ele>2537.2</ele>
        <time>2026-03-25T11:25:10Z</time>
      </trkpt>
      <trkpt lat="44.68143" lon="6.86899">
        <ele>2537.3</ele>
        <time>2026-03-25T11:25:11Z</time>
      </trkpt>
      <trkpt lat="44.68142" lon="6.869">
        <ele>2537.3</ele>
        <time>2026-03-25T11:25:12Z</time>
      </trkpt>
      <trkpt lat="44.68142" lon="6.869">
        <ele>2537.3</ele>
        <time>2026-03-25T11:25:13Z</time>
      </trkpt>
      <trkpt lat="44.68142" lon="6.86901">
        <ele>2537.3</ele>
        <time>2026-03-25T11:25:14Z</time>
      </trkpt>
      <trkpt lat="44.68142" lon="6.86902">
        <ele>2537.3</ele>
        <time>2026-03-25T11:25:15Z</time>
      </trkpt>
      <trkpt lat="44.68141" lon="6.86902">
        <ele>2537.3</ele>
        <time>2026-03-25T11:25:16Z</time>
      </trkpt>
      <trkpt lat="44.68141" lon="6.86903">
        <ele>2537.3</ele>
        <time>2026-03-25T11:25:17Z</time>
      </trkpt>
      <trkpt lat="44.68141" lon="6.86903">
        <ele>2538.3</ele>
        <time>2026-03-25T11:25:18Z</time>
      </trkpt>
      <trkpt lat="44.6814" lon="6.86904">
        <ele>2538.3</ele>
        <time>2026-03-25T11:25:19Z</time>
      </trkpt>
      <trkpt lat="44.6814" lon="6.86905">
        <ele>2538.3</ele>
        <time>2026-03-25T11:25:20Z</time>
      </trkpt>
      <trkpt lat="44.6814" lon="6.86905">
        <ele>2538.3</ele>
        <time>2026-03-25T11:25:21Z</time>
      </trkpt>
      <trkpt lat="44.68139" lon="6.86905">
        <ele>2538.3</ele>
        <time>2026-03-25T11:25:22Z</time>
      </trkpt>
      <trkpt lat="44.68139" lon="6.86906">
        <ele>2538.3</ele>
        <time>2026-03-25T11:25:23Z</time>
      </trkpt>
      <trkpt lat="44.68138" lon="6.86907">
        <ele>2538.3</ele>
        <time>2026-03-25T11:25:24Z</time>
      </trkpt>
      <trkpt lat="44.68138" lon="6.86907">
        <ele>2539.4</ele>
        <time>2026-03-25T11:25:25Z</time>
      </trkpt>
      <trkpt lat="44.68137" lon="6.86908">
        <ele>2539.3</ele>
        <time>2026-03-25T11:25:26Z</time>
      </trkpt>
      <trkpt lat="44.68137" lon="6.86908">
        <ele>2539.3</ele>
        <time>2026-03-25T11:25:27Z</time>
      </trkpt>
      <trkpt lat="44.68136" lon="6.86909">
        <ele>2539.3</ele>
        <time>2026-03-25T11:25:28Z</time>
      </trkpt>
      <trkpt lat="44.68136" lon="6.86909">
        <ele>2539.3</ele>
        <time>2026-03-25T11:25:29Z</time>
      </trkpt>
      <trkpt lat="44.68136" lon="6.86909">
        <ele>2539.3</ele>
        <time>2026-03-25T11:25:30Z</time>
      </trkpt>
      <trkpt lat="44.68135" lon="6.86909">
        <ele>2539.3</ele>
        <time>2026-03-25T11:25:31Z</time>
      </trkpt>
      <trkpt lat="44.68135" lon="6.86909">
        <ele>2540.3</ele>
        <time>2026-03-25T11:25:32Z</time>
      </trkpt>
      <trkpt lat="44.68134" lon="6.8691">
        <ele>2540.3</ele>
        <time>2026-03-25T11:25:33Z</time>
      </trkpt>
      <trkpt lat="44.68134" lon="6.8691">
        <ele>2540.3</ele>
        <time>2026-03-25T11:25:34Z</time>
      </trkpt>
      <trkpt lat="44.68133" lon="6.86911">
        <ele>2540.3</ele>
        <time>2026-03-25T11:25:35Z</time>
      </trkpt>
      <trkpt lat="44.68133" lon="6.86911">
        <ele>2540.3</ele>
        <time>2026-03-25T11:25:36Z</time>
      </trkpt>
      <trkpt lat="44.68132" lon="6.86911">
        <ele>2540.3</ele>
        <time>2026-03-25T11:25:37Z</time>
      </trkpt>
      <trkpt lat="44.68132" lon="6.86912">
        <ele>2541.1</ele>
        <time>2026-03-25T11:25:38Z</time>
      </trkpt>
      <trkpt lat="44.68131" lon="6.86912">
        <ele>2541.1</ele>
        <time>2026-03-25T11:25:39Z</time>
      </trkpt>
      <trkpt lat="44.68131" lon="6.86912">
        <ele>2541.1</ele>
        <time>2026-03-25T11:25:40Z</time>
      </trkpt>
      <trkpt lat="44.68131" lon="6.86913">
        <ele>2541.1</ele>
        <time>2026-03-25T11:25:41Z</time>
      </trkpt>
      <trkpt lat="44.6813" lon="6.86913">
        <ele>2541.1</ele>
        <time>2026-03-25T11:25:42Z</time>
      </trkpt>
      <trkpt lat="44.6813" lon="6.86913">
        <ele>2541.1</ele>
        <time>2026-03-25T11:25:43Z</time>
      </trkpt>
      <trkpt lat="44.68129" lon="6.86913">
        <ele>2541.1</ele>
        <time>2026-03-25T11:25:44Z</time>
      </trkpt>
      <trkpt lat="44.68129" lon="6.86913">
        <ele>2541.1</ele>
        <time>2026-03-25T11:25:45Z</time>
      </trkpt>
      <trkpt lat="44.68128" lon="6.86914">
        <ele>2542.1</ele>
        <time>2026-03-25T11:25:46Z</time>
      </trkpt>
      <trkpt lat="44.68128" lon="6.86914">
        <ele>2542.1</ele>
        <time>2026-03-25T11:25:47Z</time>
      </trkpt>
      <trkpt lat="44.68127" lon="6.86914">
        <ele>2542.1</ele>
        <time>2026-03-25T11:25:48Z</time>
      </trkpt>
      <trkpt lat="44.68127" lon="6.86915">
        <ele>2542.1</ele>
        <time>2026-03-25T11:25:49Z</time>
      </trkpt>
      <trkpt lat="44.68126" lon="6.86915">
        <ele>2542</ele>
        <time>2026-03-25T11:25:50Z</time>
      </trkpt>
      <trkpt lat="44.68126" lon="6.86915">
        <ele>2542</ele>
        <time>2026-03-25T11:25:51Z</time>
      </trkpt>
      <trkpt lat="44.68126" lon="6.86916">
        <ele>2542</ele>
        <time>2026-03-25T11:25:52Z</time>
      </trkpt>
      <trkpt lat="44.68125" lon="6.86916">
        <ele>2542.5</ele>
        <time>2026-03-25T11:25:53Z</time>
      </trkpt>
      <trkpt lat="44.68125" lon="6.86916">
        <ele>2542.5</ele>
        <time>2026-03-25T11:25:54Z</time>
      </trkpt>
      <trkpt lat="44.68125" lon="6.86916">
        <ele>2542.5</ele>
        <time>2026-03-25T11:25:55Z</time>
      </trkpt>
      <trkpt lat="44.68124" lon="6.86917">
        <ele>2542.5</ele>
        <time>2026-03-25T11:25:56Z</time>
      </trkpt>
      <trkpt lat="44.68124" lon="6.86917">
        <ele>2542.5</ele>
        <time>2026-03-25T11:25:57Z</time>
      </trkpt>
      <trkpt lat="44.68124" lon="6.86917">
        <ele>2542.5</ele>
        <time>2026-03-25T11:25:59Z</time>
      </trkpt>
      <trkpt lat="44.68123" lon="6.86918">
        <ele>2542.5</ele>
        <time>2026-03-25T11:26:00Z</time>
      </trkpt>
      <trkpt lat="44.68123" lon="6.86918">
        <ele>2542.5</ele>
        <time>2026-03-25T11:26:01Z</time>
      </trkpt>
      <trkpt lat="44.68123" lon="6.86919">
        <ele>2542.5</ele>
        <time>2026-03-25T11:26:02Z</time>
      </trkpt>
      <trkpt lat="44.68124" lon="6.86919">
        <ele>2542.5</ele>
        <time>2026-03-25T11:26:03Z</time>
      </trkpt>
      <trkpt lat="44.68124" lon="6.86919">
        <ele>2542.5</ele>
        <time>2026-03-25T11:26:04Z</time>
      </trkpt>
      <trkpt lat="44.68124" lon="6.86919">
        <ele>2542.5</ele>
        <time>2026-03-25T11:26:05Z</time>
      </trkpt>
      <trkpt lat="44.68124" lon="6.86919">
        <ele>2542.5</ele>
        <time>2026-03-25T11:26:06Z</time>
      </trkpt>
      <trkpt lat="44.68125" lon="6.8692">
        <ele>2542.5</ele>
        <time>2026-03-25T11:26:07Z</time>
      </trkpt>
      <trkpt lat="44.68125" lon="6.8692">
        <ele>2542.5</ele>
        <time>2026-03-25T11:26:08Z</time>
      </trkpt>
      <trkpt lat="44.68125" lon="6.8692">
        <ele>2542.5</ele>
        <time>2026-03-25T11:26:09Z</time>
      </trkpt>
      <trkpt lat="44.68125" lon="6.86919">
        <ele>2542.5</ele>
        <time>2026-03-25T11:26:10Z</time>
      </trkpt>
      <trkpt lat="44.68125" lon="6.86919">
        <ele>2542.5</ele>
        <time>2026-03-25T11:26:11Z</time>
      </trkpt>
      <trkpt lat="44.68125" lon="6.86919">
        <ele>2542.5</ele>
        <time>2026-03-25T11:26:12Z</time>
      </trkpt>
      <trkpt lat="44.68125" lon="6.86919">
        <ele>2542.5</ele>
        <time>2026-03-25T11:26:13Z</time>
      </trkpt>
      <trkpt lat="44.68125" lon="6.86919">
        <ele>2542.5</ele>
        <time>2026-03-25T11:26:14Z</time>
      </trkpt>
      <trkpt lat="44.68125" lon="6.86919">
        <ele>2542.5</ele>
        <time>2026-03-25T11:26:15Z</time>
      </trkpt>
      <trkpt lat="44.68125" lon="6.86919">
        <ele>2542.5</ele>
        <time>2026-03-25T11:26:16Z</time>
      </trkpt>
      <trkpt lat="44.68125" lon="6.86919">
        <ele>2542.5</ele>
        <time>2026-03-25T11:26:17Z</time>
      </trkpt>
      <trkpt lat="44.68126" lon="6.86919">
        <ele>2542.5</ele>
        <time>2026-03-25T11:26:18Z</time>
      </trkpt>
      <trkpt lat="44.68126" lon="6.86919">
        <ele>2542.5</ele>
        <time>2026-03-25T11:26:19Z</time>
      </trkpt>
      <trkpt lat="44.68126" lon="6.86919">
        <ele>2541.6</ele>
        <time>2026-03-25T11:26:20Z</time>
      </trkpt>
      <trkpt lat="44.68126" lon="6.8692">
        <ele>2541.6</ele>
        <time>2026-03-25T11:26:21Z</time>
      </trkpt>
      <trkpt lat="44.68126" lon="6.8692">
        <ele>2541.6</ele>
        <time>2026-03-25T11:26:22Z</time>
      </trkpt>
      <trkpt lat="44.68127" lon="6.8692">
        <ele>2541.2</ele>
        <time>2026-03-25T11:26:23Z</time>
      </trkpt>
      <trkpt lat="44.68128" lon="6.86921">
        <ele>2541.2</ele>
        <time>2026-03-25T11:26:24Z</time>
      </trkpt>
      <trkpt lat="44.68129" lon="6.86921">
        <ele>2541.2</ele>
        <time>2026-03-25T11:26:25Z</time>
      </trkpt>
      <trkpt lat="44.68129" lon="6.86921">
        <ele>2540.3</ele>
        <time>2026-03-25T11:26:26Z</time>
      </trkpt>
      <trkpt lat="44.6813" lon="6.86921">
        <ele>2540.3</ele>
        <time>2026-03-25T11:26:27Z</time>
      </trkpt>
      <trkpt lat="44.6813" lon="6.86921">
        <ele>2540.3</ele>
        <time>2026-03-25T11:26:28Z</time>
      </trkpt>
      <trkpt lat="44.68131" lon="6.86921">
        <ele>2540.3</ele>
        <time>2026-03-25T11:26:29Z</time>
      </trkpt>
      <trkpt lat="44.68131" lon="6.86921">
        <ele>2540.3</ele>
        <time>2026-03-25T11:26:30Z</time>
      </trkpt>
      <trkpt lat="44.68132" lon="6.86921">
        <ele>2539.3</ele>
        <time>2026-03-25T11:26:31Z</time>
      </trkpt>
      <trkpt lat="44.68133" lon="6.86921">
        <ele>2539.3</ele>
        <time>2026-03-25T11:26:32Z</time>
      </trkpt>
      <trkpt lat="44.68133" lon="6.86921">
        <ele>2539.3</ele>
        <time>2026-03-25T11:26:33Z</time>
      </trkpt>
      <trkpt lat="44.68134" lon="6.86921">
        <ele>2539.3</ele>
        <time>2026-03-25T11:26:34Z</time>
      </trkpt>
      <trkpt lat="44.68134" lon="6.86921">
        <ele>2539.3</ele>
        <time>2026-03-25T11:26:35Z</time>
      </trkpt>
      <trkpt lat="44.68135" lon="6.86921">
        <ele>2539.3</ele>
        <time>2026-03-25T11:26:36Z</time>
      </trkpt>
      <trkpt lat="44.68135" lon="6.86921">
        <ele>2538.3</ele>
        <time>2026-03-25T11:26:37Z</time>
      </trkpt>
      <trkpt lat="44.68135" lon="6.86922">
        <ele>2538.3</ele>
        <time>2026-03-25T11:26:38Z</time>
      </trkpt>
      <trkpt lat="44.68135" lon="6.86922">
        <ele>2538.3</ele>
        <time>2026-03-25T11:26:39Z</time>
      </trkpt>
      <trkpt lat="44.68135" lon="6.86923">
        <ele>2538.3</ele>
        <time>2026-03-25T11:26:40Z</time>
      </trkpt>
      <trkpt lat="44.68135" lon="6.86923">
        <ele>2538.3</ele>
        <time>2026-03-25T11:26:42Z</time>
      </trkpt>
      <trkpt lat="44.68135" lon="6.86924">
        <ele>2538.3</ele>
        <time>2026-03-25T11:26:43Z</time>
      </trkpt>
      <trkpt lat="44.68135" lon="6.86924">
        <ele>2539.3</ele>
        <time>2026-03-25T11:26:44Z</time>
      </trkpt>
      <trkpt lat="44.68135" lon="6.86924">
        <ele>2539.3</ele>
        <time>2026-03-25T11:26:45Z</time>
      </trkpt>
      <trkpt lat="44.68135" lon="6.86924">
        <ele>2539.3</ele>
        <time>2026-03-25T11:26:46Z</time>
      </trkpt>
      <trkpt lat="44.68135" lon="6.86924">
        <ele>2539.3</ele>
        <time>2026-03-25T11:26:47Z</time>
      </trkpt>
      <trkpt lat="44.68134" lon="6.86924">
        <ele>2539.3</ele>
        <time>2026-03-25T11:26:48Z</time>
      </trkpt>
      <trkpt lat="44.68134" lon="6.86925">
        <ele>2538.8</ele>
        <time>2026-03-25T11:26:49Z</time>
      </trkpt>
      <trkpt lat="44.68134" lon="6.86925">
        <ele>2538.8</ele>
        <time>2026-03-25T11:26:50Z</time>
      </trkpt>
      <trkpt lat="44.68134" lon="6.86925">
        <ele>2538.8</ele>
        <time>2026-03-25T11:26:51Z</time>
      </trkpt>
      <trkpt lat="44.68134" lon="6.86925">
        <ele>2538.8</ele>
        <time>2026-03-25T11:26:52Z</time>
      </trkpt>
      <trkpt lat="44.68134" lon="6.86925">
        <ele>2538.8</ele>
        <time>2026-03-25T11:26:53Z</time>
      </trkpt>
      <trkpt lat="44.68134" lon="6.86925">
        <ele>2538.8</ele>
        <time>2026-03-25T11:26:54Z</time>
      </trkpt>
      <trkpt lat="44.68134" lon="6.86926">
        <ele>2538.8</ele>
        <time>2026-03-25T11:26:55Z</time>
      </trkpt>
      <trkpt lat="44.68134" lon="6.86926">
        <ele>2538.8</ele>
        <time>2026-03-25T11:26:56Z</time>
      </trkpt>
      <trkpt lat="44.68134" lon="6.86926">
        <ele>2538.8</ele>
        <time>2026-03-25T11:26:57Z</time>
      </trkpt>
      <trkpt lat="44.68134" lon="6.86926">
        <ele>2538.8</ele>
        <time>2026-03-25T11:26:58Z</time>
      </trkpt>
      <trkpt lat="44.68134" lon="6.86926">
        <ele>2538.7</ele>
        <time>2026-03-25T11:26:59Z</time>
      </trkpt>
      <trkpt lat="44.68134" lon="6.86926">
        <ele>2538.7</ele>
        <time>2026-03-25T11:27:00Z</time>
      </trkpt>
      <trkpt lat="44.68134" lon="6.86926">
        <ele>2538.7</ele>
        <time>2026-03-25T11:27:01Z</time>
      </trkpt>
      <trkpt lat="44.68133" lon="6.86926">
        <ele>2538.7</ele>
        <time>2026-03-25T11:27:02Z</time>
      </trkpt>
      <trkpt lat="44.68134" lon="6.86926">
        <ele>2538.7</ele>
        <time>2026-03-25T11:27:03Z</time>
      </trkpt>
      <trkpt lat="44.68134" lon="6.86926">
        <ele>2538.7</ele>
        <time>2026-03-25T11:27:04Z</time>
      </trkpt>
      <trkpt lat="44.68134" lon="6.86926">
        <ele>2538.7</ele>
        <time>2026-03-25T11:27:05Z</time>
      </trkpt>
      <trkpt lat="44.68134" lon="6.86926">
        <ele>2538.7</ele>
        <time>2026-03-25T11:27:06Z</time>
      </trkpt>
      <trkpt lat="44.68134" lon="6.86926">
        <ele>2538.7</ele>
        <time>2026-03-25T11:27:07Z</time>
      </trkpt>
      <trkpt lat="44.68134" lon="6.86926">
        <ele>2538.7</ele>
        <time>2026-03-25T11:27:08Z</time>
      </trkpt>
      <trkpt lat="44.68134" lon="6.86926">
        <ele>2538.7</ele>
        <time>2026-03-25T11:27:09Z</time>
      </trkpt>
      <trkpt lat="44.68134" lon="6.86926">
        <ele>2538.7</ele>
        <time>2026-03-25T11:27:10Z</time>
      </trkpt>
      <trkpt lat="44.68134" lon="6.86926">
        <ele>2538.7</ele>
        <time>2026-03-25T11:27:11Z</time>
      </trkpt>
      <trkpt lat="44.68134" lon="6.86926">
        <ele>2538.7</ele>
        <time>2026-03-25T11:27:12Z</time>
      </trkpt>
      <trkpt lat="44.68134" lon="6.86926">
        <ele>2538.7</ele>
        <time>2026-03-25T11:27:13Z</time>
      </trkpt>
      <trkpt lat="44.68134" lon="6.86926">
        <ele>2538.7</ele>
        <time>2026-03-25T11:27:14Z</time>
      </trkpt>
      <trkpt lat="44.68134" lon="6.86926">
        <ele>2538.7</ele>
        <time>2026-03-25T11:27:15Z</time>
      </trkpt>
      <trkpt lat="44.68134" lon="6.86926">
        <ele>2538.7</ele>
        <time>2026-03-25T11:27:16Z</time>
      </trkpt>
      <trkpt lat="44.68134" lon="6.86926">
        <ele>2538.7</ele>
        <time>2026-03-25T11:27:17Z</time>
      </trkpt>
      <trkpt lat="44.68134" lon="6.86926">
        <ele>2538.7</ele>
        <time>2026-03-25T11:27:18Z</time>
      </trkpt>
      <trkpt lat="44.68134" lon="6.86926">
        <ele>2538.7</ele>
        <time>2026-03-25T11:27:19Z</time>
      </trkpt>
      <trkpt lat="44.68134" lon="6.86926">
        <ele>2538.7</ele>
        <time>2026-03-25T11:27:20Z</time>
      </trkpt>
      <trkpt lat="44.68134" lon="6.86926">
        <ele>2538.7</ele>
        <time>2026-03-25T11:27:21Z</time>
      </trkpt>
      <trkpt lat="44.68134" lon="6.86926">
        <ele>2538.7</ele>
        <time>2026-03-25T11:27:22Z</time>
      </trkpt>
      <trkpt lat="44.68134" lon="6.86926">
        <ele>2538.7</ele>
        <time>2026-03-25T11:27:23Z</time>
      </trkpt>
      <trkpt lat="44.68134" lon="6.86926">
        <ele>2538.7</ele>
        <time>2026-03-25T11:27:24Z</time>
      </trkpt>
      <trkpt lat="44.68134" lon="6.86926">
        <ele>2538.7</ele>
        <time>2026-03-25T11:27:25Z</time>
      </trkpt>
      <trkpt lat="44.68134" lon="6.86926">
        <ele>2538.7</ele>
        <time>2026-03-25T11:27:26Z</time>
      </trkpt>
      <trkpt lat="44.68134" lon="6.86926">
        <ele>2538.7</ele>
        <time>2026-03-25T11:27:27Z</time>
      </trkpt>
      <trkpt lat="44.68134" lon="6.86926">
        <ele>2538.7</ele>
        <time>2026-03-25T11:27:28Z</time>
      </trkpt>
      <trkpt lat="44.68134" lon="6.86926">
        <ele>2538.7</ele>
        <time>2026-03-25T11:27:29Z</time>
      </trkpt>
      <trkpt lat="44.68134" lon="6.86926">
        <ele>2538.7</ele>
        <time>2026-03-25T11:27:30Z</time>
      </trkpt>
      <trkpt lat="44.68134" lon="6.86926">
        <ele>2538.7</ele>
        <time>2026-03-25T11:27:31Z</time>
      </trkpt>
      <trkpt lat="44.68134" lon="6.86926">
        <ele>2538.7</ele>
        <time>2026-03-25T11:27:32Z</time>
      </trkpt>
      <trkpt lat="44.68134" lon="6.86926">
        <ele>2538.7</ele>
        <time>2026-03-25T11:27:33Z</time>
      </trkpt>
      <trkpt lat="44.68134" lon="6.86926">
        <ele>2538.7</ele>
        <time>2026-03-25T11:27:34Z</time>
      </trkpt>
      <trkpt lat="44.68134" lon="6.86926">
        <ele>2538.7</ele>
        <time>2026-03-25T11:27:35Z</time>
      </trkpt>
      <trkpt lat="44.68134" lon="6.86926">
        <ele>2538.7</ele>
        <time>2026-03-25T11:27:36Z</time>
      </trkpt>
      <trkpt lat="44.68134" lon="6.86926">
        <ele>2538.7</ele>
        <time>2026-03-25T11:27:37Z</time>
      </trkpt>
      <trkpt lat="44.68134" lon="6.86926">
        <ele>2538.7</ele>
        <time>2026-03-25T11:27:38Z</time>
      </trkpt>
      <trkpt lat="44.68134" lon="6.86926">
        <ele>2538.7</ele>
        <time>2026-03-25T11:27:39Z</time>
      </trkpt>
      <trkpt lat="44.68134" lon="6.86926">
        <ele>2538.7</ele>
        <time>2026-03-25T11:27:40Z</time>
      </trkpt>
      <trkpt lat="44.68134" lon="6.86926">
        <ele>2538.7</ele>
        <time>2026-03-25T11:27:42Z</time>
      </trkpt>
      <trkpt lat="44.68134" lon="6.86926">
        <ele>2538.7</ele>
        <time>2026-03-25T11:27:43Z</time>
      </trkpt>
      <trkpt lat="44.68134" lon="6.86926">
        <ele>2538.7</ele>
        <time>2026-03-25T11:27:44Z</time>
      </trkpt>
      <trkpt lat="44.68134" lon="6.86926">
        <ele>2538.7</ele>
        <time>2026-03-25T11:27:45Z</time>
      </trkpt>
      <trkpt lat="44.68134" lon="6.86926">
        <ele>2538.7</ele>
        <time>2026-03-25T11:27:46Z</time>
      </trkpt>
      <trkpt lat="44.68134" lon="6.86926">
        <ele>2538.7</ele>
        <time>2026-03-25T11:27:47Z</time>
      </trkpt>
      <trkpt lat="44.68134" lon="6.86926">
        <ele>2538.7</ele>
        <time>2026-03-25T11:27:48Z</time>
      </trkpt>
      <trkpt lat="44.68134" lon="6.86926">
        <ele>2538.7</ele>
        <time>2026-03-25T11:27:49Z</time>
      </trkpt>
      <trkpt lat="44.68134" lon="6.86926">
        <ele>2538.7</ele>
        <time>2026-03-25T11:27:50Z</time>
      </trkpt>
      <trkpt lat="44.68134" lon="6.86926">
        <ele>2538.7</ele>
        <time>2026-03-25T11:27:51Z</time>
      </trkpt>
      <trkpt lat="44.68134" lon="6.86926">
        <ele>2538.7</ele>
        <time>2026-03-25T11:27:52Z</time>
      </trkpt>
      <trkpt lat="44.68134" lon="6.86926">
        <ele>2538.7</ele>
        <time>2026-03-25T11:27:53Z</time>
      </trkpt>
      <trkpt lat="44.68134" lon="6.86926">
        <ele>2538.7</ele>
        <time>2026-03-25T11:27:54Z</time>
      </trkpt>
      <trkpt lat="44.68133" lon="6.86926">
        <ele>2538.7</ele>
        <time>2026-03-25T11:27:55Z</time>
      </trkpt>
      <trkpt lat="44.68133" lon="6.86927">
        <ele>2538.7</ele>
        <time>2026-03-25T11:27:56Z</time>
      </trkpt>
      <trkpt lat="44.68132" lon="6.86927">
        <ele>2538.7</ele>
        <time>2026-03-25T11:27:57Z</time>
      </trkpt>
      <trkpt lat="44.68131" lon="6.86928">
        <ele>2539.6</ele>
        <time>2026-03-25T11:27:58Z</time>
      </trkpt>
      <trkpt lat="44.68131" lon="6.86928">
        <ele>2539.6</ele>
        <time>2026-03-25T11:27:59Z</time>
      </trkpt>
      <trkpt lat="44.6813" lon="6.86929">
        <ele>2539.1</ele>
        <time>2026-03-25T11:28:00Z</time>
      </trkpt>
      <trkpt lat="44.68129" lon="6.8693">
        <ele>2539.1</ele>
        <time>2026-03-25T11:28:01Z</time>
      </trkpt>
      <trkpt lat="44.68129" lon="6.86931">
        <ele>2540</ele>
        <time>2026-03-25T11:28:02Z</time>
      </trkpt>
      <trkpt lat="44.68128" lon="6.86932">
        <ele>2540</ele>
        <time>2026-03-25T11:28:03Z</time>
      </trkpt>
      <trkpt lat="44.68127" lon="6.86932">
        <ele>2540</ele>
        <time>2026-03-25T11:28:04Z</time>
      </trkpt>
      <trkpt lat="44.68127" lon="6.86933">
        <ele>2540</ele>
        <time>2026-03-25T11:28:05Z</time>
      </trkpt>
      <trkpt lat="44.68126" lon="6.86933">
        <ele>2539.3</ele>
        <time>2026-03-25T11:28:06Z</time>
      </trkpt>
      <trkpt lat="44.68126" lon="6.86934">
        <ele>2540.2</ele>
        <time>2026-03-25T11:28:07Z</time>
      </trkpt>
      <trkpt lat="44.68125" lon="6.86935">
        <ele>2540.2</ele>
        <time>2026-03-25T11:28:08Z</time>
      </trkpt>
      <trkpt lat="44.68125" lon="6.86935">
        <ele>2540.2</ele>
        <time>2026-03-25T11:28:09Z</time>
      </trkpt>
      <trkpt lat="44.68124" lon="6.86936">
        <ele>2540.2</ele>
        <time>2026-03-25T11:28:10Z</time>
      </trkpt>
      <trkpt lat="44.68123" lon="6.86936">
        <ele>2540.2</ele>
        <time>2026-03-25T11:28:11Z</time>
      </trkpt>
      <trkpt lat="44.68123" lon="6.86937">
        <ele>2540.2</ele>
        <time>2026-03-25T11:28:12Z</time>
      </trkpt>
      <trkpt lat="44.68123" lon="6.86938">
        <ele>2540.5</ele>
        <time>2026-03-25T11:28:13Z</time>
      </trkpt>
      <trkpt lat="44.68122" lon="6.86939">
        <ele>2540.5</ele>
        <time>2026-03-25T11:28:14Z</time>
      </trkpt>
      <trkpt lat="44.68121" lon="6.8694">
        <ele>2540.5</ele>
        <time>2026-03-25T11:28:15Z</time>
      </trkpt>
      <trkpt lat="44.68121" lon="6.86941">
        <ele>2540.5</ele>
        <time>2026-03-25T11:28:17Z</time>
      </trkpt>
      <trkpt lat="44.6812" lon="6.86941">
        <ele>2540.5</ele>
        <time>2026-03-25T11:28:18Z</time>
      </trkpt>
      <trkpt lat="44.6812" lon="6.86942">
        <ele>2539.8</ele>
        <time>2026-03-25T11:28:19Z</time>
      </trkpt>
      <trkpt lat="44.6812" lon="6.86943">
        <ele>2539.8</ele>
        <time>2026-03-25T11:28:20Z</time>
      </trkpt>
      <trkpt lat="44.68119" lon="6.86944">
        <ele>2540.8</ele>
        <time>2026-03-25T11:28:21Z</time>
      </trkpt>
      <trkpt lat="44.68119" lon="6.86945">
        <ele>2540.8</ele>
        <time>2026-03-25T11:28:23Z</time>
      </trkpt>
      <trkpt lat="44.68119" lon="6.86945">
        <ele>2540.8</ele>
        <time>2026-03-25T11:28:24Z</time>
      </trkpt>
      <trkpt lat="44.6812" lon="6.86945">
        <ele>2540.8</ele>
        <time>2026-03-25T11:28:25Z</time>
      </trkpt>
      <trkpt lat="44.6812" lon="6.86945">
        <ele>2539.8</ele>
        <time>2026-03-25T11:28:26Z</time>
      </trkpt>
      <trkpt lat="44.6812" lon="6.86944">
        <ele>2539.8</ele>
        <time>2026-03-25T11:28:27Z</time>
      </trkpt>
      <trkpt lat="44.6812" lon="6.86944">
        <ele>2539.8</ele>
        <time>2026-03-25T11:28:28Z</time>
      </trkpt>
      <trkpt lat="44.6812" lon="6.86944">
        <ele>2539.8</ele>
        <time>2026-03-25T11:28:29Z</time>
      </trkpt>
      <trkpt lat="44.6812" lon="6.86944">
        <ele>2539.8</ele>
        <time>2026-03-25T11:28:30Z</time>
      </trkpt>
      <trkpt lat="44.6812" lon="6.86944">
        <ele>2539.8</ele>
        <time>2026-03-25T11:28:31Z</time>
      </trkpt>
      <trkpt lat="44.6812" lon="6.86944">
        <ele>2539.8</ele>
        <time>2026-03-25T11:28:32Z</time>
      </trkpt>
      <trkpt lat="44.6812" lon="6.86944">
        <ele>2539.8</ele>
        <time>2026-03-25T11:28:33Z</time>
      </trkpt>
      <trkpt lat="44.6812" lon="6.86945">
        <ele>2539.8</ele>
        <time>2026-03-25T11:28:34Z</time>
      </trkpt>
      <trkpt lat="44.6812" lon="6.86945">
        <ele>2539.8</ele>
        <time>2026-03-25T11:28:35Z</time>
      </trkpt>
      <trkpt lat="44.6812" lon="6.86946">
        <ele>2539.8</ele>
        <time>2026-03-25T11:28:36Z</time>
      </trkpt>
      <trkpt lat="44.68121" lon="6.86947">
        <ele>2539</ele>
        <time>2026-03-25T11:28:38Z</time>
      </trkpt>
      <trkpt lat="44.68121" lon="6.86947">
        <ele>2539</ele>
        <time>2026-03-25T11:28:39Z</time>
      </trkpt>
      <trkpt lat="44.68121" lon="6.86947">
        <ele>2539</ele>
        <time>2026-03-25T11:28:40Z</time>
      </trkpt>
      <trkpt lat="44.68121" lon="6.86948">
        <ele>2538.9</ele>
        <time>2026-03-25T11:28:41Z</time>
      </trkpt>
      <trkpt lat="44.68121" lon="6.86948">
        <ele>2538.9</ele>
        <time>2026-03-25T11:28:42Z</time>
      </trkpt>
      <trkpt lat="44.68122" lon="6.8695">
        <ele>2538.9</ele>
        <time>2026-03-25T11:28:43Z</time>
      </trkpt>
      <trkpt lat="44.68122" lon="6.86951">
        <ele>2538</ele>
        <time>2026-03-25T11:28:45Z</time>
      </trkpt>
      <trkpt lat="44.68123" lon="6.86952">
        <ele>2538</ele>
        <time>2026-03-25T11:28:46Z</time>
      </trkpt>
      <trkpt lat="44.68123" lon="6.86953">
        <ele>2537.1</ele>
        <time>2026-03-25T11:28:47Z</time>
      </trkpt>
      <trkpt lat="44.68123" lon="6.86954">
        <ele>2537.1</ele>
        <time>2026-03-25T11:28:48Z</time>
      </trkpt>
      <trkpt lat="44.68124" lon="6.86954">
        <ele>2537.1</ele>
        <time>2026-03-25T11:28:49Z</time>
      </trkpt>
      <trkpt lat="44.68124" lon="6.86954">
        <ele>2537.1</ele>
        <time>2026-03-25T11:28:50Z</time>
      </trkpt>
      <trkpt lat="44.68124" lon="6.86954">
        <ele>2537.1</ele>
        <time>2026-03-25T11:28:51Z</time>
      </trkpt>
      <trkpt lat="44.68124" lon="6.86954">
        <ele>2537.1</ele>
        <time>2026-03-25T11:28:52Z</time>
      </trkpt>
      <trkpt lat="44.68124" lon="6.86953">
        <ele>2537.1</ele>
        <time>2026-03-25T11:28:53Z</time>
      </trkpt>
      <trkpt lat="44.68124" lon="6.86953">
        <ele>2537.1</ele>
        <time>2026-03-25T11:28:54Z</time>
      </trkpt>
      <trkpt lat="44.68124" lon="6.86953">
        <ele>2537.1</ele>
        <time>2026-03-25T11:28:55Z</time>
      </trkpt>
      <trkpt lat="44.68124" lon="6.86953">
        <ele>2537.1</ele>
        <time>2026-03-25T11:28:56Z</time>
      </trkpt>
      <trkpt lat="44.68124" lon="6.86953">
        <ele>2537.1</ele>
        <time>2026-03-25T11:28:57Z</time>
      </trkpt>
      <trkpt lat="44.68124" lon="6.86953">
        <ele>2537.1</ele>
        <time>2026-03-25T11:28:58Z</time>
      </trkpt>
      <trkpt lat="44.68124" lon="6.86953">
        <ele>2537.1</ele>
        <time>2026-03-25T11:28:59Z</time>
      </trkpt>
      <trkpt lat="44.68124" lon="6.86953">
        <ele>2537.1</ele>
        <time>2026-03-25T11:29:00Z</time>
      </trkpt>
      <trkpt lat="44.68125" lon="6.86953">
        <ele>2537.1</ele>
        <time>2026-03-25T11:29:01Z</time>
      </trkpt>
      <trkpt lat="44.68125" lon="6.86953">
        <ele>2537.1</ele>
        <time>2026-03-25T11:29:02Z</time>
      </trkpt>
      <trkpt lat="44.68125" lon="6.86953">
        <ele>2537.1</ele>
        <time>2026-03-25T11:29:03Z</time>
      </trkpt>
      <trkpt lat="44.68125" lon="6.86953">
        <ele>2537.1</ele>
        <time>2026-03-25T11:29:04Z</time>
      </trkpt>
      <trkpt lat="44.68125" lon="6.86953">
        <ele>2537.1</ele>
        <time>2026-03-25T11:29:05Z</time>
      </trkpt>
      <trkpt lat="44.68125" lon="6.86953">
        <ele>2537.1</ele>
        <time>2026-03-25T11:29:06Z</time>
      </trkpt>
      <trkpt lat="44.68125" lon="6.86953">
        <ele>2537.1</ele>
        <time>2026-03-25T11:29:07Z</time>
      </trkpt>
      <trkpt lat="44.68125" lon="6.86953">
        <ele>2537.1</ele>
        <time>2026-03-25T11:29:08Z</time>
      </trkpt>
      <trkpt lat="44.68126" lon="6.86953">
        <ele>2537.1</ele>
        <time>2026-03-25T11:29:09Z</time>
      </trkpt>
      <trkpt lat="44.68126" lon="6.86954">
        <ele>2536.2</ele>
        <time>2026-03-25T11:29:10Z</time>
      </trkpt>
      <trkpt lat="44.68127" lon="6.86955">
        <ele>2535.2</ele>
        <time>2026-03-25T11:29:11Z</time>
      </trkpt>
      <trkpt lat="44.68128" lon="6.86955">
        <ele>2535.2</ele>
        <time>2026-03-25T11:29:12Z</time>
      </trkpt>
      <trkpt lat="44.68129" lon="6.86956">
        <ele>2535.2</ele>
        <time>2026-03-25T11:29:13Z</time>
      </trkpt>
      <trkpt lat="44.68129" lon="6.86957">
        <ele>2534.2</ele>
        <time>2026-03-25T11:29:14Z</time>
      </trkpt>
      <trkpt lat="44.6813" lon="6.86958">
        <ele>2534.2</ele>
        <time>2026-03-25T11:29:15Z</time>
      </trkpt>
      <trkpt lat="44.68131" lon="6.86958">
        <ele>2534.2</ele>
        <time>2026-03-25T11:29:17Z</time>
      </trkpt>
      <trkpt lat="44.68131" lon="6.86959">
        <ele>2533.2</ele>
        <time>2026-03-25T11:29:18Z</time>
      </trkpt>
      <trkpt lat="44.68132" lon="6.86959">
        <ele>2533.2</ele>
        <time>2026-03-25T11:29:19Z</time>
      </trkpt>
      <trkpt lat="44.68132" lon="6.8696">
        <ele>2532.3</ele>
        <time>2026-03-25T11:29:20Z</time>
      </trkpt>
      <trkpt lat="44.68132" lon="6.8696">
        <ele>2533.2</ele>
        <time>2026-03-25T11:29:21Z</time>
      </trkpt>
      <trkpt lat="44.68131" lon="6.8696">
        <ele>2533.2</ele>
        <time>2026-03-25T11:29:22Z</time>
      </trkpt>
      <trkpt lat="44.68131" lon="6.8696">
        <ele>2533.2</ele>
        <time>2026-03-25T11:29:23Z</time>
      </trkpt>
      <trkpt lat="44.68131" lon="6.8696">
        <ele>2533.2</ele>
        <time>2026-03-25T11:29:24Z</time>
      </trkpt>
      <trkpt lat="44.68131" lon="6.8696">
        <ele>2533.2</ele>
        <time>2026-03-25T11:29:25Z</time>
      </trkpt>
      <trkpt lat="44.68131" lon="6.8696">
        <ele>2533.2</ele>
        <time>2026-03-25T11:29:26Z</time>
      </trkpt>
      <trkpt lat="44.68131" lon="6.8696">
        <ele>2533.2</ele>
        <time>2026-03-25T11:29:27Z</time>
      </trkpt>
      <trkpt lat="44.68131" lon="6.8696">
        <ele>2533.2</ele>
        <time>2026-03-25T11:29:28Z</time>
      </trkpt>
      <trkpt lat="44.68131" lon="6.8696">
        <ele>2533.2</ele>
        <time>2026-03-25T11:29:29Z</time>
      </trkpt>
      <trkpt lat="44.68131" lon="6.8696">
        <ele>2533.1</ele>
        <time>2026-03-25T11:29:31Z</time>
      </trkpt>
      <trkpt lat="44.68131" lon="6.8696">
        <ele>2533.1</ele>
        <time>2026-03-25T11:29:32Z</time>
      </trkpt>
      <trkpt lat="44.68131" lon="6.8696">
        <ele>2533.1</ele>
        <time>2026-03-25T11:29:33Z</time>
      </trkpt>
      <trkpt lat="44.68131" lon="6.8696">
        <ele>2533.1</ele>
        <time>2026-03-25T11:29:34Z</time>
      </trkpt>
      <trkpt lat="44.68131" lon="6.8696">
        <ele>2533.1</ele>
        <time>2026-03-25T11:29:36Z</time>
      </trkpt>
      <trkpt lat="44.68131" lon="6.8696">
        <ele>2533.1</ele>
        <time>2026-03-25T11:29:37Z</time>
      </trkpt>
      <trkpt lat="44.68131" lon="6.8696">
        <ele>2533.1</ele>
        <time>2026-03-25T11:29:38Z</time>
      </trkpt>
      <trkpt lat="44.68131" lon="6.86961">
        <ele>2533.1</ele>
        <time>2026-03-25T11:29:39Z</time>
      </trkpt>
      <trkpt lat="44.68131" lon="6.86961">
        <ele>2533.1</ele>
        <time>2026-03-25T11:29:40Z</time>
      </trkpt>
      <trkpt lat="44.68132" lon="6.86961">
        <ele>2533.1</ele>
        <time>2026-03-25T11:29:41Z</time>
      </trkpt>
      <trkpt lat="44.68132" lon="6.86961">
        <ele>2533.1</ele>
        <time>2026-03-25T11:29:42Z</time>
      </trkpt>
      <trkpt lat="44.68132" lon="6.86961">
        <ele>2532.3</ele>
        <time>2026-03-25T11:29:43Z</time>
      </trkpt>
      <trkpt lat="44.68132" lon="6.86961">
        <ele>2532.3</ele>
        <time>2026-03-25T11:29:44Z</time>
      </trkpt>
      <trkpt lat="44.68132" lon="6.86962">
        <ele>2532.3</ele>
        <time>2026-03-25T11:29:45Z</time>
      </trkpt>
      <trkpt lat="44.68132" lon="6.86962">
        <ele>2532.3</ele>
        <time>2026-03-25T11:29:46Z</time>
      </trkpt>
      <trkpt lat="44.68132" lon="6.86962">
        <ele>2532.3</ele>
        <time>2026-03-25T11:29:47Z</time>
      </trkpt>
      <trkpt lat="44.68132" lon="6.86962">
        <ele>2532.3</ele>
        <time>2026-03-25T11:29:48Z</time>
      </trkpt>
      <trkpt lat="44.68132" lon="6.86962">
        <ele>2532.3</ele>
        <time>2026-03-25T11:29:49Z</time>
      </trkpt>
      <trkpt lat="44.68132" lon="6.86962">
        <ele>2532.3</ele>
        <time>2026-03-25T11:29:50Z</time>
      </trkpt>
      <trkpt lat="44.68132" lon="6.86962">
        <ele>2532.3</ele>
        <time>2026-03-25T11:29:51Z</time>
      </trkpt>
      <trkpt lat="44.68132" lon="6.86962">
        <ele>2532.3</ele>
        <time>2026-03-25T11:29:52Z</time>
      </trkpt>
      <trkpt lat="44.68132" lon="6.86962">
        <ele>2532.3</ele>
        <time>2026-03-25T11:29:53Z</time>
      </trkpt>
      <trkpt lat="44.68132" lon="6.86962">
        <ele>2532.3</ele>
        <time>2026-03-25T11:29:54Z</time>
      </trkpt>
      <trkpt lat="44.68132" lon="6.86962">
        <ele>2532.3</ele>
        <time>2026-03-25T11:29:55Z</time>
      </trkpt>
      <trkpt lat="44.68132" lon="6.86962">
        <ele>2532.3</ele>
        <time>2026-03-25T11:29:56Z</time>
      </trkpt>
      <trkpt lat="44.68132" lon="6.86962">
        <ele>2532.3</ele>
        <time>2026-03-25T11:29:57Z</time>
      </trkpt>
      <trkpt lat="44.68132" lon="6.86962">
        <ele>2532.3</ele>
        <time>2026-03-25T11:29:58Z</time>
      </trkpt>
      <trkpt lat="44.68132" lon="6.86962">
        <ele>2532.3</ele>
        <time>2026-03-25T11:29:59Z</time>
      </trkpt>
      <trkpt lat="44.68132" lon="6.86962">
        <ele>2532.3</ele>
        <time>2026-03-25T11:30:00Z</time>
      </trkpt>
      <trkpt lat="44.68132" lon="6.86962">
        <ele>2532.3</ele>
        <time>2026-03-25T11:30:01Z</time>
      </trkpt>
      <trkpt lat="44.68132" lon="6.86962">
        <ele>2532.3</ele>
        <time>2026-03-25T11:30:02Z</time>
      </trkpt>
      <trkpt lat="44.68132" lon="6.86962">
        <ele>2532.3</ele>
        <time>2026-03-25T11:30:03Z</time>
      </trkpt>
      <trkpt lat="44.68132" lon="6.86962">
        <ele>2532.2</ele>
        <time>2026-03-25T11:30:04Z</time>
      </trkpt>
      <trkpt lat="44.68132" lon="6.86962">
        <ele>2532.2</ele>
        <time>2026-03-25T11:30:05Z</time>
      </trkpt>
      <trkpt lat="44.68132" lon="6.86962">
        <ele>2532.2</ele>
        <time>2026-03-25T11:30:06Z</time>
      </trkpt>
      <trkpt lat="44.68132" lon="6.86962">
        <ele>2532.2</ele>
        <time>2026-03-25T11:30:07Z</time>
      </trkpt>
      <trkpt lat="44.68132" lon="6.86962">
        <ele>2532.2</ele>
        <time>2026-03-25T11:30:08Z</time>
      </trkpt>
      <trkpt lat="44.68132" lon="6.86962">
        <ele>2532.2</ele>
        <time>2026-03-25T11:30:09Z</time>
      </trkpt>
      <trkpt lat="44.68133" lon="6.86963">
        <ele>2532.2</ele>
        <time>2026-03-25T11:30:10Z</time>
      </trkpt>
      <trkpt lat="44.68133" lon="6.86963">
        <ele>2532.2</ele>
        <time>2026-03-25T11:30:12Z</time>
      </trkpt>
      <trkpt lat="44.68133" lon="6.86963">
        <ele>2532.2</ele>
        <time>2026-03-25T11:30:13Z</time>
      </trkpt>
      <trkpt lat="44.68133" lon="6.86963">
        <ele>2532.2</ele>
        <time>2026-03-25T11:30:14Z</time>
      </trkpt>
      <trkpt lat="44.68133" lon="6.86963">
        <ele>2532.2</ele>
        <time>2026-03-25T11:30:15Z</time>
      </trkpt>
      <trkpt lat="44.68132" lon="6.86963">
        <ele>2532.2</ele>
        <time>2026-03-25T11:30:16Z</time>
      </trkpt>
      <trkpt lat="44.68132" lon="6.86963">
        <ele>2532.2</ele>
        <time>2026-03-25T11:30:17Z</time>
      </trkpt>
      <trkpt lat="44.68133" lon="6.86963">
        <ele>2532.2</ele>
        <time>2026-03-25T11:30:18Z</time>
      </trkpt>
      <trkpt lat="44.68132" lon="6.86963">
        <ele>2531.1</ele>
        <time>2026-03-25T11:30:19Z</time>
      </trkpt>
      <trkpt lat="44.68132" lon="6.86963">
        <ele>2531.1</ele>
        <time>2026-03-25T11:30:20Z</time>
      </trkpt>
      <trkpt lat="44.68132" lon="6.86964">
        <ele>2531.1</ele>
        <time>2026-03-25T11:30:21Z</time>
      </trkpt>
      <trkpt lat="44.68132" lon="6.86964">
        <ele>2531.1</ele>
        <time>2026-03-25T11:30:22Z</time>
      </trkpt>
      <trkpt lat="44.68132" lon="6.86964">
        <ele>2531.1</ele>
        <time>2026-03-25T11:30:23Z</time>
      </trkpt>
      <trkpt lat="44.68132" lon="6.86964">
        <ele>2531.1</ele>
        <time>2026-03-25T11:30:24Z</time>
      </trkpt>
      <trkpt lat="44.68133" lon="6.86964">
        <ele>2531.1</ele>
        <time>2026-03-25T11:30:25Z</time>
      </trkpt>
      <trkpt lat="44.68133" lon="6.86964">
        <ele>2531.1</ele>
        <time>2026-03-25T11:30:26Z</time>
      </trkpt>
      <trkpt lat="44.68132" lon="6.86964">
        <ele>2531.1</ele>
        <time>2026-03-25T11:30:27Z</time>
      </trkpt>
      <trkpt lat="44.68132" lon="6.86964">
        <ele>2531.1</ele>
        <time>2026-03-25T11:30:28Z</time>
      </trkpt>
      <trkpt lat="44.68132" lon="6.86964">
        <ele>2531.1</ele>
        <time>2026-03-25T11:30:29Z</time>
      </trkpt>
      <trkpt lat="44.68132" lon="6.86964">
        <ele>2531.1</ele>
        <time>2026-03-25T11:30:30Z</time>
      </trkpt>
      <trkpt lat="44.68132" lon="6.86964">
        <ele>2531.1</ele>
        <time>2026-03-25T11:30:31Z</time>
      </trkpt>
      <trkpt lat="44.68132" lon="6.86964">
        <ele>2531.1</ele>
        <time>2026-03-25T11:30:32Z</time>
      </trkpt>
      <trkpt lat="44.68132" lon="6.86964">
        <ele>2531.1</ele>
        <time>2026-03-25T11:30:33Z</time>
      </trkpt>
      <trkpt lat="44.68132" lon="6.86964">
        <ele>2531.1</ele>
        <time>2026-03-25T11:30:34Z</time>
      </trkpt>
      <trkpt lat="44.68132" lon="6.86964">
        <ele>2531.1</ele>
        <time>2026-03-25T11:30:35Z</time>
      </trkpt>
      <trkpt lat="44.68132" lon="6.86964">
        <ele>2531.1</ele>
        <time>2026-03-25T11:30:36Z</time>
      </trkpt>
      <trkpt lat="44.68132" lon="6.86964">
        <ele>2531.1</ele>
        <time>2026-03-25T11:30:37Z</time>
      </trkpt>
      <trkpt lat="44.68132" lon="6.86964">
        <ele>2531.1</ele>
        <time>2026-03-25T11:30:38Z</time>
      </trkpt>
      <trkpt lat="44.68132" lon="6.86964">
        <ele>2531.1</ele>
        <time>2026-03-25T11:30:39Z</time>
      </trkpt>
      <trkpt lat="44.68132" lon="6.86964">
        <ele>2531.1</ele>
        <time>2026-03-25T11:30:40Z</time>
      </trkpt>
      <trkpt lat="44.68132" lon="6.86963">
        <ele>2531.1</ele>
        <time>2026-03-25T11:30:41Z</time>
      </trkpt>
      <trkpt lat="44.68132" lon="6.86963">
        <ele>2531.1</ele>
        <time>2026-03-25T11:30:42Z</time>
      </trkpt>
      <trkpt lat="44.68132" lon="6.86963">
        <ele>2531.1</ele>
        <time>2026-03-25T11:30:43Z</time>
      </trkpt>
      <trkpt lat="44.68132" lon="6.86963">
        <ele>2532.2</ele>
        <time>2026-03-25T11:30:44Z</time>
      </trkpt>
      <trkpt lat="44.68132" lon="6.86963">
        <ele>2532.2</ele>
        <time>2026-03-25T11:30:45Z</time>
      </trkpt>
      <trkpt lat="44.68132" lon="6.86963">
        <ele>2532.2</ele>
        <time>2026-03-25T11:30:46Z</time>
      </trkpt>
      <trkpt lat="44.68132" lon="6.86963">
        <ele>2532.2</ele>
        <time>2026-03-25T11:30:47Z</time>
      </trkpt>
      <trkpt lat="44.68132" lon="6.86963">
        <ele>2532.2</ele>
        <time>2026-03-25T11:30:48Z</time>
      </trkpt>
      <trkpt lat="44.68132" lon="6.86963">
        <ele>2532.2</ele>
        <time>2026-03-25T11:30:49Z</time>
      </trkpt>
      <trkpt lat="44.68132" lon="6.86963">
        <ele>2532.2</ele>
        <time>2026-03-25T11:30:50Z</time>
      </trkpt>
      <trkpt lat="44.68132" lon="6.86963">
        <ele>2532.2</ele>
        <time>2026-03-25T11:30:51Z</time>
      </trkpt>
      <trkpt lat="44.68132" lon="6.86963">
        <ele>2532.2</ele>
        <time>2026-03-25T11:30:52Z</time>
      </trkpt>
      <trkpt lat="44.68132" lon="6.86963">
        <ele>2532.2</ele>
        <time>2026-03-25T11:30:53Z</time>
      </trkpt>
      <trkpt lat="44.68132" lon="6.86963">
        <ele>2532.2</ele>
        <time>2026-03-25T11:30:54Z</time>
      </trkpt>
      <trkpt lat="44.68132" lon="6.86963">
        <ele>2532.2</ele>
        <time>2026-03-25T11:30:55Z</time>
      </trkpt>
      <trkpt lat="44.68132" lon="6.86963">
        <ele>2532.2</ele>
        <time>2026-03-25T11:30:56Z</time>
      </trkpt>
      <trkpt lat="44.68132" lon="6.86963">
        <ele>2532.2</ele>
        <time>2026-03-25T11:30:57Z</time>
      </trkpt>
      <trkpt lat="44.68132" lon="6.86963">
        <ele>2532.2</ele>
        <time>2026-03-25T11:30:58Z</time>
      </trkpt>
      <trkpt lat="44.68132" lon="6.86963">
        <ele>2532.2</ele>
        <time>2026-03-25T11:30:59Z</time>
      </trkpt>
      <trkpt lat="44.68132" lon="6.86963">
        <ele>2532.2</ele>
        <time>2026-03-25T11:31:00Z</time>
      </trkpt>
      <trkpt lat="44.68132" lon="6.86963">
        <ele>2532.2</ele>
        <time>2026-03-25T11:31:01Z</time>
      </trkpt>
      <trkpt lat="44.68132" lon="6.86963">
        <ele>2532.2</ele>
        <time>2026-03-25T11:31:02Z</time>
      </trkpt>
      <trkpt lat="44.68132" lon="6.86963">
        <ele>2532.2</ele>
        <time>2026-03-25T11:31:03Z</time>
      </trkpt>
      <trkpt lat="44.68132" lon="6.86963">
        <ele>2532.2</ele>
        <time>2026-03-25T11:31:04Z</time>
      </trkpt>
      <trkpt lat="44.68132" lon="6.86963">
        <ele>2532.2</ele>
        <time>2026-03-25T11:31:05Z</time>
      </trkpt>
      <trkpt lat="44.68132" lon="6.86963">
        <ele>2532.2</ele>
        <time>2026-03-25T11:31:06Z</time>
      </trkpt>
      <trkpt lat="44.68132" lon="6.86963">
        <ele>2532.2</ele>
        <time>2026-03-25T11:31:07Z</time>
      </trkpt>
      <trkpt lat="44.68132" lon="6.86963">
        <ele>2532.2</ele>
        <time>2026-03-25T11:31:08Z</time>
      </trkpt>
      <trkpt lat="44.68132" lon="6.86963">
        <ele>2532.2</ele>
        <time>2026-03-25T11:31:09Z</time>
      </trkpt>
      <trkpt lat="44.68132" lon="6.86963">
        <ele>2532.2</ele>
        <time>2026-03-25T11:31:10Z</time>
      </trkpt>
      <trkpt lat="44.68132" lon="6.86963">
        <ele>2532.2</ele>
        <time>2026-03-25T11:31:11Z</time>
      </trkpt>
      <trkpt lat="44.68132" lon="6.86963">
        <ele>2532.2</ele>
        <time>2026-03-25T11:31:12Z</time>
      </trkpt>
      <trkpt lat="44.68132" lon="6.86963">
        <ele>2532.2</ele>
        <time>2026-03-25T11:31:13Z</time>
      </trkpt>
      <trkpt lat="44.68132" lon="6.86963">
        <ele>2532.2</ele>
        <time>2026-03-25T11:31:14Z</time>
      </trkpt>
      <trkpt lat="44.68132" lon="6.86963">
        <ele>2532.2</ele>
        <time>2026-03-25T11:31:16Z</time>
      </trkpt>
      <trkpt lat="44.68132" lon="6.86963">
        <ele>2532.2</ele>
        <time>2026-03-25T11:31:17Z</time>
      </trkpt>
      <trkpt lat="44.68132" lon="6.86963">
        <ele>2532.1</ele>
        <time>2026-03-25T11:31:18Z</time>
      </trkpt>
      <trkpt lat="44.68132" lon="6.86963">
        <ele>2532.1</ele>
        <time>2026-03-25T11:31:19Z</time>
      </trkpt>
      <trkpt lat="44.68132" lon="6.86963">
        <ele>2532.1</ele>
        <time>2026-03-25T11:31:20Z</time>
      </trkpt>
      <trkpt lat="44.68132" lon="6.86963">
        <ele>2532.1</ele>
        <time>2026-03-25T11:31:21Z</time>
      </trkpt>
      <trkpt lat="44.68132" lon="6.86963">
        <ele>2532.1</ele>
        <time>2026-03-25T11:31:22Z</time>
      </trkpt>
      <trkpt lat="44.68132" lon="6.86963">
        <ele>2532.1</ele>
        <time>2026-03-25T11:31:23Z</time>
      </trkpt>
      <trkpt lat="44.68132" lon="6.86963">
        <ele>2532.1</ele>
        <time>2026-03-25T11:31:24Z</time>
      </trkpt>
      <trkpt lat="44.68132" lon="6.86963">
        <ele>2532.1</ele>
        <time>2026-03-25T11:31:25Z</time>
      </trkpt>
      <trkpt lat="44.68132" lon="6.86963">
        <ele>2532.1</ele>
        <time>2026-03-25T11:31:26Z</time>
      </trkpt>
      <trkpt lat="44.68132" lon="6.86963">
        <ele>2532.1</ele>
        <time>2026-03-25T11:31:27Z</time>
      </trkpt>
      <trkpt lat="44.68132" lon="6.86963">
        <ele>2532.1</ele>
        <time>2026-03-25T11:31:28Z</time>
      </trkpt>
      <trkpt lat="44.68132" lon="6.86963">
        <ele>2532.1</ele>
        <time>2026-03-25T11:31:29Z</time>
      </trkpt>
      <trkpt lat="44.68132" lon="6.86963">
        <ele>2532.1</ele>
        <time>2026-03-25T11:31:30Z</time>
      </trkpt>
      <trkpt lat="44.68132" lon="6.86963">
        <ele>2532.1</ele>
        <time>2026-03-25T11:31:31Z</time>
      </trkpt>
      <trkpt lat="44.68132" lon="6.86963">
        <ele>2532.1</ele>
        <time>2026-03-25T11:31:32Z</time>
      </trkpt>
      <trkpt lat="44.68132" lon="6.86963">
        <ele>2531</ele>
        <time>2026-03-25T11:31:33Z</time>
      </trkpt>
      <trkpt lat="44.68132" lon="6.86963">
        <ele>2531</ele>
        <time>2026-03-25T11:31:34Z</time>
      </trkpt>
      <trkpt lat="44.68132" lon="6.86963">
        <ele>2532.1</ele>
        <time>2026-03-25T11:31:35Z</time>
      </trkpt>
      <trkpt lat="44.68132" lon="6.86963">
        <ele>2532.1</ele>
        <time>2026-03-25T11:31:36Z</time>
      </trkpt>
      <trkpt lat="44.68132" lon="6.86963">
        <ele>2532.1</ele>
        <time>2026-03-25T11:31:37Z</time>
      </trkpt>
      <trkpt lat="44.68132" lon="6.86963">
        <ele>2532.1</ele>
        <time>2026-03-25T11:31:38Z</time>
      </trkpt>
      <trkpt lat="44.68132" lon="6.86963">
        <ele>2532.1</ele>
        <time>2026-03-25T11:31:39Z</time>
      </trkpt>
      <trkpt lat="44.68132" lon="6.86963">
        <ele>2532.1</ele>
        <time>2026-03-25T11:31:40Z</time>
      </trkpt>
      <trkpt lat="44.68132" lon="6.86963">
        <ele>2532.1</ele>
        <time>2026-03-25T11:31:41Z</time>
      </trkpt>
      <trkpt lat="44.68132" lon="6.86963">
        <ele>2532.1</ele>
        <time>2026-03-25T11:31:42Z</time>
      </trkpt>
      <trkpt lat="44.68132" lon="6.86963">
        <ele>2532.1</ele>
        <time>2026-03-25T11:31:43Z</time>
      </trkpt>
      <trkpt lat="44.68132" lon="6.86963">
        <ele>2532.1</ele>
        <time>2026-03-25T11:31:44Z</time>
      </trkpt>
      <trkpt lat="44.68132" lon="6.86963">
        <ele>2532.1</ele>
        <time>2026-03-25T11:31:45Z</time>
      </trkpt>
      <trkpt lat="44.68132" lon="6.86963">
        <ele>2532.1</ele>
        <time>2026-03-25T11:31:46Z</time>
      </trkpt>
      <trkpt lat="44.68132" lon="6.86963">
        <ele>2532.1</ele>
        <time>2026-03-25T11:31:47Z</time>
      </trkpt>
      <trkpt lat="44.68132" lon="6.86963">
        <ele>2532.1</ele>
        <time>2026-03-25T11:31:48Z</time>
      </trkpt>
      <trkpt lat="44.68132" lon="6.86963">
        <ele>2532.1</ele>
        <time>2026-03-25T11:31:49Z</time>
      </trkpt>
      <trkpt lat="44.68132" lon="6.86963">
        <ele>2532.1</ele>
        <time>2026-03-25T11:31:50Z</time>
      </trkpt>
      <trkpt lat="44.68132" lon="6.86963">
        <ele>2532.1</ele>
        <time>2026-03-25T11:31:51Z</time>
      </trkpt>
      <trkpt lat="44.68132" lon="6.86963">
        <ele>2532.1</ele>
        <time>2026-03-25T11:31:52Z</time>
      </trkpt>
      <trkpt lat="44.68132" lon="6.86963">
        <ele>2532.1</ele>
        <time>2026-03-25T11:31:53Z</time>
      </trkpt>
      <trkpt lat="44.68132" lon="6.86963">
        <ele>2532.1</ele>
        <time>2026-03-25T11:31:54Z</time>
      </trkpt>
      <trkpt lat="44.68132" lon="6.86963">
        <ele>2532.1</ele>
        <time>2026-03-25T11:31:55Z</time>
      </trkpt>
      <trkpt lat="44.68132" lon="6.86963">
        <ele>2532.1</ele>
        <time>2026-03-25T11:31:56Z</time>
      </trkpt>
      <trkpt lat="44.68132" lon="6.86963">
        <ele>2532.1</ele>
        <time>2026-03-25T11:31:57Z</time>
      </trkpt>
      <trkpt lat="44.68132" lon="6.86963">
        <ele>2532.1</ele>
        <time>2026-03-25T11:31:58Z</time>
      </trkpt>
      <trkpt lat="44.68132" lon="6.86963">
        <ele>2532.1</ele>
        <time>2026-03-25T11:31:59Z</time>
      </trkpt>
      <trkpt lat="44.68132" lon="6.86963">
        <ele>2532.1</ele>
        <time>2026-03-25T11:32:00Z</time>
      </trkpt>
      <trkpt lat="44.68132" lon="6.86963">
        <ele>2532.1</ele>
        <time>2026-03-25T11:32:01Z</time>
      </trkpt>
      <trkpt lat="44.68132" lon="6.86963">
        <ele>2532.1</ele>
        <time>2026-03-25T11:32:02Z</time>
      </trkpt>
      <trkpt lat="44.68132" lon="6.86963">
        <ele>2532.1</ele>
        <time>2026-03-25T11:32:03Z</time>
      </trkpt>
      <trkpt lat="44.68132" lon="6.86963">
        <ele>2532.1</ele>
        <time>2026-03-25T11:32:04Z</time>
      </trkpt>
      <trkpt lat="44.68132" lon="6.86963">
        <ele>2532.1</ele>
        <time>2026-03-25T11:32:05Z</time>
      </trkpt>
      <trkpt lat="44.68132" lon="6.86963">
        <ele>2532.1</ele>
        <time>2026-03-25T11:32:06Z</time>
      </trkpt>
      <trkpt lat="44.68132" lon="6.86963">
        <ele>2532.1</ele>
        <time>2026-03-25T11:32:07Z</time>
      </trkpt>
      <trkpt lat="44.68132" lon="6.86963">
        <ele>2532.1</ele>
        <time>2026-03-25T11:32:08Z</time>
      </trkpt>
      <trkpt lat="44.68132" lon="6.86963">
        <ele>2532.1</ele>
        <time>2026-03-25T11:32:09Z</time>
      </trkpt>
      <trkpt lat="44.68132" lon="6.86963">
        <ele>2532.1</ele>
        <time>2026-03-25T11:32:10Z</time>
      </trkpt>
      <trkpt lat="44.68132" lon="6.86963">
        <ele>2532.1</ele>
        <time>2026-03-25T11:32:11Z</time>
      </trkpt>
      <trkpt lat="44.68132" lon="6.86963">
        <ele>2532.1</ele>
        <time>2026-03-25T11:32:12Z</time>
      </trkpt>
      <trkpt lat="44.68132" lon="6.86963">
        <ele>2532.1</ele>
        <time>2026-03-25T11:32:13Z</time>
      </trkpt>
      <trkpt lat="44.68132" lon="6.86963">
        <ele>2532.1</ele>
        <time>2026-03-25T11:32:14Z</time>
      </trkpt>
      <trkpt lat="44.68132" lon="6.86963">
        <ele>2532.1</ele>
        <time>2026-03-25T11:32:15Z</time>
      </trkpt>
      <trkpt lat="44.68132" lon="6.86963">
        <ele>2532.1</ele>
        <time>2026-03-25T11:32:16Z</time>
      </trkpt>
      <trkpt lat="44.68132" lon="6.86963">
        <ele>2532.1</ele>
        <time>2026-03-25T11:32:17Z</time>
      </trkpt>
      <trkpt lat="44.68132" lon="6.86963">
        <ele>2532.1</ele>
        <time>2026-03-25T11:32:18Z</time>
      </trkpt>
      <trkpt lat="44.68132" lon="6.86963">
        <ele>2532.1</ele>
        <time>2026-03-25T11:32:19Z</time>
      </trkpt>
      <trkpt lat="44.68132" lon="6.86963">
        <ele>2532.1</ele>
        <time>2026-03-25T11:32:20Z</time>
      </trkpt>
      <trkpt lat="44.68132" lon="6.86963">
        <ele>2532.1</ele>
        <time>2026-03-25T11:32:21Z</time>
      </trkpt>
      <trkpt lat="44.68132" lon="6.86963">
        <ele>2532.1</ele>
        <time>2026-03-25T11:32:22Z</time>
      </trkpt>
      <trkpt lat="44.68132" lon="6.86963">
        <ele>2532.1</ele>
        <time>2026-03-25T11:32:23Z</time>
      </trkpt>
      <trkpt lat="44.68132" lon="6.86963">
        <ele>2532.1</ele>
        <time>2026-03-25T11:32:24Z</time>
      </trkpt>
      <trkpt lat="44.68132" lon="6.86963">
        <ele>2532.1</ele>
        <time>2026-03-25T11:32:25Z</time>
      </trkpt>
      <trkpt lat="44.68132" lon="6.86963">
        <ele>2532.1</ele>
        <time>2026-03-25T11:32:26Z</time>
      </trkpt>
      <trkpt lat="44.68132" lon="6.86963">
        <ele>2532.1</ele>
        <time>2026-03-25T11:32:27Z</time>
      </trkpt>
      <trkpt lat="44.68132" lon="6.86963">
        <ele>2532.1</ele>
        <time>2026-03-25T11:32:28Z</time>
      </trkpt>
      <trkpt lat="44.68132" lon="6.86963">
        <ele>2532.1</ele>
        <time>2026-03-25T11:32:29Z</time>
      </trkpt>
      <trkpt lat="44.68132" lon="6.86963">
        <ele>2532</ele>
        <time>2026-03-25T11:32:30Z</time>
      </trkpt>
      <trkpt lat="44.68132" lon="6.86963">
        <ele>2532</ele>
        <time>2026-03-25T11:32:31Z</time>
      </trkpt>
      <trkpt lat="44.68132" lon="6.86963">
        <ele>2532</ele>
        <time>2026-03-25T11:32:32Z</time>
      </trkpt>
      <trkpt lat="44.68132" lon="6.86963">
        <ele>2532</ele>
        <time>2026-03-25T11:32:33Z</time>
      </trkpt>
      <trkpt lat="44.68132" lon="6.86963">
        <ele>2532</ele>
        <time>2026-03-25T11:32:34Z</time>
      </trkpt>
      <trkpt lat="44.68132" lon="6.86962">
        <ele>2532</ele>
        <time>2026-03-25T11:32:35Z</time>
      </trkpt>
      <trkpt lat="44.68132" lon="6.86962">
        <ele>2532</ele>
        <time>2026-03-25T11:32:36Z</time>
      </trkpt>
      <trkpt lat="44.68132" lon="6.86962">
        <ele>2532</ele>
        <time>2026-03-25T11:32:37Z</time>
      </trkpt>
      <trkpt lat="44.68132" lon="6.86962">
        <ele>2532</ele>
        <time>2026-03-25T11:32:38Z</time>
      </trkpt>
      <trkpt lat="44.68132" lon="6.86962">
        <ele>2532</ele>
        <time>2026-03-25T11:32:39Z</time>
      </trkpt>
      <trkpt lat="44.68132" lon="6.86962">
        <ele>2532</ele>
        <time>2026-03-25T11:32:40Z</time>
      </trkpt>
      <trkpt lat="44.68132" lon="6.86962">
        <ele>2532</ele>
        <time>2026-03-25T11:32:41Z</time>
      </trkpt>
      <trkpt lat="44.68132" lon="6.86962">
        <ele>2532</ele>
        <time>2026-03-25T11:32:42Z</time>
      </trkpt>
      <trkpt lat="44.68132" lon="6.86962">
        <ele>2532</ele>
        <time>2026-03-25T11:32:43Z</time>
      </trkpt>
      <trkpt lat="44.68132" lon="6.86962">
        <ele>2532</ele>
        <time>2026-03-25T11:32:44Z</time>
      </trkpt>
      <trkpt lat="44.68132" lon="6.86962">
        <ele>2532</ele>
        <time>2026-03-25T11:32:45Z</time>
      </trkpt>
      <trkpt lat="44.68132" lon="6.86962">
        <ele>2532</ele>
        <time>2026-03-25T11:32:46Z</time>
      </trkpt>
      <trkpt lat="44.68132" lon="6.86962">
        <ele>2532</ele>
        <time>2026-03-25T11:32:47Z</time>
      </trkpt>
      <trkpt lat="44.68132" lon="6.86962">
        <ele>2532</ele>
        <time>2026-03-25T11:32:48Z</time>
      </trkpt>
      <trkpt lat="44.68132" lon="6.86962">
        <ele>2532</ele>
        <time>2026-03-25T11:32:49Z</time>
      </trkpt>
      <trkpt lat="44.68132" lon="6.86962">
        <ele>2532</ele>
        <time>2026-03-25T11:32:50Z</time>
      </trkpt>
      <trkpt lat="44.68132" lon="6.86962">
        <ele>2532</ele>
        <time>2026-03-25T11:32:51Z</time>
      </trkpt>
      <trkpt lat="44.68132" lon="6.86962">
        <ele>2532</ele>
        <time>2026-03-25T11:32:52Z</time>
      </trkpt>
      <trkpt lat="44.68132" lon="6.86962">
        <ele>2532</ele>
        <time>2026-03-25T11:32:53Z</time>
      </trkpt>
      <trkpt lat="44.68132" lon="6.86962">
        <ele>2532</ele>
        <time>2026-03-25T11:32:54Z</time>
      </trkpt>
      <trkpt lat="44.68132" lon="6.86962">
        <ele>2532</ele>
        <time>2026-03-25T11:32:55Z</time>
      </trkpt>
      <trkpt lat="44.68132" lon="6.86962">
        <ele>2532</ele>
        <time>2026-03-25T11:32:56Z</time>
      </trkpt>
      <trkpt lat="44.68132" lon="6.86962">
        <ele>2532</ele>
        <time>2026-03-25T11:32:57Z</time>
      </trkpt>
      <trkpt lat="44.68132" lon="6.86962">
        <ele>2532</ele>
        <time>2026-03-25T11:32:58Z</time>
      </trkpt>
      <trkpt lat="44.68132" lon="6.86962">
        <ele>2532</ele>
        <time>2026-03-25T11:32:59Z</time>
      </trkpt>
      <trkpt lat="44.68132" lon="6.86962">
        <ele>2532</ele>
        <time>2026-03-25T11:33:00Z</time>
      </trkpt>
      <trkpt lat="44.68132" lon="6.86962">
        <ele>2532</ele>
        <time>2026-03-25T11:33:01Z</time>
      </trkpt>
      <trkpt lat="44.68132" lon="6.86962">
        <ele>2532</ele>
        <time>2026-03-25T11:33:02Z</time>
      </trkpt>
      <trkpt lat="44.68132" lon="6.86962">
        <ele>2532</ele>
        <time>2026-03-25T11:33:03Z</time>
      </trkpt>
      <trkpt lat="44.68132" lon="6.86962">
        <ele>2532</ele>
        <time>2026-03-25T11:33:04Z</time>
      </trkpt>
      <trkpt lat="44.68132" lon="6.86962">
        <ele>2532</ele>
        <time>2026-03-25T11:33:05Z</time>
      </trkpt>
      <trkpt lat="44.68132" lon="6.86962">
        <ele>2532</ele>
        <time>2026-03-25T11:33:06Z</time>
      </trkpt>
      <trkpt lat="44.68132" lon="6.86962">
        <ele>2532</ele>
        <time>2026-03-25T11:33:07Z</time>
      </trkpt>
      <trkpt lat="44.68132" lon="6.86962">
        <ele>2532</ele>
        <time>2026-03-25T11:33:08Z</time>
      </trkpt>
      <trkpt lat="44.68132" lon="6.86962">
        <ele>2532</ele>
        <time>2026-03-25T11:33:09Z</time>
      </trkpt>
      <trkpt lat="44.68132" lon="6.86962">
        <ele>2532</ele>
        <time>2026-03-25T11:33:10Z</time>
      </trkpt>
      <trkpt lat="44.68132" lon="6.86962">
        <ele>2532</ele>
        <time>2026-03-25T11:33:11Z</time>
      </trkpt>
      <trkpt lat="44.68133" lon="6.86962">
        <ele>2532</ele>
        <time>2026-03-25T11:33:12Z</time>
      </trkpt>
      <trkpt lat="44.68133" lon="6.86962">
        <ele>2532</ele>
        <time>2026-03-25T11:33:13Z</time>
      </trkpt>
      <trkpt lat="44.68133" lon="6.86962">
        <ele>2532</ele>
        <time>2026-03-25T11:33:14Z</time>
      </trkpt>
      <trkpt lat="44.68133" lon="6.86962">
        <ele>2532</ele>
        <time>2026-03-25T11:33:15Z</time>
      </trkpt>
      <trkpt lat="44.68133" lon="6.86962">
        <ele>2532</ele>
        <time>2026-03-25T11:33:16Z</time>
      </trkpt>
      <trkpt lat="44.68133" lon="6.86962">
        <ele>2532</ele>
        <time>2026-03-25T11:33:17Z</time>
      </trkpt>
      <trkpt lat="44.68133" lon="6.86962">
        <ele>2532</ele>
        <time>2026-03-25T11:33:18Z</time>
      </trkpt>
      <trkpt lat="44.68133" lon="6.86961">
        <ele>2532</ele>
        <time>2026-03-25T11:33:19Z</time>
      </trkpt>
      <trkpt lat="44.68133" lon="6.86961">
        <ele>2532</ele>
        <time>2026-03-25T11:33:20Z</time>
      </trkpt>
      <trkpt lat="44.68133" lon="6.86961">
        <ele>2532</ele>
        <time>2026-03-25T11:33:21Z</time>
      </trkpt>
      <trkpt lat="44.68133" lon="6.86961">
        <ele>2532</ele>
        <time>2026-03-25T11:33:22Z</time>
      </trkpt>
      <trkpt lat="44.68133" lon="6.86961">
        <ele>2532</ele>
        <time>2026-03-25T11:33:23Z</time>
      </trkpt>
      <trkpt lat="44.68133" lon="6.86961">
        <ele>2532</ele>
        <time>2026-03-25T11:33:24Z</time>
      </trkpt>
      <trkpt lat="44.68133" lon="6.86961">
        <ele>2532</ele>
        <time>2026-03-25T11:33:25Z</time>
      </trkpt>
      <trkpt lat="44.68133" lon="6.86961">
        <ele>2532</ele>
        <time>2026-03-25T11:33:26Z</time>
      </trkpt>
      <trkpt lat="44.68133" lon="6.86961">
        <ele>2532</ele>
        <time>2026-03-25T11:33:27Z</time>
      </trkpt>
      <trkpt lat="44.68133" lon="6.86961">
        <ele>2532</ele>
        <time>2026-03-25T11:33:28Z</time>
      </trkpt>
      <trkpt lat="44.68133" lon="6.86961">
        <ele>2532</ele>
        <time>2026-03-25T11:33:29Z</time>
      </trkpt>
      <trkpt lat="44.68133" lon="6.86961">
        <ele>2532</ele>
        <time>2026-03-25T11:33:30Z</time>
      </trkpt>
      <trkpt lat="44.68133" lon="6.86961">
        <ele>2532</ele>
        <time>2026-03-25T11:33:31Z</time>
      </trkpt>
      <trkpt lat="44.68133" lon="6.86961">
        <ele>2532</ele>
        <time>2026-03-25T11:33:32Z</time>
      </trkpt>
      <trkpt lat="44.68133" lon="6.86961">
        <ele>2532</ele>
        <time>2026-03-25T11:33:33Z</time>
      </trkpt>
      <trkpt lat="44.68133" lon="6.86961">
        <ele>2532</ele>
        <time>2026-03-25T11:33:34Z</time>
      </trkpt>
      <trkpt lat="44.68133" lon="6.86961">
        <ele>2532</ele>
        <time>2026-03-25T11:33:35Z</time>
      </trkpt>
      <trkpt lat="44.68133" lon="6.86961">
        <ele>2532</ele>
        <time>2026-03-25T11:33:36Z</time>
      </trkpt>
      <trkpt lat="44.68133" lon="6.86961">
        <ele>2532</ele>
        <time>2026-03-25T11:33:37Z</time>
      </trkpt>
      <trkpt lat="44.68133" lon="6.86961">
        <ele>2532</ele>
        <time>2026-03-25T11:33:38Z</time>
      </trkpt>
      <trkpt lat="44.68133" lon="6.86961">
        <ele>2532</ele>
        <time>2026-03-25T11:33:39Z</time>
      </trkpt>
      <trkpt lat="44.68133" lon="6.86961">
        <ele>2532</ele>
        <time>2026-03-25T11:33:40Z</time>
      </trkpt>
      <trkpt lat="44.68133" lon="6.86961">
        <ele>2531.9</ele>
        <time>2026-03-25T11:33:41Z</time>
      </trkpt>
      <trkpt lat="44.68133" lon="6.86961">
        <ele>2531.9</ele>
        <time>2026-03-25T11:33:42Z</time>
      </trkpt>
      <trkpt lat="44.68133" lon="6.86961">
        <ele>2531.9</ele>
        <time>2026-03-25T11:33:43Z</time>
      </trkpt>
      <trkpt lat="44.68133" lon="6.86961">
        <ele>2531.9</ele>
        <time>2026-03-25T11:33:44Z</time>
      </trkpt>
      <trkpt lat="44.68133" lon="6.86961">
        <ele>2531.9</ele>
        <time>2026-03-25T11:33:45Z</time>
      </trkpt>
      <trkpt lat="44.68133" lon="6.86961">
        <ele>2531.9</ele>
        <time>2026-03-25T11:33:46Z</time>
      </trkpt>
      <trkpt lat="44.68133" lon="6.86961">
        <ele>2531.9</ele>
        <time>2026-03-25T11:33:47Z</time>
      </trkpt>
      <trkpt lat="44.68133" lon="6.86961">
        <ele>2531.9</ele>
        <time>2026-03-25T11:33:48Z</time>
      </trkpt>
      <trkpt lat="44.68133" lon="6.86961">
        <ele>2531.9</ele>
        <time>2026-03-25T11:33:49Z</time>
      </trkpt>
      <trkpt lat="44.68133" lon="6.86961">
        <ele>2531.9</ele>
        <time>2026-03-25T11:33:50Z</time>
      </trkpt>
      <trkpt lat="44.68133" lon="6.86961">
        <ele>2531.9</ele>
        <time>2026-03-25T11:33:51Z</time>
      </trkpt>
      <trkpt lat="44.68133" lon="6.86961">
        <ele>2531.9</ele>
        <time>2026-03-25T11:33:52Z</time>
      </trkpt>
      <trkpt lat="44.68133" lon="6.86961">
        <ele>2531.9</ele>
        <time>2026-03-25T11:33:53Z</time>
      </trkpt>
      <trkpt lat="44.68133" lon="6.86962">
        <ele>2531.9</ele>
        <time>2026-03-25T11:33:54Z</time>
      </trkpt>
      <trkpt lat="44.68133" lon="6.86962">
        <ele>2531.9</ele>
        <time>2026-03-25T11:33:55Z</time>
      </trkpt>
      <trkpt lat="44.68133" lon="6.86962">
        <ele>2531.9</ele>
        <time>2026-03-25T11:33:56Z</time>
      </trkpt>
      <trkpt lat="44.68133" lon="6.86962">
        <ele>2531.9</ele>
        <time>2026-03-25T11:33:57Z</time>
      </trkpt>
      <trkpt lat="44.68133" lon="6.86962">
        <ele>2531.9</ele>
        <time>2026-03-25T11:33:58Z</time>
      </trkpt>
      <trkpt lat="44.68133" lon="6.86962">
        <ele>2531.9</ele>
        <time>2026-03-25T11:33:59Z</time>
      </trkpt>
      <trkpt lat="44.68133" lon="6.86962">
        <ele>2531.9</ele>
        <time>2026-03-25T11:34:00Z</time>
      </trkpt>
      <trkpt lat="44.68133" lon="6.86962">
        <ele>2531.9</ele>
        <time>2026-03-25T11:34:01Z</time>
      </trkpt>
      <trkpt lat="44.68133" lon="6.86962">
        <ele>2531.9</ele>
        <time>2026-03-25T11:34:02Z</time>
      </trkpt>
      <trkpt lat="44.68133" lon="6.86962">
        <ele>2531.9</ele>
        <time>2026-03-25T11:34:03Z</time>
      </trkpt>
      <trkpt lat="44.68133" lon="6.86962">
        <ele>2531.9</ele>
        <time>2026-03-25T11:34:04Z</time>
      </trkpt>
      <trkpt lat="44.68133" lon="6.86962">
        <ele>2531.9</ele>
        <time>2026-03-25T11:34:05Z</time>
      </trkpt>
      <trkpt lat="44.68133" lon="6.86962">
        <ele>2531.9</ele>
        <time>2026-03-25T11:34:06Z</time>
      </trkpt>
      <trkpt lat="44.68133" lon="6.86962">
        <ele>2531.9</ele>
        <time>2026-03-25T11:34:07Z</time>
      </trkpt>
      <trkpt lat="44.68133" lon="6.86962">
        <ele>2531.9</ele>
        <time>2026-03-25T11:34:08Z</time>
      </trkpt>
      <trkpt lat="44.68133" lon="6.86962">
        <ele>2531.9</ele>
        <time>2026-03-25T11:34:09Z</time>
      </trkpt>
      <trkpt lat="44.68133" lon="6.86962">
        <ele>2531.9</ele>
        <time>2026-03-25T11:34:10Z</time>
      </trkpt>
      <trkpt lat="44.68133" lon="6.86962">
        <ele>2531.9</ele>
        <time>2026-03-25T11:34:11Z</time>
      </trkpt>
      <trkpt lat="44.68133" lon="6.86962">
        <ele>2531.9</ele>
        <time>2026-03-25T11:34:12Z</time>
      </trkpt>
      <trkpt lat="44.68133" lon="6.86962">
        <ele>2531.9</ele>
        <time>2026-03-25T11:34:13Z</time>
      </trkpt>
      <trkpt lat="44.68133" lon="6.86962">
        <ele>2531.9</ele>
        <time>2026-03-25T11:34:14Z</time>
      </trkpt>
      <trkpt lat="44.68133" lon="6.86962">
        <ele>2531.9</ele>
        <time>2026-03-25T11:34:15Z</time>
      </trkpt>
      <trkpt lat="44.68133" lon="6.86962">
        <ele>2531.9</ele>
        <time>2026-03-25T11:34:16Z</time>
      </trkpt>
      <trkpt lat="44.68133" lon="6.86962">
        <ele>2531.9</ele>
        <time>2026-03-25T11:34:17Z</time>
      </trkpt>
      <trkpt lat="44.68133" lon="6.86962">
        <ele>2531.9</ele>
        <time>2026-03-25T11:34:18Z</time>
      </trkpt>
      <trkpt lat="44.68133" lon="6.86962">
        <ele>2531.9</ele>
        <time>2026-03-25T11:34:19Z</time>
      </trkpt>
      <trkpt lat="44.68133" lon="6.86962">
        <ele>2531.9</ele>
        <time>2026-03-25T11:34:20Z</time>
      </trkpt>
      <trkpt lat="44.68133" lon="6.86962">
        <ele>2531.9</ele>
        <time>2026-03-25T11:34:21Z</time>
      </trkpt>
      <trkpt lat="44.68133" lon="6.86962">
        <ele>2531.9</ele>
        <time>2026-03-25T11:34:22Z</time>
      </trkpt>
      <trkpt lat="44.68133" lon="6.86962">
        <ele>2531.9</ele>
        <time>2026-03-25T11:34:23Z</time>
      </trkpt>
      <trkpt lat="44.68133" lon="6.86962">
        <ele>2531.9</ele>
        <time>2026-03-25T11:34:24Z</time>
      </trkpt>
      <trkpt lat="44.68133" lon="6.86962">
        <ele>2531.9</ele>
        <time>2026-03-25T11:34:25Z</time>
      </trkpt>
      <trkpt lat="44.68133" lon="6.86962">
        <ele>2531.9</ele>
        <time>2026-03-25T11:34:26Z</time>
      </trkpt>
      <trkpt lat="44.68133" lon="6.86962">
        <ele>2531.9</ele>
        <time>2026-03-25T11:34:27Z</time>
      </trkpt>
      <trkpt lat="44.68133" lon="6.86962">
        <ele>2531.9</ele>
        <time>2026-03-25T11:34:28Z</time>
      </trkpt>
      <trkpt lat="44.68133" lon="6.86962">
        <ele>2531.9</ele>
        <time>2026-03-25T11:34:29Z</time>
      </trkpt>
      <trkpt lat="44.68133" lon="6.86962">
        <ele>2531.9</ele>
        <time>2026-03-25T11:34:30Z</time>
      </trkpt>
      <trkpt lat="44.68133" lon="6.86962">
        <ele>2531.9</ele>
        <time>2026-03-25T11:34:31Z</time>
      </trkpt>
      <trkpt lat="44.68133" lon="6.86962">
        <ele>2531.9</ele>
        <time>2026-03-25T11:34:32Z</time>
      </trkpt>
      <trkpt lat="44.68133" lon="6.86962">
        <ele>2531.9</ele>
        <time>2026-03-25T11:34:33Z</time>
      </trkpt>
      <trkpt lat="44.68133" lon="6.86962">
        <ele>2531.9</ele>
        <time>2026-03-25T11:34:34Z</time>
      </trkpt>
      <trkpt lat="44.68133" lon="6.86962">
        <ele>2531.9</ele>
        <time>2026-03-25T11:34:35Z</time>
      </trkpt>
      <trkpt lat="44.68133" lon="6.86962">
        <ele>2531.9</ele>
        <time>2026-03-25T11:34:36Z</time>
      </trkpt>
      <trkpt lat="44.68133" lon="6.86962">
        <ele>2531.9</ele>
        <time>2026-03-25T11:34:37Z</time>
      </trkpt>
      <trkpt lat="44.68133" lon="6.86962">
        <ele>2531.9</ele>
        <time>2026-03-25T11:34:38Z</time>
      </trkpt>
      <trkpt lat="44.68133" lon="6.86962">
        <ele>2531.9</ele>
        <time>2026-03-25T11:34:39Z</time>
      </trkpt>
      <trkpt lat="44.68133" lon="6.86962">
        <ele>2531.9</ele>
        <time>2026-03-25T11:34:40Z</time>
      </trkpt>
      <trkpt lat="44.68133" lon="6.86962">
        <ele>2531.9</ele>
        <time>2026-03-25T11:34:41Z</time>
      </trkpt>
      <trkpt lat="44.68133" lon="6.86962">
        <ele>2531.9</ele>
        <time>2026-03-25T11:34:42Z</time>
      </trkpt>
      <trkpt lat="44.68133" lon="6.86962">
        <ele>2531.9</ele>
        <time>2026-03-25T11:34:43Z</time>
      </trkpt>
      <trkpt lat="44.68133" lon="6.86962">
        <ele>2531.9</ele>
        <time>2026-03-25T11:34:44Z</time>
      </trkpt>
      <trkpt lat="44.68133" lon="6.86962">
        <ele>2531.9</ele>
        <time>2026-03-25T11:34:45Z</time>
      </trkpt>
      <trkpt lat="44.68133" lon="6.86962">
        <ele>2531.9</ele>
        <time>2026-03-25T11:34:46Z</time>
      </trkpt>
      <trkpt lat="44.68133" lon="6.86962">
        <ele>2531.9</ele>
        <time>2026-03-25T11:34:47Z</time>
      </trkpt>
      <trkpt lat="44.68133" lon="6.86962">
        <ele>2531.9</ele>
        <time>2026-03-25T11:34:48Z</time>
      </trkpt>
      <trkpt lat="44.68133" lon="6.86962">
        <ele>2531.9</ele>
        <time>2026-03-25T11:34:49Z</time>
      </trkpt>
      <trkpt lat="44.68133" lon="6.86962">
        <ele>2531.9</ele>
        <time>2026-03-25T11:34:50Z</time>
      </trkpt>
      <trkpt lat="44.68133" lon="6.86962">
        <ele>2531.9</ele>
        <time>2026-03-25T11:34:51Z</time>
      </trkpt>
      <trkpt lat="44.68133" lon="6.86962">
        <ele>2531.9</ele>
        <time>2026-03-25T11:34:52Z</time>
      </trkpt>
      <trkpt lat="44.68133" lon="6.86962">
        <ele>2531.8</ele>
        <time>2026-03-25T11:34:53Z</time>
      </trkpt>
      <trkpt lat="44.68133" lon="6.86962">
        <ele>2531.8</ele>
        <time>2026-03-25T11:34:54Z</time>
      </trkpt>
      <trkpt lat="44.68133" lon="6.86962">
        <ele>2531.8</ele>
        <time>2026-03-25T11:34:55Z</time>
      </trkpt>
      <trkpt lat="44.68133" lon="6.86962">
        <ele>2531.8</ele>
        <time>2026-03-25T11:34:56Z</time>
      </trkpt>
      <trkpt lat="44.68133" lon="6.86962">
        <ele>2531.8</ele>
        <time>2026-03-25T11:34:57Z</time>
      </trkpt>
      <trkpt lat="44.68133" lon="6.86962">
        <ele>2531.8</ele>
        <time>2026-03-25T11:34:58Z</time>
      </trkpt>
      <trkpt lat="44.68133" lon="6.86961">
        <ele>2531.8</ele>
        <time>2026-03-25T11:34:59Z</time>
      </trkpt>
      <trkpt lat="44.68133" lon="6.86961">
        <ele>2531.8</ele>
        <time>2026-03-25T11:35:00Z</time>
      </trkpt>
      <trkpt lat="44.68133" lon="6.86961">
        <ele>2531.8</ele>
        <time>2026-03-25T11:35:01Z</time>
      </trkpt>
      <trkpt lat="44.68133" lon="6.86961">
        <ele>2531.8</ele>
        <time>2026-03-25T11:35:02Z</time>
      </trkpt>
      <trkpt lat="44.68133" lon="6.86961">
        <ele>2531.8</ele>
        <time>2026-03-25T11:35:03Z</time>
      </trkpt>
      <trkpt lat="44.68133" lon="6.86961">
        <ele>2531.8</ele>
        <time>2026-03-25T11:35:04Z</time>
      </trkpt>
      <trkpt lat="44.68133" lon="6.86961">
        <ele>2531.8</ele>
        <time>2026-03-25T11:35:05Z</time>
      </trkpt>
      <trkpt lat="44.68133" lon="6.86961">
        <ele>2531.8</ele>
        <time>2026-03-25T11:35:06Z</time>
      </trkpt>
      <trkpt lat="44.68133" lon="6.86961">
        <ele>2531.8</ele>
        <time>2026-03-25T11:35:07Z</time>
      </trkpt>
      <trkpt lat="44.68133" lon="6.86961">
        <ele>2531.8</ele>
        <time>2026-03-25T11:35:08Z</time>
      </trkpt>
      <trkpt lat="44.68133" lon="6.86961">
        <ele>2531.8</ele>
        <time>2026-03-25T11:35:09Z</time>
      </trkpt>
      <trkpt lat="44.68133" lon="6.86961">
        <ele>2531.8</ele>
        <time>2026-03-25T11:35:10Z</time>
      </trkpt>
      <trkpt lat="44.68133" lon="6.86961">
        <ele>2531.8</ele>
        <time>2026-03-25T11:35:11Z</time>
      </trkpt>
      <trkpt lat="44.68133" lon="6.86961">
        <ele>2531.8</ele>
        <time>2026-03-25T11:35:12Z</time>
      </trkpt>
      <trkpt lat="44.68133" lon="6.86962">
        <ele>2531.8</ele>
        <time>2026-03-25T11:35:13Z</time>
      </trkpt>
      <trkpt lat="44.68133" lon="6.86962">
        <ele>2531.8</ele>
        <time>2026-03-25T11:35:14Z</time>
      </trkpt>
      <trkpt lat="44.68133" lon="6.86962">
        <ele>2531.8</ele>
        <time>2026-03-25T11:35:15Z</time>
      </trkpt>
      <trkpt lat="44.68133" lon="6.86962">
        <ele>2531.8</ele>
        <time>2026-03-25T11:35:16Z</time>
      </trkpt>
      <trkpt lat="44.68133" lon="6.86962">
        <ele>2531.8</ele>
        <time>2026-03-25T11:35:17Z</time>
      </trkpt>
      <trkpt lat="44.68133" lon="6.86962">
        <ele>2531.8</ele>
        <time>2026-03-25T11:35:18Z</time>
      </trkpt>
      <trkpt lat="44.68133" lon="6.86962">
        <ele>2531.8</ele>
        <time>2026-03-25T11:35:19Z</time>
      </trkpt>
      <trkpt lat="44.68133" lon="6.86962">
        <ele>2531.8</ele>
        <time>2026-03-25T11:35:20Z</time>
      </trkpt>
      <trkpt lat="44.68133" lon="6.86962">
        <ele>2531.8</ele>
        <time>2026-03-25T11:35:21Z</time>
      </trkpt>
      <trkpt lat="44.68133" lon="6.86962">
        <ele>2531.8</ele>
        <time>2026-03-25T11:35:22Z</time>
      </trkpt>
      <trkpt lat="44.68133" lon="6.86962">
        <ele>2531.8</ele>
        <time>2026-03-25T11:35:23Z</time>
      </trkpt>
      <trkpt lat="44.68133" lon="6.86963">
        <ele>2531.8</ele>
        <time>2026-03-25T11:35:24Z</time>
      </trkpt>
      <trkpt lat="44.68133" lon="6.86963">
        <ele>2531.8</ele>
        <time>2026-03-25T11:35:25Z</time>
      </trkpt>
      <trkpt lat="44.68133" lon="6.86963">
        <ele>2531.8</ele>
        <time>2026-03-25T11:35:26Z</time>
      </trkpt>
      <trkpt lat="44.68133" lon="6.86963">
        <ele>2531.8</ele>
        <time>2026-03-25T11:35:27Z</time>
      </trkpt>
      <trkpt lat="44.68133" lon="6.86963">
        <ele>2531.8</ele>
        <time>2026-03-25T11:35:28Z</time>
      </trkpt>
      <trkpt lat="44.68133" lon="6.86963">
        <ele>2531.8</ele>
        <time>2026-03-25T11:35:29Z</time>
      </trkpt>
      <trkpt lat="44.68133" lon="6.86963">
        <ele>2531.8</ele>
        <time>2026-03-25T11:35:30Z</time>
      </trkpt>
      <trkpt lat="44.68133" lon="6.86963">
        <ele>2531.8</ele>
        <time>2026-03-25T11:35:31Z</time>
      </trkpt>
      <trkpt lat="44.68133" lon="6.86963">
        <ele>2531.8</ele>
        <time>2026-03-25T11:35:32Z</time>
      </trkpt>
      <trkpt lat="44.68133" lon="6.86963">
        <ele>2531.8</ele>
        <time>2026-03-25T11:35:33Z</time>
      </trkpt>
      <trkpt lat="44.68133" lon="6.86963">
        <ele>2531.8</ele>
        <time>2026-03-25T11:35:34Z</time>
      </trkpt>
      <trkpt lat="44.68133" lon="6.86963">
        <ele>2531.8</ele>
        <time>2026-03-25T11:35:35Z</time>
      </trkpt>
      <trkpt lat="44.68133" lon="6.86963">
        <ele>2531.8</ele>
        <time>2026-03-25T11:35:36Z</time>
      </trkpt>
      <trkpt lat="44.68133" lon="6.86963">
        <ele>2531.8</ele>
        <time>2026-03-25T11:35:37Z</time>
      </trkpt>
      <trkpt lat="44.68133" lon="6.86963">
        <ele>2531.8</ele>
        <time>2026-03-25T11:35:38Z</time>
      </trkpt>
      <trkpt lat="44.68133" lon="6.86963">
        <ele>2531.8</ele>
        <time>2026-03-25T11:35:39Z</time>
      </trkpt>
      <trkpt lat="44.68133" lon="6.86963">
        <ele>2531.8</ele>
        <time>2026-03-25T11:35:40Z</time>
      </trkpt>
      <trkpt lat="44.68133" lon="6.86963">
        <ele>2531.8</ele>
        <time>2026-03-25T11:35:41Z</time>
      </trkpt>
      <trkpt lat="44.68133" lon="6.86963">
        <ele>2531.8</ele>
        <time>2026-03-25T11:35:42Z</time>
      </trkpt>
      <trkpt lat="44.68133" lon="6.86963">
        <ele>2531.8</ele>
        <time>2026-03-25T11:35:43Z</time>
      </trkpt>
      <trkpt lat="44.68133" lon="6.86963">
        <ele>2531.8</ele>
        <time>2026-03-25T11:35:44Z</time>
      </trkpt>
      <trkpt lat="44.68133" lon="6.86963">
        <ele>2531.8</ele>
        <time>2026-03-25T11:35:45Z</time>
      </trkpt>
      <trkpt lat="44.68133" lon="6.86962">
        <ele>2531.8</ele>
        <time>2026-03-25T11:35:46Z</time>
      </trkpt>
      <trkpt lat="44.68133" lon="6.86962">
        <ele>2531.8</ele>
        <time>2026-03-25T11:35:47Z</time>
      </trkpt>
      <trkpt lat="44.68133" lon="6.86962">
        <ele>2531.8</ele>
        <time>2026-03-25T11:35:48Z</time>
      </trkpt>
      <trkpt lat="44.68133" lon="6.86962">
        <ele>2531.8</ele>
        <time>2026-03-25T11:35:49Z</time>
      </trkpt>
      <trkpt lat="44.68133" lon="6.86962">
        <ele>2531.8</ele>
        <time>2026-03-25T11:35:50Z</time>
      </trkpt>
      <trkpt lat="44.68133" lon="6.86962">
        <ele>2531.8</ele>
        <time>2026-03-25T11:35:51Z</time>
      </trkpt>
      <trkpt lat="44.68133" lon="6.86962">
        <ele>2531.8</ele>
        <time>2026-03-25T11:35:52Z</time>
      </trkpt>
      <trkpt lat="44.68133" lon="6.86962">
        <ele>2531.8</ele>
        <time>2026-03-25T11:35:53Z</time>
      </trkpt>
      <trkpt lat="44.68133" lon="6.86962">
        <ele>2531.8</ele>
        <time>2026-03-25T11:35:54Z</time>
      </trkpt>
      <trkpt lat="44.68133" lon="6.86963">
        <ele>2531.8</ele>
        <time>2026-03-25T11:35:55Z</time>
      </trkpt>
      <trkpt lat="44.68133" lon="6.86963">
        <ele>2531.8</ele>
        <time>2026-03-25T11:35:56Z</time>
      </trkpt>
      <trkpt lat="44.68133" lon="6.86963">
        <ele>2531.8</ele>
        <time>2026-03-25T11:35:57Z</time>
      </trkpt>
      <trkpt lat="44.68133" lon="6.86963">
        <ele>2531.8</ele>
        <time>2026-03-25T11:35:58Z</time>
      </trkpt>
      <trkpt lat="44.68133" lon="6.86963">
        <ele>2531.8</ele>
        <time>2026-03-25T11:35:59Z</time>
      </trkpt>
      <trkpt lat="44.68133" lon="6.86963">
        <ele>2531.8</ele>
        <time>2026-03-25T11:36:00Z</time>
      </trkpt>
      <trkpt lat="44.68133" lon="6.86963">
        <ele>2531.8</ele>
        <time>2026-03-25T11:36:01Z</time>
      </trkpt>
      <trkpt lat="44.68133" lon="6.86963">
        <ele>2531.8</ele>
        <time>2026-03-25T11:36:02Z</time>
      </trkpt>
      <trkpt lat="44.68133" lon="6.86963">
        <ele>2531.8</ele>
        <time>2026-03-25T11:36:03Z</time>
      </trkpt>
      <trkpt lat="44.68133" lon="6.86963">
        <ele>2531.8</ele>
        <time>2026-03-25T11:36:04Z</time>
      </trkpt>
      <trkpt lat="44.68133" lon="6.86963">
        <ele>2531.7</ele>
        <time>2026-03-25T11:36:05Z</time>
      </trkpt>
      <trkpt lat="44.68133" lon="6.86963">
        <ele>2531.7</ele>
        <time>2026-03-25T11:36:06Z</time>
      </trkpt>
      <trkpt lat="44.68133" lon="6.86963">
        <ele>2531.7</ele>
        <time>2026-03-25T11:36:07Z</time>
      </trkpt>
      <trkpt lat="44.68133" lon="6.86963">
        <ele>2531.7</ele>
        <time>2026-03-25T11:36:08Z</time>
      </trkpt>
      <trkpt lat="44.68132" lon="6.86963">
        <ele>2531.7</ele>
        <time>2026-03-25T11:36:09Z</time>
      </trkpt>
      <trkpt lat="44.68132" lon="6.86963">
        <ele>2531.7</ele>
        <time>2026-03-25T11:36:10Z</time>
      </trkpt>
      <trkpt lat="44.68132" lon="6.86963">
        <ele>2531.7</ele>
        <time>2026-03-25T11:36:11Z</time>
      </trkpt>
      <trkpt lat="44.68132" lon="6.86963">
        <ele>2531.7</ele>
        <time>2026-03-25T11:36:12Z</time>
      </trkpt>
      <trkpt lat="44.68132" lon="6.86963">
        <ele>2531.7</ele>
        <time>2026-03-25T11:36:13Z</time>
      </trkpt>
      <trkpt lat="44.68132" lon="6.86963">
        <ele>2531.7</ele>
        <time>2026-03-25T11:36:14Z</time>
      </trkpt>
      <trkpt lat="44.68132" lon="6.86963">
        <ele>2531.7</ele>
        <time>2026-03-25T11:36:15Z</time>
      </trkpt>
      <trkpt lat="44.68132" lon="6.86963">
        <ele>2531.7</ele>
        <time>2026-03-25T11:36:16Z</time>
      </trkpt>
      <trkpt lat="44.68132" lon="6.86963">
        <ele>2531.7</ele>
        <time>2026-03-25T11:36:17Z</time>
      </trkpt>
      <trkpt lat="44.68132" lon="6.86963">
        <ele>2531.7</ele>
        <time>2026-03-25T11:36:18Z</time>
      </trkpt>
      <trkpt lat="44.68132" lon="6.86963">
        <ele>2531.7</ele>
        <time>2026-03-25T11:36:19Z</time>
      </trkpt>
      <trkpt lat="44.68132" lon="6.86963">
        <ele>2531.7</ele>
        <time>2026-03-25T11:36:20Z</time>
      </trkpt>
      <trkpt lat="44.68132" lon="6.86963">
        <ele>2531.7</ele>
        <time>2026-03-25T11:36:21Z</time>
      </trkpt>
      <trkpt lat="44.68132" lon="6.86963">
        <ele>2531.7</ele>
        <time>2026-03-25T11:36:22Z</time>
      </trkpt>
      <trkpt lat="44.68132" lon="6.86963">
        <ele>2531.7</ele>
        <time>2026-03-25T11:36:23Z</time>
      </trkpt>
      <trkpt lat="44.68132" lon="6.86963">
        <ele>2531.7</ele>
        <time>2026-03-25T11:36:24Z</time>
      </trkpt>
      <trkpt lat="44.68132" lon="6.86963">
        <ele>2531.7</ele>
        <time>2026-03-25T11:36:25Z</time>
      </trkpt>
      <trkpt lat="44.68132" lon="6.86963">
        <ele>2531.7</ele>
        <time>2026-03-25T11:36:26Z</time>
      </trkpt>
      <trkpt lat="44.68132" lon="6.86963">
        <ele>2531.7</ele>
        <time>2026-03-25T11:36:27Z</time>
      </trkpt>
      <trkpt lat="44.68132" lon="6.86963">
        <ele>2531.7</ele>
        <time>2026-03-25T11:36:28Z</time>
      </trkpt>
      <trkpt lat="44.68132" lon="6.86963">
        <ele>2531.7</ele>
        <time>2026-03-25T11:36:29Z</time>
      </trkpt>
      <trkpt lat="44.68132" lon="6.86963">
        <ele>2531.7</ele>
        <time>2026-03-25T11:36:30Z</time>
      </trkpt>
      <trkpt lat="44.68132" lon="6.86963">
        <ele>2531.7</ele>
        <time>2026-03-25T11:36:31Z</time>
      </trkpt>
      <trkpt lat="44.68132" lon="6.86963">
        <ele>2531.7</ele>
        <time>2026-03-25T11:36:32Z</time>
      </trkpt>
      <trkpt lat="44.68132" lon="6.86963">
        <ele>2531.7</ele>
        <time>2026-03-25T11:36:33Z</time>
      </trkpt>
      <trkpt lat="44.68132" lon="6.86963">
        <ele>2531.7</ele>
        <time>2026-03-25T11:36:34Z</time>
      </trkpt>
      <trkpt lat="44.68132" lon="6.86963">
        <ele>2531.7</ele>
        <time>2026-03-25T11:36:35Z</time>
      </trkpt>
      <trkpt lat="44.68132" lon="6.86963">
        <ele>2531.7</ele>
        <time>2026-03-25T11:36:36Z</time>
      </trkpt>
      <trkpt lat="44.68132" lon="6.86963">
        <ele>2531.7</ele>
        <time>2026-03-25T11:36:37Z</time>
      </trkpt>
      <trkpt lat="44.68132" lon="6.86963">
        <ele>2531.7</ele>
        <time>2026-03-25T11:36:38Z</time>
      </trkpt>
      <trkpt lat="44.68132" lon="6.86963">
        <ele>2531.7</ele>
        <time>2026-03-25T11:36:39Z</time>
      </trkpt>
      <trkpt lat="44.68132" lon="6.86963">
        <ele>2531.7</ele>
        <time>2026-03-25T11:36:40Z</time>
      </trkpt>
      <trkpt lat="44.68132" lon="6.86963">
        <ele>2531.7</ele>
        <time>2026-03-25T11:36:41Z</time>
      </trkpt>
      <trkpt lat="44.68132" lon="6.86963">
        <ele>2531.7</ele>
        <time>2026-03-25T11:36:42Z</time>
      </trkpt>
      <trkpt lat="44.68132" lon="6.86963">
        <ele>2531.7</ele>
        <time>2026-03-25T11:36:43Z</time>
      </trkpt>
      <trkpt lat="44.68132" lon="6.86963">
        <ele>2531.7</ele>
        <time>2026-03-25T11:36:44Z</time>
      </trkpt>
      <trkpt lat="44.68132" lon="6.86963">
        <ele>2531.7</ele>
        <time>2026-03-25T11:36:45Z</time>
      </trkpt>
      <trkpt lat="44.68132" lon="6.86963">
        <ele>2531.7</ele>
        <time>2026-03-25T11:36:46Z</time>
      </trkpt>
      <trkpt lat="44.68132" lon="6.86963">
        <ele>2531.7</ele>
        <time>2026-03-25T11:36:47Z</time>
      </trkpt>
      <trkpt lat="44.68132" lon="6.86963">
        <ele>2531.7</ele>
        <time>2026-03-25T11:36:48Z</time>
      </trkpt>
      <trkpt lat="44.68132" lon="6.86963">
        <ele>2531.7</ele>
        <time>2026-03-25T11:36:49Z</time>
      </trkpt>
      <trkpt lat="44.68132" lon="6.86963">
        <ele>2531.7</ele>
        <time>2026-03-25T11:36:50Z</time>
      </trkpt>
      <trkpt lat="44.68132" lon="6.86963">
        <ele>2531.7</ele>
        <time>2026-03-25T11:36:51Z</time>
      </trkpt>
      <trkpt lat="44.68132" lon="6.86963">
        <ele>2531.7</ele>
        <time>2026-03-25T11:36:52Z</time>
      </trkpt>
      <trkpt lat="44.68132" lon="6.86963">
        <ele>2531.7</ele>
        <time>2026-03-25T11:36:53Z</time>
      </trkpt>
      <trkpt lat="44.68132" lon="6.86963">
        <ele>2531.7</ele>
        <time>2026-03-25T11:36:54Z</time>
      </trkpt>
      <trkpt lat="44.68132" lon="6.86963">
        <ele>2531.7</ele>
        <time>2026-03-25T11:36:55Z</time>
      </trkpt>
      <trkpt lat="44.68132" lon="6.86963">
        <ele>2531.7</ele>
        <time>2026-03-25T11:36:56Z</time>
      </trkpt>
      <trkpt lat="44.68132" lon="6.86963">
        <ele>2531.7</ele>
        <time>2026-03-25T11:36:57Z</time>
      </trkpt>
      <trkpt lat="44.68132" lon="6.86963">
        <ele>2531.7</ele>
        <time>2026-03-25T11:36:58Z</time>
      </trkpt>
      <trkpt lat="44.68132" lon="6.86963">
        <ele>2531.7</ele>
        <time>2026-03-25T11:36:59Z</time>
      </trkpt>
      <trkpt lat="44.68133" lon="6.86963">
        <ele>2531.7</ele>
        <time>2026-03-25T11:37:00Z</time>
      </trkpt>
      <trkpt lat="44.68133" lon="6.86963">
        <ele>2531.7</ele>
        <time>2026-03-25T11:37:01Z</time>
      </trkpt>
      <trkpt lat="44.68133" lon="6.86963">
        <ele>2531.7</ele>
        <time>2026-03-25T11:37:02Z</time>
      </trkpt>
      <trkpt lat="44.68133" lon="6.86963">
        <ele>2531.7</ele>
        <time>2026-03-25T11:37:03Z</time>
      </trkpt>
      <trkpt lat="44.68133" lon="6.86963">
        <ele>2531.7</ele>
        <time>2026-03-25T11:37:04Z</time>
      </trkpt>
      <trkpt lat="44.68133" lon="6.86963">
        <ele>2531.7</ele>
        <time>2026-03-25T11:37:05Z</time>
      </trkpt>
      <trkpt lat="44.68133" lon="6.86963">
        <ele>2531.7</ele>
        <time>2026-03-25T11:37:06Z</time>
      </trkpt>
      <trkpt lat="44.68133" lon="6.86963">
        <ele>2531.7</ele>
        <time>2026-03-25T11:37:07Z</time>
      </trkpt>
      <trkpt lat="44.68133" lon="6.86963">
        <ele>2531.7</ele>
        <time>2026-03-25T11:37:08Z</time>
      </trkpt>
      <trkpt lat="44.68133" lon="6.86963">
        <ele>2531.7</ele>
        <time>2026-03-25T11:37:09Z</time>
      </trkpt>
      <trkpt lat="44.68133" lon="6.86963">
        <ele>2531.7</ele>
        <time>2026-03-25T11:37:10Z</time>
      </trkpt>
      <trkpt lat="44.68133" lon="6.86963">
        <ele>2531.7</ele>
        <time>2026-03-25T11:37:11Z</time>
      </trkpt>
      <trkpt lat="44.68133" lon="6.86963">
        <ele>2531.7</ele>
        <time>2026-03-25T11:37:12Z</time>
      </trkpt>
      <trkpt lat="44.68133" lon="6.86963">
        <ele>2531.7</ele>
        <time>2026-03-25T11:37:13Z</time>
      </trkpt>
      <trkpt lat="44.68133" lon="6.86963">
        <ele>2531.7</ele>
        <time>2026-03-25T11:37:14Z</time>
      </trkpt>
      <trkpt lat="44.68133" lon="6.86963">
        <ele>2531.7</ele>
        <time>2026-03-25T11:37:15Z</time>
      </trkpt>
      <trkpt lat="44.68133" lon="6.86963">
        <ele>2531.7</ele>
        <time>2026-03-25T11:37:16Z</time>
      </trkpt>
      <trkpt lat="44.68133" lon="6.86963">
        <ele>2531.6</ele>
        <time>2026-03-25T11:37:17Z</time>
      </trkpt>
      <trkpt lat="44.68133" lon="6.86963">
        <ele>2531.6</ele>
        <time>2026-03-25T11:37:18Z</time>
      </trkpt>
      <trkpt lat="44.68133" lon="6.86963">
        <ele>2531.6</ele>
        <time>2026-03-25T11:37:19Z</time>
      </trkpt>
      <trkpt lat="44.68133" lon="6.86963">
        <ele>2531.6</ele>
        <time>2026-03-25T11:37:20Z</time>
      </trkpt>
      <trkpt lat="44.68133" lon="6.86963">
        <ele>2531.6</ele>
        <time>2026-03-25T11:37:21Z</time>
      </trkpt>
      <trkpt lat="44.68133" lon="6.86963">
        <ele>2531.6</ele>
        <time>2026-03-25T11:37:22Z</time>
      </trkpt>
      <trkpt lat="44.68133" lon="6.86963">
        <ele>2531.6</ele>
        <time>2026-03-25T11:37:23Z</time>
      </trkpt>
      <trkpt lat="44.68133" lon="6.86963">
        <ele>2531.6</ele>
        <time>2026-03-25T11:37:24Z</time>
      </trkpt>
      <trkpt lat="44.68133" lon="6.86963">
        <ele>2531.6</ele>
        <time>2026-03-25T11:37:25Z</time>
      </trkpt>
      <trkpt lat="44.68133" lon="6.86963">
        <ele>2531.6</ele>
        <time>2026-03-25T11:37:26Z</time>
      </trkpt>
      <trkpt lat="44.68133" lon="6.86963">
        <ele>2531.6</ele>
        <time>2026-03-25T11:37:27Z</time>
      </trkpt>
      <trkpt lat="44.68133" lon="6.86963">
        <ele>2531.6</ele>
        <time>2026-03-25T11:37:28Z</time>
      </trkpt>
      <trkpt lat="44.68133" lon="6.86963">
        <ele>2531.6</ele>
        <time>2026-03-25T11:37:29Z</time>
      </trkpt>
      <trkpt lat="44.68133" lon="6.86963">
        <ele>2531.6</ele>
        <time>2026-03-25T11:37:30Z</time>
      </trkpt>
      <trkpt lat="44.68133" lon="6.86963">
        <ele>2531.6</ele>
        <time>2026-03-25T11:37:31Z</time>
      </trkpt>
      <trkpt lat="44.68133" lon="6.86963">
        <ele>2531.6</ele>
        <time>2026-03-25T11:37:32Z</time>
      </trkpt>
      <trkpt lat="44.68132" lon="6.86963">
        <ele>2531.6</ele>
        <time>2026-03-25T11:37:33Z</time>
      </trkpt>
      <trkpt lat="44.68132" lon="6.86962">
        <ele>2531.6</ele>
        <time>2026-03-25T11:37:34Z</time>
      </trkpt>
      <trkpt lat="44.68132" lon="6.86963">
        <ele>2531.6</ele>
        <time>2026-03-25T11:37:35Z</time>
      </trkpt>
      <trkpt lat="44.68131" lon="6.86963">
        <ele>2532.5</ele>
        <time>2026-03-25T11:37:36Z</time>
      </trkpt>
      <trkpt lat="44.68131" lon="6.86963">
        <ele>2532.5</ele>
        <time>2026-03-25T11:37:37Z</time>
      </trkpt>
      <trkpt lat="44.6813" lon="6.86964">
        <ele>2531.2</ele>
        <time>2026-03-25T11:37:38Z</time>
      </trkpt>
      <trkpt lat="44.6813" lon="6.86964">
        <ele>2531.2</ele>
        <time>2026-03-25T11:37:39Z</time>
      </trkpt>
      <trkpt lat="44.68129" lon="6.86965">
        <ele>2531.2</ele>
        <time>2026-03-25T11:37:40Z</time>
      </trkpt>
      <trkpt lat="44.68129" lon="6.86965">
        <ele>2531.9</ele>
        <time>2026-03-25T11:37:41Z</time>
      </trkpt>
      <trkpt lat="44.68128" lon="6.86965">
        <ele>2531.9</ele>
        <time>2026-03-25T11:37:42Z</time>
      </trkpt>
      <trkpt lat="44.68128" lon="6.86966">
        <ele>2531.9</ele>
        <time>2026-03-25T11:37:43Z</time>
      </trkpt>
      <trkpt lat="44.68128" lon="6.86967">
        <ele>2531.9</ele>
        <time>2026-03-25T11:37:44Z</time>
      </trkpt>
      <trkpt lat="44.68128" lon="6.86967">
        <ele>2531.9</ele>
        <time>2026-03-25T11:37:45Z</time>
      </trkpt>
      <trkpt lat="44.68128" lon="6.86967">
        <ele>2531.9</ele>
        <time>2026-03-25T11:37:46Z</time>
      </trkpt>
      <trkpt lat="44.68128" lon="6.86967">
        <ele>2531.9</ele>
        <time>2026-03-25T11:37:47Z</time>
      </trkpt>
      <trkpt lat="44.68128" lon="6.86967">
        <ele>2531.9</ele>
        <time>2026-03-25T11:37:48Z</time>
      </trkpt>
      <trkpt lat="44.68128" lon="6.86967">
        <ele>2531.9</ele>
        <time>2026-03-25T11:37:49Z</time>
      </trkpt>
      <trkpt lat="44.68128" lon="6.86967">
        <ele>2531.9</ele>
        <time>2026-03-25T11:37:50Z</time>
      </trkpt>
      <trkpt lat="44.68128" lon="6.86967">
        <ele>2531.9</ele>
        <time>2026-03-25T11:37:51Z</time>
      </trkpt>
      <trkpt lat="44.68128" lon="6.86967">
        <ele>2531.9</ele>
        <time>2026-03-25T11:37:52Z</time>
      </trkpt>
      <trkpt lat="44.68128" lon="6.86967">
        <ele>2531.9</ele>
        <time>2026-03-25T11:37:53Z</time>
      </trkpt>
      <trkpt lat="44.68128" lon="6.86967">
        <ele>2531.9</ele>
        <time>2026-03-25T11:37:54Z</time>
      </trkpt>
      <trkpt lat="44.68128" lon="6.86967">
        <ele>2531.9</ele>
        <time>2026-03-25T11:37:55Z</time>
      </trkpt>
      <trkpt lat="44.68128" lon="6.86967">
        <ele>2531.9</ele>
        <time>2026-03-25T11:37:56Z</time>
      </trkpt>
      <trkpt lat="44.68128" lon="6.86967">
        <ele>2531.9</ele>
        <time>2026-03-25T11:37:57Z</time>
      </trkpt>
      <trkpt lat="44.68128" lon="6.86967">
        <ele>2531.9</ele>
        <time>2026-03-25T11:37:58Z</time>
      </trkpt>
      <trkpt lat="44.68128" lon="6.86967">
        <ele>2531.9</ele>
        <time>2026-03-25T11:37:59Z</time>
      </trkpt>
      <trkpt lat="44.68128" lon="6.86967">
        <ele>2531.9</ele>
        <time>2026-03-25T11:38:00Z</time>
      </trkpt>
      <trkpt lat="44.68128" lon="6.86967">
        <ele>2531.9</ele>
        <time>2026-03-25T11:38:01Z</time>
      </trkpt>
      <trkpt lat="44.68128" lon="6.86967">
        <ele>2531.9</ele>
        <time>2026-03-25T11:38:02Z</time>
      </trkpt>
      <trkpt lat="44.68128" lon="6.86967">
        <ele>2531.9</ele>
        <time>2026-03-25T11:38:03Z</time>
      </trkpt>
      <trkpt lat="44.68128" lon="6.86967">
        <ele>2531.9</ele>
        <time>2026-03-25T11:38:04Z</time>
      </trkpt>
      <trkpt lat="44.68128" lon="6.86967">
        <ele>2531.9</ele>
        <time>2026-03-25T11:38:05Z</time>
      </trkpt>
      <trkpt lat="44.68128" lon="6.86967">
        <ele>2531.9</ele>
        <time>2026-03-25T11:38:06Z</time>
      </trkpt>
      <trkpt lat="44.68128" lon="6.86967">
        <ele>2531.9</ele>
        <time>2026-03-25T11:38:07Z</time>
      </trkpt>
      <trkpt lat="44.68128" lon="6.86967">
        <ele>2531.9</ele>
        <time>2026-03-25T11:38:08Z</time>
      </trkpt>
      <trkpt lat="44.68128" lon="6.86967">
        <ele>2531.9</ele>
        <time>2026-03-25T11:38:09Z</time>
      </trkpt>
      <trkpt lat="44.68128" lon="6.86967">
        <ele>2531.9</ele>
        <time>2026-03-25T11:38:10Z</time>
      </trkpt>
      <trkpt lat="44.68128" lon="6.86967">
        <ele>2531.9</ele>
        <time>2026-03-25T11:38:11Z</time>
      </trkpt>
      <trkpt lat="44.68128" lon="6.86967">
        <ele>2531.9</ele>
        <time>2026-03-25T11:38:12Z</time>
      </trkpt>
      <trkpt lat="44.68128" lon="6.86967">
        <ele>2531.9</ele>
        <time>2026-03-25T11:38:13Z</time>
      </trkpt>
      <trkpt lat="44.68128" lon="6.86967">
        <ele>2531.9</ele>
        <time>2026-03-25T11:38:14Z</time>
      </trkpt>
      <trkpt lat="44.68128" lon="6.86967">
        <ele>2531.9</ele>
        <time>2026-03-25T11:38:15Z</time>
      </trkpt>
      <trkpt lat="44.68128" lon="6.86967">
        <ele>2531.9</ele>
        <time>2026-03-25T11:38:16Z</time>
      </trkpt>
      <trkpt lat="44.68128" lon="6.86967">
        <ele>2531.9</ele>
        <time>2026-03-25T11:38:17Z</time>
      </trkpt>
      <trkpt lat="44.68128" lon="6.86967">
        <ele>2531.9</ele>
        <time>2026-03-25T11:38:18Z</time>
      </trkpt>
      <trkpt lat="44.68128" lon="6.86967">
        <ele>2531.9</ele>
        <time>2026-03-25T11:38:19Z</time>
      </trkpt>
      <trkpt lat="44.68128" lon="6.86967">
        <ele>2531.9</ele>
        <time>2026-03-25T11:38:20Z</time>
      </trkpt>
      <trkpt lat="44.68128" lon="6.86967">
        <ele>2531.9</ele>
        <time>2026-03-25T11:38:21Z</time>
      </trkpt>
      <trkpt lat="44.68127" lon="6.86966">
        <ele>2531.9</ele>
        <time>2026-03-25T11:38:22Z</time>
      </trkpt>
      <trkpt lat="44.68127" lon="6.86965">
        <ele>2531.9</ele>
        <time>2026-03-25T11:38:23Z</time>
      </trkpt>
      <trkpt lat="44.68127" lon="6.86965">
        <ele>2531.9</ele>
        <time>2026-03-25T11:38:24Z</time>
      </trkpt>
      <trkpt lat="44.68127" lon="6.86965">
        <ele>2531.9</ele>
        <time>2026-03-25T11:38:25Z</time>
      </trkpt>
      <trkpt lat="44.68127" lon="6.86965">
        <ele>2531.9</ele>
        <time>2026-03-25T11:38:26Z</time>
      </trkpt>
      <trkpt lat="44.68126" lon="6.86964">
        <ele>2531.9</ele>
        <time>2026-03-25T11:38:27Z</time>
      </trkpt>
      <trkpt lat="44.68126" lon="6.86964">
        <ele>2531.9</ele>
        <time>2026-03-25T11:38:28Z</time>
      </trkpt>
      <trkpt lat="44.68126" lon="6.86964">
        <ele>2531.9</ele>
        <time>2026-03-25T11:38:29Z</time>
      </trkpt>
      <trkpt lat="44.68126" lon="6.86964">
        <ele>2531.9</ele>
        <time>2026-03-25T11:38:30Z</time>
      </trkpt>
      <trkpt lat="44.68126" lon="6.86964">
        <ele>2531.9</ele>
        <time>2026-03-25T11:38:31Z</time>
      </trkpt>
      <trkpt lat="44.68126" lon="6.86964">
        <ele>2531.9</ele>
        <time>2026-03-25T11:38:32Z</time>
      </trkpt>
      <trkpt lat="44.68126" lon="6.86964">
        <ele>2531.9</ele>
        <time>2026-03-25T11:38:33Z</time>
      </trkpt>
      <trkpt lat="44.68126" lon="6.86964">
        <ele>2531.9</ele>
        <time>2026-03-25T11:38:34Z</time>
      </trkpt>
      <trkpt lat="44.68126" lon="6.86964">
        <ele>2531.9</ele>
        <time>2026-03-25T11:38:35Z</time>
      </trkpt>
      <trkpt lat="44.68126" lon="6.86964">
        <ele>2531.9</ele>
        <time>2026-03-25T11:38:36Z</time>
      </trkpt>
      <trkpt lat="44.68126" lon="6.86964">
        <ele>2531.9</ele>
        <time>2026-03-25T11:38:37Z</time>
      </trkpt>
      <trkpt lat="44.68126" lon="6.86964">
        <ele>2531.9</ele>
        <time>2026-03-25T11:38:38Z</time>
      </trkpt>
      <trkpt lat="44.68126" lon="6.86964">
        <ele>2531.9</ele>
        <time>2026-03-25T11:38:39Z</time>
      </trkpt>
      <trkpt lat="44.68126" lon="6.86964">
        <ele>2531.9</ele>
        <time>2026-03-25T11:38:40Z</time>
      </trkpt>
      <trkpt lat="44.68126" lon="6.86964">
        <ele>2531.9</ele>
        <time>2026-03-25T11:38:41Z</time>
      </trkpt>
      <trkpt lat="44.68126" lon="6.86964">
        <ele>2531.9</ele>
        <time>2026-03-25T11:38:42Z</time>
      </trkpt>
      <trkpt lat="44.68126" lon="6.86964">
        <ele>2531.9</ele>
        <time>2026-03-25T11:38:43Z</time>
      </trkpt>
      <trkpt lat="44.68126" lon="6.86965">
        <ele>2531.9</ele>
        <time>2026-03-25T11:38:44Z</time>
      </trkpt>
      <trkpt lat="44.68126" lon="6.86965">
        <ele>2531.9</ele>
        <time>2026-03-25T11:38:45Z</time>
      </trkpt>
      <trkpt lat="44.68126" lon="6.86964">
        <ele>2531.8</ele>
        <time>2026-03-25T11:38:46Z</time>
      </trkpt>
      <trkpt lat="44.68126" lon="6.86964">
        <ele>2531.8</ele>
        <time>2026-03-25T11:38:47Z</time>
      </trkpt>
      <trkpt lat="44.68126" lon="6.86964">
        <ele>2531.8</ele>
        <time>2026-03-25T11:38:48Z</time>
      </trkpt>
      <trkpt lat="44.68126" lon="6.86964">
        <ele>2531.8</ele>
        <time>2026-03-25T11:38:49Z</time>
      </trkpt>
      <trkpt lat="44.68126" lon="6.86964">
        <ele>2531.8</ele>
        <time>2026-03-25T11:38:50Z</time>
      </trkpt>
      <trkpt lat="44.68126" lon="6.86964">
        <ele>2531.8</ele>
        <time>2026-03-25T11:38:51Z</time>
      </trkpt>
      <trkpt lat="44.68126" lon="6.86964">
        <ele>2531.8</ele>
        <time>2026-03-25T11:38:52Z</time>
      </trkpt>
      <trkpt lat="44.68126" lon="6.86964">
        <ele>2531.8</ele>
        <time>2026-03-25T11:38:53Z</time>
      </trkpt>
      <trkpt lat="44.68126" lon="6.86964">
        <ele>2531.8</ele>
        <time>2026-03-25T11:38:54Z</time>
      </trkpt>
      <trkpt lat="44.68126" lon="6.86964">
        <ele>2531.8</ele>
        <time>2026-03-25T11:38:55Z</time>
      </trkpt>
      <trkpt lat="44.68126" lon="6.86964">
        <ele>2531.8</ele>
        <time>2026-03-25T11:38:56Z</time>
      </trkpt>
      <trkpt lat="44.68126" lon="6.86964">
        <ele>2531.8</ele>
        <time>2026-03-25T11:38:57Z</time>
      </trkpt>
      <trkpt lat="44.68126" lon="6.86964">
        <ele>2531.8</ele>
        <time>2026-03-25T11:38:58Z</time>
      </trkpt>
      <trkpt lat="44.68126" lon="6.86964">
        <ele>2531.8</ele>
        <time>2026-03-25T11:38:59Z</time>
      </trkpt>
      <trkpt lat="44.68126" lon="6.86964">
        <ele>2531.8</ele>
        <time>2026-03-25T11:39:00Z</time>
      </trkpt>
      <trkpt lat="44.68126" lon="6.86964">
        <ele>2531.8</ele>
        <time>2026-03-25T11:39:01Z</time>
      </trkpt>
      <trkpt lat="44.68126" lon="6.86964">
        <ele>2531.8</ele>
        <time>2026-03-25T11:39:02Z</time>
      </trkpt>
      <trkpt lat="44.68126" lon="6.86964">
        <ele>2531.8</ele>
        <time>2026-03-25T11:39:03Z</time>
      </trkpt>
      <trkpt lat="44.68126" lon="6.86964">
        <ele>2531.8</ele>
        <time>2026-03-25T11:39:04Z</time>
      </trkpt>
      <trkpt lat="44.68126" lon="6.86964">
        <ele>2531.8</ele>
        <time>2026-03-25T11:39:05Z</time>
      </trkpt>
      <trkpt lat="44.68126" lon="6.86964">
        <ele>2531.8</ele>
        <time>2026-03-25T11:39:06Z</time>
      </trkpt>
      <trkpt lat="44.68126" lon="6.86964">
        <ele>2531.8</ele>
        <time>2026-03-25T11:39:07Z</time>
      </trkpt>
      <trkpt lat="44.68126" lon="6.86964">
        <ele>2531.8</ele>
        <time>2026-03-25T11:39:08Z</time>
      </trkpt>
      <trkpt lat="44.68126" lon="6.86964">
        <ele>2531.8</ele>
        <time>2026-03-25T11:39:09Z</time>
      </trkpt>
      <trkpt lat="44.68126" lon="6.86964">
        <ele>2531.8</ele>
        <time>2026-03-25T11:39:10Z</time>
      </trkpt>
      <trkpt lat="44.68126" lon="6.86964">
        <ele>2531.8</ele>
        <time>2026-03-25T11:39:11Z</time>
      </trkpt>
      <trkpt lat="44.68126" lon="6.86964">
        <ele>2531.8</ele>
        <time>2026-03-25T11:39:12Z</time>
      </trkpt>
      <trkpt lat="44.68126" lon="6.86964">
        <ele>2531.8</ele>
        <time>2026-03-25T11:39:13Z</time>
      </trkpt>
      <trkpt lat="44.68125" lon="6.86964">
        <ele>2532.5</ele>
        <time>2026-03-25T11:39:14Z</time>
      </trkpt>
      <trkpt lat="44.68125" lon="6.86965">
        <ele>2532.5</ele>
        <time>2026-03-25T11:39:15Z</time>
      </trkpt>
      <trkpt lat="44.68125" lon="6.86965">
        <ele>2532.5</ele>
        <time>2026-03-25T11:39:16Z</time>
      </trkpt>
      <trkpt lat="44.68125" lon="6.86965">
        <ele>2532.5</ele>
        <time>2026-03-25T11:39:17Z</time>
      </trkpt>
      <trkpt lat="44.68126" lon="6.86965">
        <ele>2532.5</ele>
        <time>2026-03-25T11:39:18Z</time>
      </trkpt>
      <trkpt lat="44.68126" lon="6.86965">
        <ele>2531.8</ele>
        <time>2026-03-25T11:39:19Z</time>
      </trkpt>
      <trkpt lat="44.68126" lon="6.86965">
        <ele>2531.8</ele>
        <time>2026-03-25T11:39:20Z</time>
      </trkpt>
      <trkpt lat="44.68127" lon="6.86965">
        <ele>2531.8</ele>
        <time>2026-03-25T11:39:21Z</time>
      </trkpt>
      <trkpt lat="44.68127" lon="6.86965">
        <ele>2531.8</ele>
        <time>2026-03-25T11:39:22Z</time>
      </trkpt>
      <trkpt lat="44.68128" lon="6.86964">
        <ele>2531.8</ele>
        <time>2026-03-25T11:39:23Z</time>
      </trkpt>
      <trkpt lat="44.68128" lon="6.86964">
        <ele>2531.8</ele>
        <time>2026-03-25T11:39:24Z</time>
      </trkpt>
      <trkpt lat="44.68128" lon="6.86964">
        <ele>2531.8</ele>
        <time>2026-03-25T11:39:25Z</time>
      </trkpt>
      <trkpt lat="44.68129" lon="6.86963">
        <ele>2531.8</ele>
        <time>2026-03-25T11:39:26Z</time>
      </trkpt>
      <trkpt lat="44.68129" lon="6.86964">
        <ele>2531.1</ele>
        <time>2026-03-25T11:39:27Z</time>
      </trkpt>
      <trkpt lat="44.6813" lon="6.86964">
        <ele>2531.1</ele>
        <time>2026-03-25T11:39:29Z</time>
      </trkpt>
      <trkpt lat="44.68131" lon="6.86964">
        <ele>2531.1</ele>
        <time>2026-03-25T11:39:30Z</time>
      </trkpt>
      <trkpt lat="44.68131" lon="6.86964">
        <ele>2531.1</ele>
        <time>2026-03-25T11:39:31Z</time>
      </trkpt>
      <trkpt lat="44.68131" lon="6.86964">
        <ele>2531.1</ele>
        <time>2026-03-25T11:39:32Z</time>
      </trkpt>
      <trkpt lat="44.68131" lon="6.86964">
        <ele>2531.1</ele>
        <time>2026-03-25T11:39:33Z</time>
      </trkpt>
      <trkpt lat="44.68132" lon="6.86964">
        <ele>2531.1</ele>
        <time>2026-03-25T11:39:34Z</time>
      </trkpt>
      <trkpt lat="44.68132" lon="6.86964">
        <ele>2531.1</ele>
        <time>2026-03-25T11:39:35Z</time>
      </trkpt>
      <trkpt lat="44.68132" lon="6.86964">
        <ele>2531.1</ele>
        <time>2026-03-25T11:39:36Z</time>
      </trkpt>
      <trkpt lat="44.68132" lon="6.86964">
        <ele>2531.1</ele>
        <time>2026-03-25T11:39:37Z</time>
      </trkpt>
      <trkpt lat="44.68132" lon="6.86964">
        <ele>2531.1</ele>
        <time>2026-03-25T11:39:38Z</time>
      </trkpt>
      <trkpt lat="44.68132" lon="6.86964">
        <ele>2531.1</ele>
        <time>2026-03-25T11:39:39Z</time>
      </trkpt>
      <trkpt lat="44.68132" lon="6.86964">
        <ele>2531.1</ele>
        <time>2026-03-25T11:39:40Z</time>
      </trkpt>
      <trkpt lat="44.68132" lon="6.86964">
        <ele>2531.1</ele>
        <time>2026-03-25T11:39:41Z</time>
      </trkpt>
      <trkpt lat="44.68132" lon="6.86964">
        <ele>2531.1</ele>
        <time>2026-03-25T11:39:42Z</time>
      </trkpt>
      <trkpt lat="44.68132" lon="6.86964">
        <ele>2531.1</ele>
        <time>2026-03-25T11:39:43Z</time>
      </trkpt>
      <trkpt lat="44.68132" lon="6.86964">
        <ele>2531.1</ele>
        <time>2026-03-25T11:39:44Z</time>
      </trkpt>
      <trkpt lat="44.68132" lon="6.86964">
        <ele>2531.1</ele>
        <time>2026-03-25T11:39:45Z</time>
      </trkpt>
      <trkpt lat="44.68132" lon="6.86964">
        <ele>2531.1</ele>
        <time>2026-03-25T11:39:46Z</time>
      </trkpt>
      <trkpt lat="44.68132" lon="6.86964">
        <ele>2531.1</ele>
        <time>2026-03-25T11:39:47Z</time>
      </trkpt>
      <trkpt lat="44.68132" lon="6.86964">
        <ele>2531.1</ele>
        <time>2026-03-25T11:39:48Z</time>
      </trkpt>
      <trkpt lat="44.68132" lon="6.86964">
        <ele>2531.1</ele>
        <time>2026-03-25T11:39:49Z</time>
      </trkpt>
      <trkpt lat="44.68132" lon="6.86964">
        <ele>2531.1</ele>
        <time>2026-03-25T11:39:50Z</time>
      </trkpt>
      <trkpt lat="44.68132" lon="6.86964">
        <ele>2531.1</ele>
        <time>2026-03-25T11:39:51Z</time>
      </trkpt>
      <trkpt lat="44.68132" lon="6.86964">
        <ele>2531.1</ele>
        <time>2026-03-25T11:39:52Z</time>
      </trkpt>
      <trkpt lat="44.68132" lon="6.86964">
        <ele>2531.1</ele>
        <time>2026-03-25T11:39:53Z</time>
      </trkpt>
      <trkpt lat="44.68132" lon="6.86964">
        <ele>2531</ele>
        <time>2026-03-25T11:39:54Z</time>
      </trkpt>
      <trkpt lat="44.68132" lon="6.86964">
        <ele>2531</ele>
        <time>2026-03-25T11:39:55Z</time>
      </trkpt>
      <trkpt lat="44.68132" lon="6.86964">
        <ele>2531</ele>
        <time>2026-03-25T11:39:56Z</time>
      </trkpt>
      <trkpt lat="44.68132" lon="6.86964">
        <ele>2531</ele>
        <time>2026-03-25T11:39:57Z</time>
      </trkpt>
      <trkpt lat="44.68132" lon="6.86964">
        <ele>2531</ele>
        <time>2026-03-25T11:39:58Z</time>
      </trkpt>
      <trkpt lat="44.68132" lon="6.86964">
        <ele>2531</ele>
        <time>2026-03-25T11:39:59Z</time>
      </trkpt>
      <trkpt lat="44.68132" lon="6.86964">
        <ele>2531</ele>
        <time>2026-03-25T11:40:00Z</time>
      </trkpt>
      <trkpt lat="44.68132" lon="6.86964">
        <ele>2531</ele>
        <time>2026-03-25T11:40:01Z</time>
      </trkpt>
      <trkpt lat="44.68132" lon="6.86964">
        <ele>2531</ele>
        <time>2026-03-25T11:40:02Z</time>
      </trkpt>
      <trkpt lat="44.68132" lon="6.86964">
        <ele>2531</ele>
        <time>2026-03-25T11:40:03Z</time>
      </trkpt>
      <trkpt lat="44.68132" lon="6.86964">
        <ele>2531</ele>
        <time>2026-03-25T11:40:04Z</time>
      </trkpt>
      <trkpt lat="44.68132" lon="6.86964">
        <ele>2531</ele>
        <time>2026-03-25T11:40:05Z</time>
      </trkpt>
      <trkpt lat="44.68132" lon="6.86964">
        <ele>2531</ele>
        <time>2026-03-25T11:40:06Z</time>
      </trkpt>
      <trkpt lat="44.68132" lon="6.86964">
        <ele>2531</ele>
        <time>2026-03-25T11:40:07Z</time>
      </trkpt>
      <trkpt lat="44.68132" lon="6.86964">
        <ele>2531</ele>
        <time>2026-03-25T11:40:08Z</time>
      </trkpt>
      <trkpt lat="44.68132" lon="6.86964">
        <ele>2531</ele>
        <time>2026-03-25T11:40:09Z</time>
      </trkpt>
      <trkpt lat="44.68132" lon="6.86964">
        <ele>2531</ele>
        <time>2026-03-25T11:40:10Z</time>
      </trkpt>
      <trkpt lat="44.68132" lon="6.86964">
        <ele>2531</ele>
        <time>2026-03-25T11:40:11Z</time>
      </trkpt>
      <trkpt lat="44.68132" lon="6.86964">
        <ele>2531</ele>
        <time>2026-03-25T11:40:12Z</time>
      </trkpt>
      <trkpt lat="44.68132" lon="6.86964">
        <ele>2531</ele>
        <time>2026-03-25T11:40:13Z</time>
      </trkpt>
      <trkpt lat="44.68132" lon="6.86964">
        <ele>2531</ele>
        <time>2026-03-25T11:40:14Z</time>
      </trkpt>
      <trkpt lat="44.68132" lon="6.86964">
        <ele>2531</ele>
        <time>2026-03-25T11:40:15Z</time>
      </trkpt>
      <trkpt lat="44.68132" lon="6.86964">
        <ele>2531</ele>
        <time>2026-03-25T11:40:16Z</time>
      </trkpt>
      <trkpt lat="44.68132" lon="6.86964">
        <ele>2531</ele>
        <time>2026-03-25T11:40:17Z</time>
      </trkpt>
      <trkpt lat="44.68132" lon="6.86964">
        <ele>2531</ele>
        <time>2026-03-25T11:40:18Z</time>
      </trkpt>
      <trkpt lat="44.68132" lon="6.86964">
        <ele>2531</ele>
        <time>2026-03-25T11:40:19Z</time>
      </trkpt>
      <trkpt lat="44.68132" lon="6.86964">
        <ele>2531</ele>
        <time>2026-03-25T11:40:20Z</time>
      </trkpt>
      <trkpt lat="44.68132" lon="6.86964">
        <ele>2531</ele>
        <time>2026-03-25T11:40:21Z</time>
      </trkpt>
      <trkpt lat="44.68132" lon="6.86964">
        <ele>2531</ele>
        <time>2026-03-25T11:40:22Z</time>
      </trkpt>
      <trkpt lat="44.68132" lon="6.86964">
        <ele>2531</ele>
        <time>2026-03-25T11:40:23Z</time>
      </trkpt>
      <trkpt lat="44.68132" lon="6.86964">
        <ele>2531</ele>
        <time>2026-03-25T11:40:24Z</time>
      </trkpt>
      <trkpt lat="44.68132" lon="6.86964">
        <ele>2531</ele>
        <time>2026-03-25T11:40:25Z</time>
      </trkpt>
      <trkpt lat="44.68132" lon="6.86964">
        <ele>2531</ele>
        <time>2026-03-25T11:40:26Z</time>
      </trkpt>
      <trkpt lat="44.68132" lon="6.86964">
        <ele>2530.3</ele>
        <time>2026-03-25T11:40:27Z</time>
      </trkpt>
      <trkpt lat="44.68132" lon="6.86964">
        <ele>2530.3</ele>
        <time>2026-03-25T11:40:28Z</time>
      </trkpt>
      <trkpt lat="44.68132" lon="6.86963">
        <ele>2531</ele>
        <time>2026-03-25T11:40:29Z</time>
      </trkpt>
      <trkpt lat="44.68131" lon="6.86963">
        <ele>2531</ele>
        <time>2026-03-25T11:40:30Z</time>
      </trkpt>
      <trkpt lat="44.68131" lon="6.86963">
        <ele>2531</ele>
        <time>2026-03-25T11:40:31Z</time>
      </trkpt>
      <trkpt lat="44.68131" lon="6.86963">
        <ele>2531</ele>
        <time>2026-03-25T11:40:32Z</time>
      </trkpt>
      <trkpt lat="44.68131" lon="6.86963">
        <ele>2531</ele>
        <time>2026-03-25T11:40:33Z</time>
      </trkpt>
      <trkpt lat="44.68131" lon="6.86963">
        <ele>2531</ele>
        <time>2026-03-25T11:40:34Z</time>
      </trkpt>
      <trkpt lat="44.68131" lon="6.86963">
        <ele>2531</ele>
        <time>2026-03-25T11:40:35Z</time>
      </trkpt>
      <trkpt lat="44.68131" lon="6.86963">
        <ele>2531</ele>
        <time>2026-03-25T11:40:36Z</time>
      </trkpt>
      <trkpt lat="44.68131" lon="6.86963">
        <ele>2531</ele>
        <time>2026-03-25T11:40:37Z</time>
      </trkpt>
      <trkpt lat="44.68131" lon="6.86963">
        <ele>2531</ele>
        <time>2026-03-25T11:40:38Z</time>
      </trkpt>
      <trkpt lat="44.68131" lon="6.86963">
        <ele>2531</ele>
        <time>2026-03-25T11:40:39Z</time>
      </trkpt>
      <trkpt lat="44.68131" lon="6.86964">
        <ele>2531</ele>
        <time>2026-03-25T11:40:40Z</time>
      </trkpt>
      <trkpt lat="44.68131" lon="6.86964">
        <ele>2531</ele>
        <time>2026-03-25T11:40:41Z</time>
      </trkpt>
      <trkpt lat="44.68131" lon="6.86964">
        <ele>2531</ele>
        <time>2026-03-25T11:40:42Z</time>
      </trkpt>
      <trkpt lat="44.68131" lon="6.86964">
        <ele>2531</ele>
        <time>2026-03-25T11:40:43Z</time>
      </trkpt>
      <trkpt lat="44.68131" lon="6.86964">
        <ele>2531</ele>
        <time>2026-03-25T11:40:44Z</time>
      </trkpt>
      <trkpt lat="44.68131" lon="6.86964">
        <ele>2531</ele>
        <time>2026-03-25T11:40:45Z</time>
      </trkpt>
      <trkpt lat="44.68131" lon="6.86964">
        <ele>2531</ele>
        <time>2026-03-25T11:40:46Z</time>
      </trkpt>
      <trkpt lat="44.68131" lon="6.86964">
        <ele>2531</ele>
        <time>2026-03-25T11:40:47Z</time>
      </trkpt>
      <trkpt lat="44.68131" lon="6.86964">
        <ele>2531</ele>
        <time>2026-03-25T11:40:48Z</time>
      </trkpt>
      <trkpt lat="44.68131" lon="6.86964">
        <ele>2531</ele>
        <time>2026-03-25T11:40:49Z</time>
      </trkpt>
      <trkpt lat="44.68131" lon="6.86964">
        <ele>2531</ele>
        <time>2026-03-25T11:40:50Z</time>
      </trkpt>
      <trkpt lat="44.68131" lon="6.86964">
        <ele>2531</ele>
        <time>2026-03-25T11:40:51Z</time>
      </trkpt>
      <trkpt lat="44.68131" lon="6.86964">
        <ele>2531</ele>
        <time>2026-03-25T11:40:52Z</time>
      </trkpt>
      <trkpt lat="44.68131" lon="6.86964">
        <ele>2531</ele>
        <time>2026-03-25T11:40:53Z</time>
      </trkpt>
      <trkpt lat="44.68131" lon="6.86964">
        <ele>2531</ele>
        <time>2026-03-25T11:40:54Z</time>
      </trkpt>
      <trkpt lat="44.68131" lon="6.86964">
        <ele>2531</ele>
        <time>2026-03-25T11:40:55Z</time>
      </trkpt>
      <trkpt lat="44.68131" lon="6.86964">
        <ele>2531</ele>
        <time>2026-03-25T11:40:56Z</time>
      </trkpt>
      <trkpt lat="44.68131" lon="6.86964">
        <ele>2531</ele>
        <time>2026-03-25T11:40:57Z</time>
      </trkpt>
      <trkpt lat="44.68131" lon="6.86964">
        <ele>2531</ele>
        <time>2026-03-25T11:40:58Z</time>
      </trkpt>
      <trkpt lat="44.68131" lon="6.86964">
        <ele>2531</ele>
        <time>2026-03-25T11:40:59Z</time>
      </trkpt>
      <trkpt lat="44.68131" lon="6.86964">
        <ele>2531</ele>
        <time>2026-03-25T11:41:00Z</time>
      </trkpt>
      <trkpt lat="44.68131" lon="6.86964">
        <ele>2531</ele>
        <time>2026-03-25T11:41:01Z</time>
      </trkpt>
      <trkpt lat="44.68131" lon="6.86964">
        <ele>2531</ele>
        <time>2026-03-25T11:41:02Z</time>
      </trkpt>
      <trkpt lat="44.68131" lon="6.86964">
        <ele>2531</ele>
        <time>2026-03-25T11:41:03Z</time>
      </trkpt>
      <trkpt lat="44.68131" lon="6.86964">
        <ele>2531</ele>
        <time>2026-03-25T11:41:04Z</time>
      </trkpt>
      <trkpt lat="44.68131" lon="6.86964">
        <ele>2531</ele>
        <time>2026-03-25T11:41:05Z</time>
      </trkpt>
      <trkpt lat="44.68131" lon="6.86964">
        <ele>2530.9</ele>
        <time>2026-03-25T11:41:06Z</time>
      </trkpt>
      <trkpt lat="44.68131" lon="6.86964">
        <ele>2530.9</ele>
        <time>2026-03-25T11:41:07Z</time>
      </trkpt>
      <trkpt lat="44.68131" lon="6.86964">
        <ele>2530.9</ele>
        <time>2026-03-25T11:41:08Z</time>
      </trkpt>
      <trkpt lat="44.68131" lon="6.86964">
        <ele>2530.9</ele>
        <time>2026-03-25T11:41:09Z</time>
      </trkpt>
      <trkpt lat="44.68132" lon="6.86964">
        <ele>2530.9</ele>
        <time>2026-03-25T11:41:10Z</time>
      </trkpt>
      <trkpt lat="44.68132" lon="6.86964">
        <ele>2530.9</ele>
        <time>2026-03-25T11:41:11Z</time>
      </trkpt>
      <trkpt lat="44.68132" lon="6.86964">
        <ele>2530.9</ele>
        <time>2026-03-25T11:41:12Z</time>
      </trkpt>
      <trkpt lat="44.68132" lon="6.86964">
        <ele>2530.9</ele>
        <time>2026-03-25T11:41:13Z</time>
      </trkpt>
      <trkpt lat="44.68132" lon="6.86964">
        <ele>2530.9</ele>
        <time>2026-03-25T11:41:14Z</time>
      </trkpt>
      <trkpt lat="44.68131" lon="6.86964">
        <ele>2530.9</ele>
        <time>2026-03-25T11:41:15Z</time>
      </trkpt>
      <trkpt lat="44.68131" lon="6.86964">
        <ele>2530.9</ele>
        <time>2026-03-25T11:41:16Z</time>
      </trkpt>
      <trkpt lat="44.68131" lon="6.86964">
        <ele>2530.9</ele>
        <time>2026-03-25T11:41:17Z</time>
      </trkpt>
      <trkpt lat="44.68131" lon="6.86964">
        <ele>2530.9</ele>
        <time>2026-03-25T11:41:18Z</time>
      </trkpt>
      <trkpt lat="44.68131" lon="6.86964">
        <ele>2530.9</ele>
        <time>2026-03-25T11:41:19Z</time>
      </trkpt>
      <trkpt lat="44.68131" lon="6.86964">
        <ele>2530.9</ele>
        <time>2026-03-25T11:41:20Z</time>
      </trkpt>
      <trkpt lat="44.68131" lon="6.86964">
        <ele>2530.9</ele>
        <time>2026-03-25T11:41:21Z</time>
      </trkpt>
      <trkpt lat="44.68131" lon="6.86964">
        <ele>2530.9</ele>
        <time>2026-03-25T11:41:22Z</time>
      </trkpt>
      <trkpt lat="44.68131" lon="6.86964">
        <ele>2530.9</ele>
        <time>2026-03-25T11:41:23Z</time>
      </trkpt>
      <trkpt lat="44.68131" lon="6.86964">
        <ele>2530.9</ele>
        <time>2026-03-25T11:41:24Z</time>
      </trkpt>
      <trkpt lat="44.68131" lon="6.86964">
        <ele>2530.9</ele>
        <time>2026-03-25T11:41:25Z</time>
      </trkpt>
      <trkpt lat="44.68131" lon="6.86964">
        <ele>2530.9</ele>
        <time>2026-03-25T11:41:26Z</time>
      </trkpt>
      <trkpt lat="44.68131" lon="6.86964">
        <ele>2530.9</ele>
        <time>2026-03-25T11:41:27Z</time>
      </trkpt>
      <trkpt lat="44.68131" lon="6.86964">
        <ele>2530.9</ele>
        <time>2026-03-25T11:41:28Z</time>
      </trkpt>
      <trkpt lat="44.68131" lon="6.86964">
        <ele>2530.9</ele>
        <time>2026-03-25T11:41:29Z</time>
      </trkpt>
      <trkpt lat="44.68131" lon="6.86964">
        <ele>2530.9</ele>
        <time>2026-03-25T11:41:30Z</time>
      </trkpt>
      <trkpt lat="44.68131" lon="6.86964">
        <ele>2530.9</ele>
        <time>2026-03-25T11:41:31Z</time>
      </trkpt>
      <trkpt lat="44.68131" lon="6.86964">
        <ele>2530.9</ele>
        <time>2026-03-25T11:41:32Z</time>
      </trkpt>
      <trkpt lat="44.68131" lon="6.86964">
        <ele>2530.9</ele>
        <time>2026-03-25T11:41:33Z</time>
      </trkpt>
      <trkpt lat="44.68131" lon="6.86964">
        <ele>2530.9</ele>
        <time>2026-03-25T11:41:34Z</time>
      </trkpt>
      <trkpt lat="44.68131" lon="6.86964">
        <ele>2530.9</ele>
        <time>2026-03-25T11:41:35Z</time>
      </trkpt>
      <trkpt lat="44.68131" lon="6.86964">
        <ele>2530.9</ele>
        <time>2026-03-25T11:41:36Z</time>
      </trkpt>
      <trkpt lat="44.68131" lon="6.86964">
        <ele>2530.9</ele>
        <time>2026-03-25T11:41:37Z</time>
      </trkpt>
      <trkpt lat="44.68131" lon="6.86964">
        <ele>2530.9</ele>
        <time>2026-03-25T11:41:38Z</time>
      </trkpt>
      <trkpt lat="44.68131" lon="6.86964">
        <ele>2530.9</ele>
        <time>2026-03-25T11:41:39Z</time>
      </trkpt>
      <trkpt lat="44.68131" lon="6.86964">
        <ele>2530.9</ele>
        <time>2026-03-25T11:41:40Z</time>
      </trkpt>
      <trkpt lat="44.68131" lon="6.86964">
        <ele>2530.9</ele>
        <time>2026-03-25T11:41:41Z</time>
      </trkpt>
      <trkpt lat="44.68131" lon="6.86964">
        <ele>2530.9</ele>
        <time>2026-03-25T11:41:42Z</time>
      </trkpt>
      <trkpt lat="44.68131" lon="6.86964">
        <ele>2530.9</ele>
        <time>2026-03-25T11:41:43Z</time>
      </trkpt>
      <trkpt lat="44.68131" lon="6.86964">
        <ele>2530.9</ele>
        <time>2026-03-25T11:41:44Z</time>
      </trkpt>
      <trkpt lat="44.68131" lon="6.86964">
        <ele>2530.9</ele>
        <time>2026-03-25T11:41:45Z</time>
      </trkpt>
      <trkpt lat="44.68131" lon="6.86964">
        <ele>2530.9</ele>
        <time>2026-03-25T11:41:46Z</time>
      </trkpt>
      <trkpt lat="44.68131" lon="6.86964">
        <ele>2530.9</ele>
        <time>2026-03-25T11:41:47Z</time>
      </trkpt>
      <trkpt lat="44.68131" lon="6.86964">
        <ele>2530.9</ele>
        <time>2026-03-25T11:41:48Z</time>
      </trkpt>
      <trkpt lat="44.68131" lon="6.86964">
        <ele>2530.9</ele>
        <time>2026-03-25T11:41:49Z</time>
      </trkpt>
      <trkpt lat="44.68131" lon="6.86964">
        <ele>2530.9</ele>
        <time>2026-03-25T11:41:50Z</time>
      </trkpt>
      <trkpt lat="44.68131" lon="6.86964">
        <ele>2530.9</ele>
        <time>2026-03-25T11:41:51Z</time>
      </trkpt>
      <trkpt lat="44.68131" lon="6.86964">
        <ele>2530.9</ele>
        <time>2026-03-25T11:41:52Z</time>
      </trkpt>
      <trkpt lat="44.68131" lon="6.86964">
        <ele>2530.9</ele>
        <time>2026-03-25T11:41:53Z</time>
      </trkpt>
      <trkpt lat="44.68131" lon="6.86964">
        <ele>2530.9</ele>
        <time>2026-03-25T11:41:54Z</time>
      </trkpt>
      <trkpt lat="44.68131" lon="6.86964">
        <ele>2530.9</ele>
        <time>2026-03-25T11:41:55Z</time>
      </trkpt>
      <trkpt lat="44.68131" lon="6.86964">
        <ele>2530.9</ele>
        <time>2026-03-25T11:41:56Z</time>
      </trkpt>
      <trkpt lat="44.68131" lon="6.86964">
        <ele>2530.9</ele>
        <time>2026-03-25T11:41:57Z</time>
      </trkpt>
      <trkpt lat="44.68131" lon="6.86964">
        <ele>2530.9</ele>
        <time>2026-03-25T11:41:58Z</time>
      </trkpt>
      <trkpt lat="44.68131" lon="6.86964">
        <ele>2530.9</ele>
        <time>2026-03-25T11:41:59Z</time>
      </trkpt>
      <trkpt lat="44.68131" lon="6.86964">
        <ele>2530.9</ele>
        <time>2026-03-25T11:42:00Z</time>
      </trkpt>
      <trkpt lat="44.68131" lon="6.86964">
        <ele>2530.9</ele>
        <time>2026-03-25T11:42:01Z</time>
      </trkpt>
      <trkpt lat="44.68131" lon="6.86964">
        <ele>2530.9</ele>
        <time>2026-03-25T11:42:02Z</time>
      </trkpt>
      <trkpt lat="44.68131" lon="6.86964">
        <ele>2530.9</ele>
        <time>2026-03-25T11:42:03Z</time>
      </trkpt>
      <trkpt lat="44.68131" lon="6.86964">
        <ele>2530.9</ele>
        <time>2026-03-25T11:42:04Z</time>
      </trkpt>
      <trkpt lat="44.68131" lon="6.86964">
        <ele>2530.9</ele>
        <time>2026-03-25T11:42:05Z</time>
      </trkpt>
      <trkpt lat="44.68131" lon="6.86964">
        <ele>2530.9</ele>
        <time>2026-03-25T11:42:06Z</time>
      </trkpt>
      <trkpt lat="44.68131" lon="6.86964">
        <ele>2530.9</ele>
        <time>2026-03-25T11:42:07Z</time>
      </trkpt>
      <trkpt lat="44.68131" lon="6.86965">
        <ele>2530.9</ele>
        <time>2026-03-25T11:42:08Z</time>
      </trkpt>
      <trkpt lat="44.68131" lon="6.86965">
        <ele>2530.9</ele>
        <time>2026-03-25T11:42:09Z</time>
      </trkpt>
      <trkpt lat="44.68131" lon="6.86965">
        <ele>2530.9</ele>
        <time>2026-03-25T11:42:10Z</time>
      </trkpt>
      <trkpt lat="44.68131" lon="6.86965">
        <ele>2530.9</ele>
        <time>2026-03-25T11:42:11Z</time>
      </trkpt>
      <trkpt lat="44.68131" lon="6.86965">
        <ele>2530.9</ele>
        <time>2026-03-25T11:42:12Z</time>
      </trkpt>
      <trkpt lat="44.68131" lon="6.86965">
        <ele>2530.9</ele>
        <time>2026-03-25T11:42:13Z</time>
      </trkpt>
      <trkpt lat="44.68131" lon="6.86965">
        <ele>2530.9</ele>
        <time>2026-03-25T11:42:14Z</time>
      </trkpt>
      <trkpt lat="44.68131" lon="6.86965">
        <ele>2530.9</ele>
        <time>2026-03-25T11:42:15Z</time>
      </trkpt>
      <trkpt lat="44.68131" lon="6.86965">
        <ele>2530.9</ele>
        <time>2026-03-25T11:42:16Z</time>
      </trkpt>
      <trkpt lat="44.68131" lon="6.86965">
        <ele>2530.9</ele>
        <time>2026-03-25T11:42:17Z</time>
      </trkpt>
      <trkpt lat="44.68131" lon="6.86965">
        <ele>2530.8</ele>
        <time>2026-03-25T11:42:18Z</time>
      </trkpt>
      <trkpt lat="44.68131" lon="6.86965">
        <ele>2530.8</ele>
        <time>2026-03-25T11:42:19Z</time>
      </trkpt>
      <trkpt lat="44.68131" lon="6.86965">
        <ele>2530.8</ele>
        <time>2026-03-25T11:42:20Z</time>
      </trkpt>
      <trkpt lat="44.68131" lon="6.86965">
        <ele>2530.8</ele>
        <time>2026-03-25T11:42:21Z</time>
      </trkpt>
      <trkpt lat="44.68131" lon="6.86965">
        <ele>2530.8</ele>
        <time>2026-03-25T11:42:22Z</time>
      </trkpt>
      <trkpt lat="44.68131" lon="6.86965">
        <ele>2530.8</ele>
        <time>2026-03-25T11:42:23Z</time>
      </trkpt>
      <trkpt lat="44.68131" lon="6.86965">
        <ele>2530.8</ele>
        <time>2026-03-25T11:42:24Z</time>
      </trkpt>
      <trkpt lat="44.68131" lon="6.86965">
        <ele>2530.8</ele>
        <time>2026-03-25T11:42:25Z</time>
      </trkpt>
      <trkpt lat="44.68131" lon="6.86965">
        <ele>2530.8</ele>
        <time>2026-03-25T11:42:26Z</time>
      </trkpt>
      <trkpt lat="44.68131" lon="6.86965">
        <ele>2530.8</ele>
        <time>2026-03-25T11:42:27Z</time>
      </trkpt>
      <trkpt lat="44.68131" lon="6.86965">
        <ele>2530.8</ele>
        <time>2026-03-25T11:42:28Z</time>
      </trkpt>
      <trkpt lat="44.68131" lon="6.86965">
        <ele>2530.8</ele>
        <time>2026-03-25T11:42:29Z</time>
      </trkpt>
      <trkpt lat="44.68131" lon="6.86965">
        <ele>2530.8</ele>
        <time>2026-03-25T11:42:30Z</time>
      </trkpt>
      <trkpt lat="44.68131" lon="6.86965">
        <ele>2530.8</ele>
        <time>2026-03-25T11:42:31Z</time>
      </trkpt>
      <trkpt lat="44.68131" lon="6.86965">
        <ele>2530.8</ele>
        <time>2026-03-25T11:42:32Z</time>
      </trkpt>
      <trkpt lat="44.68131" lon="6.86964">
        <ele>2530.8</ele>
        <time>2026-03-25T11:42:33Z</time>
      </trkpt>
      <trkpt lat="44.68131" lon="6.86964">
        <ele>2530.8</ele>
        <time>2026-03-25T11:42:34Z</time>
      </trkpt>
      <trkpt lat="44.68131" lon="6.86964">
        <ele>2530.8</ele>
        <time>2026-03-25T11:42:35Z</time>
      </trkpt>
      <trkpt lat="44.68131" lon="6.86964">
        <ele>2530.8</ele>
        <time>2026-03-25T11:42:36Z</time>
      </trkpt>
      <trkpt lat="44.68131" lon="6.86964">
        <ele>2530.8</ele>
        <time>2026-03-25T11:42:37Z</time>
      </trkpt>
      <trkpt lat="44.68131" lon="6.86964">
        <ele>2530.8</ele>
        <time>2026-03-25T11:42:38Z</time>
      </trkpt>
      <trkpt lat="44.68131" lon="6.86964">
        <ele>2530.8</ele>
        <time>2026-03-25T11:42:39Z</time>
      </trkpt>
      <trkpt lat="44.68131" lon="6.86964">
        <ele>2530.8</ele>
        <time>2026-03-25T11:42:40Z</time>
      </trkpt>
      <trkpt lat="44.68131" lon="6.86964">
        <ele>2530.8</ele>
        <time>2026-03-25T11:42:41Z</time>
      </trkpt>
      <trkpt lat="44.68131" lon="6.86964">
        <ele>2530.8</ele>
        <time>2026-03-25T11:42:42Z</time>
      </trkpt>
      <trkpt lat="44.68131" lon="6.86964">
        <ele>2530.8</ele>
        <time>2026-03-25T11:42:43Z</time>
      </trkpt>
      <trkpt lat="44.68131" lon="6.86964">
        <ele>2530.8</ele>
        <time>2026-03-25T11:42:44Z</time>
      </trkpt>
      <trkpt lat="44.68131" lon="6.86964">
        <ele>2530.8</ele>
        <time>2026-03-25T11:42:45Z</time>
      </trkpt>
      <trkpt lat="44.68131" lon="6.86965">
        <ele>2530.8</ele>
        <time>2026-03-25T11:42:46Z</time>
      </trkpt>
      <trkpt lat="44.68131" lon="6.86965">
        <ele>2530.8</ele>
        <time>2026-03-25T11:42:47Z</time>
      </trkpt>
      <trkpt lat="44.68131" lon="6.86965">
        <ele>2530.8</ele>
        <time>2026-03-25T11:42:48Z</time>
      </trkpt>
      <trkpt lat="44.68131" lon="6.86965">
        <ele>2530.8</ele>
        <time>2026-03-25T11:42:49Z</time>
      </trkpt>
      <trkpt lat="44.68131" lon="6.86965">
        <ele>2530.8</ele>
        <time>2026-03-25T11:42:50Z</time>
      </trkpt>
      <trkpt lat="44.68131" lon="6.86965">
        <ele>2530.8</ele>
        <time>2026-03-25T11:42:51Z</time>
      </trkpt>
      <trkpt lat="44.68131" lon="6.86965">
        <ele>2530.8</ele>
        <time>2026-03-25T11:42:52Z</time>
      </trkpt>
      <trkpt lat="44.68131" lon="6.86965">
        <ele>2530.8</ele>
        <time>2026-03-25T11:42:53Z</time>
      </trkpt>
      <trkpt lat="44.68131" lon="6.86965">
        <ele>2530.8</ele>
        <time>2026-03-25T11:42:54Z</time>
      </trkpt>
      <trkpt lat="44.68131" lon="6.86965">
        <ele>2530.8</ele>
        <time>2026-03-25T11:42:55Z</time>
      </trkpt>
      <trkpt lat="44.68131" lon="6.86965">
        <ele>2530.8</ele>
        <time>2026-03-25T11:42:56Z</time>
      </trkpt>
      <trkpt lat="44.68131" lon="6.86965">
        <ele>2530.8</ele>
        <time>2026-03-25T11:42:57Z</time>
      </trkpt>
      <trkpt lat="44.68131" lon="6.86965">
        <ele>2530.8</ele>
        <time>2026-03-25T11:42:58Z</time>
      </trkpt>
      <trkpt lat="44.68131" lon="6.86965">
        <ele>2530.8</ele>
        <time>2026-03-25T11:42:59Z</time>
      </trkpt>
      <trkpt lat="44.68131" lon="6.86965">
        <ele>2530.8</ele>
        <time>2026-03-25T11:43:00Z</time>
      </trkpt>
      <trkpt lat="44.68131" lon="6.86965">
        <ele>2530.8</ele>
        <time>2026-03-25T11:43:01Z</time>
      </trkpt>
      <trkpt lat="44.68131" lon="6.86965">
        <ele>2530.8</ele>
        <time>2026-03-25T11:43:02Z</time>
      </trkpt>
      <trkpt lat="44.68131" lon="6.86965">
        <ele>2530.8</ele>
        <time>2026-03-25T11:43:03Z</time>
      </trkpt>
      <trkpt lat="44.68131" lon="6.86965">
        <ele>2530.8</ele>
        <time>2026-03-25T11:43:04Z</time>
      </trkpt>
      <trkpt lat="44.68131" lon="6.86965">
        <ele>2530.8</ele>
        <time>2026-03-25T11:43:05Z</time>
      </trkpt>
      <trkpt lat="44.68131" lon="6.86965">
        <ele>2530.8</ele>
        <time>2026-03-25T11:43:06Z</time>
      </trkpt>
      <trkpt lat="44.68131" lon="6.86965">
        <ele>2530.8</ele>
        <time>2026-03-25T11:43:07Z</time>
      </trkpt>
      <trkpt lat="44.68131" lon="6.86965">
        <ele>2530.8</ele>
        <time>2026-03-25T11:43:08Z</time>
      </trkpt>
      <trkpt lat="44.68131" lon="6.86965">
        <ele>2530.8</ele>
        <time>2026-03-25T11:43:09Z</time>
      </trkpt>
      <trkpt lat="44.68131" lon="6.86965">
        <ele>2530.8</ele>
        <time>2026-03-25T11:43:10Z</time>
      </trkpt>
      <trkpt lat="44.68131" lon="6.86965">
        <ele>2530.8</ele>
        <time>2026-03-25T11:43:11Z</time>
      </trkpt>
      <trkpt lat="44.68131" lon="6.86965">
        <ele>2530.8</ele>
        <time>2026-03-25T11:43:12Z</time>
      </trkpt>
      <trkpt lat="44.68131" lon="6.86965">
        <ele>2530.8</ele>
        <time>2026-03-25T11:43:13Z</time>
      </trkpt>
      <trkpt lat="44.68131" lon="6.86965">
        <ele>2530.8</ele>
        <time>2026-03-25T11:43:14Z</time>
      </trkpt>
      <trkpt lat="44.68131" lon="6.86965">
        <ele>2530.8</ele>
        <time>2026-03-25T11:43:15Z</time>
      </trkpt>
      <trkpt lat="44.68131" lon="6.86965">
        <ele>2530.8</ele>
        <time>2026-03-25T11:43:16Z</time>
      </trkpt>
      <trkpt lat="44.68131" lon="6.86965">
        <ele>2530.8</ele>
        <time>2026-03-25T11:43:17Z</time>
      </trkpt>
      <trkpt lat="44.68131" lon="6.86965">
        <ele>2530.8</ele>
        <time>2026-03-25T11:43:18Z</time>
      </trkpt>
      <trkpt lat="44.68131" lon="6.86965">
        <ele>2530.8</ele>
        <time>2026-03-25T11:43:19Z</time>
      </trkpt>
      <trkpt lat="44.68131" lon="6.86965">
        <ele>2530.8</ele>
        <time>2026-03-25T11:43:20Z</time>
      </trkpt>
      <trkpt lat="44.68131" lon="6.86965">
        <ele>2530.8</ele>
        <time>2026-03-25T11:43:21Z</time>
      </trkpt>
      <trkpt lat="44.68131" lon="6.86965">
        <ele>2530.8</ele>
        <time>2026-03-25T11:43:22Z</time>
      </trkpt>
      <trkpt lat="44.68131" lon="6.86965">
        <ele>2530.8</ele>
        <time>2026-03-25T11:43:23Z</time>
      </trkpt>
      <trkpt lat="44.68131" lon="6.86965">
        <ele>2530.8</ele>
        <time>2026-03-25T11:43:24Z</time>
      </trkpt>
      <trkpt lat="44.68131" lon="6.86965">
        <ele>2530.8</ele>
        <time>2026-03-25T11:43:25Z</time>
      </trkpt>
      <trkpt lat="44.68131" lon="6.86964">
        <ele>2530.8</ele>
        <time>2026-03-25T11:43:26Z</time>
      </trkpt>
      <trkpt lat="44.68131" lon="6.86964">
        <ele>2530.8</ele>
        <time>2026-03-25T11:43:27Z</time>
      </trkpt>
      <trkpt lat="44.68131" lon="6.86964">
        <ele>2530.8</ele>
        <time>2026-03-25T11:43:28Z</time>
      </trkpt>
      <trkpt lat="44.68131" lon="6.86964">
        <ele>2530.7</ele>
        <time>2026-03-25T11:43:29Z</time>
      </trkpt>
      <trkpt lat="44.68131" lon="6.86965">
        <ele>2530.7</ele>
        <time>2026-03-25T11:43:30Z</time>
      </trkpt>
      <trkpt lat="44.68131" lon="6.86965">
        <ele>2530.7</ele>
        <time>2026-03-25T11:43:31Z</time>
      </trkpt>
      <trkpt lat="44.68131" lon="6.86965">
        <ele>2530.7</ele>
        <time>2026-03-25T11:43:32Z</time>
      </trkpt>
      <trkpt lat="44.68132" lon="6.86965">
        <ele>2530.7</ele>
        <time>2026-03-25T11:43:33Z</time>
      </trkpt>
      <trkpt lat="44.68132" lon="6.86965">
        <ele>2530.7</ele>
        <time>2026-03-25T11:43:34Z</time>
      </trkpt>
      <trkpt lat="44.68131" lon="6.86965">
        <ele>2530.7</ele>
        <time>2026-03-25T11:43:35Z</time>
      </trkpt>
      <trkpt lat="44.68131" lon="6.86965">
        <ele>2530.7</ele>
        <time>2026-03-25T11:43:36Z</time>
      </trkpt>
      <trkpt lat="44.68132" lon="6.86965">
        <ele>2530.7</ele>
        <time>2026-03-25T11:43:37Z</time>
      </trkpt>
      <trkpt lat="44.68132" lon="6.86965">
        <ele>2530.7</ele>
        <time>2026-03-25T11:43:38Z</time>
      </trkpt>
      <trkpt lat="44.68131" lon="6.86965">
        <ele>2530.7</ele>
        <time>2026-03-25T11:43:39Z</time>
      </trkpt>
      <trkpt lat="44.68131" lon="6.86965">
        <ele>2530.7</ele>
        <time>2026-03-25T11:43:40Z</time>
      </trkpt>
      <trkpt lat="44.68131" lon="6.86965">
        <ele>2530.7</ele>
        <time>2026-03-25T11:43:41Z</time>
      </trkpt>
      <trkpt lat="44.68131" lon="6.86965">
        <ele>2530.7</ele>
        <time>2026-03-25T11:43:42Z</time>
      </trkpt>
      <trkpt lat="44.68131" lon="6.86965">
        <ele>2530.7</ele>
        <time>2026-03-25T11:43:43Z</time>
      </trkpt>
      <trkpt lat="44.68131" lon="6.86965">
        <ele>2530.7</ele>
        <time>2026-03-25T11:43:44Z</time>
      </trkpt>
      <trkpt lat="44.68131" lon="6.86965">
        <ele>2530.7</ele>
        <time>2026-03-25T11:43:45Z</time>
      </trkpt>
      <trkpt lat="44.68131" lon="6.86965">
        <ele>2530.7</ele>
        <time>2026-03-25T11:43:46Z</time>
      </trkpt>
      <trkpt lat="44.68131" lon="6.86965">
        <ele>2530.7</ele>
        <time>2026-03-25T11:43:47Z</time>
      </trkpt>
      <trkpt lat="44.68131" lon="6.86965">
        <ele>2530.7</ele>
        <time>2026-03-25T11:43:48Z</time>
      </trkpt>
      <trkpt lat="44.68131" lon="6.86965">
        <ele>2530.7</ele>
        <time>2026-03-25T11:43:49Z</time>
      </trkpt>
      <trkpt lat="44.68131" lon="6.86965">
        <ele>2530.7</ele>
        <time>2026-03-25T11:43:50Z</time>
      </trkpt>
      <trkpt lat="44.68131" lon="6.86965">
        <ele>2530.7</ele>
        <time>2026-03-25T11:43:51Z</time>
      </trkpt>
      <trkpt lat="44.68131" lon="6.86965">
        <ele>2530.7</ele>
        <time>2026-03-25T11:43:52Z</time>
      </trkpt>
      <trkpt lat="44.68131" lon="6.86965">
        <ele>2530.7</ele>
        <time>2026-03-25T11:43:53Z</time>
      </trkpt>
      <trkpt lat="44.68131" lon="6.86965">
        <ele>2530.7</ele>
        <time>2026-03-25T11:43:54Z</time>
      </trkpt>
      <trkpt lat="44.68131" lon="6.86965">
        <ele>2530.7</ele>
        <time>2026-03-25T11:43:55Z</time>
      </trkpt>
      <trkpt lat="44.68131" lon="6.86965">
        <ele>2530.7</ele>
        <time>2026-03-25T11:43:56Z</time>
      </trkpt>
      <trkpt lat="44.68131" lon="6.86965">
        <ele>2530.7</ele>
        <time>2026-03-25T11:43:57Z</time>
      </trkpt>
      <trkpt lat="44.68131" lon="6.86965">
        <ele>2530.7</ele>
        <time>2026-03-25T11:43:58Z</time>
      </trkpt>
      <trkpt lat="44.68131" lon="6.86965">
        <ele>2530.7</ele>
        <time>2026-03-25T11:43:59Z</time>
      </trkpt>
      <trkpt lat="44.68131" lon="6.86965">
        <ele>2530.7</ele>
        <time>2026-03-25T11:44:00Z</time>
      </trkpt>
      <trkpt lat="44.68131" lon="6.86965">
        <ele>2530.7</ele>
        <time>2026-03-25T11:44:01Z</time>
      </trkpt>
      <trkpt lat="44.68131" lon="6.86965">
        <ele>2530.7</ele>
        <time>2026-03-25T11:44:02Z</time>
      </trkpt>
      <trkpt lat="44.68131" lon="6.86965">
        <ele>2530.7</ele>
        <time>2026-03-25T11:44:03Z</time>
      </trkpt>
      <trkpt lat="44.68131" lon="6.86965">
        <ele>2530.7</ele>
        <time>2026-03-25T11:44:04Z</time>
      </trkpt>
      <trkpt lat="44.68131" lon="6.86965">
        <ele>2530.7</ele>
        <time>2026-03-25T11:44:05Z</time>
      </trkpt>
      <trkpt lat="44.68131" lon="6.86965">
        <ele>2530.7</ele>
        <time>2026-03-25T11:44:06Z</time>
      </trkpt>
      <trkpt lat="44.68131" lon="6.86965">
        <ele>2530.7</ele>
        <time>2026-03-25T11:44:07Z</time>
      </trkpt>
      <trkpt lat="44.68131" lon="6.86965">
        <ele>2530.7</ele>
        <time>2026-03-25T11:44:08Z</time>
      </trkpt>
      <trkpt lat="44.68131" lon="6.86965">
        <ele>2530.7</ele>
        <time>2026-03-25T11:44:09Z</time>
      </trkpt>
      <trkpt lat="44.68131" lon="6.86965">
        <ele>2530.7</ele>
        <time>2026-03-25T11:44:10Z</time>
      </trkpt>
      <trkpt lat="44.68131" lon="6.86965">
        <ele>2530.7</ele>
        <time>2026-03-25T11:44:11Z</time>
      </trkpt>
      <trkpt lat="44.68131" lon="6.86965">
        <ele>2530.7</ele>
        <time>2026-03-25T11:44:12Z</time>
      </trkpt>
      <trkpt lat="44.68131" lon="6.86965">
        <ele>2530.7</ele>
        <time>2026-03-25T11:44:13Z</time>
      </trkpt>
      <trkpt lat="44.68131" lon="6.86965">
        <ele>2530.7</ele>
        <time>2026-03-25T11:44:14Z</time>
      </trkpt>
      <trkpt lat="44.68131" lon="6.86965">
        <ele>2530.7</ele>
        <time>2026-03-25T11:44:15Z</time>
      </trkpt>
      <trkpt lat="44.68131" lon="6.86965">
        <ele>2530.7</ele>
        <time>2026-03-25T11:44:16Z</time>
      </trkpt>
      <trkpt lat="44.68131" lon="6.86965">
        <ele>2530.7</ele>
        <time>2026-03-25T11:44:17Z</time>
      </trkpt>
      <trkpt lat="44.68131" lon="6.86965">
        <ele>2530.7</ele>
        <time>2026-03-25T11:44:18Z</time>
      </trkpt>
      <trkpt lat="44.68131" lon="6.86965">
        <ele>2530.7</ele>
        <time>2026-03-25T11:44:19Z</time>
      </trkpt>
      <trkpt lat="44.68131" lon="6.86965">
        <ele>2530.7</ele>
        <time>2026-03-25T11:44:20Z</time>
      </trkpt>
      <trkpt lat="44.68131" lon="6.86965">
        <ele>2530.7</ele>
        <time>2026-03-25T11:44:21Z</time>
      </trkpt>
      <trkpt lat="44.68131" lon="6.86965">
        <ele>2530.7</ele>
        <time>2026-03-25T11:44:22Z</time>
      </trkpt>
      <trkpt lat="44.68131" lon="6.86965">
        <ele>2530.7</ele>
        <time>2026-03-25T11:44:23Z</time>
      </trkpt>
      <trkpt lat="44.68131" lon="6.86965">
        <ele>2530.7</ele>
        <time>2026-03-25T11:44:24Z</time>
      </trkpt>
      <trkpt lat="44.68131" lon="6.86965">
        <ele>2530.7</ele>
        <time>2026-03-25T11:44:25Z</time>
      </trkpt>
      <trkpt lat="44.68131" lon="6.86965">
        <ele>2530.7</ele>
        <time>2026-03-25T11:44:26Z</time>
      </trkpt>
      <trkpt lat="44.68131" lon="6.86965">
        <ele>2530.7</ele>
        <time>2026-03-25T11:44:27Z</time>
      </trkpt>
      <trkpt lat="44.68131" lon="6.86965">
        <ele>2530.7</ele>
        <time>2026-03-25T11:44:28Z</time>
      </trkpt>
      <trkpt lat="44.68131" lon="6.86965">
        <ele>2530.7</ele>
        <time>2026-03-25T11:44:29Z</time>
      </trkpt>
      <trkpt lat="44.68131" lon="6.86965">
        <ele>2530.7</ele>
        <time>2026-03-25T11:44:30Z</time>
      </trkpt>
      <trkpt lat="44.68131" lon="6.86965">
        <ele>2530.7</ele>
        <time>2026-03-25T11:44:31Z</time>
      </trkpt>
      <trkpt lat="44.68131" lon="6.86965">
        <ele>2530.7</ele>
        <time>2026-03-25T11:44:32Z</time>
      </trkpt>
      <trkpt lat="44.68131" lon="6.86965">
        <ele>2530.7</ele>
        <time>2026-03-25T11:44:33Z</time>
      </trkpt>
      <trkpt lat="44.68131" lon="6.86965">
        <ele>2530.7</ele>
        <time>2026-03-25T11:44:34Z</time>
      </trkpt>
      <trkpt lat="44.68131" lon="6.86965">
        <ele>2530.7</ele>
        <time>2026-03-25T11:44:35Z</time>
      </trkpt>
      <trkpt lat="44.68131" lon="6.86965">
        <ele>2530.7</ele>
        <time>2026-03-25T11:44:36Z</time>
      </trkpt>
      <trkpt lat="44.68131" lon="6.86965">
        <ele>2530.7</ele>
        <time>2026-03-25T11:44:37Z</time>
      </trkpt>
      <trkpt lat="44.68131" lon="6.86965">
        <ele>2530.7</ele>
        <time>2026-03-25T11:44:38Z</time>
      </trkpt>
      <trkpt lat="44.68131" lon="6.86965">
        <ele>2530.7</ele>
        <time>2026-03-25T11:44:39Z</time>
      </trkpt>
      <trkpt lat="44.68131" lon="6.86965">
        <ele>2530.7</ele>
        <time>2026-03-25T11:44:40Z</time>
      </trkpt>
      <trkpt lat="44.68131" lon="6.86965">
        <ele>2530.6</ele>
        <time>2026-03-25T11:44:41Z</time>
      </trkpt>
      <trkpt lat="44.68131" lon="6.86965">
        <ele>2530.6</ele>
        <time>2026-03-25T11:44:42Z</time>
      </trkpt>
      <trkpt lat="44.68131" lon="6.86965">
        <ele>2530.6</ele>
        <time>2026-03-25T11:44:43Z</time>
      </trkpt>
      <trkpt lat="44.68131" lon="6.86965">
        <ele>2530.6</ele>
        <time>2026-03-25T11:44:44Z</time>
      </trkpt>
      <trkpt lat="44.68131" lon="6.86965">
        <ele>2530.6</ele>
        <time>2026-03-25T11:44:45Z</time>
      </trkpt>
      <trkpt lat="44.68131" lon="6.86965">
        <ele>2530.6</ele>
        <time>2026-03-25T11:44:46Z</time>
      </trkpt>
      <trkpt lat="44.68131" lon="6.86965">
        <ele>2530.6</ele>
        <time>2026-03-25T11:44:47Z</time>
      </trkpt>
      <trkpt lat="44.68131" lon="6.86965">
        <ele>2530.6</ele>
        <time>2026-03-25T11:44:48Z</time>
      </trkpt>
      <trkpt lat="44.68131" lon="6.86965">
        <ele>2530.6</ele>
        <time>2026-03-25T11:44:49Z</time>
      </trkpt>
      <trkpt lat="44.68131" lon="6.86965">
        <ele>2530.6</ele>
        <time>2026-03-25T11:44:50Z</time>
      </trkpt>
      <trkpt lat="44.68131" lon="6.86965">
        <ele>2530.6</ele>
        <time>2026-03-25T11:44:51Z</time>
      </trkpt>
      <trkpt lat="44.68132" lon="6.86965">
        <ele>2530.6</ele>
        <time>2026-03-25T11:44:52Z</time>
      </trkpt>
      <trkpt lat="44.68132" lon="6.86965">
        <ele>2529.9</ele>
        <time>2026-03-25T11:44:53Z</time>
      </trkpt>
      <trkpt lat="44.68132" lon="6.86965">
        <ele>2529.9</ele>
        <time>2026-03-25T11:44:54Z</time>
      </trkpt>
      <trkpt lat="44.68132" lon="6.86965">
        <ele>2529.9</ele>
        <time>2026-03-25T11:44:55Z</time>
      </trkpt>
      <trkpt lat="44.68132" lon="6.86965">
        <ele>2529.9</ele>
        <time>2026-03-25T11:44:56Z</time>
      </trkpt>
      <trkpt lat="44.68133" lon="6.86965">
        <ele>2529.9</ele>
        <time>2026-03-25T11:44:57Z</time>
      </trkpt>
      <trkpt lat="44.68132" lon="6.86965">
        <ele>2529.9</ele>
        <time>2026-03-25T11:44:58Z</time>
      </trkpt>
      <trkpt lat="44.68132" lon="6.86965">
        <ele>2529.9</ele>
        <time>2026-03-25T11:44:59Z</time>
      </trkpt>
      <trkpt lat="44.68132" lon="6.86965">
        <ele>2529.9</ele>
        <time>2026-03-25T11:45:00Z</time>
      </trkpt>
      <trkpt lat="44.68133" lon="6.86965">
        <ele>2529.9</ele>
        <time>2026-03-25T11:45:01Z</time>
      </trkpt>
      <trkpt lat="44.68133" lon="6.86964">
        <ele>2529.9</ele>
        <time>2026-03-25T11:45:02Z</time>
      </trkpt>
      <trkpt lat="44.68133" lon="6.86964">
        <ele>2529.9</ele>
        <time>2026-03-25T11:45:03Z</time>
      </trkpt>
      <trkpt lat="44.68133" lon="6.86964">
        <ele>2529.9</ele>
        <time>2026-03-25T11:45:04Z</time>
      </trkpt>
      <trkpt lat="44.68133" lon="6.86964">
        <ele>2529.9</ele>
        <time>2026-03-25T11:45:05Z</time>
      </trkpt>
      <trkpt lat="44.68133" lon="6.86964">
        <ele>2529.9</ele>
        <time>2026-03-25T11:45:06Z</time>
      </trkpt>
      <trkpt lat="44.68133" lon="6.86964">
        <ele>2529.9</ele>
        <time>2026-03-25T11:45:07Z</time>
      </trkpt>
      <trkpt lat="44.68133" lon="6.86964">
        <ele>2529.9</ele>
        <time>2026-03-25T11:45:08Z</time>
      </trkpt>
      <trkpt lat="44.68133" lon="6.86964">
        <ele>2529.9</ele>
        <time>2026-03-25T11:45:09Z</time>
      </trkpt>
      <trkpt lat="44.68133" lon="6.86964">
        <ele>2529.9</ele>
        <time>2026-03-25T11:45:10Z</time>
      </trkpt>
      <trkpt lat="44.68133" lon="6.86964">
        <ele>2529.9</ele>
        <time>2026-03-25T11:45:11Z</time>
      </trkpt>
      <trkpt lat="44.68133" lon="6.86964">
        <ele>2529.9</ele>
        <time>2026-03-25T11:45:12Z</time>
      </trkpt>
      <trkpt lat="44.68133" lon="6.86964">
        <ele>2529.9</ele>
        <time>2026-03-25T11:45:13Z</time>
      </trkpt>
      <trkpt lat="44.68133" lon="6.86964">
        <ele>2529.9</ele>
        <time>2026-03-25T11:45:14Z</time>
      </trkpt>
      <trkpt lat="44.68133" lon="6.86964">
        <ele>2529.9</ele>
        <time>2026-03-25T11:45:15Z</time>
      </trkpt>
      <trkpt lat="44.68133" lon="6.86964">
        <ele>2529.9</ele>
        <time>2026-03-25T11:45:16Z</time>
      </trkpt>
      <trkpt lat="44.68133" lon="6.86964">
        <ele>2529.9</ele>
        <time>2026-03-25T11:45:17Z</time>
      </trkpt>
      <trkpt lat="44.68133" lon="6.86964">
        <ele>2529.9</ele>
        <time>2026-03-25T11:45:18Z</time>
      </trkpt>
      <trkpt lat="44.68133" lon="6.86964">
        <ele>2529.9</ele>
        <time>2026-03-25T11:45:19Z</time>
      </trkpt>
      <trkpt lat="44.68133" lon="6.86964">
        <ele>2529.9</ele>
        <time>2026-03-25T11:45:20Z</time>
      </trkpt>
      <trkpt lat="44.68133" lon="6.86964">
        <ele>2529.9</ele>
        <time>2026-03-25T11:45:21Z</time>
      </trkpt>
      <trkpt lat="44.68133" lon="6.86964">
        <ele>2529.9</ele>
        <time>2026-03-25T11:45:22Z</time>
      </trkpt>
      <trkpt lat="44.68133" lon="6.86964">
        <ele>2529.9</ele>
        <time>2026-03-25T11:45:23Z</time>
      </trkpt>
      <trkpt lat="44.68133" lon="6.86964">
        <ele>2529.9</ele>
        <time>2026-03-25T11:45:24Z</time>
      </trkpt>
      <trkpt lat="44.68133" lon="6.86964">
        <ele>2529.9</ele>
        <time>2026-03-25T11:45:25Z</time>
      </trkpt>
      <trkpt lat="44.68133" lon="6.86964">
        <ele>2529.9</ele>
        <time>2026-03-25T11:45:26Z</time>
      </trkpt>
      <trkpt lat="44.68133" lon="6.86964">
        <ele>2529.9</ele>
        <time>2026-03-25T11:45:27Z</time>
      </trkpt>
      <trkpt lat="44.68133" lon="6.86964">
        <ele>2529.9</ele>
        <time>2026-03-25T11:45:28Z</time>
      </trkpt>
      <trkpt lat="44.68133" lon="6.86964">
        <ele>2529.9</ele>
        <time>2026-03-25T11:45:29Z</time>
      </trkpt>
      <trkpt lat="44.68133" lon="6.86964">
        <ele>2529.9</ele>
        <time>2026-03-25T11:45:30Z</time>
      </trkpt>
      <trkpt lat="44.68133" lon="6.86964">
        <ele>2529.9</ele>
        <time>2026-03-25T11:45:31Z</time>
      </trkpt>
      <trkpt lat="44.68133" lon="6.86964">
        <ele>2529.9</ele>
        <time>2026-03-25T11:45:32Z</time>
      </trkpt>
      <trkpt lat="44.68133" lon="6.86964">
        <ele>2529.9</ele>
        <time>2026-03-25T11:45:33Z</time>
      </trkpt>
      <trkpt lat="44.68133" lon="6.86964">
        <ele>2529.9</ele>
        <time>2026-03-25T11:45:34Z</time>
      </trkpt>
      <trkpt lat="44.68133" lon="6.86964">
        <ele>2529.9</ele>
        <time>2026-03-25T11:45:35Z</time>
      </trkpt>
      <trkpt lat="44.68133" lon="6.86964">
        <ele>2529.9</ele>
        <time>2026-03-25T11:45:36Z</time>
      </trkpt>
      <trkpt lat="44.68133" lon="6.86963">
        <ele>2529.9</ele>
        <time>2026-03-25T11:45:37Z</time>
      </trkpt>
      <trkpt lat="44.68133" lon="6.86963">
        <ele>2529.9</ele>
        <time>2026-03-25T11:45:38Z</time>
      </trkpt>
      <trkpt lat="44.68133" lon="6.86963">
        <ele>2529.9</ele>
        <time>2026-03-25T11:45:39Z</time>
      </trkpt>
      <trkpt lat="44.68133" lon="6.86963">
        <ele>2529.9</ele>
        <time>2026-03-25T11:45:40Z</time>
      </trkpt>
      <trkpt lat="44.68132" lon="6.86963">
        <ele>2529.9</ele>
        <time>2026-03-25T11:45:41Z</time>
      </trkpt>
      <trkpt lat="44.68132" lon="6.86963">
        <ele>2529.8</ele>
        <time>2026-03-25T11:45:42Z</time>
      </trkpt>
      <trkpt lat="44.68132" lon="6.86963">
        <ele>2529.8</ele>
        <time>2026-03-25T11:45:43Z</time>
      </trkpt>
      <trkpt lat="44.68132" lon="6.86963">
        <ele>2529.8</ele>
        <time>2026-03-25T11:45:44Z</time>
      </trkpt>
      <trkpt lat="44.68132" lon="6.86963">
        <ele>2529.8</ele>
        <time>2026-03-25T11:45:45Z</time>
      </trkpt>
      <trkpt lat="44.68132" lon="6.86963">
        <ele>2529.8</ele>
        <time>2026-03-25T11:45:46Z</time>
      </trkpt>
      <trkpt lat="44.68132" lon="6.86963">
        <ele>2529.8</ele>
        <time>2026-03-25T11:45:47Z</time>
      </trkpt>
      <trkpt lat="44.68132" lon="6.86963">
        <ele>2529.8</ele>
        <time>2026-03-25T11:45:48Z</time>
      </trkpt>
      <trkpt lat="44.68132" lon="6.86963">
        <ele>2529.8</ele>
        <time>2026-03-25T11:45:49Z</time>
      </trkpt>
      <trkpt lat="44.68132" lon="6.86963">
        <ele>2529.8</ele>
        <time>2026-03-25T11:45:50Z</time>
      </trkpt>
      <trkpt lat="44.68132" lon="6.86963">
        <ele>2529.8</ele>
        <time>2026-03-25T11:45:51Z</time>
      </trkpt>
      <trkpt lat="44.68132" lon="6.86963">
        <ele>2529.8</ele>
        <time>2026-03-25T11:45:52Z</time>
      </trkpt>
      <trkpt lat="44.68132" lon="6.86963">
        <ele>2529.8</ele>
        <time>2026-03-25T11:45:53Z</time>
      </trkpt>
      <trkpt lat="44.68132" lon="6.86963">
        <ele>2529.8</ele>
        <time>2026-03-25T11:45:54Z</time>
      </trkpt>
      <trkpt lat="44.68132" lon="6.86963">
        <ele>2529.8</ele>
        <time>2026-03-25T11:45:55Z</time>
      </trkpt>
      <trkpt lat="44.68132" lon="6.86963">
        <ele>2529.8</ele>
        <time>2026-03-25T11:45:56Z</time>
      </trkpt>
      <trkpt lat="44.68132" lon="6.86963">
        <ele>2529.8</ele>
        <time>2026-03-25T11:45:57Z</time>
      </trkpt>
      <trkpt lat="44.68133" lon="6.86963">
        <ele>2529.8</ele>
        <time>2026-03-25T11:45:58Z</time>
      </trkpt>
      <trkpt lat="44.68133" lon="6.86963">
        <ele>2530.9</ele>
        <time>2026-03-25T11:45:59Z</time>
      </trkpt>
      <trkpt lat="44.68133" lon="6.86963">
        <ele>2530.9</ele>
        <time>2026-03-25T11:46:00Z</time>
      </trkpt>
      <trkpt lat="44.68133" lon="6.86963">
        <ele>2530.9</ele>
        <time>2026-03-25T11:46:01Z</time>
      </trkpt>
      <trkpt lat="44.68133" lon="6.86963">
        <ele>2530.9</ele>
        <time>2026-03-25T11:46:02Z</time>
      </trkpt>
      <trkpt lat="44.68133" lon="6.86963">
        <ele>2530.9</ele>
        <time>2026-03-25T11:46:03Z</time>
      </trkpt>
      <trkpt lat="44.68133" lon="6.86963">
        <ele>2530.9</ele>
        <time>2026-03-25T11:46:04Z</time>
      </trkpt>
      <trkpt lat="44.68133" lon="6.86963">
        <ele>2530.9</ele>
        <time>2026-03-25T11:46:05Z</time>
      </trkpt>
      <trkpt lat="44.68133" lon="6.86963">
        <ele>2530.9</ele>
        <time>2026-03-25T11:46:06Z</time>
      </trkpt>
      <trkpt lat="44.68133" lon="6.86963">
        <ele>2530.9</ele>
        <time>2026-03-25T11:46:07Z</time>
      </trkpt>
      <trkpt lat="44.68133" lon="6.86963">
        <ele>2530.9</ele>
        <time>2026-03-25T11:46:08Z</time>
      </trkpt>
      <trkpt lat="44.68133" lon="6.86963">
        <ele>2530.9</ele>
        <time>2026-03-25T11:46:09Z</time>
      </trkpt>
      <trkpt lat="44.68133" lon="6.86963">
        <ele>2530.9</ele>
        <time>2026-03-25T11:46:10Z</time>
      </trkpt>
      <trkpt lat="44.68133" lon="6.86963">
        <ele>2530.9</ele>
        <time>2026-03-25T11:46:11Z</time>
      </trkpt>
      <trkpt lat="44.68133" lon="6.86963">
        <ele>2530.9</ele>
        <time>2026-03-25T11:46:12Z</time>
      </trkpt>
      <trkpt lat="44.68133" lon="6.86963">
        <ele>2530.9</ele>
        <time>2026-03-25T11:46:13Z</time>
      </trkpt>
      <trkpt lat="44.68133" lon="6.86963">
        <ele>2530.9</ele>
        <time>2026-03-25T11:46:14Z</time>
      </trkpt>
      <trkpt lat="44.68133" lon="6.86963">
        <ele>2530.9</ele>
        <time>2026-03-25T11:46:15Z</time>
      </trkpt>
      <trkpt lat="44.68133" lon="6.86963">
        <ele>2530.9</ele>
        <time>2026-03-25T11:46:16Z</time>
      </trkpt>
      <trkpt lat="44.68133" lon="6.86963">
        <ele>2530.9</ele>
        <time>2026-03-25T11:46:17Z</time>
      </trkpt>
      <trkpt lat="44.68133" lon="6.86963">
        <ele>2530.9</ele>
        <time>2026-03-25T11:46:18Z</time>
      </trkpt>
      <trkpt lat="44.68133" lon="6.86963">
        <ele>2530.9</ele>
        <time>2026-03-25T11:46:19Z</time>
      </trkpt>
      <trkpt lat="44.68132" lon="6.86963">
        <ele>2529.8</ele>
        <time>2026-03-25T11:46:20Z</time>
      </trkpt>
      <trkpt lat="44.68132" lon="6.86963">
        <ele>2529.8</ele>
        <time>2026-03-25T11:46:21Z</time>
      </trkpt>
      <trkpt lat="44.68132" lon="6.86963">
        <ele>2529.8</ele>
        <time>2026-03-25T11:46:22Z</time>
      </trkpt>
      <trkpt lat="44.68132" lon="6.86963">
        <ele>2529.8</ele>
        <time>2026-03-25T11:46:23Z</time>
      </trkpt>
      <trkpt lat="44.68132" lon="6.86964">
        <ele>2529.8</ele>
        <time>2026-03-25T11:46:24Z</time>
      </trkpt>
      <trkpt lat="44.68132" lon="6.86964">
        <ele>2529.8</ele>
        <time>2026-03-25T11:46:25Z</time>
      </trkpt>
      <trkpt lat="44.68132" lon="6.86964">
        <ele>2529.8</ele>
        <time>2026-03-25T11:46:26Z</time>
      </trkpt>
      <trkpt lat="44.68132" lon="6.86964">
        <ele>2529.8</ele>
        <time>2026-03-25T11:46:27Z</time>
      </trkpt>
      <trkpt lat="44.68132" lon="6.86964">
        <ele>2529.8</ele>
        <time>2026-03-25T11:46:28Z</time>
      </trkpt>
      <trkpt lat="44.68132" lon="6.86964">
        <ele>2529.8</ele>
        <time>2026-03-25T11:46:29Z</time>
      </trkpt>
      <trkpt lat="44.68132" lon="6.86964">
        <ele>2529.8</ele>
        <time>2026-03-25T11:46:30Z</time>
      </trkpt>
      <trkpt lat="44.68132" lon="6.86964">
        <ele>2529.8</ele>
        <time>2026-03-25T11:46:31Z</time>
      </trkpt>
      <trkpt lat="44.68132" lon="6.86964">
        <ele>2529.8</ele>
        <time>2026-03-25T11:46:32Z</time>
      </trkpt>
      <trkpt lat="44.68132" lon="6.86964">
        <ele>2529.8</ele>
        <time>2026-03-25T11:46:33Z</time>
      </trkpt>
      <trkpt lat="44.68132" lon="6.86964">
        <ele>2529.8</ele>
        <time>2026-03-25T11:46:34Z</time>
      </trkpt>
      <trkpt lat="44.68132" lon="6.86964">
        <ele>2529.8</ele>
        <time>2026-03-25T11:46:35Z</time>
      </trkpt>
      <trkpt lat="44.68132" lon="6.86964">
        <ele>2529.8</ele>
        <time>2026-03-25T11:46:36Z</time>
      </trkpt>
      <trkpt lat="44.68132" lon="6.86964">
        <ele>2529.8</ele>
        <time>2026-03-25T11:46:37Z</time>
      </trkpt>
      <trkpt lat="44.68132" lon="6.86964">
        <ele>2529.8</ele>
        <time>2026-03-25T11:46:38Z</time>
      </trkpt>
      <trkpt lat="44.68132" lon="6.86964">
        <ele>2529.8</ele>
        <time>2026-03-25T11:46:39Z</time>
      </trkpt>
      <trkpt lat="44.68132" lon="6.86964">
        <ele>2529.8</ele>
        <time>2026-03-25T11:46:40Z</time>
      </trkpt>
      <trkpt lat="44.68132" lon="6.86964">
        <ele>2529.8</ele>
        <time>2026-03-25T11:46:41Z</time>
      </trkpt>
      <trkpt lat="44.68132" lon="6.86964">
        <ele>2529.8</ele>
        <time>2026-03-25T11:46:42Z</time>
      </trkpt>
      <trkpt lat="44.68132" lon="6.86964">
        <ele>2529.8</ele>
        <time>2026-03-25T11:46:43Z</time>
      </trkpt>
      <trkpt lat="44.68132" lon="6.86963">
        <ele>2529.8</ele>
        <time>2026-03-25T11:46:44Z</time>
      </trkpt>
      <trkpt lat="44.68132" lon="6.86963">
        <ele>2529.8</ele>
        <time>2026-03-25T11:46:45Z</time>
      </trkpt>
      <trkpt lat="44.68132" lon="6.86963">
        <ele>2529.8</ele>
        <time>2026-03-25T11:46:46Z</time>
      </trkpt>
      <trkpt lat="44.68132" lon="6.86963">
        <ele>2529.8</ele>
        <time>2026-03-25T11:46:47Z</time>
      </trkpt>
      <trkpt lat="44.68132" lon="6.86963">
        <ele>2529.8</ele>
        <time>2026-03-25T11:46:48Z</time>
      </trkpt>
      <trkpt lat="44.68133" lon="6.86963">
        <ele>2529.8</ele>
        <time>2026-03-25T11:46:49Z</time>
      </trkpt>
      <trkpt lat="44.68133" lon="6.86963">
        <ele>2529.8</ele>
        <time>2026-03-25T11:46:50Z</time>
      </trkpt>
      <trkpt lat="44.68133" lon="6.86963">
        <ele>2529.8</ele>
        <time>2026-03-25T11:46:51Z</time>
      </trkpt>
      <trkpt lat="44.68133" lon="6.86963">
        <ele>2529.8</ele>
        <time>2026-03-25T11:46:52Z</time>
      </trkpt>
      <trkpt lat="44.68133" lon="6.86963">
        <ele>2529.8</ele>
        <time>2026-03-25T11:46:53Z</time>
      </trkpt>
      <trkpt lat="44.68133" lon="6.86963">
        <ele>2529.7</ele>
        <time>2026-03-25T11:46:54Z</time>
      </trkpt>
      <trkpt lat="44.68133" lon="6.86963">
        <ele>2529.7</ele>
        <time>2026-03-25T11:46:55Z</time>
      </trkpt>
      <trkpt lat="44.68133" lon="6.86963">
        <ele>2530.8</ele>
        <time>2026-03-25T11:46:56Z</time>
      </trkpt>
      <trkpt lat="44.68133" lon="6.86963">
        <ele>2530.8</ele>
        <time>2026-03-25T11:46:57Z</time>
      </trkpt>
      <trkpt lat="44.68133" lon="6.86963">
        <ele>2529.7</ele>
        <time>2026-03-25T11:46:58Z</time>
      </trkpt>
      <trkpt lat="44.68132" lon="6.86963">
        <ele>2529.7</ele>
        <time>2026-03-25T11:46:59Z</time>
      </trkpt>
      <trkpt lat="44.68132" lon="6.86963">
        <ele>2529.7</ele>
        <time>2026-03-25T11:47:00Z</time>
      </trkpt>
      <trkpt lat="44.68132" lon="6.86963">
        <ele>2529.7</ele>
        <time>2026-03-25T11:47:01Z</time>
      </trkpt>
      <trkpt lat="44.68132" lon="6.86963">
        <ele>2529.7</ele>
        <time>2026-03-25T11:47:02Z</time>
      </trkpt>
      <trkpt lat="44.68132" lon="6.86963">
        <ele>2529.7</ele>
        <time>2026-03-25T11:47:03Z</time>
      </trkpt>
      <trkpt lat="44.68132" lon="6.86963">
        <ele>2529.7</ele>
        <time>2026-03-25T11:47:04Z</time>
      </trkpt>
      <trkpt lat="44.68132" lon="6.86963">
        <ele>2529.7</ele>
        <time>2026-03-25T11:47:05Z</time>
      </trkpt>
      <trkpt lat="44.68132" lon="6.86963">
        <ele>2529.7</ele>
        <time>2026-03-25T11:47:06Z</time>
      </trkpt>
      <trkpt lat="44.68132" lon="6.86963">
        <ele>2529.7</ele>
        <time>2026-03-25T11:47:07Z</time>
      </trkpt>
      <trkpt lat="44.68132" lon="6.86963">
        <ele>2529.7</ele>
        <time>2026-03-25T11:47:08Z</time>
      </trkpt>
      <trkpt lat="44.68132" lon="6.86963">
        <ele>2529.7</ele>
        <time>2026-03-25T11:47:09Z</time>
      </trkpt>
      <trkpt lat="44.68132" lon="6.86963">
        <ele>2529.7</ele>
        <time>2026-03-25T11:47:10Z</time>
      </trkpt>
      <trkpt lat="44.68132" lon="6.86963">
        <ele>2529.7</ele>
        <time>2026-03-25T11:47:11Z</time>
      </trkpt>
      <trkpt lat="44.68132" lon="6.86963">
        <ele>2529.7</ele>
        <time>2026-03-25T11:47:12Z</time>
      </trkpt>
      <trkpt lat="44.68132" lon="6.86963">
        <ele>2529.7</ele>
        <time>2026-03-25T11:47:13Z</time>
      </trkpt>
      <trkpt lat="44.68132" lon="6.86963">
        <ele>2529.7</ele>
        <time>2026-03-25T11:47:14Z</time>
      </trkpt>
      <trkpt lat="44.68132" lon="6.86963">
        <ele>2529.7</ele>
        <time>2026-03-25T11:47:15Z</time>
      </trkpt>
      <trkpt lat="44.68132" lon="6.86963">
        <ele>2529.7</ele>
        <time>2026-03-25T11:47:16Z</time>
      </trkpt>
      <trkpt lat="44.68132" lon="6.86963">
        <ele>2529.7</ele>
        <time>2026-03-25T11:47:17Z</time>
      </trkpt>
      <trkpt lat="44.68132" lon="6.86963">
        <ele>2529.7</ele>
        <time>2026-03-25T11:47:18Z</time>
      </trkpt>
      <trkpt lat="44.68132" lon="6.86963">
        <ele>2529.7</ele>
        <time>2026-03-25T11:47:19Z</time>
      </trkpt>
      <trkpt lat="44.68132" lon="6.86963">
        <ele>2529.7</ele>
        <time>2026-03-25T11:47:20Z</time>
      </trkpt>
      <trkpt lat="44.68132" lon="6.86963">
        <ele>2529.7</ele>
        <time>2026-03-25T11:47:21Z</time>
      </trkpt>
      <trkpt lat="44.68132" lon="6.86963">
        <ele>2529.7</ele>
        <time>2026-03-25T11:47:22Z</time>
      </trkpt>
      <trkpt lat="44.68132" lon="6.86963">
        <ele>2529.7</ele>
        <time>2026-03-25T11:47:23Z</time>
      </trkpt>
      <trkpt lat="44.68132" lon="6.86963">
        <ele>2529.7</ele>
        <time>2026-03-25T11:47:24Z</time>
      </trkpt>
      <trkpt lat="44.68132" lon="6.86963">
        <ele>2529.7</ele>
        <time>2026-03-25T11:47:25Z</time>
      </trkpt>
      <trkpt lat="44.68132" lon="6.86963">
        <ele>2529.7</ele>
        <time>2026-03-25T11:47:26Z</time>
      </trkpt>
      <trkpt lat="44.68132" lon="6.86963">
        <ele>2529.7</ele>
        <time>2026-03-25T11:47:27Z</time>
      </trkpt>
      <trkpt lat="44.68132" lon="6.86963">
        <ele>2529.7</ele>
        <time>2026-03-25T11:47:28Z</time>
      </trkpt>
      <trkpt lat="44.68132" lon="6.86963">
        <ele>2529.7</ele>
        <time>2026-03-25T11:47:29Z</time>
      </trkpt>
      <trkpt lat="44.68132" lon="6.86963">
        <ele>2529.7</ele>
        <time>2026-03-25T11:47:30Z</time>
      </trkpt>
      <trkpt lat="44.68132" lon="6.86963">
        <ele>2529.7</ele>
        <time>2026-03-25T11:47:31Z</time>
      </trkpt>
      <trkpt lat="44.68132" lon="6.86963">
        <ele>2529.7</ele>
        <time>2026-03-25T11:47:32Z</time>
      </trkpt>
      <trkpt lat="44.68132" lon="6.86963">
        <ele>2529.7</ele>
        <time>2026-03-25T11:47:33Z</time>
      </trkpt>
      <trkpt lat="44.68132" lon="6.86963">
        <ele>2529.7</ele>
        <time>2026-03-25T11:47:34Z</time>
      </trkpt>
      <trkpt lat="44.68132" lon="6.86963">
        <ele>2529.7</ele>
        <time>2026-03-25T11:47:35Z</time>
      </trkpt>
      <trkpt lat="44.68132" lon="6.86963">
        <ele>2529.7</ele>
        <time>2026-03-25T11:47:36Z</time>
      </trkpt>
      <trkpt lat="44.68132" lon="6.86963">
        <ele>2529.7</ele>
        <time>2026-03-25T11:47:37Z</time>
      </trkpt>
      <trkpt lat="44.68132" lon="6.86963">
        <ele>2529.7</ele>
        <time>2026-03-25T11:47:38Z</time>
      </trkpt>
      <trkpt lat="44.68132" lon="6.86963">
        <ele>2529.7</ele>
        <time>2026-03-25T11:47:39Z</time>
      </trkpt>
      <trkpt lat="44.68132" lon="6.86963">
        <ele>2529.7</ele>
        <time>2026-03-25T11:47:40Z</time>
      </trkpt>
      <trkpt lat="44.68132" lon="6.86963">
        <ele>2529.7</ele>
        <time>2026-03-25T11:47:41Z</time>
      </trkpt>
      <trkpt lat="44.68132" lon="6.86963">
        <ele>2529.7</ele>
        <time>2026-03-25T11:47:42Z</time>
      </trkpt>
      <trkpt lat="44.68132" lon="6.86963">
        <ele>2529.7</ele>
        <time>2026-03-25T11:47:43Z</time>
      </trkpt>
      <trkpt lat="44.68132" lon="6.86963">
        <ele>2529.7</ele>
        <time>2026-03-25T11:47:44Z</time>
      </trkpt>
      <trkpt lat="44.68132" lon="6.86963">
        <ele>2529.7</ele>
        <time>2026-03-25T11:47:45Z</time>
      </trkpt>
      <trkpt lat="44.68132" lon="6.86963">
        <ele>2529.7</ele>
        <time>2026-03-25T11:47:46Z</time>
      </trkpt>
      <trkpt lat="44.68132" lon="6.86963">
        <ele>2529.7</ele>
        <time>2026-03-25T11:47:47Z</time>
      </trkpt>
      <trkpt lat="44.68132" lon="6.86963">
        <ele>2529.7</ele>
        <time>2026-03-25T11:47:48Z</time>
      </trkpt>
      <trkpt lat="44.68132" lon="6.86963">
        <ele>2529.7</ele>
        <time>2026-03-25T11:47:49Z</time>
      </trkpt>
      <trkpt lat="44.68132" lon="6.86963">
        <ele>2529.7</ele>
        <time>2026-03-25T11:47:50Z</time>
      </trkpt>
      <trkpt lat="44.68132" lon="6.86963">
        <ele>2529.7</ele>
        <time>2026-03-25T11:47:51Z</time>
      </trkpt>
      <trkpt lat="44.68132" lon="6.86963">
        <ele>2529.7</ele>
        <time>2026-03-25T11:47:52Z</time>
      </trkpt>
      <trkpt lat="44.68132" lon="6.86963">
        <ele>2529.7</ele>
        <time>2026-03-25T11:47:53Z</time>
      </trkpt>
      <trkpt lat="44.68132" lon="6.86963">
        <ele>2529.7</ele>
        <time>2026-03-25T11:47:54Z</time>
      </trkpt>
      <trkpt lat="44.68132" lon="6.86963">
        <ele>2529.7</ele>
        <time>2026-03-25T11:47:55Z</time>
      </trkpt>
      <trkpt lat="44.68132" lon="6.86963">
        <ele>2529.7</ele>
        <time>2026-03-25T11:47:56Z</time>
      </trkpt>
      <trkpt lat="44.68132" lon="6.86963">
        <ele>2529.7</ele>
        <time>2026-03-25T11:47:57Z</time>
      </trkpt>
      <trkpt lat="44.68132" lon="6.86963">
        <ele>2529.7</ele>
        <time>2026-03-25T11:47:58Z</time>
      </trkpt>
      <trkpt lat="44.68132" lon="6.86963">
        <ele>2529.7</ele>
        <time>2026-03-25T11:47:59Z</time>
      </trkpt>
      <trkpt lat="44.68132" lon="6.86963">
        <ele>2529.7</ele>
        <time>2026-03-25T11:48:00Z</time>
      </trkpt>
      <trkpt lat="44.68132" lon="6.86963">
        <ele>2529.7</ele>
        <time>2026-03-25T11:48:01Z</time>
      </trkpt>
      <trkpt lat="44.68132" lon="6.86963">
        <ele>2529.7</ele>
        <time>2026-03-25T11:48:02Z</time>
      </trkpt>
      <trkpt lat="44.68132" lon="6.86963">
        <ele>2529.7</ele>
        <time>2026-03-25T11:48:03Z</time>
      </trkpt>
      <trkpt lat="44.68132" lon="6.86963">
        <ele>2529.7</ele>
        <time>2026-03-25T11:48:04Z</time>
      </trkpt>
      <trkpt lat="44.68132" lon="6.86963">
        <ele>2529.7</ele>
        <time>2026-03-25T11:48:05Z</time>
      </trkpt>
      <trkpt lat="44.68132" lon="6.86963">
        <ele>2529.6</ele>
        <time>2026-03-25T11:48:06Z</time>
      </trkpt>
      <trkpt lat="44.68132" lon="6.86963">
        <ele>2529.6</ele>
        <time>2026-03-25T11:48:07Z</time>
      </trkpt>
      <trkpt lat="44.68132" lon="6.86963">
        <ele>2529.6</ele>
        <time>2026-03-25T11:48:08Z</time>
      </trkpt>
      <trkpt lat="44.68132" lon="6.86963">
        <ele>2529.6</ele>
        <time>2026-03-25T11:48:09Z</time>
      </trkpt>
      <trkpt lat="44.68132" lon="6.86963">
        <ele>2529.6</ele>
        <time>2026-03-25T11:48:10Z</time>
      </trkpt>
      <trkpt lat="44.68132" lon="6.86963">
        <ele>2529.6</ele>
        <time>2026-03-25T11:48:11Z</time>
      </trkpt>
      <trkpt lat="44.68132" lon="6.86963">
        <ele>2529.6</ele>
        <time>2026-03-25T11:48:12Z</time>
      </trkpt>
      <trkpt lat="44.68132" lon="6.86963">
        <ele>2529.6</ele>
        <time>2026-03-25T11:48:13Z</time>
      </trkpt>
      <trkpt lat="44.68132" lon="6.86963">
        <ele>2529.6</ele>
        <time>2026-03-25T11:48:14Z</time>
      </trkpt>
      <trkpt lat="44.68132" lon="6.86963">
        <ele>2529.6</ele>
        <time>2026-03-25T11:48:15Z</time>
      </trkpt>
      <trkpt lat="44.68132" lon="6.86963">
        <ele>2529.6</ele>
        <time>2026-03-25T11:48:16Z</time>
      </trkpt>
      <trkpt lat="44.68132" lon="6.86963">
        <ele>2529.6</ele>
        <time>2026-03-25T11:48:17Z</time>
      </trkpt>
      <trkpt lat="44.68132" lon="6.86963">
        <ele>2529.6</ele>
        <time>2026-03-25T11:48:18Z</time>
      </trkpt>
      <trkpt lat="44.68132" lon="6.86963">
        <ele>2529.6</ele>
        <time>2026-03-25T11:48:19Z</time>
      </trkpt>
      <trkpt lat="44.68132" lon="6.86963">
        <ele>2529.6</ele>
        <time>2026-03-25T11:48:20Z</time>
      </trkpt>
      <trkpt lat="44.68132" lon="6.86963">
        <ele>2529.6</ele>
        <time>2026-03-25T11:48:21Z</time>
      </trkpt>
      <trkpt lat="44.68132" lon="6.86963">
        <ele>2529.6</ele>
        <time>2026-03-25T11:48:22Z</time>
      </trkpt>
      <trkpt lat="44.68132" lon="6.86963">
        <ele>2529.6</ele>
        <time>2026-03-25T11:48:23Z</time>
      </trkpt>
      <trkpt lat="44.68132" lon="6.86963">
        <ele>2529.6</ele>
        <time>2026-03-25T11:48:24Z</time>
      </trkpt>
      <trkpt lat="44.68132" lon="6.86963">
        <ele>2529.6</ele>
        <time>2026-03-25T11:48:25Z</time>
      </trkpt>
      <trkpt lat="44.68132" lon="6.86963">
        <ele>2529.6</ele>
        <time>2026-03-25T11:48:26Z</time>
      </trkpt>
      <trkpt lat="44.68132" lon="6.86963">
        <ele>2529.6</ele>
        <time>2026-03-25T11:48:27Z</time>
      </trkpt>
      <trkpt lat="44.68132" lon="6.86963">
        <ele>2529.6</ele>
        <time>2026-03-25T11:48:28Z</time>
      </trkpt>
      <trkpt lat="44.68132" lon="6.86963">
        <ele>2529.6</ele>
        <time>2026-03-25T11:48:29Z</time>
      </trkpt>
      <trkpt lat="44.68132" lon="6.86963">
        <ele>2529.6</ele>
        <time>2026-03-25T11:48:30Z</time>
      </trkpt>
      <trkpt lat="44.68132" lon="6.86963">
        <ele>2529.6</ele>
        <time>2026-03-25T11:48:31Z</time>
      </trkpt>
      <trkpt lat="44.68132" lon="6.86963">
        <ele>2529.6</ele>
        <time>2026-03-25T11:48:32Z</time>
      </trkpt>
      <trkpt lat="44.68132" lon="6.86963">
        <ele>2529.6</ele>
        <time>2026-03-25T11:48:33Z</time>
      </trkpt>
      <trkpt lat="44.68132" lon="6.86963">
        <ele>2529.6</ele>
        <time>2026-03-25T11:48:34Z</time>
      </trkpt>
      <trkpt lat="44.68132" lon="6.86963">
        <ele>2529.6</ele>
        <time>2026-03-25T11:48:35Z</time>
      </trkpt>
      <trkpt lat="44.68132" lon="6.86963">
        <ele>2529.6</ele>
        <time>2026-03-25T11:48:36Z</time>
      </trkpt>
      <trkpt lat="44.68132" lon="6.86963">
        <ele>2529.6</ele>
        <time>2026-03-25T11:48:37Z</time>
      </trkpt>
      <trkpt lat="44.68132" lon="6.86963">
        <ele>2529.6</ele>
        <time>2026-03-25T11:48:38Z</time>
      </trkpt>
      <trkpt lat="44.68132" lon="6.86963">
        <ele>2529.6</ele>
        <time>2026-03-25T11:48:39Z</time>
      </trkpt>
      <trkpt lat="44.68132" lon="6.86963">
        <ele>2529.6</ele>
        <time>2026-03-25T11:48:40Z</time>
      </trkpt>
      <trkpt lat="44.68132" lon="6.86963">
        <ele>2529.6</ele>
        <time>2026-03-25T11:48:41Z</time>
      </trkpt>
      <trkpt lat="44.68132" lon="6.86963">
        <ele>2529.6</ele>
        <time>2026-03-25T11:48:42Z</time>
      </trkpt>
      <trkpt lat="44.68132" lon="6.86963">
        <ele>2529.6</ele>
        <time>2026-03-25T11:48:43Z</time>
      </trkpt>
      <trkpt lat="44.68132" lon="6.86963">
        <ele>2529.6</ele>
        <time>2026-03-25T11:48:44Z</time>
      </trkpt>
      <trkpt lat="44.68132" lon="6.86963">
        <ele>2529.6</ele>
        <time>2026-03-25T11:48:45Z</time>
      </trkpt>
      <trkpt lat="44.68132" lon="6.86963">
        <ele>2529.6</ele>
        <time>2026-03-25T11:48:46Z</time>
      </trkpt>
      <trkpt lat="44.68132" lon="6.86963">
        <ele>2529.6</ele>
        <time>2026-03-25T11:48:47Z</time>
      </trkpt>
      <trkpt lat="44.68132" lon="6.86963">
        <ele>2529.6</ele>
        <time>2026-03-25T11:48:48Z</time>
      </trkpt>
      <trkpt lat="44.68132" lon="6.86963">
        <ele>2529.6</ele>
        <time>2026-03-25T11:48:49Z</time>
      </trkpt>
      <trkpt lat="44.68132" lon="6.86963">
        <ele>2529.6</ele>
        <time>2026-03-25T11:48:50Z</time>
      </trkpt>
      <trkpt lat="44.68132" lon="6.86963">
        <ele>2529.6</ele>
        <time>2026-03-25T11:48:51Z</time>
      </trkpt>
      <trkpt lat="44.68132" lon="6.86963">
        <ele>2529.6</ele>
        <time>2026-03-25T11:48:52Z</time>
      </trkpt>
      <trkpt lat="44.68132" lon="6.86963">
        <ele>2529.6</ele>
        <time>2026-03-25T11:48:53Z</time>
      </trkpt>
      <trkpt lat="44.68132" lon="6.86963">
        <ele>2529.6</ele>
        <time>2026-03-25T11:48:54Z</time>
      </trkpt>
      <trkpt lat="44.68132" lon="6.86963">
        <ele>2529.6</ele>
        <time>2026-03-25T11:48:55Z</time>
      </trkpt>
      <trkpt lat="44.68132" lon="6.86963">
        <ele>2529.6</ele>
        <time>2026-03-25T11:48:56Z</time>
      </trkpt>
      <trkpt lat="44.68132" lon="6.86963">
        <ele>2529.6</ele>
        <time>2026-03-25T11:48:57Z</time>
      </trkpt>
      <trkpt lat="44.68132" lon="6.86963">
        <ele>2529.6</ele>
        <time>2026-03-25T11:48:58Z</time>
      </trkpt>
      <trkpt lat="44.68132" lon="6.86963">
        <ele>2529.6</ele>
        <time>2026-03-25T11:48:59Z</time>
      </trkpt>
      <trkpt lat="44.68132" lon="6.86963">
        <ele>2529.6</ele>
        <time>2026-03-25T11:49:00Z</time>
      </trkpt>
      <trkpt lat="44.68132" lon="6.86963">
        <ele>2529.6</ele>
        <time>2026-03-25T11:49:01Z</time>
      </trkpt>
      <trkpt lat="44.68132" lon="6.86963">
        <ele>2529.6</ele>
        <time>2026-03-25T11:49:02Z</time>
      </trkpt>
      <trkpt lat="44.68132" lon="6.86963">
        <ele>2529.6</ele>
        <time>2026-03-25T11:49:03Z</time>
      </trkpt>
      <trkpt lat="44.68132" lon="6.86963">
        <ele>2529.6</ele>
        <time>2026-03-25T11:49:04Z</time>
      </trkpt>
      <trkpt lat="44.68132" lon="6.86963">
        <ele>2529.6</ele>
        <time>2026-03-25T11:49:05Z</time>
      </trkpt>
      <trkpt lat="44.68132" lon="6.86963">
        <ele>2529.6</ele>
        <time>2026-03-25T11:49:06Z</time>
      </trkpt>
      <trkpt lat="44.68132" lon="6.86963">
        <ele>2529.6</ele>
        <time>2026-03-25T11:49:07Z</time>
      </trkpt>
      <trkpt lat="44.68132" lon="6.86963">
        <ele>2529.6</ele>
        <time>2026-03-25T11:49:08Z</time>
      </trkpt>
      <trkpt lat="44.68132" lon="6.86963">
        <ele>2529.6</ele>
        <time>2026-03-25T11:49:09Z</time>
      </trkpt>
      <trkpt lat="44.68132" lon="6.86963">
        <ele>2529.6</ele>
        <time>2026-03-25T11:49:10Z</time>
      </trkpt>
      <trkpt lat="44.68132" lon="6.86963">
        <ele>2529.6</ele>
        <time>2026-03-25T11:49:11Z</time>
      </trkpt>
      <trkpt lat="44.68132" lon="6.86963">
        <ele>2529.6</ele>
        <time>2026-03-25T11:49:12Z</time>
      </trkpt>
      <trkpt lat="44.68132" lon="6.86963">
        <ele>2529.6</ele>
        <time>2026-03-25T11:49:13Z</time>
      </trkpt>
      <trkpt lat="44.68132" lon="6.86963">
        <ele>2529.6</ele>
        <time>2026-03-25T11:49:14Z</time>
      </trkpt>
      <trkpt lat="44.68132" lon="6.86963">
        <ele>2529.6</ele>
        <time>2026-03-25T11:49:15Z</time>
      </trkpt>
      <trkpt lat="44.68132" lon="6.86963">
        <ele>2529.6</ele>
        <time>2026-03-25T11:49:16Z</time>
      </trkpt>
      <trkpt lat="44.68132" lon="6.86963">
        <ele>2529.6</ele>
        <time>2026-03-25T11:49:17Z</time>
      </trkpt>
      <trkpt lat="44.68132" lon="6.86963">
        <ele>2529.5</ele>
        <time>2026-03-25T11:49:18Z</time>
      </trkpt>
      <trkpt lat="44.68132" lon="6.86963">
        <ele>2529.5</ele>
        <time>2026-03-25T11:49:19Z</time>
      </trkpt>
      <trkpt lat="44.68132" lon="6.86963">
        <ele>2529.5</ele>
        <time>2026-03-25T11:49:20Z</time>
      </trkpt>
      <trkpt lat="44.68132" lon="6.86963">
        <ele>2529.5</ele>
        <time>2026-03-25T11:49:21Z</time>
      </trkpt>
      <trkpt lat="44.68132" lon="6.86963">
        <ele>2529.5</ele>
        <time>2026-03-25T11:49:22Z</time>
      </trkpt>
      <trkpt lat="44.68132" lon="6.86963">
        <ele>2529.5</ele>
        <time>2026-03-25T11:49:23Z</time>
      </trkpt>
      <trkpt lat="44.68132" lon="6.86963">
        <ele>2529.5</ele>
        <time>2026-03-25T11:49:24Z</time>
      </trkpt>
      <trkpt lat="44.68132" lon="6.86963">
        <ele>2529.5</ele>
        <time>2026-03-25T11:49:25Z</time>
      </trkpt>
      <trkpt lat="44.68132" lon="6.86963">
        <ele>2529.5</ele>
        <time>2026-03-25T11:49:26Z</time>
      </trkpt>
      <trkpt lat="44.68132" lon="6.86963">
        <ele>2529.5</ele>
        <time>2026-03-25T11:49:27Z</time>
      </trkpt>
      <trkpt lat="44.68132" lon="6.86963">
        <ele>2529.5</ele>
        <time>2026-03-25T11:49:28Z</time>
      </trkpt>
      <trkpt lat="44.68132" lon="6.86963">
        <ele>2529.5</ele>
        <time>2026-03-25T11:49:29Z</time>
      </trkpt>
      <trkpt lat="44.68132" lon="6.86963">
        <ele>2530.6</ele>
        <time>2026-03-25T11:49:30Z</time>
      </trkpt>
      <trkpt lat="44.68132" lon="6.86963">
        <ele>2530.6</ele>
        <time>2026-03-25T11:49:31Z</time>
      </trkpt>
      <trkpt lat="44.68132" lon="6.86963">
        <ele>2530.6</ele>
        <time>2026-03-25T11:49:32Z</time>
      </trkpt>
      <trkpt lat="44.68132" lon="6.86963">
        <ele>2530.6</ele>
        <time>2026-03-25T11:49:33Z</time>
      </trkpt>
      <trkpt lat="44.68132" lon="6.86963">
        <ele>2530.6</ele>
        <time>2026-03-25T11:49:34Z</time>
      </trkpt>
      <trkpt lat="44.68132" lon="6.86963">
        <ele>2530.6</ele>
        <time>2026-03-25T11:49:35Z</time>
      </trkpt>
      <trkpt lat="44.68132" lon="6.86963">
        <ele>2530.6</ele>
        <time>2026-03-25T11:49:36Z</time>
      </trkpt>
      <trkpt lat="44.68132" lon="6.86963">
        <ele>2530.6</ele>
        <time>2026-03-25T11:49:37Z</time>
      </trkpt>
      <trkpt lat="44.68132" lon="6.86963">
        <ele>2530.6</ele>
        <time>2026-03-25T11:49:38Z</time>
      </trkpt>
      <trkpt lat="44.68132" lon="6.86963">
        <ele>2530.6</ele>
        <time>2026-03-25T11:49:39Z</time>
      </trkpt>
      <trkpt lat="44.68132" lon="6.86963">
        <ele>2530.6</ele>
        <time>2026-03-25T11:49:40Z</time>
      </trkpt>
      <trkpt lat="44.68132" lon="6.86963">
        <ele>2530.6</ele>
        <time>2026-03-25T11:49:41Z</time>
      </trkpt>
      <trkpt lat="44.68132" lon="6.86963">
        <ele>2530.6</ele>
        <time>2026-03-25T11:49:42Z</time>
      </trkpt>
      <trkpt lat="44.68132" lon="6.86963">
        <ele>2530.6</ele>
        <time>2026-03-25T11:49:43Z</time>
      </trkpt>
      <trkpt lat="44.68132" lon="6.86963">
        <ele>2530.6</ele>
        <time>2026-03-25T11:49:44Z</time>
      </trkpt>
      <trkpt lat="44.68132" lon="6.86963">
        <ele>2530.6</ele>
        <time>2026-03-25T11:49:45Z</time>
      </trkpt>
      <trkpt lat="44.68132" lon="6.86963">
        <ele>2530.6</ele>
        <time>2026-03-25T11:49:46Z</time>
      </trkpt>
      <trkpt lat="44.68132" lon="6.86963">
        <ele>2530.6</ele>
        <time>2026-03-25T11:49:47Z</time>
      </trkpt>
      <trkpt lat="44.68132" lon="6.86963">
        <ele>2530.6</ele>
        <time>2026-03-25T11:49:48Z</time>
      </trkpt>
      <trkpt lat="44.68132" lon="6.86963">
        <ele>2530.6</ele>
        <time>2026-03-25T11:49:49Z</time>
      </trkpt>
      <trkpt lat="44.68132" lon="6.86963">
        <ele>2530.6</ele>
        <time>2026-03-25T11:49:50Z</time>
      </trkpt>
      <trkpt lat="44.68132" lon="6.86963">
        <ele>2530.6</ele>
        <time>2026-03-25T11:49:51Z</time>
      </trkpt>
      <trkpt lat="44.68132" lon="6.86963">
        <ele>2530.6</ele>
        <time>2026-03-25T11:49:52Z</time>
      </trkpt>
      <trkpt lat="44.68132" lon="6.86963">
        <ele>2530.6</ele>
        <time>2026-03-25T11:49:53Z</time>
      </trkpt>
      <trkpt lat="44.68132" lon="6.86963">
        <ele>2530.6</ele>
        <time>2026-03-25T11:49:54Z</time>
      </trkpt>
      <trkpt lat="44.68132" lon="6.86963">
        <ele>2530.6</ele>
        <time>2026-03-25T11:49:55Z</time>
      </trkpt>
      <trkpt lat="44.68132" lon="6.86963">
        <ele>2530.6</ele>
        <time>2026-03-25T11:49:56Z</time>
      </trkpt>
      <trkpt lat="44.68132" lon="6.86963">
        <ele>2530.6</ele>
        <time>2026-03-25T11:49:57Z</time>
      </trkpt>
      <trkpt lat="44.68132" lon="6.86963">
        <ele>2530.6</ele>
        <time>2026-03-25T11:49:58Z</time>
      </trkpt>
      <trkpt lat="44.68132" lon="6.86963">
        <ele>2530.6</ele>
        <time>2026-03-25T11:49:59Z</time>
      </trkpt>
      <trkpt lat="44.68132" lon="6.86963">
        <ele>2530.6</ele>
        <time>2026-03-25T11:50:00Z</time>
      </trkpt>
      <trkpt lat="44.68132" lon="6.86963">
        <ele>2530.6</ele>
        <time>2026-03-25T11:50:01Z</time>
      </trkpt>
      <trkpt lat="44.68132" lon="6.86963">
        <ele>2530.6</ele>
        <time>2026-03-25T11:50:02Z</time>
      </trkpt>
      <trkpt lat="44.68132" lon="6.86963">
        <ele>2530.6</ele>
        <time>2026-03-25T11:50:03Z</time>
      </trkpt>
      <trkpt lat="44.68132" lon="6.86963">
        <ele>2530.6</ele>
        <time>2026-03-25T11:50:04Z</time>
      </trkpt>
      <trkpt lat="44.68132" lon="6.86963">
        <ele>2530.6</ele>
        <time>2026-03-25T11:50:05Z</time>
      </trkpt>
      <trkpt lat="44.68132" lon="6.86963">
        <ele>2530.6</ele>
        <time>2026-03-25T11:50:06Z</time>
      </trkpt>
      <trkpt lat="44.68132" lon="6.86963">
        <ele>2530.6</ele>
        <time>2026-03-25T11:50:07Z</time>
      </trkpt>
      <trkpt lat="44.68132" lon="6.86963">
        <ele>2530.6</ele>
        <time>2026-03-25T11:50:08Z</time>
      </trkpt>
      <trkpt lat="44.68132" lon="6.86963">
        <ele>2530.6</ele>
        <time>2026-03-25T11:50:09Z</time>
      </trkpt>
      <trkpt lat="44.68132" lon="6.86963">
        <ele>2530.6</ele>
        <time>2026-03-25T11:50:10Z</time>
      </trkpt>
      <trkpt lat="44.68132" lon="6.86963">
        <ele>2530.6</ele>
        <time>2026-03-25T11:50:11Z</time>
      </trkpt>
      <trkpt lat="44.68132" lon="6.86963">
        <ele>2530.6</ele>
        <time>2026-03-25T11:50:12Z</time>
      </trkpt>
      <trkpt lat="44.68132" lon="6.86963">
        <ele>2530.6</ele>
        <time>2026-03-25T11:50:13Z</time>
      </trkpt>
      <trkpt lat="44.68132" lon="6.86963">
        <ele>2530.6</ele>
        <time>2026-03-25T11:50:14Z</time>
      </trkpt>
      <trkpt lat="44.68132" lon="6.86963">
        <ele>2530.6</ele>
        <time>2026-03-25T11:50:15Z</time>
      </trkpt>
      <trkpt lat="44.68132" lon="6.86963">
        <ele>2530.6</ele>
        <time>2026-03-25T11:50:16Z</time>
      </trkpt>
      <trkpt lat="44.68132" lon="6.86963">
        <ele>2530.6</ele>
        <time>2026-03-25T11:50:17Z</time>
      </trkpt>
      <trkpt lat="44.68132" lon="6.86963">
        <ele>2530.6</ele>
        <time>2026-03-25T11:50:18Z</time>
      </trkpt>
      <trkpt lat="44.68132" lon="6.86963">
        <ele>2530.6</ele>
        <time>2026-03-25T11:50:19Z</time>
      </trkpt>
      <trkpt lat="44.68132" lon="6.86963">
        <ele>2530.6</ele>
        <time>2026-03-25T11:50:20Z</time>
      </trkpt>
      <trkpt lat="44.68132" lon="6.86963">
        <ele>2530.6</ele>
        <time>2026-03-25T11:50:21Z</time>
      </trkpt>
      <trkpt lat="44.68132" lon="6.86963">
        <ele>2530.6</ele>
        <time>2026-03-25T11:50:22Z</time>
      </trkpt>
      <trkpt lat="44.68132" lon="6.86963">
        <ele>2530.6</ele>
        <time>2026-03-25T11:50:23Z</time>
      </trkpt>
      <trkpt lat="44.68132" lon="6.86963">
        <ele>2530.6</ele>
        <time>2026-03-25T11:50:24Z</time>
      </trkpt>
      <trkpt lat="44.68132" lon="6.86963">
        <ele>2530.6</ele>
        <time>2026-03-25T11:50:25Z</time>
      </trkpt>
      <trkpt lat="44.68132" lon="6.86963">
        <ele>2530.6</ele>
        <time>2026-03-25T11:50:26Z</time>
      </trkpt>
      <trkpt lat="44.68132" lon="6.86963">
        <ele>2530.6</ele>
        <time>2026-03-25T11:50:27Z</time>
      </trkpt>
      <trkpt lat="44.68132" lon="6.86963">
        <ele>2530.5</ele>
        <time>2026-03-25T11:50:28Z</time>
      </trkpt>
      <trkpt lat="44.68132" lon="6.86963">
        <ele>2530.5</ele>
        <time>2026-03-25T11:50:29Z</time>
      </trkpt>
      <trkpt lat="44.68132" lon="6.86963">
        <ele>2530.5</ele>
        <time>2026-03-25T11:50:30Z</time>
      </trkpt>
      <trkpt lat="44.68132" lon="6.86962">
        <ele>2530.5</ele>
        <time>2026-03-25T11:50:31Z</time>
      </trkpt>
      <trkpt lat="44.68132" lon="6.86962">
        <ele>2530.5</ele>
        <time>2026-03-25T11:50:32Z</time>
      </trkpt>
      <trkpt lat="44.68132" lon="6.86962">
        <ele>2530.5</ele>
        <time>2026-03-25T11:50:33Z</time>
      </trkpt>
      <trkpt lat="44.68132" lon="6.86962">
        <ele>2530.5</ele>
        <time>2026-03-25T11:50:34Z</time>
      </trkpt>
      <trkpt lat="44.68132" lon="6.86962">
        <ele>2530.5</ele>
        <time>2026-03-25T11:50:35Z</time>
      </trkpt>
      <trkpt lat="44.68132" lon="6.86962">
        <ele>2530.5</ele>
        <time>2026-03-25T11:50:36Z</time>
      </trkpt>
      <trkpt lat="44.68132" lon="6.86962">
        <ele>2530.5</ele>
        <time>2026-03-25T11:50:37Z</time>
      </trkpt>
      <trkpt lat="44.68132" lon="6.86962">
        <ele>2530.5</ele>
        <time>2026-03-25T11:50:38Z</time>
      </trkpt>
      <trkpt lat="44.68132" lon="6.86962">
        <ele>2530.5</ele>
        <time>2026-03-25T11:50:39Z</time>
      </trkpt>
      <trkpt lat="44.68132" lon="6.86962">
        <ele>2530.5</ele>
        <time>2026-03-25T11:50:40Z</time>
      </trkpt>
      <trkpt lat="44.68132" lon="6.86962">
        <ele>2530.5</ele>
        <time>2026-03-25T11:50:41Z</time>
      </trkpt>
      <trkpt lat="44.68132" lon="6.86962">
        <ele>2530.5</ele>
        <time>2026-03-25T11:50:42Z</time>
      </trkpt>
      <trkpt lat="44.68132" lon="6.86962">
        <ele>2530.5</ele>
        <time>2026-03-25T11:50:43Z</time>
      </trkpt>
      <trkpt lat="44.68132" lon="6.86962">
        <ele>2530.5</ele>
        <time>2026-03-25T11:50:44Z</time>
      </trkpt>
      <trkpt lat="44.68132" lon="6.86962">
        <ele>2530.5</ele>
        <time>2026-03-25T11:50:45Z</time>
      </trkpt>
      <trkpt lat="44.68132" lon="6.86962">
        <ele>2530.5</ele>
        <time>2026-03-25T11:50:46Z</time>
      </trkpt>
      <trkpt lat="44.68132" lon="6.86961">
        <ele>2530.5</ele>
        <time>2026-03-25T11:50:47Z</time>
      </trkpt>
      <trkpt lat="44.68132" lon="6.86961">
        <ele>2530.5</ele>
        <time>2026-03-25T11:50:48Z</time>
      </trkpt>
      <trkpt lat="44.68132" lon="6.86961">
        <ele>2530.5</ele>
        <time>2026-03-25T11:50:49Z</time>
      </trkpt>
      <trkpt lat="44.68132" lon="6.86961">
        <ele>2530.5</ele>
        <time>2026-03-25T11:50:50Z</time>
      </trkpt>
      <trkpt lat="44.68132" lon="6.86961">
        <ele>2530.5</ele>
        <time>2026-03-25T11:50:51Z</time>
      </trkpt>
      <trkpt lat="44.68132" lon="6.86961">
        <ele>2530.5</ele>
        <time>2026-03-25T11:50:52Z</time>
      </trkpt>
      <trkpt lat="44.68132" lon="6.86961">
        <ele>2530.5</ele>
        <time>2026-03-25T11:50:53Z</time>
      </trkpt>
      <trkpt lat="44.68132" lon="6.86961">
        <ele>2530.5</ele>
        <time>2026-03-25T11:50:54Z</time>
      </trkpt>
      <trkpt lat="44.68132" lon="6.86961">
        <ele>2530.5</ele>
        <time>2026-03-25T11:50:55Z</time>
      </trkpt>
      <trkpt lat="44.68132" lon="6.86961">
        <ele>2530.5</ele>
        <time>2026-03-25T11:50:56Z</time>
      </trkpt>
      <trkpt lat="44.68132" lon="6.86961">
        <ele>2530.5</ele>
        <time>2026-03-25T11:50:57Z</time>
      </trkpt>
      <trkpt lat="44.68132" lon="6.86961">
        <ele>2530.5</ele>
        <time>2026-03-25T11:50:58Z</time>
      </trkpt>
      <trkpt lat="44.68132" lon="6.86962">
        <ele>2530.5</ele>
        <time>2026-03-25T11:50:59Z</time>
      </trkpt>
      <trkpt lat="44.68132" lon="6.86962">
        <ele>2530.5</ele>
        <time>2026-03-25T11:51:00Z</time>
      </trkpt>
      <trkpt lat="44.68132" lon="6.86962">
        <ele>2530.5</ele>
        <time>2026-03-25T11:51:01Z</time>
      </trkpt>
      <trkpt lat="44.68132" lon="6.86962">
        <ele>2530.5</ele>
        <time>2026-03-25T11:51:02Z</time>
      </trkpt>
      <trkpt lat="44.68133" lon="6.86962">
        <ele>2530.5</ele>
        <time>2026-03-25T11:51:03Z</time>
      </trkpt>
      <trkpt lat="44.68132" lon="6.86962">
        <ele>2530.5</ele>
        <time>2026-03-25T11:51:04Z</time>
      </trkpt>
      <trkpt lat="44.68132" lon="6.86962">
        <ele>2530.5</ele>
        <time>2026-03-25T11:51:05Z</time>
      </trkpt>
      <trkpt lat="44.68132" lon="6.86962">
        <ele>2530.5</ele>
        <time>2026-03-25T11:51:06Z</time>
      </trkpt>
      <trkpt lat="44.68132" lon="6.86962">
        <ele>2530.5</ele>
        <time>2026-03-25T11:51:07Z</time>
      </trkpt>
      <trkpt lat="44.68132" lon="6.86962">
        <ele>2530.5</ele>
        <time>2026-03-25T11:51:08Z</time>
      </trkpt>
      <trkpt lat="44.68132" lon="6.86962">
        <ele>2530.5</ele>
        <time>2026-03-25T11:51:09Z</time>
      </trkpt>
      <trkpt lat="44.68132" lon="6.86962">
        <ele>2530.5</ele>
        <time>2026-03-25T11:51:10Z</time>
      </trkpt>
      <trkpt lat="44.68132" lon="6.86962">
        <ele>2530.5</ele>
        <time>2026-03-25T11:51:11Z</time>
      </trkpt>
      <trkpt lat="44.68132" lon="6.86962">
        <ele>2530.5</ele>
        <time>2026-03-25T11:51:12Z</time>
      </trkpt>
      <trkpt lat="44.68132" lon="6.86962">
        <ele>2530.5</ele>
        <time>2026-03-25T11:51:13Z</time>
      </trkpt>
      <trkpt lat="44.68132" lon="6.86962">
        <ele>2530.5</ele>
        <time>2026-03-25T11:51:14Z</time>
      </trkpt>
      <trkpt lat="44.68132" lon="6.86962">
        <ele>2530.5</ele>
        <time>2026-03-25T11:51:15Z</time>
      </trkpt>
      <trkpt lat="44.68132" lon="6.86962">
        <ele>2530.5</ele>
        <time>2026-03-25T11:51:16Z</time>
      </trkpt>
      <trkpt lat="44.68132" lon="6.86962">
        <ele>2530.5</ele>
        <time>2026-03-25T11:51:17Z</time>
      </trkpt>
      <trkpt lat="44.68132" lon="6.86962">
        <ele>2530.5</ele>
        <time>2026-03-25T11:51:18Z</time>
      </trkpt>
      <trkpt lat="44.68132" lon="6.86962">
        <ele>2530.5</ele>
        <time>2026-03-25T11:51:19Z</time>
      </trkpt>
      <trkpt lat="44.68132" lon="6.86962">
        <ele>2530.5</ele>
        <time>2026-03-25T11:51:20Z</time>
      </trkpt>
      <trkpt lat="44.68132" lon="6.86962">
        <ele>2530.5</ele>
        <time>2026-03-25T11:51:21Z</time>
      </trkpt>
      <trkpt lat="44.68132" lon="6.86962">
        <ele>2530.5</ele>
        <time>2026-03-25T11:51:22Z</time>
      </trkpt>
      <trkpt lat="44.68132" lon="6.86962">
        <ele>2530.5</ele>
        <time>2026-03-25T11:51:23Z</time>
      </trkpt>
      <trkpt lat="44.68132" lon="6.86962">
        <ele>2530.5</ele>
        <time>2026-03-25T11:51:24Z</time>
      </trkpt>
      <trkpt lat="44.68132" lon="6.86962">
        <ele>2530.5</ele>
        <time>2026-03-25T11:51:25Z</time>
      </trkpt>
      <trkpt lat="44.68132" lon="6.86962">
        <ele>2530.5</ele>
        <time>2026-03-25T11:51:26Z</time>
      </trkpt>
      <trkpt lat="44.68132" lon="6.86962">
        <ele>2530.5</ele>
        <time>2026-03-25T11:51:27Z</time>
      </trkpt>
      <trkpt lat="44.68132" lon="6.86962">
        <ele>2530.5</ele>
        <time>2026-03-25T11:51:28Z</time>
      </trkpt>
      <trkpt lat="44.68132" lon="6.86962">
        <ele>2530.5</ele>
        <time>2026-03-25T11:51:29Z</time>
      </trkpt>
      <trkpt lat="44.68132" lon="6.86962">
        <ele>2530.5</ele>
        <time>2026-03-25T11:51:30Z</time>
      </trkpt>
      <trkpt lat="44.68132" lon="6.86962">
        <ele>2530.5</ele>
        <time>2026-03-25T11:51:31Z</time>
      </trkpt>
      <trkpt lat="44.68132" lon="6.86962">
        <ele>2530.5</ele>
        <time>2026-03-25T11:51:32Z</time>
      </trkpt>
      <trkpt lat="44.68132" lon="6.86962">
        <ele>2530.5</ele>
        <time>2026-03-25T11:51:33Z</time>
      </trkpt>
      <trkpt lat="44.68132" lon="6.86962">
        <ele>2530.5</ele>
        <time>2026-03-25T11:51:34Z</time>
      </trkpt>
      <trkpt lat="44.68133" lon="6.86962">
        <ele>2530.5</ele>
        <time>2026-03-25T11:51:35Z</time>
      </trkpt>
      <trkpt lat="44.68133" lon="6.86962">
        <ele>2530.5</ele>
        <time>2026-03-25T11:51:36Z</time>
      </trkpt>
      <trkpt lat="44.68133" lon="6.86962">
        <ele>2530.5</ele>
        <time>2026-03-25T11:51:37Z</time>
      </trkpt>
      <trkpt lat="44.68133" lon="6.86962">
        <ele>2530.5</ele>
        <time>2026-03-25T11:51:38Z</time>
      </trkpt>
      <trkpt lat="44.68133" lon="6.86962">
        <ele>2530.5</ele>
        <time>2026-03-25T11:51:39Z</time>
      </trkpt>
      <trkpt lat="44.68133" lon="6.86962">
        <ele>2530.4</ele>
        <time>2026-03-25T11:51:40Z</time>
      </trkpt>
      <trkpt lat="44.68133" lon="6.86962">
        <ele>2530.4</ele>
        <time>2026-03-25T11:51:41Z</time>
      </trkpt>
      <trkpt lat="44.68133" lon="6.86962">
        <ele>2530.4</ele>
        <time>2026-03-25T11:51:42Z</time>
      </trkpt>
      <trkpt lat="44.68133" lon="6.86962">
        <ele>2530.4</ele>
        <time>2026-03-25T11:51:43Z</time>
      </trkpt>
      <trkpt lat="44.68133" lon="6.86962">
        <ele>2530.4</ele>
        <time>2026-03-25T11:51:44Z</time>
      </trkpt>
      <trkpt lat="44.68133" lon="6.86962">
        <ele>2530.4</ele>
        <time>2026-03-25T11:51:45Z</time>
      </trkpt>
      <trkpt lat="44.68133" lon="6.86962">
        <ele>2530.4</ele>
        <time>2026-03-25T11:51:46Z</time>
      </trkpt>
      <trkpt lat="44.68133" lon="6.86962">
        <ele>2530.4</ele>
        <time>2026-03-25T11:51:47Z</time>
      </trkpt>
      <trkpt lat="44.68133" lon="6.86962">
        <ele>2530.4</ele>
        <time>2026-03-25T11:51:48Z</time>
      </trkpt>
      <trkpt lat="44.68133" lon="6.86962">
        <ele>2530.4</ele>
        <time>2026-03-25T11:51:49Z</time>
      </trkpt>
      <trkpt lat="44.68133" lon="6.86962">
        <ele>2530.4</ele>
        <time>2026-03-25T11:51:50Z</time>
      </trkpt>
      <trkpt lat="44.68133" lon="6.86963">
        <ele>2530.4</ele>
        <time>2026-03-25T11:51:51Z</time>
      </trkpt>
      <trkpt lat="44.68133" lon="6.86963">
        <ele>2530.4</ele>
        <time>2026-03-25T11:51:52Z</time>
      </trkpt>
      <trkpt lat="44.68132" lon="6.86963">
        <ele>2530.4</ele>
        <time>2026-03-25T11:51:53Z</time>
      </trkpt>
      <trkpt lat="44.68132" lon="6.86963">
        <ele>2529.3</ele>
        <time>2026-03-25T11:51:54Z</time>
      </trkpt>
      <trkpt lat="44.68133" lon="6.86963">
        <ele>2529.3</ele>
        <time>2026-03-25T11:51:55Z</time>
      </trkpt>
      <trkpt lat="44.68133" lon="6.86963">
        <ele>2529.3</ele>
        <time>2026-03-25T11:51:56Z</time>
      </trkpt>
      <trkpt lat="44.68133" lon="6.86963">
        <ele>2529.3</ele>
        <time>2026-03-25T11:51:57Z</time>
      </trkpt>
      <trkpt lat="44.68133" lon="6.86963">
        <ele>2529.3</ele>
        <time>2026-03-25T11:51:58Z</time>
      </trkpt>
      <trkpt lat="44.68133" lon="6.86964">
        <ele>2529.3</ele>
        <time>2026-03-25T11:51:59Z</time>
      </trkpt>
      <trkpt lat="44.68133" lon="6.86964">
        <ele>2529.3</ele>
        <time>2026-03-25T11:52:00Z</time>
      </trkpt>
      <trkpt lat="44.68133" lon="6.86964">
        <ele>2529.3</ele>
        <time>2026-03-25T11:52:01Z</time>
      </trkpt>
      <trkpt lat="44.68132" lon="6.86964">
        <ele>2529.3</ele>
        <time>2026-03-25T11:52:02Z</time>
      </trkpt>
      <trkpt lat="44.68132" lon="6.86964">
        <ele>2529.3</ele>
        <time>2026-03-25T11:52:03Z</time>
      </trkpt>
      <trkpt lat="44.68132" lon="6.86964">
        <ele>2529.3</ele>
        <time>2026-03-25T11:52:04Z</time>
      </trkpt>
      <trkpt lat="44.68132" lon="6.86964">
        <ele>2529.3</ele>
        <time>2026-03-25T11:52:05Z</time>
      </trkpt>
      <trkpt lat="44.68132" lon="6.86964">
        <ele>2529.3</ele>
        <time>2026-03-25T11:52:06Z</time>
      </trkpt>
      <trkpt lat="44.68132" lon="6.86964">
        <ele>2529.3</ele>
        <time>2026-03-25T11:52:07Z</time>
      </trkpt>
      <trkpt lat="44.68132" lon="6.86964">
        <ele>2529.3</ele>
        <time>2026-03-25T11:52:08Z</time>
      </trkpt>
      <trkpt lat="44.68133" lon="6.86963">
        <ele>2529.3</ele>
        <time>2026-03-25T11:52:09Z</time>
      </trkpt>
      <trkpt lat="44.68133" lon="6.86963">
        <ele>2530.4</ele>
        <time>2026-03-25T11:52:10Z</time>
      </trkpt>
      <trkpt lat="44.68133" lon="6.86963">
        <ele>2530.4</ele>
        <time>2026-03-25T11:52:11Z</time>
      </trkpt>
      <trkpt lat="44.68133" lon="6.86963">
        <ele>2530.4</ele>
        <time>2026-03-25T11:52:12Z</time>
      </trkpt>
      <trkpt lat="44.68133" lon="6.86963">
        <ele>2530.4</ele>
        <time>2026-03-25T11:52:13Z</time>
      </trkpt>
      <trkpt lat="44.68133" lon="6.86963">
        <ele>2530.4</ele>
        <time>2026-03-25T11:52:14Z</time>
      </trkpt>
      <trkpt lat="44.68133" lon="6.86963">
        <ele>2530.4</ele>
        <time>2026-03-25T11:52:15Z</time>
      </trkpt>
      <trkpt lat="44.68133" lon="6.86963">
        <ele>2530.4</ele>
        <time>2026-03-25T11:52:16Z</time>
      </trkpt>
      <trkpt lat="44.68133" lon="6.86963">
        <ele>2530.4</ele>
        <time>2026-03-25T11:52:17Z</time>
      </trkpt>
      <trkpt lat="44.68133" lon="6.86963">
        <ele>2530.4</ele>
        <time>2026-03-25T11:52:18Z</time>
      </trkpt>
      <trkpt lat="44.68133" lon="6.86963">
        <ele>2530.4</ele>
        <time>2026-03-25T11:52:19Z</time>
      </trkpt>
      <trkpt lat="44.68133" lon="6.86963">
        <ele>2530.4</ele>
        <time>2026-03-25T11:52:20Z</time>
      </trkpt>
      <trkpt lat="44.68133" lon="6.86963">
        <ele>2530.4</ele>
        <time>2026-03-25T11:52:21Z</time>
      </trkpt>
      <trkpt lat="44.68133" lon="6.86963">
        <ele>2530.4</ele>
        <time>2026-03-25T11:52:22Z</time>
      </trkpt>
      <trkpt lat="44.68133" lon="6.86963">
        <ele>2530.4</ele>
        <time>2026-03-25T11:52:23Z</time>
      </trkpt>
      <trkpt lat="44.68133" lon="6.86963">
        <ele>2530.4</ele>
        <time>2026-03-25T11:52:24Z</time>
      </trkpt>
      <trkpt lat="44.68133" lon="6.86963">
        <ele>2530.4</ele>
        <time>2026-03-25T11:52:25Z</time>
      </trkpt>
      <trkpt lat="44.68133" lon="6.86963">
        <ele>2530.4</ele>
        <time>2026-03-25T11:52:26Z</time>
      </trkpt>
      <trkpt lat="44.68133" lon="6.86963">
        <ele>2530.4</ele>
        <time>2026-03-25T11:52:27Z</time>
      </trkpt>
      <trkpt lat="44.68133" lon="6.86963">
        <ele>2530.4</ele>
        <time>2026-03-25T11:52:28Z</time>
      </trkpt>
      <trkpt lat="44.68133" lon="6.86963">
        <ele>2530.4</ele>
        <time>2026-03-25T11:52:29Z</time>
      </trkpt>
      <trkpt lat="44.68133" lon="6.86963">
        <ele>2530.4</ele>
        <time>2026-03-25T11:52:30Z</time>
      </trkpt>
      <trkpt lat="44.68133" lon="6.86963">
        <ele>2530.4</ele>
        <time>2026-03-25T11:52:31Z</time>
      </trkpt>
      <trkpt lat="44.68133" lon="6.86963">
        <ele>2530.4</ele>
        <time>2026-03-25T11:52:32Z</time>
      </trkpt>
      <trkpt lat="44.68133" lon="6.86963">
        <ele>2530.4</ele>
        <time>2026-03-25T11:52:33Z</time>
      </trkpt>
      <trkpt lat="44.68133" lon="6.86963">
        <ele>2530.4</ele>
        <time>2026-03-25T11:52:34Z</time>
      </trkpt>
      <trkpt lat="44.68133" lon="6.86963">
        <ele>2530.4</ele>
        <time>2026-03-25T11:52:35Z</time>
      </trkpt>
      <trkpt lat="44.68133" lon="6.86963">
        <ele>2530.4</ele>
        <time>2026-03-25T11:52:36Z</time>
      </trkpt>
      <trkpt lat="44.68133" lon="6.86963">
        <ele>2530.4</ele>
        <time>2026-03-25T11:52:37Z</time>
      </trkpt>
      <trkpt lat="44.68133" lon="6.86963">
        <ele>2530.4</ele>
        <time>2026-03-25T11:52:38Z</time>
      </trkpt>
      <trkpt lat="44.68133" lon="6.86963">
        <ele>2530.4</ele>
        <time>2026-03-25T11:52:39Z</time>
      </trkpt>
      <trkpt lat="44.68133" lon="6.86963">
        <ele>2530.4</ele>
        <time>2026-03-25T11:52:40Z</time>
      </trkpt>
      <trkpt lat="44.68133" lon="6.86963">
        <ele>2530.4</ele>
        <time>2026-03-25T11:52:41Z</time>
      </trkpt>
      <trkpt lat="44.68133" lon="6.86963">
        <ele>2530.4</ele>
        <time>2026-03-25T11:52:42Z</time>
      </trkpt>
      <trkpt lat="44.68133" lon="6.86963">
        <ele>2530.4</ele>
        <time>2026-03-25T11:52:43Z</time>
      </trkpt>
      <trkpt lat="44.68133" lon="6.86963">
        <ele>2530.4</ele>
        <time>2026-03-25T11:52:44Z</time>
      </trkpt>
      <trkpt lat="44.68133" lon="6.86963">
        <ele>2530.4</ele>
        <time>2026-03-25T11:52:45Z</time>
      </trkpt>
      <trkpt lat="44.68133" lon="6.86963">
        <ele>2530.4</ele>
        <time>2026-03-25T11:52:46Z</time>
      </trkpt>
      <trkpt lat="44.68132" lon="6.86963">
        <ele>2530.4</ele>
        <time>2026-03-25T11:52:47Z</time>
      </trkpt>
      <trkpt lat="44.68132" lon="6.86963">
        <ele>2530.4</ele>
        <time>2026-03-25T11:52:48Z</time>
      </trkpt>
      <trkpt lat="44.68132" lon="6.86963">
        <ele>2530.4</ele>
        <time>2026-03-25T11:52:49Z</time>
      </trkpt>
      <trkpt lat="44.68133" lon="6.86963">
        <ele>2530.4</ele>
        <time>2026-03-25T11:52:50Z</time>
      </trkpt>
      <trkpt lat="44.68133" lon="6.86963">
        <ele>2530.4</ele>
        <time>2026-03-25T11:52:51Z</time>
      </trkpt>
      <trkpt lat="44.68133" lon="6.86963">
        <ele>2530.3</ele>
        <time>2026-03-25T11:52:52Z</time>
      </trkpt>
      <trkpt lat="44.68133" lon="6.86963">
        <ele>2530.3</ele>
        <time>2026-03-25T11:52:53Z</time>
      </trkpt>
      <trkpt lat="44.68133" lon="6.86963">
        <ele>2530.3</ele>
        <time>2026-03-25T11:52:54Z</time>
      </trkpt>
      <trkpt lat="44.68133" lon="6.86963">
        <ele>2530.3</ele>
        <time>2026-03-25T11:52:55Z</time>
      </trkpt>
      <trkpt lat="44.68133" lon="6.86963">
        <ele>2530.3</ele>
        <time>2026-03-25T11:52:56Z</time>
      </trkpt>
      <trkpt lat="44.68133" lon="6.86963">
        <ele>2530.3</ele>
        <time>2026-03-25T11:52:57Z</time>
      </trkpt>
      <trkpt lat="44.68133" lon="6.86963">
        <ele>2530.3</ele>
        <time>2026-03-25T11:52:58Z</time>
      </trkpt>
      <trkpt lat="44.68133" lon="6.86963">
        <ele>2529.2</ele>
        <time>2026-03-25T11:52:59Z</time>
      </trkpt>
      <trkpt lat="44.68133" lon="6.86963">
        <ele>2529.2</ele>
        <time>2026-03-25T11:53:00Z</time>
      </trkpt>
      <trkpt lat="44.68133" lon="6.86964">
        <ele>2529.2</ele>
        <time>2026-03-25T11:53:01Z</time>
      </trkpt>
      <trkpt lat="44.68133" lon="6.86964">
        <ele>2529.2</ele>
        <time>2026-03-25T11:53:02Z</time>
      </trkpt>
      <trkpt lat="44.68133" lon="6.86964">
        <ele>2529.2</ele>
        <time>2026-03-25T11:53:03Z</time>
      </trkpt>
      <trkpt lat="44.68133" lon="6.86964">
        <ele>2529.2</ele>
        <time>2026-03-25T11:53:04Z</time>
      </trkpt>
      <trkpt lat="44.68133" lon="6.86964">
        <ele>2529.2</ele>
        <time>2026-03-25T11:53:05Z</time>
      </trkpt>
      <trkpt lat="44.68133" lon="6.86964">
        <ele>2529.2</ele>
        <time>2026-03-25T11:53:06Z</time>
      </trkpt>
      <trkpt lat="44.68133" lon="6.86964">
        <ele>2529.2</ele>
        <time>2026-03-25T11:53:07Z</time>
      </trkpt>
      <trkpt lat="44.68133" lon="6.86964">
        <ele>2529.2</ele>
        <time>2026-03-25T11:53:08Z</time>
      </trkpt>
      <trkpt lat="44.68133" lon="6.86964">
        <ele>2529.2</ele>
        <time>2026-03-25T11:53:09Z</time>
      </trkpt>
      <trkpt lat="44.68133" lon="6.86964">
        <ele>2529.2</ele>
        <time>2026-03-25T11:53:10Z</time>
      </trkpt>
      <trkpt lat="44.68133" lon="6.86964">
        <ele>2529.2</ele>
        <time>2026-03-25T11:53:11Z</time>
      </trkpt>
      <trkpt lat="44.68133" lon="6.86964">
        <ele>2529.2</ele>
        <time>2026-03-25T11:53:12Z</time>
      </trkpt>
      <trkpt lat="44.68133" lon="6.86964">
        <ele>2529.2</ele>
        <time>2026-03-25T11:53:13Z</time>
      </trkpt>
      <trkpt lat="44.68133" lon="6.86964">
        <ele>2529.2</ele>
        <time>2026-03-25T11:53:14Z</time>
      </trkpt>
      <trkpt lat="44.68133" lon="6.86964">
        <ele>2529.2</ele>
        <time>2026-03-25T11:53:15Z</time>
      </trkpt>
      <trkpt lat="44.68133" lon="6.86964">
        <ele>2529.2</ele>
        <time>2026-03-25T11:53:16Z</time>
      </trkpt>
      <trkpt lat="44.68133" lon="6.86964">
        <ele>2529.2</ele>
        <time>2026-03-25T11:53:17Z</time>
      </trkpt>
      <trkpt lat="44.68133" lon="6.86964">
        <ele>2529.2</ele>
        <time>2026-03-25T11:53:18Z</time>
      </trkpt>
      <trkpt lat="44.68133" lon="6.86964">
        <ele>2529.2</ele>
        <time>2026-03-25T11:53:19Z</time>
      </trkpt>
      <trkpt lat="44.68133" lon="6.86964">
        <ele>2529.2</ele>
        <time>2026-03-25T11:53:20Z</time>
      </trkpt>
      <trkpt lat="44.68133" lon="6.86964">
        <ele>2529.2</ele>
        <time>2026-03-25T11:53:21Z</time>
      </trkpt>
      <trkpt lat="44.68133" lon="6.86964">
        <ele>2529.2</ele>
        <time>2026-03-25T11:53:22Z</time>
      </trkpt>
      <trkpt lat="44.68133" lon="6.86964">
        <ele>2529.2</ele>
        <time>2026-03-25T11:53:23Z</time>
      </trkpt>
      <trkpt lat="44.68133" lon="6.86964">
        <ele>2529.2</ele>
        <time>2026-03-25T11:53:24Z</time>
      </trkpt>
      <trkpt lat="44.68133" lon="6.86964">
        <ele>2529.2</ele>
        <time>2026-03-25T11:53:25Z</time>
      </trkpt>
      <trkpt lat="44.68133" lon="6.86964">
        <ele>2529.2</ele>
        <time>2026-03-25T11:53:26Z</time>
      </trkpt>
      <trkpt lat="44.68133" lon="6.86964">
        <ele>2529.2</ele>
        <time>2026-03-25T11:53:27Z</time>
      </trkpt>
      <trkpt lat="44.68133" lon="6.86964">
        <ele>2529.2</ele>
        <time>2026-03-25T11:53:28Z</time>
      </trkpt>
      <trkpt lat="44.68133" lon="6.86964">
        <ele>2529.2</ele>
        <time>2026-03-25T11:53:29Z</time>
      </trkpt>
      <trkpt lat="44.68133" lon="6.86964">
        <ele>2529.2</ele>
        <time>2026-03-25T11:53:30Z</time>
      </trkpt>
      <trkpt lat="44.68133" lon="6.86964">
        <ele>2529.2</ele>
        <time>2026-03-25T11:53:31Z</time>
      </trkpt>
      <trkpt lat="44.68133" lon="6.86964">
        <ele>2529.2</ele>
        <time>2026-03-25T11:53:32Z</time>
      </trkpt>
      <trkpt lat="44.68133" lon="6.86964">
        <ele>2529.2</ele>
        <time>2026-03-25T11:53:33Z</time>
      </trkpt>
      <trkpt lat="44.68133" lon="6.86964">
        <ele>2529.2</ele>
        <time>2026-03-25T11:53:34Z</time>
      </trkpt>
      <trkpt lat="44.68133" lon="6.86964">
        <ele>2529.2</ele>
        <time>2026-03-25T11:53:35Z</time>
      </trkpt>
      <trkpt lat="44.68133" lon="6.86964">
        <ele>2529.2</ele>
        <time>2026-03-25T11:53:36Z</time>
      </trkpt>
      <trkpt lat="44.68133" lon="6.86964">
        <ele>2529.2</ele>
        <time>2026-03-25T11:53:37Z</time>
      </trkpt>
      <trkpt lat="44.68133" lon="6.86964">
        <ele>2529.2</ele>
        <time>2026-03-25T11:53:38Z</time>
      </trkpt>
      <trkpt lat="44.68133" lon="6.86964">
        <ele>2529.2</ele>
        <time>2026-03-25T11:53:39Z</time>
      </trkpt>
      <trkpt lat="44.68133" lon="6.86964">
        <ele>2529.2</ele>
        <time>2026-03-25T11:53:40Z</time>
      </trkpt>
      <trkpt lat="44.68133" lon="6.86964">
        <ele>2529.2</ele>
        <time>2026-03-25T11:53:41Z</time>
      </trkpt>
      <trkpt lat="44.68133" lon="6.86964">
        <ele>2529.2</ele>
        <time>2026-03-25T11:53:42Z</time>
      </trkpt>
      <trkpt lat="44.68133" lon="6.86964">
        <ele>2529.2</ele>
        <time>2026-03-25T11:53:43Z</time>
      </trkpt>
      <trkpt lat="44.68133" lon="6.86964">
        <ele>2529.2</ele>
        <time>2026-03-25T11:53:44Z</time>
      </trkpt>
      <trkpt lat="44.68133" lon="6.86964">
        <ele>2529.2</ele>
        <time>2026-03-25T11:53:45Z</time>
      </trkpt>
      <trkpt lat="44.68133" lon="6.86964">
        <ele>2529.2</ele>
        <time>2026-03-25T11:53:46Z</time>
      </trkpt>
      <trkpt lat="44.68132" lon="6.86964">
        <ele>2529.2</ele>
        <time>2026-03-25T11:53:47Z</time>
      </trkpt>
      <trkpt lat="44.68132" lon="6.86964">
        <ele>2529.2</ele>
        <time>2026-03-25T11:53:48Z</time>
      </trkpt>
      <trkpt lat="44.68132" lon="6.86964">
        <ele>2529.2</ele>
        <time>2026-03-25T11:53:49Z</time>
      </trkpt>
      <trkpt lat="44.68132" lon="6.86964">
        <ele>2529.2</ele>
        <time>2026-03-25T11:53:50Z</time>
      </trkpt>
      <trkpt lat="44.68132" lon="6.86964">
        <ele>2529.2</ele>
        <time>2026-03-25T11:53:51Z</time>
      </trkpt>
      <trkpt lat="44.68132" lon="6.86964">
        <ele>2529.2</ele>
        <time>2026-03-25T11:53:52Z</time>
      </trkpt>
      <trkpt lat="44.68132" lon="6.86964">
        <ele>2529.2</ele>
        <time>2026-03-25T11:53:53Z</time>
      </trkpt>
      <trkpt lat="44.68132" lon="6.86964">
        <ele>2529.2</ele>
        <time>2026-03-25T11:53:54Z</time>
      </trkpt>
      <trkpt lat="44.68132" lon="6.86964">
        <ele>2529.2</ele>
        <time>2026-03-25T11:53:55Z</time>
      </trkpt>
      <trkpt lat="44.68132" lon="6.86964">
        <ele>2529.2</ele>
        <time>2026-03-25T11:53:56Z</time>
      </trkpt>
      <trkpt lat="44.68132" lon="6.86964">
        <ele>2529.2</ele>
        <time>2026-03-25T11:53:57Z</time>
      </trkpt>
      <trkpt lat="44.68132" lon="6.86964">
        <ele>2529.2</ele>
        <time>2026-03-25T11:53:58Z</time>
      </trkpt>
      <trkpt lat="44.68132" lon="6.86964">
        <ele>2529.2</ele>
        <time>2026-03-25T11:53:59Z</time>
      </trkpt>
      <trkpt lat="44.68132" lon="6.86964">
        <ele>2529.2</ele>
        <time>2026-03-25T11:54:00Z</time>
      </trkpt>
      <trkpt lat="44.68132" lon="6.86964">
        <ele>2529.2</ele>
        <time>2026-03-25T11:54:01Z</time>
      </trkpt>
      <trkpt lat="44.68132" lon="6.86964">
        <ele>2529.2</ele>
        <time>2026-03-25T11:54:02Z</time>
      </trkpt>
      <trkpt lat="44.68132" lon="6.86964">
        <ele>2529.2</ele>
        <time>2026-03-25T11:54:03Z</time>
      </trkpt>
      <trkpt lat="44.68132" lon="6.86964">
        <ele>2529.2</ele>
        <time>2026-03-25T11:54:04Z</time>
      </trkpt>
      <trkpt lat="44.68132" lon="6.86964">
        <ele>2529.1</ele>
        <time>2026-03-25T11:54:05Z</time>
      </trkpt>
      <trkpt lat="44.68132" lon="6.86964">
        <ele>2529.1</ele>
        <time>2026-03-25T11:54:06Z</time>
      </trkpt>
      <trkpt lat="44.68132" lon="6.86964">
        <ele>2529.1</ele>
        <time>2026-03-25T11:54:07Z</time>
      </trkpt>
      <trkpt lat="44.68132" lon="6.86964">
        <ele>2529.1</ele>
        <time>2026-03-25T11:54:08Z</time>
      </trkpt>
      <trkpt lat="44.68132" lon="6.86964">
        <ele>2529.1</ele>
        <time>2026-03-25T11:54:09Z</time>
      </trkpt>
      <trkpt lat="44.68132" lon="6.86964">
        <ele>2529.1</ele>
        <time>2026-03-25T11:54:10Z</time>
      </trkpt>
      <trkpt lat="44.68129" lon="6.86964">
        <ele>2529.9</ele>
        <time>2026-03-25T11:54:11Z</time>
      </trkpt>
      <trkpt lat="44.68126" lon="6.86964">
        <ele>2530.6</ele>
        <time>2026-03-25T11:54:12Z</time>
      </trkpt>
      <trkpt lat="44.68125" lon="6.86963">
        <ele>2532.7</ele>
        <time>2026-03-25T11:54:13Z</time>
      </trkpt>
      <trkpt lat="44.68125" lon="6.86961">
        <ele>2532.7</ele>
        <time>2026-03-25T11:54:14Z</time>
      </trkpt>
      <trkpt lat="44.68125" lon="6.8696">
        <ele>2532.7</ele>
        <time>2026-03-25T11:54:15Z</time>
      </trkpt>
      <trkpt lat="44.68125" lon="6.86959">
        <ele>2533.9</ele>
        <time>2026-03-25T11:54:16Z</time>
      </trkpt>
      <trkpt lat="44.68125" lon="6.86957">
        <ele>2533.9</ele>
        <time>2026-03-25T11:54:17Z</time>
      </trkpt>
      <trkpt lat="44.68125" lon="6.86956">
        <ele>2533.9</ele>
        <time>2026-03-25T11:54:18Z</time>
      </trkpt>
      <trkpt lat="44.68125" lon="6.86955">
        <ele>2533.9</ele>
        <time>2026-03-25T11:54:19Z</time>
      </trkpt>
      <trkpt lat="44.68124" lon="6.86955">
        <ele>2533.9</ele>
        <time>2026-03-25T11:54:20Z</time>
      </trkpt>
      <trkpt lat="44.68124" lon="6.86954">
        <ele>2535</ele>
        <time>2026-03-25T11:54:21Z</time>
      </trkpt>
      <trkpt lat="44.68122" lon="6.86952">
        <ele>2535.9</ele>
        <time>2026-03-25T11:54:22Z</time>
      </trkpt>
      <trkpt lat="44.6812" lon="6.8695">
        <ele>2536.8</ele>
        <time>2026-03-25T11:54:23Z</time>
      </trkpt>
      <trkpt lat="44.68118" lon="6.86947">
        <ele>2537.8</ele>
        <time>2026-03-25T11:54:24Z</time>
      </trkpt>
      <trkpt lat="44.6812" lon="6.86945">
        <ele>2537.6</ele>
        <time>2026-03-25T11:54:25Z</time>
      </trkpt>
      <trkpt lat="44.6812" lon="6.8694">
        <ele>2539.3</ele>
        <time>2026-03-25T11:54:26Z</time>
      </trkpt>
      <trkpt lat="44.6812" lon="6.86939">
        <ele>2538.3</ele>
        <time>2026-03-25T11:54:27Z</time>
      </trkpt>
      <trkpt lat="44.68121" lon="6.86937">
        <ele>2539</ele>
        <time>2026-03-25T11:54:28Z</time>
      </trkpt>
      <trkpt lat="44.6812" lon="6.86935">
        <ele>2539.9</ele>
        <time>2026-03-25T11:54:29Z</time>
      </trkpt>
      <trkpt lat="44.68119" lon="6.86933">
        <ele>2539.9</ele>
        <time>2026-03-25T11:54:30Z</time>
      </trkpt>
      <trkpt lat="44.68118" lon="6.86932">
        <ele>2540.5</ele>
        <time>2026-03-25T11:54:31Z</time>
      </trkpt>
      <trkpt lat="44.68116" lon="6.8693">
        <ele>2541.6</ele>
        <time>2026-03-25T11:54:32Z</time>
      </trkpt>
      <trkpt lat="44.68115" lon="6.86929">
        <ele>2542.1</ele>
        <time>2026-03-25T11:54:33Z</time>
      </trkpt>
      <trkpt lat="44.68114" lon="6.86927">
        <ele>2542.1</ele>
        <time>2026-03-25T11:54:34Z</time>
      </trkpt>
      <trkpt lat="44.68113" lon="6.86925">
        <ele>2543.3</ele>
        <time>2026-03-25T11:54:35Z</time>
      </trkpt>
      <trkpt lat="44.68113" lon="6.86923">
        <ele>2543.8</ele>
        <time>2026-03-25T11:54:36Z</time>
      </trkpt>
      <trkpt lat="44.68112" lon="6.86921">
        <ele>2543.8</ele>
        <time>2026-03-25T11:54:37Z</time>
      </trkpt>
      <trkpt lat="44.68107" lon="6.86896">
        <ele>2547.7</ele>
        <time>2026-03-25T11:54:38Z</time>
      </trkpt>
      <trkpt lat="44.68107" lon="6.86894">
        <ele>2547.7</ele>
        <time>2026-03-25T11:54:39Z</time>
      </trkpt>
      <trkpt lat="44.68106" lon="6.86893">
        <ele>2547.7</ele>
        <time>2026-03-25T11:54:40Z</time>
      </trkpt>
      <trkpt lat="44.68105" lon="6.86892">
        <ele>2547.7</ele>
        <time>2026-03-25T11:54:41Z</time>
      </trkpt>
      <trkpt lat="44.68105" lon="6.86892">
        <ele>2547.7</ele>
        <time>2026-03-25T11:54:42Z</time>
      </trkpt>
      <trkpt lat="44.68105" lon="6.86892">
        <ele>2547.7</ele>
        <time>2026-03-25T11:54:43Z</time>
      </trkpt>
      <trkpt lat="44.68105" lon="6.86892">
        <ele>2547.7</ele>
        <time>2026-03-25T11:54:44Z</time>
      </trkpt>
      <trkpt lat="44.68105" lon="6.86892">
        <ele>2547.7</ele>
        <time>2026-03-25T11:54:45Z</time>
      </trkpt>
      <trkpt lat="44.68104" lon="6.86891">
        <ele>2548.9</ele>
        <time>2026-03-25T11:54:46Z</time>
      </trkpt>
      <trkpt lat="44.68104" lon="6.8689">
        <ele>2548.9</ele>
        <time>2026-03-25T11:54:47Z</time>
      </trkpt>
      <trkpt lat="44.68103" lon="6.86888">
        <ele>2548.9</ele>
        <time>2026-03-25T11:54:48Z</time>
      </trkpt>
      <trkpt lat="44.68103" lon="6.86887">
        <ele>2548.9</ele>
        <time>2026-03-25T11:54:49Z</time>
      </trkpt>
      <trkpt lat="44.68102" lon="6.86886">
        <ele>2548.8</ele>
        <time>2026-03-25T11:54:50Z</time>
      </trkpt>
      <trkpt lat="44.68101" lon="6.86883">
        <ele>2548.8</ele>
        <time>2026-03-25T11:54:51Z</time>
      </trkpt>
      <trkpt lat="44.68101" lon="6.86881">
        <ele>2549.8</ele>
        <time>2026-03-25T11:54:52Z</time>
      </trkpt>
      <trkpt lat="44.681" lon="6.8688">
        <ele>2549.8</ele>
        <time>2026-03-25T11:54:53Z</time>
      </trkpt>
      <trkpt lat="44.681" lon="6.86878">
        <ele>2549.8</ele>
        <time>2026-03-25T11:54:54Z</time>
      </trkpt>
      <trkpt lat="44.68099" lon="6.86878">
        <ele>2549.8</ele>
        <time>2026-03-25T11:54:55Z</time>
      </trkpt>
      <trkpt lat="44.68099" lon="6.86877">
        <ele>2549.6</ele>
        <time>2026-03-25T11:54:56Z</time>
      </trkpt>
      <trkpt lat="44.68099" lon="6.86876">
        <ele>2549.6</ele>
        <time>2026-03-25T11:54:57Z</time>
      </trkpt>
      <trkpt lat="44.68099" lon="6.86874">
        <ele>2549.6</ele>
        <time>2026-03-25T11:54:58Z</time>
      </trkpt>
      <trkpt lat="44.68098" lon="6.86872">
        <ele>2549.3</ele>
        <time>2026-03-25T11:54:59Z</time>
      </trkpt>
      <trkpt lat="44.68098" lon="6.86868">
        <ele>2550.1</ele>
        <time>2026-03-25T11:55:00Z</time>
      </trkpt>
      <trkpt lat="44.68097" lon="6.86867">
        <ele>2550.1</ele>
        <time>2026-03-25T11:55:01Z</time>
      </trkpt>
      <trkpt lat="44.68097" lon="6.86865">
        <ele>2550.1</ele>
        <time>2026-03-25T11:55:02Z</time>
      </trkpt>
      <trkpt lat="44.68096" lon="6.86862">
        <ele>2549.7</ele>
        <time>2026-03-25T11:55:03Z</time>
      </trkpt>
      <trkpt lat="44.68096" lon="6.8686">
        <ele>2549.2</ele>
        <time>2026-03-25T11:55:04Z</time>
      </trkpt>
      <trkpt lat="44.68095" lon="6.86858">
        <ele>2549.2</ele>
        <time>2026-03-25T11:55:05Z</time>
      </trkpt>
      <trkpt lat="44.68095" lon="6.86855">
        <ele>2549.9</ele>
        <time>2026-03-25T11:55:06Z</time>
      </trkpt>
      <trkpt lat="44.68095" lon="6.86854">
        <ele>2549.9</ele>
        <time>2026-03-25T11:55:07Z</time>
      </trkpt>
      <trkpt lat="44.68094" lon="6.86853">
        <ele>2549.9</ele>
        <time>2026-03-25T11:55:08Z</time>
      </trkpt>
      <trkpt lat="44.68093" lon="6.8685">
        <ele>2549.3</ele>
        <time>2026-03-25T11:55:09Z</time>
      </trkpt>
      <trkpt lat="44.68093" lon="6.86849">
        <ele>2549.3</ele>
        <time>2026-03-25T11:55:10Z</time>
      </trkpt>
      <trkpt lat="44.68093" lon="6.86848">
        <ele>2549.3</ele>
        <time>2026-03-25T11:55:11Z</time>
      </trkpt>
      <trkpt lat="44.68092" lon="6.86846">
        <ele>2548.7</ele>
        <time>2026-03-25T11:55:12Z</time>
      </trkpt>
      <trkpt lat="44.68092" lon="6.86844">
        <ele>2550</ele>
        <time>2026-03-25T11:55:13Z</time>
      </trkpt>
      <trkpt lat="44.68091" lon="6.86841">
        <ele>2549.2</ele>
        <time>2026-03-25T11:55:14Z</time>
      </trkpt>
      <trkpt lat="44.68091" lon="6.8684">
        <ele>2549.2</ele>
        <time>2026-03-25T11:55:15Z</time>
      </trkpt>
      <trkpt lat="44.68091" lon="6.86838">
        <ele>2548.4</ele>
        <time>2026-03-25T11:55:16Z</time>
      </trkpt>
      <trkpt lat="44.6809" lon="6.86835">
        <ele>2548.4</ele>
        <time>2026-03-25T11:55:17Z</time>
      </trkpt>
      <trkpt lat="44.6809" lon="6.86833">
        <ele>2547.5</ele>
        <time>2026-03-25T11:55:18Z</time>
      </trkpt>
      <trkpt lat="44.68094" lon="6.86832">
        <ele>2546.1</ele>
        <time>2026-03-25T11:55:19Z</time>
      </trkpt>
      <trkpt lat="44.68095" lon="6.86832">
        <ele>2544.9</ele>
        <time>2026-03-25T11:55:20Z</time>
      </trkpt>
      <trkpt lat="44.68097" lon="6.86827">
        <ele>2543.8</ele>
        <time>2026-03-25T11:55:21Z</time>
      </trkpt>
      <trkpt lat="44.68097" lon="6.86823">
        <ele>2542.8</ele>
        <time>2026-03-25T11:55:22Z</time>
      </trkpt>
      <trkpt lat="44.68095" lon="6.86818">
        <ele>2541.6</ele>
        <time>2026-03-25T11:55:23Z</time>
      </trkpt>
      <trkpt lat="44.68095" lon="6.86815">
        <ele>2541.7</ele>
        <time>2026-03-25T11:55:24Z</time>
      </trkpt>
      <trkpt lat="44.68095" lon="6.86811">
        <ele>2539.1</ele>
        <time>2026-03-25T11:55:25Z</time>
      </trkpt>
      <trkpt lat="44.68095" lon="6.86809">
        <ele>2539.1</ele>
        <time>2026-03-25T11:55:26Z</time>
      </trkpt>
      <trkpt lat="44.68099" lon="6.8681">
        <ele>2538</ele>
        <time>2026-03-25T11:55:27Z</time>
      </trkpt>
      <trkpt lat="44.68101" lon="6.86807">
        <ele>2535.4</ele>
        <time>2026-03-25T11:55:28Z</time>
      </trkpt>
      <trkpt lat="44.68102" lon="6.86804">
        <ele>2533.9</ele>
        <time>2026-03-25T11:55:29Z</time>
      </trkpt>
      <trkpt lat="44.68101" lon="6.86799">
        <ele>2532.4</ele>
        <time>2026-03-25T11:55:30Z</time>
      </trkpt>
      <trkpt lat="44.68102" lon="6.86796">
        <ele>2530.7</ele>
        <time>2026-03-25T11:55:31Z</time>
      </trkpt>
      <trkpt lat="44.68105" lon="6.86794">
        <ele>2529.4</ele>
        <time>2026-03-25T11:55:32Z</time>
      </trkpt>
      <trkpt lat="44.68107" lon="6.86795">
        <ele>2529.4</ele>
        <time>2026-03-25T11:55:33Z</time>
      </trkpt>
      <trkpt lat="44.68107" lon="6.86791">
        <ele>2527.8</ele>
        <time>2026-03-25T11:55:34Z</time>
      </trkpt>
      <trkpt lat="44.68106" lon="6.86787">
        <ele>2526.1</ele>
        <time>2026-03-25T11:55:35Z</time>
      </trkpt>
      <trkpt lat="44.68105" lon="6.86785">
        <ele>2526.1</ele>
        <time>2026-03-25T11:55:36Z</time>
      </trkpt>
      <trkpt lat="44.68105" lon="6.86785">
        <ele>2526.1</ele>
        <time>2026-03-25T11:55:37Z</time>
      </trkpt>
      <trkpt lat="44.68105" lon="6.86785">
        <ele>2526.1</ele>
        <time>2026-03-25T11:55:38Z</time>
      </trkpt>
      <trkpt lat="44.68105" lon="6.86785">
        <ele>2526.1</ele>
        <time>2026-03-25T11:55:39Z</time>
      </trkpt>
      <trkpt lat="44.68105" lon="6.86785">
        <ele>2526.1</ele>
        <time>2026-03-25T11:55:40Z</time>
      </trkpt>
      <trkpt lat="44.68105" lon="6.86785">
        <ele>2526.1</ele>
        <time>2026-03-25T11:55:41Z</time>
      </trkpt>
      <trkpt lat="44.68105" lon="6.86785">
        <ele>2526.1</ele>
        <time>2026-03-25T11:55:42Z</time>
      </trkpt>
      <trkpt lat="44.68105" lon="6.86785">
        <ele>2526.1</ele>
        <time>2026-03-25T11:55:43Z</time>
      </trkpt>
      <trkpt lat="44.68105" lon="6.86785">
        <ele>2526.1</ele>
        <time>2026-03-25T11:55:44Z</time>
      </trkpt>
      <trkpt lat="44.68105" lon="6.86785">
        <ele>2526.1</ele>
        <time>2026-03-25T11:55:45Z</time>
      </trkpt>
      <trkpt lat="44.68106" lon="6.86785">
        <ele>2526.1</ele>
        <time>2026-03-25T11:55:46Z</time>
      </trkpt>
      <trkpt lat="44.68106" lon="6.86785">
        <ele>2526.1</ele>
        <time>2026-03-25T11:55:47Z</time>
      </trkpt>
      <trkpt lat="44.68105" lon="6.86785">
        <ele>2526.1</ele>
        <time>2026-03-25T11:55:48Z</time>
      </trkpt>
      <trkpt lat="44.68105" lon="6.86785">
        <ele>2526.1</ele>
        <time>2026-03-25T11:55:49Z</time>
      </trkpt>
      <trkpt lat="44.68105" lon="6.86785">
        <ele>2526.1</ele>
        <time>2026-03-25T11:55:50Z</time>
      </trkpt>
      <trkpt lat="44.68105" lon="6.86785">
        <ele>2526.1</ele>
        <time>2026-03-25T11:55:51Z</time>
      </trkpt>
      <trkpt lat="44.68105" lon="6.86785">
        <ele>2526.1</ele>
        <time>2026-03-25T11:55:52Z</time>
      </trkpt>
      <trkpt lat="44.68105" lon="6.86785">
        <ele>2526</ele>
        <time>2026-03-25T11:55:53Z</time>
      </trkpt>
      <trkpt lat="44.68105" lon="6.86785">
        <ele>2526</ele>
        <time>2026-03-25T11:55:54Z</time>
      </trkpt>
      <trkpt lat="44.68105" lon="6.86785">
        <ele>2526</ele>
        <time>2026-03-25T11:55:55Z</time>
      </trkpt>
      <trkpt lat="44.68105" lon="6.86785">
        <ele>2526</ele>
        <time>2026-03-25T11:55:56Z</time>
      </trkpt>
      <trkpt lat="44.68105" lon="6.86785">
        <ele>2526</ele>
        <time>2026-03-25T11:55:57Z</time>
      </trkpt>
      <trkpt lat="44.68105" lon="6.86785">
        <ele>2526</ele>
        <time>2026-03-25T11:55:58Z</time>
      </trkpt>
      <trkpt lat="44.68105" lon="6.86785">
        <ele>2526</ele>
        <time>2026-03-25T11:55:59Z</time>
      </trkpt>
      <trkpt lat="44.68105" lon="6.86785">
        <ele>2526</ele>
        <time>2026-03-25T11:56:00Z</time>
      </trkpt>
      <trkpt lat="44.68105" lon="6.86785">
        <ele>2526</ele>
        <time>2026-03-25T11:56:01Z</time>
      </trkpt>
      <trkpt lat="44.68105" lon="6.86785">
        <ele>2526</ele>
        <time>2026-03-25T11:56:02Z</time>
      </trkpt>
      <trkpt lat="44.68105" lon="6.86785">
        <ele>2526</ele>
        <time>2026-03-25T11:56:03Z</time>
      </trkpt>
      <trkpt lat="44.68105" lon="6.86785">
        <ele>2526</ele>
        <time>2026-03-25T11:56:04Z</time>
      </trkpt>
      <trkpt lat="44.68105" lon="6.86785">
        <ele>2526</ele>
        <time>2026-03-25T11:56:05Z</time>
      </trkpt>
      <trkpt lat="44.68105" lon="6.86785">
        <ele>2526</ele>
        <time>2026-03-25T11:56:06Z</time>
      </trkpt>
      <trkpt lat="44.68105" lon="6.86785">
        <ele>2526</ele>
        <time>2026-03-25T11:56:07Z</time>
      </trkpt>
      <trkpt lat="44.68105" lon="6.86785">
        <ele>2526</ele>
        <time>2026-03-25T11:56:08Z</time>
      </trkpt>
      <trkpt lat="44.68105" lon="6.86785">
        <ele>2526</ele>
        <time>2026-03-25T11:56:09Z</time>
      </trkpt>
      <trkpt lat="44.68105" lon="6.86785">
        <ele>2526</ele>
        <time>2026-03-25T11:56:10Z</time>
      </trkpt>
      <trkpt lat="44.68105" lon="6.86785">
        <ele>2526</ele>
        <time>2026-03-25T11:56:11Z</time>
      </trkpt>
      <trkpt lat="44.68105" lon="6.86785">
        <ele>2526</ele>
        <time>2026-03-25T11:56:12Z</time>
      </trkpt>
      <trkpt lat="44.68105" lon="6.86785">
        <ele>2526</ele>
        <time>2026-03-25T11:56:13Z</time>
      </trkpt>
      <trkpt lat="44.68105" lon="6.86785">
        <ele>2526</ele>
        <time>2026-03-25T11:56:14Z</time>
      </trkpt>
      <trkpt lat="44.68105" lon="6.86785">
        <ele>2526</ele>
        <time>2026-03-25T11:56:15Z</time>
      </trkpt>
      <trkpt lat="44.68105" lon="6.86785">
        <ele>2526</ele>
        <time>2026-03-25T11:56:16Z</time>
      </trkpt>
      <trkpt lat="44.68105" lon="6.86785">
        <ele>2526</ele>
        <time>2026-03-25T11:56:17Z</time>
      </trkpt>
      <trkpt lat="44.68105" lon="6.86785">
        <ele>2526</ele>
        <time>2026-03-25T11:56:18Z</time>
      </trkpt>
      <trkpt lat="44.68105" lon="6.86785">
        <ele>2526</ele>
        <time>2026-03-25T11:56:19Z</time>
      </trkpt>
      <trkpt lat="44.68105" lon="6.86785">
        <ele>2526</ele>
        <time>2026-03-25T11:56:20Z</time>
      </trkpt>
      <trkpt lat="44.68105" lon="6.86785">
        <ele>2526</ele>
        <time>2026-03-25T11:56:21Z</time>
      </trkpt>
      <trkpt lat="44.68105" lon="6.86785">
        <ele>2526</ele>
        <time>2026-03-25T11:56:22Z</time>
      </trkpt>
      <trkpt lat="44.68105" lon="6.86785">
        <ele>2526</ele>
        <time>2026-03-25T11:56:23Z</time>
      </trkpt>
      <trkpt lat="44.68105" lon="6.86785">
        <ele>2526</ele>
        <time>2026-03-25T11:56:24Z</time>
      </trkpt>
      <trkpt lat="44.68105" lon="6.86785">
        <ele>2526</ele>
        <time>2026-03-25T11:56:25Z</time>
      </trkpt>
      <trkpt lat="44.68106" lon="6.86784">
        <ele>2526</ele>
        <time>2026-03-25T11:56:26Z</time>
      </trkpt>
      <trkpt lat="44.68106" lon="6.86785">
        <ele>2526</ele>
        <time>2026-03-25T11:56:27Z</time>
      </trkpt>
      <trkpt lat="44.68106" lon="6.86785">
        <ele>2526</ele>
        <time>2026-03-25T11:56:28Z</time>
      </trkpt>
      <trkpt lat="44.68106" lon="6.86785">
        <ele>2526</ele>
        <time>2026-03-25T11:56:29Z</time>
      </trkpt>
      <trkpt lat="44.68106" lon="6.86785">
        <ele>2526</ele>
        <time>2026-03-25T11:56:30Z</time>
      </trkpt>
      <trkpt lat="44.68106" lon="6.86785">
        <ele>2526</ele>
        <time>2026-03-25T11:56:31Z</time>
      </trkpt>
      <trkpt lat="44.68106" lon="6.86785">
        <ele>2526</ele>
        <time>2026-03-25T11:56:32Z</time>
      </trkpt>
      <trkpt lat="44.68106" lon="6.86785">
        <ele>2526</ele>
        <time>2026-03-25T11:56:33Z</time>
      </trkpt>
      <trkpt lat="44.68106" lon="6.86785">
        <ele>2526</ele>
        <time>2026-03-25T11:56:34Z</time>
      </trkpt>
      <trkpt lat="44.68106" lon="6.86784">
        <ele>2526</ele>
        <time>2026-03-25T11:56:35Z</time>
      </trkpt>
      <trkpt lat="44.68106" lon="6.86784">
        <ele>2526</ele>
        <time>2026-03-25T11:56:36Z</time>
      </trkpt>
      <trkpt lat="44.68105" lon="6.86783">
        <ele>2524.3</ele>
        <time>2026-03-25T11:56:37Z</time>
      </trkpt>
      <trkpt lat="44.68105" lon="6.86781">
        <ele>2524.3</ele>
        <time>2026-03-25T11:56:38Z</time>
      </trkpt>
      <trkpt lat="44.68105" lon="6.8678">
        <ele>2524.3</ele>
        <time>2026-03-25T11:56:39Z</time>
      </trkpt>
      <trkpt lat="44.68105" lon="6.86778">
        <ele>2522.7</ele>
        <time>2026-03-25T11:56:40Z</time>
      </trkpt>
      <trkpt lat="44.68104" lon="6.86776">
        <ele>2523.9</ele>
        <time>2026-03-25T11:56:41Z</time>
      </trkpt>
      <trkpt lat="44.68104" lon="6.86774">
        <ele>2522.4</ele>
        <time>2026-03-25T11:56:42Z</time>
      </trkpt>
      <trkpt lat="44.68103" lon="6.86769">
        <ele>2520.9</ele>
        <time>2026-03-25T11:56:43Z</time>
      </trkpt>
      <trkpt lat="44.68103" lon="6.86767">
        <ele>2520.9</ele>
        <time>2026-03-25T11:56:44Z</time>
      </trkpt>
      <trkpt lat="44.68102" lon="6.86762">
        <ele>2519.6</ele>
        <time>2026-03-25T11:56:45Z</time>
      </trkpt>
      <trkpt lat="44.68102" lon="6.86761">
        <ele>2518.3</ele>
        <time>2026-03-25T11:56:46Z</time>
      </trkpt>
      <trkpt lat="44.68102" lon="6.86757">
        <ele>2517.1</ele>
        <time>2026-03-25T11:56:47Z</time>
      </trkpt>
      <trkpt lat="44.68103" lon="6.86752">
        <ele>2516</ele>
        <time>2026-03-25T11:56:48Z</time>
      </trkpt>
      <trkpt lat="44.68103" lon="6.86748">
        <ele>2514.9</ele>
        <time>2026-03-25T11:56:49Z</time>
      </trkpt>
      <trkpt lat="44.68106" lon="6.86746">
        <ele>2513.6</ele>
        <time>2026-03-25T11:56:50Z</time>
      </trkpt>
      <trkpt lat="44.6811" lon="6.86747">
        <ele>2512.2</ele>
        <time>2026-03-25T11:56:51Z</time>
      </trkpt>
      <trkpt lat="44.68112" lon="6.86746">
        <ele>2510.7</ele>
        <time>2026-03-25T11:56:52Z</time>
      </trkpt>
      <trkpt lat="44.68116" lon="6.86746">
        <ele>2509.3</ele>
        <time>2026-03-25T11:56:53Z</time>
      </trkpt>
      <trkpt lat="44.68119" lon="6.86748">
        <ele>2508.1</ele>
        <time>2026-03-25T11:56:54Z</time>
      </trkpt>
      <trkpt lat="44.68122" lon="6.86747">
        <ele>2507</ele>
        <time>2026-03-25T11:56:55Z</time>
      </trkpt>
      <trkpt lat="44.68125" lon="6.86745">
        <ele>2506.1</ele>
        <time>2026-03-25T11:56:56Z</time>
      </trkpt>
      <trkpt lat="44.68129" lon="6.86745">
        <ele>2505.2</ele>
        <time>2026-03-25T11:56:57Z</time>
      </trkpt>
      <trkpt lat="44.68131" lon="6.86741">
        <ele>2502.9</ele>
        <time>2026-03-25T11:56:58Z</time>
      </trkpt>
      <trkpt lat="44.68131" lon="6.86736">
        <ele>2501.8</ele>
        <time>2026-03-25T11:56:59Z</time>
      </trkpt>
      <trkpt lat="44.68131" lon="6.86732">
        <ele>2500.7</ele>
        <time>2026-03-25T11:57:00Z</time>
      </trkpt>
      <trkpt lat="44.68132" lon="6.86727">
        <ele>2498.5</ele>
        <time>2026-03-25T11:57:01Z</time>
      </trkpt>
      <trkpt lat="44.68132" lon="6.86723">
        <ele>2496.7</ele>
        <time>2026-03-25T11:57:02Z</time>
      </trkpt>
      <trkpt lat="44.68133" lon="6.86717">
        <ele>2495.9</ele>
        <time>2026-03-25T11:57:03Z</time>
      </trkpt>
      <trkpt lat="44.68134" lon="6.86713">
        <ele>2495.1</ele>
        <time>2026-03-25T11:57:04Z</time>
      </trkpt>
      <trkpt lat="44.68135" lon="6.86708">
        <ele>2492.8</ele>
        <time>2026-03-25T11:57:05Z</time>
      </trkpt>
      <trkpt lat="44.68137" lon="6.86703">
        <ele>2492.1</ele>
        <time>2026-03-25T11:57:06Z</time>
      </trkpt>
      <trkpt lat="44.68138" lon="6.86698">
        <ele>2489.7</ele>
        <time>2026-03-25T11:57:07Z</time>
      </trkpt>
      <trkpt lat="44.6814" lon="6.86695">
        <ele>2489</ele>
        <time>2026-03-25T11:57:08Z</time>
      </trkpt>
      <trkpt lat="44.68142" lon="6.86698">
        <ele>2488.2</ele>
        <time>2026-03-25T11:57:09Z</time>
      </trkpt>
      <trkpt lat="44.68146" lon="6.86698">
        <ele>2486.6</ele>
        <time>2026-03-25T11:57:10Z</time>
      </trkpt>
      <trkpt lat="44.68147" lon="6.86696">
        <ele>2484.2</ele>
        <time>2026-03-25T11:57:11Z</time>
      </trkpt>
      <trkpt lat="44.6815" lon="6.86692">
        <ele>2483.4</ele>
        <time>2026-03-25T11:57:12Z</time>
      </trkpt>
      <trkpt lat="44.68152" lon="6.86688">
        <ele>2481.1</ele>
        <time>2026-03-25T11:57:13Z</time>
      </trkpt>
      <trkpt lat="44.68156" lon="6.86686">
        <ele>2479.4</ele>
        <time>2026-03-25T11:57:14Z</time>
      </trkpt>
      <trkpt lat="44.68157" lon="6.86692">
        <ele>2478.6</ele>
        <time>2026-03-25T11:57:15Z</time>
      </trkpt>
      <trkpt lat="44.6816" lon="6.8669">
        <ele>2476.9</ele>
        <time>2026-03-25T11:57:16Z</time>
      </trkpt>
      <trkpt lat="44.68162" lon="6.86686">
        <ele>2476.1</ele>
        <time>2026-03-25T11:57:17Z</time>
      </trkpt>
      <trkpt lat="44.68163" lon="6.86682">
        <ele>2473.5</ele>
        <time>2026-03-25T11:57:18Z</time>
      </trkpt>
      <trkpt lat="44.68163" lon="6.86681">
        <ele>2473.5</ele>
        <time>2026-03-25T11:57:19Z</time>
      </trkpt>
      <trkpt lat="44.68163" lon="6.8668">
        <ele>2472.8</ele>
        <time>2026-03-25T11:57:20Z</time>
      </trkpt>
      <trkpt lat="44.68163" lon="6.8668">
        <ele>2472.8</ele>
        <time>2026-03-25T11:57:21Z</time>
      </trkpt>
      <trkpt lat="44.68163" lon="6.8668">
        <ele>2473.5</ele>
        <time>2026-03-25T11:57:22Z</time>
      </trkpt>
      <trkpt lat="44.68163" lon="6.8668">
        <ele>2473.5</ele>
        <time>2026-03-25T11:57:23Z</time>
      </trkpt>
      <trkpt lat="44.68163" lon="6.8668">
        <ele>2473.5</ele>
        <time>2026-03-25T11:57:24Z</time>
      </trkpt>
      <trkpt lat="44.68163" lon="6.86681">
        <ele>2473.5</ele>
        <time>2026-03-25T11:57:25Z</time>
      </trkpt>
      <trkpt lat="44.68163" lon="6.86681">
        <ele>2473.5</ele>
        <time>2026-03-25T11:57:26Z</time>
      </trkpt>
      <trkpt lat="44.68163" lon="6.86681">
        <ele>2473.5</ele>
        <time>2026-03-25T11:57:27Z</time>
      </trkpt>
      <trkpt lat="44.68163" lon="6.86681">
        <ele>2473.5</ele>
        <time>2026-03-25T11:57:28Z</time>
      </trkpt>
      <trkpt lat="44.68163" lon="6.86681">
        <ele>2473.5</ele>
        <time>2026-03-25T11:57:29Z</time>
      </trkpt>
      <trkpt lat="44.68164" lon="6.86682">
        <ele>2473.5</ele>
        <time>2026-03-25T11:57:30Z</time>
      </trkpt>
      <trkpt lat="44.68164" lon="6.86682">
        <ele>2473.5</ele>
        <time>2026-03-25T11:57:31Z</time>
      </trkpt>
      <trkpt lat="44.68164" lon="6.86682">
        <ele>2473.5</ele>
        <time>2026-03-25T11:57:32Z</time>
      </trkpt>
      <trkpt lat="44.68164" lon="6.86682">
        <ele>2473.5</ele>
        <time>2026-03-25T11:57:33Z</time>
      </trkpt>
      <trkpt lat="44.68164" lon="6.86682">
        <ele>2473.5</ele>
        <time>2026-03-25T11:57:34Z</time>
      </trkpt>
      <trkpt lat="44.68164" lon="6.86682">
        <ele>2473.5</ele>
        <time>2026-03-25T11:57:35Z</time>
      </trkpt>
      <trkpt lat="44.68164" lon="6.86682">
        <ele>2473.5</ele>
        <time>2026-03-25T11:57:36Z</time>
      </trkpt>
      <trkpt lat="44.68164" lon="6.86682">
        <ele>2473.5</ele>
        <time>2026-03-25T11:57:37Z</time>
      </trkpt>
      <trkpt lat="44.68164" lon="6.86682">
        <ele>2473.5</ele>
        <time>2026-03-25T11:57:38Z</time>
      </trkpt>
      <trkpt lat="44.68164" lon="6.86682">
        <ele>2473.5</ele>
        <time>2026-03-25T11:57:39Z</time>
      </trkpt>
      <trkpt lat="44.68164" lon="6.86682">
        <ele>2473.5</ele>
        <time>2026-03-25T11:57:40Z</time>
      </trkpt>
      <trkpt lat="44.68164" lon="6.86682">
        <ele>2473.5</ele>
        <time>2026-03-25T11:57:41Z</time>
      </trkpt>
      <trkpt lat="44.68164" lon="6.86682">
        <ele>2473.5</ele>
        <time>2026-03-25T11:57:42Z</time>
      </trkpt>
      <trkpt lat="44.68164" lon="6.86682">
        <ele>2473.5</ele>
        <time>2026-03-25T11:57:43Z</time>
      </trkpt>
      <trkpt lat="44.68164" lon="6.86682">
        <ele>2473.5</ele>
        <time>2026-03-25T11:57:44Z</time>
      </trkpt>
      <trkpt lat="44.68164" lon="6.86682">
        <ele>2473.5</ele>
        <time>2026-03-25T11:57:45Z</time>
      </trkpt>
      <trkpt lat="44.68164" lon="6.86682">
        <ele>2473.5</ele>
        <time>2026-03-25T11:57:46Z</time>
      </trkpt>
      <trkpt lat="44.68164" lon="6.86682">
        <ele>2473.5</ele>
        <time>2026-03-25T11:57:47Z</time>
      </trkpt>
      <trkpt lat="44.68164" lon="6.86682">
        <ele>2473.5</ele>
        <time>2026-03-25T11:57:48Z</time>
      </trkpt>
      <trkpt lat="44.68164" lon="6.86682">
        <ele>2473.5</ele>
        <time>2026-03-25T11:57:49Z</time>
      </trkpt>
      <trkpt lat="44.68164" lon="6.86682">
        <ele>2473.5</ele>
        <time>2026-03-25T11:57:50Z</time>
      </trkpt>
      <trkpt lat="44.68164" lon="6.86682">
        <ele>2473.5</ele>
        <time>2026-03-25T11:57:51Z</time>
      </trkpt>
      <trkpt lat="44.68164" lon="6.86682">
        <ele>2473.5</ele>
        <time>2026-03-25T11:57:52Z</time>
      </trkpt>
      <trkpt lat="44.68164" lon="6.86682">
        <ele>2473.5</ele>
        <time>2026-03-25T11:57:53Z</time>
      </trkpt>
      <trkpt lat="44.68164" lon="6.86682">
        <ele>2473.5</ele>
        <time>2026-03-25T11:57:54Z</time>
      </trkpt>
      <trkpt lat="44.68164" lon="6.86682">
        <ele>2473.5</ele>
        <time>2026-03-25T11:57:55Z</time>
      </trkpt>
      <trkpt lat="44.68164" lon="6.86682">
        <ele>2473.5</ele>
        <time>2026-03-25T11:57:56Z</time>
      </trkpt>
      <trkpt lat="44.68164" lon="6.86682">
        <ele>2473.5</ele>
        <time>2026-03-25T11:57:57Z</time>
      </trkpt>
      <trkpt lat="44.68164" lon="6.86682">
        <ele>2473.5</ele>
        <time>2026-03-25T11:57:58Z</time>
      </trkpt>
      <trkpt lat="44.68164" lon="6.86682">
        <ele>2473.5</ele>
        <time>2026-03-25T11:57:59Z</time>
      </trkpt>
      <trkpt lat="44.68164" lon="6.86682">
        <ele>2473.5</ele>
        <time>2026-03-25T11:58:00Z</time>
      </trkpt>
      <trkpt lat="44.68164" lon="6.86681">
        <ele>2473.5</ele>
        <time>2026-03-25T11:58:01Z</time>
      </trkpt>
      <trkpt lat="44.68164" lon="6.86681">
        <ele>2473.5</ele>
        <time>2026-03-25T11:58:02Z</time>
      </trkpt>
      <trkpt lat="44.68164" lon="6.8668">
        <ele>2473.5</ele>
        <time>2026-03-25T11:58:03Z</time>
      </trkpt>
      <trkpt lat="44.68164" lon="6.8668">
        <ele>2473.5</ele>
        <time>2026-03-25T11:58:04Z</time>
      </trkpt>
      <trkpt lat="44.68164" lon="6.8668">
        <ele>2473.5</ele>
        <time>2026-03-25T11:58:05Z</time>
      </trkpt>
      <trkpt lat="44.68164" lon="6.8668">
        <ele>2473.5</ele>
        <time>2026-03-25T11:58:06Z</time>
      </trkpt>
      <trkpt lat="44.68164" lon="6.8668">
        <ele>2473.5</ele>
        <time>2026-03-25T11:58:07Z</time>
      </trkpt>
      <trkpt lat="44.68164" lon="6.8668">
        <ele>2473.5</ele>
        <time>2026-03-25T11:58:08Z</time>
      </trkpt>
      <trkpt lat="44.68164" lon="6.8668">
        <ele>2473.5</ele>
        <time>2026-03-25T11:58:09Z</time>
      </trkpt>
      <trkpt lat="44.68164" lon="6.8668">
        <ele>2473.5</ele>
        <time>2026-03-25T11:58:10Z</time>
      </trkpt>
      <trkpt lat="44.68164" lon="6.8668">
        <ele>2473.5</ele>
        <time>2026-03-25T11:58:11Z</time>
      </trkpt>
      <trkpt lat="44.68164" lon="6.8668">
        <ele>2473.5</ele>
        <time>2026-03-25T11:58:12Z</time>
      </trkpt>
      <trkpt lat="44.68164" lon="6.8668">
        <ele>2472.7</ele>
        <time>2026-03-25T11:58:13Z</time>
      </trkpt>
      <trkpt lat="44.68165" lon="6.8668">
        <ele>2472.7</ele>
        <time>2026-03-25T11:58:14Z</time>
      </trkpt>
      <trkpt lat="44.68165" lon="6.8668">
        <ele>2472.7</ele>
        <time>2026-03-25T11:58:15Z</time>
      </trkpt>
      <trkpt lat="44.68165" lon="6.8668">
        <ele>2472.7</ele>
        <time>2026-03-25T11:58:16Z</time>
      </trkpt>
      <trkpt lat="44.68165" lon="6.86679">
        <ele>2472.7</ele>
        <time>2026-03-25T11:58:17Z</time>
      </trkpt>
      <trkpt lat="44.68165" lon="6.86679">
        <ele>2472.7</ele>
        <time>2026-03-25T11:58:18Z</time>
      </trkpt>
      <trkpt lat="44.68165" lon="6.86678">
        <ele>2472.7</ele>
        <time>2026-03-25T11:58:19Z</time>
      </trkpt>
      <trkpt lat="44.68166" lon="6.86677">
        <ele>2470.9</ele>
        <time>2026-03-25T11:58:20Z</time>
      </trkpt>
      <trkpt lat="44.68167" lon="6.86674">
        <ele>2470.2</ele>
        <time>2026-03-25T11:58:21Z</time>
      </trkpt>
      <trkpt lat="44.68168" lon="6.86671">
        <ele>2469.4</ele>
        <time>2026-03-25T11:58:22Z</time>
      </trkpt>
      <trkpt lat="44.68167" lon="6.86669">
        <ele>2469.4</ele>
        <time>2026-03-25T11:58:23Z</time>
      </trkpt>
      <trkpt lat="44.68167" lon="6.86668">
        <ele>2469.4</ele>
        <time>2026-03-25T11:58:24Z</time>
      </trkpt>
      <trkpt lat="44.68167" lon="6.86668">
        <ele>2469.4</ele>
        <time>2026-03-25T11:58:25Z</time>
      </trkpt>
      <trkpt lat="44.68168" lon="6.86667">
        <ele>2468.6</ele>
        <time>2026-03-25T11:58:26Z</time>
      </trkpt>
      <trkpt lat="44.68169" lon="6.86666">
        <ele>2466.7</ele>
        <time>2026-03-25T11:58:27Z</time>
      </trkpt>
      <trkpt lat="44.68172" lon="6.86668">
        <ele>2465.6</ele>
        <time>2026-03-25T11:58:28Z</time>
      </trkpt>
      <trkpt lat="44.68173" lon="6.86669">
        <ele>2465.6</ele>
        <time>2026-03-25T11:58:29Z</time>
      </trkpt>
      <trkpt lat="44.68176" lon="6.8667">
        <ele>2463.8</ele>
        <time>2026-03-25T11:58:30Z</time>
      </trkpt>
      <trkpt lat="44.68177" lon="6.8667">
        <ele>2463.8</ele>
        <time>2026-03-25T11:58:31Z</time>
      </trkpt>
      <trkpt lat="44.6818" lon="6.86669">
        <ele>2462.1</ele>
        <time>2026-03-25T11:58:32Z</time>
      </trkpt>
      <trkpt lat="44.68183" lon="6.86671">
        <ele>2460.5</ele>
        <time>2026-03-25T11:58:33Z</time>
      </trkpt>
      <trkpt lat="44.68187" lon="6.86669">
        <ele>2457.3</ele>
        <time>2026-03-25T11:58:34Z</time>
      </trkpt>
      <trkpt lat="44.68189" lon="6.86669">
        <ele>2457.3</ele>
        <time>2026-03-25T11:58:35Z</time>
      </trkpt>
      <trkpt lat="44.68191" lon="6.86671">
        <ele>2456.6</ele>
        <time>2026-03-25T11:58:36Z</time>
      </trkpt>
      <trkpt lat="44.68191" lon="6.86676">
        <ele>2456.6</ele>
        <time>2026-03-25T11:58:37Z</time>
      </trkpt>
      <trkpt lat="44.68194" lon="6.86677">
        <ele>2455.8</ele>
        <time>2026-03-25T11:58:38Z</time>
      </trkpt>
      <trkpt lat="44.68195" lon="6.86676">
        <ele>2455.8</ele>
        <time>2026-03-25T11:58:39Z</time>
      </trkpt>
      <trkpt lat="44.68197" lon="6.8668">
        <ele>2454.2</ele>
        <time>2026-03-25T11:58:40Z</time>
      </trkpt>
      <trkpt lat="44.68201" lon="6.8668">
        <ele>2453.6</ele>
        <time>2026-03-25T11:58:41Z</time>
      </trkpt>
      <trkpt lat="44.68202" lon="6.86678">
        <ele>2451.2</ele>
        <time>2026-03-25T11:58:42Z</time>
      </trkpt>
      <trkpt lat="44.68206" lon="6.86679">
        <ele>2450</ele>
        <time>2026-03-25T11:58:43Z</time>
      </trkpt>
      <trkpt lat="44.68208" lon="6.86685">
        <ele>2452.1</ele>
        <time>2026-03-25T11:58:44Z</time>
      </trkpt>
      <trkpt lat="44.68211" lon="6.86685">
        <ele>2450</ele>
        <time>2026-03-25T11:58:45Z</time>
      </trkpt>
      <trkpt lat="44.68213" lon="6.86684">
        <ele>2450</ele>
        <time>2026-03-25T11:58:46Z</time>
      </trkpt>
      <trkpt lat="44.68216" lon="6.86687">
        <ele>2449</ele>
        <time>2026-03-25T11:58:47Z</time>
      </trkpt>
      <trkpt lat="44.6822" lon="6.86686">
        <ele>2447.9</ele>
        <time>2026-03-25T11:58:48Z</time>
      </trkpt>
      <trkpt lat="44.68222" lon="6.86684">
        <ele>2446.8</ele>
        <time>2026-03-25T11:58:49Z</time>
      </trkpt>
      <trkpt lat="44.68221" lon="6.86678">
        <ele>2444.4</ele>
        <time>2026-03-25T11:58:50Z</time>
      </trkpt>
      <trkpt lat="44.68222" lon="6.86674">
        <ele>2443.3</ele>
        <time>2026-03-25T11:58:51Z</time>
      </trkpt>
      <trkpt lat="44.68225" lon="6.86671">
        <ele>2441</ele>
        <time>2026-03-25T11:58:52Z</time>
      </trkpt>
      <trkpt lat="44.68226" lon="6.86667">
        <ele>2438.7</ele>
        <time>2026-03-25T11:58:53Z</time>
      </trkpt>
      <trkpt lat="44.68228" lon="6.86663">
        <ele>2438.7</ele>
        <time>2026-03-25T11:58:54Z</time>
      </trkpt>
      <trkpt lat="44.68231" lon="6.86664">
        <ele>2437.8</ele>
        <time>2026-03-25T11:58:55Z</time>
      </trkpt>
      <trkpt lat="44.68234" lon="6.86661">
        <ele>2435.6</ele>
        <time>2026-03-25T11:58:56Z</time>
      </trkpt>
      <trkpt lat="44.68235" lon="6.86657">
        <ele>2434.2</ele>
        <time>2026-03-25T11:58:57Z</time>
      </trkpt>
      <trkpt lat="44.68235" lon="6.86655">
        <ele>2434.2</ele>
        <time>2026-03-25T11:58:58Z</time>
      </trkpt>
      <trkpt lat="44.68235" lon="6.86654">
        <ele>2432.9</ele>
        <time>2026-03-25T11:58:59Z</time>
      </trkpt>
      <trkpt lat="44.68234" lon="6.86653">
        <ele>2432.9</ele>
        <time>2026-03-25T11:59:00Z</time>
      </trkpt>
      <trkpt lat="44.68234" lon="6.86652">
        <ele>2432.9</ele>
        <time>2026-03-25T11:59:01Z</time>
      </trkpt>
      <trkpt lat="44.68234" lon="6.86652">
        <ele>2432.9</ele>
        <time>2026-03-25T11:59:02Z</time>
      </trkpt>
      <trkpt lat="44.68234" lon="6.86652">
        <ele>2432.9</ele>
        <time>2026-03-25T11:59:03Z</time>
      </trkpt>
      <trkpt lat="44.68233" lon="6.86652">
        <ele>2432.9</ele>
        <time>2026-03-25T11:59:04Z</time>
      </trkpt>
      <trkpt lat="44.68233" lon="6.86652">
        <ele>2432.9</ele>
        <time>2026-03-25T11:59:05Z</time>
      </trkpt>
      <trkpt lat="44.68233" lon="6.86652">
        <ele>2432.9</ele>
        <time>2026-03-25T11:59:06Z</time>
      </trkpt>
      <trkpt lat="44.68233" lon="6.86652">
        <ele>2432.9</ele>
        <time>2026-03-25T11:59:07Z</time>
      </trkpt>
      <trkpt lat="44.68233" lon="6.86651">
        <ele>2432.9</ele>
        <time>2026-03-25T11:59:08Z</time>
      </trkpt>
      <trkpt lat="44.68233" lon="6.86651">
        <ele>2432.9</ele>
        <time>2026-03-25T11:59:09Z</time>
      </trkpt>
      <trkpt lat="44.68234" lon="6.86651">
        <ele>2432.9</ele>
        <time>2026-03-25T11:59:10Z</time>
      </trkpt>
      <trkpt lat="44.68234" lon="6.86651">
        <ele>2432.9</ele>
        <time>2026-03-25T11:59:11Z</time>
      </trkpt>
      <trkpt lat="44.68234" lon="6.8665">
        <ele>2432.9</ele>
        <time>2026-03-25T11:59:12Z</time>
      </trkpt>
      <trkpt lat="44.68234" lon="6.8665">
        <ele>2432.9</ele>
        <time>2026-03-25T11:59:13Z</time>
      </trkpt>
      <trkpt lat="44.68234" lon="6.8665">
        <ele>2431.6</ele>
        <time>2026-03-25T11:59:14Z</time>
      </trkpt>
      <trkpt lat="44.68234" lon="6.86649">
        <ele>2431.6</ele>
        <time>2026-03-25T11:59:15Z</time>
      </trkpt>
      <trkpt lat="44.68234" lon="6.86649">
        <ele>2431.6</ele>
        <time>2026-03-25T11:59:16Z</time>
      </trkpt>
      <trkpt lat="44.68234" lon="6.86649">
        <ele>2431.6</ele>
        <time>2026-03-25T11:59:17Z</time>
      </trkpt>
      <trkpt lat="44.68234" lon="6.86649">
        <ele>2431.6</ele>
        <time>2026-03-25T11:59:18Z</time>
      </trkpt>
      <trkpt lat="44.68234" lon="6.86648">
        <ele>2431.6</ele>
        <time>2026-03-25T11:59:19Z</time>
      </trkpt>
      <trkpt lat="44.68234" lon="6.86648">
        <ele>2431.6</ele>
        <time>2026-03-25T11:59:20Z</time>
      </trkpt>
      <trkpt lat="44.68234" lon="6.86648">
        <ele>2431.6</ele>
        <time>2026-03-25T11:59:21Z</time>
      </trkpt>
      <trkpt lat="44.68234" lon="6.86648">
        <ele>2431.6</ele>
        <time>2026-03-25T11:59:22Z</time>
      </trkpt>
      <trkpt lat="44.68234" lon="6.86647">
        <ele>2431.6</ele>
        <time>2026-03-25T11:59:23Z</time>
      </trkpt>
      <trkpt lat="44.68234" lon="6.86647">
        <ele>2431.6</ele>
        <time>2026-03-25T11:59:24Z</time>
      </trkpt>
      <trkpt lat="44.68234" lon="6.86643">
        <ele>2429.6</ele>
        <time>2026-03-25T11:59:25Z</time>
      </trkpt>
      <trkpt lat="44.68234" lon="6.86642">
        <ele>2429.6</ele>
        <time>2026-03-25T11:59:26Z</time>
      </trkpt>
      <trkpt lat="44.68237" lon="6.86638">
        <ele>2427.4</ele>
        <time>2026-03-25T11:59:27Z</time>
      </trkpt>
      <trkpt lat="44.68238" lon="6.86637">
        <ele>2427.4</ele>
        <time>2026-03-25T11:59:28Z</time>
      </trkpt>
      <trkpt lat="44.68241" lon="6.86638">
        <ele>2426.5</ele>
        <time>2026-03-25T11:59:29Z</time>
      </trkpt>
      <trkpt lat="44.68245" lon="6.86637">
        <ele>2424.7</ele>
        <time>2026-03-25T11:59:30Z</time>
      </trkpt>
      <trkpt lat="44.68246" lon="6.86637">
        <ele>2423.4</ele>
        <time>2026-03-25T11:59:31Z</time>
      </trkpt>
      <trkpt lat="44.68249" lon="6.86639">
        <ele>2423.7</ele>
        <time>2026-03-25T11:59:32Z</time>
      </trkpt>
      <trkpt lat="44.68252" lon="6.8664">
        <ele>2422.8</ele>
        <time>2026-03-25T11:59:33Z</time>
      </trkpt>
      <trkpt lat="44.68255" lon="6.86638">
        <ele>2422</ele>
        <time>2026-03-25T11:59:34Z</time>
      </trkpt>
      <trkpt lat="44.68258" lon="6.86638">
        <ele>2421.2</ele>
        <time>2026-03-25T11:59:35Z</time>
      </trkpt>
      <trkpt lat="44.68259" lon="6.86638">
        <ele>2421.2</ele>
        <time>2026-03-25T11:59:36Z</time>
      </trkpt>
      <trkpt lat="44.68262" lon="6.86635">
        <ele>2419</ele>
        <time>2026-03-25T11:59:37Z</time>
      </trkpt>
      <trkpt lat="44.68263" lon="6.86634">
        <ele>2418.3</ele>
        <time>2026-03-25T11:59:38Z</time>
      </trkpt>
      <trkpt lat="44.68266" lon="6.86631">
        <ele>2416.8</ele>
        <time>2026-03-25T11:59:39Z</time>
      </trkpt>
      <trkpt lat="44.68267" lon="6.86626">
        <ele>2414.7</ele>
        <time>2026-03-25T11:59:40Z</time>
      </trkpt>
      <trkpt lat="44.68268" lon="6.86622">
        <ele>2413.2</ele>
        <time>2026-03-25T11:59:41Z</time>
      </trkpt>
      <trkpt lat="44.68271" lon="6.86619">
        <ele>2410.9</ele>
        <time>2026-03-25T11:59:42Z</time>
      </trkpt>
      <trkpt lat="44.68274" lon="6.86615">
        <ele>2408.5</ele>
        <time>2026-03-25T11:59:43Z</time>
      </trkpt>
      <trkpt lat="44.68276" lon="6.86611">
        <ele>2406.2</ele>
        <time>2026-03-25T11:59:44Z</time>
      </trkpt>
      <trkpt lat="44.68279" lon="6.86607">
        <ele>2403.8</ele>
        <time>2026-03-25T11:59:45Z</time>
      </trkpt>
      <trkpt lat="44.68282" lon="6.86603">
        <ele>2401.6</ele>
        <time>2026-03-25T11:59:46Z</time>
      </trkpt>
      <trkpt lat="44.68283" lon="6.86598">
        <ele>2400.3</ele>
        <time>2026-03-25T11:59:47Z</time>
      </trkpt>
      <trkpt lat="44.68284" lon="6.86593">
        <ele>2399</ele>
        <time>2026-03-25T11:59:48Z</time>
      </trkpt>
      <trkpt lat="44.68284" lon="6.86591">
        <ele>2399</ele>
        <time>2026-03-25T11:59:49Z</time>
      </trkpt>
      <trkpt lat="44.68285" lon="6.86588">
        <ele>2397.1</ele>
        <time>2026-03-25T11:59:50Z</time>
      </trkpt>
      <trkpt lat="44.68287" lon="6.86585">
        <ele>2395.9</ele>
        <time>2026-03-25T11:59:51Z</time>
      </trkpt>
      <trkpt lat="44.68288" lon="6.8658">
        <ele>2394.1</ele>
        <time>2026-03-25T11:59:52Z</time>
      </trkpt>
      <trkpt lat="44.68289" lon="6.86579">
        <ele>2394.1</ele>
        <time>2026-03-25T11:59:53Z</time>
      </trkpt>
      <trkpt lat="44.68292" lon="6.86576">
        <ele>2392.4</ele>
        <time>2026-03-25T11:59:54Z</time>
      </trkpt>
      <trkpt lat="44.68293" lon="6.86576">
        <ele>2392.4</ele>
        <time>2026-03-25T11:59:55Z</time>
      </trkpt>
      <trkpt lat="44.68295" lon="6.86577">
        <ele>2391.8</ele>
        <time>2026-03-25T11:59:56Z</time>
      </trkpt>
      <trkpt lat="44.68295" lon="6.86577">
        <ele>2391.8</ele>
        <time>2026-03-25T11:59:57Z</time>
      </trkpt>
      <trkpt lat="44.68295" lon="6.86576">
        <ele>2391.8</ele>
        <time>2026-03-25T11:59:58Z</time>
      </trkpt>
      <trkpt lat="44.68295" lon="6.86575">
        <ele>2391.8</ele>
        <time>2026-03-25T11:59:59Z</time>
      </trkpt>
      <trkpt lat="44.68295" lon="6.86575">
        <ele>2391.8</ele>
        <time>2026-03-25T12:00:00Z</time>
      </trkpt>
      <trkpt lat="44.68295" lon="6.86575">
        <ele>2391.8</ele>
        <time>2026-03-25T12:00:01Z</time>
      </trkpt>
      <trkpt lat="44.68295" lon="6.86575">
        <ele>2391.8</ele>
        <time>2026-03-25T12:00:02Z</time>
      </trkpt>
      <trkpt lat="44.68295" lon="6.86575">
        <ele>2391.8</ele>
        <time>2026-03-25T12:00:03Z</time>
      </trkpt>
      <trkpt lat="44.68295" lon="6.86575">
        <ele>2391.8</ele>
        <time>2026-03-25T12:00:04Z</time>
      </trkpt>
      <trkpt lat="44.68295" lon="6.86575">
        <ele>2391.8</ele>
        <time>2026-03-25T12:00:05Z</time>
      </trkpt>
      <trkpt lat="44.68295" lon="6.86575">
        <ele>2391.8</ele>
        <time>2026-03-25T12:00:06Z</time>
      </trkpt>
      <trkpt lat="44.68295" lon="6.86575">
        <ele>2391.8</ele>
        <time>2026-03-25T12:00:07Z</time>
      </trkpt>
      <trkpt lat="44.68295" lon="6.86575">
        <ele>2391.8</ele>
        <time>2026-03-25T12:00:08Z</time>
      </trkpt>
      <trkpt lat="44.68295" lon="6.86575">
        <ele>2391.8</ele>
        <time>2026-03-25T12:00:09Z</time>
      </trkpt>
      <trkpt lat="44.68295" lon="6.86575">
        <ele>2391.8</ele>
        <time>2026-03-25T12:00:10Z</time>
      </trkpt>
      <trkpt lat="44.68296" lon="6.86574">
        <ele>2391.8</ele>
        <time>2026-03-25T12:00:11Z</time>
      </trkpt>
      <trkpt lat="44.68296" lon="6.86574">
        <ele>2391.8</ele>
        <time>2026-03-25T12:00:12Z</time>
      </trkpt>
      <trkpt lat="44.68296" lon="6.86574">
        <ele>2391.8</ele>
        <time>2026-03-25T12:00:13Z</time>
      </trkpt>
      <trkpt lat="44.68296" lon="6.86574">
        <ele>2391.8</ele>
        <time>2026-03-25T12:00:14Z</time>
      </trkpt>
      <trkpt lat="44.68296" lon="6.86574">
        <ele>2391.8</ele>
        <time>2026-03-25T12:00:15Z</time>
      </trkpt>
      <trkpt lat="44.68296" lon="6.86574">
        <ele>2391.8</ele>
        <time>2026-03-25T12:00:16Z</time>
      </trkpt>
      <trkpt lat="44.68296" lon="6.86574">
        <ele>2391.8</ele>
        <time>2026-03-25T12:00:17Z</time>
      </trkpt>
      <trkpt lat="44.68296" lon="6.86574">
        <ele>2391.8</ele>
        <time>2026-03-25T12:00:18Z</time>
      </trkpt>
      <trkpt lat="44.68296" lon="6.86574">
        <ele>2391.8</ele>
        <time>2026-03-25T12:00:19Z</time>
      </trkpt>
      <trkpt lat="44.68296" lon="6.86574">
        <ele>2391.8</ele>
        <time>2026-03-25T12:00:20Z</time>
      </trkpt>
      <trkpt lat="44.68296" lon="6.86574">
        <ele>2391.8</ele>
        <time>2026-03-25T12:00:21Z</time>
      </trkpt>
      <trkpt lat="44.68296" lon="6.86574">
        <ele>2391.8</ele>
        <time>2026-03-25T12:00:22Z</time>
      </trkpt>
      <trkpt lat="44.68296" lon="6.86573">
        <ele>2391.8</ele>
        <time>2026-03-25T12:00:23Z</time>
      </trkpt>
      <trkpt lat="44.68296" lon="6.86573">
        <ele>2391.8</ele>
        <time>2026-03-25T12:00:24Z</time>
      </trkpt>
      <trkpt lat="44.68296" lon="6.86573">
        <ele>2391.7</ele>
        <time>2026-03-25T12:00:25Z</time>
      </trkpt>
      <trkpt lat="44.68296" lon="6.86573">
        <ele>2391.7</ele>
        <time>2026-03-25T12:00:26Z</time>
      </trkpt>
      <trkpt lat="44.68296" lon="6.86573">
        <ele>2391.7</ele>
        <time>2026-03-25T12:00:27Z</time>
      </trkpt>
      <trkpt lat="44.68296" lon="6.86573">
        <ele>2391.7</ele>
        <time>2026-03-25T12:00:28Z</time>
      </trkpt>
      <trkpt lat="44.68296" lon="6.86573">
        <ele>2391.7</ele>
        <time>2026-03-25T12:00:29Z</time>
      </trkpt>
      <trkpt lat="44.68296" lon="6.86573">
        <ele>2391.7</ele>
        <time>2026-03-25T12:00:30Z</time>
      </trkpt>
      <trkpt lat="44.68296" lon="6.86573">
        <ele>2391.7</ele>
        <time>2026-03-25T12:00:31Z</time>
      </trkpt>
      <trkpt lat="44.68296" lon="6.86573">
        <ele>2391.7</ele>
        <time>2026-03-25T12:00:32Z</time>
      </trkpt>
      <trkpt lat="44.68296" lon="6.86573">
        <ele>2391.7</ele>
        <time>2026-03-25T12:00:33Z</time>
      </trkpt>
      <trkpt lat="44.68296" lon="6.86573">
        <ele>2390.6</ele>
        <time>2026-03-25T12:00:34Z</time>
      </trkpt>
      <trkpt lat="44.68296" lon="6.86572">
        <ele>2390.6</ele>
        <time>2026-03-25T12:00:35Z</time>
      </trkpt>
      <trkpt lat="44.68296" lon="6.86572">
        <ele>2390.6</ele>
        <time>2026-03-25T12:00:36Z</time>
      </trkpt>
      <trkpt lat="44.68296" lon="6.86572">
        <ele>2390.6</ele>
        <time>2026-03-25T12:00:37Z</time>
      </trkpt>
      <trkpt lat="44.68296" lon="6.86572">
        <ele>2390.6</ele>
        <time>2026-03-25T12:00:38Z</time>
      </trkpt>
      <trkpt lat="44.68296" lon="6.86572">
        <ele>2390.6</ele>
        <time>2026-03-25T12:00:39Z</time>
      </trkpt>
      <trkpt lat="44.68296" lon="6.86572">
        <ele>2390.6</ele>
        <time>2026-03-25T12:00:40Z</time>
      </trkpt>
      <trkpt lat="44.68296" lon="6.86572">
        <ele>2390.6</ele>
        <time>2026-03-25T12:00:41Z</time>
      </trkpt>
      <trkpt lat="44.68296" lon="6.86572">
        <ele>2390.6</ele>
        <time>2026-03-25T12:00:42Z</time>
      </trkpt>
      <trkpt lat="44.68296" lon="6.86572">
        <ele>2390.6</ele>
        <time>2026-03-25T12:00:43Z</time>
      </trkpt>
      <trkpt lat="44.68296" lon="6.86572">
        <ele>2390.6</ele>
        <time>2026-03-25T12:00:44Z</time>
      </trkpt>
      <trkpt lat="44.68296" lon="6.86572">
        <ele>2390.6</ele>
        <time>2026-03-25T12:00:45Z</time>
      </trkpt>
      <trkpt lat="44.68296" lon="6.86572">
        <ele>2390.6</ele>
        <time>2026-03-25T12:00:46Z</time>
      </trkpt>
      <trkpt lat="44.68296" lon="6.86571">
        <ele>2390.6</ele>
        <time>2026-03-25T12:00:47Z</time>
      </trkpt>
      <trkpt lat="44.68296" lon="6.86571">
        <ele>2390.6</ele>
        <time>2026-03-25T12:00:48Z</time>
      </trkpt>
      <trkpt lat="44.68296" lon="6.86571">
        <ele>2390.6</ele>
        <time>2026-03-25T12:00:49Z</time>
      </trkpt>
      <trkpt lat="44.68296" lon="6.86571">
        <ele>2390.6</ele>
        <time>2026-03-25T12:00:50Z</time>
      </trkpt>
      <trkpt lat="44.68296" lon="6.86571">
        <ele>2390.6</ele>
        <time>2026-03-25T12:00:51Z</time>
      </trkpt>
      <trkpt lat="44.68296" lon="6.86571">
        <ele>2390.6</ele>
        <time>2026-03-25T12:00:52Z</time>
      </trkpt>
      <trkpt lat="44.68296" lon="6.86571">
        <ele>2390.6</ele>
        <time>2026-03-25T12:00:53Z</time>
      </trkpt>
      <trkpt lat="44.68296" lon="6.86571">
        <ele>2390.6</ele>
        <time>2026-03-25T12:00:54Z</time>
      </trkpt>
      <trkpt lat="44.68296" lon="6.86571">
        <ele>2390.6</ele>
        <time>2026-03-25T12:00:55Z</time>
      </trkpt>
      <trkpt lat="44.68296" lon="6.86571">
        <ele>2390.6</ele>
        <time>2026-03-25T12:00:56Z</time>
      </trkpt>
      <trkpt lat="44.68296" lon="6.86571">
        <ele>2390.6</ele>
        <time>2026-03-25T12:00:57Z</time>
      </trkpt>
      <trkpt lat="44.68296" lon="6.86571">
        <ele>2390.6</ele>
        <time>2026-03-25T12:00:58Z</time>
      </trkpt>
      <trkpt lat="44.68297" lon="6.8657">
        <ele>2390.6</ele>
        <time>2026-03-25T12:00:59Z</time>
      </trkpt>
      <trkpt lat="44.68297" lon="6.8657">
        <ele>2390.6</ele>
        <time>2026-03-25T12:01:00Z</time>
      </trkpt>
      <trkpt lat="44.68297" lon="6.8657">
        <ele>2390.6</ele>
        <time>2026-03-25T12:01:01Z</time>
      </trkpt>
      <trkpt lat="44.68297" lon="6.8657">
        <ele>2390.6</ele>
        <time>2026-03-25T12:01:02Z</time>
      </trkpt>
      <trkpt lat="44.68297" lon="6.8657">
        <ele>2390.6</ele>
        <time>2026-03-25T12:01:03Z</time>
      </trkpt>
      <trkpt lat="44.68297" lon="6.8657">
        <ele>2390</ele>
        <time>2026-03-25T12:01:04Z</time>
      </trkpt>
      <trkpt lat="44.68297" lon="6.8657">
        <ele>2390</ele>
        <time>2026-03-25T12:01:05Z</time>
      </trkpt>
      <trkpt lat="44.68297" lon="6.8657">
        <ele>2390</ele>
        <time>2026-03-25T12:01:06Z</time>
      </trkpt>
      <trkpt lat="44.68297" lon="6.8657">
        <ele>2390</ele>
        <time>2026-03-25T12:01:07Z</time>
      </trkpt>
      <trkpt lat="44.68297" lon="6.8657">
        <ele>2390</ele>
        <time>2026-03-25T12:01:08Z</time>
      </trkpt>
      <trkpt lat="44.68297" lon="6.8657">
        <ele>2390</ele>
        <time>2026-03-25T12:01:09Z</time>
      </trkpt>
      <trkpt lat="44.68297" lon="6.8657">
        <ele>2390</ele>
        <time>2026-03-25T12:01:10Z</time>
      </trkpt>
      <trkpt lat="44.68297" lon="6.86569">
        <ele>2390</ele>
        <time>2026-03-25T12:01:11Z</time>
      </trkpt>
      <trkpt lat="44.683" lon="6.86568">
        <ele>2388.9</ele>
        <time>2026-03-25T12:01:12Z</time>
      </trkpt>
      <trkpt lat="44.68302" lon="6.86569">
        <ele>2389.4</ele>
        <time>2026-03-25T12:01:13Z</time>
      </trkpt>
      <trkpt lat="44.68305" lon="6.86571">
        <ele>2388.7</ele>
        <time>2026-03-25T12:01:14Z</time>
      </trkpt>
      <trkpt lat="44.68309" lon="6.86571">
        <ele>2387.4</ele>
        <time>2026-03-25T12:01:15Z</time>
      </trkpt>
      <trkpt lat="44.68312" lon="6.86576">
        <ele>2388.5</ele>
        <time>2026-03-25T12:01:16Z</time>
      </trkpt>
      <trkpt lat="44.68316" lon="6.86577">
        <ele>2388.6</ele>
        <time>2026-03-25T12:01:17Z</time>
      </trkpt>
      <trkpt lat="44.6832" lon="6.86576">
        <ele>2387</ele>
        <time>2026-03-25T12:01:18Z</time>
      </trkpt>
      <trkpt lat="44.68325" lon="6.86576">
        <ele>2386.1</ele>
        <time>2026-03-25T12:01:19Z</time>
      </trkpt>
      <trkpt lat="44.68329" lon="6.86576">
        <ele>2385.5</ele>
        <time>2026-03-25T12:01:20Z</time>
      </trkpt>
      <trkpt lat="44.68333" lon="6.86572">
        <ele>2383.2</ele>
        <time>2026-03-25T12:01:21Z</time>
      </trkpt>
      <trkpt lat="44.68337" lon="6.86573">
        <ele>2383.9</ele>
        <time>2026-03-25T12:01:22Z</time>
      </trkpt>
      <trkpt lat="44.68339" lon="6.86568">
        <ele>2383</ele>
        <time>2026-03-25T12:01:23Z</time>
      </trkpt>
      <trkpt lat="44.68343" lon="6.86563">
        <ele>2381.8</ele>
        <time>2026-03-25T12:01:24Z</time>
      </trkpt>
      <trkpt lat="44.68348" lon="6.86563">
        <ele>2380.6</ele>
        <time>2026-03-25T12:01:25Z</time>
      </trkpt>
      <trkpt lat="44.68352" lon="6.86561">
        <ele>2379.5</ele>
        <time>2026-03-25T12:01:26Z</time>
      </trkpt>
      <trkpt lat="44.68356" lon="6.86556">
        <ele>2378.2</ele>
        <time>2026-03-25T12:01:27Z</time>
      </trkpt>
      <trkpt lat="44.68361" lon="6.86555">
        <ele>2377</ele>
        <time>2026-03-25T12:01:28Z</time>
      </trkpt>
      <trkpt lat="44.68366" lon="6.86555">
        <ele>2376</ele>
        <time>2026-03-25T12:01:29Z</time>
      </trkpt>
      <trkpt lat="44.68368" lon="6.8655">
        <ele>2375</ele>
        <time>2026-03-25T12:01:30Z</time>
      </trkpt>
      <trkpt lat="44.68372" lon="6.86545">
        <ele>2373.9</ele>
        <time>2026-03-25T12:01:31Z</time>
      </trkpt>
      <trkpt lat="44.68377" lon="6.86541">
        <ele>2372.5</ele>
        <time>2026-03-25T12:01:32Z</time>
      </trkpt>
      <trkpt lat="44.68379" lon="6.86536">
        <ele>2371.4</ele>
        <time>2026-03-25T12:01:33Z</time>
      </trkpt>
      <trkpt lat="44.68383" lon="6.86535">
        <ele>2370.3</ele>
        <time>2026-03-25T12:01:34Z</time>
      </trkpt>
      <trkpt lat="44.68388" lon="6.86535">
        <ele>2369.2</ele>
        <time>2026-03-25T12:01:35Z</time>
      </trkpt>
      <trkpt lat="44.68389" lon="6.8653">
        <ele>2368.3</ele>
        <time>2026-03-25T12:01:36Z</time>
      </trkpt>
      <trkpt lat="44.68393" lon="6.8653">
        <ele>2367.4</ele>
        <time>2026-03-25T12:01:37Z</time>
      </trkpt>
      <trkpt lat="44.68396" lon="6.86528">
        <ele>2366.5</ele>
        <time>2026-03-25T12:01:38Z</time>
      </trkpt>
      <trkpt lat="44.68399" lon="6.86526">
        <ele>2365.8</ele>
        <time>2026-03-25T12:01:39Z</time>
      </trkpt>
      <trkpt lat="44.68398" lon="6.86522">
        <ele>2365.1</ele>
        <time>2026-03-25T12:01:40Z</time>
      </trkpt>
      <trkpt lat="44.68397" lon="6.86519">
        <ele>2364.3</ele>
        <time>2026-03-25T12:01:41Z</time>
      </trkpt>
      <trkpt lat="44.68395" lon="6.86515">
        <ele>2363.6</ele>
        <time>2026-03-25T12:01:42Z</time>
      </trkpt>
      <trkpt lat="44.68394" lon="6.8651">
        <ele>2362.6</ele>
        <time>2026-03-25T12:01:43Z</time>
      </trkpt>
      <trkpt lat="44.68394" lon="6.86502">
        <ele>2361</ele>
        <time>2026-03-25T12:01:44Z</time>
      </trkpt>
      <trkpt lat="44.68395" lon="6.86493">
        <ele>2359.3</ele>
        <time>2026-03-25T12:01:45Z</time>
      </trkpt>
      <trkpt lat="44.68397" lon="6.86485">
        <ele>2357.6</ele>
        <time>2026-03-25T12:01:46Z</time>
      </trkpt>
      <trkpt lat="44.684" lon="6.8648">
        <ele>2356.3</ele>
        <time>2026-03-25T12:01:47Z</time>
      </trkpt>
      <trkpt lat="44.68405" lon="6.86479">
        <ele>2355.2</ele>
        <time>2026-03-25T12:01:48Z</time>
      </trkpt>
      <trkpt lat="44.6841" lon="6.86478">
        <ele>2354.2</ele>
        <time>2026-03-25T12:01:49Z</time>
      </trkpt>
      <trkpt lat="44.68414" lon="6.86473">
        <ele>2353.1</ele>
        <time>2026-03-25T12:01:50Z</time>
      </trkpt>
      <trkpt lat="44.68418" lon="6.86471">
        <ele>2352.3</ele>
        <time>2026-03-25T12:01:51Z</time>
      </trkpt>
      <trkpt lat="44.68422" lon="6.86471">
        <ele>2351.6</ele>
        <time>2026-03-25T12:01:52Z</time>
      </trkpt>
      <trkpt lat="44.68425" lon="6.86466">
        <ele>2350.8</ele>
        <time>2026-03-25T12:01:53Z</time>
      </trkpt>
      <trkpt lat="44.68428" lon="6.86461">
        <ele>2349.9</ele>
        <time>2026-03-25T12:01:54Z</time>
      </trkpt>
      <trkpt lat="44.6843" lon="6.86454">
        <ele>2349</ele>
        <time>2026-03-25T12:01:55Z</time>
      </trkpt>
      <trkpt lat="44.68432" lon="6.86446">
        <ele>2347.8</ele>
        <time>2026-03-25T12:01:56Z</time>
      </trkpt>
      <trkpt lat="44.68433" lon="6.86438">
        <ele>2346.8</ele>
        <time>2026-03-25T12:01:57Z</time>
      </trkpt>
      <trkpt lat="44.68434" lon="6.86433">
        <ele>2346</ele>
        <time>2026-03-25T12:01:58Z</time>
      </trkpt>
      <trkpt lat="44.68436" lon="6.86428">
        <ele>2345.2</ele>
        <time>2026-03-25T12:01:59Z</time>
      </trkpt>
      <trkpt lat="44.6844" lon="6.86426">
        <ele>2344.4</ele>
        <time>2026-03-25T12:02:00Z</time>
      </trkpt>
      <trkpt lat="44.68442" lon="6.86429">
        <ele>2343.8</ele>
        <time>2026-03-25T12:02:01Z</time>
      </trkpt>
      <trkpt lat="44.68445" lon="6.8643">
        <ele>2343.2</ele>
        <time>2026-03-25T12:02:02Z</time>
      </trkpt>
      <trkpt lat="44.68449" lon="6.86429">
        <ele>2342.5</ele>
        <time>2026-03-25T12:02:03Z</time>
      </trkpt>
      <trkpt lat="44.68451" lon="6.86426">
        <ele>2341.8</ele>
        <time>2026-03-25T12:02:04Z</time>
      </trkpt>
      <trkpt lat="44.68452" lon="6.86424">
        <ele>2341.4</ele>
        <time>2026-03-25T12:02:05Z</time>
      </trkpt>
      <trkpt lat="44.68452" lon="6.86423">
        <ele>2341.3</ele>
        <time>2026-03-25T12:02:06Z</time>
      </trkpt>
      <trkpt lat="44.68451" lon="6.86422">
        <ele>2341.2</ele>
        <time>2026-03-25T12:02:07Z</time>
      </trkpt>
      <trkpt lat="44.68451" lon="6.86422">
        <ele>2341.1</ele>
        <time>2026-03-25T12:02:08Z</time>
      </trkpt>
      <trkpt lat="44.68451" lon="6.86423">
        <ele>2341</ele>
        <time>2026-03-25T12:02:09Z</time>
      </trkpt>
      <trkpt lat="44.68451" lon="6.86423">
        <ele>2341</ele>
        <time>2026-03-25T12:02:10Z</time>
      </trkpt>
      <trkpt lat="44.68451" lon="6.86423">
        <ele>2341</ele>
        <time>2026-03-25T12:02:11Z</time>
      </trkpt>
      <trkpt lat="44.68451" lon="6.86423">
        <ele>2341</ele>
        <time>2026-03-25T12:02:12Z</time>
      </trkpt>
      <trkpt lat="44.68451" lon="6.86423">
        <ele>2340.9</ele>
        <time>2026-03-25T12:02:13Z</time>
      </trkpt>
      <trkpt lat="44.68451" lon="6.86423">
        <ele>2340.9</ele>
        <time>2026-03-25T12:02:14Z</time>
      </trkpt>
      <trkpt lat="44.68451" lon="6.86422">
        <ele>2340.8</ele>
        <time>2026-03-25T12:02:15Z</time>
      </trkpt>
      <trkpt lat="44.68451" lon="6.86422">
        <ele>2340.8</ele>
        <time>2026-03-25T12:02:16Z</time>
      </trkpt>
      <trkpt lat="44.68451" lon="6.86422">
        <ele>2340.8</ele>
        <time>2026-03-25T12:02:17Z</time>
      </trkpt>
      <trkpt lat="44.68451" lon="6.86422">
        <ele>2340.8</ele>
        <time>2026-03-25T12:02:18Z</time>
      </trkpt>
      <trkpt lat="44.68451" lon="6.86423">
        <ele>2340.7</ele>
        <time>2026-03-25T12:02:19Z</time>
      </trkpt>
      <trkpt lat="44.68451" lon="6.86423">
        <ele>2340.6</ele>
        <time>2026-03-25T12:02:20Z</time>
      </trkpt>
      <trkpt lat="44.68451" lon="6.86423">
        <ele>2340.6</ele>
        <time>2026-03-25T12:02:21Z</time>
      </trkpt>
      <trkpt lat="44.68451" lon="6.86424">
        <ele>2340.6</ele>
        <time>2026-03-25T12:02:22Z</time>
      </trkpt>
      <trkpt lat="44.68451" lon="6.86424">
        <ele>2340.5</ele>
        <time>2026-03-25T12:02:23Z</time>
      </trkpt>
      <trkpt lat="44.68451" lon="6.86424">
        <ele>2340.5</ele>
        <time>2026-03-25T12:02:24Z</time>
      </trkpt>
      <trkpt lat="44.68451" lon="6.86424">
        <ele>2340.4</ele>
        <time>2026-03-25T12:02:25Z</time>
      </trkpt>
      <trkpt lat="44.68451" lon="6.86424">
        <ele>2340.4</ele>
        <time>2026-03-25T12:02:26Z</time>
      </trkpt>
      <trkpt lat="44.68451" lon="6.86424">
        <ele>2340.4</ele>
        <time>2026-03-25T12:02:27Z</time>
      </trkpt>
      <trkpt lat="44.68451" lon="6.86424">
        <ele>2340.4</ele>
        <time>2026-03-25T12:02:28Z</time>
      </trkpt>
      <trkpt lat="44.68451" lon="6.86424">
        <ele>2340.3</ele>
        <time>2026-03-25T12:02:29Z</time>
      </trkpt>
      <trkpt lat="44.68451" lon="6.86424">
        <ele>2340.3</ele>
        <time>2026-03-25T12:02:30Z</time>
      </trkpt>
      <trkpt lat="44.68451" lon="6.86424">
        <ele>2340.3</ele>
        <time>2026-03-25T12:02:31Z</time>
      </trkpt>
      <trkpt lat="44.68451" lon="6.86424">
        <ele>2340.3</ele>
        <time>2026-03-25T12:02:32Z</time>
      </trkpt>
      <trkpt lat="44.68451" lon="6.86424">
        <ele>2340.3</ele>
        <time>2026-03-25T12:02:33Z</time>
      </trkpt>
      <trkpt lat="44.68451" lon="6.86424">
        <ele>2340.3</ele>
        <time>2026-03-25T12:02:34Z</time>
      </trkpt>
      <trkpt lat="44.68451" lon="6.86424">
        <ele>2340.3</ele>
        <time>2026-03-25T12:02:35Z</time>
      </trkpt>
      <trkpt lat="44.68451" lon="6.86424">
        <ele>2340.3</ele>
        <time>2026-03-25T12:02:36Z</time>
      </trkpt>
      <trkpt lat="44.68451" lon="6.86424">
        <ele>2340.2</ele>
        <time>2026-03-25T12:02:37Z</time>
      </trkpt>
      <trkpt lat="44.68451" lon="6.86424">
        <ele>2340.2</ele>
        <time>2026-03-25T12:02:38Z</time>
      </trkpt>
      <trkpt lat="44.6845" lon="6.86424">
        <ele>2340.1</ele>
        <time>2026-03-25T12:02:39Z</time>
      </trkpt>
      <trkpt lat="44.6845" lon="6.86424">
        <ele>2340.1</ele>
        <time>2026-03-25T12:02:40Z</time>
      </trkpt>
      <trkpt lat="44.6845" lon="6.86424">
        <ele>2340.1</ele>
        <time>2026-03-25T12:02:41Z</time>
      </trkpt>
      <trkpt lat="44.6845" lon="6.86424">
        <ele>2340.1</ele>
        <time>2026-03-25T12:02:42Z</time>
      </trkpt>
      <trkpt lat="44.6845" lon="6.86424">
        <ele>2340</ele>
        <time>2026-03-25T12:02:43Z</time>
      </trkpt>
      <trkpt lat="44.6845" lon="6.86424">
        <ele>2340</ele>
        <time>2026-03-25T12:02:44Z</time>
      </trkpt>
      <trkpt lat="44.6845" lon="6.86424">
        <ele>2339.9</ele>
        <time>2026-03-25T12:02:45Z</time>
      </trkpt>
      <trkpt lat="44.68449" lon="6.86423">
        <ele>2339.9</ele>
        <time>2026-03-25T12:02:46Z</time>
      </trkpt>
      <trkpt lat="44.68449" lon="6.86423">
        <ele>2339.9</ele>
        <time>2026-03-25T12:02:47Z</time>
      </trkpt>
      <trkpt lat="44.6845" lon="6.86423">
        <ele>2339.8</ele>
        <time>2026-03-25T12:02:48Z</time>
      </trkpt>
      <trkpt lat="44.68449" lon="6.86423">
        <ele>2339.8</ele>
        <time>2026-03-25T12:02:49Z</time>
      </trkpt>
      <trkpt lat="44.68449" lon="6.86423">
        <ele>2339.8</ele>
        <time>2026-03-25T12:02:50Z</time>
      </trkpt>
      <trkpt lat="44.68449" lon="6.86423">
        <ele>2339.8</ele>
        <time>2026-03-25T12:02:51Z</time>
      </trkpt>
      <trkpt lat="44.68449" lon="6.86423">
        <ele>2339.8</ele>
        <time>2026-03-25T12:02:52Z</time>
      </trkpt>
      <trkpt lat="44.68449" lon="6.86423">
        <ele>2339.8</ele>
        <time>2026-03-25T12:02:53Z</time>
      </trkpt>
      <trkpt lat="44.68449" lon="6.86423">
        <ele>2339.8</ele>
        <time>2026-03-25T12:02:54Z</time>
      </trkpt>
      <trkpt lat="44.68449" lon="6.86423">
        <ele>2339.8</ele>
        <time>2026-03-25T12:02:55Z</time>
      </trkpt>
      <trkpt lat="44.68449" lon="6.86423">
        <ele>2339.8</ele>
        <time>2026-03-25T12:02:56Z</time>
      </trkpt>
      <trkpt lat="44.68449" lon="6.86423">
        <ele>2339.8</ele>
        <time>2026-03-25T12:02:57Z</time>
      </trkpt>
      <trkpt lat="44.68449" lon="6.86423">
        <ele>2339.8</ele>
        <time>2026-03-25T12:02:58Z</time>
      </trkpt>
      <trkpt lat="44.68449" lon="6.86423">
        <ele>2339.8</ele>
        <time>2026-03-25T12:02:59Z</time>
      </trkpt>
      <trkpt lat="44.68449" lon="6.86423">
        <ele>2339.8</ele>
        <time>2026-03-25T12:03:00Z</time>
      </trkpt>
      <trkpt lat="44.68449" lon="6.86423">
        <ele>2339.8</ele>
        <time>2026-03-25T12:03:01Z</time>
      </trkpt>
      <trkpt lat="44.68449" lon="6.86423">
        <ele>2339.7</ele>
        <time>2026-03-25T12:03:02Z</time>
      </trkpt>
      <trkpt lat="44.68449" lon="6.86422">
        <ele>2339.7</ele>
        <time>2026-03-25T12:03:03Z</time>
      </trkpt>
      <trkpt lat="44.68449" lon="6.86422">
        <ele>2339.6</ele>
        <time>2026-03-25T12:03:04Z</time>
      </trkpt>
      <trkpt lat="44.68449" lon="6.86422">
        <ele>2339.6</ele>
        <time>2026-03-25T12:03:05Z</time>
      </trkpt>
      <trkpt lat="44.68448" lon="6.86422">
        <ele>2339.5</ele>
        <time>2026-03-25T12:03:06Z</time>
      </trkpt>
      <trkpt lat="44.68448" lon="6.86422">
        <ele>2339.5</ele>
        <time>2026-03-25T12:03:07Z</time>
      </trkpt>
      <trkpt lat="44.68448" lon="6.86422">
        <ele>2339.5</ele>
        <time>2026-03-25T12:03:08Z</time>
      </trkpt>
      <trkpt lat="44.68448" lon="6.86422">
        <ele>2339.4</ele>
        <time>2026-03-25T12:03:09Z</time>
      </trkpt>
      <trkpt lat="44.68449" lon="6.86421">
        <ele>2339.4</ele>
        <time>2026-03-25T12:03:10Z</time>
      </trkpt>
      <trkpt lat="44.68448" lon="6.86421">
        <ele>2339.4</ele>
        <time>2026-03-25T12:03:11Z</time>
      </trkpt>
      <trkpt lat="44.68448" lon="6.86421">
        <ele>2339.3</ele>
        <time>2026-03-25T12:03:12Z</time>
      </trkpt>
      <trkpt lat="44.68448" lon="6.86421">
        <ele>2339.3</ele>
        <time>2026-03-25T12:03:13Z</time>
      </trkpt>
      <trkpt lat="44.68448" lon="6.86421">
        <ele>2339.3</ele>
        <time>2026-03-25T12:03:14Z</time>
      </trkpt>
      <trkpt lat="44.68448" lon="6.86421">
        <ele>2339.3</ele>
        <time>2026-03-25T12:03:15Z</time>
      </trkpt>
      <trkpt lat="44.68448" lon="6.86421">
        <ele>2339.3</ele>
        <time>2026-03-25T12:03:16Z</time>
      </trkpt>
      <trkpt lat="44.68448" lon="6.86421">
        <ele>2339.3</ele>
        <time>2026-03-25T12:03:17Z</time>
      </trkpt>
      <trkpt lat="44.68448" lon="6.86421">
        <ele>2339.3</ele>
        <time>2026-03-25T12:03:18Z</time>
      </trkpt>
      <trkpt lat="44.68448" lon="6.86421">
        <ele>2339.3</ele>
        <time>2026-03-25T12:03:19Z</time>
      </trkpt>
      <trkpt lat="44.68448" lon="6.86421">
        <ele>2339.3</ele>
        <time>2026-03-25T12:03:20Z</time>
      </trkpt>
      <trkpt lat="44.68448" lon="6.86421">
        <ele>2339.3</ele>
        <time>2026-03-25T12:03:21Z</time>
      </trkpt>
      <trkpt lat="44.68448" lon="6.86421">
        <ele>2339.3</ele>
        <time>2026-03-25T12:03:22Z</time>
      </trkpt>
      <trkpt lat="44.68448" lon="6.86421">
        <ele>2339.3</ele>
        <time>2026-03-25T12:03:23Z</time>
      </trkpt>
      <trkpt lat="44.68448" lon="6.86421">
        <ele>2339.3</ele>
        <time>2026-03-25T12:03:24Z</time>
      </trkpt>
      <trkpt lat="44.68448" lon="6.86421">
        <ele>2339.3</ele>
        <time>2026-03-25T12:03:25Z</time>
      </trkpt>
      <trkpt lat="44.68448" lon="6.86421">
        <ele>2339.3</ele>
        <time>2026-03-25T12:03:26Z</time>
      </trkpt>
      <trkpt lat="44.68448" lon="6.86421">
        <ele>2339.3</ele>
        <time>2026-03-25T12:03:27Z</time>
      </trkpt>
      <trkpt lat="44.68448" lon="6.86421">
        <ele>2339.3</ele>
        <time>2026-03-25T12:03:28Z</time>
      </trkpt>
      <trkpt lat="44.68448" lon="6.86421">
        <ele>2339.3</ele>
        <time>2026-03-25T12:03:29Z</time>
      </trkpt>
      <trkpt lat="44.68448" lon="6.86421">
        <ele>2339.3</ele>
        <time>2026-03-25T12:03:30Z</time>
      </trkpt>
      <trkpt lat="44.68448" lon="6.86421">
        <ele>2339.3</ele>
        <time>2026-03-25T12:03:31Z</time>
      </trkpt>
      <trkpt lat="44.68448" lon="6.86421">
        <ele>2339.3</ele>
        <time>2026-03-25T12:03:32Z</time>
      </trkpt>
      <trkpt lat="44.68448" lon="6.86421">
        <ele>2339.3</ele>
        <time>2026-03-25T12:03:33Z</time>
      </trkpt>
      <trkpt lat="44.68448" lon="6.86421">
        <ele>2339.3</ele>
        <time>2026-03-25T12:03:34Z</time>
      </trkpt>
      <trkpt lat="44.68448" lon="6.86421">
        <ele>2339.3</ele>
        <time>2026-03-25T12:03:35Z</time>
      </trkpt>
      <trkpt lat="44.68448" lon="6.86421">
        <ele>2339.3</ele>
        <time>2026-03-25T12:03:36Z</time>
      </trkpt>
      <trkpt lat="44.68448" lon="6.86421">
        <ele>2339.3</ele>
        <time>2026-03-25T12:03:37Z</time>
      </trkpt>
      <trkpt lat="44.68448" lon="6.86421">
        <ele>2339.3</ele>
        <time>2026-03-25T12:03:38Z</time>
      </trkpt>
      <trkpt lat="44.68448" lon="6.86421">
        <ele>2339.3</ele>
        <time>2026-03-25T12:03:39Z</time>
      </trkpt>
      <trkpt lat="44.68448" lon="6.86421">
        <ele>2339.3</ele>
        <time>2026-03-25T12:03:40Z</time>
      </trkpt>
      <trkpt lat="44.68448" lon="6.86421">
        <ele>2339.3</ele>
        <time>2026-03-25T12:03:41Z</time>
      </trkpt>
      <trkpt lat="44.68448" lon="6.86421">
        <ele>2339.3</ele>
        <time>2026-03-25T12:03:42Z</time>
      </trkpt>
      <trkpt lat="44.68448" lon="6.86421">
        <ele>2339.3</ele>
        <time>2026-03-25T12:03:43Z</time>
      </trkpt>
      <trkpt lat="44.68448" lon="6.86421">
        <ele>2339.3</ele>
        <time>2026-03-25T12:03:44Z</time>
      </trkpt>
      <trkpt lat="44.68448" lon="6.86421">
        <ele>2339.2</ele>
        <time>2026-03-25T12:03:45Z</time>
      </trkpt>
      <trkpt lat="44.68448" lon="6.86421">
        <ele>2339.2</ele>
        <time>2026-03-25T12:03:46Z</time>
      </trkpt>
      <trkpt lat="44.68448" lon="6.86421">
        <ele>2339.2</ele>
        <time>2026-03-25T12:03:47Z</time>
      </trkpt>
      <trkpt lat="44.68448" lon="6.86421">
        <ele>2339.1</ele>
        <time>2026-03-25T12:03:48Z</time>
      </trkpt>
      <trkpt lat="44.68448" lon="6.86421">
        <ele>2339.1</ele>
        <time>2026-03-25T12:03:49Z</time>
      </trkpt>
      <trkpt lat="44.68448" lon="6.86421">
        <ele>2339.1</ele>
        <time>2026-03-25T12:03:50Z</time>
      </trkpt>
      <trkpt lat="44.68448" lon="6.86421">
        <ele>2339.1</ele>
        <time>2026-03-25T12:03:51Z</time>
      </trkpt>
      <trkpt lat="44.68448" lon="6.86421">
        <ele>2339</ele>
        <time>2026-03-25T12:03:52Z</time>
      </trkpt>
      <trkpt lat="44.68448" lon="6.86421">
        <ele>2339</ele>
        <time>2026-03-25T12:03:53Z</time>
      </trkpt>
      <trkpt lat="44.68447" lon="6.86421">
        <ele>2338.9</ele>
        <time>2026-03-25T12:03:54Z</time>
      </trkpt>
      <trkpt lat="44.68447" lon="6.8642">
        <ele>2338.8</ele>
        <time>2026-03-25T12:03:55Z</time>
      </trkpt>
      <trkpt lat="44.68447" lon="6.8642">
        <ele>2338.8</ele>
        <time>2026-03-25T12:03:56Z</time>
      </trkpt>
      <trkpt lat="44.68448" lon="6.86421">
        <ele>2338.8</ele>
        <time>2026-03-25T12:03:57Z</time>
      </trkpt>
      <trkpt lat="44.68448" lon="6.86421">
        <ele>2338.7</ele>
        <time>2026-03-25T12:03:58Z</time>
      </trkpt>
      <trkpt lat="44.68448" lon="6.86421">
        <ele>2338.7</ele>
        <time>2026-03-25T12:03:59Z</time>
      </trkpt>
      <trkpt lat="44.68448" lon="6.86421">
        <ele>2338.7</ele>
        <time>2026-03-25T12:04:00Z</time>
      </trkpt>
      <trkpt lat="44.68448" lon="6.86421">
        <ele>2338.7</ele>
        <time>2026-03-25T12:04:01Z</time>
      </trkpt>
      <trkpt lat="44.68448" lon="6.86421">
        <ele>2338.7</ele>
        <time>2026-03-25T12:04:02Z</time>
      </trkpt>
      <trkpt lat="44.68448" lon="6.86421">
        <ele>2338.7</ele>
        <time>2026-03-25T12:04:03Z</time>
      </trkpt>
      <trkpt lat="44.68448" lon="6.86421">
        <ele>2338.7</ele>
        <time>2026-03-25T12:04:04Z</time>
      </trkpt>
      <trkpt lat="44.68448" lon="6.86421">
        <ele>2338.7</ele>
        <time>2026-03-25T12:04:05Z</time>
      </trkpt>
      <trkpt lat="44.68448" lon="6.86421">
        <ele>2338.7</ele>
        <time>2026-03-25T12:04:06Z</time>
      </trkpt>
      <trkpt lat="44.68448" lon="6.86421">
        <ele>2338.7</ele>
        <time>2026-03-25T12:04:07Z</time>
      </trkpt>
      <trkpt lat="44.68448" lon="6.86421">
        <ele>2338.7</ele>
        <time>2026-03-25T12:04:08Z</time>
      </trkpt>
      <trkpt lat="44.68448" lon="6.86421">
        <ele>2338.7</ele>
        <time>2026-03-25T12:04:09Z</time>
      </trkpt>
      <trkpt lat="44.68448" lon="6.86421">
        <ele>2338.7</ele>
        <time>2026-03-25T12:04:10Z</time>
      </trkpt>
      <trkpt lat="44.68448" lon="6.86421">
        <ele>2338.7</ele>
        <time>2026-03-25T12:04:11Z</time>
      </trkpt>
      <trkpt lat="44.68448" lon="6.86421">
        <ele>2338.7</ele>
        <time>2026-03-25T12:04:12Z</time>
      </trkpt>
      <trkpt lat="44.68448" lon="6.86421">
        <ele>2338.7</ele>
        <time>2026-03-25T12:04:13Z</time>
      </trkpt>
      <trkpt lat="44.68448" lon="6.86421">
        <ele>2338.7</ele>
        <time>2026-03-25T12:04:14Z</time>
      </trkpt>
      <trkpt lat="44.68448" lon="6.86421">
        <ele>2338.7</ele>
        <time>2026-03-25T12:04:15Z</time>
      </trkpt>
      <trkpt lat="44.68448" lon="6.86421">
        <ele>2338.7</ele>
        <time>2026-03-25T12:04:16Z</time>
      </trkpt>
      <trkpt lat="44.68448" lon="6.86421">
        <ele>2338.7</ele>
        <time>2026-03-25T12:04:17Z</time>
      </trkpt>
      <trkpt lat="44.68448" lon="6.86421">
        <ele>2338.7</ele>
        <time>2026-03-25T12:04:18Z</time>
      </trkpt>
      <trkpt lat="44.68448" lon="6.86421">
        <ele>2338.7</ele>
        <time>2026-03-25T12:04:19Z</time>
      </trkpt>
      <trkpt lat="44.68448" lon="6.86421">
        <ele>2338.7</ele>
        <time>2026-03-25T12:04:20Z</time>
      </trkpt>
      <trkpt lat="44.68448" lon="6.86421">
        <ele>2338.7</ele>
        <time>2026-03-25T12:04:21Z</time>
      </trkpt>
      <trkpt lat="44.68448" lon="6.86421">
        <ele>2338.7</ele>
        <time>2026-03-25T12:04:22Z</time>
      </trkpt>
      <trkpt lat="44.68448" lon="6.86421">
        <ele>2338.7</ele>
        <time>2026-03-25T12:04:23Z</time>
      </trkpt>
      <trkpt lat="44.68448" lon="6.86421">
        <ele>2338.7</ele>
        <time>2026-03-25T12:04:24Z</time>
      </trkpt>
      <trkpt lat="44.68448" lon="6.86421">
        <ele>2338.7</ele>
        <time>2026-03-25T12:04:25Z</time>
      </trkpt>
      <trkpt lat="44.68448" lon="6.86421">
        <ele>2338.7</ele>
        <time>2026-03-25T12:04:26Z</time>
      </trkpt>
      <trkpt lat="44.68448" lon="6.86421">
        <ele>2338.7</ele>
        <time>2026-03-25T12:04:27Z</time>
      </trkpt>
      <trkpt lat="44.68448" lon="6.86421">
        <ele>2338.7</ele>
        <time>2026-03-25T12:04:28Z</time>
      </trkpt>
      <trkpt lat="44.68448" lon="6.86421">
        <ele>2338.7</ele>
        <time>2026-03-25T12:04:29Z</time>
      </trkpt>
      <trkpt lat="44.68448" lon="6.86421">
        <ele>2338.7</ele>
        <time>2026-03-25T12:04:30Z</time>
      </trkpt>
      <trkpt lat="44.68448" lon="6.86421">
        <ele>2338.7</ele>
        <time>2026-03-25T12:04:31Z</time>
      </trkpt>
      <trkpt lat="44.68448" lon="6.86421">
        <ele>2338.7</ele>
        <time>2026-03-25T12:04:32Z</time>
      </trkpt>
      <trkpt lat="44.68448" lon="6.86421">
        <ele>2338.7</ele>
        <time>2026-03-25T12:04:33Z</time>
      </trkpt>
      <trkpt lat="44.68448" lon="6.86421">
        <ele>2338.7</ele>
        <time>2026-03-25T12:04:34Z</time>
      </trkpt>
      <trkpt lat="44.68448" lon="6.86421">
        <ele>2338.7</ele>
        <time>2026-03-25T12:04:35Z</time>
      </trkpt>
      <trkpt lat="44.68448" lon="6.86421">
        <ele>2338.7</ele>
        <time>2026-03-25T12:04:36Z</time>
      </trkpt>
      <trkpt lat="44.68448" lon="6.86421">
        <ele>2338.7</ele>
        <time>2026-03-25T12:04:37Z</time>
      </trkpt>
      <trkpt lat="44.68448" lon="6.86421">
        <ele>2338.7</ele>
        <time>2026-03-25T12:04:38Z</time>
      </trkpt>
      <trkpt lat="44.68448" lon="6.86421">
        <ele>2338.7</ele>
        <time>2026-03-25T12:04:39Z</time>
      </trkpt>
      <trkpt lat="44.68448" lon="6.86421">
        <ele>2338.7</ele>
        <time>2026-03-25T12:04:40Z</time>
      </trkpt>
      <trkpt lat="44.68448" lon="6.86421">
        <ele>2338.7</ele>
        <time>2026-03-25T12:04:41Z</time>
      </trkpt>
      <trkpt lat="44.68448" lon="6.86421">
        <ele>2338.7</ele>
        <time>2026-03-25T12:04:42Z</time>
      </trkpt>
      <trkpt lat="44.68448" lon="6.86421">
        <ele>2338.7</ele>
        <time>2026-03-25T12:04:43Z</time>
      </trkpt>
      <trkpt lat="44.68448" lon="6.86421">
        <ele>2338.7</ele>
        <time>2026-03-25T12:04:44Z</time>
      </trkpt>
      <trkpt lat="44.68448" lon="6.86421">
        <ele>2338.7</ele>
        <time>2026-03-25T12:04:45Z</time>
      </trkpt>
      <trkpt lat="44.68448" lon="6.86421">
        <ele>2338.7</ele>
        <time>2026-03-25T12:04:46Z</time>
      </trkpt>
      <trkpt lat="44.68448" lon="6.86421">
        <ele>2338.7</ele>
        <time>2026-03-25T12:04:47Z</time>
      </trkpt>
      <trkpt lat="44.68448" lon="6.86421">
        <ele>2338.7</ele>
        <time>2026-03-25T12:04:48Z</time>
      </trkpt>
      <trkpt lat="44.68448" lon="6.86421">
        <ele>2338.7</ele>
        <time>2026-03-25T12:04:49Z</time>
      </trkpt>
      <trkpt lat="44.68448" lon="6.86421">
        <ele>2338.7</ele>
        <time>2026-03-25T12:04:50Z</time>
      </trkpt>
      <trkpt lat="44.68448" lon="6.86421">
        <ele>2338.7</ele>
        <time>2026-03-25T12:04:51Z</time>
      </trkpt>
      <trkpt lat="44.68448" lon="6.86421">
        <ele>2338.7</ele>
        <time>2026-03-25T12:04:52Z</time>
      </trkpt>
      <trkpt lat="44.68448" lon="6.86421">
        <ele>2338.7</ele>
        <time>2026-03-25T12:04:53Z</time>
      </trkpt>
      <trkpt lat="44.68448" lon="6.86421">
        <ele>2338.7</ele>
        <time>2026-03-25T12:04:54Z</time>
      </trkpt>
      <trkpt lat="44.68448" lon="6.86421">
        <ele>2338.7</ele>
        <time>2026-03-25T12:04:55Z</time>
      </trkpt>
      <trkpt lat="44.68448" lon="6.86421">
        <ele>2338.7</ele>
        <time>2026-03-25T12:04:56Z</time>
      </trkpt>
      <trkpt lat="44.68448" lon="6.86421">
        <ele>2338.7</ele>
        <time>2026-03-25T12:04:57Z</time>
      </trkpt>
      <trkpt lat="44.68448" lon="6.86421">
        <ele>2338.7</ele>
        <time>2026-03-25T12:04:58Z</time>
      </trkpt>
      <trkpt lat="44.68448" lon="6.86421">
        <ele>2338.7</ele>
        <time>2026-03-25T12:04:59Z</time>
      </trkpt>
      <trkpt lat="44.68448" lon="6.86421">
        <ele>2338.7</ele>
        <time>2026-03-25T12:05:00Z</time>
      </trkpt>
      <trkpt lat="44.68448" lon="6.86421">
        <ele>2338.7</ele>
        <time>2026-03-25T12:05:01Z</time>
      </trkpt>
      <trkpt lat="44.68448" lon="6.86421">
        <ele>2338.7</ele>
        <time>2026-03-25T12:05:02Z</time>
      </trkpt>
      <trkpt lat="44.68448" lon="6.86421">
        <ele>2338.7</ele>
        <time>2026-03-25T12:05:03Z</time>
      </trkpt>
      <trkpt lat="44.68448" lon="6.86421">
        <ele>2338.7</ele>
        <time>2026-03-25T12:05:04Z</time>
      </trkpt>
      <trkpt lat="44.68448" lon="6.86421">
        <ele>2338.7</ele>
        <time>2026-03-25T12:05:05Z</time>
      </trkpt>
      <trkpt lat="44.68448" lon="6.86421">
        <ele>2338.7</ele>
        <time>2026-03-25T12:05:06Z</time>
      </trkpt>
      <trkpt lat="44.68448" lon="6.86421">
        <ele>2338.7</ele>
        <time>2026-03-25T12:05:07Z</time>
      </trkpt>
      <trkpt lat="44.68448" lon="6.86421">
        <ele>2338.7</ele>
        <time>2026-03-25T12:05:08Z</time>
      </trkpt>
      <trkpt lat="44.68448" lon="6.86421">
        <ele>2338.7</ele>
        <time>2026-03-25T12:05:09Z</time>
      </trkpt>
      <trkpt lat="44.68448" lon="6.86421">
        <ele>2338.7</ele>
        <time>2026-03-25T12:05:10Z</time>
      </trkpt>
      <trkpt lat="44.68448" lon="6.86421">
        <ele>2338.7</ele>
        <time>2026-03-25T12:05:11Z</time>
      </trkpt>
      <trkpt lat="44.68448" lon="6.86421">
        <ele>2338.7</ele>
        <time>2026-03-25T12:05:12Z</time>
      </trkpt>
      <trkpt lat="44.68448" lon="6.86421">
        <ele>2338.7</ele>
        <time>2026-03-25T12:05:13Z</time>
      </trkpt>
      <trkpt lat="44.68448" lon="6.86421">
        <ele>2338.7</ele>
        <time>2026-03-25T12:05:14Z</time>
      </trkpt>
      <trkpt lat="44.68448" lon="6.86421">
        <ele>2338.7</ele>
        <time>2026-03-25T12:05:15Z</time>
      </trkpt>
      <trkpt lat="44.68448" lon="6.86421">
        <ele>2338.7</ele>
        <time>2026-03-25T12:05:16Z</time>
      </trkpt>
      <trkpt lat="44.68448" lon="6.86421">
        <ele>2338.7</ele>
        <time>2026-03-25T12:05:17Z</time>
      </trkpt>
      <trkpt lat="44.68448" lon="6.86421">
        <ele>2338.7</ele>
        <time>2026-03-25T12:05:18Z</time>
      </trkpt>
      <trkpt lat="44.68448" lon="6.86421">
        <ele>2338.7</ele>
        <time>2026-03-25T12:05:19Z</time>
      </trkpt>
      <trkpt lat="44.68448" lon="6.86421">
        <ele>2338.7</ele>
        <time>2026-03-25T12:05:20Z</time>
      </trkpt>
      <trkpt lat="44.68448" lon="6.86421">
        <ele>2338.7</ele>
        <time>2026-03-25T12:05:21Z</time>
      </trkpt>
      <trkpt lat="44.68448" lon="6.86421">
        <ele>2338.7</ele>
        <time>2026-03-25T12:05:22Z</time>
      </trkpt>
      <trkpt lat="44.68448" lon="6.86421">
        <ele>2338.7</ele>
        <time>2026-03-25T12:05:23Z</time>
      </trkpt>
      <trkpt lat="44.68448" lon="6.86421">
        <ele>2338.7</ele>
        <time>2026-03-25T12:05:24Z</time>
      </trkpt>
      <trkpt lat="44.68448" lon="6.86421">
        <ele>2338.7</ele>
        <time>2026-03-25T12:05:25Z</time>
      </trkpt>
      <trkpt lat="44.68448" lon="6.86421">
        <ele>2338.7</ele>
        <time>2026-03-25T12:05:26Z</time>
      </trkpt>
      <trkpt lat="44.68448" lon="6.86421">
        <ele>2338.7</ele>
        <time>2026-03-25T12:05:27Z</time>
      </trkpt>
      <trkpt lat="44.68447" lon="6.86421">
        <ele>2338.5</ele>
        <time>2026-03-25T12:05:28Z</time>
      </trkpt>
      <trkpt lat="44.68446" lon="6.86421">
        <ele>2338.4</ele>
        <time>2026-03-25T12:05:29Z</time>
      </trkpt>
      <trkpt lat="44.68446" lon="6.86421">
        <ele>2338.3</ele>
        <time>2026-03-25T12:05:30Z</time>
      </trkpt>
      <trkpt lat="44.68446" lon="6.86421">
        <ele>2338.3</ele>
        <time>2026-03-25T12:05:31Z</time>
      </trkpt>
      <trkpt lat="44.68446" lon="6.86421">
        <ele>2338.3</ele>
        <time>2026-03-25T12:05:32Z</time>
      </trkpt>
      <trkpt lat="44.68446" lon="6.86421">
        <ele>2338.3</ele>
        <time>2026-03-25T12:05:33Z</time>
      </trkpt>
      <trkpt lat="44.68446" lon="6.8642">
        <ele>2338.2</ele>
        <time>2026-03-25T12:05:34Z</time>
      </trkpt>
      <trkpt lat="44.68446" lon="6.8642">
        <ele>2338.2</ele>
        <time>2026-03-25T12:05:35Z</time>
      </trkpt>
      <trkpt lat="44.68446" lon="6.86421">
        <ele>2338.1</ele>
        <time>2026-03-25T12:05:36Z</time>
      </trkpt>
      <trkpt lat="44.68447" lon="6.86421">
        <ele>2337.9</ele>
        <time>2026-03-25T12:05:37Z</time>
      </trkpt>
      <trkpt lat="44.68447" lon="6.86422">
        <ele>2337.8</ele>
        <time>2026-03-25T12:05:38Z</time>
      </trkpt>
      <trkpt lat="44.68447" lon="6.86422">
        <ele>2337.8</ele>
        <time>2026-03-25T12:05:39Z</time>
      </trkpt>
      <trkpt lat="44.68447" lon="6.86422">
        <ele>2337.8</ele>
        <time>2026-03-25T12:05:40Z</time>
      </trkpt>
      <trkpt lat="44.68447" lon="6.86422">
        <ele>2337.8</ele>
        <time>2026-03-25T12:05:41Z</time>
      </trkpt>
      <trkpt lat="44.68447" lon="6.86422">
        <ele>2337.8</ele>
        <time>2026-03-25T12:05:42Z</time>
      </trkpt>
      <trkpt lat="44.68447" lon="6.86422">
        <ele>2337.8</ele>
        <time>2026-03-25T12:05:43Z</time>
      </trkpt>
      <trkpt lat="44.68447" lon="6.86422">
        <ele>2337.8</ele>
        <time>2026-03-25T12:05:44Z</time>
      </trkpt>
      <trkpt lat="44.68447" lon="6.86422">
        <ele>2337.8</ele>
        <time>2026-03-25T12:05:45Z</time>
      </trkpt>
      <trkpt lat="44.68447" lon="6.86422">
        <ele>2337.8</ele>
        <time>2026-03-25T12:05:46Z</time>
      </trkpt>
      <trkpt lat="44.68447" lon="6.86422">
        <ele>2337.8</ele>
        <time>2026-03-25T12:05:47Z</time>
      </trkpt>
      <trkpt lat="44.68447" lon="6.86422">
        <ele>2337.8</ele>
        <time>2026-03-25T12:05:48Z</time>
      </trkpt>
      <trkpt lat="44.68447" lon="6.86422">
        <ele>2337.8</ele>
        <time>2026-03-25T12:05:49Z</time>
      </trkpt>
      <trkpt lat="44.68447" lon="6.86422">
        <ele>2337.8</ele>
        <time>2026-03-25T12:05:50Z</time>
      </trkpt>
      <trkpt lat="44.68447" lon="6.86422">
        <ele>2337.8</ele>
        <time>2026-03-25T12:05:51Z</time>
      </trkpt>
      <trkpt lat="44.68447" lon="6.86422">
        <ele>2337.8</ele>
        <time>2026-03-25T12:05:52Z</time>
      </trkpt>
      <trkpt lat="44.68447" lon="6.86422">
        <ele>2337.7</ele>
        <time>2026-03-25T12:05:53Z</time>
      </trkpt>
      <trkpt lat="44.68447" lon="6.86422">
        <ele>2337.7</ele>
        <time>2026-03-25T12:05:54Z</time>
      </trkpt>
      <trkpt lat="44.68447" lon="6.86422">
        <ele>2337.7</ele>
        <time>2026-03-25T12:05:55Z</time>
      </trkpt>
      <trkpt lat="44.68447" lon="6.86422">
        <ele>2337.7</ele>
        <time>2026-03-25T12:05:56Z</time>
      </trkpt>
      <trkpt lat="44.68447" lon="6.86422">
        <ele>2337.7</ele>
        <time>2026-03-25T12:05:57Z</time>
      </trkpt>
      <trkpt lat="44.68447" lon="6.86422">
        <ele>2337.7</ele>
        <time>2026-03-25T12:05:58Z</time>
      </trkpt>
      <trkpt lat="44.68447" lon="6.86422">
        <ele>2337.7</ele>
        <time>2026-03-25T12:05:59Z</time>
      </trkpt>
      <trkpt lat="44.68447" lon="6.86422">
        <ele>2337.7</ele>
        <time>2026-03-25T12:06:00Z</time>
      </trkpt>
      <trkpt lat="44.68447" lon="6.86422">
        <ele>2337.7</ele>
        <time>2026-03-25T12:06:01Z</time>
      </trkpt>
      <trkpt lat="44.68447" lon="6.86422">
        <ele>2337.7</ele>
        <time>2026-03-25T12:06:02Z</time>
      </trkpt>
      <trkpt lat="44.68447" lon="6.86422">
        <ele>2337.7</ele>
        <time>2026-03-25T12:06:03Z</time>
      </trkpt>
      <trkpt lat="44.68447" lon="6.86422">
        <ele>2337.7</ele>
        <time>2026-03-25T12:06:04Z</time>
      </trkpt>
      <trkpt lat="44.68447" lon="6.86422">
        <ele>2337.7</ele>
        <time>2026-03-25T12:06:05Z</time>
      </trkpt>
      <trkpt lat="44.68447" lon="6.86422">
        <ele>2337.7</ele>
        <time>2026-03-25T12:06:06Z</time>
      </trkpt>
      <trkpt lat="44.68447" lon="6.86422">
        <ele>2337.7</ele>
        <time>2026-03-25T12:06:07Z</time>
      </trkpt>
      <trkpt lat="44.68447" lon="6.86422">
        <ele>2337.7</ele>
        <time>2026-03-25T12:06:08Z</time>
      </trkpt>
      <trkpt lat="44.68447" lon="6.86422">
        <ele>2337.7</ele>
        <time>2026-03-25T12:06:09Z</time>
      </trkpt>
      <trkpt lat="44.68447" lon="6.86422">
        <ele>2337.7</ele>
        <time>2026-03-25T12:06:10Z</time>
      </trkpt>
      <trkpt lat="44.68447" lon="6.86422">
        <ele>2337.7</ele>
        <time>2026-03-25T12:06:11Z</time>
      </trkpt>
      <trkpt lat="44.68447" lon="6.86422">
        <ele>2337.7</ele>
        <time>2026-03-25T12:06:12Z</time>
      </trkpt>
      <trkpt lat="44.68447" lon="6.86422">
        <ele>2337.7</ele>
        <time>2026-03-25T12:06:13Z</time>
      </trkpt>
      <trkpt lat="44.68447" lon="6.86422">
        <ele>2337.7</ele>
        <time>2026-03-25T12:06:14Z</time>
      </trkpt>
      <trkpt lat="44.68447" lon="6.86422">
        <ele>2337.6</ele>
        <time>2026-03-25T12:06:15Z</time>
      </trkpt>
      <trkpt lat="44.68447" lon="6.86422">
        <ele>2337.6</ele>
        <time>2026-03-25T12:06:16Z</time>
      </trkpt>
      <trkpt lat="44.68447" lon="6.86422">
        <ele>2337.6</ele>
        <time>2026-03-25T12:06:17Z</time>
      </trkpt>
      <trkpt lat="44.68447" lon="6.86422">
        <ele>2337.6</ele>
        <time>2026-03-25T12:06:18Z</time>
      </trkpt>
      <trkpt lat="44.68447" lon="6.86422">
        <ele>2337.6</ele>
        <time>2026-03-25T12:06:19Z</time>
      </trkpt>
      <trkpt lat="44.68447" lon="6.86422">
        <ele>2337.6</ele>
        <time>2026-03-25T12:06:20Z</time>
      </trkpt>
      <trkpt lat="44.68447" lon="6.86422">
        <ele>2337.6</ele>
        <time>2026-03-25T12:06:21Z</time>
      </trkpt>
      <trkpt lat="44.68447" lon="6.86422">
        <ele>2337.6</ele>
        <time>2026-03-25T12:06:22Z</time>
      </trkpt>
      <trkpt lat="44.68447" lon="6.86422">
        <ele>2337.6</ele>
        <time>2026-03-25T12:06:23Z</time>
      </trkpt>
      <trkpt lat="44.68447" lon="6.86422">
        <ele>2337.6</ele>
        <time>2026-03-25T12:06:24Z</time>
      </trkpt>
      <trkpt lat="44.68447" lon="6.86422">
        <ele>2337.6</ele>
        <time>2026-03-25T12:06:25Z</time>
      </trkpt>
      <trkpt lat="44.68447" lon="6.86422">
        <ele>2337.6</ele>
        <time>2026-03-25T12:06:26Z</time>
      </trkpt>
      <trkpt lat="44.68447" lon="6.86422">
        <ele>2337.6</ele>
        <time>2026-03-25T12:06:27Z</time>
      </trkpt>
      <trkpt lat="44.68447" lon="6.86422">
        <ele>2337.6</ele>
        <time>2026-03-25T12:06:28Z</time>
      </trkpt>
      <trkpt lat="44.68447" lon="6.86422">
        <ele>2337.6</ele>
        <time>2026-03-25T12:06:29Z</time>
      </trkpt>
      <trkpt lat="44.68447" lon="6.86422">
        <ele>2337.6</ele>
        <time>2026-03-25T12:06:30Z</time>
      </trkpt>
      <trkpt lat="44.68447" lon="6.86422">
        <ele>2337.6</ele>
        <time>2026-03-25T12:06:31Z</time>
      </trkpt>
      <trkpt lat="44.68447" lon="6.86422">
        <ele>2337.6</ele>
        <time>2026-03-25T12:06:32Z</time>
      </trkpt>
      <trkpt lat="44.68447" lon="6.86422">
        <ele>2337.6</ele>
        <time>2026-03-25T12:06:33Z</time>
      </trkpt>
      <trkpt lat="44.68447" lon="6.86422">
        <ele>2337.6</ele>
        <time>2026-03-25T12:06:34Z</time>
      </trkpt>
      <trkpt lat="44.68447" lon="6.86422">
        <ele>2337.6</ele>
        <time>2026-03-25T12:06:35Z</time>
      </trkpt>
      <trkpt lat="44.68447" lon="6.86422">
        <ele>2337.6</ele>
        <time>2026-03-25T12:06:36Z</time>
      </trkpt>
      <trkpt lat="44.68447" lon="6.86422">
        <ele>2337.6</ele>
        <time>2026-03-25T12:06:37Z</time>
      </trkpt>
      <trkpt lat="44.68447" lon="6.86422">
        <ele>2337.6</ele>
        <time>2026-03-25T12:06:38Z</time>
      </trkpt>
      <trkpt lat="44.68447" lon="6.86422">
        <ele>2337.6</ele>
        <time>2026-03-25T12:06:39Z</time>
      </trkpt>
      <trkpt lat="44.68447" lon="6.86422">
        <ele>2337.6</ele>
        <time>2026-03-25T12:06:40Z</time>
      </trkpt>
      <trkpt lat="44.68447" lon="6.86422">
        <ele>2337.6</ele>
        <time>2026-03-25T12:06:41Z</time>
      </trkpt>
      <trkpt lat="44.68447" lon="6.86422">
        <ele>2337.6</ele>
        <time>2026-03-25T12:06:42Z</time>
      </trkpt>
      <trkpt lat="44.68447" lon="6.86422">
        <ele>2337.6</ele>
        <time>2026-03-25T12:06:43Z</time>
      </trkpt>
      <trkpt lat="44.68447" lon="6.86422">
        <ele>2337.6</ele>
        <time>2026-03-25T12:06:44Z</time>
      </trkpt>
      <trkpt lat="44.68447" lon="6.86422">
        <ele>2337.6</ele>
        <time>2026-03-25T12:06:45Z</time>
      </trkpt>
      <trkpt lat="44.68447" lon="6.86422">
        <ele>2337.6</ele>
        <time>2026-03-25T12:06:46Z</time>
      </trkpt>
      <trkpt lat="44.68446" lon="6.86422">
        <ele>2337.5</ele>
        <time>2026-03-25T12:06:47Z</time>
      </trkpt>
      <trkpt lat="44.68446" lon="6.86421">
        <ele>2337.5</ele>
        <time>2026-03-25T12:06:48Z</time>
      </trkpt>
      <trkpt lat="44.68446" lon="6.86421">
        <ele>2337.5</ele>
        <time>2026-03-25T12:06:49Z</time>
      </trkpt>
      <trkpt lat="44.68446" lon="6.86421">
        <ele>2337.4</ele>
        <time>2026-03-25T12:06:50Z</time>
      </trkpt>
      <trkpt lat="44.68447" lon="6.8642">
        <ele>2337.3</ele>
        <time>2026-03-25T12:06:51Z</time>
      </trkpt>
      <trkpt lat="44.68446" lon="6.8642">
        <ele>2337.3</ele>
        <time>2026-03-25T12:06:52Z</time>
      </trkpt>
      <trkpt lat="44.68446" lon="6.8642">
        <ele>2337.3</ele>
        <time>2026-03-25T12:06:53Z</time>
      </trkpt>
      <trkpt lat="44.68446" lon="6.8642">
        <ele>2337.3</ele>
        <time>2026-03-25T12:06:54Z</time>
      </trkpt>
      <trkpt lat="44.68446" lon="6.8642">
        <ele>2337.2</ele>
        <time>2026-03-25T12:06:55Z</time>
      </trkpt>
      <trkpt lat="44.68447" lon="6.8642">
        <ele>2337.2</ele>
        <time>2026-03-25T12:06:56Z</time>
      </trkpt>
      <trkpt lat="44.68447" lon="6.8642">
        <ele>2337.2</ele>
        <time>2026-03-25T12:06:57Z</time>
      </trkpt>
      <trkpt lat="44.68447" lon="6.8642">
        <ele>2337.1</ele>
        <time>2026-03-25T12:06:58Z</time>
      </trkpt>
      <trkpt lat="44.68447" lon="6.8642">
        <ele>2337.1</ele>
        <time>2026-03-25T12:06:59Z</time>
      </trkpt>
      <trkpt lat="44.68447" lon="6.86419">
        <ele>2337.1</ele>
        <time>2026-03-25T12:07:00Z</time>
      </trkpt>
      <trkpt lat="44.68447" lon="6.86419">
        <ele>2337.1</ele>
        <time>2026-03-25T12:07:01Z</time>
      </trkpt>
      <trkpt lat="44.68447" lon="6.86419">
        <ele>2337.1</ele>
        <time>2026-03-25T12:07:02Z</time>
      </trkpt>
      <trkpt lat="44.68447" lon="6.86419">
        <ele>2337.1</ele>
        <time>2026-03-25T12:07:03Z</time>
      </trkpt>
      <trkpt lat="44.68447" lon="6.86419">
        <ele>2337.1</ele>
        <time>2026-03-25T12:07:04Z</time>
      </trkpt>
      <trkpt lat="44.68447" lon="6.86419">
        <ele>2337.1</ele>
        <time>2026-03-25T12:07:05Z</time>
      </trkpt>
      <trkpt lat="44.68447" lon="6.86419">
        <ele>2337.1</ele>
        <time>2026-03-25T12:07:06Z</time>
      </trkpt>
      <trkpt lat="44.68447" lon="6.86419">
        <ele>2337.1</ele>
        <time>2026-03-25T12:07:07Z</time>
      </trkpt>
      <trkpt lat="44.68447" lon="6.86419">
        <ele>2337.1</ele>
        <time>2026-03-25T12:07:08Z</time>
      </trkpt>
      <trkpt lat="44.68447" lon="6.86419">
        <ele>2337.1</ele>
        <time>2026-03-25T12:07:09Z</time>
      </trkpt>
      <trkpt lat="44.68447" lon="6.86418">
        <ele>2336.9</ele>
        <time>2026-03-25T12:07:10Z</time>
      </trkpt>
      <trkpt lat="44.68448" lon="6.86417">
        <ele>2336.6</ele>
        <time>2026-03-25T12:07:11Z</time>
      </trkpt>
      <trkpt lat="44.68451" lon="6.86416">
        <ele>2336.1</ele>
        <time>2026-03-25T12:07:12Z</time>
      </trkpt>
      <trkpt lat="44.68452" lon="6.86416">
        <ele>2335.9</ele>
        <time>2026-03-25T12:07:13Z</time>
      </trkpt>
      <trkpt lat="44.68455" lon="6.86418">
        <ele>2335.2</ele>
        <time>2026-03-25T12:07:14Z</time>
      </trkpt>
      <trkpt lat="44.68456" lon="6.86419">
        <ele>2335</ele>
        <time>2026-03-25T12:07:15Z</time>
      </trkpt>
      <trkpt lat="44.6846" lon="6.86419">
        <ele>2334.3</ele>
        <time>2026-03-25T12:07:16Z</time>
      </trkpt>
      <trkpt lat="44.68464" lon="6.86416">
        <ele>2333.5</ele>
        <time>2026-03-25T12:07:17Z</time>
      </trkpt>
      <trkpt lat="44.68468" lon="6.86416">
        <ele>2332.7</ele>
        <time>2026-03-25T12:07:18Z</time>
      </trkpt>
      <trkpt lat="44.68471" lon="6.86418">
        <ele>2332</ele>
        <time>2026-03-25T12:07:19Z</time>
      </trkpt>
      <trkpt lat="44.68475" lon="6.86418">
        <ele>2331.3</ele>
        <time>2026-03-25T12:07:20Z</time>
      </trkpt>
      <trkpt lat="44.68478" lon="6.86415">
        <ele>2330.5</ele>
        <time>2026-03-25T12:07:21Z</time>
      </trkpt>
      <trkpt lat="44.68481" lon="6.86413">
        <ele>2329.7</ele>
        <time>2026-03-25T12:07:22Z</time>
      </trkpt>
      <trkpt lat="44.68484" lon="6.86412">
        <ele>2329.1</ele>
        <time>2026-03-25T12:07:23Z</time>
      </trkpt>
      <trkpt lat="44.68486" lon="6.86407">
        <ele>2328.2</ele>
        <time>2026-03-25T12:07:24Z</time>
      </trkpt>
      <trkpt lat="44.6849" lon="6.86403">
        <ele>2327</ele>
        <time>2026-03-25T12:07:25Z</time>
      </trkpt>
      <trkpt lat="44.68495" lon="6.86402">
        <ele>2325.9</ele>
        <time>2026-03-25T12:07:26Z</time>
      </trkpt>
      <trkpt lat="44.68496" lon="6.864">
        <ele>2325.4</ele>
        <time>2026-03-25T12:07:27Z</time>
      </trkpt>
      <trkpt lat="44.68499" lon="6.86395">
        <ele>2324.4</ele>
        <time>2026-03-25T12:07:28Z</time>
      </trkpt>
      <trkpt lat="44.68503" lon="6.86393">
        <ele>2323.4</ele>
        <time>2026-03-25T12:07:29Z</time>
      </trkpt>
      <trkpt lat="44.68505" lon="6.8639">
        <ele>2322.6</ele>
        <time>2026-03-25T12:07:30Z</time>
      </trkpt>
      <trkpt lat="44.68505" lon="6.86383">
        <ele>2321.4</ele>
        <time>2026-03-25T12:07:31Z</time>
      </trkpt>
      <trkpt lat="44.68506" lon="6.86378">
        <ele>2320.4</ele>
        <time>2026-03-25T12:07:32Z</time>
      </trkpt>
      <trkpt lat="44.68504" lon="6.86374">
        <ele>2319.4</ele>
        <time>2026-03-25T12:07:33Z</time>
      </trkpt>
      <trkpt lat="44.68503" lon="6.86371">
        <ele>2318.9</ele>
        <time>2026-03-25T12:07:34Z</time>
      </trkpt>
      <trkpt lat="44.68503" lon="6.86369">
        <ele>2318.4</ele>
        <time>2026-03-25T12:07:35Z</time>
      </trkpt>
      <trkpt lat="44.68502" lon="6.86368">
        <ele>2318.1</ele>
        <time>2026-03-25T12:07:36Z</time>
      </trkpt>
      <trkpt lat="44.68502" lon="6.86367">
        <ele>2317.9</ele>
        <time>2026-03-25T12:07:37Z</time>
      </trkpt>
      <trkpt lat="44.68502" lon="6.86366">
        <ele>2317.7</ele>
        <time>2026-03-25T12:07:38Z</time>
      </trkpt>
      <trkpt lat="44.68501" lon="6.86364">
        <ele>2317.4</ele>
        <time>2026-03-25T12:07:39Z</time>
      </trkpt>
      <trkpt lat="44.68501" lon="6.86363">
        <ele>2317.2</ele>
        <time>2026-03-25T12:07:40Z</time>
      </trkpt>
      <trkpt lat="44.68502" lon="6.8636">
        <ele>2316.5</ele>
        <time>2026-03-25T12:07:41Z</time>
      </trkpt>
      <trkpt lat="44.68503" lon="6.86359">
        <ele>2316.1</ele>
        <time>2026-03-25T12:07:42Z</time>
      </trkpt>
      <trkpt lat="44.68505" lon="6.86356">
        <ele>2315.3</ele>
        <time>2026-03-25T12:07:43Z</time>
      </trkpt>
      <trkpt lat="44.68507" lon="6.86352">
        <ele>2314.3</ele>
        <time>2026-03-25T12:07:44Z</time>
      </trkpt>
      <trkpt lat="44.6851" lon="6.86349">
        <ele>2313.4</ele>
        <time>2026-03-25T12:07:45Z</time>
      </trkpt>
      <trkpt lat="44.68511" lon="6.86345">
        <ele>2312.6</ele>
        <time>2026-03-25T12:07:46Z</time>
      </trkpt>
      <trkpt lat="44.68515" lon="6.86345">
        <ele>2311.7</ele>
        <time>2026-03-25T12:07:47Z</time>
      </trkpt>
      <trkpt lat="44.68516" lon="6.86346">
        <ele>2311.4</ele>
        <time>2026-03-25T12:07:48Z</time>
      </trkpt>
      <trkpt lat="44.6852" lon="6.86347">
        <ele>2310.4</ele>
        <time>2026-03-25T12:07:49Z</time>
      </trkpt>
      <trkpt lat="44.68521" lon="6.86347">
        <ele>2310</ele>
        <time>2026-03-25T12:07:50Z</time>
      </trkpt>
      <trkpt lat="44.68524" lon="6.86344">
        <ele>2309.2</ele>
        <time>2026-03-25T12:07:51Z</time>
      </trkpt>
      <trkpt lat="44.68525" lon="6.8634">
        <ele>2308.4</ele>
        <time>2026-03-25T12:07:52Z</time>
      </trkpt>
      <trkpt lat="44.68526" lon="6.86335">
        <ele>2307.5</ele>
        <time>2026-03-25T12:07:53Z</time>
      </trkpt>
      <trkpt lat="44.68527" lon="6.86331">
        <ele>2306.8</ele>
        <time>2026-03-25T12:07:54Z</time>
      </trkpt>
      <trkpt lat="44.68529" lon="6.86328">
        <ele>2306</ele>
        <time>2026-03-25T12:07:55Z</time>
      </trkpt>
      <trkpt lat="44.68533" lon="6.86326">
        <ele>2305.2</ele>
        <time>2026-03-25T12:07:56Z</time>
      </trkpt>
      <trkpt lat="44.68536" lon="6.86325">
        <ele>2304.4</ele>
        <time>2026-03-25T12:07:57Z</time>
      </trkpt>
      <trkpt lat="44.68539" lon="6.86323">
        <ele>2303.7</ele>
        <time>2026-03-25T12:07:58Z</time>
      </trkpt>
      <trkpt lat="44.68541" lon="6.86319">
        <ele>2303</ele>
        <time>2026-03-25T12:07:59Z</time>
      </trkpt>
      <trkpt lat="44.68543" lon="6.86317">
        <ele>2302.4</ele>
        <time>2026-03-25T12:08:00Z</time>
      </trkpt>
      <trkpt lat="44.68546" lon="6.86315">
        <ele>2301.6</ele>
        <time>2026-03-25T12:08:01Z</time>
      </trkpt>
      <trkpt lat="44.68549" lon="6.8631">
        <ele>2300.8</ele>
        <time>2026-03-25T12:08:02Z</time>
      </trkpt>
      <trkpt lat="44.68551" lon="6.86306">
        <ele>2300</ele>
        <time>2026-03-25T12:08:03Z</time>
      </trkpt>
      <trkpt lat="44.68555" lon="6.86305">
        <ele>2299.3</ele>
        <time>2026-03-25T12:08:04Z</time>
      </trkpt>
      <trkpt lat="44.68559" lon="6.86305">
        <ele>2298.6</ele>
        <time>2026-03-25T12:08:05Z</time>
      </trkpt>
      <trkpt lat="44.68561" lon="6.86301">
        <ele>2297.4</ele>
        <time>2026-03-25T12:08:06Z</time>
      </trkpt>
      <trkpt lat="44.68563" lon="6.86295">
        <ele>2296.2</ele>
        <time>2026-03-25T12:08:07Z</time>
      </trkpt>
      <trkpt lat="44.68566" lon="6.8629">
        <ele>2295.1</ele>
        <time>2026-03-25T12:08:08Z</time>
      </trkpt>
      <trkpt lat="44.6857" lon="6.86289">
        <ele>2293.9</ele>
        <time>2026-03-25T12:08:09Z</time>
      </trkpt>
      <trkpt lat="44.68573" lon="6.86288">
        <ele>2293.2</ele>
        <time>2026-03-25T12:08:10Z</time>
      </trkpt>
      <trkpt lat="44.68576" lon="6.86285">
        <ele>2292.5</ele>
        <time>2026-03-25T12:08:11Z</time>
      </trkpt>
      <trkpt lat="44.68579" lon="6.86283">
        <ele>2291.2</ele>
        <time>2026-03-25T12:08:12Z</time>
      </trkpt>
      <trkpt lat="44.68582" lon="6.86283">
        <ele>2290.5</ele>
        <time>2026-03-25T12:08:13Z</time>
      </trkpt>
      <trkpt lat="44.68587" lon="6.86281">
        <ele>2289</ele>
        <time>2026-03-25T12:08:14Z</time>
      </trkpt>
      <trkpt lat="44.68589" lon="6.86276">
        <ele>2287.7</ele>
        <time>2026-03-25T12:08:15Z</time>
      </trkpt>
      <trkpt lat="44.68591" lon="6.86271">
        <ele>2286.3</ele>
        <time>2026-03-25T12:08:16Z</time>
      </trkpt>
      <trkpt lat="44.68593" lon="6.86265">
        <ele>2285</ele>
        <time>2026-03-25T12:08:17Z</time>
      </trkpt>
      <trkpt lat="44.68594" lon="6.86259">
        <ele>2283.8</ele>
        <time>2026-03-25T12:08:18Z</time>
      </trkpt>
      <trkpt lat="44.68598" lon="6.86255">
        <ele>2282.5</ele>
        <time>2026-03-25T12:08:19Z</time>
      </trkpt>
      <trkpt lat="44.68602" lon="6.86252">
        <ele>2281.3</ele>
        <time>2026-03-25T12:08:20Z</time>
      </trkpt>
      <trkpt lat="44.68605" lon="6.86245">
        <ele>2280</ele>
        <time>2026-03-25T12:08:21Z</time>
      </trkpt>
      <trkpt lat="44.68609" lon="6.86241">
        <ele>2278.1</ele>
        <time>2026-03-25T12:08:22Z</time>
      </trkpt>
      <trkpt lat="44.68613" lon="6.86243">
        <ele>2278.1</ele>
        <time>2026-03-25T12:08:23Z</time>
      </trkpt>
      <trkpt lat="44.68617" lon="6.8624">
        <ele>2276.8</ele>
        <time>2026-03-25T12:08:24Z</time>
      </trkpt>
      <trkpt lat="44.6862" lon="6.86237">
        <ele>2275.6</ele>
        <time>2026-03-25T12:08:25Z</time>
      </trkpt>
      <trkpt lat="44.68622" lon="6.86231">
        <ele>2274.3</ele>
        <time>2026-03-25T12:08:26Z</time>
      </trkpt>
      <trkpt lat="44.68624" lon="6.86224">
        <ele>2272.4</ele>
        <time>2026-03-25T12:08:27Z</time>
      </trkpt>
      <trkpt lat="44.68624" lon="6.86218">
        <ele>2271.6</ele>
        <time>2026-03-25T12:08:28Z</time>
      </trkpt>
      <trkpt lat="44.68623" lon="6.86213">
        <ele>2271.3</ele>
        <time>2026-03-25T12:08:29Z</time>
      </trkpt>
      <trkpt lat="44.68622" lon="6.86206">
        <ele>2269.7</ele>
        <time>2026-03-25T12:08:30Z</time>
      </trkpt>
      <trkpt lat="44.68624" lon="6.862">
        <ele>2268.3</ele>
        <time>2026-03-25T12:08:31Z</time>
      </trkpt>
      <trkpt lat="44.68627" lon="6.86196">
        <ele>2266.9</ele>
        <time>2026-03-25T12:08:32Z</time>
      </trkpt>
      <trkpt lat="44.68631" lon="6.86192">
        <ele>2265.5</ele>
        <time>2026-03-25T12:08:33Z</time>
      </trkpt>
      <trkpt lat="44.68636" lon="6.86189">
        <ele>2263.7</ele>
        <time>2026-03-25T12:08:34Z</time>
      </trkpt>
      <trkpt lat="44.68641" lon="6.86188">
        <ele>2263.2</ele>
        <time>2026-03-25T12:08:35Z</time>
      </trkpt>
      <trkpt lat="44.68646" lon="6.86187">
        <ele>2262.6</ele>
        <time>2026-03-25T12:08:36Z</time>
      </trkpt>
      <trkpt lat="44.68652" lon="6.86186">
        <ele>2261.3</ele>
        <time>2026-03-25T12:08:37Z</time>
      </trkpt>
      <trkpt lat="44.68657" lon="6.86182">
        <ele>2260.1</ele>
        <time>2026-03-25T12:08:38Z</time>
      </trkpt>
      <trkpt lat="44.6866" lon="6.86177">
        <ele>2259.1</ele>
        <time>2026-03-25T12:08:39Z</time>
      </trkpt>
      <trkpt lat="44.68661" lon="6.8617">
        <ele>2258.2</ele>
        <time>2026-03-25T12:08:40Z</time>
      </trkpt>
      <trkpt lat="44.68663" lon="6.86164">
        <ele>2256.1</ele>
        <time>2026-03-25T12:08:41Z</time>
      </trkpt>
      <trkpt lat="44.68664" lon="6.86156">
        <ele>2254.2</ele>
        <time>2026-03-25T12:08:42Z</time>
      </trkpt>
      <trkpt lat="44.68665" lon="6.86148">
        <ele>2253.4</ele>
        <time>2026-03-25T12:08:43Z</time>
      </trkpt>
      <trkpt lat="44.68668" lon="6.86142">
        <ele>2251.5</ele>
        <time>2026-03-25T12:08:44Z</time>
      </trkpt>
      <trkpt lat="44.68673" lon="6.86141">
        <ele>2251</ele>
        <time>2026-03-25T12:08:45Z</time>
      </trkpt>
      <trkpt lat="44.68676" lon="6.86135">
        <ele>2250.1</ele>
        <time>2026-03-25T12:08:46Z</time>
      </trkpt>
      <trkpt lat="44.68681" lon="6.86131">
        <ele>2249.1</ele>
        <time>2026-03-25T12:08:47Z</time>
      </trkpt>
      <trkpt lat="44.68686" lon="6.86128">
        <ele>2248.1</ele>
        <time>2026-03-25T12:08:48Z</time>
      </trkpt>
      <trkpt lat="44.68689" lon="6.86125">
        <ele>2247.2</ele>
        <time>2026-03-25T12:08:49Z</time>
      </trkpt>
      <trkpt lat="44.68693" lon="6.86118">
        <ele>2246.2</ele>
        <time>2026-03-25T12:08:50Z</time>
      </trkpt>
      <trkpt lat="44.68697" lon="6.86114">
        <ele>2245.1</ele>
        <time>2026-03-25T12:08:51Z</time>
      </trkpt>
      <trkpt lat="44.68702" lon="6.86111">
        <ele>2244</ele>
        <time>2026-03-25T12:08:52Z</time>
      </trkpt>
      <trkpt lat="44.68706" lon="6.86107">
        <ele>2242.9</ele>
        <time>2026-03-25T12:08:53Z</time>
      </trkpt>
      <trkpt lat="44.6871" lon="6.86101">
        <ele>2241.9</ele>
        <time>2026-03-25T12:08:54Z</time>
      </trkpt>
      <trkpt lat="44.68715" lon="6.86097">
        <ele>2240.8</ele>
        <time>2026-03-25T12:08:55Z</time>
      </trkpt>
      <trkpt lat="44.68718" lon="6.86092">
        <ele>2239</ele>
        <time>2026-03-25T12:08:56Z</time>
      </trkpt>
      <trkpt lat="44.68723" lon="6.86089">
        <ele>2238.9</ele>
        <time>2026-03-25T12:08:57Z</time>
      </trkpt>
      <trkpt lat="44.68727" lon="6.86084">
        <ele>2237.9</ele>
        <time>2026-03-25T12:08:58Z</time>
      </trkpt>
      <trkpt lat="44.6873" lon="6.86079">
        <ele>2237</ele>
        <time>2026-03-25T12:08:59Z</time>
      </trkpt>
      <trkpt lat="44.68736" lon="6.86075">
        <ele>2236.1</ele>
        <time>2026-03-25T12:09:00Z</time>
      </trkpt>
      <trkpt lat="44.6874" lon="6.86074">
        <ele>2235.3</ele>
        <time>2026-03-25T12:09:01Z</time>
      </trkpt>
      <trkpt lat="44.68746" lon="6.86074">
        <ele>2235.6</ele>
        <time>2026-03-25T12:09:02Z</time>
      </trkpt>
      <trkpt lat="44.6875" lon="6.86075">
        <ele>2236.7</ele>
        <time>2026-03-25T12:09:03Z</time>
      </trkpt>
      <trkpt lat="44.68753" lon="6.86076">
        <ele>2236.8</ele>
        <time>2026-03-25T12:09:04Z</time>
      </trkpt>
      <trkpt lat="44.68755" lon="6.86078">
        <ele>2237</ele>
        <time>2026-03-25T12:09:05Z</time>
      </trkpt>
      <trkpt lat="44.68756" lon="6.86079">
        <ele>2238</ele>
        <time>2026-03-25T12:09:06Z</time>
      </trkpt>
      <trkpt lat="44.68756" lon="6.86079">
        <ele>2238</ele>
        <time>2026-03-25T12:09:07Z</time>
      </trkpt>
      <trkpt lat="44.68755" lon="6.8608">
        <ele>2238</ele>
        <time>2026-03-25T12:09:08Z</time>
      </trkpt>
      <trkpt lat="44.68755" lon="6.8608">
        <ele>2238</ele>
        <time>2026-03-25T12:09:09Z</time>
      </trkpt>
      <trkpt lat="44.68754" lon="6.8608">
        <ele>2237.9</ele>
        <time>2026-03-25T12:09:10Z</time>
      </trkpt>
      <trkpt lat="44.68754" lon="6.8608">
        <ele>2237.9</ele>
        <time>2026-03-25T12:09:11Z</time>
      </trkpt>
      <trkpt lat="44.68754" lon="6.86079">
        <ele>2238</ele>
        <time>2026-03-25T12:09:12Z</time>
      </trkpt>
      <trkpt lat="44.68754" lon="6.86079">
        <ele>2238</ele>
        <time>2026-03-25T12:09:13Z</time>
      </trkpt>
      <trkpt lat="44.68754" lon="6.8608">
        <ele>2238.2</ele>
        <time>2026-03-25T12:09:14Z</time>
      </trkpt>
      <trkpt lat="44.68755" lon="6.86079">
        <ele>2238.2</ele>
        <time>2026-03-25T12:09:15Z</time>
      </trkpt>
      <trkpt lat="44.68755" lon="6.86079">
        <ele>2238.2</ele>
        <time>2026-03-25T12:09:16Z</time>
      </trkpt>
      <trkpt lat="44.68755" lon="6.86079">
        <ele>2238.2</ele>
        <time>2026-03-25T12:09:17Z</time>
      </trkpt>
      <trkpt lat="44.68756" lon="6.86079">
        <ele>2237.3</ele>
        <time>2026-03-25T12:09:18Z</time>
      </trkpt>
      <trkpt lat="44.68756" lon="6.86079">
        <ele>2237.3</ele>
        <time>2026-03-25T12:09:19Z</time>
      </trkpt>
      <trkpt lat="44.68756" lon="6.86079">
        <ele>2238.3</ele>
        <time>2026-03-25T12:09:20Z</time>
      </trkpt>
      <trkpt lat="44.68757" lon="6.86079">
        <ele>2238.3</ele>
        <time>2026-03-25T12:09:21Z</time>
      </trkpt>
      <trkpt lat="44.68757" lon="6.8608">
        <ele>2238.3</ele>
        <time>2026-03-25T12:09:22Z</time>
      </trkpt>
      <trkpt lat="44.68757" lon="6.8608">
        <ele>2238.5</ele>
        <time>2026-03-25T12:09:23Z</time>
      </trkpt>
      <trkpt lat="44.68757" lon="6.8608">
        <ele>2238.4</ele>
        <time>2026-03-25T12:09:24Z</time>
      </trkpt>
      <trkpt lat="44.68757" lon="6.8608">
        <ele>2238.4</ele>
        <time>2026-03-25T12:09:25Z</time>
      </trkpt>
      <trkpt lat="44.68757" lon="6.86079">
        <ele>2238.4</ele>
        <time>2026-03-25T12:09:26Z</time>
      </trkpt>
      <trkpt lat="44.68757" lon="6.8608">
        <ele>2238.4</ele>
        <time>2026-03-25T12:09:27Z</time>
      </trkpt>
      <trkpt lat="44.68757" lon="6.8608">
        <ele>2238.6</ele>
        <time>2026-03-25T12:09:28Z</time>
      </trkpt>
      <trkpt lat="44.68758" lon="6.86079">
        <ele>2238.6</ele>
        <time>2026-03-25T12:09:29Z</time>
      </trkpt>
      <trkpt lat="44.68758" lon="6.86079">
        <ele>2238.7</ele>
        <time>2026-03-25T12:09:30Z</time>
      </trkpt>
      <trkpt lat="44.68758" lon="6.86079">
        <ele>2238.7</ele>
        <time>2026-03-25T12:09:31Z</time>
      </trkpt>
      <trkpt lat="44.68758" lon="6.86079">
        <ele>2238.7</ele>
        <time>2026-03-25T12:09:32Z</time>
      </trkpt>
      <trkpt lat="44.68758" lon="6.86079">
        <ele>2238.7</ele>
        <time>2026-03-25T12:09:33Z</time>
      </trkpt>
      <trkpt lat="44.68758" lon="6.86079">
        <ele>2238.8</ele>
        <time>2026-03-25T12:09:34Z</time>
      </trkpt>
      <trkpt lat="44.68758" lon="6.8608">
        <ele>2238.8</ele>
        <time>2026-03-25T12:09:35Z</time>
      </trkpt>
      <trkpt lat="44.68758" lon="6.8608">
        <ele>2238.8</ele>
        <time>2026-03-25T12:09:36Z</time>
      </trkpt>
      <trkpt lat="44.68758" lon="6.8608">
        <ele>2238.8</ele>
        <time>2026-03-25T12:09:37Z</time>
      </trkpt>
      <trkpt lat="44.68758" lon="6.86079">
        <ele>2238.8</ele>
        <time>2026-03-25T12:09:38Z</time>
      </trkpt>
      <trkpt lat="44.68758" lon="6.86079">
        <ele>2238.9</ele>
        <time>2026-03-25T12:09:39Z</time>
      </trkpt>
      <trkpt lat="44.68758" lon="6.86079">
        <ele>2238.9</ele>
        <time>2026-03-25T12:09:40Z</time>
      </trkpt>
      <trkpt lat="44.68758" lon="6.86079">
        <ele>2238.9</ele>
        <time>2026-03-25T12:09:41Z</time>
      </trkpt>
      <trkpt lat="44.68758" lon="6.86079">
        <ele>2238</ele>
        <time>2026-03-25T12:09:42Z</time>
      </trkpt>
      <trkpt lat="44.68757" lon="6.86078">
        <ele>2238</ele>
        <time>2026-03-25T12:09:43Z</time>
      </trkpt>
      <trkpt lat="44.68757" lon="6.86078">
        <ele>2237.9</ele>
        <time>2026-03-25T12:09:44Z</time>
      </trkpt>
      <trkpt lat="44.68757" lon="6.86078">
        <ele>2237.9</ele>
        <time>2026-03-25T12:09:45Z</time>
      </trkpt>
      <trkpt lat="44.68757" lon="6.86078">
        <ele>2237.9</ele>
        <time>2026-03-25T12:09:46Z</time>
      </trkpt>
      <trkpt lat="44.68757" lon="6.86078">
        <ele>2237.9</ele>
        <time>2026-03-25T12:09:47Z</time>
      </trkpt>
      <trkpt lat="44.68757" lon="6.86079">
        <ele>2238</ele>
        <time>2026-03-25T12:09:48Z</time>
      </trkpt>
      <trkpt lat="44.68757" lon="6.86079">
        <ele>2238</ele>
        <time>2026-03-25T12:09:49Z</time>
      </trkpt>
      <trkpt lat="44.68757" lon="6.86079">
        <ele>2238</ele>
        <time>2026-03-25T12:09:50Z</time>
      </trkpt>
      <trkpt lat="44.68757" lon="6.86079">
        <ele>2239</ele>
        <time>2026-03-25T12:09:51Z</time>
      </trkpt>
      <trkpt lat="44.68757" lon="6.86079">
        <ele>2239</ele>
        <time>2026-03-25T12:09:52Z</time>
      </trkpt>
      <trkpt lat="44.68757" lon="6.86079">
        <ele>2239</ele>
        <time>2026-03-25T12:09:53Z</time>
      </trkpt>
      <trkpt lat="44.68757" lon="6.86079">
        <ele>2239</ele>
        <time>2026-03-25T12:09:54Z</time>
      </trkpt>
      <trkpt lat="44.68757" lon="6.86079">
        <ele>2239.1</ele>
        <time>2026-03-25T12:09:55Z</time>
      </trkpt>
      <trkpt lat="44.68757" lon="6.86079">
        <ele>2239.1</ele>
        <time>2026-03-25T12:09:56Z</time>
      </trkpt>
      <trkpt lat="44.68757" lon="6.86079">
        <ele>2239.1</ele>
        <time>2026-03-25T12:09:57Z</time>
      </trkpt>
      <trkpt lat="44.68757" lon="6.86079">
        <ele>2239.1</ele>
        <time>2026-03-25T12:09:58Z</time>
      </trkpt>
      <trkpt lat="44.68757" lon="6.86079">
        <ele>2239.1</ele>
        <time>2026-03-25T12:09:59Z</time>
      </trkpt>
      <trkpt lat="44.68757" lon="6.86079">
        <ele>2239.2</ele>
        <time>2026-03-25T12:10:00Z</time>
      </trkpt>
      <trkpt lat="44.68757" lon="6.86079">
        <ele>2239.2</ele>
        <time>2026-03-25T12:10:01Z</time>
      </trkpt>
      <trkpt lat="44.68757" lon="6.86079">
        <ele>2239.2</ele>
        <time>2026-03-25T12:10:02Z</time>
      </trkpt>
      <trkpt lat="44.68757" lon="6.86079">
        <ele>2239.2</ele>
        <time>2026-03-25T12:10:03Z</time>
      </trkpt>
      <trkpt lat="44.68757" lon="6.86079">
        <ele>2239.3</ele>
        <time>2026-03-25T12:10:04Z</time>
      </trkpt>
      <trkpt lat="44.68757" lon="6.86079">
        <ele>2239.3</ele>
        <time>2026-03-25T12:10:05Z</time>
      </trkpt>
      <trkpt lat="44.68757" lon="6.86079">
        <ele>2239.3</ele>
        <time>2026-03-25T12:10:06Z</time>
      </trkpt>
      <trkpt lat="44.68757" lon="6.86079">
        <ele>2239.3</ele>
        <time>2026-03-25T12:10:07Z</time>
      </trkpt>
      <trkpt lat="44.68757" lon="6.86079">
        <ele>2239.3</ele>
        <time>2026-03-25T12:10:08Z</time>
      </trkpt>
      <trkpt lat="44.68757" lon="6.86079">
        <ele>2239.4</ele>
        <time>2026-03-25T12:10:09Z</time>
      </trkpt>
      <trkpt lat="44.68757" lon="6.86079">
        <ele>2239.4</ele>
        <time>2026-03-25T12:10:10Z</time>
      </trkpt>
      <trkpt lat="44.68757" lon="6.86079">
        <ele>2239.4</ele>
        <time>2026-03-25T12:10:11Z</time>
      </trkpt>
      <trkpt lat="44.68757" lon="6.86079">
        <ele>2239.4</ele>
        <time>2026-03-25T12:10:12Z</time>
      </trkpt>
      <trkpt lat="44.68757" lon="6.86079">
        <ele>2239.5</ele>
        <time>2026-03-25T12:10:13Z</time>
      </trkpt>
      <trkpt lat="44.68757" lon="6.86079">
        <ele>2239.5</ele>
        <time>2026-03-25T12:10:14Z</time>
      </trkpt>
      <trkpt lat="44.68757" lon="6.86079">
        <ele>2239.5</ele>
        <time>2026-03-25T12:10:15Z</time>
      </trkpt>
      <trkpt lat="44.68757" lon="6.86079">
        <ele>2239.5</ele>
        <time>2026-03-25T12:10:16Z</time>
      </trkpt>
      <trkpt lat="44.68757" lon="6.86079">
        <ele>2239.5</ele>
        <time>2026-03-25T12:10:17Z</time>
      </trkpt>
      <trkpt lat="44.68757" lon="6.86079">
        <ele>2239.6</ele>
        <time>2026-03-25T12:10:18Z</time>
      </trkpt>
      <trkpt lat="44.68757" lon="6.86079">
        <ele>2239.6</ele>
        <time>2026-03-25T12:10:19Z</time>
      </trkpt>
      <trkpt lat="44.68757" lon="6.86079">
        <ele>2239.6</ele>
        <time>2026-03-25T12:10:20Z</time>
      </trkpt>
      <trkpt lat="44.68757" lon="6.86079">
        <ele>2239.6</ele>
        <time>2026-03-25T12:10:21Z</time>
      </trkpt>
      <trkpt lat="44.68757" lon="6.86079">
        <ele>2239.7</ele>
        <time>2026-03-25T12:10:22Z</time>
      </trkpt>
      <trkpt lat="44.68757" lon="6.86079">
        <ele>2239.7</ele>
        <time>2026-03-25T12:10:23Z</time>
      </trkpt>
      <trkpt lat="44.68757" lon="6.86079">
        <ele>2239.7</ele>
        <time>2026-03-25T12:10:24Z</time>
      </trkpt>
      <trkpt lat="44.68757" lon="6.86079">
        <ele>2239.7</ele>
        <time>2026-03-25T12:10:25Z</time>
      </trkpt>
      <trkpt lat="44.68757" lon="6.86079">
        <ele>2239.7</ele>
        <time>2026-03-25T12:10:26Z</time>
      </trkpt>
      <trkpt lat="44.68757" lon="6.86079">
        <ele>2239.8</ele>
        <time>2026-03-25T12:10:27Z</time>
      </trkpt>
      <trkpt lat="44.68757" lon="6.86079">
        <ele>2239.8</ele>
        <time>2026-03-25T12:10:28Z</time>
      </trkpt>
      <trkpt lat="44.68757" lon="6.86079">
        <ele>2239.8</ele>
        <time>2026-03-25T12:10:29Z</time>
      </trkpt>
      <trkpt lat="44.68757" lon="6.86079">
        <ele>2239.8</ele>
        <time>2026-03-25T12:10:30Z</time>
      </trkpt>
      <trkpt lat="44.68757" lon="6.86079">
        <ele>2239.9</ele>
        <time>2026-03-25T12:10:31Z</time>
      </trkpt>
      <trkpt lat="44.68757" lon="6.86079">
        <ele>2239.9</ele>
        <time>2026-03-25T12:10:32Z</time>
      </trkpt>
      <trkpt lat="44.68757" lon="6.86079">
        <ele>2239.9</ele>
        <time>2026-03-25T12:10:33Z</time>
      </trkpt>
      <trkpt lat="44.68757" lon="6.86079">
        <ele>2239.9</ele>
        <time>2026-03-25T12:10:34Z</time>
      </trkpt>
      <trkpt lat="44.68757" lon="6.86079">
        <ele>2239.9</ele>
        <time>2026-03-25T12:10:35Z</time>
      </trkpt>
      <trkpt lat="44.68757" lon="6.86079">
        <ele>2240</ele>
        <time>2026-03-25T12:10:36Z</time>
      </trkpt>
      <trkpt lat="44.68757" lon="6.86079">
        <ele>2240</ele>
        <time>2026-03-25T12:10:37Z</time>
      </trkpt>
      <trkpt lat="44.68757" lon="6.86079">
        <ele>2240</ele>
        <time>2026-03-25T12:10:38Z</time>
      </trkpt>
      <trkpt lat="44.68757" lon="6.86079">
        <ele>2240</ele>
        <time>2026-03-25T12:10:39Z</time>
      </trkpt>
      <trkpt lat="44.68757" lon="6.86079">
        <ele>2240.1</ele>
        <time>2026-03-25T12:10:40Z</time>
      </trkpt>
      <trkpt lat="44.68757" lon="6.86079">
        <ele>2240.1</ele>
        <time>2026-03-25T12:10:41Z</time>
      </trkpt>
      <trkpt lat="44.68757" lon="6.86079">
        <ele>2240.1</ele>
        <time>2026-03-25T12:10:42Z</time>
      </trkpt>
      <trkpt lat="44.68757" lon="6.86079">
        <ele>2240.1</ele>
        <time>2026-03-25T12:10:43Z</time>
      </trkpt>
      <trkpt lat="44.68757" lon="6.86079">
        <ele>2240.1</ele>
        <time>2026-03-25T12:10:44Z</time>
      </trkpt>
      <trkpt lat="44.68757" lon="6.86079">
        <ele>2240.2</ele>
        <time>2026-03-25T12:10:45Z</time>
      </trkpt>
      <trkpt lat="44.68757" lon="6.86079">
        <ele>2240.2</ele>
        <time>2026-03-25T12:10:46Z</time>
      </trkpt>
      <trkpt lat="44.68757" lon="6.86079">
        <ele>2240.2</ele>
        <time>2026-03-25T12:10:47Z</time>
      </trkpt>
      <trkpt lat="44.68757" lon="6.86079">
        <ele>2240.2</ele>
        <time>2026-03-25T12:10:48Z</time>
      </trkpt>
      <trkpt lat="44.68757" lon="6.86079">
        <ele>2240.3</ele>
        <time>2026-03-25T12:10:49Z</time>
      </trkpt>
      <trkpt lat="44.68757" lon="6.86079">
        <ele>2240.3</ele>
        <time>2026-03-25T12:10:50Z</time>
      </trkpt>
      <trkpt lat="44.68757" lon="6.86079">
        <ele>2240.3</ele>
        <time>2026-03-25T12:10:51Z</time>
      </trkpt>
      <trkpt lat="44.68757" lon="6.86079">
        <ele>2240.3</ele>
        <time>2026-03-25T12:10:52Z</time>
      </trkpt>
      <trkpt lat="44.68757" lon="6.86079">
        <ele>2240.3</ele>
        <time>2026-03-25T12:10:53Z</time>
      </trkpt>
      <trkpt lat="44.68757" lon="6.86079">
        <ele>2240.4</ele>
        <time>2026-03-25T12:10:54Z</time>
      </trkpt>
      <trkpt lat="44.68757" lon="6.86079">
        <ele>2240.4</ele>
        <time>2026-03-25T12:10:55Z</time>
      </trkpt>
      <trkpt lat="44.68757" lon="6.86079">
        <ele>2240.4</ele>
        <time>2026-03-25T12:10:56Z</time>
      </trkpt>
      <trkpt lat="44.68757" lon="6.86079">
        <ele>2240.4</ele>
        <time>2026-03-25T12:10:57Z</time>
      </trkpt>
      <trkpt lat="44.68757" lon="6.86079">
        <ele>2240.5</ele>
        <time>2026-03-25T12:10:58Z</time>
      </trkpt>
      <trkpt lat="44.68757" lon="6.86079">
        <ele>2240.5</ele>
        <time>2026-03-25T12:10:59Z</time>
      </trkpt>
      <trkpt lat="44.68757" lon="6.86079">
        <ele>2240.5</ele>
        <time>2026-03-25T12:11:00Z</time>
      </trkpt>
      <trkpt lat="44.68757" lon="6.86079">
        <ele>2240.5</ele>
        <time>2026-03-25T12:11:01Z</time>
      </trkpt>
      <trkpt lat="44.68757" lon="6.86079">
        <ele>2240.5</ele>
        <time>2026-03-25T12:11:02Z</time>
      </trkpt>
      <trkpt lat="44.68757" lon="6.86079">
        <ele>2240.6</ele>
        <time>2026-03-25T12:11:03Z</time>
      </trkpt>
      <trkpt lat="44.68757" lon="6.86079">
        <ele>2240.6</ele>
        <time>2026-03-25T12:11:04Z</time>
      </trkpt>
      <trkpt lat="44.68757" lon="6.86079">
        <ele>2240.6</ele>
        <time>2026-03-25T12:11:05Z</time>
      </trkpt>
      <trkpt lat="44.68757" lon="6.86079">
        <ele>2240.6</ele>
        <time>2026-03-25T12:11:06Z</time>
      </trkpt>
      <trkpt lat="44.68757" lon="6.86079">
        <ele>2240.7</ele>
        <time>2026-03-25T12:11:07Z</time>
      </trkpt>
      <trkpt lat="44.68757" lon="6.86079">
        <ele>2240.7</ele>
        <time>2026-03-25T12:11:08Z</time>
      </trkpt>
      <trkpt lat="44.68757" lon="6.86079">
        <ele>2240.7</ele>
        <time>2026-03-25T12:11:09Z</time>
      </trkpt>
      <trkpt lat="44.68757" lon="6.86079">
        <ele>2240.7</ele>
        <time>2026-03-25T12:11:10Z</time>
      </trkpt>
      <trkpt lat="44.68757" lon="6.86079">
        <ele>2240.7</ele>
        <time>2026-03-25T12:11:11Z</time>
      </trkpt>
      <trkpt lat="44.68757" lon="6.86079">
        <ele>2240.8</ele>
        <time>2026-03-25T12:11:12Z</time>
      </trkpt>
      <trkpt lat="44.68757" lon="6.86079">
        <ele>2240.8</ele>
        <time>2026-03-25T12:11:13Z</time>
      </trkpt>
      <trkpt lat="44.68757" lon="6.86079">
        <ele>2240.8</ele>
        <time>2026-03-25T12:11:14Z</time>
      </trkpt>
      <trkpt lat="44.68757" lon="6.86079">
        <ele>2240.8</ele>
        <time>2026-03-25T12:11:15Z</time>
      </trkpt>
      <trkpt lat="44.68757" lon="6.86079">
        <ele>2240.9</ele>
        <time>2026-03-25T12:11:16Z</time>
      </trkpt>
      <trkpt lat="44.68757" lon="6.86079">
        <ele>2240.9</ele>
        <time>2026-03-25T12:11:17Z</time>
      </trkpt>
      <trkpt lat="44.68757" lon="6.86079">
        <ele>2240.9</ele>
        <time>2026-03-25T12:11:18Z</time>
      </trkpt>
      <trkpt lat="44.68757" lon="6.86079">
        <ele>2240.9</ele>
        <time>2026-03-25T12:11:19Z</time>
      </trkpt>
      <trkpt lat="44.68757" lon="6.86079">
        <ele>2240.9</ele>
        <time>2026-03-25T12:11:20Z</time>
      </trkpt>
      <trkpt lat="44.68757" lon="6.86079">
        <ele>2241</ele>
        <time>2026-03-25T12:11:21Z</time>
      </trkpt>
      <trkpt lat="44.68757" lon="6.86079">
        <ele>2241</ele>
        <time>2026-03-25T12:11:22Z</time>
      </trkpt>
      <trkpt lat="44.68757" lon="6.86079">
        <ele>2241</ele>
        <time>2026-03-25T12:11:23Z</time>
      </trkpt>
      <trkpt lat="44.68757" lon="6.86079">
        <ele>2241</ele>
        <time>2026-03-25T12:11:24Z</time>
      </trkpt>
      <trkpt lat="44.68757" lon="6.86079">
        <ele>2241</ele>
        <time>2026-03-25T12:11:25Z</time>
      </trkpt>
      <trkpt lat="44.68757" lon="6.86079">
        <ele>2241.1</ele>
        <time>2026-03-25T12:11:26Z</time>
      </trkpt>
      <trkpt lat="44.68757" lon="6.86079">
        <ele>2241.1</ele>
        <time>2026-03-25T12:11:27Z</time>
      </trkpt>
      <trkpt lat="44.68757" lon="6.86079">
        <ele>2241.1</ele>
        <time>2026-03-25T12:11:28Z</time>
      </trkpt>
      <trkpt lat="44.68757" lon="6.86079">
        <ele>2241.1</ele>
        <time>2026-03-25T12:11:29Z</time>
      </trkpt>
      <trkpt lat="44.68757" lon="6.86079">
        <ele>2241.2</ele>
        <time>2026-03-25T12:11:30Z</time>
      </trkpt>
      <trkpt lat="44.68757" lon="6.86079">
        <ele>2241.2</ele>
        <time>2026-03-25T12:11:31Z</time>
      </trkpt>
      <trkpt lat="44.68757" lon="6.86079">
        <ele>2241.2</ele>
        <time>2026-03-25T12:11:32Z</time>
      </trkpt>
      <trkpt lat="44.68757" lon="6.86079">
        <ele>2241.2</ele>
        <time>2026-03-25T12:11:33Z</time>
      </trkpt>
      <trkpt lat="44.68757" lon="6.86079">
        <ele>2241.2</ele>
        <time>2026-03-25T12:11:34Z</time>
      </trkpt>
      <trkpt lat="44.68757" lon="6.86079">
        <ele>2241.3</ele>
        <time>2026-03-25T12:11:35Z</time>
      </trkpt>
      <trkpt lat="44.68757" lon="6.86079">
        <ele>2241.3</ele>
        <time>2026-03-25T12:11:36Z</time>
      </trkpt>
      <trkpt lat="44.68757" lon="6.86079">
        <ele>2241.3</ele>
        <time>2026-03-25T12:11:37Z</time>
      </trkpt>
      <trkpt lat="44.68757" lon="6.86079">
        <ele>2241.3</ele>
        <time>2026-03-25T12:11:38Z</time>
      </trkpt>
      <trkpt lat="44.68757" lon="6.86079">
        <ele>2241.4</ele>
        <time>2026-03-25T12:11:39Z</time>
      </trkpt>
      <trkpt lat="44.68757" lon="6.86079">
        <ele>2241.4</ele>
        <time>2026-03-25T12:11:40Z</time>
      </trkpt>
      <trkpt lat="44.68757" lon="6.86079">
        <ele>2241.4</ele>
        <time>2026-03-25T12:11:41Z</time>
      </trkpt>
      <trkpt lat="44.68757" lon="6.86079">
        <ele>2241.4</ele>
        <time>2026-03-25T12:11:42Z</time>
      </trkpt>
      <trkpt lat="44.68757" lon="6.86079">
        <ele>2241.4</ele>
        <time>2026-03-25T12:11:43Z</time>
      </trkpt>
      <trkpt lat="44.68757" lon="6.86079">
        <ele>2241.5</ele>
        <time>2026-03-25T12:11:44Z</time>
      </trkpt>
      <trkpt lat="44.68757" lon="6.86079">
        <ele>2241.5</ele>
        <time>2026-03-25T12:11:45Z</time>
      </trkpt>
      <trkpt lat="44.68757" lon="6.86079">
        <ele>2241.5</ele>
        <time>2026-03-25T12:11:46Z</time>
      </trkpt>
      <trkpt lat="44.68757" lon="6.86079">
        <ele>2241.5</ele>
        <time>2026-03-25T12:11:47Z</time>
      </trkpt>
      <trkpt lat="44.68757" lon="6.86079">
        <ele>2241.6</ele>
        <time>2026-03-25T12:11:48Z</time>
      </trkpt>
      <trkpt lat="44.68757" lon="6.86079">
        <ele>2241.6</ele>
        <time>2026-03-25T12:11:49Z</time>
      </trkpt>
      <trkpt lat="44.68757" lon="6.86079">
        <ele>2241.6</ele>
        <time>2026-03-25T12:11:50Z</time>
      </trkpt>
      <trkpt lat="44.68757" lon="6.86079">
        <ele>2241.6</ele>
        <time>2026-03-25T12:11:51Z</time>
      </trkpt>
      <trkpt lat="44.68757" lon="6.86079">
        <ele>2241.6</ele>
        <time>2026-03-25T12:11:52Z</time>
      </trkpt>
      <trkpt lat="44.68757" lon="6.86079">
        <ele>2241.7</ele>
        <time>2026-03-25T12:11:53Z</time>
      </trkpt>
      <trkpt lat="44.68757" lon="6.86079">
        <ele>2241.7</ele>
        <time>2026-03-25T12:11:54Z</time>
      </trkpt>
      <trkpt lat="44.68757" lon="6.86079">
        <ele>2241.7</ele>
        <time>2026-03-25T12:11:55Z</time>
      </trkpt>
      <trkpt lat="44.68757" lon="6.86079">
        <ele>2241.7</ele>
        <time>2026-03-25T12:11:56Z</time>
      </trkpt>
      <trkpt lat="44.68757" lon="6.86079">
        <ele>2241.8</ele>
        <time>2026-03-25T12:11:57Z</time>
      </trkpt>
      <trkpt lat="44.68757" lon="6.86079">
        <ele>2241.8</ele>
        <time>2026-03-25T12:11:58Z</time>
      </trkpt>
      <trkpt lat="44.68757" lon="6.8608">
        <ele>2242</ele>
        <time>2026-03-25T12:11:59Z</time>
      </trkpt>
      <trkpt lat="44.68758" lon="6.8608">
        <ele>2242</ele>
        <time>2026-03-25T12:12:00Z</time>
      </trkpt>
      <trkpt lat="44.68758" lon="6.86081">
        <ele>2242</ele>
        <time>2026-03-25T12:12:01Z</time>
      </trkpt>
      <trkpt lat="44.68758" lon="6.86082">
        <ele>2242</ele>
        <time>2026-03-25T12:12:02Z</time>
      </trkpt>
      <trkpt lat="44.68759" lon="6.86083">
        <ele>2242</ele>
        <time>2026-03-25T12:12:03Z</time>
      </trkpt>
      <trkpt lat="44.68759" lon="6.86083">
        <ele>2242.1</ele>
        <time>2026-03-25T12:12:04Z</time>
      </trkpt>
      <trkpt lat="44.6876" lon="6.86084">
        <ele>2243</ele>
        <time>2026-03-25T12:12:05Z</time>
      </trkpt>
      <trkpt lat="44.6876" lon="6.86084">
        <ele>2243</ele>
        <time>2026-03-25T12:12:06Z</time>
      </trkpt>
      <trkpt lat="44.68761" lon="6.86085">
        <ele>2243.2</ele>
        <time>2026-03-25T12:12:07Z</time>
      </trkpt>
      <trkpt lat="44.68761" lon="6.86085">
        <ele>2243.2</ele>
        <time>2026-03-25T12:12:08Z</time>
      </trkpt>
      <trkpt lat="44.68761" lon="6.86085">
        <ele>2243.3</ele>
        <time>2026-03-25T12:12:09Z</time>
      </trkpt>
      <trkpt lat="44.68761" lon="6.86086">
        <ele>2243.3</ele>
        <time>2026-03-25T12:12:10Z</time>
      </trkpt>
      <trkpt lat="44.68761" lon="6.86086">
        <ele>2243.3</ele>
        <time>2026-03-25T12:12:11Z</time>
      </trkpt>
      <trkpt lat="44.68761" lon="6.86086">
        <ele>2243.3</ele>
        <time>2026-03-25T12:12:12Z</time>
      </trkpt>
      <trkpt lat="44.68761" lon="6.86087">
        <ele>2243.3</ele>
        <time>2026-03-25T12:12:13Z</time>
      </trkpt>
      <trkpt lat="44.68761" lon="6.86087">
        <ele>2243.4</ele>
        <time>2026-03-25T12:12:14Z</time>
      </trkpt>
      <trkpt lat="44.68761" lon="6.86088">
        <ele>2244.3</ele>
        <time>2026-03-25T12:12:15Z</time>
      </trkpt>
      <trkpt lat="44.68762" lon="6.86089">
        <ele>2244.3</ele>
        <time>2026-03-25T12:12:16Z</time>
      </trkpt>
      <trkpt lat="44.68762" lon="6.8609">
        <ele>2244.3</ele>
        <time>2026-03-25T12:12:17Z</time>
      </trkpt>
      <trkpt lat="44.68763" lon="6.86091">
        <ele>2244.3</ele>
        <time>2026-03-25T12:12:18Z</time>
      </trkpt>
      <trkpt lat="44.68763" lon="6.86092">
        <ele>2244.3</ele>
        <time>2026-03-25T12:12:19Z</time>
      </trkpt>
      <trkpt lat="44.68763" lon="6.86092">
        <ele>2244.4</ele>
        <time>2026-03-25T12:12:20Z</time>
      </trkpt>
      <trkpt lat="44.68763" lon="6.86092">
        <ele>2244.3</ele>
        <time>2026-03-25T12:12:21Z</time>
      </trkpt>
      <trkpt lat="44.68762" lon="6.86091">
        <ele>2244.2</ele>
        <time>2026-03-25T12:12:22Z</time>
      </trkpt>
      <trkpt lat="44.68762" lon="6.86091">
        <ele>2244.2</ele>
        <time>2026-03-25T12:12:23Z</time>
      </trkpt>
      <trkpt lat="44.68761" lon="6.86091">
        <ele>2244.1</ele>
        <time>2026-03-25T12:12:24Z</time>
      </trkpt>
      <trkpt lat="44.68761" lon="6.86091">
        <ele>2244.1</ele>
        <time>2026-03-25T12:12:25Z</time>
      </trkpt>
      <trkpt lat="44.68761" lon="6.86091">
        <ele>2244.1</ele>
        <time>2026-03-25T12:12:26Z</time>
      </trkpt>
      <trkpt lat="44.68762" lon="6.86091">
        <ele>2244</ele>
        <time>2026-03-25T12:12:27Z</time>
      </trkpt>
      <trkpt lat="44.68762" lon="6.86091">
        <ele>2244</ele>
        <time>2026-03-25T12:12:28Z</time>
      </trkpt>
      <trkpt lat="44.68762" lon="6.86091">
        <ele>2244</ele>
        <time>2026-03-25T12:12:29Z</time>
      </trkpt>
      <trkpt lat="44.68762" lon="6.86091">
        <ele>2244</ele>
        <time>2026-03-25T12:12:30Z</time>
      </trkpt>
      <trkpt lat="44.68762" lon="6.86091">
        <ele>2243.9</ele>
        <time>2026-03-25T12:12:31Z</time>
      </trkpt>
      <trkpt lat="44.68762" lon="6.86091">
        <ele>2243.9</ele>
        <time>2026-03-25T12:12:32Z</time>
      </trkpt>
      <trkpt lat="44.68762" lon="6.86091">
        <ele>2243.9</ele>
        <time>2026-03-25T12:12:33Z</time>
      </trkpt>
      <trkpt lat="44.68762" lon="6.86091">
        <ele>2243.9</ele>
        <time>2026-03-25T12:12:34Z</time>
      </trkpt>
      <trkpt lat="44.68762" lon="6.86091">
        <ele>2243.9</ele>
        <time>2026-03-25T12:12:35Z</time>
      </trkpt>
      <trkpt lat="44.68762" lon="6.86091">
        <ele>2243.9</ele>
        <time>2026-03-25T12:12:36Z</time>
      </trkpt>
      <trkpt lat="44.68762" lon="6.86091">
        <ele>2243.9</ele>
        <time>2026-03-25T12:12:37Z</time>
      </trkpt>
      <trkpt lat="44.68762" lon="6.86091">
        <ele>2243.9</ele>
        <time>2026-03-25T12:12:38Z</time>
      </trkpt>
      <trkpt lat="44.68762" lon="6.86091">
        <ele>2243.9</ele>
        <time>2026-03-25T12:12:39Z</time>
      </trkpt>
      <trkpt lat="44.68762" lon="6.86091">
        <ele>2243.9</ele>
        <time>2026-03-25T12:12:40Z</time>
      </trkpt>
      <trkpt lat="44.68762" lon="6.86091">
        <ele>2243.9</ele>
        <time>2026-03-25T12:12:41Z</time>
      </trkpt>
      <trkpt lat="44.68762" lon="6.86091">
        <ele>2243.9</ele>
        <time>2026-03-25T12:12:42Z</time>
      </trkpt>
      <trkpt lat="44.68762" lon="6.86091">
        <ele>2243.9</ele>
        <time>2026-03-25T12:12:43Z</time>
      </trkpt>
      <trkpt lat="44.68762" lon="6.86091">
        <ele>2243.9</ele>
        <time>2026-03-25T12:12:44Z</time>
      </trkpt>
      <trkpt lat="44.68762" lon="6.86091">
        <ele>2243.9</ele>
        <time>2026-03-25T12:12:45Z</time>
      </trkpt>
      <trkpt lat="44.68762" lon="6.86091">
        <ele>2243.9</ele>
        <time>2026-03-25T12:12:46Z</time>
      </trkpt>
      <trkpt lat="44.68762" lon="6.86091">
        <ele>2243.9</ele>
        <time>2026-03-25T12:12:47Z</time>
      </trkpt>
      <trkpt lat="44.68762" lon="6.86091">
        <ele>2243.9</ele>
        <time>2026-03-25T12:12:48Z</time>
      </trkpt>
      <trkpt lat="44.68762" lon="6.86091">
        <ele>2243.9</ele>
        <time>2026-03-25T12:12:49Z</time>
      </trkpt>
      <trkpt lat="44.68762" lon="6.86091">
        <ele>2243.9</ele>
        <time>2026-03-25T12:12:50Z</time>
      </trkpt>
      <trkpt lat="44.68762" lon="6.86091">
        <ele>2243.9</ele>
        <time>2026-03-25T12:12:51Z</time>
      </trkpt>
      <trkpt lat="44.68762" lon="6.86091">
        <ele>2243.9</ele>
        <time>2026-03-25T12:12:52Z</time>
      </trkpt>
      <trkpt lat="44.68762" lon="6.86091">
        <ele>2243.9</ele>
        <time>2026-03-25T12:12:53Z</time>
      </trkpt>
      <trkpt lat="44.68762" lon="6.86091">
        <ele>2243.9</ele>
        <time>2026-03-25T12:12:54Z</time>
      </trkpt>
      <trkpt lat="44.68762" lon="6.86091">
        <ele>2243.9</ele>
        <time>2026-03-25T12:12:55Z</time>
      </trkpt>
      <trkpt lat="44.68762" lon="6.86091">
        <ele>2243.9</ele>
        <time>2026-03-25T12:12:56Z</time>
      </trkpt>
      <trkpt lat="44.68762" lon="6.86091">
        <ele>2243.9</ele>
        <time>2026-03-25T12:12:57Z</time>
      </trkpt>
      <trkpt lat="44.68762" lon="6.86091">
        <ele>2243.9</ele>
        <time>2026-03-25T12:12:58Z</time>
      </trkpt>
      <trkpt lat="44.68762" lon="6.86091">
        <ele>2243.9</ele>
        <time>2026-03-25T12:12:59Z</time>
      </trkpt>
      <trkpt lat="44.68762" lon="6.86091">
        <ele>2243.9</ele>
        <time>2026-03-25T12:13:00Z</time>
      </trkpt>
      <trkpt lat="44.68762" lon="6.86091">
        <ele>2243.9</ele>
        <time>2026-03-25T12:13:01Z</time>
      </trkpt>
      <trkpt lat="44.68762" lon="6.86091">
        <ele>2243.9</ele>
        <time>2026-03-25T12:13:02Z</time>
      </trkpt>
      <trkpt lat="44.68762" lon="6.86091">
        <ele>2243.9</ele>
        <time>2026-03-25T12:13:03Z</time>
      </trkpt>
      <trkpt lat="44.68762" lon="6.86091">
        <ele>2243.9</ele>
        <time>2026-03-25T12:13:04Z</time>
      </trkpt>
      <trkpt lat="44.68762" lon="6.86091">
        <ele>2243.9</ele>
        <time>2026-03-25T12:13:05Z</time>
      </trkpt>
      <trkpt lat="44.68762" lon="6.86091">
        <ele>2243.9</ele>
        <time>2026-03-25T12:13:06Z</time>
      </trkpt>
      <trkpt lat="44.68762" lon="6.86091">
        <ele>2243.9</ele>
        <time>2026-03-25T12:13:07Z</time>
      </trkpt>
      <trkpt lat="44.68762" lon="6.86091">
        <ele>2243.9</ele>
        <time>2026-03-25T12:13:08Z</time>
      </trkpt>
      <trkpt lat="44.68762" lon="6.86091">
        <ele>2243.9</ele>
        <time>2026-03-25T12:13:09Z</time>
      </trkpt>
      <trkpt lat="44.68762" lon="6.86091">
        <ele>2243.9</ele>
        <time>2026-03-25T12:13:10Z</time>
      </trkpt>
      <trkpt lat="44.68762" lon="6.86091">
        <ele>2243.9</ele>
        <time>2026-03-25T12:13:11Z</time>
      </trkpt>
      <trkpt lat="44.68762" lon="6.86091">
        <ele>2243.9</ele>
        <time>2026-03-25T12:13:12Z</time>
      </trkpt>
      <trkpt lat="44.68762" lon="6.86091">
        <ele>2243.9</ele>
        <time>2026-03-25T12:13:13Z</time>
      </trkpt>
      <trkpt lat="44.68762" lon="6.86091">
        <ele>2243.9</ele>
        <time>2026-03-25T12:13:14Z</time>
      </trkpt>
      <trkpt lat="44.68762" lon="6.86091">
        <ele>2243.9</ele>
        <time>2026-03-25T12:13:15Z</time>
      </trkpt>
      <trkpt lat="44.68762" lon="6.86091">
        <ele>2243.9</ele>
        <time>2026-03-25T12:13:16Z</time>
      </trkpt>
      <trkpt lat="44.68762" lon="6.86091">
        <ele>2243.9</ele>
        <time>2026-03-25T12:13:17Z</time>
      </trkpt>
      <trkpt lat="44.68762" lon="6.86091">
        <ele>2243.9</ele>
        <time>2026-03-25T12:13:18Z</time>
      </trkpt>
      <trkpt lat="44.68762" lon="6.86091">
        <ele>2243.9</ele>
        <time>2026-03-25T12:13:19Z</time>
      </trkpt>
      <trkpt lat="44.68762" lon="6.86091">
        <ele>2243.9</ele>
        <time>2026-03-25T12:13:20Z</time>
      </trkpt>
      <trkpt lat="44.68762" lon="6.86091">
        <ele>2243.9</ele>
        <time>2026-03-25T12:13:21Z</time>
      </trkpt>
      <trkpt lat="44.68762" lon="6.86091">
        <ele>2243.9</ele>
        <time>2026-03-25T12:13:22Z</time>
      </trkpt>
      <trkpt lat="44.68762" lon="6.86091">
        <ele>2243.9</ele>
        <time>2026-03-25T12:13:23Z</time>
      </trkpt>
      <trkpt lat="44.68762" lon="6.86091">
        <ele>2243.9</ele>
        <time>2026-03-25T12:13:24Z</time>
      </trkpt>
      <trkpt lat="44.68762" lon="6.86091">
        <ele>2243.9</ele>
        <time>2026-03-25T12:13:25Z</time>
      </trkpt>
      <trkpt lat="44.68762" lon="6.86091">
        <ele>2243.9</ele>
        <time>2026-03-25T12:13:26Z</time>
      </trkpt>
      <trkpt lat="44.68762" lon="6.86091">
        <ele>2243.9</ele>
        <time>2026-03-25T12:13:27Z</time>
      </trkpt>
      <trkpt lat="44.68762" lon="6.86091">
        <ele>2243.9</ele>
        <time>2026-03-25T12:13:28Z</time>
      </trkpt>
      <trkpt lat="44.68762" lon="6.86091">
        <ele>2243.9</ele>
        <time>2026-03-25T12:13:29Z</time>
      </trkpt>
      <trkpt lat="44.68762" lon="6.86091">
        <ele>2243.9</ele>
        <time>2026-03-25T12:13:30Z</time>
      </trkpt>
      <trkpt lat="44.68762" lon="6.86091">
        <ele>2243.9</ele>
        <time>2026-03-25T12:13:31Z</time>
      </trkpt>
      <trkpt lat="44.68762" lon="6.86091">
        <ele>2243.9</ele>
        <time>2026-03-25T12:13:32Z</time>
      </trkpt>
      <trkpt lat="44.68762" lon="6.86091">
        <ele>2243.9</ele>
        <time>2026-03-25T12:13:33Z</time>
      </trkpt>
      <trkpt lat="44.68762" lon="6.86091">
        <ele>2243.9</ele>
        <time>2026-03-25T12:13:34Z</time>
      </trkpt>
      <trkpt lat="44.68762" lon="6.86091">
        <ele>2243.9</ele>
        <time>2026-03-25T12:13:35Z</time>
      </trkpt>
      <trkpt lat="44.68762" lon="6.86091">
        <ele>2243.9</ele>
        <time>2026-03-25T12:13:36Z</time>
      </trkpt>
      <trkpt lat="44.68762" lon="6.86091">
        <ele>2243.9</ele>
        <time>2026-03-25T12:13:37Z</time>
      </trkpt>
      <trkpt lat="44.68762" lon="6.86091">
        <ele>2243.9</ele>
        <time>2026-03-25T12:13:38Z</time>
      </trkpt>
      <trkpt lat="44.68762" lon="6.86091">
        <ele>2243.9</ele>
        <time>2026-03-25T12:13:39Z</time>
      </trkpt>
      <trkpt lat="44.68762" lon="6.86091">
        <ele>2243.8</ele>
        <time>2026-03-25T12:13:40Z</time>
      </trkpt>
      <trkpt lat="44.68762" lon="6.8609">
        <ele>2243.7</ele>
        <time>2026-03-25T12:13:41Z</time>
      </trkpt>
      <trkpt lat="44.68762" lon="6.8609">
        <ele>2243.7</ele>
        <time>2026-03-25T12:13:42Z</time>
      </trkpt>
      <trkpt lat="44.68762" lon="6.8609">
        <ele>2243.7</ele>
        <time>2026-03-25T12:13:43Z</time>
      </trkpt>
      <trkpt lat="44.68762" lon="6.8609">
        <ele>2243.6</ele>
        <time>2026-03-25T12:13:44Z</time>
      </trkpt>
      <trkpt lat="44.68761" lon="6.8609">
        <ele>2243.6</ele>
        <time>2026-03-25T12:13:45Z</time>
      </trkpt>
      <trkpt lat="44.68761" lon="6.8609">
        <ele>2243.5</ele>
        <time>2026-03-25T12:13:46Z</time>
      </trkpt>
      <trkpt lat="44.68761" lon="6.86089">
        <ele>2243.5</ele>
        <time>2026-03-25T12:13:47Z</time>
      </trkpt>
      <trkpt lat="44.68761" lon="6.86089">
        <ele>2243.5</ele>
        <time>2026-03-25T12:13:48Z</time>
      </trkpt>
      <trkpt lat="44.68761" lon="6.86089">
        <ele>2243.5</ele>
        <time>2026-03-25T12:13:49Z</time>
      </trkpt>
      <trkpt lat="44.68761" lon="6.86089">
        <ele>2243.5</ele>
        <time>2026-03-25T12:13:50Z</time>
      </trkpt>
      <trkpt lat="44.68761" lon="6.86089">
        <ele>2243.5</ele>
        <time>2026-03-25T12:13:51Z</time>
      </trkpt>
      <trkpt lat="44.68761" lon="6.86089">
        <ele>2243.5</ele>
        <time>2026-03-25T12:13:52Z</time>
      </trkpt>
      <trkpt lat="44.68761" lon="6.86089">
        <ele>2243.4</ele>
        <time>2026-03-25T12:13:53Z</time>
      </trkpt>
      <trkpt lat="44.68761" lon="6.86089">
        <ele>2243.4</ele>
        <time>2026-03-25T12:13:54Z</time>
      </trkpt>
      <trkpt lat="44.68761" lon="6.86089">
        <ele>2243.4</ele>
        <time>2026-03-25T12:13:55Z</time>
      </trkpt>
      <trkpt lat="44.68761" lon="6.86089">
        <ele>2243.4</ele>
        <time>2026-03-25T12:13:56Z</time>
      </trkpt>
      <trkpt lat="44.68761" lon="6.86089">
        <ele>2243.4</ele>
        <time>2026-03-25T12:13:57Z</time>
      </trkpt>
      <trkpt lat="44.68761" lon="6.86089">
        <ele>2243.4</ele>
        <time>2026-03-25T12:13:58Z</time>
      </trkpt>
      <trkpt lat="44.68761" lon="6.86089">
        <ele>2243.4</ele>
        <time>2026-03-25T12:13:59Z</time>
      </trkpt>
      <trkpt lat="44.68761" lon="6.86089">
        <ele>2243.4</ele>
        <time>2026-03-25T12:14:00Z</time>
      </trkpt>
      <trkpt lat="44.68761" lon="6.86089">
        <ele>2243.4</ele>
        <time>2026-03-25T12:14:01Z</time>
      </trkpt>
      <trkpt lat="44.68761" lon="6.86089">
        <ele>2243.4</ele>
        <time>2026-03-25T12:14:02Z</time>
      </trkpt>
      <trkpt lat="44.68761" lon="6.86089">
        <ele>2243.4</ele>
        <time>2026-03-25T12:14:03Z</time>
      </trkpt>
      <trkpt lat="44.68761" lon="6.86089">
        <ele>2243.4</ele>
        <time>2026-03-25T12:14:04Z</time>
      </trkpt>
      <trkpt lat="44.68761" lon="6.86089">
        <ele>2243.4</ele>
        <time>2026-03-25T12:14:05Z</time>
      </trkpt>
      <trkpt lat="44.68761" lon="6.86089">
        <ele>2243.4</ele>
        <time>2026-03-25T12:14:06Z</time>
      </trkpt>
      <trkpt lat="44.68761" lon="6.86089">
        <ele>2243.4</ele>
        <time>2026-03-25T12:14:07Z</time>
      </trkpt>
      <trkpt lat="44.68761" lon="6.86089">
        <ele>2243.4</ele>
        <time>2026-03-25T12:14:08Z</time>
      </trkpt>
      <trkpt lat="44.68761" lon="6.86089">
        <ele>2243.4</ele>
        <time>2026-03-25T12:14:09Z</time>
      </trkpt>
      <trkpt lat="44.68761" lon="6.86089">
        <ele>2243.4</ele>
        <time>2026-03-25T12:14:10Z</time>
      </trkpt>
      <trkpt lat="44.68761" lon="6.86089">
        <ele>2243.4</ele>
        <time>2026-03-25T12:14:11Z</time>
      </trkpt>
      <trkpt lat="44.68761" lon="6.86089">
        <ele>2243.4</ele>
        <time>2026-03-25T12:14:12Z</time>
      </trkpt>
      <trkpt lat="44.68761" lon="6.86089">
        <ele>2243.4</ele>
        <time>2026-03-25T12:14:13Z</time>
      </trkpt>
      <trkpt lat="44.68761" lon="6.86089">
        <ele>2243.4</ele>
        <time>2026-03-25T12:14:14Z</time>
      </trkpt>
      <trkpt lat="44.68761" lon="6.86089">
        <ele>2243.4</ele>
        <time>2026-03-25T12:14:15Z</time>
      </trkpt>
      <trkpt lat="44.68761" lon="6.86089">
        <ele>2243.4</ele>
        <time>2026-03-25T12:14:16Z</time>
      </trkpt>
      <trkpt lat="44.68761" lon="6.86089">
        <ele>2243.4</ele>
        <time>2026-03-25T12:14:17Z</time>
      </trkpt>
      <trkpt lat="44.68761" lon="6.86089">
        <ele>2243.4</ele>
        <time>2026-03-25T12:14:18Z</time>
      </trkpt>
      <trkpt lat="44.68761" lon="6.86089">
        <ele>2243.4</ele>
        <time>2026-03-25T12:14:19Z</time>
      </trkpt>
      <trkpt lat="44.68761" lon="6.86089">
        <ele>2243.4</ele>
        <time>2026-03-25T12:14:20Z</time>
      </trkpt>
      <trkpt lat="44.68761" lon="6.86089">
        <ele>2243.4</ele>
        <time>2026-03-25T12:14:21Z</time>
      </trkpt>
      <trkpt lat="44.68761" lon="6.86089">
        <ele>2243.4</ele>
        <time>2026-03-25T12:14:22Z</time>
      </trkpt>
      <trkpt lat="44.68761" lon="6.86089">
        <ele>2243.4</ele>
        <time>2026-03-25T12:14:23Z</time>
      </trkpt>
      <trkpt lat="44.68761" lon="6.86089">
        <ele>2243.4</ele>
        <time>2026-03-25T12:14:24Z</time>
      </trkpt>
      <trkpt lat="44.68761" lon="6.86089">
        <ele>2243.4</ele>
        <time>2026-03-25T12:14:25Z</time>
      </trkpt>
      <trkpt lat="44.68761" lon="6.86089">
        <ele>2243.4</ele>
        <time>2026-03-25T12:14:26Z</time>
      </trkpt>
      <trkpt lat="44.68761" lon="6.86089">
        <ele>2243.4</ele>
        <time>2026-03-25T12:14:27Z</time>
      </trkpt>
      <trkpt lat="44.68761" lon="6.86089">
        <ele>2243.4</ele>
        <time>2026-03-25T12:14:28Z</time>
      </trkpt>
      <trkpt lat="44.68761" lon="6.86089">
        <ele>2243.4</ele>
        <time>2026-03-25T12:14:29Z</time>
      </trkpt>
      <trkpt lat="44.68761" lon="6.86089">
        <ele>2243.4</ele>
        <time>2026-03-25T12:14:30Z</time>
      </trkpt>
      <trkpt lat="44.68761" lon="6.86089">
        <ele>2243.4</ele>
        <time>2026-03-25T12:14:31Z</time>
      </trkpt>
      <trkpt lat="44.68761" lon="6.86089">
        <ele>2243.4</ele>
        <time>2026-03-25T12:14:32Z</time>
      </trkpt>
      <trkpt lat="44.68761" lon="6.86089">
        <ele>2243.4</ele>
        <time>2026-03-25T12:14:33Z</time>
      </trkpt>
      <trkpt lat="44.68761" lon="6.86089">
        <ele>2243.4</ele>
        <time>2026-03-25T12:14:34Z</time>
      </trkpt>
      <trkpt lat="44.68761" lon="6.86089">
        <ele>2243.4</ele>
        <time>2026-03-25T12:14:35Z</time>
      </trkpt>
      <trkpt lat="44.68761" lon="6.86089">
        <ele>2243.4</ele>
        <time>2026-03-25T12:14:36Z</time>
      </trkpt>
      <trkpt lat="44.68761" lon="6.86089">
        <ele>2243.4</ele>
        <time>2026-03-25T12:14:37Z</time>
      </trkpt>
      <trkpt lat="44.68761" lon="6.86089">
        <ele>2243.4</ele>
        <time>2026-03-25T12:14:38Z</time>
      </trkpt>
      <trkpt lat="44.68761" lon="6.86089">
        <ele>2243.4</ele>
        <time>2026-03-25T12:14:39Z</time>
      </trkpt>
      <trkpt lat="44.68761" lon="6.86089">
        <ele>2243.4</ele>
        <time>2026-03-25T12:14:40Z</time>
      </trkpt>
      <trkpt lat="44.68761" lon="6.86089">
        <ele>2243.4</ele>
        <time>2026-03-25T12:14:41Z</time>
      </trkpt>
      <trkpt lat="44.68761" lon="6.86089">
        <ele>2243.4</ele>
        <time>2026-03-25T12:14:42Z</time>
      </trkpt>
      <trkpt lat="44.68761" lon="6.86089">
        <ele>2243.4</ele>
        <time>2026-03-25T12:14:43Z</time>
      </trkpt>
      <trkpt lat="44.68761" lon="6.86089">
        <ele>2243.4</ele>
        <time>2026-03-25T12:14:44Z</time>
      </trkpt>
      <trkpt lat="44.68761" lon="6.86089">
        <ele>2243.4</ele>
        <time>2026-03-25T12:14:45Z</time>
      </trkpt>
      <trkpt lat="44.68761" lon="6.86089">
        <ele>2243.4</ele>
        <time>2026-03-25T12:14:46Z</time>
      </trkpt>
      <trkpt lat="44.68761" lon="6.86089">
        <ele>2243.4</ele>
        <time>2026-03-25T12:14:47Z</time>
      </trkpt>
      <trkpt lat="44.68761" lon="6.86089">
        <ele>2243.4</ele>
        <time>2026-03-25T12:14:48Z</time>
      </trkpt>
      <trkpt lat="44.68761" lon="6.86089">
        <ele>2243.4</ele>
        <time>2026-03-25T12:14:49Z</time>
      </trkpt>
      <trkpt lat="44.68761" lon="6.86089">
        <ele>2243.4</ele>
        <time>2026-03-25T12:14:50Z</time>
      </trkpt>
      <trkpt lat="44.68761" lon="6.86089">
        <ele>2243.4</ele>
        <time>2026-03-25T12:14:51Z</time>
      </trkpt>
      <trkpt lat="44.68761" lon="6.86089">
        <ele>2243.4</ele>
        <time>2026-03-25T12:14:52Z</time>
      </trkpt>
      <trkpt lat="44.68761" lon="6.86089">
        <ele>2243.4</ele>
        <time>2026-03-25T12:14:53Z</time>
      </trkpt>
      <trkpt lat="44.68761" lon="6.86089">
        <ele>2243.4</ele>
        <time>2026-03-25T12:14:54Z</time>
      </trkpt>
      <trkpt lat="44.68761" lon="6.86089">
        <ele>2243.4</ele>
        <time>2026-03-25T12:14:55Z</time>
      </trkpt>
      <trkpt lat="44.68761" lon="6.86089">
        <ele>2243.4</ele>
        <time>2026-03-25T12:14:56Z</time>
      </trkpt>
      <trkpt lat="44.68761" lon="6.86089">
        <ele>2243.4</ele>
        <time>2026-03-25T12:14:57Z</time>
      </trkpt>
      <trkpt lat="44.68761" lon="6.86089">
        <ele>2243.4</ele>
        <time>2026-03-25T12:14:58Z</time>
      </trkpt>
      <trkpt lat="44.68761" lon="6.86089">
        <ele>2243.4</ele>
        <time>2026-03-25T12:14:59Z</time>
      </trkpt>
      <trkpt lat="44.68761" lon="6.86089">
        <ele>2243.4</ele>
        <time>2026-03-25T12:15:00Z</time>
      </trkpt>
      <trkpt lat="44.68761" lon="6.86089">
        <ele>2243.4</ele>
        <time>2026-03-25T12:15:01Z</time>
      </trkpt>
      <trkpt lat="44.68761" lon="6.86089">
        <ele>2243.4</ele>
        <time>2026-03-25T12:15:02Z</time>
      </trkpt>
      <trkpt lat="44.68761" lon="6.86089">
        <ele>2243.4</ele>
        <time>2026-03-25T12:15:03Z</time>
      </trkpt>
      <trkpt lat="44.68761" lon="6.86089">
        <ele>2243.4</ele>
        <time>2026-03-25T12:15:04Z</time>
      </trkpt>
      <trkpt lat="44.68761" lon="6.86089">
        <ele>2243.4</ele>
        <time>2026-03-25T12:15:05Z</time>
      </trkpt>
      <trkpt lat="44.68761" lon="6.86089">
        <ele>2243.4</ele>
        <time>2026-03-25T12:15:06Z</time>
      </trkpt>
      <trkpt lat="44.68761" lon="6.86089">
        <ele>2243.4</ele>
        <time>2026-03-25T12:15:07Z</time>
      </trkpt>
      <trkpt lat="44.68761" lon="6.86089">
        <ele>2243.4</ele>
        <time>2026-03-25T12:15:08Z</time>
      </trkpt>
      <trkpt lat="44.68761" lon="6.86089">
        <ele>2243.4</ele>
        <time>2026-03-25T12:15:09Z</time>
      </trkpt>
      <trkpt lat="44.68761" lon="6.86089">
        <ele>2243.4</ele>
        <time>2026-03-25T12:15:10Z</time>
      </trkpt>
      <trkpt lat="44.68761" lon="6.86089">
        <ele>2243.4</ele>
        <time>2026-03-25T12:15:11Z</time>
      </trkpt>
      <trkpt lat="44.68761" lon="6.86089">
        <ele>2243.4</ele>
        <time>2026-03-25T12:15:12Z</time>
      </trkpt>
      <trkpt lat="44.68761" lon="6.86089">
        <ele>2243.4</ele>
        <time>2026-03-25T12:15:13Z</time>
      </trkpt>
      <trkpt lat="44.68761" lon="6.86089">
        <ele>2243.4</ele>
        <time>2026-03-25T12:15:14Z</time>
      </trkpt>
      <trkpt lat="44.68761" lon="6.86089">
        <ele>2243.4</ele>
        <time>2026-03-25T12:15:15Z</time>
      </trkpt>
      <trkpt lat="44.68761" lon="6.86089">
        <ele>2243.4</ele>
        <time>2026-03-25T12:15:16Z</time>
      </trkpt>
      <trkpt lat="44.68761" lon="6.86089">
        <ele>2243.4</ele>
        <time>2026-03-25T12:15:17Z</time>
      </trkpt>
      <trkpt lat="44.68761" lon="6.86089">
        <ele>2243.4</ele>
        <time>2026-03-25T12:15:18Z</time>
      </trkpt>
      <trkpt lat="44.68761" lon="6.86089">
        <ele>2243.4</ele>
        <time>2026-03-25T12:15:19Z</time>
      </trkpt>
      <trkpt lat="44.68761" lon="6.86089">
        <ele>2243.4</ele>
        <time>2026-03-25T12:15:20Z</time>
      </trkpt>
      <trkpt lat="44.68761" lon="6.86089">
        <ele>2243.4</ele>
        <time>2026-03-25T12:15:21Z</time>
      </trkpt>
      <trkpt lat="44.68761" lon="6.86089">
        <ele>2243.4</ele>
        <time>2026-03-25T12:15:22Z</time>
      </trkpt>
      <trkpt lat="44.68761" lon="6.86089">
        <ele>2243.4</ele>
        <time>2026-03-25T12:15:23Z</time>
      </trkpt>
      <trkpt lat="44.68761" lon="6.86089">
        <ele>2243.4</ele>
        <time>2026-03-25T12:15:24Z</time>
      </trkpt>
      <trkpt lat="44.68761" lon="6.86089">
        <ele>2243.4</ele>
        <time>2026-03-25T12:15:25Z</time>
      </trkpt>
      <trkpt lat="44.68761" lon="6.86089">
        <ele>2243.4</ele>
        <time>2026-03-25T12:15:26Z</time>
      </trkpt>
      <trkpt lat="44.68761" lon="6.86089">
        <ele>2243.4</ele>
        <time>2026-03-25T12:15:27Z</time>
      </trkpt>
      <trkpt lat="44.68761" lon="6.86089">
        <ele>2243.4</ele>
        <time>2026-03-25T12:15:28Z</time>
      </trkpt>
      <trkpt lat="44.68761" lon="6.86089">
        <ele>2243.4</ele>
        <time>2026-03-25T12:15:29Z</time>
      </trkpt>
      <trkpt lat="44.68761" lon="6.86089">
        <ele>2243.4</ele>
        <time>2026-03-25T12:15:30Z</time>
      </trkpt>
      <trkpt lat="44.68761" lon="6.86089">
        <ele>2243.4</ele>
        <time>2026-03-25T12:15:31Z</time>
      </trkpt>
      <trkpt lat="44.68761" lon="6.86089">
        <ele>2243.4</ele>
        <time>2026-03-25T12:15:32Z</time>
      </trkpt>
      <trkpt lat="44.68761" lon="6.86089">
        <ele>2243.4</ele>
        <time>2026-03-25T12:15:33Z</time>
      </trkpt>
      <trkpt lat="44.68761" lon="6.86089">
        <ele>2243.4</ele>
        <time>2026-03-25T12:15:34Z</time>
      </trkpt>
      <trkpt lat="44.68761" lon="6.86089">
        <ele>2243.4</ele>
        <time>2026-03-25T12:15:35Z</time>
      </trkpt>
      <trkpt lat="44.68761" lon="6.86089">
        <ele>2243.4</ele>
        <time>2026-03-25T12:15:36Z</time>
      </trkpt>
      <trkpt lat="44.68761" lon="6.86089">
        <ele>2243.4</ele>
        <time>2026-03-25T12:15:37Z</time>
      </trkpt>
      <trkpt lat="44.68761" lon="6.86089">
        <ele>2243.4</ele>
        <time>2026-03-25T12:15:38Z</time>
      </trkpt>
      <trkpt lat="44.68761" lon="6.86089">
        <ele>2243.4</ele>
        <time>2026-03-25T12:15:39Z</time>
      </trkpt>
      <trkpt lat="44.68761" lon="6.86089">
        <ele>2243.4</ele>
        <time>2026-03-25T12:15:40Z</time>
      </trkpt>
      <trkpt lat="44.68761" lon="6.86089">
        <ele>2243.4</ele>
        <time>2026-03-25T12:15:41Z</time>
      </trkpt>
      <trkpt lat="44.68761" lon="6.86089">
        <ele>2243.4</ele>
        <time>2026-03-25T12:15:42Z</time>
      </trkpt>
      <trkpt lat="44.68761" lon="6.86089">
        <ele>2243.4</ele>
        <time>2026-03-25T12:15:43Z</time>
      </trkpt>
      <trkpt lat="44.68761" lon="6.86089">
        <ele>2243.4</ele>
        <time>2026-03-25T12:15:44Z</time>
      </trkpt>
      <trkpt lat="44.68761" lon="6.86089">
        <ele>2243.4</ele>
        <time>2026-03-25T12:15:45Z</time>
      </trkpt>
      <trkpt lat="44.68761" lon="6.86089">
        <ele>2243.4</ele>
        <time>2026-03-25T12:15:46Z</time>
      </trkpt>
      <trkpt lat="44.68761" lon="6.86089">
        <ele>2243.4</ele>
        <time>2026-03-25T12:15:47Z</time>
      </trkpt>
      <trkpt lat="44.68761" lon="6.86089">
        <ele>2243.4</ele>
        <time>2026-03-25T12:15:48Z</time>
      </trkpt>
      <trkpt lat="44.68761" lon="6.86089">
        <ele>2243.4</ele>
        <time>2026-03-25T12:15:49Z</time>
      </trkpt>
      <trkpt lat="44.68761" lon="6.86089">
        <ele>2243.4</ele>
        <time>2026-03-25T12:15:50Z</time>
      </trkpt>
      <trkpt lat="44.68761" lon="6.86089">
        <ele>2243.4</ele>
        <time>2026-03-25T12:15:51Z</time>
      </trkpt>
      <trkpt lat="44.68761" lon="6.8609">
        <ele>2243.4</ele>
        <time>2026-03-25T12:15:52Z</time>
      </trkpt>
      <trkpt lat="44.68761" lon="6.8609">
        <ele>2243.4</ele>
        <time>2026-03-25T12:15:53Z</time>
      </trkpt>
      <trkpt lat="44.68761" lon="6.8609">
        <ele>2243.4</ele>
        <time>2026-03-25T12:15:54Z</time>
      </trkpt>
      <trkpt lat="44.68761" lon="6.8609">
        <ele>2243.4</ele>
        <time>2026-03-25T12:15:55Z</time>
      </trkpt>
      <trkpt lat="44.68761" lon="6.8609">
        <ele>2243.4</ele>
        <time>2026-03-25T12:15:56Z</time>
      </trkpt>
      <trkpt lat="44.68761" lon="6.8609">
        <ele>2243.4</ele>
        <time>2026-03-25T12:15:57Z</time>
      </trkpt>
      <trkpt lat="44.68761" lon="6.8609">
        <ele>2243.4</ele>
        <time>2026-03-25T12:15:58Z</time>
      </trkpt>
      <trkpt lat="44.68761" lon="6.8609">
        <ele>2243.4</ele>
        <time>2026-03-25T12:15:59Z</time>
      </trkpt>
      <trkpt lat="44.68761" lon="6.8609">
        <ele>2243.4</ele>
        <time>2026-03-25T12:16:00Z</time>
      </trkpt>
      <trkpt lat="44.68761" lon="6.8609">
        <ele>2243.4</ele>
        <time>2026-03-25T12:16:01Z</time>
      </trkpt>
      <trkpt lat="44.68761" lon="6.8609">
        <ele>2243.4</ele>
        <time>2026-03-25T12:16:02Z</time>
      </trkpt>
      <trkpt lat="44.68761" lon="6.8609">
        <ele>2243.4</ele>
        <time>2026-03-25T12:16:03Z</time>
      </trkpt>
      <trkpt lat="44.68761" lon="6.8609">
        <ele>2243.4</ele>
        <time>2026-03-25T12:16:04Z</time>
      </trkpt>
      <trkpt lat="44.68761" lon="6.8609">
        <ele>2243.4</ele>
        <time>2026-03-25T12:16:05Z</time>
      </trkpt>
      <trkpt lat="44.68761" lon="6.8609">
        <ele>2243.4</ele>
        <time>2026-03-25T12:16:06Z</time>
      </trkpt>
      <trkpt lat="44.68761" lon="6.8609">
        <ele>2243.4</ele>
        <time>2026-03-25T12:16:07Z</time>
      </trkpt>
      <trkpt lat="44.68761" lon="6.8609">
        <ele>2243.4</ele>
        <time>2026-03-25T12:16:08Z</time>
      </trkpt>
      <trkpt lat="44.68761" lon="6.8609">
        <ele>2243.4</ele>
        <time>2026-03-25T12:16:09Z</time>
      </trkpt>
      <trkpt lat="44.68761" lon="6.8609">
        <ele>2243.4</ele>
        <time>2026-03-25T12:16:10Z</time>
      </trkpt>
      <trkpt lat="44.68761" lon="6.8609">
        <ele>2243.4</ele>
        <time>2026-03-25T12:16:11Z</time>
      </trkpt>
      <trkpt lat="44.68761" lon="6.8609">
        <ele>2243.4</ele>
        <time>2026-03-25T12:16:12Z</time>
      </trkpt>
      <trkpt lat="44.68761" lon="6.8609">
        <ele>2243.4</ele>
        <time>2026-03-25T12:16:13Z</time>
      </trkpt>
      <trkpt lat="44.68761" lon="6.8609">
        <ele>2243.4</ele>
        <time>2026-03-25T12:16:14Z</time>
      </trkpt>
      <trkpt lat="44.68761" lon="6.8609">
        <ele>2243.4</ele>
        <time>2026-03-25T12:16:15Z</time>
      </trkpt>
      <trkpt lat="44.68761" lon="6.8609">
        <ele>2243.4</ele>
        <time>2026-03-25T12:16:16Z</time>
      </trkpt>
      <trkpt lat="44.68761" lon="6.8609">
        <ele>2243.4</ele>
        <time>2026-03-25T12:16:17Z</time>
      </trkpt>
      <trkpt lat="44.68761" lon="6.8609">
        <ele>2243.4</ele>
        <time>2026-03-25T12:16:18Z</time>
      </trkpt>
      <trkpt lat="44.68761" lon="6.8609">
        <ele>2243.4</ele>
        <time>2026-03-25T12:16:19Z</time>
      </trkpt>
      <trkpt lat="44.68761" lon="6.8609">
        <ele>2243.4</ele>
        <time>2026-03-25T12:16:20Z</time>
      </trkpt>
      <trkpt lat="44.68761" lon="6.8609">
        <ele>2243.4</ele>
        <time>2026-03-25T12:16:21Z</time>
      </trkpt>
      <trkpt lat="44.68761" lon="6.8609">
        <ele>2243.4</ele>
        <time>2026-03-25T12:16:22Z</time>
      </trkpt>
      <trkpt lat="44.68761" lon="6.8609">
        <ele>2243.4</ele>
        <time>2026-03-25T12:16:23Z</time>
      </trkpt>
      <trkpt lat="44.68761" lon="6.8609">
        <ele>2243.4</ele>
        <time>2026-03-25T12:16:24Z</time>
      </trkpt>
      <trkpt lat="44.68761" lon="6.8609">
        <ele>2243.4</ele>
        <time>2026-03-25T12:16:25Z</time>
      </trkpt>
      <trkpt lat="44.68761" lon="6.8609">
        <ele>2243.4</ele>
        <time>2026-03-25T12:16:26Z</time>
      </trkpt>
      <trkpt lat="44.68761" lon="6.8609">
        <ele>2243.4</ele>
        <time>2026-03-25T12:16:27Z</time>
      </trkpt>
      <trkpt lat="44.68761" lon="6.8609">
        <ele>2243.4</ele>
        <time>2026-03-25T12:16:28Z</time>
      </trkpt>
      <trkpt lat="44.68761" lon="6.8609">
        <ele>2243.4</ele>
        <time>2026-03-25T12:16:29Z</time>
      </trkpt>
      <trkpt lat="44.68761" lon="6.8609">
        <ele>2243.4</ele>
        <time>2026-03-25T12:16:30Z</time>
      </trkpt>
      <trkpt lat="44.68761" lon="6.8609">
        <ele>2243.4</ele>
        <time>2026-03-25T12:16:31Z</time>
      </trkpt>
      <trkpt lat="44.68761" lon="6.8609">
        <ele>2243.4</ele>
        <time>2026-03-25T12:16:32Z</time>
      </trkpt>
      <trkpt lat="44.68761" lon="6.8609">
        <ele>2243.4</ele>
        <time>2026-03-25T12:16:33Z</time>
      </trkpt>
      <trkpt lat="44.68761" lon="6.8609">
        <ele>2243.4</ele>
        <time>2026-03-25T12:16:34Z</time>
      </trkpt>
      <trkpt lat="44.68761" lon="6.8609">
        <ele>2243.4</ele>
        <time>2026-03-25T12:16:35Z</time>
      </trkpt>
      <trkpt lat="44.68761" lon="6.8609">
        <ele>2243.4</ele>
        <time>2026-03-25T12:16:36Z</time>
      </trkpt>
      <trkpt lat="44.68761" lon="6.8609">
        <ele>2243.4</ele>
        <time>2026-03-25T12:16:37Z</time>
      </trkpt>
      <trkpt lat="44.68761" lon="6.8609">
        <ele>2243.4</ele>
        <time>2026-03-25T12:16:38Z</time>
      </trkpt>
      <trkpt lat="44.68761" lon="6.8609">
        <ele>2243.4</ele>
        <time>2026-03-25T12:16:39Z</time>
      </trkpt>
      <trkpt lat="44.68761" lon="6.8609">
        <ele>2243.4</ele>
        <time>2026-03-25T12:16:40Z</time>
      </trkpt>
      <trkpt lat="44.68761" lon="6.8609">
        <ele>2243.4</ele>
        <time>2026-03-25T12:16:41Z</time>
      </trkpt>
      <trkpt lat="44.68761" lon="6.8609">
        <ele>2243.4</ele>
        <time>2026-03-25T12:16:42Z</time>
      </trkpt>
      <trkpt lat="44.68761" lon="6.8609">
        <ele>2243.4</ele>
        <time>2026-03-25T12:16:43Z</time>
      </trkpt>
      <trkpt lat="44.68761" lon="6.8609">
        <ele>2243.4</ele>
        <time>2026-03-25T12:16:44Z</time>
      </trkpt>
      <trkpt lat="44.68761" lon="6.8609">
        <ele>2243.4</ele>
        <time>2026-03-25T12:16:45Z</time>
      </trkpt>
      <trkpt lat="44.68761" lon="6.8609">
        <ele>2243.4</ele>
        <time>2026-03-25T12:16:46Z</time>
      </trkpt>
      <trkpt lat="44.68761" lon="6.8609">
        <ele>2243.4</ele>
        <time>2026-03-25T12:16:47Z</time>
      </trkpt>
      <trkpt lat="44.68761" lon="6.8609">
        <ele>2243.4</ele>
        <time>2026-03-25T12:16:48Z</time>
      </trkpt>
      <trkpt lat="44.68761" lon="6.8609">
        <ele>2243.4</ele>
        <time>2026-03-25T12:16:49Z</time>
      </trkpt>
      <trkpt lat="44.68761" lon="6.8609">
        <ele>2243.4</ele>
        <time>2026-03-25T12:16:50Z</time>
      </trkpt>
      <trkpt lat="44.68761" lon="6.8609">
        <ele>2243.4</ele>
        <time>2026-03-25T12:16:51Z</time>
      </trkpt>
      <trkpt lat="44.68761" lon="6.8609">
        <ele>2243.4</ele>
        <time>2026-03-25T12:16:52Z</time>
      </trkpt>
      <trkpt lat="44.68761" lon="6.8609">
        <ele>2243.4</ele>
        <time>2026-03-25T12:16:53Z</time>
      </trkpt>
      <trkpt lat="44.68761" lon="6.8609">
        <ele>2243.4</ele>
        <time>2026-03-25T12:16:54Z</time>
      </trkpt>
      <trkpt lat="44.68761" lon="6.8609">
        <ele>2243.4</ele>
        <time>2026-03-25T12:16:55Z</time>
      </trkpt>
      <trkpt lat="44.68761" lon="6.8609">
        <ele>2243.4</ele>
        <time>2026-03-25T12:16:56Z</time>
      </trkpt>
      <trkpt lat="44.68761" lon="6.8609">
        <ele>2243.4</ele>
        <time>2026-03-25T12:16:57Z</time>
      </trkpt>
      <trkpt lat="44.68761" lon="6.8609">
        <ele>2243.4</ele>
        <time>2026-03-25T12:16:58Z</time>
      </trkpt>
      <trkpt lat="44.68761" lon="6.8609">
        <ele>2243.4</ele>
        <time>2026-03-25T12:16:59Z</time>
      </trkpt>
      <trkpt lat="44.68761" lon="6.8609">
        <ele>2243.4</ele>
        <time>2026-03-25T12:17:00Z</time>
      </trkpt>
      <trkpt lat="44.68761" lon="6.8609">
        <ele>2243.4</ele>
        <time>2026-03-25T12:17:01Z</time>
      </trkpt>
      <trkpt lat="44.68761" lon="6.8609">
        <ele>2243.4</ele>
        <time>2026-03-25T12:17:02Z</time>
      </trkpt>
      <trkpt lat="44.68761" lon="6.8609">
        <ele>2243.4</ele>
        <time>2026-03-25T12:17:03Z</time>
      </trkpt>
      <trkpt lat="44.68761" lon="6.8609">
        <ele>2243.4</ele>
        <time>2026-03-25T12:17:04Z</time>
      </trkpt>
      <trkpt lat="44.68761" lon="6.8609">
        <ele>2243.4</ele>
        <time>2026-03-25T12:17:05Z</time>
      </trkpt>
      <trkpt lat="44.68761" lon="6.8609">
        <ele>2243.4</ele>
        <time>2026-03-25T12:17:06Z</time>
      </trkpt>
      <trkpt lat="44.68761" lon="6.8609">
        <ele>2243.4</ele>
        <time>2026-03-25T12:17:07Z</time>
      </trkpt>
      <trkpt lat="44.68761" lon="6.8609">
        <ele>2243.4</ele>
        <time>2026-03-25T12:17:08Z</time>
      </trkpt>
      <trkpt lat="44.68761" lon="6.8609">
        <ele>2243.4</ele>
        <time>2026-03-25T12:17:09Z</time>
      </trkpt>
      <trkpt lat="44.68761" lon="6.8609">
        <ele>2243.4</ele>
        <time>2026-03-25T12:17:10Z</time>
      </trkpt>
      <trkpt lat="44.68761" lon="6.8609">
        <ele>2243.4</ele>
        <time>2026-03-25T12:17:11Z</time>
      </trkpt>
      <trkpt lat="44.68761" lon="6.8609">
        <ele>2243.4</ele>
        <time>2026-03-25T12:17:12Z</time>
      </trkpt>
      <trkpt lat="44.68761" lon="6.8609">
        <ele>2243.4</ele>
        <time>2026-03-25T12:17:13Z</time>
      </trkpt>
      <trkpt lat="44.68761" lon="6.8609">
        <ele>2243.4</ele>
        <time>2026-03-25T12:17:14Z</time>
      </trkpt>
      <trkpt lat="44.68761" lon="6.8609">
        <ele>2243.4</ele>
        <time>2026-03-25T12:17:15Z</time>
      </trkpt>
      <trkpt lat="44.68761" lon="6.8609">
        <ele>2243.4</ele>
        <time>2026-03-25T12:17:16Z</time>
      </trkpt>
      <trkpt lat="44.68761" lon="6.8609">
        <ele>2243.4</ele>
        <time>2026-03-25T12:17:17Z</time>
      </trkpt>
      <trkpt lat="44.68761" lon="6.8609">
        <ele>2243.4</ele>
        <time>2026-03-25T12:17:18Z</time>
      </trkpt>
      <trkpt lat="44.68761" lon="6.8609">
        <ele>2243.4</ele>
        <time>2026-03-25T12:17:19Z</time>
      </trkpt>
      <trkpt lat="44.68761" lon="6.8609">
        <ele>2243.4</ele>
        <time>2026-03-25T12:17:20Z</time>
      </trkpt>
      <trkpt lat="44.68761" lon="6.8609">
        <ele>2243.4</ele>
        <time>2026-03-25T12:17:21Z</time>
      </trkpt>
      <trkpt lat="44.68761" lon="6.8609">
        <ele>2243.4</ele>
        <time>2026-03-25T12:17:22Z</time>
      </trkpt>
      <trkpt lat="44.68761" lon="6.8609">
        <ele>2243.4</ele>
        <time>2026-03-25T12:17:23Z</time>
      </trkpt>
      <trkpt lat="44.68761" lon="6.8609">
        <ele>2243.4</ele>
        <time>2026-03-25T12:17:24Z</time>
      </trkpt>
      <trkpt lat="44.68761" lon="6.8609">
        <ele>2243.4</ele>
        <time>2026-03-25T12:17:25Z</time>
      </trkpt>
      <trkpt lat="44.68761" lon="6.8609">
        <ele>2243.4</ele>
        <time>2026-03-25T12:17:26Z</time>
      </trkpt>
      <trkpt lat="44.68761" lon="6.8609">
        <ele>2243.4</ele>
        <time>2026-03-25T12:17:27Z</time>
      </trkpt>
      <trkpt lat="44.68761" lon="6.8609">
        <ele>2243.4</ele>
        <time>2026-03-25T12:17:28Z</time>
      </trkpt>
      <trkpt lat="44.68761" lon="6.8609">
        <ele>2243.4</ele>
        <time>2026-03-25T12:17:29Z</time>
      </trkpt>
      <trkpt lat="44.68761" lon="6.8609">
        <ele>2243.4</ele>
        <time>2026-03-25T12:17:30Z</time>
      </trkpt>
      <trkpt lat="44.68761" lon="6.8609">
        <ele>2243.4</ele>
        <time>2026-03-25T12:17:31Z</time>
      </trkpt>
      <trkpt lat="44.68761" lon="6.8609">
        <ele>2243.4</ele>
        <time>2026-03-25T12:17:32Z</time>
      </trkpt>
      <trkpt lat="44.68761" lon="6.8609">
        <ele>2243.4</ele>
        <time>2026-03-25T12:17:33Z</time>
      </trkpt>
      <trkpt lat="44.68761" lon="6.8609">
        <ele>2243.4</ele>
        <time>2026-03-25T12:17:34Z</time>
      </trkpt>
      <trkpt lat="44.68761" lon="6.8609">
        <ele>2243.4</ele>
        <time>2026-03-25T12:17:35Z</time>
      </trkpt>
      <trkpt lat="44.68761" lon="6.8609">
        <ele>2243.4</ele>
        <time>2026-03-25T12:17:36Z</time>
      </trkpt>
      <trkpt lat="44.68761" lon="6.8609">
        <ele>2243.4</ele>
        <time>2026-03-25T12:17:37Z</time>
      </trkpt>
      <trkpt lat="44.68761" lon="6.8609">
        <ele>2243.4</ele>
        <time>2026-03-25T12:17:38Z</time>
      </trkpt>
      <trkpt lat="44.68761" lon="6.8609">
        <ele>2243.4</ele>
        <time>2026-03-25T12:17:39Z</time>
      </trkpt>
      <trkpt lat="44.68761" lon="6.8609">
        <ele>2243.4</ele>
        <time>2026-03-25T12:17:40Z</time>
      </trkpt>
      <trkpt lat="44.68761" lon="6.8609">
        <ele>2243.4</ele>
        <time>2026-03-25T12:17:41Z</time>
      </trkpt>
      <trkpt lat="44.68761" lon="6.8609">
        <ele>2243.3</ele>
        <time>2026-03-25T12:17:42Z</time>
      </trkpt>
      <trkpt lat="44.68761" lon="6.8609">
        <ele>2243.3</ele>
        <time>2026-03-25T12:17:43Z</time>
      </trkpt>
      <trkpt lat="44.68761" lon="6.8609">
        <ele>2243.3</ele>
        <time>2026-03-25T12:17:44Z</time>
      </trkpt>
      <trkpt lat="44.68761" lon="6.8609">
        <ele>2243.3</ele>
        <time>2026-03-25T12:17:45Z</time>
      </trkpt>
      <trkpt lat="44.68761" lon="6.8609">
        <ele>2243.3</ele>
        <time>2026-03-25T12:17:46Z</time>
      </trkpt>
      <trkpt lat="44.68761" lon="6.8609">
        <ele>2243.3</ele>
        <time>2026-03-25T12:17:47Z</time>
      </trkpt>
      <trkpt lat="44.68761" lon="6.8609">
        <ele>2243.3</ele>
        <time>2026-03-25T12:17:48Z</time>
      </trkpt>
      <trkpt lat="44.68761" lon="6.8609">
        <ele>2243.3</ele>
        <time>2026-03-25T12:17:49Z</time>
      </trkpt>
      <trkpt lat="44.68761" lon="6.8609">
        <ele>2243.3</ele>
        <time>2026-03-25T12:17:50Z</time>
      </trkpt>
      <trkpt lat="44.68761" lon="6.8609">
        <ele>2243.3</ele>
        <time>2026-03-25T12:17:51Z</time>
      </trkpt>
      <trkpt lat="44.68761" lon="6.8609">
        <ele>2243.3</ele>
        <time>2026-03-25T12:17:52Z</time>
      </trkpt>
      <trkpt lat="44.68761" lon="6.8609">
        <ele>2243.3</ele>
        <time>2026-03-25T12:17:53Z</time>
      </trkpt>
      <trkpt lat="44.68761" lon="6.8609">
        <ele>2243.3</ele>
        <time>2026-03-25T12:17:54Z</time>
      </trkpt>
      <trkpt lat="44.68761" lon="6.8609">
        <ele>2243.3</ele>
        <time>2026-03-25T12:17:55Z</time>
      </trkpt>
      <trkpt lat="44.68761" lon="6.8609">
        <ele>2243.3</ele>
        <time>2026-03-25T12:17:56Z</time>
      </trkpt>
      <trkpt lat="44.68761" lon="6.8609">
        <ele>2243.3</ele>
        <time>2026-03-25T12:17:57Z</time>
      </trkpt>
      <trkpt lat="44.68761" lon="6.8609">
        <ele>2243.3</ele>
        <time>2026-03-25T12:17:58Z</time>
      </trkpt>
      <trkpt lat="44.68761" lon="6.8609">
        <ele>2243.3</ele>
        <time>2026-03-25T12:17:59Z</time>
      </trkpt>
      <trkpt lat="44.68761" lon="6.8609">
        <ele>2243.3</ele>
        <time>2026-03-25T12:18:00Z</time>
      </trkpt>
      <trkpt lat="44.68761" lon="6.8609">
        <ele>2243.3</ele>
        <time>2026-03-25T12:18:01Z</time>
      </trkpt>
      <trkpt lat="44.68761" lon="6.8609">
        <ele>2243.3</ele>
        <time>2026-03-25T12:18:02Z</time>
      </trkpt>
      <trkpt lat="44.68761" lon="6.8609">
        <ele>2243.3</ele>
        <time>2026-03-25T12:18:03Z</time>
      </trkpt>
      <trkpt lat="44.68761" lon="6.8609">
        <ele>2243.3</ele>
        <time>2026-03-25T12:18:04Z</time>
      </trkpt>
      <trkpt lat="44.68761" lon="6.8609">
        <ele>2243.3</ele>
        <time>2026-03-25T12:18:05Z</time>
      </trkpt>
      <trkpt lat="44.68761" lon="6.8609">
        <ele>2243.3</ele>
        <time>2026-03-25T12:18:06Z</time>
      </trkpt>
      <trkpt lat="44.68761" lon="6.8609">
        <ele>2243.3</ele>
        <time>2026-03-25T12:18:07Z</time>
      </trkpt>
      <trkpt lat="44.68761" lon="6.8609">
        <ele>2243.3</ele>
        <time>2026-03-25T12:18:08Z</time>
      </trkpt>
      <trkpt lat="44.68761" lon="6.8609">
        <ele>2243.3</ele>
        <time>2026-03-25T12:18:09Z</time>
      </trkpt>
      <trkpt lat="44.68761" lon="6.8609">
        <ele>2243.3</ele>
        <time>2026-03-25T12:18:10Z</time>
      </trkpt>
      <trkpt lat="44.68761" lon="6.8609">
        <ele>2243.3</ele>
        <time>2026-03-25T12:18:11Z</time>
      </trkpt>
      <trkpt lat="44.68761" lon="6.8609">
        <ele>2243.3</ele>
        <time>2026-03-25T12:18:12Z</time>
      </trkpt>
      <trkpt lat="44.68761" lon="6.8609">
        <ele>2243.3</ele>
        <time>2026-03-25T12:18:13Z</time>
      </trkpt>
      <trkpt lat="44.68761" lon="6.8609">
        <ele>2243.3</ele>
        <time>2026-03-25T12:18:14Z</time>
      </trkpt>
      <trkpt lat="44.68761" lon="6.8609">
        <ele>2243.3</ele>
        <time>2026-03-25T12:18:15Z</time>
      </trkpt>
      <trkpt lat="44.68761" lon="6.8609">
        <ele>2243.3</ele>
        <time>2026-03-25T12:18:16Z</time>
      </trkpt>
      <trkpt lat="44.68761" lon="6.8609">
        <ele>2243.3</ele>
        <time>2026-03-25T12:18:17Z</time>
      </trkpt>
      <trkpt lat="44.68761" lon="6.8609">
        <ele>2243.3</ele>
        <time>2026-03-25T12:18:18Z</time>
      </trkpt>
      <trkpt lat="44.68761" lon="6.8609">
        <ele>2243.3</ele>
        <time>2026-03-25T12:18:19Z</time>
      </trkpt>
      <trkpt lat="44.68761" lon="6.8609">
        <ele>2243.3</ele>
        <time>2026-03-25T12:18:20Z</time>
      </trkpt>
      <trkpt lat="44.68761" lon="6.8609">
        <ele>2243.3</ele>
        <time>2026-03-25T12:18:21Z</time>
      </trkpt>
      <trkpt lat="44.68761" lon="6.8609">
        <ele>2243.3</ele>
        <time>2026-03-25T12:18:22Z</time>
      </trkpt>
      <trkpt lat="44.68761" lon="6.8609">
        <ele>2243.3</ele>
        <time>2026-03-25T12:18:23Z</time>
      </trkpt>
      <trkpt lat="44.68761" lon="6.8609">
        <ele>2243.3</ele>
        <time>2026-03-25T12:18:24Z</time>
      </trkpt>
      <trkpt lat="44.68761" lon="6.8609">
        <ele>2243.3</ele>
        <time>2026-03-25T12:18:25Z</time>
      </trkpt>
      <trkpt lat="44.68761" lon="6.8609">
        <ele>2243.3</ele>
        <time>2026-03-25T12:18:26Z</time>
      </trkpt>
      <trkpt lat="44.68761" lon="6.8609">
        <ele>2243.3</ele>
        <time>2026-03-25T12:18:27Z</time>
      </trkpt>
      <trkpt lat="44.68761" lon="6.8609">
        <ele>2243.3</ele>
        <time>2026-03-25T12:18:28Z</time>
      </trkpt>
      <trkpt lat="44.68761" lon="6.8609">
        <ele>2243.3</ele>
        <time>2026-03-25T12:18:29Z</time>
      </trkpt>
      <trkpt lat="44.68761" lon="6.8609">
        <ele>2243.3</ele>
        <time>2026-03-25T12:18:30Z</time>
      </trkpt>
      <trkpt lat="44.68761" lon="6.8609">
        <ele>2243.3</ele>
        <time>2026-03-25T12:18:31Z</time>
      </trkpt>
      <trkpt lat="44.68761" lon="6.8609">
        <ele>2243.3</ele>
        <time>2026-03-25T12:18:32Z</time>
      </trkpt>
      <trkpt lat="44.68761" lon="6.8609">
        <ele>2243.3</ele>
        <time>2026-03-25T12:18:33Z</time>
      </trkpt>
      <trkpt lat="44.68761" lon="6.8609">
        <ele>2243.3</ele>
        <time>2026-03-25T12:18:34Z</time>
      </trkpt>
      <trkpt lat="44.68761" lon="6.8609">
        <ele>2243.3</ele>
        <time>2026-03-25T12:18:35Z</time>
      </trkpt>
      <trkpt lat="44.68761" lon="6.8609">
        <ele>2243.3</ele>
        <time>2026-03-25T12:18:36Z</time>
      </trkpt>
      <trkpt lat="44.68761" lon="6.8609">
        <ele>2243.3</ele>
        <time>2026-03-25T12:18:37Z</time>
      </trkpt>
      <trkpt lat="44.68761" lon="6.8609">
        <ele>2243.3</ele>
        <time>2026-03-25T12:18:38Z</time>
      </trkpt>
      <trkpt lat="44.68761" lon="6.8609">
        <ele>2243.3</ele>
        <time>2026-03-25T12:18:39Z</time>
      </trkpt>
      <trkpt lat="44.68761" lon="6.8609">
        <ele>2243.3</ele>
        <time>2026-03-25T12:18:40Z</time>
      </trkpt>
      <trkpt lat="44.68761" lon="6.8609">
        <ele>2243.3</ele>
        <time>2026-03-25T12:18:41Z</time>
      </trkpt>
      <trkpt lat="44.68761" lon="6.8609">
        <ele>2243.3</ele>
        <time>2026-03-25T12:18:42Z</time>
      </trkpt>
      <trkpt lat="44.68761" lon="6.8609">
        <ele>2243.3</ele>
        <time>2026-03-25T12:18:43Z</time>
      </trkpt>
      <trkpt lat="44.68761" lon="6.8609">
        <ele>2243.3</ele>
        <time>2026-03-25T12:18:44Z</time>
      </trkpt>
      <trkpt lat="44.68761" lon="6.8609">
        <ele>2243.3</ele>
        <time>2026-03-25T12:18:45Z</time>
      </trkpt>
      <trkpt lat="44.68761" lon="6.8609">
        <ele>2243.3</ele>
        <time>2026-03-25T12:18:46Z</time>
      </trkpt>
      <trkpt lat="44.68761" lon="6.8609">
        <ele>2243.3</ele>
        <time>2026-03-25T12:18:47Z</time>
      </trkpt>
      <trkpt lat="44.68761" lon="6.8609">
        <ele>2243.3</ele>
        <time>2026-03-25T12:18:48Z</time>
      </trkpt>
      <trkpt lat="44.68761" lon="6.8609">
        <ele>2243.3</ele>
        <time>2026-03-25T12:18:49Z</time>
      </trkpt>
      <trkpt lat="44.68761" lon="6.8609">
        <ele>2243.3</ele>
        <time>2026-03-25T12:18:50Z</time>
      </trkpt>
      <trkpt lat="44.68761" lon="6.8609">
        <ele>2243.3</ele>
        <time>2026-03-25T12:18:51Z</time>
      </trkpt>
      <trkpt lat="44.68761" lon="6.8609">
        <ele>2243.3</ele>
        <time>2026-03-25T12:18:52Z</time>
      </trkpt>
      <trkpt lat="44.68761" lon="6.8609">
        <ele>2243.3</ele>
        <time>2026-03-25T12:18:53Z</time>
      </trkpt>
      <trkpt lat="44.68761" lon="6.8609">
        <ele>2243.3</ele>
        <time>2026-03-25T12:18:54Z</time>
      </trkpt>
      <trkpt lat="44.68761" lon="6.8609">
        <ele>2243.3</ele>
        <time>2026-03-25T12:18:55Z</time>
      </trkpt>
      <trkpt lat="44.68761" lon="6.8609">
        <ele>2243.3</ele>
        <time>2026-03-25T12:18:56Z</time>
      </trkpt>
      <trkpt lat="44.68761" lon="6.8609">
        <ele>2243.3</ele>
        <time>2026-03-25T12:18:57Z</time>
      </trkpt>
      <trkpt lat="44.68761" lon="6.8609">
        <ele>2243.3</ele>
        <time>2026-03-25T12:18:58Z</time>
      </trkpt>
      <trkpt lat="44.68761" lon="6.8609">
        <ele>2243.3</ele>
        <time>2026-03-25T12:18:59Z</time>
      </trkpt>
      <trkpt lat="44.68761" lon="6.8609">
        <ele>2243.3</ele>
        <time>2026-03-25T12:19:00Z</time>
      </trkpt>
      <trkpt lat="44.68761" lon="6.8609">
        <ele>2243.3</ele>
        <time>2026-03-25T12:19:01Z</time>
      </trkpt>
      <trkpt lat="44.68761" lon="6.8609">
        <ele>2243.3</ele>
        <time>2026-03-25T12:19:02Z</time>
      </trkpt>
      <trkpt lat="44.68761" lon="6.8609">
        <ele>2243.3</ele>
        <time>2026-03-25T12:19:03Z</time>
      </trkpt>
      <trkpt lat="44.68761" lon="6.8609">
        <ele>2243.3</ele>
        <time>2026-03-25T12:19:04Z</time>
      </trkpt>
      <trkpt lat="44.68761" lon="6.8609">
        <ele>2243.3</ele>
        <time>2026-03-25T12:19:05Z</time>
      </trkpt>
      <trkpt lat="44.68761" lon="6.8609">
        <ele>2243.3</ele>
        <time>2026-03-25T12:19:06Z</time>
      </trkpt>
      <trkpt lat="44.68761" lon="6.8609">
        <ele>2243.3</ele>
        <time>2026-03-25T12:19:07Z</time>
      </trkpt>
      <trkpt lat="44.68761" lon="6.8609">
        <ele>2243.3</ele>
        <time>2026-03-25T12:19:08Z</time>
      </trkpt>
      <trkpt lat="44.68761" lon="6.8609">
        <ele>2243.3</ele>
        <time>2026-03-25T12:19:09Z</time>
      </trkpt>
      <trkpt lat="44.68761" lon="6.8609">
        <ele>2243.3</ele>
        <time>2026-03-25T12:19:10Z</time>
      </trkpt>
      <trkpt lat="44.68761" lon="6.8609">
        <ele>2243.3</ele>
        <time>2026-03-25T12:19:11Z</time>
      </trkpt>
      <trkpt lat="44.68761" lon="6.8609">
        <ele>2243.3</ele>
        <time>2026-03-25T12:19:12Z</time>
      </trkpt>
      <trkpt lat="44.68761" lon="6.8609">
        <ele>2243.3</ele>
        <time>2026-03-25T12:19:13Z</time>
      </trkpt>
      <trkpt lat="44.68761" lon="6.8609">
        <ele>2243.3</ele>
        <time>2026-03-25T12:19:14Z</time>
      </trkpt>
      <trkpt lat="44.68761" lon="6.8609">
        <ele>2243.3</ele>
        <time>2026-03-25T12:19:15Z</time>
      </trkpt>
      <trkpt lat="44.68761" lon="6.8609">
        <ele>2243.3</ele>
        <time>2026-03-25T12:19:16Z</time>
      </trkpt>
      <trkpt lat="44.68761" lon="6.8609">
        <ele>2243.3</ele>
        <time>2026-03-25T12:19:17Z</time>
      </trkpt>
      <trkpt lat="44.68761" lon="6.8609">
        <ele>2243.3</ele>
        <time>2026-03-25T12:19:18Z</time>
      </trkpt>
      <trkpt lat="44.68761" lon="6.8609">
        <ele>2243.3</ele>
        <time>2026-03-25T12:19:19Z</time>
      </trkpt>
      <trkpt lat="44.68761" lon="6.8609">
        <ele>2243.3</ele>
        <time>2026-03-25T12:19:20Z</time>
      </trkpt>
      <trkpt lat="44.68761" lon="6.8609">
        <ele>2243.3</ele>
        <time>2026-03-25T12:19:21Z</time>
      </trkpt>
      <trkpt lat="44.68761" lon="6.8609">
        <ele>2243.3</ele>
        <time>2026-03-25T12:19:22Z</time>
      </trkpt>
      <trkpt lat="44.68761" lon="6.8609">
        <ele>2243.3</ele>
        <time>2026-03-25T12:19:23Z</time>
      </trkpt>
      <trkpt lat="44.68761" lon="6.8609">
        <ele>2243.3</ele>
        <time>2026-03-25T12:19:24Z</time>
      </trkpt>
      <trkpt lat="44.68761" lon="6.8609">
        <ele>2243.3</ele>
        <time>2026-03-25T12:19:25Z</time>
      </trkpt>
      <trkpt lat="44.68761" lon="6.8609">
        <ele>2243.3</ele>
        <time>2026-03-25T12:19:26Z</time>
      </trkpt>
      <trkpt lat="44.68761" lon="6.8609">
        <ele>2243.3</ele>
        <time>2026-03-25T12:19:27Z</time>
      </trkpt>
      <trkpt lat="44.68761" lon="6.8609">
        <ele>2243.3</ele>
        <time>2026-03-25T12:19:28Z</time>
      </trkpt>
      <trkpt lat="44.68761" lon="6.8609">
        <ele>2243.3</ele>
        <time>2026-03-25T12:19:29Z</time>
      </trkpt>
      <trkpt lat="44.68761" lon="6.8609">
        <ele>2243.3</ele>
        <time>2026-03-25T12:19:30Z</time>
      </trkpt>
      <trkpt lat="44.68761" lon="6.8609">
        <ele>2243.3</ele>
        <time>2026-03-25T12:19:31Z</time>
      </trkpt>
      <trkpt lat="44.68761" lon="6.8609">
        <ele>2243.3</ele>
        <time>2026-03-25T12:19:32Z</time>
      </trkpt>
      <trkpt lat="44.68761" lon="6.8609">
        <ele>2243.3</ele>
        <time>2026-03-25T12:19:33Z</time>
      </trkpt>
      <trkpt lat="44.68761" lon="6.8609">
        <ele>2243.3</ele>
        <time>2026-03-25T12:19:34Z</time>
      </trkpt>
      <trkpt lat="44.68761" lon="6.8609">
        <ele>2243.3</ele>
        <time>2026-03-25T12:19:35Z</time>
      </trkpt>
      <trkpt lat="44.68761" lon="6.8609">
        <ele>2243.3</ele>
        <time>2026-03-25T12:19:36Z</time>
      </trkpt>
      <trkpt lat="44.68761" lon="6.8609">
        <ele>2243.3</ele>
        <time>2026-03-25T12:19:37Z</time>
      </trkpt>
      <trkpt lat="44.68761" lon="6.8609">
        <ele>2243.3</ele>
        <time>2026-03-25T12:19:38Z</time>
      </trkpt>
      <trkpt lat="44.68761" lon="6.8609">
        <ele>2243.3</ele>
        <time>2026-03-25T12:19:39Z</time>
      </trkpt>
      <trkpt lat="44.68761" lon="6.8609">
        <ele>2243.3</ele>
        <time>2026-03-25T12:19:40Z</time>
      </trkpt>
      <trkpt lat="44.68761" lon="6.8609">
        <ele>2243.3</ele>
        <time>2026-03-25T12:19:41Z</time>
      </trkpt>
      <trkpt lat="44.68761" lon="6.8609">
        <ele>2243.3</ele>
        <time>2026-03-25T12:19:42Z</time>
      </trkpt>
      <trkpt lat="44.68761" lon="6.8609">
        <ele>2243.3</ele>
        <time>2026-03-25T12:19:43Z</time>
      </trkpt>
      <trkpt lat="44.68761" lon="6.8609">
        <ele>2243.3</ele>
        <time>2026-03-25T12:19:44Z</time>
      </trkpt>
      <trkpt lat="44.68761" lon="6.8609">
        <ele>2243.3</ele>
        <time>2026-03-25T12:19:45Z</time>
      </trkpt>
      <trkpt lat="44.68761" lon="6.8609">
        <ele>2243.3</ele>
        <time>2026-03-25T12:19:46Z</time>
      </trkpt>
      <trkpt lat="44.68761" lon="6.8609">
        <ele>2243.3</ele>
        <time>2026-03-25T12:19:47Z</time>
      </trkpt>
      <trkpt lat="44.68761" lon="6.8609">
        <ele>2243.3</ele>
        <time>2026-03-25T12:19:48Z</time>
      </trkpt>
      <trkpt lat="44.68761" lon="6.8609">
        <ele>2243.3</ele>
        <time>2026-03-25T12:19:49Z</time>
      </trkpt>
      <trkpt lat="44.68761" lon="6.8609">
        <ele>2243.3</ele>
        <time>2026-03-25T12:19:50Z</time>
      </trkpt>
      <trkpt lat="44.68761" lon="6.8609">
        <ele>2243.3</ele>
        <time>2026-03-25T12:19:51Z</time>
      </trkpt>
      <trkpt lat="44.68761" lon="6.8609">
        <ele>2243.3</ele>
        <time>2026-03-25T12:19:52Z</time>
      </trkpt>
      <trkpt lat="44.68761" lon="6.8609">
        <ele>2243.3</ele>
        <time>2026-03-25T12:19:53Z</time>
      </trkpt>
      <trkpt lat="44.68761" lon="6.8609">
        <ele>2243.3</ele>
        <time>2026-03-25T12:19:54Z</time>
      </trkpt>
      <trkpt lat="44.68761" lon="6.8609">
        <ele>2243.3</ele>
        <time>2026-03-25T12:19:55Z</time>
      </trkpt>
      <trkpt lat="44.68761" lon="6.8609">
        <ele>2243.3</ele>
        <time>2026-03-25T12:19:56Z</time>
      </trkpt>
      <trkpt lat="44.68761" lon="6.8609">
        <ele>2243.3</ele>
        <time>2026-03-25T12:19:57Z</time>
      </trkpt>
      <trkpt lat="44.68761" lon="6.8609">
        <ele>2243.3</ele>
        <time>2026-03-25T12:19:58Z</time>
      </trkpt>
      <trkpt lat="44.68761" lon="6.8609">
        <ele>2243.3</ele>
        <time>2026-03-25T12:19:59Z</time>
      </trkpt>
      <trkpt lat="44.68761" lon="6.8609">
        <ele>2243.3</ele>
        <time>2026-03-25T12:20:00Z</time>
      </trkpt>
      <trkpt lat="44.68761" lon="6.8609">
        <ele>2243.3</ele>
        <time>2026-03-25T12:20:01Z</time>
      </trkpt>
      <trkpt lat="44.68761" lon="6.8609">
        <ele>2243.3</ele>
        <time>2026-03-25T12:20:02Z</time>
      </trkpt>
      <trkpt lat="44.68761" lon="6.8609">
        <ele>2243.3</ele>
        <time>2026-03-25T12:20:03Z</time>
      </trkpt>
      <trkpt lat="44.68761" lon="6.8609">
        <ele>2243.3</ele>
        <time>2026-03-25T12:20:04Z</time>
      </trkpt>
      <trkpt lat="44.68761" lon="6.8609">
        <ele>2243.3</ele>
        <time>2026-03-25T12:20:05Z</time>
      </trkpt>
      <trkpt lat="44.68761" lon="6.8609">
        <ele>2243.3</ele>
        <time>2026-03-25T12:20:06Z</time>
      </trkpt>
      <trkpt lat="44.68761" lon="6.8609">
        <ele>2243.3</ele>
        <time>2026-03-25T12:20:07Z</time>
      </trkpt>
      <trkpt lat="44.68761" lon="6.8609">
        <ele>2243.3</ele>
        <time>2026-03-25T12:20:08Z</time>
      </trkpt>
      <trkpt lat="44.68761" lon="6.8609">
        <ele>2243.3</ele>
        <time>2026-03-25T12:20:09Z</time>
      </trkpt>
      <trkpt lat="44.68761" lon="6.8609">
        <ele>2243.3</ele>
        <time>2026-03-25T12:20:10Z</time>
      </trkpt>
      <trkpt lat="44.68761" lon="6.8609">
        <ele>2243.3</ele>
        <time>2026-03-25T12:20:11Z</time>
      </trkpt>
      <trkpt lat="44.68761" lon="6.8609">
        <ele>2243.3</ele>
        <time>2026-03-25T12:20:12Z</time>
      </trkpt>
      <trkpt lat="44.68761" lon="6.8609">
        <ele>2243.3</ele>
        <time>2026-03-25T12:20:13Z</time>
      </trkpt>
      <trkpt lat="44.68761" lon="6.8609">
        <ele>2243.3</ele>
        <time>2026-03-25T12:20:14Z</time>
      </trkpt>
      <trkpt lat="44.68761" lon="6.8609">
        <ele>2243.3</ele>
        <time>2026-03-25T12:20:15Z</time>
      </trkpt>
      <trkpt lat="44.68761" lon="6.8609">
        <ele>2243.3</ele>
        <time>2026-03-25T12:20:16Z</time>
      </trkpt>
      <trkpt lat="44.68761" lon="6.8609">
        <ele>2243.3</ele>
        <time>2026-03-25T12:20:17Z</time>
      </trkpt>
      <trkpt lat="44.68761" lon="6.8609">
        <ele>2243.3</ele>
        <time>2026-03-25T12:20:18Z</time>
      </trkpt>
      <trkpt lat="44.68761" lon="6.8609">
        <ele>2243.3</ele>
        <time>2026-03-25T12:20:19Z</time>
      </trkpt>
      <trkpt lat="44.68761" lon="6.8609">
        <ele>2243.3</ele>
        <time>2026-03-25T12:20:20Z</time>
      </trkpt>
      <trkpt lat="44.68761" lon="6.8609">
        <ele>2243.3</ele>
        <time>2026-03-25T12:20:21Z</time>
      </trkpt>
      <trkpt lat="44.68761" lon="6.8609">
        <ele>2243.3</ele>
        <time>2026-03-25T12:20:22Z</time>
      </trkpt>
      <trkpt lat="44.68761" lon="6.8609">
        <ele>2243.3</ele>
        <time>2026-03-25T12:20:23Z</time>
      </trkpt>
      <trkpt lat="44.68761" lon="6.8609">
        <ele>2243.3</ele>
        <time>2026-03-25T12:20:24Z</time>
      </trkpt>
      <trkpt lat="44.68761" lon="6.8609">
        <ele>2243.3</ele>
        <time>2026-03-25T12:20:25Z</time>
      </trkpt>
      <trkpt lat="44.68761" lon="6.8609">
        <ele>2243.3</ele>
        <time>2026-03-25T12:20:26Z</time>
      </trkpt>
      <trkpt lat="44.68761" lon="6.8609">
        <ele>2243.3</ele>
        <time>2026-03-25T12:20:27Z</time>
      </trkpt>
      <trkpt lat="44.68761" lon="6.8609">
        <ele>2243.3</ele>
        <time>2026-03-25T12:20:28Z</time>
      </trkpt>
      <trkpt lat="44.68761" lon="6.8609">
        <ele>2243.3</ele>
        <time>2026-03-25T12:20:29Z</time>
      </trkpt>
      <trkpt lat="44.68761" lon="6.8609">
        <ele>2243.3</ele>
        <time>2026-03-25T12:20:30Z</time>
      </trkpt>
      <trkpt lat="44.68761" lon="6.8609">
        <ele>2243.3</ele>
        <time>2026-03-25T12:20:31Z</time>
      </trkpt>
      <trkpt lat="44.68761" lon="6.8609">
        <ele>2243.3</ele>
        <time>2026-03-25T12:20:32Z</time>
      </trkpt>
      <trkpt lat="44.68761" lon="6.8609">
        <ele>2243.3</ele>
        <time>2026-03-25T12:20:33Z</time>
      </trkpt>
      <trkpt lat="44.68761" lon="6.8609">
        <ele>2243.3</ele>
        <time>2026-03-25T12:20:34Z</time>
      </trkpt>
      <trkpt lat="44.68761" lon="6.8609">
        <ele>2243.3</ele>
        <time>2026-03-25T12:20:35Z</time>
      </trkpt>
      <trkpt lat="44.68761" lon="6.8609">
        <ele>2243.3</ele>
        <time>2026-03-25T12:20:36Z</time>
      </trkpt>
      <trkpt lat="44.68761" lon="6.8609">
        <ele>2243.3</ele>
        <time>2026-03-25T12:20:37Z</time>
      </trkpt>
      <trkpt lat="44.68761" lon="6.8609">
        <ele>2243.3</ele>
        <time>2026-03-25T12:20:38Z</time>
      </trkpt>
      <trkpt lat="44.68761" lon="6.8609">
        <ele>2243.3</ele>
        <time>2026-03-25T12:20:39Z</time>
      </trkpt>
      <trkpt lat="44.68761" lon="6.8609">
        <ele>2243.3</ele>
        <time>2026-03-25T12:20:40Z</time>
      </trkpt>
      <trkpt lat="44.68761" lon="6.8609">
        <ele>2243.3</ele>
        <time>2026-03-25T12:20:41Z</time>
      </trkpt>
      <trkpt lat="44.68761" lon="6.8609">
        <ele>2243.3</ele>
        <time>2026-03-25T12:20:42Z</time>
      </trkpt>
      <trkpt lat="44.68761" lon="6.8609">
        <ele>2243.3</ele>
        <time>2026-03-25T12:20:43Z</time>
      </trkpt>
      <trkpt lat="44.68761" lon="6.8609">
        <ele>2243.3</ele>
        <time>2026-03-25T12:20:44Z</time>
      </trkpt>
      <trkpt lat="44.68761" lon="6.8609">
        <ele>2243.3</ele>
        <time>2026-03-25T12:20:45Z</time>
      </trkpt>
      <trkpt lat="44.68761" lon="6.8609">
        <ele>2243.3</ele>
        <time>2026-03-25T12:20:46Z</time>
      </trkpt>
      <trkpt lat="44.68761" lon="6.8609">
        <ele>2243.3</ele>
        <time>2026-03-25T12:20:47Z</time>
      </trkpt>
      <trkpt lat="44.68761" lon="6.8609">
        <ele>2243.3</ele>
        <time>2026-03-25T12:20:48Z</time>
      </trkpt>
      <trkpt lat="44.68761" lon="6.8609">
        <ele>2243.3</ele>
        <time>2026-03-25T12:20:49Z</time>
      </trkpt>
      <trkpt lat="44.68761" lon="6.8609">
        <ele>2243.3</ele>
        <time>2026-03-25T12:20:50Z</time>
      </trkpt>
      <trkpt lat="44.68761" lon="6.8609">
        <ele>2243.3</ele>
        <time>2026-03-25T12:20:51Z</time>
      </trkpt>
      <trkpt lat="44.68761" lon="6.8609">
        <ele>2243.3</ele>
        <time>2026-03-25T12:20:52Z</time>
      </trkpt>
      <trkpt lat="44.68761" lon="6.8609">
        <ele>2243.3</ele>
        <time>2026-03-25T12:20:53Z</time>
      </trkpt>
      <trkpt lat="44.68761" lon="6.8609">
        <ele>2243.3</ele>
        <time>2026-03-25T12:20:54Z</time>
      </trkpt>
      <trkpt lat="44.68761" lon="6.8609">
        <ele>2243.3</ele>
        <time>2026-03-25T12:20:55Z</time>
      </trkpt>
      <trkpt lat="44.68761" lon="6.8609">
        <ele>2243.3</ele>
        <time>2026-03-25T12:20:56Z</time>
      </trkpt>
      <trkpt lat="44.68761" lon="6.8609">
        <ele>2243.3</ele>
        <time>2026-03-25T12:20:57Z</time>
      </trkpt>
      <trkpt lat="44.68761" lon="6.8609">
        <ele>2243.3</ele>
        <time>2026-03-25T12:20:58Z</time>
      </trkpt>
      <trkpt lat="44.68761" lon="6.8609">
        <ele>2243.3</ele>
        <time>2026-03-25T12:20:59Z</time>
      </trkpt>
      <trkpt lat="44.68761" lon="6.8609">
        <ele>2243.2</ele>
        <time>2026-03-25T12:21:00Z</time>
      </trkpt>
      <trkpt lat="44.68761" lon="6.8609">
        <ele>2243.2</ele>
        <time>2026-03-25T12:21:01Z</time>
      </trkpt>
      <trkpt lat="44.68761" lon="6.8609">
        <ele>2243.2</ele>
        <time>2026-03-25T12:21:02Z</time>
      </trkpt>
      <trkpt lat="44.68761" lon="6.8609">
        <ele>2243.2</ele>
        <time>2026-03-25T12:21:03Z</time>
      </trkpt>
      <trkpt lat="44.68761" lon="6.8609">
        <ele>2243.2</ele>
        <time>2026-03-25T12:21:04Z</time>
      </trkpt>
      <trkpt lat="44.68761" lon="6.8609">
        <ele>2243.2</ele>
        <time>2026-03-25T12:21:05Z</time>
      </trkpt>
      <trkpt lat="44.68761" lon="6.8609">
        <ele>2243.2</ele>
        <time>2026-03-25T12:21:06Z</time>
      </trkpt>
      <trkpt lat="44.68761" lon="6.8609">
        <ele>2243.2</ele>
        <time>2026-03-25T12:21:07Z</time>
      </trkpt>
      <trkpt lat="44.68761" lon="6.8609">
        <ele>2243.2</ele>
        <time>2026-03-25T12:21:08Z</time>
      </trkpt>
      <trkpt lat="44.68761" lon="6.8609">
        <ele>2243.2</ele>
        <time>2026-03-25T12:21:09Z</time>
      </trkpt>
      <trkpt lat="44.68761" lon="6.8609">
        <ele>2243.2</ele>
        <time>2026-03-25T12:21:10Z</time>
      </trkpt>
      <trkpt lat="44.68761" lon="6.8609">
        <ele>2243.2</ele>
        <time>2026-03-25T12:21:11Z</time>
      </trkpt>
      <trkpt lat="44.68761" lon="6.8609">
        <ele>2243.2</ele>
        <time>2026-03-25T12:21:12Z</time>
      </trkpt>
      <trkpt lat="44.68761" lon="6.8609">
        <ele>2243.2</ele>
        <time>2026-03-25T12:21:13Z</time>
      </trkpt>
      <trkpt lat="44.68761" lon="6.8609">
        <ele>2243.2</ele>
        <time>2026-03-25T12:21:14Z</time>
      </trkpt>
      <trkpt lat="44.68761" lon="6.8609">
        <ele>2243.2</ele>
        <time>2026-03-25T12:21:15Z</time>
      </trkpt>
      <trkpt lat="44.68761" lon="6.8609">
        <ele>2243.2</ele>
        <time>2026-03-25T12:21:16Z</time>
      </trkpt>
      <trkpt lat="44.68761" lon="6.8609">
        <ele>2243.2</ele>
        <time>2026-03-25T12:21:17Z</time>
      </trkpt>
      <trkpt lat="44.68761" lon="6.8609">
        <ele>2243.2</ele>
        <time>2026-03-25T12:21:18Z</time>
      </trkpt>
      <trkpt lat="44.68761" lon="6.8609">
        <ele>2243.2</ele>
        <time>2026-03-25T12:21:19Z</time>
      </trkpt>
      <trkpt lat="44.68761" lon="6.8609">
        <ele>2243.2</ele>
        <time>2026-03-25T12:21:20Z</time>
      </trkpt>
      <trkpt lat="44.68761" lon="6.8609">
        <ele>2243.2</ele>
        <time>2026-03-25T12:21:21Z</time>
      </trkpt>
      <trkpt lat="44.68761" lon="6.8609">
        <ele>2243.2</ele>
        <time>2026-03-25T12:21:22Z</time>
      </trkpt>
      <trkpt lat="44.68761" lon="6.8609">
        <ele>2243.2</ele>
        <time>2026-03-25T12:21:23Z</time>
      </trkpt>
      <trkpt lat="44.68761" lon="6.8609">
        <ele>2243.2</ele>
        <time>2026-03-25T12:21:24Z</time>
      </trkpt>
      <trkpt lat="44.68761" lon="6.8609">
        <ele>2243.2</ele>
        <time>2026-03-25T12:21:25Z</time>
      </trkpt>
      <trkpt lat="44.68761" lon="6.8609">
        <ele>2243.2</ele>
        <time>2026-03-25T12:21:26Z</time>
      </trkpt>
      <trkpt lat="44.68761" lon="6.8609">
        <ele>2243.2</ele>
        <time>2026-03-25T12:21:27Z</time>
      </trkpt>
      <trkpt lat="44.68761" lon="6.8609">
        <ele>2243.2</ele>
        <time>2026-03-25T12:21:28Z</time>
      </trkpt>
      <trkpt lat="44.68761" lon="6.8609">
        <ele>2243.2</ele>
        <time>2026-03-25T12:21:29Z</time>
      </trkpt>
      <trkpt lat="44.68761" lon="6.8609">
        <ele>2243.2</ele>
        <time>2026-03-25T12:21:30Z</time>
      </trkpt>
      <trkpt lat="44.68761" lon="6.8609">
        <ele>2243.2</ele>
        <time>2026-03-25T12:21:31Z</time>
      </trkpt>
      <trkpt lat="44.68761" lon="6.8609">
        <ele>2243.2</ele>
        <time>2026-03-25T12:21:32Z</time>
      </trkpt>
      <trkpt lat="44.68761" lon="6.8609">
        <ele>2243.2</ele>
        <time>2026-03-25T12:21:33Z</time>
      </trkpt>
      <trkpt lat="44.68761" lon="6.8609">
        <ele>2243.2</ele>
        <time>2026-03-25T12:21:34Z</time>
      </trkpt>
      <trkpt lat="44.68761" lon="6.8609">
        <ele>2243.2</ele>
        <time>2026-03-25T12:21:35Z</time>
      </trkpt>
      <trkpt lat="44.68761" lon="6.8609">
        <ele>2243.2</ele>
        <time>2026-03-25T12:21:36Z</time>
      </trkpt>
      <trkpt lat="44.68761" lon="6.8609">
        <ele>2243.2</ele>
        <time>2026-03-25T12:21:37Z</time>
      </trkpt>
      <trkpt lat="44.68761" lon="6.8609">
        <ele>2243.2</ele>
        <time>2026-03-25T12:21:38Z</time>
      </trkpt>
      <trkpt lat="44.68761" lon="6.8609">
        <ele>2243.2</ele>
        <time>2026-03-25T12:21:39Z</time>
      </trkpt>
      <trkpt lat="44.68761" lon="6.8609">
        <ele>2243.2</ele>
        <time>2026-03-25T12:21:40Z</time>
      </trkpt>
      <trkpt lat="44.68761" lon="6.8609">
        <ele>2243.2</ele>
        <time>2026-03-25T12:21:41Z</time>
      </trkpt>
      <trkpt lat="44.68761" lon="6.8609">
        <ele>2243.2</ele>
        <time>2026-03-25T12:21:42Z</time>
      </trkpt>
      <trkpt lat="44.68761" lon="6.8609">
        <ele>2243.2</ele>
        <time>2026-03-25T12:21:43Z</time>
      </trkpt>
      <trkpt lat="44.68761" lon="6.8609">
        <ele>2243.2</ele>
        <time>2026-03-25T12:21:44Z</time>
      </trkpt>
      <trkpt lat="44.68761" lon="6.8609">
        <ele>2243.2</ele>
        <time>2026-03-25T12:21:45Z</time>
      </trkpt>
      <trkpt lat="44.68761" lon="6.8609">
        <ele>2243.2</ele>
        <time>2026-03-25T12:21:46Z</time>
      </trkpt>
      <trkpt lat="44.68761" lon="6.8609">
        <ele>2243.2</ele>
        <time>2026-03-25T12:21:47Z</time>
      </trkpt>
      <trkpt lat="44.68761" lon="6.8609">
        <ele>2243.2</ele>
        <time>2026-03-25T12:21:48Z</time>
      </trkpt>
      <trkpt lat="44.68761" lon="6.8609">
        <ele>2243.2</ele>
        <time>2026-03-25T12:21:49Z</time>
      </trkpt>
      <trkpt lat="44.68761" lon="6.8609">
        <ele>2243.2</ele>
        <time>2026-03-25T12:21:50Z</time>
      </trkpt>
      <trkpt lat="44.68761" lon="6.8609">
        <ele>2243.2</ele>
        <time>2026-03-25T12:21:51Z</time>
      </trkpt>
      <trkpt lat="44.68761" lon="6.8609">
        <ele>2243.2</ele>
        <time>2026-03-25T12:21:52Z</time>
      </trkpt>
      <trkpt lat="44.68761" lon="6.8609">
        <ele>2243.2</ele>
        <time>2026-03-25T12:21:53Z</time>
      </trkpt>
      <trkpt lat="44.68761" lon="6.8609">
        <ele>2243.2</ele>
        <time>2026-03-25T12:21:54Z</time>
      </trkpt>
      <trkpt lat="44.68761" lon="6.8609">
        <ele>2243.2</ele>
        <time>2026-03-25T12:21:55Z</time>
      </trkpt>
      <trkpt lat="44.68761" lon="6.8609">
        <ele>2243.2</ele>
        <time>2026-03-25T12:21:56Z</time>
      </trkpt>
      <trkpt lat="44.68761" lon="6.8609">
        <ele>2243.2</ele>
        <time>2026-03-25T12:21:57Z</time>
      </trkpt>
      <trkpt lat="44.68761" lon="6.8609">
        <ele>2243.2</ele>
        <time>2026-03-25T12:21:58Z</time>
      </trkpt>
      <trkpt lat="44.68761" lon="6.8609">
        <ele>2243.2</ele>
        <time>2026-03-25T12:21:59Z</time>
      </trkpt>
      <trkpt lat="44.68761" lon="6.8609">
        <ele>2243.2</ele>
        <time>2026-03-25T12:22:00Z</time>
      </trkpt>
      <trkpt lat="44.68761" lon="6.8609">
        <ele>2243.2</ele>
        <time>2026-03-25T12:22:01Z</time>
      </trkpt>
      <trkpt lat="44.68761" lon="6.8609">
        <ele>2243.2</ele>
        <time>2026-03-25T12:22:02Z</time>
      </trkpt>
      <trkpt lat="44.68761" lon="6.8609">
        <ele>2243.2</ele>
        <time>2026-03-25T12:22:03Z</time>
      </trkpt>
      <trkpt lat="44.68761" lon="6.8609">
        <ele>2243.1</ele>
        <time>2026-03-25T12:22:04Z</time>
      </trkpt>
      <trkpt lat="44.68761" lon="6.8609">
        <ele>2243.1</ele>
        <time>2026-03-25T12:22:05Z</time>
      </trkpt>
      <trkpt lat="44.68761" lon="6.8609">
        <ele>2243.1</ele>
        <time>2026-03-25T12:22:06Z</time>
      </trkpt>
      <trkpt lat="44.68761" lon="6.8609">
        <ele>2243.1</ele>
        <time>2026-03-25T12:22:07Z</time>
      </trkpt>
      <trkpt lat="44.68761" lon="6.8609">
        <ele>2243.1</ele>
        <time>2026-03-25T12:22:08Z</time>
      </trkpt>
      <trkpt lat="44.68761" lon="6.8609">
        <ele>2243.1</ele>
        <time>2026-03-25T12:22:09Z</time>
      </trkpt>
      <trkpt lat="44.68761" lon="6.8609">
        <ele>2243.1</ele>
        <time>2026-03-25T12:22:10Z</time>
      </trkpt>
      <trkpt lat="44.68761" lon="6.8609">
        <ele>2243.1</ele>
        <time>2026-03-25T12:22:11Z</time>
      </trkpt>
      <trkpt lat="44.68761" lon="6.8609">
        <ele>2243.1</ele>
        <time>2026-03-25T12:22:12Z</time>
      </trkpt>
      <trkpt lat="44.68761" lon="6.8609">
        <ele>2243.1</ele>
        <time>2026-03-25T12:22:13Z</time>
      </trkpt>
      <trkpt lat="44.68761" lon="6.8609">
        <ele>2243.1</ele>
        <time>2026-03-25T12:22:14Z</time>
      </trkpt>
      <trkpt lat="44.68761" lon="6.8609">
        <ele>2243.1</ele>
        <time>2026-03-25T12:22:15Z</time>
      </trkpt>
      <trkpt lat="44.68761" lon="6.8609">
        <ele>2243.1</ele>
        <time>2026-03-25T12:22:16Z</time>
      </trkpt>
      <trkpt lat="44.68761" lon="6.8609">
        <ele>2243.1</ele>
        <time>2026-03-25T12:22:17Z</time>
      </trkpt>
      <trkpt lat="44.68761" lon="6.8609">
        <ele>2243.1</ele>
        <time>2026-03-25T12:22:18Z</time>
      </trkpt>
      <trkpt lat="44.68761" lon="6.8609">
        <ele>2243.1</ele>
        <time>2026-03-25T12:22:19Z</time>
      </trkpt>
      <trkpt lat="44.68761" lon="6.8609">
        <ele>2243.1</ele>
        <time>2026-03-25T12:22:20Z</time>
      </trkpt>
      <trkpt lat="44.68761" lon="6.8609">
        <ele>2243.1</ele>
        <time>2026-03-25T12:22:21Z</time>
      </trkpt>
      <trkpt lat="44.68761" lon="6.8609">
        <ele>2243.1</ele>
        <time>2026-03-25T12:22:22Z</time>
      </trkpt>
      <trkpt lat="44.68761" lon="6.8609">
        <ele>2243.1</ele>
        <time>2026-03-25T12:22:23Z</time>
      </trkpt>
      <trkpt lat="44.68761" lon="6.8609">
        <ele>2243.1</ele>
        <time>2026-03-25T12:22:24Z</time>
      </trkpt>
      <trkpt lat="44.68761" lon="6.8609">
        <ele>2243.1</ele>
        <time>2026-03-25T12:22:25Z</time>
      </trkpt>
      <trkpt lat="44.68761" lon="6.8609">
        <ele>2243.1</ele>
        <time>2026-03-25T12:22:26Z</time>
      </trkpt>
      <trkpt lat="44.68761" lon="6.8609">
        <ele>2243.1</ele>
        <time>2026-03-25T12:22:27Z</time>
      </trkpt>
      <trkpt lat="44.68761" lon="6.8609">
        <ele>2243.1</ele>
        <time>2026-03-25T12:22:28Z</time>
      </trkpt>
      <trkpt lat="44.68761" lon="6.8609">
        <ele>2243.1</ele>
        <time>2026-03-25T12:22:29Z</time>
      </trkpt>
      <trkpt lat="44.68761" lon="6.8609">
        <ele>2243.1</ele>
        <time>2026-03-25T12:22:30Z</time>
      </trkpt>
      <trkpt lat="44.68761" lon="6.8609">
        <ele>2243.1</ele>
        <time>2026-03-25T12:22:31Z</time>
      </trkpt>
      <trkpt lat="44.68761" lon="6.8609">
        <ele>2243.1</ele>
        <time>2026-03-25T12:22:32Z</time>
      </trkpt>
      <trkpt lat="44.68761" lon="6.8609">
        <ele>2243.1</ele>
        <time>2026-03-25T12:22:33Z</time>
      </trkpt>
      <trkpt lat="44.68761" lon="6.8609">
        <ele>2243.1</ele>
        <time>2026-03-25T12:22:34Z</time>
      </trkpt>
      <trkpt lat="44.68761" lon="6.8609">
        <ele>2243.1</ele>
        <time>2026-03-25T12:22:35Z</time>
      </trkpt>
      <trkpt lat="44.68761" lon="6.8609">
        <ele>2243.1</ele>
        <time>2026-03-25T12:22:36Z</time>
      </trkpt>
      <trkpt lat="44.68761" lon="6.8609">
        <ele>2243.1</ele>
        <time>2026-03-25T12:22:37Z</time>
      </trkpt>
      <trkpt lat="44.68761" lon="6.8609">
        <ele>2243.1</ele>
        <time>2026-03-25T12:22:38Z</time>
      </trkpt>
      <trkpt lat="44.68761" lon="6.8609">
        <ele>2243.1</ele>
        <time>2026-03-25T12:22:39Z</time>
      </trkpt>
      <trkpt lat="44.68761" lon="6.8609">
        <ele>2243.1</ele>
        <time>2026-03-25T12:22:40Z</time>
      </trkpt>
      <trkpt lat="44.68761" lon="6.8609">
        <ele>2243.1</ele>
        <time>2026-03-25T12:22:41Z</time>
      </trkpt>
      <trkpt lat="44.68761" lon="6.8609">
        <ele>2243.1</ele>
        <time>2026-03-25T12:22:42Z</time>
      </trkpt>
      <trkpt lat="44.68761" lon="6.8609">
        <ele>2243.1</ele>
        <time>2026-03-25T12:22:43Z</time>
      </trkpt>
      <trkpt lat="44.68761" lon="6.8609">
        <ele>2243.1</ele>
        <time>2026-03-25T12:22:44Z</time>
      </trkpt>
      <trkpt lat="44.68761" lon="6.8609">
        <ele>2243.1</ele>
        <time>2026-03-25T12:22:45Z</time>
      </trkpt>
      <trkpt lat="44.68761" lon="6.8609">
        <ele>2243.1</ele>
        <time>2026-03-25T12:22:46Z</time>
      </trkpt>
      <trkpt lat="44.68761" lon="6.8609">
        <ele>2243.1</ele>
        <time>2026-03-25T12:22:47Z</time>
      </trkpt>
      <trkpt lat="44.68761" lon="6.8609">
        <ele>2243.1</ele>
        <time>2026-03-25T12:22:48Z</time>
      </trkpt>
      <trkpt lat="44.68761" lon="6.8609">
        <ele>2243.1</ele>
        <time>2026-03-25T12:22:49Z</time>
      </trkpt>
      <trkpt lat="44.68761" lon="6.8609">
        <ele>2243.1</ele>
        <time>2026-03-25T12:22:50Z</time>
      </trkpt>
      <trkpt lat="44.68761" lon="6.8609">
        <ele>2243.1</ele>
        <time>2026-03-25T12:22:51Z</time>
      </trkpt>
      <trkpt lat="44.68761" lon="6.8609">
        <ele>2243.1</ele>
        <time>2026-03-25T12:22:52Z</time>
      </trkpt>
      <trkpt lat="44.68761" lon="6.8609">
        <ele>2243.1</ele>
        <time>2026-03-25T12:22:53Z</time>
      </trkpt>
      <trkpt lat="44.68761" lon="6.8609">
        <ele>2243.1</ele>
        <time>2026-03-25T12:22:54Z</time>
      </trkpt>
      <trkpt lat="44.68761" lon="6.8609">
        <ele>2243.1</ele>
        <time>2026-03-25T12:22:55Z</time>
      </trkpt>
      <trkpt lat="44.68761" lon="6.8609">
        <ele>2243.1</ele>
        <time>2026-03-25T12:22:56Z</time>
      </trkpt>
      <trkpt lat="44.68761" lon="6.8609">
        <ele>2243.1</ele>
        <time>2026-03-25T12:22:57Z</time>
      </trkpt>
      <trkpt lat="44.68761" lon="6.8609">
        <ele>2243.1</ele>
        <time>2026-03-25T12:22:58Z</time>
      </trkpt>
      <trkpt lat="44.68761" lon="6.8609">
        <ele>2243.1</ele>
        <time>2026-03-25T12:22:59Z</time>
      </trkpt>
      <trkpt lat="44.68761" lon="6.8609">
        <ele>2243.1</ele>
        <time>2026-03-25T12:23:00Z</time>
      </trkpt>
      <trkpt lat="44.68761" lon="6.8609">
        <ele>2243.1</ele>
        <time>2026-03-25T12:23:01Z</time>
      </trkpt>
      <trkpt lat="44.68761" lon="6.8609">
        <ele>2243.1</ele>
        <time>2026-03-25T12:23:02Z</time>
      </trkpt>
      <trkpt lat="44.68761" lon="6.8609">
        <ele>2243.1</ele>
        <time>2026-03-25T12:23:03Z</time>
      </trkpt>
      <trkpt lat="44.68761" lon="6.8609">
        <ele>2243.1</ele>
        <time>2026-03-25T12:23:04Z</time>
      </trkpt>
      <trkpt lat="44.68761" lon="6.8609">
        <ele>2243.1</ele>
        <time>2026-03-25T12:23:05Z</time>
      </trkpt>
      <trkpt lat="44.68761" lon="6.8609">
        <ele>2243.1</ele>
        <time>2026-03-25T12:23:06Z</time>
      </trkpt>
      <trkpt lat="44.68761" lon="6.8609">
        <ele>2243.1</ele>
        <time>2026-03-25T12:23:07Z</time>
      </trkpt>
      <trkpt lat="44.68761" lon="6.8609">
        <ele>2243.1</ele>
        <time>2026-03-25T12:23:08Z</time>
      </trkpt>
      <trkpt lat="44.68761" lon="6.8609">
        <ele>2243.1</ele>
        <time>2026-03-25T12:23:09Z</time>
      </trkpt>
      <trkpt lat="44.68761" lon="6.8609">
        <ele>2243.1</ele>
        <time>2026-03-25T12:23:10Z</time>
      </trkpt>
      <trkpt lat="44.68761" lon="6.8609">
        <ele>2243.1</ele>
        <time>2026-03-25T12:23:11Z</time>
      </trkpt>
      <trkpt lat="44.68761" lon="6.8609">
        <ele>2243.1</ele>
        <time>2026-03-25T12:23:12Z</time>
      </trkpt>
      <trkpt lat="44.68761" lon="6.8609">
        <ele>2243.1</ele>
        <time>2026-03-25T12:23:13Z</time>
      </trkpt>
      <trkpt lat="44.68761" lon="6.8609">
        <ele>2243.1</ele>
        <time>2026-03-25T12:23:14Z</time>
      </trkpt>
      <trkpt lat="44.68761" lon="6.8609">
        <ele>2243.1</ele>
        <time>2026-03-25T12:23:15Z</time>
      </trkpt>
      <trkpt lat="44.68761" lon="6.8609">
        <ele>2243.1</ele>
        <time>2026-03-25T12:23:16Z</time>
      </trkpt>
      <trkpt lat="44.68761" lon="6.8609">
        <ele>2243.1</ele>
        <time>2026-03-25T12:23:17Z</time>
      </trkpt>
      <trkpt lat="44.68761" lon="6.8609">
        <ele>2243.1</ele>
        <time>2026-03-25T12:23:18Z</time>
      </trkpt>
      <trkpt lat="44.68761" lon="6.8609">
        <ele>2243.1</ele>
        <time>2026-03-25T12:23:19Z</time>
      </trkpt>
      <trkpt lat="44.68761" lon="6.8609">
        <ele>2243.1</ele>
        <time>2026-03-25T12:23:20Z</time>
      </trkpt>
      <trkpt lat="44.68761" lon="6.8609">
        <ele>2243.1</ele>
        <time>2026-03-25T12:23:21Z</time>
      </trkpt>
      <trkpt lat="44.68761" lon="6.8609">
        <ele>2243.1</ele>
        <time>2026-03-25T12:23:22Z</time>
      </trkpt>
      <trkpt lat="44.68761" lon="6.8609">
        <ele>2243.1</ele>
        <time>2026-03-25T12:23:23Z</time>
      </trkpt>
      <trkpt lat="44.68761" lon="6.8609">
        <ele>2243.1</ele>
        <time>2026-03-25T12:23:24Z</time>
      </trkpt>
      <trkpt lat="44.68761" lon="6.8609">
        <ele>2243.1</ele>
        <time>2026-03-25T12:23:25Z</time>
      </trkpt>
      <trkpt lat="44.68761" lon="6.8609">
        <ele>2243.1</ele>
        <time>2026-03-25T12:23:26Z</time>
      </trkpt>
      <trkpt lat="44.68761" lon="6.8609">
        <ele>2243.1</ele>
        <time>2026-03-25T12:23:27Z</time>
      </trkpt>
      <trkpt lat="44.68761" lon="6.8609">
        <ele>2243.1</ele>
        <time>2026-03-25T12:23:28Z</time>
      </trkpt>
      <trkpt lat="44.68761" lon="6.8609">
        <ele>2243.1</ele>
        <time>2026-03-25T12:23:29Z</time>
      </trkpt>
      <trkpt lat="44.68761" lon="6.8609">
        <ele>2243.1</ele>
        <time>2026-03-25T12:23:30Z</time>
      </trkpt>
      <trkpt lat="44.68761" lon="6.8609">
        <ele>2243.1</ele>
        <time>2026-03-25T12:23:31Z</time>
      </trkpt>
      <trkpt lat="44.68761" lon="6.8609">
        <ele>2243.1</ele>
        <time>2026-03-25T12:23:32Z</time>
      </trkpt>
      <trkpt lat="44.68761" lon="6.8609">
        <ele>2243.1</ele>
        <time>2026-03-25T12:23:33Z</time>
      </trkpt>
      <trkpt lat="44.68761" lon="6.8609">
        <ele>2243.1</ele>
        <time>2026-03-25T12:23:34Z</time>
      </trkpt>
      <trkpt lat="44.68761" lon="6.8609">
        <ele>2243.1</ele>
        <time>2026-03-25T12:23:35Z</time>
      </trkpt>
      <trkpt lat="44.68761" lon="6.8609">
        <ele>2243.1</ele>
        <time>2026-03-25T12:23:36Z</time>
      </trkpt>
      <trkpt lat="44.68761" lon="6.8609">
        <ele>2243.1</ele>
        <time>2026-03-25T12:23:37Z</time>
      </trkpt>
      <trkpt lat="44.68761" lon="6.8609">
        <ele>2243.1</ele>
        <time>2026-03-25T12:23:38Z</time>
      </trkpt>
      <trkpt lat="44.68761" lon="6.8609">
        <ele>2243.1</ele>
        <time>2026-03-25T12:23:39Z</time>
      </trkpt>
      <trkpt lat="44.68761" lon="6.8609">
        <ele>2243.1</ele>
        <time>2026-03-25T12:23:40Z</time>
      </trkpt>
      <trkpt lat="44.68761" lon="6.8609">
        <ele>2243.1</ele>
        <time>2026-03-25T12:23:41Z</time>
      </trkpt>
      <trkpt lat="44.68761" lon="6.8609">
        <ele>2243.1</ele>
        <time>2026-03-25T12:23:42Z</time>
      </trkpt>
      <trkpt lat="44.68761" lon="6.8609">
        <ele>2243.1</ele>
        <time>2026-03-25T12:23:43Z</time>
      </trkpt>
      <trkpt lat="44.68761" lon="6.8609">
        <ele>2243.1</ele>
        <time>2026-03-25T12:23:44Z</time>
      </trkpt>
      <trkpt lat="44.68761" lon="6.8609">
        <ele>2243.1</ele>
        <time>2026-03-25T12:23:45Z</time>
      </trkpt>
      <trkpt lat="44.68761" lon="6.8609">
        <ele>2243.1</ele>
        <time>2026-03-25T12:23:46Z</time>
      </trkpt>
      <trkpt lat="44.68761" lon="6.8609">
        <ele>2243.1</ele>
        <time>2026-03-25T12:23:47Z</time>
      </trkpt>
      <trkpt lat="44.68761" lon="6.8609">
        <ele>2243.1</ele>
        <time>2026-03-25T12:23:48Z</time>
      </trkpt>
      <trkpt lat="44.68761" lon="6.8609">
        <ele>2243.1</ele>
        <time>2026-03-25T12:23:49Z</time>
      </trkpt>
      <trkpt lat="44.68761" lon="6.8609">
        <ele>2243.1</ele>
        <time>2026-03-25T12:23:50Z</time>
      </trkpt>
      <trkpt lat="44.68761" lon="6.8609">
        <ele>2243.1</ele>
        <time>2026-03-25T12:23:51Z</time>
      </trkpt>
      <trkpt lat="44.68761" lon="6.8609">
        <ele>2243.1</ele>
        <time>2026-03-25T12:23:52Z</time>
      </trkpt>
      <trkpt lat="44.68761" lon="6.8609">
        <ele>2243.1</ele>
        <time>2026-03-25T12:23:53Z</time>
      </trkpt>
      <trkpt lat="44.68761" lon="6.8609">
        <ele>2243.1</ele>
        <time>2026-03-25T12:23:54Z</time>
      </trkpt>
      <trkpt lat="44.68761" lon="6.8609">
        <ele>2243.1</ele>
        <time>2026-03-25T12:23:55Z</time>
      </trkpt>
      <trkpt lat="44.68761" lon="6.8609">
        <ele>2243.1</ele>
        <time>2026-03-25T12:23:56Z</time>
      </trkpt>
      <trkpt lat="44.68761" lon="6.8609">
        <ele>2243.1</ele>
        <time>2026-03-25T12:23:57Z</time>
      </trkpt>
      <trkpt lat="44.68761" lon="6.8609">
        <ele>2243.1</ele>
        <time>2026-03-25T12:23:58Z</time>
      </trkpt>
      <trkpt lat="44.68761" lon="6.8609">
        <ele>2243.1</ele>
        <time>2026-03-25T12:23:59Z</time>
      </trkpt>
      <trkpt lat="44.68761" lon="6.8609">
        <ele>2243.1</ele>
        <time>2026-03-25T12:24:00Z</time>
      </trkpt>
      <trkpt lat="44.68761" lon="6.8609">
        <ele>2243.1</ele>
        <time>2026-03-25T12:24:01Z</time>
      </trkpt>
      <trkpt lat="44.68761" lon="6.8609">
        <ele>2243.1</ele>
        <time>2026-03-25T12:24:02Z</time>
      </trkpt>
      <trkpt lat="44.68761" lon="6.8609">
        <ele>2243.1</ele>
        <time>2026-03-25T12:24:03Z</time>
      </trkpt>
      <trkpt lat="44.68761" lon="6.8609">
        <ele>2243.1</ele>
        <time>2026-03-25T12:24:04Z</time>
      </trkpt>
      <trkpt lat="44.68761" lon="6.8609">
        <ele>2243.1</ele>
        <time>2026-03-25T12:24:05Z</time>
      </trkpt>
      <trkpt lat="44.68761" lon="6.8609">
        <ele>2243.1</ele>
        <time>2026-03-25T12:24:06Z</time>
      </trkpt>
      <trkpt lat="44.68761" lon="6.8609">
        <ele>2243.1</ele>
        <time>2026-03-25T12:24:07Z</time>
      </trkpt>
      <trkpt lat="44.68761" lon="6.8609">
        <ele>2243.1</ele>
        <time>2026-03-25T12:24:08Z</time>
      </trkpt>
      <trkpt lat="44.68761" lon="6.8609">
        <ele>2243.1</ele>
        <time>2026-03-25T12:24:09Z</time>
      </trkpt>
      <trkpt lat="44.68761" lon="6.8609">
        <ele>2243.1</ele>
        <time>2026-03-25T12:24:10Z</time>
      </trkpt>
      <trkpt lat="44.68761" lon="6.8609">
        <ele>2243.1</ele>
        <time>2026-03-25T12:24:11Z</time>
      </trkpt>
      <trkpt lat="44.68761" lon="6.8609">
        <ele>2243.1</ele>
        <time>2026-03-25T12:24:12Z</time>
      </trkpt>
      <trkpt lat="44.68761" lon="6.8609">
        <ele>2243.1</ele>
        <time>2026-03-25T12:24:13Z</time>
      </trkpt>
      <trkpt lat="44.68761" lon="6.8609">
        <ele>2243.1</ele>
        <time>2026-03-25T12:24:14Z</time>
      </trkpt>
      <trkpt lat="44.68761" lon="6.8609">
        <ele>2243.1</ele>
        <time>2026-03-25T12:24:15Z</time>
      </trkpt>
      <trkpt lat="44.68761" lon="6.8609">
        <ele>2243.1</ele>
        <time>2026-03-25T12:24:16Z</time>
      </trkpt>
      <trkpt lat="44.68761" lon="6.8609">
        <ele>2243.1</ele>
        <time>2026-03-25T12:24:17Z</time>
      </trkpt>
      <trkpt lat="44.68761" lon="6.8609">
        <ele>2243.1</ele>
        <time>2026-03-25T12:24:18Z</time>
      </trkpt>
      <trkpt lat="44.68761" lon="6.8609">
        <ele>2243.1</ele>
        <time>2026-03-25T12:24:19Z</time>
      </trkpt>
      <trkpt lat="44.68761" lon="6.8609">
        <ele>2243.1</ele>
        <time>2026-03-25T12:24:20Z</time>
      </trkpt>
      <trkpt lat="44.68761" lon="6.8609">
        <ele>2243.1</ele>
        <time>2026-03-25T12:24:21Z</time>
      </trkpt>
      <trkpt lat="44.68761" lon="6.8609">
        <ele>2243.1</ele>
        <time>2026-03-25T12:24:22Z</time>
      </trkpt>
      <trkpt lat="44.68761" lon="6.8609">
        <ele>2243.1</ele>
        <time>2026-03-25T12:24:23Z</time>
      </trkpt>
      <trkpt lat="44.68761" lon="6.8609">
        <ele>2243.1</ele>
        <time>2026-03-25T12:24:24Z</time>
      </trkpt>
      <trkpt lat="44.68761" lon="6.8609">
        <ele>2243.1</ele>
        <time>2026-03-25T12:24:25Z</time>
      </trkpt>
      <trkpt lat="44.68761" lon="6.8609">
        <ele>2243</ele>
        <time>2026-03-25T12:24:26Z</time>
      </trkpt>
      <trkpt lat="44.68761" lon="6.8609">
        <ele>2243</ele>
        <time>2026-03-25T12:24:27Z</time>
      </trkpt>
      <trkpt lat="44.68762" lon="6.8609">
        <ele>2243</ele>
        <time>2026-03-25T12:24:28Z</time>
      </trkpt>
      <trkpt lat="44.68762" lon="6.8609">
        <ele>2242.9</ele>
        <time>2026-03-25T12:24:29Z</time>
      </trkpt>
      <trkpt lat="44.68762" lon="6.8609">
        <ele>2242.9</ele>
        <time>2026-03-25T12:24:30Z</time>
      </trkpt>
      <trkpt lat="44.68762" lon="6.8609">
        <ele>2242.9</ele>
        <time>2026-03-25T12:24:31Z</time>
      </trkpt>
      <trkpt lat="44.68762" lon="6.8609">
        <ele>2242.8</ele>
        <time>2026-03-25T12:24:32Z</time>
      </trkpt>
      <trkpt lat="44.68762" lon="6.8609">
        <ele>2242.8</ele>
        <time>2026-03-25T12:24:33Z</time>
      </trkpt>
      <trkpt lat="44.68762" lon="6.8609">
        <ele>2242.8</ele>
        <time>2026-03-25T12:24:34Z</time>
      </trkpt>
      <trkpt lat="44.68762" lon="6.8609">
        <ele>2242.8</ele>
        <time>2026-03-25T12:24:35Z</time>
      </trkpt>
      <trkpt lat="44.68762" lon="6.8609">
        <ele>2242.8</ele>
        <time>2026-03-25T12:24:36Z</time>
      </trkpt>
      <trkpt lat="44.68762" lon="6.8609">
        <ele>2242.7</ele>
        <time>2026-03-25T12:24:37Z</time>
      </trkpt>
      <trkpt lat="44.68762" lon="6.8609">
        <ele>2242.7</ele>
        <time>2026-03-25T12:24:38Z</time>
      </trkpt>
      <trkpt lat="44.68762" lon="6.8609">
        <ele>2242.7</ele>
        <time>2026-03-25T12:24:39Z</time>
      </trkpt>
      <trkpt lat="44.68762" lon="6.8609">
        <ele>2242.7</ele>
        <time>2026-03-25T12:24:40Z</time>
      </trkpt>
      <trkpt lat="44.68762" lon="6.8609">
        <ele>2242.7</ele>
        <time>2026-03-25T12:24:41Z</time>
      </trkpt>
      <trkpt lat="44.68762" lon="6.8609">
        <ele>2242.7</ele>
        <time>2026-03-25T12:24:42Z</time>
      </trkpt>
      <trkpt lat="44.68761" lon="6.86091">
        <ele>2242.6</ele>
        <time>2026-03-25T12:24:43Z</time>
      </trkpt>
      <trkpt lat="44.68761" lon="6.86091">
        <ele>2242.5</ele>
        <time>2026-03-25T12:24:44Z</time>
      </trkpt>
      <trkpt lat="44.6876" lon="6.86091">
        <ele>2242.4</ele>
        <time>2026-03-25T12:24:45Z</time>
      </trkpt>
      <trkpt lat="44.6876" lon="6.86091">
        <ele>2242.4</ele>
        <time>2026-03-25T12:24:46Z</time>
      </trkpt>
      <trkpt lat="44.6876" lon="6.86091">
        <ele>2242.4</ele>
        <time>2026-03-25T12:24:47Z</time>
      </trkpt>
      <trkpt lat="44.6876" lon="6.86091">
        <ele>2242.3</ele>
        <time>2026-03-25T12:24:48Z</time>
      </trkpt>
      <trkpt lat="44.68761" lon="6.86091">
        <ele>2242.3</ele>
        <time>2026-03-25T12:24:49Z</time>
      </trkpt>
      <trkpt lat="44.68761" lon="6.86091">
        <ele>2242.2</ele>
        <time>2026-03-25T12:24:50Z</time>
      </trkpt>
      <trkpt lat="44.68761" lon="6.86091">
        <ele>2242.2</ele>
        <time>2026-03-25T12:24:51Z</time>
      </trkpt>
      <trkpt lat="44.68761" lon="6.86091">
        <ele>2242.2</ele>
        <time>2026-03-25T12:24:52Z</time>
      </trkpt>
      <trkpt lat="44.68761" lon="6.86091">
        <ele>2242.2</ele>
        <time>2026-03-25T12:24:53Z</time>
      </trkpt>
      <trkpt lat="44.68761" lon="6.86091">
        <ele>2242.2</ele>
        <time>2026-03-25T12:24:54Z</time>
      </trkpt>
      <trkpt lat="44.68761" lon="6.86091">
        <ele>2242.2</ele>
        <time>2026-03-25T12:24:55Z</time>
      </trkpt>
      <trkpt lat="44.68761" lon="6.86091">
        <ele>2242.2</ele>
        <time>2026-03-25T12:24:56Z</time>
      </trkpt>
      <trkpt lat="44.68761" lon="6.86091">
        <ele>2242.2</ele>
        <time>2026-03-25T12:24:57Z</time>
      </trkpt>
      <trkpt lat="44.68761" lon="6.86091">
        <ele>2242.2</ele>
        <time>2026-03-25T12:24:58Z</time>
      </trkpt>
      <trkpt lat="44.68761" lon="6.86091">
        <ele>2242.2</ele>
        <time>2026-03-25T12:24:59Z</time>
      </trkpt>
      <trkpt lat="44.68761" lon="6.86091">
        <ele>2242.2</ele>
        <time>2026-03-25T12:25:00Z</time>
      </trkpt>
      <trkpt lat="44.68761" lon="6.86091">
        <ele>2242.1</ele>
        <time>2026-03-25T12:25:01Z</time>
      </trkpt>
      <trkpt lat="44.68761" lon="6.86091">
        <ele>2242.1</ele>
        <time>2026-03-25T12:25:02Z</time>
      </trkpt>
      <trkpt lat="44.68761" lon="6.86091">
        <ele>2242.1</ele>
        <time>2026-03-25T12:25:03Z</time>
      </trkpt>
      <trkpt lat="44.68761" lon="6.86091">
        <ele>2242.1</ele>
        <time>2026-03-25T12:25:04Z</time>
      </trkpt>
      <trkpt lat="44.68761" lon="6.86091">
        <ele>2242.1</ele>
        <time>2026-03-25T12:25:05Z</time>
      </trkpt>
      <trkpt lat="44.68761" lon="6.86091">
        <ele>2242.1</ele>
        <time>2026-03-25T12:25:06Z</time>
      </trkpt>
      <trkpt lat="44.68761" lon="6.86091">
        <ele>2242.1</ele>
        <time>2026-03-25T12:25:07Z</time>
      </trkpt>
      <trkpt lat="44.68761" lon="6.86091">
        <ele>2242.1</ele>
        <time>2026-03-25T12:25:08Z</time>
      </trkpt>
      <trkpt lat="44.68761" lon="6.86091">
        <ele>2242.1</ele>
        <time>2026-03-25T12:25:09Z</time>
      </trkpt>
      <trkpt lat="44.68761" lon="6.86091">
        <ele>2242.1</ele>
        <time>2026-03-25T12:25:10Z</time>
      </trkpt>
      <trkpt lat="44.68761" lon="6.86091">
        <ele>2242.1</ele>
        <time>2026-03-25T12:25:11Z</time>
      </trkpt>
      <trkpt lat="44.68761" lon="6.86091">
        <ele>2242.1</ele>
        <time>2026-03-25T12:25:12Z</time>
      </trkpt>
      <trkpt lat="44.68761" lon="6.86091">
        <ele>2242.1</ele>
        <time>2026-03-25T12:25:13Z</time>
      </trkpt>
      <trkpt lat="44.68761" lon="6.86091">
        <ele>2242.1</ele>
        <time>2026-03-25T12:25:14Z</time>
      </trkpt>
      <trkpt lat="44.68761" lon="6.86091">
        <ele>2242.1</ele>
        <time>2026-03-25T12:25:15Z</time>
      </trkpt>
      <trkpt lat="44.68761" lon="6.86091">
        <ele>2242.1</ele>
        <time>2026-03-25T12:25:16Z</time>
      </trkpt>
      <trkpt lat="44.68761" lon="6.86091">
        <ele>2242.1</ele>
        <time>2026-03-25T12:25:17Z</time>
      </trkpt>
      <trkpt lat="44.68761" lon="6.86091">
        <ele>2242.1</ele>
        <time>2026-03-25T12:25:18Z</time>
      </trkpt>
      <trkpt lat="44.68761" lon="6.86091">
        <ele>2242.1</ele>
        <time>2026-03-25T12:25:19Z</time>
      </trkpt>
      <trkpt lat="44.68761" lon="6.86091">
        <ele>2242.1</ele>
        <time>2026-03-25T12:25:20Z</time>
      </trkpt>
      <trkpt lat="44.68761" lon="6.86091">
        <ele>2242.1</ele>
        <time>2026-03-25T12:25:21Z</time>
      </trkpt>
      <trkpt lat="44.68761" lon="6.86091">
        <ele>2242.1</ele>
        <time>2026-03-25T12:25:22Z</time>
      </trkpt>
      <trkpt lat="44.68761" lon="6.86091">
        <ele>2242.1</ele>
        <time>2026-03-25T12:25:23Z</time>
      </trkpt>
      <trkpt lat="44.68761" lon="6.86091">
        <ele>2242.1</ele>
        <time>2026-03-25T12:25:24Z</time>
      </trkpt>
      <trkpt lat="44.68761" lon="6.86091">
        <ele>2242.1</ele>
        <time>2026-03-25T12:25:25Z</time>
      </trkpt>
      <trkpt lat="44.68761" lon="6.86091">
        <ele>2242.1</ele>
        <time>2026-03-25T12:25:26Z</time>
      </trkpt>
      <trkpt lat="44.68761" lon="6.86091">
        <ele>2242.1</ele>
        <time>2026-03-25T12:25:27Z</time>
      </trkpt>
      <trkpt lat="44.68761" lon="6.86091">
        <ele>2242.1</ele>
        <time>2026-03-25T12:25:28Z</time>
      </trkpt>
      <trkpt lat="44.68761" lon="6.86091">
        <ele>2242.1</ele>
        <time>2026-03-25T12:25:29Z</time>
      </trkpt>
      <trkpt lat="44.68761" lon="6.86091">
        <ele>2242.1</ele>
        <time>2026-03-25T12:25:30Z</time>
      </trkpt>
      <trkpt lat="44.68761" lon="6.86091">
        <ele>2242.1</ele>
        <time>2026-03-25T12:25:31Z</time>
      </trkpt>
      <trkpt lat="44.68761" lon="6.86091">
        <ele>2242.1</ele>
        <time>2026-03-25T12:25:32Z</time>
      </trkpt>
      <trkpt lat="44.68761" lon="6.86091">
        <ele>2242.1</ele>
        <time>2026-03-25T12:25:33Z</time>
      </trkpt>
      <trkpt lat="44.68761" lon="6.86091">
        <ele>2242.1</ele>
        <time>2026-03-25T12:25:34Z</time>
      </trkpt>
      <trkpt lat="44.68761" lon="6.86091">
        <ele>2242.1</ele>
        <time>2026-03-25T12:25:35Z</time>
      </trkpt>
      <trkpt lat="44.68761" lon="6.86091">
        <ele>2242.1</ele>
        <time>2026-03-25T12:25:36Z</time>
      </trkpt>
      <trkpt lat="44.68761" lon="6.86091">
        <ele>2242.1</ele>
        <time>2026-03-25T12:25:37Z</time>
      </trkpt>
      <trkpt lat="44.68761" lon="6.86091">
        <ele>2242.1</ele>
        <time>2026-03-25T12:25:38Z</time>
      </trkpt>
      <trkpt lat="44.68761" lon="6.86091">
        <ele>2242.1</ele>
        <time>2026-03-25T12:25:39Z</time>
      </trkpt>
      <trkpt lat="44.68761" lon="6.86091">
        <ele>2242.1</ele>
        <time>2026-03-25T12:25:40Z</time>
      </trkpt>
      <trkpt lat="44.68761" lon="6.86091">
        <ele>2242.1</ele>
        <time>2026-03-25T12:25:41Z</time>
      </trkpt>
      <trkpt lat="44.68761" lon="6.86091">
        <ele>2242.1</ele>
        <time>2026-03-25T12:25:42Z</time>
      </trkpt>
      <trkpt lat="44.68761" lon="6.86091">
        <ele>2242.1</ele>
        <time>2026-03-25T12:25:43Z</time>
      </trkpt>
      <trkpt lat="44.68761" lon="6.86091">
        <ele>2242.1</ele>
        <time>2026-03-25T12:25:44Z</time>
      </trkpt>
      <trkpt lat="44.68761" lon="6.86091">
        <ele>2242.1</ele>
        <time>2026-03-25T12:25:45Z</time>
      </trkpt>
      <trkpt lat="44.68761" lon="6.86091">
        <ele>2242.1</ele>
        <time>2026-03-25T12:25:46Z</time>
      </trkpt>
      <trkpt lat="44.68761" lon="6.86091">
        <ele>2242.1</ele>
        <time>2026-03-25T12:25:47Z</time>
      </trkpt>
      <trkpt lat="44.68761" lon="6.86091">
        <ele>2242.1</ele>
        <time>2026-03-25T12:25:48Z</time>
      </trkpt>
      <trkpt lat="44.68761" lon="6.86091">
        <ele>2242.1</ele>
        <time>2026-03-25T12:25:49Z</time>
      </trkpt>
      <trkpt lat="44.68761" lon="6.86091">
        <ele>2242.1</ele>
        <time>2026-03-25T12:25:50Z</time>
      </trkpt>
      <trkpt lat="44.68761" lon="6.86091">
        <ele>2242.1</ele>
        <time>2026-03-25T12:25:51Z</time>
      </trkpt>
      <trkpt lat="44.68761" lon="6.86091">
        <ele>2242.1</ele>
        <time>2026-03-25T12:25:52Z</time>
      </trkpt>
      <trkpt lat="44.68761" lon="6.86091">
        <ele>2242.1</ele>
        <time>2026-03-25T12:25:53Z</time>
      </trkpt>
      <trkpt lat="44.68761" lon="6.86091">
        <ele>2242.1</ele>
        <time>2026-03-25T12:25:54Z</time>
      </trkpt>
      <trkpt lat="44.68761" lon="6.86091">
        <ele>2242.1</ele>
        <time>2026-03-25T12:25:55Z</time>
      </trkpt>
      <trkpt lat="44.68761" lon="6.86091">
        <ele>2242.1</ele>
        <time>2026-03-25T12:25:56Z</time>
      </trkpt>
      <trkpt lat="44.68761" lon="6.86091">
        <ele>2242.1</ele>
        <time>2026-03-25T12:25:57Z</time>
      </trkpt>
      <trkpt lat="44.68761" lon="6.86091">
        <ele>2242.1</ele>
        <time>2026-03-25T12:25:58Z</time>
      </trkpt>
      <trkpt lat="44.68761" lon="6.86091">
        <ele>2242.1</ele>
        <time>2026-03-25T12:25:59Z</time>
      </trkpt>
      <trkpt lat="44.68761" lon="6.86091">
        <ele>2242.1</ele>
        <time>2026-03-25T12:26:00Z</time>
      </trkpt>
      <trkpt lat="44.68761" lon="6.86091">
        <ele>2242.1</ele>
        <time>2026-03-25T12:26:01Z</time>
      </trkpt>
      <trkpt lat="44.68761" lon="6.86091">
        <ele>2242.1</ele>
        <time>2026-03-25T12:26:02Z</time>
      </trkpt>
      <trkpt lat="44.68761" lon="6.86091">
        <ele>2242.1</ele>
        <time>2026-03-25T12:26:03Z</time>
      </trkpt>
      <trkpt lat="44.68761" lon="6.86091">
        <ele>2242.1</ele>
        <time>2026-03-25T12:26:04Z</time>
      </trkpt>
      <trkpt lat="44.68761" lon="6.86091">
        <ele>2242.1</ele>
        <time>2026-03-25T12:26:05Z</time>
      </trkpt>
      <trkpt lat="44.68761" lon="6.86091">
        <ele>2242.1</ele>
        <time>2026-03-25T12:26:06Z</time>
      </trkpt>
      <trkpt lat="44.68761" lon="6.86091">
        <ele>2242.1</ele>
        <time>2026-03-25T12:26:07Z</time>
      </trkpt>
      <trkpt lat="44.68761" lon="6.86091">
        <ele>2242.1</ele>
        <time>2026-03-25T12:26:08Z</time>
      </trkpt>
      <trkpt lat="44.68761" lon="6.86091">
        <ele>2242.1</ele>
        <time>2026-03-25T12:26:09Z</time>
      </trkpt>
      <trkpt lat="44.68761" lon="6.86091">
        <ele>2242.1</ele>
        <time>2026-03-25T12:26:10Z</time>
      </trkpt>
      <trkpt lat="44.68761" lon="6.86091">
        <ele>2242.1</ele>
        <time>2026-03-25T12:26:11Z</time>
      </trkpt>
      <trkpt lat="44.68761" lon="6.86091">
        <ele>2242.1</ele>
        <time>2026-03-25T12:26:12Z</time>
      </trkpt>
      <trkpt lat="44.68761" lon="6.86091">
        <ele>2242.1</ele>
        <time>2026-03-25T12:26:13Z</time>
      </trkpt>
      <trkpt lat="44.68761" lon="6.86091">
        <ele>2242.1</ele>
        <time>2026-03-25T12:26:14Z</time>
      </trkpt>
      <trkpt lat="44.68761" lon="6.86091">
        <ele>2242.1</ele>
        <time>2026-03-25T12:26:15Z</time>
      </trkpt>
      <trkpt lat="44.68761" lon="6.86091">
        <ele>2242.1</ele>
        <time>2026-03-25T12:26:16Z</time>
      </trkpt>
      <trkpt lat="44.68761" lon="6.86091">
        <ele>2242.1</ele>
        <time>2026-03-25T12:26:17Z</time>
      </trkpt>
      <trkpt lat="44.68761" lon="6.86091">
        <ele>2242.1</ele>
        <time>2026-03-25T12:26:18Z</time>
      </trkpt>
      <trkpt lat="44.68761" lon="6.86091">
        <ele>2242.1</ele>
        <time>2026-03-25T12:26:19Z</time>
      </trkpt>
      <trkpt lat="44.68761" lon="6.86091">
        <ele>2242.1</ele>
        <time>2026-03-25T12:26:20Z</time>
      </trkpt>
      <trkpt lat="44.68761" lon="6.86091">
        <ele>2242.1</ele>
        <time>2026-03-25T12:26:21Z</time>
      </trkpt>
      <trkpt lat="44.68761" lon="6.86091">
        <ele>2242.1</ele>
        <time>2026-03-25T12:26:22Z</time>
      </trkpt>
      <trkpt lat="44.68761" lon="6.86091">
        <ele>2242.1</ele>
        <time>2026-03-25T12:26:23Z</time>
      </trkpt>
      <trkpt lat="44.68761" lon="6.86091">
        <ele>2242.1</ele>
        <time>2026-03-25T12:26:24Z</time>
      </trkpt>
      <trkpt lat="44.68761" lon="6.86091">
        <ele>2242.1</ele>
        <time>2026-03-25T12:26:25Z</time>
      </trkpt>
      <trkpt lat="44.68761" lon="6.86091">
        <ele>2242.1</ele>
        <time>2026-03-25T12:26:26Z</time>
      </trkpt>
      <trkpt lat="44.68761" lon="6.86091">
        <ele>2242.1</ele>
        <time>2026-03-25T12:26:27Z</time>
      </trkpt>
      <trkpt lat="44.68761" lon="6.86091">
        <ele>2242.1</ele>
        <time>2026-03-25T12:26:28Z</time>
      </trkpt>
      <trkpt lat="44.68761" lon="6.86091">
        <ele>2242.1</ele>
        <time>2026-03-25T12:26:29Z</time>
      </trkpt>
      <trkpt lat="44.68761" lon="6.86091">
        <ele>2242.1</ele>
        <time>2026-03-25T12:26:30Z</time>
      </trkpt>
      <trkpt lat="44.68761" lon="6.86091">
        <ele>2242.1</ele>
        <time>2026-03-25T12:26:31Z</time>
      </trkpt>
      <trkpt lat="44.68761" lon="6.86091">
        <ele>2242.1</ele>
        <time>2026-03-25T12:26:32Z</time>
      </trkpt>
      <trkpt lat="44.68761" lon="6.86091">
        <ele>2242.1</ele>
        <time>2026-03-25T12:26:33Z</time>
      </trkpt>
      <trkpt lat="44.68761" lon="6.86091">
        <ele>2242.1</ele>
        <time>2026-03-25T12:26:34Z</time>
      </trkpt>
      <trkpt lat="44.68761" lon="6.86091">
        <ele>2242.1</ele>
        <time>2026-03-25T12:26:35Z</time>
      </trkpt>
      <trkpt lat="44.68761" lon="6.86091">
        <ele>2242.1</ele>
        <time>2026-03-25T12:26:36Z</time>
      </trkpt>
      <trkpt lat="44.68761" lon="6.86091">
        <ele>2242.1</ele>
        <time>2026-03-25T12:26:37Z</time>
      </trkpt>
      <trkpt lat="44.68761" lon="6.86091">
        <ele>2242.1</ele>
        <time>2026-03-25T12:26:38Z</time>
      </trkpt>
      <trkpt lat="44.68761" lon="6.86091">
        <ele>2242.1</ele>
        <time>2026-03-25T12:26:39Z</time>
      </trkpt>
      <trkpt lat="44.68761" lon="6.86091">
        <ele>2242.1</ele>
        <time>2026-03-25T12:26:40Z</time>
      </trkpt>
      <trkpt lat="44.68761" lon="6.86091">
        <ele>2242.1</ele>
        <time>2026-03-25T12:26:41Z</time>
      </trkpt>
      <trkpt lat="44.68761" lon="6.86091">
        <ele>2242.1</ele>
        <time>2026-03-25T12:26:42Z</time>
      </trkpt>
      <trkpt lat="44.68761" lon="6.86091">
        <ele>2242.1</ele>
        <time>2026-03-25T12:26:43Z</time>
      </trkpt>
      <trkpt lat="44.68761" lon="6.86091">
        <ele>2242.1</ele>
        <time>2026-03-25T12:26:44Z</time>
      </trkpt>
      <trkpt lat="44.68761" lon="6.86091">
        <ele>2242.1</ele>
        <time>2026-03-25T12:26:45Z</time>
      </trkpt>
      <trkpt lat="44.68761" lon="6.86091">
        <ele>2242.1</ele>
        <time>2026-03-25T12:26:46Z</time>
      </trkpt>
      <trkpt lat="44.68761" lon="6.86091">
        <ele>2242</ele>
        <time>2026-03-25T12:26:47Z</time>
      </trkpt>
      <trkpt lat="44.68761" lon="6.86091">
        <ele>2242</ele>
        <time>2026-03-25T12:26:48Z</time>
      </trkpt>
      <trkpt lat="44.68761" lon="6.86091">
        <ele>2242</ele>
        <time>2026-03-25T12:26:49Z</time>
      </trkpt>
      <trkpt lat="44.68761" lon="6.86091">
        <ele>2242</ele>
        <time>2026-03-25T12:26:50Z</time>
      </trkpt>
      <trkpt lat="44.68761" lon="6.86091">
        <ele>2242</ele>
        <time>2026-03-25T12:26:51Z</time>
      </trkpt>
      <trkpt lat="44.68761" lon="6.86091">
        <ele>2242</ele>
        <time>2026-03-25T12:26:52Z</time>
      </trkpt>
      <trkpt lat="44.68761" lon="6.86091">
        <ele>2242</ele>
        <time>2026-03-25T12:26:53Z</time>
      </trkpt>
      <trkpt lat="44.68761" lon="6.86091">
        <ele>2242</ele>
        <time>2026-03-25T12:26:54Z</time>
      </trkpt>
      <trkpt lat="44.68761" lon="6.86091">
        <ele>2242</ele>
        <time>2026-03-25T12:26:55Z</time>
      </trkpt>
      <trkpt lat="44.68761" lon="6.86091">
        <ele>2242</ele>
        <time>2026-03-25T12:26:56Z</time>
      </trkpt>
      <trkpt lat="44.68761" lon="6.86091">
        <ele>2242</ele>
        <time>2026-03-25T12:26:57Z</time>
      </trkpt>
      <trkpt lat="44.68761" lon="6.86091">
        <ele>2242</ele>
        <time>2026-03-25T12:26:58Z</time>
      </trkpt>
      <trkpt lat="44.68761" lon="6.86091">
        <ele>2242</ele>
        <time>2026-03-25T12:26:59Z</time>
      </trkpt>
      <trkpt lat="44.68761" lon="6.86091">
        <ele>2242</ele>
        <time>2026-03-25T12:27:00Z</time>
      </trkpt>
      <trkpt lat="44.68761" lon="6.86091">
        <ele>2242</ele>
        <time>2026-03-25T12:27:01Z</time>
      </trkpt>
      <trkpt lat="44.68761" lon="6.86091">
        <ele>2242</ele>
        <time>2026-03-25T12:27:02Z</time>
      </trkpt>
      <trkpt lat="44.68761" lon="6.86091">
        <ele>2242</ele>
        <time>2026-03-25T12:27:03Z</time>
      </trkpt>
      <trkpt lat="44.68761" lon="6.86091">
        <ele>2242</ele>
        <time>2026-03-25T12:27:04Z</time>
      </trkpt>
      <trkpt lat="44.68761" lon="6.86092">
        <ele>2242</ele>
        <time>2026-03-25T12:27:05Z</time>
      </trkpt>
      <trkpt lat="44.68761" lon="6.86092">
        <ele>2242</ele>
        <time>2026-03-25T12:27:06Z</time>
      </trkpt>
      <trkpt lat="44.68761" lon="6.86092">
        <ele>2242</ele>
        <time>2026-03-25T12:27:07Z</time>
      </trkpt>
      <trkpt lat="44.68761" lon="6.86092">
        <ele>2242</ele>
        <time>2026-03-25T12:27:08Z</time>
      </trkpt>
      <trkpt lat="44.68761" lon="6.86092">
        <ele>2242</ele>
        <time>2026-03-25T12:27:09Z</time>
      </trkpt>
      <trkpt lat="44.68761" lon="6.86092">
        <ele>2242</ele>
        <time>2026-03-25T12:27:10Z</time>
      </trkpt>
      <trkpt lat="44.68761" lon="6.86092">
        <ele>2242</ele>
        <time>2026-03-25T12:27:11Z</time>
      </trkpt>
      <trkpt lat="44.68761" lon="6.86092">
        <ele>2242</ele>
        <time>2026-03-25T12:27:12Z</time>
      </trkpt>
      <trkpt lat="44.68761" lon="6.86092">
        <ele>2242</ele>
        <time>2026-03-25T12:27:13Z</time>
      </trkpt>
      <trkpt lat="44.68761" lon="6.86092">
        <ele>2242</ele>
        <time>2026-03-25T12:27:14Z</time>
      </trkpt>
      <trkpt lat="44.68761" lon="6.86092">
        <ele>2242</ele>
        <time>2026-03-25T12:27:15Z</time>
      </trkpt>
      <trkpt lat="44.68761" lon="6.86092">
        <ele>2242</ele>
        <time>2026-03-25T12:27:16Z</time>
      </trkpt>
      <trkpt lat="44.68761" lon="6.86092">
        <ele>2242</ele>
        <time>2026-03-25T12:27:17Z</time>
      </trkpt>
      <trkpt lat="44.68761" lon="6.86092">
        <ele>2242</ele>
        <time>2026-03-25T12:27:18Z</time>
      </trkpt>
      <trkpt lat="44.68761" lon="6.86092">
        <ele>2242</ele>
        <time>2026-03-25T12:27:19Z</time>
      </trkpt>
      <trkpt lat="44.68761" lon="6.86092">
        <ele>2242</ele>
        <time>2026-03-25T12:27:20Z</time>
      </trkpt>
      <trkpt lat="44.68761" lon="6.86092">
        <ele>2242</ele>
        <time>2026-03-25T12:27:21Z</time>
      </trkpt>
      <trkpt lat="44.68761" lon="6.86092">
        <ele>2242</ele>
        <time>2026-03-25T12:27:22Z</time>
      </trkpt>
      <trkpt lat="44.68761" lon="6.86092">
        <ele>2242</ele>
        <time>2026-03-25T12:27:23Z</time>
      </trkpt>
      <trkpt lat="44.68761" lon="6.86092">
        <ele>2242</ele>
        <time>2026-03-25T12:27:24Z</time>
      </trkpt>
      <trkpt lat="44.68761" lon="6.86092">
        <ele>2242</ele>
        <time>2026-03-25T12:27:25Z</time>
      </trkpt>
      <trkpt lat="44.68761" lon="6.86092">
        <ele>2242</ele>
        <time>2026-03-25T12:27:26Z</time>
      </trkpt>
      <trkpt lat="44.68761" lon="6.86092">
        <ele>2242</ele>
        <time>2026-03-25T12:27:27Z</time>
      </trkpt>
      <trkpt lat="44.68761" lon="6.86092">
        <ele>2242</ele>
        <time>2026-03-25T12:27:28Z</time>
      </trkpt>
      <trkpt lat="44.68761" lon="6.86092">
        <ele>2242</ele>
        <time>2026-03-25T12:27:29Z</time>
      </trkpt>
      <trkpt lat="44.68761" lon="6.86092">
        <ele>2242</ele>
        <time>2026-03-25T12:27:30Z</time>
      </trkpt>
      <trkpt lat="44.68761" lon="6.86092">
        <ele>2242</ele>
        <time>2026-03-25T12:27:31Z</time>
      </trkpt>
      <trkpt lat="44.68761" lon="6.86092">
        <ele>2242</ele>
        <time>2026-03-25T12:27:32Z</time>
      </trkpt>
      <trkpt lat="44.68761" lon="6.86092">
        <ele>2242</ele>
        <time>2026-03-25T12:27:33Z</time>
      </trkpt>
      <trkpt lat="44.68762" lon="6.86091">
        <ele>2241.9</ele>
        <time>2026-03-25T12:27:34Z</time>
      </trkpt>
      <trkpt lat="44.68762" lon="6.86091">
        <ele>2241.8</ele>
        <time>2026-03-25T12:27:35Z</time>
      </trkpt>
      <trkpt lat="44.68762" lon="6.8609">
        <ele>2241.8</ele>
        <time>2026-03-25T12:27:36Z</time>
      </trkpt>
      <trkpt lat="44.68762" lon="6.8609">
        <ele>2241.8</ele>
        <time>2026-03-25T12:27:37Z</time>
      </trkpt>
      <trkpt lat="44.68762" lon="6.8609">
        <ele>2241.7</ele>
        <time>2026-03-25T12:27:38Z</time>
      </trkpt>
      <trkpt lat="44.68761" lon="6.8609">
        <ele>2241.6</ele>
        <time>2026-03-25T12:27:39Z</time>
      </trkpt>
      <trkpt lat="44.68761" lon="6.8609">
        <ele>2241.6</ele>
        <time>2026-03-25T12:27:40Z</time>
      </trkpt>
      <trkpt lat="44.68761" lon="6.8609">
        <ele>2241.6</ele>
        <time>2026-03-25T12:27:41Z</time>
      </trkpt>
      <trkpt lat="44.68761" lon="6.8609">
        <ele>2241.6</ele>
        <time>2026-03-25T12:27:42Z</time>
      </trkpt>
      <trkpt lat="44.68761" lon="6.8609">
        <ele>2241.6</ele>
        <time>2026-03-25T12:27:43Z</time>
      </trkpt>
      <trkpt lat="44.68761" lon="6.8609">
        <ele>2241.6</ele>
        <time>2026-03-25T12:27:44Z</time>
      </trkpt>
      <trkpt lat="44.68761" lon="6.8609">
        <ele>2241.6</ele>
        <time>2026-03-25T12:27:45Z</time>
      </trkpt>
      <trkpt lat="44.68761" lon="6.8609">
        <ele>2241.6</ele>
        <time>2026-03-25T12:27:46Z</time>
      </trkpt>
      <trkpt lat="44.68761" lon="6.8609">
        <ele>2241.5</ele>
        <time>2026-03-25T12:27:47Z</time>
      </trkpt>
      <trkpt lat="44.68761" lon="6.8609">
        <ele>2241.5</ele>
        <time>2026-03-25T12:27:48Z</time>
      </trkpt>
      <trkpt lat="44.68761" lon="6.8609">
        <ele>2241.5</ele>
        <time>2026-03-25T12:27:49Z</time>
      </trkpt>
      <trkpt lat="44.68761" lon="6.8609">
        <ele>2241.5</ele>
        <time>2026-03-25T12:27:50Z</time>
      </trkpt>
      <trkpt lat="44.68761" lon="6.8609">
        <ele>2241.5</ele>
        <time>2026-03-25T12:27:51Z</time>
      </trkpt>
      <trkpt lat="44.68761" lon="6.8609">
        <ele>2241.5</ele>
        <time>2026-03-25T12:27:52Z</time>
      </trkpt>
      <trkpt lat="44.68761" lon="6.8609">
        <ele>2241.5</ele>
        <time>2026-03-25T12:27:53Z</time>
      </trkpt>
      <trkpt lat="44.68761" lon="6.8609">
        <ele>2241.5</ele>
        <time>2026-03-25T12:27:54Z</time>
      </trkpt>
      <trkpt lat="44.68761" lon="6.8609">
        <ele>2241.5</ele>
        <time>2026-03-25T12:27:55Z</time>
      </trkpt>
      <trkpt lat="44.68761" lon="6.8609">
        <ele>2241.5</ele>
        <time>2026-03-25T12:27:56Z</time>
      </trkpt>
      <trkpt lat="44.68761" lon="6.8609">
        <ele>2241.5</ele>
        <time>2026-03-25T12:27:57Z</time>
      </trkpt>
      <trkpt lat="44.68761" lon="6.8609">
        <ele>2241.5</ele>
        <time>2026-03-25T12:27:58Z</time>
      </trkpt>
      <trkpt lat="44.68761" lon="6.8609">
        <ele>2241.5</ele>
        <time>2026-03-25T12:27:59Z</time>
      </trkpt>
      <trkpt lat="44.68761" lon="6.8609">
        <ele>2241.5</ele>
        <time>2026-03-25T12:28:00Z</time>
      </trkpt>
      <trkpt lat="44.68761" lon="6.8609">
        <ele>2241.5</ele>
        <time>2026-03-25T12:28:01Z</time>
      </trkpt>
      <trkpt lat="44.68761" lon="6.8609">
        <ele>2241.5</ele>
        <time>2026-03-25T12:28:02Z</time>
      </trkpt>
      <trkpt lat="44.68761" lon="6.8609">
        <ele>2241.5</ele>
        <time>2026-03-25T12:28:03Z</time>
      </trkpt>
      <trkpt lat="44.68761" lon="6.8609">
        <ele>2241.5</ele>
        <time>2026-03-25T12:28:04Z</time>
      </trkpt>
      <trkpt lat="44.68761" lon="6.8609">
        <ele>2241.5</ele>
        <time>2026-03-25T12:28:05Z</time>
      </trkpt>
      <trkpt lat="44.68761" lon="6.8609">
        <ele>2241.5</ele>
        <time>2026-03-25T12:28:06Z</time>
      </trkpt>
      <trkpt lat="44.68761" lon="6.8609">
        <ele>2241.5</ele>
        <time>2026-03-25T12:28:07Z</time>
      </trkpt>
      <trkpt lat="44.68761" lon="6.8609">
        <ele>2241.5</ele>
        <time>2026-03-25T12:28:08Z</time>
      </trkpt>
      <trkpt lat="44.68761" lon="6.8609">
        <ele>2241.5</ele>
        <time>2026-03-25T12:28:09Z</time>
      </trkpt>
      <trkpt lat="44.68761" lon="6.8609">
        <ele>2241.5</ele>
        <time>2026-03-25T12:28:10Z</time>
      </trkpt>
      <trkpt lat="44.68761" lon="6.8609">
        <ele>2241.5</ele>
        <time>2026-03-25T12:28:11Z</time>
      </trkpt>
      <trkpt lat="44.68761" lon="6.8609">
        <ele>2241.5</ele>
        <time>2026-03-25T12:28:12Z</time>
      </trkpt>
      <trkpt lat="44.68761" lon="6.8609">
        <ele>2241.5</ele>
        <time>2026-03-25T12:28:13Z</time>
      </trkpt>
      <trkpt lat="44.68761" lon="6.8609">
        <ele>2241.5</ele>
        <time>2026-03-25T12:28:14Z</time>
      </trkpt>
      <trkpt lat="44.68761" lon="6.8609">
        <ele>2241.5</ele>
        <time>2026-03-25T12:28:15Z</time>
      </trkpt>
      <trkpt lat="44.68761" lon="6.8609">
        <ele>2241.5</ele>
        <time>2026-03-25T12:28:16Z</time>
      </trkpt>
      <trkpt lat="44.68761" lon="6.8609">
        <ele>2241.5</ele>
        <time>2026-03-25T12:28:17Z</time>
      </trkpt>
      <trkpt lat="44.68761" lon="6.8609">
        <ele>2241.5</ele>
        <time>2026-03-25T12:28:18Z</time>
      </trkpt>
      <trkpt lat="44.68761" lon="6.8609">
        <ele>2241.5</ele>
        <time>2026-03-25T12:28:19Z</time>
      </trkpt>
      <trkpt lat="44.68761" lon="6.8609">
        <ele>2241.5</ele>
        <time>2026-03-25T12:28:20Z</time>
      </trkpt>
      <trkpt lat="44.68761" lon="6.8609">
        <ele>2241.5</ele>
        <time>2026-03-25T12:28:21Z</time>
      </trkpt>
      <trkpt lat="44.68761" lon="6.8609">
        <ele>2241.5</ele>
        <time>2026-03-25T12:28:22Z</time>
      </trkpt>
      <trkpt lat="44.68761" lon="6.8609">
        <ele>2241.5</ele>
        <time>2026-03-25T12:28:23Z</time>
      </trkpt>
      <trkpt lat="44.68761" lon="6.8609">
        <ele>2241.5</ele>
        <time>2026-03-25T12:28:24Z</time>
      </trkpt>
      <trkpt lat="44.68761" lon="6.8609">
        <ele>2241.4</ele>
        <time>2026-03-25T12:28:25Z</time>
      </trkpt>
      <trkpt lat="44.68761" lon="6.8609">
        <ele>2241.4</ele>
        <time>2026-03-25T12:28:26Z</time>
      </trkpt>
      <trkpt lat="44.68761" lon="6.8609">
        <ele>2241.4</ele>
        <time>2026-03-25T12:28:27Z</time>
      </trkpt>
      <trkpt lat="44.68761" lon="6.8609">
        <ele>2241.4</ele>
        <time>2026-03-25T12:28:28Z</time>
      </trkpt>
      <trkpt lat="44.68761" lon="6.8609">
        <ele>2241.4</ele>
        <time>2026-03-25T12:28:29Z</time>
      </trkpt>
      <trkpt lat="44.68761" lon="6.8609">
        <ele>2241.4</ele>
        <time>2026-03-25T12:28:30Z</time>
      </trkpt>
      <trkpt lat="44.68761" lon="6.8609">
        <ele>2241.4</ele>
        <time>2026-03-25T12:28:31Z</time>
      </trkpt>
      <trkpt lat="44.68761" lon="6.8609">
        <ele>2241.4</ele>
        <time>2026-03-25T12:28:32Z</time>
      </trkpt>
      <trkpt lat="44.68761" lon="6.8609">
        <ele>2241.4</ele>
        <time>2026-03-25T12:28:33Z</time>
      </trkpt>
      <trkpt lat="44.68761" lon="6.8609">
        <ele>2241.4</ele>
        <time>2026-03-25T12:28:34Z</time>
      </trkpt>
      <trkpt lat="44.68761" lon="6.8609">
        <ele>2241.4</ele>
        <time>2026-03-25T12:28:35Z</time>
      </trkpt>
      <trkpt lat="44.68761" lon="6.8609">
        <ele>2241.4</ele>
        <time>2026-03-25T12:28:36Z</time>
      </trkpt>
      <trkpt lat="44.68761" lon="6.8609">
        <ele>2241.4</ele>
        <time>2026-03-25T12:28:37Z</time>
      </trkpt>
      <trkpt lat="44.68761" lon="6.8609">
        <ele>2241.4</ele>
        <time>2026-03-25T12:28:38Z</time>
      </trkpt>
      <trkpt lat="44.68761" lon="6.8609">
        <ele>2241.4</ele>
        <time>2026-03-25T12:28:39Z</time>
      </trkpt>
      <trkpt lat="44.68761" lon="6.8609">
        <ele>2241.4</ele>
        <time>2026-03-25T12:28:40Z</time>
      </trkpt>
      <trkpt lat="44.68761" lon="6.8609">
        <ele>2241.4</ele>
        <time>2026-03-25T12:28:41Z</time>
      </trkpt>
      <trkpt lat="44.68761" lon="6.8609">
        <ele>2241.4</ele>
        <time>2026-03-25T12:28:42Z</time>
      </trkpt>
      <trkpt lat="44.68761" lon="6.8609">
        <ele>2241.4</ele>
        <time>2026-03-25T12:28:43Z</time>
      </trkpt>
      <trkpt lat="44.68761" lon="6.8609">
        <ele>2241.4</ele>
        <time>2026-03-25T12:28:44Z</time>
      </trkpt>
      <trkpt lat="44.68761" lon="6.8609">
        <ele>2241.4</ele>
        <time>2026-03-25T12:28:45Z</time>
      </trkpt>
      <trkpt lat="44.68761" lon="6.8609">
        <ele>2241.4</ele>
        <time>2026-03-25T12:28:46Z</time>
      </trkpt>
      <trkpt lat="44.68761" lon="6.8609">
        <ele>2241.4</ele>
        <time>2026-03-25T12:28:47Z</time>
      </trkpt>
      <trkpt lat="44.68761" lon="6.8609">
        <ele>2241.4</ele>
        <time>2026-03-25T12:28:48Z</time>
      </trkpt>
      <trkpt lat="44.68761" lon="6.8609">
        <ele>2241.4</ele>
        <time>2026-03-25T12:28:49Z</time>
      </trkpt>
      <trkpt lat="44.68761" lon="6.8609">
        <ele>2241.4</ele>
        <time>2026-03-25T12:28:50Z</time>
      </trkpt>
      <trkpt lat="44.68761" lon="6.8609">
        <ele>2241.4</ele>
        <time>2026-03-25T12:28:51Z</time>
      </trkpt>
      <trkpt lat="44.68761" lon="6.8609">
        <ele>2241.4</ele>
        <time>2026-03-25T12:28:52Z</time>
      </trkpt>
      <trkpt lat="44.68761" lon="6.8609">
        <ele>2241.4</ele>
        <time>2026-03-25T12:28:53Z</time>
      </trkpt>
      <trkpt lat="44.68761" lon="6.8609">
        <ele>2241.4</ele>
        <time>2026-03-25T12:28:54Z</time>
      </trkpt>
      <trkpt lat="44.68761" lon="6.8609">
        <ele>2241.4</ele>
        <time>2026-03-25T12:28:55Z</time>
      </trkpt>
      <trkpt lat="44.68761" lon="6.8609">
        <ele>2241.4</ele>
        <time>2026-03-25T12:28:56Z</time>
      </trkpt>
      <trkpt lat="44.68761" lon="6.8609">
        <ele>2241.4</ele>
        <time>2026-03-25T12:28:57Z</time>
      </trkpt>
      <trkpt lat="44.68761" lon="6.8609">
        <ele>2241.4</ele>
        <time>2026-03-25T12:28:58Z</time>
      </trkpt>
      <trkpt lat="44.68761" lon="6.8609">
        <ele>2241.4</ele>
        <time>2026-03-25T12:28:59Z</time>
      </trkpt>
      <trkpt lat="44.68761" lon="6.8609">
        <ele>2241.4</ele>
        <time>2026-03-25T12:29:00Z</time>
      </trkpt>
      <trkpt lat="44.68761" lon="6.8609">
        <ele>2241.4</ele>
        <time>2026-03-25T12:29:01Z</time>
      </trkpt>
      <trkpt lat="44.68761" lon="6.8609">
        <ele>2241.4</ele>
        <time>2026-03-25T12:29:02Z</time>
      </trkpt>
      <trkpt lat="44.68761" lon="6.8609">
        <ele>2241.4</ele>
        <time>2026-03-25T12:29:03Z</time>
      </trkpt>
      <trkpt lat="44.68761" lon="6.8609">
        <ele>2241.4</ele>
        <time>2026-03-25T12:29:04Z</time>
      </trkpt>
      <trkpt lat="44.68761" lon="6.8609">
        <ele>2241.4</ele>
        <time>2026-03-25T12:29:05Z</time>
      </trkpt>
      <trkpt lat="44.68761" lon="6.8609">
        <ele>2241.4</ele>
        <time>2026-03-25T12:29:06Z</time>
      </trkpt>
      <trkpt lat="44.68761" lon="6.8609">
        <ele>2241.4</ele>
        <time>2026-03-25T12:29:07Z</time>
      </trkpt>
      <trkpt lat="44.68761" lon="6.8609">
        <ele>2241.4</ele>
        <time>2026-03-25T12:29:08Z</time>
      </trkpt>
      <trkpt lat="44.68761" lon="6.8609">
        <ele>2241.4</ele>
        <time>2026-03-25T12:29:09Z</time>
      </trkpt>
      <trkpt lat="44.68761" lon="6.8609">
        <ele>2241.4</ele>
        <time>2026-03-25T12:29:10Z</time>
      </trkpt>
      <trkpt lat="44.68761" lon="6.8609">
        <ele>2241.4</ele>
        <time>2026-03-25T12:29:11Z</time>
      </trkpt>
      <trkpt lat="44.68761" lon="6.8609">
        <ele>2241.4</ele>
        <time>2026-03-25T12:29:12Z</time>
      </trkpt>
      <trkpt lat="44.68761" lon="6.8609">
        <ele>2241.4</ele>
        <time>2026-03-25T12:29:13Z</time>
      </trkpt>
      <trkpt lat="44.68761" lon="6.8609">
        <ele>2241.4</ele>
        <time>2026-03-25T12:29:14Z</time>
      </trkpt>
      <trkpt lat="44.68761" lon="6.8609">
        <ele>2241.4</ele>
        <time>2026-03-25T12:29:15Z</time>
      </trkpt>
      <trkpt lat="44.68761" lon="6.8609">
        <ele>2241.4</ele>
        <time>2026-03-25T12:29:16Z</time>
      </trkpt>
      <trkpt lat="44.68761" lon="6.8609">
        <ele>2241.4</ele>
        <time>2026-03-25T12:29:17Z</time>
      </trkpt>
      <trkpt lat="44.68761" lon="6.8609">
        <ele>2241.4</ele>
        <time>2026-03-25T12:29:18Z</time>
      </trkpt>
      <trkpt lat="44.68761" lon="6.8609">
        <ele>2241.4</ele>
        <time>2026-03-25T12:29:19Z</time>
      </trkpt>
      <trkpt lat="44.68761" lon="6.8609">
        <ele>2241.4</ele>
        <time>2026-03-25T12:29:20Z</time>
      </trkpt>
      <trkpt lat="44.68761" lon="6.8609">
        <ele>2241.4</ele>
        <time>2026-03-25T12:29:21Z</time>
      </trkpt>
      <trkpt lat="44.68761" lon="6.8609">
        <ele>2241.4</ele>
        <time>2026-03-25T12:29:22Z</time>
      </trkpt>
      <trkpt lat="44.68761" lon="6.8609">
        <ele>2241.4</ele>
        <time>2026-03-25T12:29:23Z</time>
      </trkpt>
      <trkpt lat="44.68761" lon="6.8609">
        <ele>2241.4</ele>
        <time>2026-03-25T12:29:24Z</time>
      </trkpt>
      <trkpt lat="44.68761" lon="6.86091">
        <ele>2241.4</ele>
        <time>2026-03-25T12:29:25Z</time>
      </trkpt>
      <trkpt lat="44.68761" lon="6.86091">
        <ele>2241.4</ele>
        <time>2026-03-25T12:29:26Z</time>
      </trkpt>
      <trkpt lat="44.68761" lon="6.86091">
        <ele>2241.4</ele>
        <time>2026-03-25T12:29:27Z</time>
      </trkpt>
      <trkpt lat="44.68761" lon="6.86091">
        <ele>2241.4</ele>
        <time>2026-03-25T12:29:28Z</time>
      </trkpt>
      <trkpt lat="44.68761" lon="6.86091">
        <ele>2241.4</ele>
        <time>2026-03-25T12:29:29Z</time>
      </trkpt>
      <trkpt lat="44.68761" lon="6.86091">
        <ele>2241.4</ele>
        <time>2026-03-25T12:29:30Z</time>
      </trkpt>
      <trkpt lat="44.68761" lon="6.86091">
        <ele>2241.4</ele>
        <time>2026-03-25T12:29:31Z</time>
      </trkpt>
      <trkpt lat="44.68761" lon="6.86091">
        <ele>2241.4</ele>
        <time>2026-03-25T12:29:32Z</time>
      </trkpt>
      <trkpt lat="44.68761" lon="6.86091">
        <ele>2241.4</ele>
        <time>2026-03-25T12:29:33Z</time>
      </trkpt>
      <trkpt lat="44.68761" lon="6.86091">
        <ele>2241.4</ele>
        <time>2026-03-25T12:29:34Z</time>
      </trkpt>
      <trkpt lat="44.68761" lon="6.86091">
        <ele>2241.4</ele>
        <time>2026-03-25T12:29:35Z</time>
      </trkpt>
      <trkpt lat="44.68761" lon="6.86091">
        <ele>2241.4</ele>
        <time>2026-03-25T12:29:36Z</time>
      </trkpt>
      <trkpt lat="44.68762" lon="6.86091">
        <ele>2241.4</ele>
        <time>2026-03-25T12:29:37Z</time>
      </trkpt>
      <trkpt lat="44.68762" lon="6.86091">
        <ele>2241.4</ele>
        <time>2026-03-25T12:29:38Z</time>
      </trkpt>
      <trkpt lat="44.68762" lon="6.86091">
        <ele>2241.4</ele>
        <time>2026-03-25T12:29:39Z</time>
      </trkpt>
      <trkpt lat="44.68762" lon="6.86091">
        <ele>2241.4</ele>
        <time>2026-03-25T12:29:40Z</time>
      </trkpt>
      <trkpt lat="44.68762" lon="6.86091">
        <ele>2241.3</ele>
        <time>2026-03-25T12:29:41Z</time>
      </trkpt>
      <trkpt lat="44.68762" lon="6.86091">
        <ele>2241.3</ele>
        <time>2026-03-25T12:29:42Z</time>
      </trkpt>
      <trkpt lat="44.68762" lon="6.86092">
        <ele>2241.2</ele>
        <time>2026-03-25T12:29:43Z</time>
      </trkpt>
      <trkpt lat="44.68762" lon="6.86092">
        <ele>2241.2</ele>
        <time>2026-03-25T12:29:44Z</time>
      </trkpt>
      <trkpt lat="44.68762" lon="6.86092">
        <ele>2241.2</ele>
        <time>2026-03-25T12:29:45Z</time>
      </trkpt>
      <trkpt lat="44.68761" lon="6.86092">
        <ele>2241.1</ele>
        <time>2026-03-25T12:29:46Z</time>
      </trkpt>
      <trkpt lat="44.68761" lon="6.86092">
        <ele>2241.1</ele>
        <time>2026-03-25T12:29:47Z</time>
      </trkpt>
      <trkpt lat="44.68761" lon="6.86092">
        <ele>2241.1</ele>
        <time>2026-03-25T12:29:48Z</time>
      </trkpt>
      <trkpt lat="44.68761" lon="6.86092">
        <ele>2241.1</ele>
        <time>2026-03-25T12:29:49Z</time>
      </trkpt>
      <trkpt lat="44.68761" lon="6.86092">
        <ele>2241.1</ele>
        <time>2026-03-25T12:29:50Z</time>
      </trkpt>
      <trkpt lat="44.68761" lon="6.86092">
        <ele>2241.1</ele>
        <time>2026-03-25T12:29:51Z</time>
      </trkpt>
      <trkpt lat="44.68761" lon="6.86092">
        <ele>2241.1</ele>
        <time>2026-03-25T12:29:52Z</time>
      </trkpt>
      <trkpt lat="44.68761" lon="6.86092">
        <ele>2241.1</ele>
        <time>2026-03-25T12:29:53Z</time>
      </trkpt>
      <trkpt lat="44.68761" lon="6.86092">
        <ele>2241</ele>
        <time>2026-03-25T12:29:54Z</time>
      </trkpt>
      <trkpt lat="44.68761" lon="6.86092">
        <ele>2241</ele>
        <time>2026-03-25T12:29:55Z</time>
      </trkpt>
      <trkpt lat="44.68761" lon="6.86092">
        <ele>2241</ele>
        <time>2026-03-25T12:29:56Z</time>
      </trkpt>
      <trkpt lat="44.68761" lon="6.86092">
        <ele>2241</ele>
        <time>2026-03-25T12:29:57Z</time>
      </trkpt>
      <trkpt lat="44.68761" lon="6.86092">
        <ele>2241</ele>
        <time>2026-03-25T12:29:58Z</time>
      </trkpt>
      <trkpt lat="44.68761" lon="6.86092">
        <ele>2241</ele>
        <time>2026-03-25T12:29:59Z</time>
      </trkpt>
      <trkpt lat="44.68761" lon="6.86092">
        <ele>2241</ele>
        <time>2026-03-25T12:30:00Z</time>
      </trkpt>
      <trkpt lat="44.68761" lon="6.86092">
        <ele>2241</ele>
        <time>2026-03-25T12:30:01Z</time>
      </trkpt>
      <trkpt lat="44.68761" lon="6.86093">
        <ele>2241</ele>
        <time>2026-03-25T12:30:02Z</time>
      </trkpt>
      <trkpt lat="44.68761" lon="6.86093">
        <ele>2241</ele>
        <time>2026-03-25T12:30:03Z</time>
      </trkpt>
      <trkpt lat="44.68761" lon="6.86093">
        <ele>2241</ele>
        <time>2026-03-25T12:30:04Z</time>
      </trkpt>
      <trkpt lat="44.68761" lon="6.86093">
        <ele>2241</ele>
        <time>2026-03-25T12:30:05Z</time>
      </trkpt>
      <trkpt lat="44.68761" lon="6.86093">
        <ele>2241</ele>
        <time>2026-03-25T12:30:06Z</time>
      </trkpt>
      <trkpt lat="44.68761" lon="6.86093">
        <ele>2241</ele>
        <time>2026-03-25T12:30:07Z</time>
      </trkpt>
      <trkpt lat="44.68761" lon="6.86093">
        <ele>2241</ele>
        <time>2026-03-25T12:30:08Z</time>
      </trkpt>
      <trkpt lat="44.68761" lon="6.86093">
        <ele>2241</ele>
        <time>2026-03-25T12:30:09Z</time>
      </trkpt>
      <trkpt lat="44.68761" lon="6.86093">
        <ele>2241</ele>
        <time>2026-03-25T12:30:10Z</time>
      </trkpt>
      <trkpt lat="44.68761" lon="6.86093">
        <ele>2241</ele>
        <time>2026-03-25T12:30:11Z</time>
      </trkpt>
      <trkpt lat="44.68762" lon="6.86093">
        <ele>2241</ele>
        <time>2026-03-25T12:30:12Z</time>
      </trkpt>
      <trkpt lat="44.68762" lon="6.86093">
        <ele>2241</ele>
        <time>2026-03-25T12:30:13Z</time>
      </trkpt>
      <trkpt lat="44.68762" lon="6.86093">
        <ele>2241</ele>
        <time>2026-03-25T12:30:14Z</time>
      </trkpt>
      <trkpt lat="44.68762" lon="6.86093">
        <ele>2241</ele>
        <time>2026-03-25T12:30:15Z</time>
      </trkpt>
      <trkpt lat="44.68762" lon="6.86093">
        <ele>2241</ele>
        <time>2026-03-25T12:30:16Z</time>
      </trkpt>
      <trkpt lat="44.68762" lon="6.86093">
        <ele>2241</ele>
        <time>2026-03-25T12:30:17Z</time>
      </trkpt>
      <trkpt lat="44.68762" lon="6.86093">
        <ele>2241</ele>
        <time>2026-03-25T12:30:18Z</time>
      </trkpt>
      <trkpt lat="44.68762" lon="6.86093">
        <ele>2241</ele>
        <time>2026-03-25T12:30:19Z</time>
      </trkpt>
      <trkpt lat="44.68762" lon="6.86093">
        <ele>2241</ele>
        <time>2026-03-25T12:30:20Z</time>
      </trkpt>
      <trkpt lat="44.68762" lon="6.86093">
        <ele>2241</ele>
        <time>2026-03-25T12:30:21Z</time>
      </trkpt>
      <trkpt lat="44.68762" lon="6.86093">
        <ele>2241</ele>
        <time>2026-03-25T12:30:22Z</time>
      </trkpt>
      <trkpt lat="44.68762" lon="6.86093">
        <ele>2241</ele>
        <time>2026-03-25T12:30:23Z</time>
      </trkpt>
      <trkpt lat="44.68762" lon="6.86092">
        <ele>2240.9</ele>
        <time>2026-03-25T12:30:24Z</time>
      </trkpt>
      <trkpt lat="44.68762" lon="6.86091">
        <ele>2240.8</ele>
        <time>2026-03-25T12:30:25Z</time>
      </trkpt>
      <trkpt lat="44.68762" lon="6.86091">
        <ele>2240.8</ele>
        <time>2026-03-25T12:30:26Z</time>
      </trkpt>
      <trkpt lat="44.68762" lon="6.86091">
        <ele>2240.7</ele>
        <time>2026-03-25T12:30:27Z</time>
      </trkpt>
      <trkpt lat="44.68762" lon="6.8609">
        <ele>2240.7</ele>
        <time>2026-03-25T12:30:28Z</time>
      </trkpt>
      <trkpt lat="44.68762" lon="6.8609">
        <ele>2240.6</ele>
        <time>2026-03-25T12:30:29Z</time>
      </trkpt>
      <trkpt lat="44.68763" lon="6.8609">
        <ele>2240.5</ele>
        <time>2026-03-25T12:30:30Z</time>
      </trkpt>
      <trkpt lat="44.68764" lon="6.8609">
        <ele>2240.3</ele>
        <time>2026-03-25T12:30:31Z</time>
      </trkpt>
      <trkpt lat="44.68765" lon="6.86087">
        <ele>2239.9</ele>
        <time>2026-03-25T12:30:32Z</time>
      </trkpt>
      <trkpt lat="44.68766" lon="6.86083">
        <ele>2239.3</ele>
        <time>2026-03-25T12:30:33Z</time>
      </trkpt>
      <trkpt lat="44.68766" lon="6.86077">
        <ele>2238.5</ele>
        <time>2026-03-25T12:30:34Z</time>
      </trkpt>
      <trkpt lat="44.68766" lon="6.86071">
        <ele>2237.8</ele>
        <time>2026-03-25T12:30:35Z</time>
      </trkpt>
      <trkpt lat="44.68769" lon="6.86066">
        <ele>2237</ele>
        <time>2026-03-25T12:30:36Z</time>
      </trkpt>
      <trkpt lat="44.68772" lon="6.86065">
        <ele>2236.4</ele>
        <time>2026-03-25T12:30:37Z</time>
      </trkpt>
      <trkpt lat="44.68774" lon="6.8606">
        <ele>2235.7</ele>
        <time>2026-03-25T12:30:38Z</time>
      </trkpt>
      <trkpt lat="44.68776" lon="6.86055">
        <ele>2235</ele>
        <time>2026-03-25T12:30:39Z</time>
      </trkpt>
      <trkpt lat="44.68779" lon="6.86053">
        <ele>2234.3</ele>
        <time>2026-03-25T12:30:40Z</time>
      </trkpt>
      <trkpt lat="44.68782" lon="6.86051">
        <ele>2233.7</ele>
        <time>2026-03-25T12:30:41Z</time>
      </trkpt>
      <trkpt lat="44.68787" lon="6.86046">
        <ele>2232.7</ele>
        <time>2026-03-25T12:30:42Z</time>
      </trkpt>
      <trkpt lat="44.68793" lon="6.86046">
        <ele>2231.7</ele>
        <time>2026-03-25T12:30:43Z</time>
      </trkpt>
      <trkpt lat="44.68797" lon="6.86045">
        <ele>2230.9</ele>
        <time>2026-03-25T12:30:44Z</time>
      </trkpt>
      <trkpt lat="44.68801" lon="6.86041">
        <ele>2230.1</ele>
        <time>2026-03-25T12:30:45Z</time>
      </trkpt>
      <trkpt lat="44.68806" lon="6.86037">
        <ele>2229.2</ele>
        <time>2026-03-25T12:30:46Z</time>
      </trkpt>
      <trkpt lat="44.6881" lon="6.86034">
        <ele>2228.4</ele>
        <time>2026-03-25T12:30:47Z</time>
      </trkpt>
      <trkpt lat="44.68814" lon="6.86034">
        <ele>2227.7</ele>
        <time>2026-03-25T12:30:48Z</time>
      </trkpt>
      <trkpt lat="44.68816" lon="6.86036">
        <ele>2227.2</ele>
        <time>2026-03-25T12:30:49Z</time>
      </trkpt>
      <trkpt lat="44.6882" lon="6.86036">
        <ele>2226.5</ele>
        <time>2026-03-25T12:30:50Z</time>
      </trkpt>
      <trkpt lat="44.68825" lon="6.86032">
        <ele>2225.4</ele>
        <time>2026-03-25T12:30:51Z</time>
      </trkpt>
      <trkpt lat="44.68828" lon="6.86034">
        <ele>2224.6</ele>
        <time>2026-03-25T12:30:52Z</time>
      </trkpt>
      <trkpt lat="44.68832" lon="6.86034">
        <ele>2223.7</ele>
        <time>2026-03-25T12:30:53Z</time>
      </trkpt>
      <trkpt lat="44.68835" lon="6.86025">
        <ele>2222.2</ele>
        <time>2026-03-25T12:30:54Z</time>
      </trkpt>
      <trkpt lat="44.68837" lon="6.86019">
        <ele>2221.3</ele>
        <time>2026-03-25T12:30:55Z</time>
      </trkpt>
      <trkpt lat="44.6884" lon="6.86015">
        <ele>2220.5</ele>
        <time>2026-03-25T12:30:56Z</time>
      </trkpt>
      <trkpt lat="44.68844" lon="6.86013">
        <ele>2219.9</ele>
        <time>2026-03-25T12:30:57Z</time>
      </trkpt>
      <trkpt lat="44.68847" lon="6.86011">
        <ele>2219.2</ele>
        <time>2026-03-25T12:30:58Z</time>
      </trkpt>
      <trkpt lat="44.68849" lon="6.86009">
        <ele>2218.7</ele>
        <time>2026-03-25T12:30:59Z</time>
      </trkpt>
      <trkpt lat="44.68852" lon="6.86006">
        <ele>2218</ele>
        <time>2026-03-25T12:31:00Z</time>
      </trkpt>
      <trkpt lat="44.68855" lon="6.86002">
        <ele>2217.4</ele>
        <time>2026-03-25T12:31:01Z</time>
      </trkpt>
      <trkpt lat="44.68859" lon="6.85997">
        <ele>2216.5</ele>
        <time>2026-03-25T12:31:02Z</time>
      </trkpt>
      <trkpt lat="44.68861" lon="6.85989">
        <ele>2215.4</ele>
        <time>2026-03-25T12:31:03Z</time>
      </trkpt>
      <trkpt lat="44.68864" lon="6.85983">
        <ele>2215.1</ele>
        <time>2026-03-25T12:31:04Z</time>
      </trkpt>
      <trkpt lat="44.68866" lon="6.85979">
        <ele>2214.8</ele>
        <time>2026-03-25T12:31:05Z</time>
      </trkpt>
      <trkpt lat="44.68867" lon="6.85978">
        <ele>2214.7</ele>
        <time>2026-03-25T12:31:06Z</time>
      </trkpt>
      <trkpt lat="44.68868" lon="6.85974">
        <ele>2214.5</ele>
        <time>2026-03-25T12:31:07Z</time>
      </trkpt>
      <trkpt lat="44.68871" lon="6.85971">
        <ele>2214.2</ele>
        <time>2026-03-25T12:31:08Z</time>
      </trkpt>
      <trkpt lat="44.68874" lon="6.85968">
        <ele>2213.9</ele>
        <time>2026-03-25T12:31:09Z</time>
      </trkpt>
      <trkpt lat="44.68876" lon="6.85964">
        <ele>2213.6</ele>
        <time>2026-03-25T12:31:10Z</time>
      </trkpt>
      <trkpt lat="44.68877" lon="6.85957">
        <ele>2213.1</ele>
        <time>2026-03-25T12:31:11Z</time>
      </trkpt>
      <trkpt lat="44.68881" lon="6.85954">
        <ele>2212.6</ele>
        <time>2026-03-25T12:31:12Z</time>
      </trkpt>
      <trkpt lat="44.68885" lon="6.85949">
        <ele>2211.9</ele>
        <time>2026-03-25T12:31:13Z</time>
      </trkpt>
      <trkpt lat="44.68887" lon="6.85943">
        <ele>2211.2</ele>
        <time>2026-03-25T12:31:14Z</time>
      </trkpt>
      <trkpt lat="44.68893" lon="6.8594">
        <ele>2210.3</ele>
        <time>2026-03-25T12:31:15Z</time>
      </trkpt>
      <trkpt lat="44.68896" lon="6.85932">
        <ele>2209.3</ele>
        <time>2026-03-25T12:31:16Z</time>
      </trkpt>
      <trkpt lat="44.68901" lon="6.85926">
        <ele>2208.3</ele>
        <time>2026-03-25T12:31:17Z</time>
      </trkpt>
      <trkpt lat="44.68907" lon="6.8592">
        <ele>2207.1</ele>
        <time>2026-03-25T12:31:18Z</time>
      </trkpt>
      <trkpt lat="44.68911" lon="6.85912">
        <ele>2206</ele>
        <time>2026-03-25T12:31:19Z</time>
      </trkpt>
      <trkpt lat="44.68917" lon="6.85906">
        <ele>2204.9</ele>
        <time>2026-03-25T12:31:20Z</time>
      </trkpt>
      <trkpt lat="44.68922" lon="6.85901">
        <ele>2203.9</ele>
        <time>2026-03-25T12:31:21Z</time>
      </trkpt>
      <trkpt lat="44.68925" lon="6.85893">
        <ele>2203</ele>
        <time>2026-03-25T12:31:22Z</time>
      </trkpt>
      <trkpt lat="44.6893" lon="6.85887">
        <ele>2202.3</ele>
        <time>2026-03-25T12:31:23Z</time>
      </trkpt>
      <trkpt lat="44.68935" lon="6.85883">
        <ele>2201.6</ele>
        <time>2026-03-25T12:31:24Z</time>
      </trkpt>
      <trkpt lat="44.68939" lon="6.8588">
        <ele>2201.1</ele>
        <time>2026-03-25T12:31:25Z</time>
      </trkpt>
      <trkpt lat="44.68942" lon="6.85876">
        <ele>2200.7</ele>
        <time>2026-03-25T12:31:26Z</time>
      </trkpt>
      <trkpt lat="44.68944" lon="6.85873">
        <ele>2200.3</ele>
        <time>2026-03-25T12:31:27Z</time>
      </trkpt>
      <trkpt lat="44.68946" lon="6.8587">
        <ele>2200.1</ele>
        <time>2026-03-25T12:31:28Z</time>
      </trkpt>
      <trkpt lat="44.68949" lon="6.85866">
        <ele>2199.8</ele>
        <time>2026-03-25T12:31:29Z</time>
      </trkpt>
      <trkpt lat="44.68952" lon="6.85864">
        <ele>2199.5</ele>
        <time>2026-03-25T12:31:30Z</time>
      </trkpt>
      <trkpt lat="44.68952" lon="6.85861">
        <ele>2199.4</ele>
        <time>2026-03-25T12:31:31Z</time>
      </trkpt>
      <trkpt lat="44.68951" lon="6.8586">
        <ele>2199.3</ele>
        <time>2026-03-25T12:31:32Z</time>
      </trkpt>
      <trkpt lat="44.68951" lon="6.8586">
        <ele>2199.3</ele>
        <time>2026-03-25T12:31:33Z</time>
      </trkpt>
      <trkpt lat="44.6895" lon="6.8586">
        <ele>2199.2</ele>
        <time>2026-03-25T12:31:34Z</time>
      </trkpt>
      <trkpt lat="44.68951" lon="6.85861">
        <ele>2199.2</ele>
        <time>2026-03-25T12:31:35Z</time>
      </trkpt>
      <trkpt lat="44.68951" lon="6.85861">
        <ele>2199.2</ele>
        <time>2026-03-25T12:31:36Z</time>
      </trkpt>
      <trkpt lat="44.68951" lon="6.85861">
        <ele>2199.2</ele>
        <time>2026-03-25T12:31:37Z</time>
      </trkpt>
      <trkpt lat="44.68951" lon="6.85861">
        <ele>2199.2</ele>
        <time>2026-03-25T12:31:38Z</time>
      </trkpt>
      <trkpt lat="44.68951" lon="6.85861">
        <ele>2199.2</ele>
        <time>2026-03-25T12:31:39Z</time>
      </trkpt>
      <trkpt lat="44.68951" lon="6.85861">
        <ele>2199.2</ele>
        <time>2026-03-25T12:31:40Z</time>
      </trkpt>
      <trkpt lat="44.6895" lon="6.85861">
        <ele>2199.1</ele>
        <time>2026-03-25T12:31:41Z</time>
      </trkpt>
      <trkpt lat="44.6895" lon="6.85861">
        <ele>2199.1</ele>
        <time>2026-03-25T12:31:42Z</time>
      </trkpt>
      <trkpt lat="44.6895" lon="6.85861">
        <ele>2199.1</ele>
        <time>2026-03-25T12:31:43Z</time>
      </trkpt>
      <trkpt lat="44.6895" lon="6.85861">
        <ele>2199.1</ele>
        <time>2026-03-25T12:31:44Z</time>
      </trkpt>
      <trkpt lat="44.6895" lon="6.85861">
        <ele>2199.1</ele>
        <time>2026-03-25T12:31:45Z</time>
      </trkpt>
      <trkpt lat="44.6895" lon="6.85861">
        <ele>2199.1</ele>
        <time>2026-03-25T12:31:46Z</time>
      </trkpt>
      <trkpt lat="44.6895" lon="6.85861">
        <ele>2199.1</ele>
        <time>2026-03-25T12:31:47Z</time>
      </trkpt>
      <trkpt lat="44.6895" lon="6.85861">
        <ele>2199.1</ele>
        <time>2026-03-25T12:31:48Z</time>
      </trkpt>
      <trkpt lat="44.6895" lon="6.85861">
        <ele>2199.1</ele>
        <time>2026-03-25T12:31:49Z</time>
      </trkpt>
      <trkpt lat="44.6895" lon="6.85861">
        <ele>2199.1</ele>
        <time>2026-03-25T12:31:50Z</time>
      </trkpt>
      <trkpt lat="44.6895" lon="6.85861">
        <ele>2199.1</ele>
        <time>2026-03-25T12:31:51Z</time>
      </trkpt>
      <trkpt lat="44.6895" lon="6.85861">
        <ele>2199.1</ele>
        <time>2026-03-25T12:31:52Z</time>
      </trkpt>
      <trkpt lat="44.6895" lon="6.85861">
        <ele>2199.1</ele>
        <time>2026-03-25T12:31:53Z</time>
      </trkpt>
      <trkpt lat="44.6895" lon="6.85861">
        <ele>2199.1</ele>
        <time>2026-03-25T12:31:54Z</time>
      </trkpt>
      <trkpt lat="44.6895" lon="6.85861">
        <ele>2199.1</ele>
        <time>2026-03-25T12:31:55Z</time>
      </trkpt>
      <trkpt lat="44.6895" lon="6.85861">
        <ele>2199.1</ele>
        <time>2026-03-25T12:31:56Z</time>
      </trkpt>
      <trkpt lat="44.6895" lon="6.85861">
        <ele>2199.1</ele>
        <time>2026-03-25T12:31:57Z</time>
      </trkpt>
      <trkpt lat="44.6895" lon="6.85861">
        <ele>2199.1</ele>
        <time>2026-03-25T12:31:58Z</time>
      </trkpt>
      <trkpt lat="44.6895" lon="6.85861">
        <ele>2199.1</ele>
        <time>2026-03-25T12:31:59Z</time>
      </trkpt>
      <trkpt lat="44.6895" lon="6.85861">
        <ele>2199.1</ele>
        <time>2026-03-25T12:32:00Z</time>
      </trkpt>
      <trkpt lat="44.6895" lon="6.85861">
        <ele>2199.1</ele>
        <time>2026-03-25T12:32:01Z</time>
      </trkpt>
      <trkpt lat="44.6895" lon="6.85861">
        <ele>2199.1</ele>
        <time>2026-03-25T12:32:02Z</time>
      </trkpt>
      <trkpt lat="44.6895" lon="6.85861">
        <ele>2199.1</ele>
        <time>2026-03-25T12:32:03Z</time>
      </trkpt>
      <trkpt lat="44.6895" lon="6.85861">
        <ele>2199.1</ele>
        <time>2026-03-25T12:32:04Z</time>
      </trkpt>
      <trkpt lat="44.6895" lon="6.85861">
        <ele>2199.1</ele>
        <time>2026-03-25T12:32:05Z</time>
      </trkpt>
      <trkpt lat="44.6895" lon="6.85861">
        <ele>2199.1</ele>
        <time>2026-03-25T12:32:06Z</time>
      </trkpt>
      <trkpt lat="44.6895" lon="6.85861">
        <ele>2199.1</ele>
        <time>2026-03-25T12:32:07Z</time>
      </trkpt>
      <trkpt lat="44.6895" lon="6.85861">
        <ele>2199.1</ele>
        <time>2026-03-25T12:32:08Z</time>
      </trkpt>
      <trkpt lat="44.6895" lon="6.85861">
        <ele>2199.1</ele>
        <time>2026-03-25T12:32:09Z</time>
      </trkpt>
      <trkpt lat="44.6895" lon="6.85861">
        <ele>2199.1</ele>
        <time>2026-03-25T12:32:10Z</time>
      </trkpt>
      <trkpt lat="44.6895" lon="6.85861">
        <ele>2199.1</ele>
        <time>2026-03-25T12:32:11Z</time>
      </trkpt>
      <trkpt lat="44.6895" lon="6.85861">
        <ele>2199.1</ele>
        <time>2026-03-25T12:32:12Z</time>
      </trkpt>
      <trkpt lat="44.6895" lon="6.85861">
        <ele>2199.1</ele>
        <time>2026-03-25T12:32:13Z</time>
      </trkpt>
      <trkpt lat="44.6895" lon="6.85861">
        <ele>2199.1</ele>
        <time>2026-03-25T12:32:14Z</time>
      </trkpt>
      <trkpt lat="44.6895" lon="6.85861">
        <ele>2199.1</ele>
        <time>2026-03-25T12:32:15Z</time>
      </trkpt>
      <trkpt lat="44.6895" lon="6.85861">
        <ele>2199.1</ele>
        <time>2026-03-25T12:32:16Z</time>
      </trkpt>
      <trkpt lat="44.6895" lon="6.85861">
        <ele>2199.1</ele>
        <time>2026-03-25T12:32:17Z</time>
      </trkpt>
      <trkpt lat="44.6895" lon="6.85861">
        <ele>2199.1</ele>
        <time>2026-03-25T12:32:18Z</time>
      </trkpt>
      <trkpt lat="44.6895" lon="6.85861">
        <ele>2199.1</ele>
        <time>2026-03-25T12:32:19Z</time>
      </trkpt>
      <trkpt lat="44.6895" lon="6.85861">
        <ele>2199.1</ele>
        <time>2026-03-25T12:32:20Z</time>
      </trkpt>
      <trkpt lat="44.6895" lon="6.85861">
        <ele>2199.1</ele>
        <time>2026-03-25T12:32:21Z</time>
      </trkpt>
      <trkpt lat="44.6895" lon="6.85861">
        <ele>2199.1</ele>
        <time>2026-03-25T12:32:22Z</time>
      </trkpt>
      <trkpt lat="44.6895" lon="6.85861">
        <ele>2199.1</ele>
        <time>2026-03-25T12:32:23Z</time>
      </trkpt>
      <trkpt lat="44.6895" lon="6.85861">
        <ele>2199.1</ele>
        <time>2026-03-25T12:32:24Z</time>
      </trkpt>
      <trkpt lat="44.6895" lon="6.85861">
        <ele>2199.1</ele>
        <time>2026-03-25T12:32:25Z</time>
      </trkpt>
      <trkpt lat="44.6895" lon="6.85861">
        <ele>2199.1</ele>
        <time>2026-03-25T12:32:26Z</time>
      </trkpt>
      <trkpt lat="44.6895" lon="6.85861">
        <ele>2199.1</ele>
        <time>2026-03-25T12:32:27Z</time>
      </trkpt>
      <trkpt lat="44.6895" lon="6.85861">
        <ele>2199.1</ele>
        <time>2026-03-25T12:32:28Z</time>
      </trkpt>
      <trkpt lat="44.6895" lon="6.85861">
        <ele>2199.1</ele>
        <time>2026-03-25T12:32:29Z</time>
      </trkpt>
      <trkpt lat="44.6895" lon="6.85861">
        <ele>2199.1</ele>
        <time>2026-03-25T12:32:30Z</time>
      </trkpt>
      <trkpt lat="44.6895" lon="6.85861">
        <ele>2199.1</ele>
        <time>2026-03-25T12:32:31Z</time>
      </trkpt>
      <trkpt lat="44.6895" lon="6.85861">
        <ele>2199.1</ele>
        <time>2026-03-25T12:32:32Z</time>
      </trkpt>
      <trkpt lat="44.6895" lon="6.85861">
        <ele>2199.1</ele>
        <time>2026-03-25T12:32:33Z</time>
      </trkpt>
      <trkpt lat="44.6895" lon="6.85861">
        <ele>2199.1</ele>
        <time>2026-03-25T12:32:34Z</time>
      </trkpt>
      <trkpt lat="44.6895" lon="6.85861">
        <ele>2199.1</ele>
        <time>2026-03-25T12:32:35Z</time>
      </trkpt>
      <trkpt lat="44.6895" lon="6.85861">
        <ele>2199.1</ele>
        <time>2026-03-25T12:32:36Z</time>
      </trkpt>
      <trkpt lat="44.6895" lon="6.85861">
        <ele>2199.1</ele>
        <time>2026-03-25T12:32:37Z</time>
      </trkpt>
      <trkpt lat="44.6895" lon="6.85861">
        <ele>2199.1</ele>
        <time>2026-03-25T12:32:38Z</time>
      </trkpt>
      <trkpt lat="44.6895" lon="6.85861">
        <ele>2199.1</ele>
        <time>2026-03-25T12:32:39Z</time>
      </trkpt>
      <trkpt lat="44.6895" lon="6.85861">
        <ele>2199.1</ele>
        <time>2026-03-25T12:32:40Z</time>
      </trkpt>
      <trkpt lat="44.6895" lon="6.85861">
        <ele>2199.1</ele>
        <time>2026-03-25T12:32:41Z</time>
      </trkpt>
      <trkpt lat="44.6895" lon="6.85861">
        <ele>2199.1</ele>
        <time>2026-03-25T12:32:42Z</time>
      </trkpt>
      <trkpt lat="44.6895" lon="6.85861">
        <ele>2199.1</ele>
        <time>2026-03-25T12:32:43Z</time>
      </trkpt>
      <trkpt lat="44.6895" lon="6.85861">
        <ele>2199.1</ele>
        <time>2026-03-25T12:32:44Z</time>
      </trkpt>
      <trkpt lat="44.6895" lon="6.85861">
        <ele>2199.1</ele>
        <time>2026-03-25T12:32:45Z</time>
      </trkpt>
      <trkpt lat="44.6895" lon="6.85861">
        <ele>2199.1</ele>
        <time>2026-03-25T12:32:46Z</time>
      </trkpt>
      <trkpt lat="44.6895" lon="6.85861">
        <ele>2199.1</ele>
        <time>2026-03-25T12:32:47Z</time>
      </trkpt>
      <trkpt lat="44.6895" lon="6.85861">
        <ele>2199.1</ele>
        <time>2026-03-25T12:32:48Z</time>
      </trkpt>
      <trkpt lat="44.6895" lon="6.85861">
        <ele>2199.1</ele>
        <time>2026-03-25T12:32:49Z</time>
      </trkpt>
      <trkpt lat="44.6895" lon="6.85861">
        <ele>2199.1</ele>
        <time>2026-03-25T12:32:50Z</time>
      </trkpt>
      <trkpt lat="44.6895" lon="6.85861">
        <ele>2199.1</ele>
        <time>2026-03-25T12:32:51Z</time>
      </trkpt>
      <trkpt lat="44.6895" lon="6.85861">
        <ele>2199.1</ele>
        <time>2026-03-25T12:32:52Z</time>
      </trkpt>
      <trkpt lat="44.6895" lon="6.85861">
        <ele>2199.1</ele>
        <time>2026-03-25T12:32:53Z</time>
      </trkpt>
      <trkpt lat="44.6895" lon="6.85861">
        <ele>2199.1</ele>
        <time>2026-03-25T12:32:54Z</time>
      </trkpt>
      <trkpt lat="44.6895" lon="6.85861">
        <ele>2199.1</ele>
        <time>2026-03-25T12:32:55Z</time>
      </trkpt>
      <trkpt lat="44.6895" lon="6.85861">
        <ele>2199.1</ele>
        <time>2026-03-25T12:32:56Z</time>
      </trkpt>
      <trkpt lat="44.6895" lon="6.85861">
        <ele>2199.1</ele>
        <time>2026-03-25T12:32:57Z</time>
      </trkpt>
      <trkpt lat="44.6895" lon="6.85861">
        <ele>2199.1</ele>
        <time>2026-03-25T12:32:58Z</time>
      </trkpt>
      <trkpt lat="44.6895" lon="6.85861">
        <ele>2199.1</ele>
        <time>2026-03-25T12:32:59Z</time>
      </trkpt>
      <trkpt lat="44.6895" lon="6.85861">
        <ele>2199.1</ele>
        <time>2026-03-25T12:33:00Z</time>
      </trkpt>
      <trkpt lat="44.6895" lon="6.85861">
        <ele>2199.1</ele>
        <time>2026-03-25T12:33:01Z</time>
      </trkpt>
      <trkpt lat="44.6895" lon="6.85861">
        <ele>2199.1</ele>
        <time>2026-03-25T12:33:02Z</time>
      </trkpt>
      <trkpt lat="44.6895" lon="6.85861">
        <ele>2199.1</ele>
        <time>2026-03-25T12:33:03Z</time>
      </trkpt>
      <trkpt lat="44.6895" lon="6.85861">
        <ele>2199.1</ele>
        <time>2026-03-25T12:33:04Z</time>
      </trkpt>
      <trkpt lat="44.6895" lon="6.85861">
        <ele>2199.1</ele>
        <time>2026-03-25T12:33:05Z</time>
      </trkpt>
      <trkpt lat="44.6895" lon="6.85861">
        <ele>2199.1</ele>
        <time>2026-03-25T12:33:06Z</time>
      </trkpt>
      <trkpt lat="44.6895" lon="6.85861">
        <ele>2199.1</ele>
        <time>2026-03-25T12:33:07Z</time>
      </trkpt>
      <trkpt lat="44.6895" lon="6.85861">
        <ele>2199.1</ele>
        <time>2026-03-25T12:33:08Z</time>
      </trkpt>
      <trkpt lat="44.6895" lon="6.85861">
        <ele>2199.1</ele>
        <time>2026-03-25T12:33:09Z</time>
      </trkpt>
      <trkpt lat="44.6895" lon="6.85861">
        <ele>2199.1</ele>
        <time>2026-03-25T12:33:10Z</time>
      </trkpt>
      <trkpt lat="44.6895" lon="6.85861">
        <ele>2199.1</ele>
        <time>2026-03-25T12:33:11Z</time>
      </trkpt>
      <trkpt lat="44.6895" lon="6.85861">
        <ele>2199.1</ele>
        <time>2026-03-25T12:33:12Z</time>
      </trkpt>
      <trkpt lat="44.6895" lon="6.85861">
        <ele>2199.1</ele>
        <time>2026-03-25T12:33:13Z</time>
      </trkpt>
      <trkpt lat="44.6895" lon="6.85861">
        <ele>2199.1</ele>
        <time>2026-03-25T12:33:14Z</time>
      </trkpt>
      <trkpt lat="44.6895" lon="6.85861">
        <ele>2199.1</ele>
        <time>2026-03-25T12:33:15Z</time>
      </trkpt>
      <trkpt lat="44.6895" lon="6.85861">
        <ele>2199.1</ele>
        <time>2026-03-25T12:33:16Z</time>
      </trkpt>
      <trkpt lat="44.6895" lon="6.85861">
        <ele>2199.1</ele>
        <time>2026-03-25T12:33:17Z</time>
      </trkpt>
      <trkpt lat="44.6895" lon="6.85861">
        <ele>2199.1</ele>
        <time>2026-03-25T12:33:18Z</time>
      </trkpt>
      <trkpt lat="44.6895" lon="6.85861">
        <ele>2199.1</ele>
        <time>2026-03-25T12:33:19Z</time>
      </trkpt>
      <trkpt lat="44.6895" lon="6.85861">
        <ele>2199.1</ele>
        <time>2026-03-25T12:33:20Z</time>
      </trkpt>
      <trkpt lat="44.6895" lon="6.85861">
        <ele>2199.1</ele>
        <time>2026-03-25T12:33:21Z</time>
      </trkpt>
      <trkpt lat="44.6895" lon="6.85861">
        <ele>2199.1</ele>
        <time>2026-03-25T12:33:22Z</time>
      </trkpt>
      <trkpt lat="44.6895" lon="6.85861">
        <ele>2199.1</ele>
        <time>2026-03-25T12:33:23Z</time>
      </trkpt>
      <trkpt lat="44.6895" lon="6.85861">
        <ele>2199.1</ele>
        <time>2026-03-25T12:33:24Z</time>
      </trkpt>
      <trkpt lat="44.6895" lon="6.85861">
        <ele>2199.1</ele>
        <time>2026-03-25T12:33:25Z</time>
      </trkpt>
      <trkpt lat="44.6895" lon="6.85861">
        <ele>2199.1</ele>
        <time>2026-03-25T12:33:26Z</time>
      </trkpt>
      <trkpt lat="44.6895" lon="6.85861">
        <ele>2199.1</ele>
        <time>2026-03-25T12:33:27Z</time>
      </trkpt>
      <trkpt lat="44.6895" lon="6.85861">
        <ele>2199.1</ele>
        <time>2026-03-25T12:33:28Z</time>
      </trkpt>
      <trkpt lat="44.6895" lon="6.85861">
        <ele>2199.1</ele>
        <time>2026-03-25T12:33:29Z</time>
      </trkpt>
      <trkpt lat="44.6895" lon="6.85861">
        <ele>2199.1</ele>
        <time>2026-03-25T12:33:30Z</time>
      </trkpt>
      <trkpt lat="44.6895" lon="6.85861">
        <ele>2199.1</ele>
        <time>2026-03-25T12:33:31Z</time>
      </trkpt>
      <trkpt lat="44.6895" lon="6.85861">
        <ele>2199.1</ele>
        <time>2026-03-25T12:33:32Z</time>
      </trkpt>
      <trkpt lat="44.6895" lon="6.85861">
        <ele>2199.1</ele>
        <time>2026-03-25T12:33:33Z</time>
      </trkpt>
      <trkpt lat="44.6895" lon="6.85861">
        <ele>2199.1</ele>
        <time>2026-03-25T12:33:34Z</time>
      </trkpt>
      <trkpt lat="44.6895" lon="6.85861">
        <ele>2199.1</ele>
        <time>2026-03-25T12:33:35Z</time>
      </trkpt>
      <trkpt lat="44.6895" lon="6.85861">
        <ele>2199.1</ele>
        <time>2026-03-25T12:33:36Z</time>
      </trkpt>
      <trkpt lat="44.6895" lon="6.85861">
        <ele>2199.1</ele>
        <time>2026-03-25T12:33:37Z</time>
      </trkpt>
      <trkpt lat="44.6895" lon="6.85861">
        <ele>2199.1</ele>
        <time>2026-03-25T12:33:38Z</time>
      </trkpt>
      <trkpt lat="44.6895" lon="6.85861">
        <ele>2199.1</ele>
        <time>2026-03-25T12:33:39Z</time>
      </trkpt>
      <trkpt lat="44.6895" lon="6.85861">
        <ele>2199.1</ele>
        <time>2026-03-25T12:33:40Z</time>
      </trkpt>
      <trkpt lat="44.6895" lon="6.85861">
        <ele>2199.1</ele>
        <time>2026-03-25T12:33:41Z</time>
      </trkpt>
      <trkpt lat="44.6895" lon="6.85861">
        <ele>2199.1</ele>
        <time>2026-03-25T12:33:42Z</time>
      </trkpt>
      <trkpt lat="44.6895" lon="6.85861">
        <ele>2199.1</ele>
        <time>2026-03-25T12:33:43Z</time>
      </trkpt>
      <trkpt lat="44.6895" lon="6.85861">
        <ele>2199.1</ele>
        <time>2026-03-25T12:33:44Z</time>
      </trkpt>
      <trkpt lat="44.6895" lon="6.85861">
        <ele>2199.1</ele>
        <time>2026-03-25T12:33:45Z</time>
      </trkpt>
      <trkpt lat="44.6895" lon="6.85861">
        <ele>2199.1</ele>
        <time>2026-03-25T12:33:46Z</time>
      </trkpt>
      <trkpt lat="44.6895" lon="6.85861">
        <ele>2199.1</ele>
        <time>2026-03-25T12:33:47Z</time>
      </trkpt>
      <trkpt lat="44.6895" lon="6.85861">
        <ele>2199.1</ele>
        <time>2026-03-25T12:33:48Z</time>
      </trkpt>
      <trkpt lat="44.6895" lon="6.85861">
        <ele>2199.1</ele>
        <time>2026-03-25T12:33:49Z</time>
      </trkpt>
      <trkpt lat="44.6895" lon="6.85861">
        <ele>2199.1</ele>
        <time>2026-03-25T12:33:50Z</time>
      </trkpt>
      <trkpt lat="44.6895" lon="6.85861">
        <ele>2199.1</ele>
        <time>2026-03-25T12:33:51Z</time>
      </trkpt>
      <trkpt lat="44.6895" lon="6.85861">
        <ele>2199.1</ele>
        <time>2026-03-25T12:33:52Z</time>
      </trkpt>
      <trkpt lat="44.6895" lon="6.85861">
        <ele>2199.1</ele>
        <time>2026-03-25T12:33:53Z</time>
      </trkpt>
      <trkpt lat="44.6895" lon="6.85861">
        <ele>2199.1</ele>
        <time>2026-03-25T12:33:54Z</time>
      </trkpt>
      <trkpt lat="44.6895" lon="6.85861">
        <ele>2199.1</ele>
        <time>2026-03-25T12:33:55Z</time>
      </trkpt>
      <trkpt lat="44.6895" lon="6.85861">
        <ele>2199.1</ele>
        <time>2026-03-25T12:33:56Z</time>
      </trkpt>
      <trkpt lat="44.6895" lon="6.85861">
        <ele>2199</ele>
        <time>2026-03-25T12:33:57Z</time>
      </trkpt>
      <trkpt lat="44.68949" lon="6.85862">
        <ele>2199</ele>
        <time>2026-03-25T12:33:58Z</time>
      </trkpt>
      <trkpt lat="44.68949" lon="6.85862">
        <ele>2199</ele>
        <time>2026-03-25T12:33:59Z</time>
      </trkpt>
      <trkpt lat="44.68949" lon="6.85863">
        <ele>2198.9</ele>
        <time>2026-03-25T12:34:00Z</time>
      </trkpt>
      <trkpt lat="44.68948" lon="6.85863">
        <ele>2198.9</ele>
        <time>2026-03-25T12:34:01Z</time>
      </trkpt>
      <trkpt lat="44.68948" lon="6.85863">
        <ele>2198.9</ele>
        <time>2026-03-25T12:34:02Z</time>
      </trkpt>
      <trkpt lat="44.68948" lon="6.85863">
        <ele>2198.9</ele>
        <time>2026-03-25T12:34:03Z</time>
      </trkpt>
      <trkpt lat="44.68948" lon="6.85863">
        <ele>2198.9</ele>
        <time>2026-03-25T12:34:04Z</time>
      </trkpt>
      <trkpt lat="44.68947" lon="6.85864">
        <ele>2198.8</ele>
        <time>2026-03-25T12:34:05Z</time>
      </trkpt>
      <trkpt lat="44.68947" lon="6.85864">
        <ele>2198.8</ele>
        <time>2026-03-25T12:34:06Z</time>
      </trkpt>
      <trkpt lat="44.68947" lon="6.85864">
        <ele>2198.8</ele>
        <time>2026-03-25T12:34:07Z</time>
      </trkpt>
      <trkpt lat="44.68947" lon="6.85864">
        <ele>2198.8</ele>
        <time>2026-03-25T12:34:08Z</time>
      </trkpt>
      <trkpt lat="44.68947" lon="6.85864">
        <ele>2198.8</ele>
        <time>2026-03-25T12:34:09Z</time>
      </trkpt>
      <trkpt lat="44.68947" lon="6.85864">
        <ele>2198.8</ele>
        <time>2026-03-25T12:34:10Z</time>
      </trkpt>
      <trkpt lat="44.68947" lon="6.85864">
        <ele>2198.8</ele>
        <time>2026-03-25T12:34:11Z</time>
      </trkpt>
      <trkpt lat="44.68947" lon="6.85864">
        <ele>2198.8</ele>
        <time>2026-03-25T12:34:12Z</time>
      </trkpt>
      <trkpt lat="44.68947" lon="6.85864">
        <ele>2198.8</ele>
        <time>2026-03-25T12:34:13Z</time>
      </trkpt>
      <trkpt lat="44.68947" lon="6.85864">
        <ele>2198.8</ele>
        <time>2026-03-25T12:34:14Z</time>
      </trkpt>
      <trkpt lat="44.68947" lon="6.85864">
        <ele>2198.8</ele>
        <time>2026-03-25T12:34:15Z</time>
      </trkpt>
      <trkpt lat="44.68947" lon="6.85864">
        <ele>2198.8</ele>
        <time>2026-03-25T12:34:16Z</time>
      </trkpt>
      <trkpt lat="44.68947" lon="6.85864">
        <ele>2198.8</ele>
        <time>2026-03-25T12:34:17Z</time>
      </trkpt>
      <trkpt lat="44.68947" lon="6.85864">
        <ele>2198.8</ele>
        <time>2026-03-25T12:34:18Z</time>
      </trkpt>
      <trkpt lat="44.68947" lon="6.85864">
        <ele>2198.8</ele>
        <time>2026-03-25T12:34:19Z</time>
      </trkpt>
      <trkpt lat="44.68947" lon="6.85864">
        <ele>2198.8</ele>
        <time>2026-03-25T12:34:20Z</time>
      </trkpt>
      <trkpt lat="44.68947" lon="6.85864">
        <ele>2198.8</ele>
        <time>2026-03-25T12:34:21Z</time>
      </trkpt>
      <trkpt lat="44.68947" lon="6.85864">
        <ele>2198.8</ele>
        <time>2026-03-25T12:34:22Z</time>
      </trkpt>
      <trkpt lat="44.68947" lon="6.85864">
        <ele>2198.8</ele>
        <time>2026-03-25T12:34:23Z</time>
      </trkpt>
      <trkpt lat="44.68947" lon="6.85864">
        <ele>2198.8</ele>
        <time>2026-03-25T12:34:24Z</time>
      </trkpt>
      <trkpt lat="44.68947" lon="6.85864">
        <ele>2198.8</ele>
        <time>2026-03-25T12:34:25Z</time>
      </trkpt>
      <trkpt lat="44.68947" lon="6.85864">
        <ele>2198.8</ele>
        <time>2026-03-25T12:34:26Z</time>
      </trkpt>
      <trkpt lat="44.68947" lon="6.85864">
        <ele>2198.8</ele>
        <time>2026-03-25T12:34:27Z</time>
      </trkpt>
      <trkpt lat="44.68947" lon="6.85864">
        <ele>2198.8</ele>
        <time>2026-03-25T12:34:28Z</time>
      </trkpt>
      <trkpt lat="44.68947" lon="6.85864">
        <ele>2198.8</ele>
        <time>2026-03-25T12:34:29Z</time>
      </trkpt>
      <trkpt lat="44.68947" lon="6.85864">
        <ele>2198.8</ele>
        <time>2026-03-25T12:34:30Z</time>
      </trkpt>
      <trkpt lat="44.68947" lon="6.85864">
        <ele>2198.8</ele>
        <time>2026-03-25T12:34:31Z</time>
      </trkpt>
      <trkpt lat="44.68947" lon="6.85864">
        <ele>2198.8</ele>
        <time>2026-03-25T12:34:32Z</time>
      </trkpt>
      <trkpt lat="44.68947" lon="6.85864">
        <ele>2198.8</ele>
        <time>2026-03-25T12:34:33Z</time>
      </trkpt>
      <trkpt lat="44.68947" lon="6.85864">
        <ele>2198.8</ele>
        <time>2026-03-25T12:34:34Z</time>
      </trkpt>
      <trkpt lat="44.68947" lon="6.85864">
        <ele>2198.8</ele>
        <time>2026-03-25T12:34:35Z</time>
      </trkpt>
      <trkpt lat="44.68947" lon="6.85864">
        <ele>2198.8</ele>
        <time>2026-03-25T12:34:36Z</time>
      </trkpt>
      <trkpt lat="44.68947" lon="6.85864">
        <ele>2198.8</ele>
        <time>2026-03-25T12:34:37Z</time>
      </trkpt>
      <trkpt lat="44.68947" lon="6.85864">
        <ele>2198.8</ele>
        <time>2026-03-25T12:34:38Z</time>
      </trkpt>
      <trkpt lat="44.68947" lon="6.85864">
        <ele>2198.8</ele>
        <time>2026-03-25T12:34:39Z</time>
      </trkpt>
      <trkpt lat="44.68947" lon="6.85864">
        <ele>2198.8</ele>
        <time>2026-03-25T12:34:40Z</time>
      </trkpt>
      <trkpt lat="44.68947" lon="6.85864">
        <ele>2198.8</ele>
        <time>2026-03-25T12:34:41Z</time>
      </trkpt>
      <trkpt lat="44.68947" lon="6.85864">
        <ele>2198.8</ele>
        <time>2026-03-25T12:34:42Z</time>
      </trkpt>
      <trkpt lat="44.68947" lon="6.85864">
        <ele>2198.8</ele>
        <time>2026-03-25T12:34:43Z</time>
      </trkpt>
      <trkpt lat="44.68947" lon="6.85864">
        <ele>2198.8</ele>
        <time>2026-03-25T12:34:44Z</time>
      </trkpt>
      <trkpt lat="44.68947" lon="6.85864">
        <ele>2198.8</ele>
        <time>2026-03-25T12:34:45Z</time>
      </trkpt>
      <trkpt lat="44.68947" lon="6.85864">
        <ele>2198.8</ele>
        <time>2026-03-25T12:34:46Z</time>
      </trkpt>
      <trkpt lat="44.68947" lon="6.85864">
        <ele>2198.8</ele>
        <time>2026-03-25T12:34:47Z</time>
      </trkpt>
      <trkpt lat="44.68947" lon="6.85864">
        <ele>2198.8</ele>
        <time>2026-03-25T12:34:48Z</time>
      </trkpt>
      <trkpt lat="44.68947" lon="6.85865">
        <ele>2198.8</ele>
        <time>2026-03-25T12:34:49Z</time>
      </trkpt>
      <trkpt lat="44.68947" lon="6.85865">
        <ele>2198.7</ele>
        <time>2026-03-25T12:34:50Z</time>
      </trkpt>
      <trkpt lat="44.68947" lon="6.85865">
        <ele>2198.7</ele>
        <time>2026-03-25T12:34:51Z</time>
      </trkpt>
      <trkpt lat="44.68947" lon="6.85865">
        <ele>2198.7</ele>
        <time>2026-03-25T12:34:52Z</time>
      </trkpt>
      <trkpt lat="44.68947" lon="6.85865">
        <ele>2198.7</ele>
        <time>2026-03-25T12:34:53Z</time>
      </trkpt>
      <trkpt lat="44.68946" lon="6.85865">
        <ele>2198.7</ele>
        <time>2026-03-25T12:34:54Z</time>
      </trkpt>
      <trkpt lat="44.68946" lon="6.85865">
        <ele>2198.7</ele>
        <time>2026-03-25T12:34:55Z</time>
      </trkpt>
      <trkpt lat="44.68946" lon="6.85865">
        <ele>2198.6</ele>
        <time>2026-03-25T12:34:56Z</time>
      </trkpt>
      <trkpt lat="44.68946" lon="6.85865">
        <ele>2198.6</ele>
        <time>2026-03-25T12:34:57Z</time>
      </trkpt>
      <trkpt lat="44.68946" lon="6.85865">
        <ele>2198.6</ele>
        <time>2026-03-25T12:34:58Z</time>
      </trkpt>
      <trkpt lat="44.68946" lon="6.85865">
        <ele>2198.6</ele>
        <time>2026-03-25T12:34:59Z</time>
      </trkpt>
      <trkpt lat="44.68945" lon="6.85865">
        <ele>2198.6</ele>
        <time>2026-03-25T12:35:00Z</time>
      </trkpt>
      <trkpt lat="44.68945" lon="6.85865">
        <ele>2198.6</ele>
        <time>2026-03-25T12:35:01Z</time>
      </trkpt>
      <trkpt lat="44.68945" lon="6.85865">
        <ele>2198.6</ele>
        <time>2026-03-25T12:35:02Z</time>
      </trkpt>
      <trkpt lat="44.68945" lon="6.85865">
        <ele>2198.6</ele>
        <time>2026-03-25T12:35:03Z</time>
      </trkpt>
      <trkpt lat="44.68945" lon="6.85865">
        <ele>2198.6</ele>
        <time>2026-03-25T12:35:04Z</time>
      </trkpt>
      <trkpt lat="44.68945" lon="6.85865">
        <ele>2198.6</ele>
        <time>2026-03-25T12:35:05Z</time>
      </trkpt>
      <trkpt lat="44.68945" lon="6.85865">
        <ele>2198.6</ele>
        <time>2026-03-25T12:35:06Z</time>
      </trkpt>
      <trkpt lat="44.68945" lon="6.85865">
        <ele>2198.6</ele>
        <time>2026-03-25T12:35:07Z</time>
      </trkpt>
      <trkpt lat="44.68945" lon="6.85865">
        <ele>2198.6</ele>
        <time>2026-03-25T12:35:08Z</time>
      </trkpt>
      <trkpt lat="44.68945" lon="6.85865">
        <ele>2198.6</ele>
        <time>2026-03-25T12:35:09Z</time>
      </trkpt>
      <trkpt lat="44.68945" lon="6.85865">
        <ele>2198.6</ele>
        <time>2026-03-25T12:35:10Z</time>
      </trkpt>
      <trkpt lat="44.68945" lon="6.85865">
        <ele>2198.6</ele>
        <time>2026-03-25T12:35:11Z</time>
      </trkpt>
      <trkpt lat="44.68945" lon="6.85865">
        <ele>2198.6</ele>
        <time>2026-03-25T12:35:12Z</time>
      </trkpt>
      <trkpt lat="44.68945" lon="6.85865">
        <ele>2198.6</ele>
        <time>2026-03-25T12:35:13Z</time>
      </trkpt>
      <trkpt lat="44.68945" lon="6.85865">
        <ele>2198.6</ele>
        <time>2026-03-25T12:35:14Z</time>
      </trkpt>
      <trkpt lat="44.68945" lon="6.85865">
        <ele>2198.6</ele>
        <time>2026-03-25T12:35:15Z</time>
      </trkpt>
      <trkpt lat="44.68945" lon="6.85865">
        <ele>2198.6</ele>
        <time>2026-03-25T12:35:16Z</time>
      </trkpt>
      <trkpt lat="44.68945" lon="6.85865">
        <ele>2198.6</ele>
        <time>2026-03-25T12:35:17Z</time>
      </trkpt>
      <trkpt lat="44.68945" lon="6.85865">
        <ele>2198.6</ele>
        <time>2026-03-25T12:35:18Z</time>
      </trkpt>
      <trkpt lat="44.68945" lon="6.85865">
        <ele>2198.6</ele>
        <time>2026-03-25T12:35:19Z</time>
      </trkpt>
      <trkpt lat="44.68945" lon="6.85865">
        <ele>2198.6</ele>
        <time>2026-03-25T12:35:20Z</time>
      </trkpt>
      <trkpt lat="44.68945" lon="6.85865">
        <ele>2198.6</ele>
        <time>2026-03-25T12:35:21Z</time>
      </trkpt>
      <trkpt lat="44.68945" lon="6.85865">
        <ele>2198.6</ele>
        <time>2026-03-25T12:35:22Z</time>
      </trkpt>
      <trkpt lat="44.68945" lon="6.85865">
        <ele>2198.6</ele>
        <time>2026-03-25T12:35:23Z</time>
      </trkpt>
      <trkpt lat="44.68945" lon="6.85865">
        <ele>2198.6</ele>
        <time>2026-03-25T12:35:24Z</time>
      </trkpt>
      <trkpt lat="44.68945" lon="6.85865">
        <ele>2198.6</ele>
        <time>2026-03-25T12:35:25Z</time>
      </trkpt>
      <trkpt lat="44.68945" lon="6.85865">
        <ele>2198.6</ele>
        <time>2026-03-25T12:35:26Z</time>
      </trkpt>
      <trkpt lat="44.68945" lon="6.85865">
        <ele>2198.6</ele>
        <time>2026-03-25T12:35:27Z</time>
      </trkpt>
      <trkpt lat="44.68945" lon="6.85865">
        <ele>2198.6</ele>
        <time>2026-03-25T12:35:28Z</time>
      </trkpt>
      <trkpt lat="44.68945" lon="6.85865">
        <ele>2198.6</ele>
        <time>2026-03-25T12:35:29Z</time>
      </trkpt>
      <trkpt lat="44.68945" lon="6.85865">
        <ele>2198.6</ele>
        <time>2026-03-25T12:35:30Z</time>
      </trkpt>
      <trkpt lat="44.68945" lon="6.85865">
        <ele>2198.6</ele>
        <time>2026-03-25T12:35:31Z</time>
      </trkpt>
      <trkpt lat="44.68945" lon="6.85865">
        <ele>2198.6</ele>
        <time>2026-03-25T12:35:32Z</time>
      </trkpt>
      <trkpt lat="44.68945" lon="6.85865">
        <ele>2198.6</ele>
        <time>2026-03-25T12:35:33Z</time>
      </trkpt>
      <trkpt lat="44.68945" lon="6.85865">
        <ele>2198.6</ele>
        <time>2026-03-25T12:35:34Z</time>
      </trkpt>
      <trkpt lat="44.68945" lon="6.85865">
        <ele>2198.6</ele>
        <time>2026-03-25T12:35:35Z</time>
      </trkpt>
      <trkpt lat="44.68945" lon="6.85865">
        <ele>2198.6</ele>
        <time>2026-03-25T12:35:36Z</time>
      </trkpt>
      <trkpt lat="44.68945" lon="6.85865">
        <ele>2198.6</ele>
        <time>2026-03-25T12:35:37Z</time>
      </trkpt>
      <trkpt lat="44.68945" lon="6.85865">
        <ele>2198.6</ele>
        <time>2026-03-25T12:35:38Z</time>
      </trkpt>
      <trkpt lat="44.68945" lon="6.85865">
        <ele>2198.6</ele>
        <time>2026-03-25T12:35:39Z</time>
      </trkpt>
      <trkpt lat="44.68945" lon="6.85865">
        <ele>2198.6</ele>
        <time>2026-03-25T12:35:40Z</time>
      </trkpt>
      <trkpt lat="44.68945" lon="6.85865">
        <ele>2198.6</ele>
        <time>2026-03-25T12:35:41Z</time>
      </trkpt>
      <trkpt lat="44.68945" lon="6.85865">
        <ele>2198.6</ele>
        <time>2026-03-25T12:35:42Z</time>
      </trkpt>
      <trkpt lat="44.68945" lon="6.85865">
        <ele>2198.6</ele>
        <time>2026-03-25T12:35:43Z</time>
      </trkpt>
      <trkpt lat="44.68945" lon="6.85865">
        <ele>2198.6</ele>
        <time>2026-03-25T12:35:44Z</time>
      </trkpt>
      <trkpt lat="44.68945" lon="6.85865">
        <ele>2198.6</ele>
        <time>2026-03-25T12:35:45Z</time>
      </trkpt>
      <trkpt lat="44.68945" lon="6.85865">
        <ele>2198.6</ele>
        <time>2026-03-25T12:35:46Z</time>
      </trkpt>
      <trkpt lat="44.68945" lon="6.85865">
        <ele>2198.6</ele>
        <time>2026-03-25T12:35:47Z</time>
      </trkpt>
      <trkpt lat="44.68945" lon="6.85865">
        <ele>2198.6</ele>
        <time>2026-03-25T12:35:48Z</time>
      </trkpt>
      <trkpt lat="44.68945" lon="6.85865">
        <ele>2198.6</ele>
        <time>2026-03-25T12:35:49Z</time>
      </trkpt>
      <trkpt lat="44.68945" lon="6.85865">
        <ele>2198.6</ele>
        <time>2026-03-25T12:35:50Z</time>
      </trkpt>
      <trkpt lat="44.68945" lon="6.85865">
        <ele>2198.6</ele>
        <time>2026-03-25T12:35:51Z</time>
      </trkpt>
      <trkpt lat="44.68945" lon="6.85865">
        <ele>2198.6</ele>
        <time>2026-03-25T12:35:52Z</time>
      </trkpt>
      <trkpt lat="44.68945" lon="6.85865">
        <ele>2198.6</ele>
        <time>2026-03-25T12:35:53Z</time>
      </trkpt>
      <trkpt lat="44.68945" lon="6.85865">
        <ele>2198.6</ele>
        <time>2026-03-25T12:35:54Z</time>
      </trkpt>
      <trkpt lat="44.68945" lon="6.85865">
        <ele>2198.6</ele>
        <time>2026-03-25T12:35:55Z</time>
      </trkpt>
      <trkpt lat="44.68945" lon="6.85865">
        <ele>2198.6</ele>
        <time>2026-03-25T12:35:56Z</time>
      </trkpt>
      <trkpt lat="44.68945" lon="6.85865">
        <ele>2198.6</ele>
        <time>2026-03-25T12:35:57Z</time>
      </trkpt>
      <trkpt lat="44.68945" lon="6.85865">
        <ele>2198.6</ele>
        <time>2026-03-25T12:35:58Z</time>
      </trkpt>
      <trkpt lat="44.68945" lon="6.85865">
        <ele>2198.6</ele>
        <time>2026-03-25T12:35:59Z</time>
      </trkpt>
      <trkpt lat="44.68945" lon="6.85865">
        <ele>2198.6</ele>
        <time>2026-03-25T12:36:00Z</time>
      </trkpt>
      <trkpt lat="44.68945" lon="6.85865">
        <ele>2198.6</ele>
        <time>2026-03-25T12:36:01Z</time>
      </trkpt>
      <trkpt lat="44.68945" lon="6.85865">
        <ele>2198.6</ele>
        <time>2026-03-25T12:36:02Z</time>
      </trkpt>
      <trkpt lat="44.68945" lon="6.85865">
        <ele>2198.6</ele>
        <time>2026-03-25T12:36:03Z</time>
      </trkpt>
      <trkpt lat="44.68945" lon="6.85865">
        <ele>2198.6</ele>
        <time>2026-03-25T12:36:04Z</time>
      </trkpt>
      <trkpt lat="44.68945" lon="6.85865">
        <ele>2198.6</ele>
        <time>2026-03-25T12:36:05Z</time>
      </trkpt>
      <trkpt lat="44.68945" lon="6.85865">
        <ele>2198.6</ele>
        <time>2026-03-25T12:36:06Z</time>
      </trkpt>
      <trkpt lat="44.68945" lon="6.85865">
        <ele>2198.6</ele>
        <time>2026-03-25T12:36:07Z</time>
      </trkpt>
      <trkpt lat="44.68945" lon="6.85865">
        <ele>2198.6</ele>
        <time>2026-03-25T12:36:08Z</time>
      </trkpt>
      <trkpt lat="44.68945" lon="6.85865">
        <ele>2198.6</ele>
        <time>2026-03-25T12:36:09Z</time>
      </trkpt>
      <trkpt lat="44.68945" lon="6.85865">
        <ele>2198.6</ele>
        <time>2026-03-25T12:36:10Z</time>
      </trkpt>
      <trkpt lat="44.68945" lon="6.85865">
        <ele>2198.6</ele>
        <time>2026-03-25T12:36:11Z</time>
      </trkpt>
      <trkpt lat="44.68945" lon="6.85865">
        <ele>2198.6</ele>
        <time>2026-03-25T12:36:12Z</time>
      </trkpt>
      <trkpt lat="44.68945" lon="6.85865">
        <ele>2198.6</ele>
        <time>2026-03-25T12:36:13Z</time>
      </trkpt>
      <trkpt lat="44.68945" lon="6.85865">
        <ele>2198.6</ele>
        <time>2026-03-25T12:36:14Z</time>
      </trkpt>
      <trkpt lat="44.68945" lon="6.85865">
        <ele>2198.6</ele>
        <time>2026-03-25T12:36:15Z</time>
      </trkpt>
      <trkpt lat="44.68945" lon="6.85865">
        <ele>2198.6</ele>
        <time>2026-03-25T12:36:16Z</time>
      </trkpt>
      <trkpt lat="44.68945" lon="6.85865">
        <ele>2198.6</ele>
        <time>2026-03-25T12:36:17Z</time>
      </trkpt>
      <trkpt lat="44.68945" lon="6.85865">
        <ele>2198.6</ele>
        <time>2026-03-25T12:36:18Z</time>
      </trkpt>
      <trkpt lat="44.68945" lon="6.85865">
        <ele>2198.6</ele>
        <time>2026-03-25T12:36:19Z</time>
      </trkpt>
      <trkpt lat="44.68945" lon="6.85865">
        <ele>2198.6</ele>
        <time>2026-03-25T12:36:20Z</time>
      </trkpt>
      <trkpt lat="44.68945" lon="6.85865">
        <ele>2198.6</ele>
        <time>2026-03-25T12:36:21Z</time>
      </trkpt>
      <trkpt lat="44.68945" lon="6.85865">
        <ele>2198.6</ele>
        <time>2026-03-25T12:36:22Z</time>
      </trkpt>
      <trkpt lat="44.68945" lon="6.85865">
        <ele>2198.6</ele>
        <time>2026-03-25T12:36:23Z</time>
      </trkpt>
      <trkpt lat="44.68945" lon="6.85865">
        <ele>2198.6</ele>
        <time>2026-03-25T12:36:24Z</time>
      </trkpt>
      <trkpt lat="44.68945" lon="6.85865">
        <ele>2198.6</ele>
        <time>2026-03-25T12:36:25Z</time>
      </trkpt>
      <trkpt lat="44.68945" lon="6.85865">
        <ele>2198.6</ele>
        <time>2026-03-25T12:36:26Z</time>
      </trkpt>
      <trkpt lat="44.68945" lon="6.85865">
        <ele>2198.6</ele>
        <time>2026-03-25T12:36:27Z</time>
      </trkpt>
      <trkpt lat="44.68945" lon="6.85865">
        <ele>2198.6</ele>
        <time>2026-03-25T12:36:28Z</time>
      </trkpt>
      <trkpt lat="44.68945" lon="6.85865">
        <ele>2198.6</ele>
        <time>2026-03-25T12:36:29Z</time>
      </trkpt>
      <trkpt lat="44.68945" lon="6.85865">
        <ele>2198.6</ele>
        <time>2026-03-25T12:36:30Z</time>
      </trkpt>
      <trkpt lat="44.68945" lon="6.85865">
        <ele>2198.6</ele>
        <time>2026-03-25T12:36:31Z</time>
      </trkpt>
      <trkpt lat="44.68945" lon="6.85865">
        <ele>2198.6</ele>
        <time>2026-03-25T12:36:32Z</time>
      </trkpt>
      <trkpt lat="44.68945" lon="6.85865">
        <ele>2198.6</ele>
        <time>2026-03-25T12:36:33Z</time>
      </trkpt>
      <trkpt lat="44.68945" lon="6.85865">
        <ele>2198.6</ele>
        <time>2026-03-25T12:36:34Z</time>
      </trkpt>
      <trkpt lat="44.68945" lon="6.85865">
        <ele>2198.6</ele>
        <time>2026-03-25T12:36:35Z</time>
      </trkpt>
      <trkpt lat="44.68945" lon="6.85865">
        <ele>2198.6</ele>
        <time>2026-03-25T12:36:36Z</time>
      </trkpt>
      <trkpt lat="44.68945" lon="6.85865">
        <ele>2198.6</ele>
        <time>2026-03-25T12:36:37Z</time>
      </trkpt>
      <trkpt lat="44.68945" lon="6.85865">
        <ele>2198.6</ele>
        <time>2026-03-25T12:36:38Z</time>
      </trkpt>
      <trkpt lat="44.68945" lon="6.85865">
        <ele>2198.6</ele>
        <time>2026-03-25T12:36:39Z</time>
      </trkpt>
      <trkpt lat="44.68945" lon="6.85865">
        <ele>2198.6</ele>
        <time>2026-03-25T12:36:40Z</time>
      </trkpt>
      <trkpt lat="44.68945" lon="6.85865">
        <ele>2198.6</ele>
        <time>2026-03-25T12:36:41Z</time>
      </trkpt>
      <trkpt lat="44.68945" lon="6.85865">
        <ele>2198.6</ele>
        <time>2026-03-25T12:36:42Z</time>
      </trkpt>
      <trkpt lat="44.68945" lon="6.85865">
        <ele>2198.6</ele>
        <time>2026-03-25T12:36:43Z</time>
      </trkpt>
      <trkpt lat="44.68945" lon="6.85865">
        <ele>2198.6</ele>
        <time>2026-03-25T12:36:44Z</time>
      </trkpt>
      <trkpt lat="44.68945" lon="6.85865">
        <ele>2198.6</ele>
        <time>2026-03-25T12:36:45Z</time>
      </trkpt>
      <trkpt lat="44.68945" lon="6.85865">
        <ele>2198.6</ele>
        <time>2026-03-25T12:36:46Z</time>
      </trkpt>
      <trkpt lat="44.68945" lon="6.85865">
        <ele>2198.6</ele>
        <time>2026-03-25T12:36:47Z</time>
      </trkpt>
      <trkpt lat="44.68945" lon="6.85865">
        <ele>2198.6</ele>
        <time>2026-03-25T12:36:48Z</time>
      </trkpt>
      <trkpt lat="44.68945" lon="6.85865">
        <ele>2198.6</ele>
        <time>2026-03-25T12:36:49Z</time>
      </trkpt>
      <trkpt lat="44.68945" lon="6.85865">
        <ele>2198.6</ele>
        <time>2026-03-25T12:36:50Z</time>
      </trkpt>
      <trkpt lat="44.68945" lon="6.85865">
        <ele>2198.6</ele>
        <time>2026-03-25T12:36:51Z</time>
      </trkpt>
      <trkpt lat="44.68945" lon="6.85865">
        <ele>2198.6</ele>
        <time>2026-03-25T12:36:52Z</time>
      </trkpt>
      <trkpt lat="44.68945" lon="6.85865">
        <ele>2198.6</ele>
        <time>2026-03-25T12:36:53Z</time>
      </trkpt>
      <trkpt lat="44.68945" lon="6.85865">
        <ele>2198.6</ele>
        <time>2026-03-25T12:36:54Z</time>
      </trkpt>
      <trkpt lat="44.68945" lon="6.85865">
        <ele>2198.6</ele>
        <time>2026-03-25T12:36:55Z</time>
      </trkpt>
      <trkpt lat="44.68945" lon="6.85865">
        <ele>2198.6</ele>
        <time>2026-03-25T12:36:56Z</time>
      </trkpt>
      <trkpt lat="44.68945" lon="6.85865">
        <ele>2198.6</ele>
        <time>2026-03-25T12:36:57Z</time>
      </trkpt>
      <trkpt lat="44.68945" lon="6.85865">
        <ele>2198.6</ele>
        <time>2026-03-25T12:36:58Z</time>
      </trkpt>
      <trkpt lat="44.68945" lon="6.85865">
        <ele>2198.6</ele>
        <time>2026-03-25T12:36:59Z</time>
      </trkpt>
      <trkpt lat="44.68945" lon="6.85865">
        <ele>2198.6</ele>
        <time>2026-03-25T12:37:00Z</time>
      </trkpt>
      <trkpt lat="44.68945" lon="6.85865">
        <ele>2198.6</ele>
        <time>2026-03-25T12:37:01Z</time>
      </trkpt>
      <trkpt lat="44.68945" lon="6.85865">
        <ele>2198.6</ele>
        <time>2026-03-25T12:37:02Z</time>
      </trkpt>
      <trkpt lat="44.68945" lon="6.85865">
        <ele>2198.6</ele>
        <time>2026-03-25T12:37:03Z</time>
      </trkpt>
      <trkpt lat="44.68945" lon="6.85865">
        <ele>2198.6</ele>
        <time>2026-03-25T12:37:04Z</time>
      </trkpt>
      <trkpt lat="44.68945" lon="6.85865">
        <ele>2198.6</ele>
        <time>2026-03-25T12:37:05Z</time>
      </trkpt>
      <trkpt lat="44.68945" lon="6.85865">
        <ele>2198.6</ele>
        <time>2026-03-25T12:37:06Z</time>
      </trkpt>
      <trkpt lat="44.68945" lon="6.85865">
        <ele>2198.6</ele>
        <time>2026-03-25T12:37:07Z</time>
      </trkpt>
      <trkpt lat="44.68945" lon="6.85865">
        <ele>2198.6</ele>
        <time>2026-03-25T12:37:08Z</time>
      </trkpt>
      <trkpt lat="44.68945" lon="6.85865">
        <ele>2198.6</ele>
        <time>2026-03-25T12:37:09Z</time>
      </trkpt>
      <trkpt lat="44.68945" lon="6.85865">
        <ele>2198.6</ele>
        <time>2026-03-25T12:37:10Z</time>
      </trkpt>
      <trkpt lat="44.68945" lon="6.85865">
        <ele>2198.6</ele>
        <time>2026-03-25T12:37:11Z</time>
      </trkpt>
      <trkpt lat="44.68945" lon="6.85865">
        <ele>2198.6</ele>
        <time>2026-03-25T12:37:12Z</time>
      </trkpt>
      <trkpt lat="44.68945" lon="6.85865">
        <ele>2198.6</ele>
        <time>2026-03-25T12:37:13Z</time>
      </trkpt>
      <trkpt lat="44.68945" lon="6.85865">
        <ele>2198.6</ele>
        <time>2026-03-25T12:37:14Z</time>
      </trkpt>
      <trkpt lat="44.68945" lon="6.85865">
        <ele>2198.6</ele>
        <time>2026-03-25T12:37:15Z</time>
      </trkpt>
      <trkpt lat="44.68945" lon="6.85865">
        <ele>2198.6</ele>
        <time>2026-03-25T12:37:16Z</time>
      </trkpt>
      <trkpt lat="44.68945" lon="6.85865">
        <ele>2198.6</ele>
        <time>2026-03-25T12:37:17Z</time>
      </trkpt>
      <trkpt lat="44.68945" lon="6.85865">
        <ele>2198.6</ele>
        <time>2026-03-25T12:37:18Z</time>
      </trkpt>
      <trkpt lat="44.68945" lon="6.85865">
        <ele>2198.6</ele>
        <time>2026-03-25T12:37:19Z</time>
      </trkpt>
      <trkpt lat="44.68945" lon="6.85865">
        <ele>2198.6</ele>
        <time>2026-03-25T12:37:20Z</time>
      </trkpt>
      <trkpt lat="44.68945" lon="6.85865">
        <ele>2198.6</ele>
        <time>2026-03-25T12:37:21Z</time>
      </trkpt>
      <trkpt lat="44.68945" lon="6.85865">
        <ele>2198.6</ele>
        <time>2026-03-25T12:37:22Z</time>
      </trkpt>
      <trkpt lat="44.68946" lon="6.85865">
        <ele>2198.6</ele>
        <time>2026-03-25T12:37:23Z</time>
      </trkpt>
      <trkpt lat="44.68946" lon="6.85865">
        <ele>2198.5</ele>
        <time>2026-03-25T12:37:24Z</time>
      </trkpt>
      <trkpt lat="44.68946" lon="6.85865">
        <ele>2198.5</ele>
        <time>2026-03-25T12:37:25Z</time>
      </trkpt>
      <trkpt lat="44.68946" lon="6.85865">
        <ele>2198.5</ele>
        <time>2026-03-25T12:37:26Z</time>
      </trkpt>
      <trkpt lat="44.68945" lon="6.85866">
        <ele>2198.5</ele>
        <time>2026-03-25T12:37:27Z</time>
      </trkpt>
      <trkpt lat="44.68945" lon="6.85866">
        <ele>2198.5</ele>
        <time>2026-03-25T12:37:28Z</time>
      </trkpt>
      <trkpt lat="44.68945" lon="6.85866">
        <ele>2198.5</ele>
        <time>2026-03-25T12:37:29Z</time>
      </trkpt>
      <trkpt lat="44.68945" lon="6.85866">
        <ele>2198.5</ele>
        <time>2026-03-25T12:37:30Z</time>
      </trkpt>
      <trkpt lat="44.68945" lon="6.85866">
        <ele>2198.5</ele>
        <time>2026-03-25T12:37:31Z</time>
      </trkpt>
      <trkpt lat="44.68945" lon="6.85866">
        <ele>2198.5</ele>
        <time>2026-03-25T12:37:32Z</time>
      </trkpt>
      <trkpt lat="44.68945" lon="6.85866">
        <ele>2198.5</ele>
        <time>2026-03-25T12:37:33Z</time>
      </trkpt>
      <trkpt lat="44.68945" lon="6.85866">
        <ele>2198.5</ele>
        <time>2026-03-25T12:37:34Z</time>
      </trkpt>
      <trkpt lat="44.68945" lon="6.85866">
        <ele>2198.5</ele>
        <time>2026-03-25T12:37:35Z</time>
      </trkpt>
      <trkpt lat="44.68945" lon="6.85866">
        <ele>2198.5</ele>
        <time>2026-03-25T12:37:36Z</time>
      </trkpt>
      <trkpt lat="44.68945" lon="6.85866">
        <ele>2198.5</ele>
        <time>2026-03-25T12:37:37Z</time>
      </trkpt>
      <trkpt lat="44.68945" lon="6.85866">
        <ele>2198.5</ele>
        <time>2026-03-25T12:37:38Z</time>
      </trkpt>
      <trkpt lat="44.68945" lon="6.85866">
        <ele>2198.5</ele>
        <time>2026-03-25T12:37:39Z</time>
      </trkpt>
      <trkpt lat="44.68945" lon="6.85866">
        <ele>2198.5</ele>
        <time>2026-03-25T12:37:40Z</time>
      </trkpt>
      <trkpt lat="44.68945" lon="6.85866">
        <ele>2198.5</ele>
        <time>2026-03-25T12:37:41Z</time>
      </trkpt>
      <trkpt lat="44.68945" lon="6.85866">
        <ele>2198.5</ele>
        <time>2026-03-25T12:37:42Z</time>
      </trkpt>
      <trkpt lat="44.68945" lon="6.85866">
        <ele>2198.5</ele>
        <time>2026-03-25T12:37:43Z</time>
      </trkpt>
      <trkpt lat="44.68945" lon="6.85866">
        <ele>2198.5</ele>
        <time>2026-03-25T12:37:44Z</time>
      </trkpt>
      <trkpt lat="44.68945" lon="6.85866">
        <ele>2198.5</ele>
        <time>2026-03-25T12:37:45Z</time>
      </trkpt>
      <trkpt lat="44.68945" lon="6.85866">
        <ele>2198.5</ele>
        <time>2026-03-25T12:37:46Z</time>
      </trkpt>
      <trkpt lat="44.68945" lon="6.85866">
        <ele>2198.5</ele>
        <time>2026-03-25T12:37:47Z</time>
      </trkpt>
      <trkpt lat="44.68945" lon="6.85866">
        <ele>2198.5</ele>
        <time>2026-03-25T12:37:48Z</time>
      </trkpt>
      <trkpt lat="44.68945" lon="6.85866">
        <ele>2198.5</ele>
        <time>2026-03-25T12:37:49Z</time>
      </trkpt>
      <trkpt lat="44.68945" lon="6.85866">
        <ele>2198.5</ele>
        <time>2026-03-25T12:37:50Z</time>
      </trkpt>
      <trkpt lat="44.68945" lon="6.85866">
        <ele>2198.5</ele>
        <time>2026-03-25T12:37:51Z</time>
      </trkpt>
      <trkpt lat="44.68945" lon="6.85866">
        <ele>2198.5</ele>
        <time>2026-03-25T12:37:52Z</time>
      </trkpt>
      <trkpt lat="44.68945" lon="6.85866">
        <ele>2198.5</ele>
        <time>2026-03-25T12:37:53Z</time>
      </trkpt>
      <trkpt lat="44.68945" lon="6.85866">
        <ele>2198.5</ele>
        <time>2026-03-25T12:37:54Z</time>
      </trkpt>
      <trkpt lat="44.68945" lon="6.85866">
        <ele>2198.5</ele>
        <time>2026-03-25T12:37:55Z</time>
      </trkpt>
      <trkpt lat="44.68945" lon="6.85866">
        <ele>2198.5</ele>
        <time>2026-03-25T12:37:56Z</time>
      </trkpt>
      <trkpt lat="44.68945" lon="6.85866">
        <ele>2198.5</ele>
        <time>2026-03-25T12:37:57Z</time>
      </trkpt>
      <trkpt lat="44.68945" lon="6.85866">
        <ele>2198.5</ele>
        <time>2026-03-25T12:37:58Z</time>
      </trkpt>
      <trkpt lat="44.68945" lon="6.85866">
        <ele>2198.5</ele>
        <time>2026-03-25T12:37:59Z</time>
      </trkpt>
      <trkpt lat="44.68945" lon="6.85866">
        <ele>2198.5</ele>
        <time>2026-03-25T12:38:00Z</time>
      </trkpt>
      <trkpt lat="44.68945" lon="6.85866">
        <ele>2198.5</ele>
        <time>2026-03-25T12:38:01Z</time>
      </trkpt>
      <trkpt lat="44.68945" lon="6.85866">
        <ele>2198.5</ele>
        <time>2026-03-25T12:38:02Z</time>
      </trkpt>
      <trkpt lat="44.68945" lon="6.85866">
        <ele>2198.5</ele>
        <time>2026-03-25T12:38:03Z</time>
      </trkpt>
      <trkpt lat="44.68945" lon="6.85866">
        <ele>2198.5</ele>
        <time>2026-03-25T12:38:04Z</time>
      </trkpt>
      <trkpt lat="44.68945" lon="6.85866">
        <ele>2198.5</ele>
        <time>2026-03-25T12:38:05Z</time>
      </trkpt>
      <trkpt lat="44.68945" lon="6.85866">
        <ele>2198.5</ele>
        <time>2026-03-25T12:38:06Z</time>
      </trkpt>
      <trkpt lat="44.68945" lon="6.85866">
        <ele>2198.5</ele>
        <time>2026-03-25T12:38:07Z</time>
      </trkpt>
      <trkpt lat="44.68945" lon="6.85866">
        <ele>2198.5</ele>
        <time>2026-03-25T12:38:08Z</time>
      </trkpt>
      <trkpt lat="44.68945" lon="6.85866">
        <ele>2198.5</ele>
        <time>2026-03-25T12:38:09Z</time>
      </trkpt>
      <trkpt lat="44.68945" lon="6.85866">
        <ele>2198.5</ele>
        <time>2026-03-25T12:38:10Z</time>
      </trkpt>
      <trkpt lat="44.68945" lon="6.85866">
        <ele>2198.5</ele>
        <time>2026-03-25T12:38:11Z</time>
      </trkpt>
      <trkpt lat="44.68945" lon="6.85866">
        <ele>2198.5</ele>
        <time>2026-03-25T12:38:12Z</time>
      </trkpt>
      <trkpt lat="44.68945" lon="6.85866">
        <ele>2198.5</ele>
        <time>2026-03-25T12:38:13Z</time>
      </trkpt>
      <trkpt lat="44.68945" lon="6.85866">
        <ele>2198.5</ele>
        <time>2026-03-25T12:38:14Z</time>
      </trkpt>
      <trkpt lat="44.68945" lon="6.85866">
        <ele>2198.5</ele>
        <time>2026-03-25T12:38:15Z</time>
      </trkpt>
      <trkpt lat="44.68945" lon="6.85866">
        <ele>2198.5</ele>
        <time>2026-03-25T12:38:16Z</time>
      </trkpt>
      <trkpt lat="44.68945" lon="6.85866">
        <ele>2198.5</ele>
        <time>2026-03-25T12:38:17Z</time>
      </trkpt>
      <trkpt lat="44.68945" lon="6.85866">
        <ele>2198.5</ele>
        <time>2026-03-25T12:38:18Z</time>
      </trkpt>
      <trkpt lat="44.68945" lon="6.85866">
        <ele>2198.5</ele>
        <time>2026-03-25T12:38:19Z</time>
      </trkpt>
      <trkpt lat="44.68945" lon="6.85866">
        <ele>2198.5</ele>
        <time>2026-03-25T12:38:20Z</time>
      </trkpt>
      <trkpt lat="44.68945" lon="6.85866">
        <ele>2198.5</ele>
        <time>2026-03-25T12:38:21Z</time>
      </trkpt>
      <trkpt lat="44.68945" lon="6.85866">
        <ele>2198.5</ele>
        <time>2026-03-25T12:38:22Z</time>
      </trkpt>
      <trkpt lat="44.68945" lon="6.85866">
        <ele>2198.5</ele>
        <time>2026-03-25T12:38:23Z</time>
      </trkpt>
      <trkpt lat="44.68945" lon="6.85866">
        <ele>2198.5</ele>
        <time>2026-03-25T12:38:24Z</time>
      </trkpt>
      <trkpt lat="44.68945" lon="6.85866">
        <ele>2198.5</ele>
        <time>2026-03-25T12:38:25Z</time>
      </trkpt>
      <trkpt lat="44.68945" lon="6.85866">
        <ele>2198.5</ele>
        <time>2026-03-25T12:38:26Z</time>
      </trkpt>
      <trkpt lat="44.68945" lon="6.85866">
        <ele>2198.5</ele>
        <time>2026-03-25T12:38:27Z</time>
      </trkpt>
      <trkpt lat="44.68945" lon="6.85866">
        <ele>2198.5</ele>
        <time>2026-03-25T12:38:28Z</time>
      </trkpt>
      <trkpt lat="44.68945" lon="6.85866">
        <ele>2198.5</ele>
        <time>2026-03-25T12:38:29Z</time>
      </trkpt>
      <trkpt lat="44.68945" lon="6.85866">
        <ele>2198.5</ele>
        <time>2026-03-25T12:38:30Z</time>
      </trkpt>
      <trkpt lat="44.68945" lon="6.85866">
        <ele>2198.5</ele>
        <time>2026-03-25T12:38:31Z</time>
      </trkpt>
      <trkpt lat="44.68945" lon="6.85866">
        <ele>2198.5</ele>
        <time>2026-03-25T12:38:32Z</time>
      </trkpt>
      <trkpt lat="44.68945" lon="6.85866">
        <ele>2198.5</ele>
        <time>2026-03-25T12:38:33Z</time>
      </trkpt>
      <trkpt lat="44.68945" lon="6.85866">
        <ele>2198.5</ele>
        <time>2026-03-25T12:38:34Z</time>
      </trkpt>
      <trkpt lat="44.68945" lon="6.85866">
        <ele>2198.5</ele>
        <time>2026-03-25T12:38:35Z</time>
      </trkpt>
      <trkpt lat="44.68945" lon="6.85866">
        <ele>2198.5</ele>
        <time>2026-03-25T12:38:36Z</time>
      </trkpt>
      <trkpt lat="44.68945" lon="6.85866">
        <ele>2198.5</ele>
        <time>2026-03-25T12:38:37Z</time>
      </trkpt>
      <trkpt lat="44.68945" lon="6.85866">
        <ele>2198.5</ele>
        <time>2026-03-25T12:38:38Z</time>
      </trkpt>
      <trkpt lat="44.68945" lon="6.85866">
        <ele>2198.5</ele>
        <time>2026-03-25T12:38:39Z</time>
      </trkpt>
      <trkpt lat="44.68945" lon="6.85866">
        <ele>2198.5</ele>
        <time>2026-03-25T12:38:40Z</time>
      </trkpt>
      <trkpt lat="44.68945" lon="6.85866">
        <ele>2198.5</ele>
        <time>2026-03-25T12:38:41Z</time>
      </trkpt>
      <trkpt lat="44.68945" lon="6.85866">
        <ele>2198.5</ele>
        <time>2026-03-25T12:38:42Z</time>
      </trkpt>
      <trkpt lat="44.68945" lon="6.85866">
        <ele>2198.5</ele>
        <time>2026-03-25T12:38:43Z</time>
      </trkpt>
      <trkpt lat="44.68945" lon="6.85866">
        <ele>2198.5</ele>
        <time>2026-03-25T12:38:44Z</time>
      </trkpt>
      <trkpt lat="44.68945" lon="6.85866">
        <ele>2198.5</ele>
        <time>2026-03-25T12:38:45Z</time>
      </trkpt>
      <trkpt lat="44.68945" lon="6.85866">
        <ele>2198.5</ele>
        <time>2026-03-25T12:38:46Z</time>
      </trkpt>
      <trkpt lat="44.68945" lon="6.85866">
        <ele>2198.5</ele>
        <time>2026-03-25T12:38:47Z</time>
      </trkpt>
      <trkpt lat="44.68945" lon="6.85866">
        <ele>2198.5</ele>
        <time>2026-03-25T12:38:48Z</time>
      </trkpt>
      <trkpt lat="44.68945" lon="6.85866">
        <ele>2198.5</ele>
        <time>2026-03-25T12:38:49Z</time>
      </trkpt>
      <trkpt lat="44.68945" lon="6.85866">
        <ele>2198.5</ele>
        <time>2026-03-25T12:38:50Z</time>
      </trkpt>
      <trkpt lat="44.68945" lon="6.85866">
        <ele>2198.5</ele>
        <time>2026-03-25T12:38:51Z</time>
      </trkpt>
      <trkpt lat="44.68945" lon="6.85866">
        <ele>2198.5</ele>
        <time>2026-03-25T12:38:52Z</time>
      </trkpt>
      <trkpt lat="44.68945" lon="6.85866">
        <ele>2198.5</ele>
        <time>2026-03-25T12:38:53Z</time>
      </trkpt>
      <trkpt lat="44.68945" lon="6.85866">
        <ele>2198.5</ele>
        <time>2026-03-25T12:38:54Z</time>
      </trkpt>
      <trkpt lat="44.68945" lon="6.85866">
        <ele>2198.5</ele>
        <time>2026-03-25T12:38:55Z</time>
      </trkpt>
      <trkpt lat="44.68945" lon="6.85866">
        <ele>2198.5</ele>
        <time>2026-03-25T12:38:56Z</time>
      </trkpt>
      <trkpt lat="44.68945" lon="6.85866">
        <ele>2198.5</ele>
        <time>2026-03-25T12:38:57Z</time>
      </trkpt>
      <trkpt lat="44.68945" lon="6.85866">
        <ele>2198.5</ele>
        <time>2026-03-25T12:38:58Z</time>
      </trkpt>
      <trkpt lat="44.68945" lon="6.85866">
        <ele>2198.5</ele>
        <time>2026-03-25T12:38:59Z</time>
      </trkpt>
      <trkpt lat="44.68945" lon="6.85866">
        <ele>2198.5</ele>
        <time>2026-03-25T12:39:00Z</time>
      </trkpt>
      <trkpt lat="44.68945" lon="6.85866">
        <ele>2198.5</ele>
        <time>2026-03-25T12:39:01Z</time>
      </trkpt>
      <trkpt lat="44.68945" lon="6.85866">
        <ele>2198.5</ele>
        <time>2026-03-25T12:39:02Z</time>
      </trkpt>
      <trkpt lat="44.68945" lon="6.85866">
        <ele>2198.5</ele>
        <time>2026-03-25T12:39:03Z</time>
      </trkpt>
      <trkpt lat="44.68945" lon="6.85866">
        <ele>2198.5</ele>
        <time>2026-03-25T12:39:04Z</time>
      </trkpt>
      <trkpt lat="44.68945" lon="6.85866">
        <ele>2198.4</ele>
        <time>2026-03-25T12:39:05Z</time>
      </trkpt>
      <trkpt lat="44.68945" lon="6.85866">
        <ele>2198.4</ele>
        <time>2026-03-25T12:39:06Z</time>
      </trkpt>
      <trkpt lat="44.68945" lon="6.85866">
        <ele>2198.4</ele>
        <time>2026-03-25T12:39:07Z</time>
      </trkpt>
      <trkpt lat="44.68945" lon="6.85866">
        <ele>2198.4</ele>
        <time>2026-03-25T12:39:08Z</time>
      </trkpt>
      <trkpt lat="44.68944" lon="6.85866">
        <ele>2198.4</ele>
        <time>2026-03-25T12:39:09Z</time>
      </trkpt>
      <trkpt lat="44.68944" lon="6.85866">
        <ele>2198.4</ele>
        <time>2026-03-25T12:39:10Z</time>
      </trkpt>
      <trkpt lat="44.68944" lon="6.85865">
        <ele>2198.4</ele>
        <time>2026-03-25T12:39:11Z</time>
      </trkpt>
      <trkpt lat="44.68944" lon="6.85865">
        <ele>2198.4</ele>
        <time>2026-03-25T12:39:12Z</time>
      </trkpt>
      <trkpt lat="44.68944" lon="6.85865">
        <ele>2198.4</ele>
        <time>2026-03-25T12:39:13Z</time>
      </trkpt>
      <trkpt lat="44.68944" lon="6.85865">
        <ele>2198.3</ele>
        <time>2026-03-25T12:39:14Z</time>
      </trkpt>
      <trkpt lat="44.68944" lon="6.85865">
        <ele>2198.3</ele>
        <time>2026-03-25T12:39:15Z</time>
      </trkpt>
      <trkpt lat="44.68944" lon="6.85865">
        <ele>2198.3</ele>
        <time>2026-03-25T12:39:16Z</time>
      </trkpt>
      <trkpt lat="44.68944" lon="6.85865">
        <ele>2198.3</ele>
        <time>2026-03-25T12:39:17Z</time>
      </trkpt>
      <trkpt lat="44.68944" lon="6.85865">
        <ele>2198.3</ele>
        <time>2026-03-25T12:39:18Z</time>
      </trkpt>
      <trkpt lat="44.68944" lon="6.85865">
        <ele>2198.3</ele>
        <time>2026-03-25T12:39:19Z</time>
      </trkpt>
      <trkpt lat="44.68944" lon="6.85865">
        <ele>2198.3</ele>
        <time>2026-03-25T12:39:20Z</time>
      </trkpt>
      <trkpt lat="44.68944" lon="6.85865">
        <ele>2198.3</ele>
        <time>2026-03-25T12:39:21Z</time>
      </trkpt>
      <trkpt lat="44.68944" lon="6.85865">
        <ele>2198.3</ele>
        <time>2026-03-25T12:39:22Z</time>
      </trkpt>
      <trkpt lat="44.68944" lon="6.85865">
        <ele>2198.3</ele>
        <time>2026-03-25T12:39:23Z</time>
      </trkpt>
      <trkpt lat="44.68944" lon="6.85865">
        <ele>2198.3</ele>
        <time>2026-03-25T12:39:24Z</time>
      </trkpt>
      <trkpt lat="44.68944" lon="6.85865">
        <ele>2198.3</ele>
        <time>2026-03-25T12:39:25Z</time>
      </trkpt>
      <trkpt lat="44.68944" lon="6.85865">
        <ele>2198.3</ele>
        <time>2026-03-25T12:39:26Z</time>
      </trkpt>
      <trkpt lat="44.68944" lon="6.85865">
        <ele>2198.3</ele>
        <time>2026-03-25T12:39:27Z</time>
      </trkpt>
      <trkpt lat="44.68944" lon="6.85865">
        <ele>2198.3</ele>
        <time>2026-03-25T12:39:28Z</time>
      </trkpt>
      <trkpt lat="44.68944" lon="6.85865">
        <ele>2198.3</ele>
        <time>2026-03-25T12:39:29Z</time>
      </trkpt>
      <trkpt lat="44.68944" lon="6.85865">
        <ele>2198.3</ele>
        <time>2026-03-25T12:39:30Z</time>
      </trkpt>
      <trkpt lat="44.68944" lon="6.85865">
        <ele>2198.3</ele>
        <time>2026-03-25T12:39:31Z</time>
      </trkpt>
      <trkpt lat="44.68944" lon="6.85865">
        <ele>2198.3</ele>
        <time>2026-03-25T12:39:32Z</time>
      </trkpt>
      <trkpt lat="44.68944" lon="6.85865">
        <ele>2198.3</ele>
        <time>2026-03-25T12:39:33Z</time>
      </trkpt>
      <trkpt lat="44.68944" lon="6.85865">
        <ele>2198.3</ele>
        <time>2026-03-25T12:39:34Z</time>
      </trkpt>
      <trkpt lat="44.68944" lon="6.85865">
        <ele>2198.3</ele>
        <time>2026-03-25T12:39:35Z</time>
      </trkpt>
      <trkpt lat="44.68944" lon="6.85865">
        <ele>2198.3</ele>
        <time>2026-03-25T12:39:36Z</time>
      </trkpt>
      <trkpt lat="44.68944" lon="6.85865">
        <ele>2198.3</ele>
        <time>2026-03-25T12:39:37Z</time>
      </trkpt>
      <trkpt lat="44.68944" lon="6.85865">
        <ele>2198.3</ele>
        <time>2026-03-25T12:39:38Z</time>
      </trkpt>
      <trkpt lat="44.68944" lon="6.85865">
        <ele>2198.3</ele>
        <time>2026-03-25T12:39:39Z</time>
      </trkpt>
      <trkpt lat="44.68944" lon="6.85865">
        <ele>2198.3</ele>
        <time>2026-03-25T12:39:40Z</time>
      </trkpt>
      <trkpt lat="44.68944" lon="6.85865">
        <ele>2198.3</ele>
        <time>2026-03-25T12:39:41Z</time>
      </trkpt>
      <trkpt lat="44.68944" lon="6.85865">
        <ele>2198.3</ele>
        <time>2026-03-25T12:39:42Z</time>
      </trkpt>
      <trkpt lat="44.68944" lon="6.85865">
        <ele>2198.3</ele>
        <time>2026-03-25T12:39:43Z</time>
      </trkpt>
      <trkpt lat="44.68944" lon="6.85865">
        <ele>2198.3</ele>
        <time>2026-03-25T12:39:44Z</time>
      </trkpt>
      <trkpt lat="44.68944" lon="6.85865">
        <ele>2198.3</ele>
        <time>2026-03-25T12:39:45Z</time>
      </trkpt>
      <trkpt lat="44.68944" lon="6.85865">
        <ele>2198.3</ele>
        <time>2026-03-25T12:39:46Z</time>
      </trkpt>
      <trkpt lat="44.68944" lon="6.85865">
        <ele>2198.3</ele>
        <time>2026-03-25T12:39:47Z</time>
      </trkpt>
      <trkpt lat="44.68944" lon="6.85865">
        <ele>2198.3</ele>
        <time>2026-03-25T12:39:48Z</time>
      </trkpt>
      <trkpt lat="44.68944" lon="6.85865">
        <ele>2198.3</ele>
        <time>2026-03-25T12:39:49Z</time>
      </trkpt>
      <trkpt lat="44.68944" lon="6.85865">
        <ele>2198.3</ele>
        <time>2026-03-25T12:39:50Z</time>
      </trkpt>
      <trkpt lat="44.68944" lon="6.85865">
        <ele>2198.3</ele>
        <time>2026-03-25T12:39:51Z</time>
      </trkpt>
      <trkpt lat="44.68944" lon="6.85865">
        <ele>2198.3</ele>
        <time>2026-03-25T12:39:52Z</time>
      </trkpt>
      <trkpt lat="44.68944" lon="6.85865">
        <ele>2198.3</ele>
        <time>2026-03-25T12:39:53Z</time>
      </trkpt>
      <trkpt lat="44.68944" lon="6.85865">
        <ele>2198.3</ele>
        <time>2026-03-25T12:39:54Z</time>
      </trkpt>
      <trkpt lat="44.68944" lon="6.85865">
        <ele>2198.3</ele>
        <time>2026-03-25T12:39:55Z</time>
      </trkpt>
      <trkpt lat="44.68944" lon="6.85865">
        <ele>2198.3</ele>
        <time>2026-03-25T12:39:56Z</time>
      </trkpt>
      <trkpt lat="44.68944" lon="6.85865">
        <ele>2198.3</ele>
        <time>2026-03-25T12:39:57Z</time>
      </trkpt>
      <trkpt lat="44.68944" lon="6.85865">
        <ele>2198.3</ele>
        <time>2026-03-25T12:39:58Z</time>
      </trkpt>
      <trkpt lat="44.68944" lon="6.85865">
        <ele>2198.3</ele>
        <time>2026-03-25T12:39:59Z</time>
      </trkpt>
      <trkpt lat="44.68944" lon="6.85865">
        <ele>2198.3</ele>
        <time>2026-03-25T12:40:00Z</time>
      </trkpt>
      <trkpt lat="44.68944" lon="6.85865">
        <ele>2198.3</ele>
        <time>2026-03-25T12:40:01Z</time>
      </trkpt>
      <trkpt lat="44.68944" lon="6.85865">
        <ele>2198.3</ele>
        <time>2026-03-25T12:40:02Z</time>
      </trkpt>
      <trkpt lat="44.68944" lon="6.85865">
        <ele>2198.3</ele>
        <time>2026-03-25T12:40:03Z</time>
      </trkpt>
      <trkpt lat="44.68943" lon="6.85865">
        <ele>2198.3</ele>
        <time>2026-03-25T12:40:04Z</time>
      </trkpt>
      <trkpt lat="44.68943" lon="6.85865">
        <ele>2198.3</ele>
        <time>2026-03-25T12:40:05Z</time>
      </trkpt>
      <trkpt lat="44.68943" lon="6.85865">
        <ele>2198.3</ele>
        <time>2026-03-25T12:40:06Z</time>
      </trkpt>
      <trkpt lat="44.68943" lon="6.85865">
        <ele>2198.2</ele>
        <time>2026-03-25T12:40:07Z</time>
      </trkpt>
      <trkpt lat="44.68943" lon="6.85865">
        <ele>2198.2</ele>
        <time>2026-03-25T12:40:08Z</time>
      </trkpt>
      <trkpt lat="44.68943" lon="6.85865">
        <ele>2198.2</ele>
        <time>2026-03-25T12:40:09Z</time>
      </trkpt>
      <trkpt lat="44.68943" lon="6.85865">
        <ele>2198.2</ele>
        <time>2026-03-25T12:40:10Z</time>
      </trkpt>
      <trkpt lat="44.68943" lon="6.85865">
        <ele>2198.2</ele>
        <time>2026-03-25T12:40:11Z</time>
      </trkpt>
      <trkpt lat="44.68943" lon="6.85866">
        <ele>2198.2</ele>
        <time>2026-03-25T12:40:12Z</time>
      </trkpt>
      <trkpt lat="44.68943" lon="6.85866">
        <ele>2198.2</ele>
        <time>2026-03-25T12:40:13Z</time>
      </trkpt>
      <trkpt lat="44.68943" lon="6.85866">
        <ele>2198.2</ele>
        <time>2026-03-25T12:40:14Z</time>
      </trkpt>
      <trkpt lat="44.68943" lon="6.85866">
        <ele>2198.2</ele>
        <time>2026-03-25T12:40:15Z</time>
      </trkpt>
      <trkpt lat="44.68943" lon="6.85866">
        <ele>2198.2</ele>
        <time>2026-03-25T12:40:16Z</time>
      </trkpt>
      <trkpt lat="44.68943" lon="6.85866">
        <ele>2198.2</ele>
        <time>2026-03-25T12:40:17Z</time>
      </trkpt>
      <trkpt lat="44.68943" lon="6.85866">
        <ele>2198.2</ele>
        <time>2026-03-25T12:40:18Z</time>
      </trkpt>
      <trkpt lat="44.68943" lon="6.85866">
        <ele>2198.2</ele>
        <time>2026-03-25T12:40:19Z</time>
      </trkpt>
      <trkpt lat="44.68943" lon="6.85866">
        <ele>2198.2</ele>
        <time>2026-03-25T12:40:20Z</time>
      </trkpt>
      <trkpt lat="44.68943" lon="6.85866">
        <ele>2198.2</ele>
        <time>2026-03-25T12:40:21Z</time>
      </trkpt>
      <trkpt lat="44.68943" lon="6.85866">
        <ele>2198.2</ele>
        <time>2026-03-25T12:40:22Z</time>
      </trkpt>
      <trkpt lat="44.68943" lon="6.85866">
        <ele>2198.2</ele>
        <time>2026-03-25T12:40:23Z</time>
      </trkpt>
      <trkpt lat="44.68943" lon="6.85866">
        <ele>2198.2</ele>
        <time>2026-03-25T12:40:24Z</time>
      </trkpt>
      <trkpt lat="44.68943" lon="6.85866">
        <ele>2198.2</ele>
        <time>2026-03-25T12:40:25Z</time>
      </trkpt>
      <trkpt lat="44.68943" lon="6.85866">
        <ele>2198.2</ele>
        <time>2026-03-25T12:40:26Z</time>
      </trkpt>
      <trkpt lat="44.68943" lon="6.85866">
        <ele>2198.2</ele>
        <time>2026-03-25T12:40:27Z</time>
      </trkpt>
      <trkpt lat="44.68943" lon="6.85866">
        <ele>2198.2</ele>
        <time>2026-03-25T12:40:28Z</time>
      </trkpt>
      <trkpt lat="44.68943" lon="6.85866">
        <ele>2198.2</ele>
        <time>2026-03-25T12:40:29Z</time>
      </trkpt>
      <trkpt lat="44.68943" lon="6.85866">
        <ele>2198.2</ele>
        <time>2026-03-25T12:40:30Z</time>
      </trkpt>
      <trkpt lat="44.68943" lon="6.85866">
        <ele>2198.2</ele>
        <time>2026-03-25T12:40:31Z</time>
      </trkpt>
      <trkpt lat="44.68943" lon="6.85866">
        <ele>2198.2</ele>
        <time>2026-03-25T12:40:32Z</time>
      </trkpt>
      <trkpt lat="44.68943" lon="6.85866">
        <ele>2198.2</ele>
        <time>2026-03-25T12:40:33Z</time>
      </trkpt>
      <trkpt lat="44.68943" lon="6.85866">
        <ele>2198.2</ele>
        <time>2026-03-25T12:40:34Z</time>
      </trkpt>
      <trkpt lat="44.68943" lon="6.85866">
        <ele>2198.2</ele>
        <time>2026-03-25T12:40:35Z</time>
      </trkpt>
      <trkpt lat="44.68943" lon="6.85866">
        <ele>2198.2</ele>
        <time>2026-03-25T12:40:36Z</time>
      </trkpt>
      <trkpt lat="44.68943" lon="6.85866">
        <ele>2198.2</ele>
        <time>2026-03-25T12:40:37Z</time>
      </trkpt>
      <trkpt lat="44.68943" lon="6.85866">
        <ele>2198.2</ele>
        <time>2026-03-25T12:40:38Z</time>
      </trkpt>
      <trkpt lat="44.68943" lon="6.85866">
        <ele>2198.2</ele>
        <time>2026-03-25T12:40:39Z</time>
      </trkpt>
      <trkpt lat="44.68943" lon="6.85866">
        <ele>2198.2</ele>
        <time>2026-03-25T12:40:40Z</time>
      </trkpt>
      <trkpt lat="44.68943" lon="6.85866">
        <ele>2198.2</ele>
        <time>2026-03-25T12:40:41Z</time>
      </trkpt>
      <trkpt lat="44.68943" lon="6.85866">
        <ele>2198.2</ele>
        <time>2026-03-25T12:40:42Z</time>
      </trkpt>
      <trkpt lat="44.68943" lon="6.85866">
        <ele>2198.2</ele>
        <time>2026-03-25T12:40:43Z</time>
      </trkpt>
      <trkpt lat="44.68943" lon="6.85866">
        <ele>2198.2</ele>
        <time>2026-03-25T12:40:44Z</time>
      </trkpt>
      <trkpt lat="44.68943" lon="6.85866">
        <ele>2198.2</ele>
        <time>2026-03-25T12:40:45Z</time>
      </trkpt>
      <trkpt lat="44.68943" lon="6.85866">
        <ele>2198.2</ele>
        <time>2026-03-25T12:40:46Z</time>
      </trkpt>
      <trkpt lat="44.68943" lon="6.85866">
        <ele>2198.2</ele>
        <time>2026-03-25T12:40:47Z</time>
      </trkpt>
      <trkpt lat="44.68943" lon="6.85866">
        <ele>2198.2</ele>
        <time>2026-03-25T12:40:48Z</time>
      </trkpt>
      <trkpt lat="44.68943" lon="6.85866">
        <ele>2198.2</ele>
        <time>2026-03-25T12:40:49Z</time>
      </trkpt>
      <trkpt lat="44.68943" lon="6.85866">
        <ele>2198.2</ele>
        <time>2026-03-25T12:40:50Z</time>
      </trkpt>
      <trkpt lat="44.68943" lon="6.85866">
        <ele>2198.2</ele>
        <time>2026-03-25T12:40:51Z</time>
      </trkpt>
      <trkpt lat="44.68943" lon="6.85866">
        <ele>2198.2</ele>
        <time>2026-03-25T12:40:52Z</time>
      </trkpt>
      <trkpt lat="44.68943" lon="6.85866">
        <ele>2198.2</ele>
        <time>2026-03-25T12:40:53Z</time>
      </trkpt>
      <trkpt lat="44.68943" lon="6.85866">
        <ele>2198.2</ele>
        <time>2026-03-25T12:40:54Z</time>
      </trkpt>
      <trkpt lat="44.68943" lon="6.85866">
        <ele>2198.2</ele>
        <time>2026-03-25T12:40:55Z</time>
      </trkpt>
      <trkpt lat="44.68943" lon="6.85866">
        <ele>2198.2</ele>
        <time>2026-03-25T12:40:56Z</time>
      </trkpt>
      <trkpt lat="44.68943" lon="6.85866">
        <ele>2198.2</ele>
        <time>2026-03-25T12:40:57Z</time>
      </trkpt>
      <trkpt lat="44.68943" lon="6.85866">
        <ele>2198.2</ele>
        <time>2026-03-25T12:40:58Z</time>
      </trkpt>
      <trkpt lat="44.68943" lon="6.85866">
        <ele>2198.2</ele>
        <time>2026-03-25T12:40:59Z</time>
      </trkpt>
      <trkpt lat="44.68943" lon="6.85866">
        <ele>2198.2</ele>
        <time>2026-03-25T12:41:00Z</time>
      </trkpt>
      <trkpt lat="44.68943" lon="6.85866">
        <ele>2198.2</ele>
        <time>2026-03-25T12:41:01Z</time>
      </trkpt>
      <trkpt lat="44.68943" lon="6.85866">
        <ele>2198.2</ele>
        <time>2026-03-25T12:41:02Z</time>
      </trkpt>
      <trkpt lat="44.68943" lon="6.85866">
        <ele>2198.2</ele>
        <time>2026-03-25T12:41:03Z</time>
      </trkpt>
      <trkpt lat="44.68943" lon="6.85866">
        <ele>2198.2</ele>
        <time>2026-03-25T12:41:04Z</time>
      </trkpt>
      <trkpt lat="44.68943" lon="6.85866">
        <ele>2198.2</ele>
        <time>2026-03-25T12:41:05Z</time>
      </trkpt>
      <trkpt lat="44.68943" lon="6.85866">
        <ele>2198.2</ele>
        <time>2026-03-25T12:41:06Z</time>
      </trkpt>
      <trkpt lat="44.68943" lon="6.85866">
        <ele>2198.2</ele>
        <time>2026-03-25T12:41:07Z</time>
      </trkpt>
      <trkpt lat="44.68943" lon="6.85866">
        <ele>2198.2</ele>
        <time>2026-03-25T12:41:08Z</time>
      </trkpt>
      <trkpt lat="44.68943" lon="6.85866">
        <ele>2198.2</ele>
        <time>2026-03-25T12:41:09Z</time>
      </trkpt>
      <trkpt lat="44.68943" lon="6.85866">
        <ele>2198.2</ele>
        <time>2026-03-25T12:41:10Z</time>
      </trkpt>
      <trkpt lat="44.68943" lon="6.85866">
        <ele>2198.2</ele>
        <time>2026-03-25T12:41:11Z</time>
      </trkpt>
      <trkpt lat="44.68943" lon="6.85866">
        <ele>2198.2</ele>
        <time>2026-03-25T12:41:12Z</time>
      </trkpt>
      <trkpt lat="44.68943" lon="6.85866">
        <ele>2198.2</ele>
        <time>2026-03-25T12:41:13Z</time>
      </trkpt>
      <trkpt lat="44.68943" lon="6.85866">
        <ele>2198.2</ele>
        <time>2026-03-25T12:41:14Z</time>
      </trkpt>
      <trkpt lat="44.68943" lon="6.85866">
        <ele>2198.2</ele>
        <time>2026-03-25T12:41:15Z</time>
      </trkpt>
      <trkpt lat="44.68943" lon="6.85866">
        <ele>2198.2</ele>
        <time>2026-03-25T12:41:16Z</time>
      </trkpt>
      <trkpt lat="44.68943" lon="6.85866">
        <ele>2198.2</ele>
        <time>2026-03-25T12:41:17Z</time>
      </trkpt>
      <trkpt lat="44.68943" lon="6.85866">
        <ele>2198.2</ele>
        <time>2026-03-25T12:41:18Z</time>
      </trkpt>
      <trkpt lat="44.68943" lon="6.85866">
        <ele>2198.2</ele>
        <time>2026-03-25T12:41:19Z</time>
      </trkpt>
      <trkpt lat="44.68943" lon="6.85866">
        <ele>2198.2</ele>
        <time>2026-03-25T12:41:20Z</time>
      </trkpt>
      <trkpt lat="44.68943" lon="6.85866">
        <ele>2198.2</ele>
        <time>2026-03-25T12:41:21Z</time>
      </trkpt>
      <trkpt lat="44.68943" lon="6.85866">
        <ele>2198.2</ele>
        <time>2026-03-25T12:41:22Z</time>
      </trkpt>
      <trkpt lat="44.68943" lon="6.85866">
        <ele>2198.2</ele>
        <time>2026-03-25T12:41:23Z</time>
      </trkpt>
      <trkpt lat="44.68943" lon="6.85866">
        <ele>2198.2</ele>
        <time>2026-03-25T12:41:24Z</time>
      </trkpt>
      <trkpt lat="44.68943" lon="6.85866">
        <ele>2198.2</ele>
        <time>2026-03-25T12:41:25Z</time>
      </trkpt>
      <trkpt lat="44.68943" lon="6.85866">
        <ele>2198.2</ele>
        <time>2026-03-25T12:41:26Z</time>
      </trkpt>
      <trkpt lat="44.68943" lon="6.85866">
        <ele>2198.2</ele>
        <time>2026-03-25T12:41:27Z</time>
      </trkpt>
      <trkpt lat="44.68943" lon="6.85866">
        <ele>2198.2</ele>
        <time>2026-03-25T12:41:28Z</time>
      </trkpt>
      <trkpt lat="44.68943" lon="6.85866">
        <ele>2198.2</ele>
        <time>2026-03-25T12:41:29Z</time>
      </trkpt>
      <trkpt lat="44.68943" lon="6.85866">
        <ele>2198.2</ele>
        <time>2026-03-25T12:41:30Z</time>
      </trkpt>
      <trkpt lat="44.68943" lon="6.85867">
        <ele>2198.2</ele>
        <time>2026-03-25T12:41:31Z</time>
      </trkpt>
      <trkpt lat="44.68942" lon="6.85867">
        <ele>2198.1</ele>
        <time>2026-03-25T12:41:32Z</time>
      </trkpt>
      <trkpt lat="44.68943" lon="6.85868">
        <ele>2198.1</ele>
        <time>2026-03-25T12:41:33Z</time>
      </trkpt>
      <trkpt lat="44.68942" lon="6.85868">
        <ele>2198.1</ele>
        <time>2026-03-25T12:41:34Z</time>
      </trkpt>
      <trkpt lat="44.68942" lon="6.85868">
        <ele>2198.1</ele>
        <time>2026-03-25T12:41:35Z</time>
      </trkpt>
      <trkpt lat="44.68942" lon="6.85868">
        <ele>2198.1</ele>
        <time>2026-03-25T12:41:36Z</time>
      </trkpt>
      <trkpt lat="44.68942" lon="6.85869">
        <ele>2198.1</ele>
        <time>2026-03-25T12:41:37Z</time>
      </trkpt>
      <trkpt lat="44.68942" lon="6.85869">
        <ele>2198</ele>
        <time>2026-03-25T12:41:38Z</time>
      </trkpt>
      <trkpt lat="44.68943" lon="6.8587">
        <ele>2198</ele>
        <time>2026-03-25T12:41:39Z</time>
      </trkpt>
      <trkpt lat="44.68943" lon="6.8587">
        <ele>2198</ele>
        <time>2026-03-25T12:41:40Z</time>
      </trkpt>
      <trkpt lat="44.68943" lon="6.8587">
        <ele>2198</ele>
        <time>2026-03-25T12:41:41Z</time>
      </trkpt>
      <trkpt lat="44.68943" lon="6.85871">
        <ele>2197.9</ele>
        <time>2026-03-25T12:41:42Z</time>
      </trkpt>
      <trkpt lat="44.68943" lon="6.8587">
        <ele>2197.9</ele>
        <time>2026-03-25T12:41:43Z</time>
      </trkpt>
      <trkpt lat="44.68943" lon="6.8587">
        <ele>2197.9</ele>
        <time>2026-03-25T12:41:44Z</time>
      </trkpt>
      <trkpt lat="44.68943" lon="6.85871">
        <ele>2197.9</ele>
        <time>2026-03-25T12:41:45Z</time>
      </trkpt>
      <trkpt lat="44.68943" lon="6.85871">
        <ele>2197.9</ele>
        <time>2026-03-25T12:41:46Z</time>
      </trkpt>
      <trkpt lat="44.68943" lon="6.85871">
        <ele>2197.9</ele>
        <time>2026-03-25T12:41:47Z</time>
      </trkpt>
      <trkpt lat="44.68943" lon="6.8587">
        <ele>2197.9</ele>
        <time>2026-03-25T12:41:48Z</time>
      </trkpt>
      <trkpt lat="44.68943" lon="6.8587">
        <ele>2197.9</ele>
        <time>2026-03-25T12:41:49Z</time>
      </trkpt>
      <trkpt lat="44.68943" lon="6.8587">
        <ele>2197.9</ele>
        <time>2026-03-25T12:41:50Z</time>
      </trkpt>
      <trkpt lat="44.68943" lon="6.8587">
        <ele>2197.9</ele>
        <time>2026-03-25T12:41:51Z</time>
      </trkpt>
      <trkpt lat="44.68943" lon="6.8587">
        <ele>2197.9</ele>
        <time>2026-03-25T12:41:52Z</time>
      </trkpt>
      <trkpt lat="44.68943" lon="6.8587">
        <ele>2197.9</ele>
        <time>2026-03-25T12:41:53Z</time>
      </trkpt>
      <trkpt lat="44.68943" lon="6.8587">
        <ele>2197.9</ele>
        <time>2026-03-25T12:41:54Z</time>
      </trkpt>
      <trkpt lat="44.68943" lon="6.8587">
        <ele>2197.9</ele>
        <time>2026-03-25T12:41:55Z</time>
      </trkpt>
      <trkpt lat="44.68943" lon="6.8587">
        <ele>2197.9</ele>
        <time>2026-03-25T12:41:56Z</time>
      </trkpt>
      <trkpt lat="44.68943" lon="6.8587">
        <ele>2197.9</ele>
        <time>2026-03-25T12:41:57Z</time>
      </trkpt>
      <trkpt lat="44.68943" lon="6.8587">
        <ele>2197.9</ele>
        <time>2026-03-25T12:41:58Z</time>
      </trkpt>
      <trkpt lat="44.68943" lon="6.8587">
        <ele>2197.9</ele>
        <time>2026-03-25T12:41:59Z</time>
      </trkpt>
      <trkpt lat="44.68943" lon="6.8587">
        <ele>2197.9</ele>
        <time>2026-03-25T12:42:00Z</time>
      </trkpt>
      <trkpt lat="44.68943" lon="6.8587">
        <ele>2197.9</ele>
        <time>2026-03-25T12:42:01Z</time>
      </trkpt>
      <trkpt lat="44.68943" lon="6.8587">
        <ele>2197.9</ele>
        <time>2026-03-25T12:42:02Z</time>
      </trkpt>
      <trkpt lat="44.68943" lon="6.8587">
        <ele>2197.9</ele>
        <time>2026-03-25T12:42:03Z</time>
      </trkpt>
      <trkpt lat="44.68943" lon="6.8587">
        <ele>2197.9</ele>
        <time>2026-03-25T12:42:04Z</time>
      </trkpt>
      <trkpt lat="44.68943" lon="6.8587">
        <ele>2197.9</ele>
        <time>2026-03-25T12:42:05Z</time>
      </trkpt>
      <trkpt lat="44.68943" lon="6.8587">
        <ele>2197.9</ele>
        <time>2026-03-25T12:42:06Z</time>
      </trkpt>
      <trkpt lat="44.68943" lon="6.8587">
        <ele>2197.9</ele>
        <time>2026-03-25T12:42:07Z</time>
      </trkpt>
      <trkpt lat="44.68943" lon="6.8587">
        <ele>2197.9</ele>
        <time>2026-03-25T12:42:08Z</time>
      </trkpt>
      <trkpt lat="44.68943" lon="6.8587">
        <ele>2197.9</ele>
        <time>2026-03-25T12:42:09Z</time>
      </trkpt>
      <trkpt lat="44.68943" lon="6.8587">
        <ele>2197.9</ele>
        <time>2026-03-25T12:42:10Z</time>
      </trkpt>
      <trkpt lat="44.68943" lon="6.8587">
        <ele>2197.9</ele>
        <time>2026-03-25T12:42:11Z</time>
      </trkpt>
      <trkpt lat="44.68943" lon="6.8587">
        <ele>2197.9</ele>
        <time>2026-03-25T12:42:12Z</time>
      </trkpt>
      <trkpt lat="44.68943" lon="6.8587">
        <ele>2197.9</ele>
        <time>2026-03-25T12:42:13Z</time>
      </trkpt>
      <trkpt lat="44.68943" lon="6.8587">
        <ele>2197.9</ele>
        <time>2026-03-25T12:42:14Z</time>
      </trkpt>
      <trkpt lat="44.68943" lon="6.8587">
        <ele>2197.9</ele>
        <time>2026-03-25T12:42:15Z</time>
      </trkpt>
      <trkpt lat="44.68943" lon="6.8587">
        <ele>2197.9</ele>
        <time>2026-03-25T12:42:16Z</time>
      </trkpt>
      <trkpt lat="44.68943" lon="6.8587">
        <ele>2197.9</ele>
        <time>2026-03-25T12:42:17Z</time>
      </trkpt>
      <trkpt lat="44.68943" lon="6.8587">
        <ele>2197.9</ele>
        <time>2026-03-25T12:42:18Z</time>
      </trkpt>
      <trkpt lat="44.68943" lon="6.8587">
        <ele>2197.9</ele>
        <time>2026-03-25T12:42:19Z</time>
      </trkpt>
      <trkpt lat="44.68943" lon="6.8587">
        <ele>2197.9</ele>
        <time>2026-03-25T12:42:20Z</time>
      </trkpt>
      <trkpt lat="44.68943" lon="6.8587">
        <ele>2197.9</ele>
        <time>2026-03-25T12:42:21Z</time>
      </trkpt>
      <trkpt lat="44.68943" lon="6.8587">
        <ele>2197.9</ele>
        <time>2026-03-25T12:42:22Z</time>
      </trkpt>
      <trkpt lat="44.68943" lon="6.8587">
        <ele>2197.9</ele>
        <time>2026-03-25T12:42:23Z</time>
      </trkpt>
      <trkpt lat="44.68943" lon="6.8587">
        <ele>2197.9</ele>
        <time>2026-03-25T12:42:24Z</time>
      </trkpt>
      <trkpt lat="44.68943" lon="6.8587">
        <ele>2197.9</ele>
        <time>2026-03-25T12:42:25Z</time>
      </trkpt>
      <trkpt lat="44.68943" lon="6.8587">
        <ele>2197.9</ele>
        <time>2026-03-25T12:42:26Z</time>
      </trkpt>
      <trkpt lat="44.68943" lon="6.8587">
        <ele>2197.9</ele>
        <time>2026-03-25T12:42:27Z</time>
      </trkpt>
      <trkpt lat="44.68943" lon="6.8587">
        <ele>2197.9</ele>
        <time>2026-03-25T12:42:28Z</time>
      </trkpt>
      <trkpt lat="44.68943" lon="6.8587">
        <ele>2197.9</ele>
        <time>2026-03-25T12:42:29Z</time>
      </trkpt>
      <trkpt lat="44.68943" lon="6.8587">
        <ele>2197.9</ele>
        <time>2026-03-25T12:42:30Z</time>
      </trkpt>
      <trkpt lat="44.68943" lon="6.8587">
        <ele>2197.9</ele>
        <time>2026-03-25T12:42:31Z</time>
      </trkpt>
      <trkpt lat="44.68943" lon="6.8587">
        <ele>2197.9</ele>
        <time>2026-03-25T12:42:32Z</time>
      </trkpt>
      <trkpt lat="44.68943" lon="6.8587">
        <ele>2197.9</ele>
        <time>2026-03-25T12:42:33Z</time>
      </trkpt>
      <trkpt lat="44.68943" lon="6.8587">
        <ele>2197.9</ele>
        <time>2026-03-25T12:42:34Z</time>
      </trkpt>
      <trkpt lat="44.68943" lon="6.8587">
        <ele>2197.9</ele>
        <time>2026-03-25T12:42:35Z</time>
      </trkpt>
      <trkpt lat="44.68943" lon="6.8587">
        <ele>2197.9</ele>
        <time>2026-03-25T12:42:36Z</time>
      </trkpt>
      <trkpt lat="44.68943" lon="6.85869">
        <ele>2197.8</ele>
        <time>2026-03-25T12:42:37Z</time>
      </trkpt>
      <trkpt lat="44.68943" lon="6.8587">
        <ele>2197.8</ele>
        <time>2026-03-25T12:42:38Z</time>
      </trkpt>
      <trkpt lat="44.68942" lon="6.8587">
        <ele>2197.8</ele>
        <time>2026-03-25T12:42:39Z</time>
      </trkpt>
      <trkpt lat="44.68942" lon="6.8587">
        <ele>2197.8</ele>
        <time>2026-03-25T12:42:40Z</time>
      </trkpt>
      <trkpt lat="44.68942" lon="6.85871">
        <ele>2197.8</ele>
        <time>2026-03-25T12:42:41Z</time>
      </trkpt>
      <trkpt lat="44.68943" lon="6.85871">
        <ele>2197.8</ele>
        <time>2026-03-25T12:42:42Z</time>
      </trkpt>
      <trkpt lat="44.68942" lon="6.85871">
        <ele>2197.7</ele>
        <time>2026-03-25T12:42:43Z</time>
      </trkpt>
      <trkpt lat="44.68942" lon="6.85872">
        <ele>2197.7</ele>
        <time>2026-03-25T12:42:44Z</time>
      </trkpt>
      <trkpt lat="44.68942" lon="6.85872">
        <ele>2197.7</ele>
        <time>2026-03-25T12:42:45Z</time>
      </trkpt>
      <trkpt lat="44.68942" lon="6.85873">
        <ele>2197.7</ele>
        <time>2026-03-25T12:42:46Z</time>
      </trkpt>
      <trkpt lat="44.68941" lon="6.85873">
        <ele>2197.6</ele>
        <time>2026-03-25T12:42:47Z</time>
      </trkpt>
      <trkpt lat="44.68941" lon="6.85873">
        <ele>2197.6</ele>
        <time>2026-03-25T12:42:48Z</time>
      </trkpt>
      <trkpt lat="44.6894" lon="6.85873">
        <ele>2197.6</ele>
        <time>2026-03-25T12:42:49Z</time>
      </trkpt>
      <trkpt lat="44.6894" lon="6.85872">
        <ele>2197.6</ele>
        <time>2026-03-25T12:42:50Z</time>
      </trkpt>
      <trkpt lat="44.6894" lon="6.85872">
        <ele>2197.6</ele>
        <time>2026-03-25T12:42:51Z</time>
      </trkpt>
      <trkpt lat="44.68941" lon="6.85872">
        <ele>2197.6</ele>
        <time>2026-03-25T12:42:52Z</time>
      </trkpt>
      <trkpt lat="44.6894" lon="6.85873">
        <ele>2197.5</ele>
        <time>2026-03-25T12:42:53Z</time>
      </trkpt>
      <trkpt lat="44.6894" lon="6.85873">
        <ele>2197.5</ele>
        <time>2026-03-25T12:42:54Z</time>
      </trkpt>
      <trkpt lat="44.68941" lon="6.85873">
        <ele>2197.5</ele>
        <time>2026-03-25T12:42:55Z</time>
      </trkpt>
      <trkpt lat="44.6894" lon="6.85872">
        <ele>2197.5</ele>
        <time>2026-03-25T12:42:56Z</time>
      </trkpt>
      <trkpt lat="44.6894" lon="6.85872">
        <ele>2197.5</ele>
        <time>2026-03-25T12:42:57Z</time>
      </trkpt>
      <trkpt lat="44.6894" lon="6.85872">
        <ele>2197.5</ele>
        <time>2026-03-25T12:42:58Z</time>
      </trkpt>
      <trkpt lat="44.6894" lon="6.85872">
        <ele>2197.5</ele>
        <time>2026-03-25T12:42:59Z</time>
      </trkpt>
      <trkpt lat="44.6894" lon="6.85872">
        <ele>2197.5</ele>
        <time>2026-03-25T12:43:00Z</time>
      </trkpt>
      <trkpt lat="44.6894" lon="6.85872">
        <ele>2197.4</ele>
        <time>2026-03-25T12:43:01Z</time>
      </trkpt>
      <trkpt lat="44.6894" lon="6.85872">
        <ele>2197.4</ele>
        <time>2026-03-25T12:43:02Z</time>
      </trkpt>
      <trkpt lat="44.6894" lon="6.85872">
        <ele>2197.4</ele>
        <time>2026-03-25T12:43:03Z</time>
      </trkpt>
      <trkpt lat="44.6894" lon="6.85872">
        <ele>2197.4</ele>
        <time>2026-03-25T12:43:04Z</time>
      </trkpt>
      <trkpt lat="44.6894" lon="6.85872">
        <ele>2197.4</ele>
        <time>2026-03-25T12:43:05Z</time>
      </trkpt>
      <trkpt lat="44.6894" lon="6.85872">
        <ele>2197.4</ele>
        <time>2026-03-25T12:43:06Z</time>
      </trkpt>
      <trkpt lat="44.6894" lon="6.85872">
        <ele>2197.4</ele>
        <time>2026-03-25T12:43:07Z</time>
      </trkpt>
      <trkpt lat="44.6894" lon="6.85872">
        <ele>2197.4</ele>
        <time>2026-03-25T12:43:08Z</time>
      </trkpt>
      <trkpt lat="44.6894" lon="6.85872">
        <ele>2197.4</ele>
        <time>2026-03-25T12:43:09Z</time>
      </trkpt>
      <trkpt lat="44.6894" lon="6.85872">
        <ele>2197.4</ele>
        <time>2026-03-25T12:43:10Z</time>
      </trkpt>
      <trkpt lat="44.6894" lon="6.85872">
        <ele>2197.4</ele>
        <time>2026-03-25T12:43:11Z</time>
      </trkpt>
      <trkpt lat="44.6894" lon="6.85872">
        <ele>2197.4</ele>
        <time>2026-03-25T12:43:12Z</time>
      </trkpt>
      <trkpt lat="44.6894" lon="6.85872">
        <ele>2197.4</ele>
        <time>2026-03-25T12:43:13Z</time>
      </trkpt>
      <trkpt lat="44.6894" lon="6.85872">
        <ele>2197.4</ele>
        <time>2026-03-25T12:43:14Z</time>
      </trkpt>
      <trkpt lat="44.6894" lon="6.85872">
        <ele>2197.4</ele>
        <time>2026-03-25T12:43:15Z</time>
      </trkpt>
      <trkpt lat="44.6894" lon="6.85872">
        <ele>2197.4</ele>
        <time>2026-03-25T12:43:16Z</time>
      </trkpt>
      <trkpt lat="44.6894" lon="6.85872">
        <ele>2197.4</ele>
        <time>2026-03-25T12:43:17Z</time>
      </trkpt>
      <trkpt lat="44.6894" lon="6.85872">
        <ele>2197.4</ele>
        <time>2026-03-25T12:43:18Z</time>
      </trkpt>
      <trkpt lat="44.6894" lon="6.85872">
        <ele>2197.4</ele>
        <time>2026-03-25T12:43:19Z</time>
      </trkpt>
      <trkpt lat="44.6894" lon="6.85872">
        <ele>2197.4</ele>
        <time>2026-03-25T12:43:20Z</time>
      </trkpt>
      <trkpt lat="44.6894" lon="6.85872">
        <ele>2197.4</ele>
        <time>2026-03-25T12:43:21Z</time>
      </trkpt>
      <trkpt lat="44.6894" lon="6.85872">
        <ele>2197.4</ele>
        <time>2026-03-25T12:43:22Z</time>
      </trkpt>
      <trkpt lat="44.6894" lon="6.85872">
        <ele>2197.4</ele>
        <time>2026-03-25T12:43:23Z</time>
      </trkpt>
      <trkpt lat="44.6894" lon="6.85872">
        <ele>2197.4</ele>
        <time>2026-03-25T12:43:24Z</time>
      </trkpt>
      <trkpt lat="44.6894" lon="6.85872">
        <ele>2197.4</ele>
        <time>2026-03-25T12:43:25Z</time>
      </trkpt>
      <trkpt lat="44.6894" lon="6.85872">
        <ele>2197.4</ele>
        <time>2026-03-25T12:43:26Z</time>
      </trkpt>
      <trkpt lat="44.6894" lon="6.85872">
        <ele>2197.4</ele>
        <time>2026-03-25T12:43:27Z</time>
      </trkpt>
      <trkpt lat="44.6894" lon="6.85872">
        <ele>2197.4</ele>
        <time>2026-03-25T12:43:28Z</time>
      </trkpt>
      <trkpt lat="44.6894" lon="6.85872">
        <ele>2197.4</ele>
        <time>2026-03-25T12:43:29Z</time>
      </trkpt>
      <trkpt lat="44.6894" lon="6.85872">
        <ele>2197.4</ele>
        <time>2026-03-25T12:43:30Z</time>
      </trkpt>
      <trkpt lat="44.6894" lon="6.85872">
        <ele>2197.4</ele>
        <time>2026-03-25T12:43:31Z</time>
      </trkpt>
      <trkpt lat="44.6894" lon="6.85872">
        <ele>2197.4</ele>
        <time>2026-03-25T12:43:32Z</time>
      </trkpt>
      <trkpt lat="44.6894" lon="6.85872">
        <ele>2197.4</ele>
        <time>2026-03-25T12:43:33Z</time>
      </trkpt>
      <trkpt lat="44.6894" lon="6.85872">
        <ele>2197.4</ele>
        <time>2026-03-25T12:43:34Z</time>
      </trkpt>
      <trkpt lat="44.6894" lon="6.85872">
        <ele>2197.4</ele>
        <time>2026-03-25T12:43:35Z</time>
      </trkpt>
      <trkpt lat="44.6894" lon="6.85872">
        <ele>2197.4</ele>
        <time>2026-03-25T12:43:36Z</time>
      </trkpt>
      <trkpt lat="44.6894" lon="6.85872">
        <ele>2197.4</ele>
        <time>2026-03-25T12:43:37Z</time>
      </trkpt>
      <trkpt lat="44.6894" lon="6.85872">
        <ele>2197.4</ele>
        <time>2026-03-25T12:43:38Z</time>
      </trkpt>
      <trkpt lat="44.6894" lon="6.85872">
        <ele>2197.4</ele>
        <time>2026-03-25T12:43:39Z</time>
      </trkpt>
      <trkpt lat="44.6894" lon="6.85872">
        <ele>2197.4</ele>
        <time>2026-03-25T12:43:40Z</time>
      </trkpt>
      <trkpt lat="44.6894" lon="6.85872">
        <ele>2197.4</ele>
        <time>2026-03-25T12:43:41Z</time>
      </trkpt>
      <trkpt lat="44.68941" lon="6.85871">
        <ele>2197.3</ele>
        <time>2026-03-25T12:43:42Z</time>
      </trkpt>
      <trkpt lat="44.68941" lon="6.85871">
        <ele>2197.3</ele>
        <time>2026-03-25T12:43:43Z</time>
      </trkpt>
      <trkpt lat="44.68942" lon="6.85871">
        <ele>2197.3</ele>
        <time>2026-03-25T12:43:44Z</time>
      </trkpt>
      <trkpt lat="44.68942" lon="6.85871">
        <ele>2197.3</ele>
        <time>2026-03-25T12:43:45Z</time>
      </trkpt>
      <trkpt lat="44.68941" lon="6.85871">
        <ele>2197.3</ele>
        <time>2026-03-25T12:43:46Z</time>
      </trkpt>
      <trkpt lat="44.68941" lon="6.85871">
        <ele>2197.3</ele>
        <time>2026-03-25T12:43:47Z</time>
      </trkpt>
      <trkpt lat="44.68941" lon="6.85871">
        <ele>2197.3</ele>
        <time>2026-03-25T12:43:48Z</time>
      </trkpt>
      <trkpt lat="44.68941" lon="6.85871">
        <ele>2197.2</ele>
        <time>2026-03-25T12:43:49Z</time>
      </trkpt>
      <trkpt lat="44.68942" lon="6.85872">
        <ele>2197.2</ele>
        <time>2026-03-25T12:43:50Z</time>
      </trkpt>
      <trkpt lat="44.68942" lon="6.85872">
        <ele>2197.2</ele>
        <time>2026-03-25T12:43:51Z</time>
      </trkpt>
      <trkpt lat="44.68942" lon="6.85872">
        <ele>2197.2</ele>
        <time>2026-03-25T12:43:52Z</time>
      </trkpt>
      <trkpt lat="44.68942" lon="6.85872">
        <ele>2197.2</ele>
        <time>2026-03-25T12:43:53Z</time>
      </trkpt>
      <trkpt lat="44.68942" lon="6.85872">
        <ele>2197.2</ele>
        <time>2026-03-25T12:43:54Z</time>
      </trkpt>
      <trkpt lat="44.68942" lon="6.85872">
        <ele>2197.2</ele>
        <time>2026-03-25T12:43:55Z</time>
      </trkpt>
      <trkpt lat="44.68942" lon="6.85872">
        <ele>2197.2</ele>
        <time>2026-03-25T12:43:56Z</time>
      </trkpt>
      <trkpt lat="44.68941" lon="6.85872">
        <ele>2197.2</ele>
        <time>2026-03-25T12:43:57Z</time>
      </trkpt>
      <trkpt lat="44.68941" lon="6.85872">
        <ele>2197.2</ele>
        <time>2026-03-25T12:43:58Z</time>
      </trkpt>
      <trkpt lat="44.68941" lon="6.85872">
        <ele>2197.2</ele>
        <time>2026-03-25T12:43:59Z</time>
      </trkpt>
      <trkpt lat="44.68941" lon="6.85872">
        <ele>2197.2</ele>
        <time>2026-03-25T12:44:00Z</time>
      </trkpt>
      <trkpt lat="44.68941" lon="6.85872">
        <ele>2197.2</ele>
        <time>2026-03-25T12:44:01Z</time>
      </trkpt>
      <trkpt lat="44.68941" lon="6.85872">
        <ele>2197.2</ele>
        <time>2026-03-25T12:44:02Z</time>
      </trkpt>
      <trkpt lat="44.68941" lon="6.85872">
        <ele>2197.2</ele>
        <time>2026-03-25T12:44:03Z</time>
      </trkpt>
      <trkpt lat="44.68941" lon="6.85872">
        <ele>2197.2</ele>
        <time>2026-03-25T12:44:04Z</time>
      </trkpt>
      <trkpt lat="44.68941" lon="6.85872">
        <ele>2197.2</ele>
        <time>2026-03-25T12:44:05Z</time>
      </trkpt>
      <trkpt lat="44.68941" lon="6.85872">
        <ele>2197.2</ele>
        <time>2026-03-25T12:44:06Z</time>
      </trkpt>
      <trkpt lat="44.68941" lon="6.85872">
        <ele>2197.2</ele>
        <time>2026-03-25T12:44:07Z</time>
      </trkpt>
      <trkpt lat="44.68941" lon="6.85872">
        <ele>2197.2</ele>
        <time>2026-03-25T12:44:08Z</time>
      </trkpt>
      <trkpt lat="44.68941" lon="6.85872">
        <ele>2197.2</ele>
        <time>2026-03-25T12:44:09Z</time>
      </trkpt>
      <trkpt lat="44.68941" lon="6.85872">
        <ele>2197.2</ele>
        <time>2026-03-25T12:44:10Z</time>
      </trkpt>
      <trkpt lat="44.68941" lon="6.85872">
        <ele>2197.2</ele>
        <time>2026-03-25T12:44:11Z</time>
      </trkpt>
      <trkpt lat="44.68941" lon="6.85872">
        <ele>2197.2</ele>
        <time>2026-03-25T12:44:12Z</time>
      </trkpt>
      <trkpt lat="44.68941" lon="6.85872">
        <ele>2197.2</ele>
        <time>2026-03-25T12:44:13Z</time>
      </trkpt>
      <trkpt lat="44.68941" lon="6.85872">
        <ele>2197.2</ele>
        <time>2026-03-25T12:44:14Z</time>
      </trkpt>
      <trkpt lat="44.68941" lon="6.85872">
        <ele>2197.2</ele>
        <time>2026-03-25T12:44:15Z</time>
      </trkpt>
      <trkpt lat="44.68941" lon="6.85872">
        <ele>2197.2</ele>
        <time>2026-03-25T12:44:16Z</time>
      </trkpt>
      <trkpt lat="44.68941" lon="6.85872">
        <ele>2197.2</ele>
        <time>2026-03-25T12:44:17Z</time>
      </trkpt>
      <trkpt lat="44.68941" lon="6.85872">
        <ele>2197.2</ele>
        <time>2026-03-25T12:44:18Z</time>
      </trkpt>
      <trkpt lat="44.68941" lon="6.85872">
        <ele>2197.2</ele>
        <time>2026-03-25T12:44:19Z</time>
      </trkpt>
      <trkpt lat="44.68941" lon="6.85872">
        <ele>2197.2</ele>
        <time>2026-03-25T12:44:20Z</time>
      </trkpt>
      <trkpt lat="44.68941" lon="6.85872">
        <ele>2197.2</ele>
        <time>2026-03-25T12:44:21Z</time>
      </trkpt>
      <trkpt lat="44.68941" lon="6.85872">
        <ele>2197.2</ele>
        <time>2026-03-25T12:44:22Z</time>
      </trkpt>
      <trkpt lat="44.68941" lon="6.85872">
        <ele>2197.2</ele>
        <time>2026-03-25T12:44:23Z</time>
      </trkpt>
      <trkpt lat="44.68941" lon="6.85872">
        <ele>2197.2</ele>
        <time>2026-03-25T12:44:24Z</time>
      </trkpt>
      <trkpt lat="44.68941" lon="6.85872">
        <ele>2197.2</ele>
        <time>2026-03-25T12:44:25Z</time>
      </trkpt>
      <trkpt lat="44.68941" lon="6.85872">
        <ele>2197.2</ele>
        <time>2026-03-25T12:44:26Z</time>
      </trkpt>
      <trkpt lat="44.68941" lon="6.85872">
        <ele>2197.2</ele>
        <time>2026-03-25T12:44:27Z</time>
      </trkpt>
      <trkpt lat="44.68941" lon="6.85872">
        <ele>2197.2</ele>
        <time>2026-03-25T12:44:28Z</time>
      </trkpt>
      <trkpt lat="44.68941" lon="6.85872">
        <ele>2197.2</ele>
        <time>2026-03-25T12:44:29Z</time>
      </trkpt>
      <trkpt lat="44.68941" lon="6.85872">
        <ele>2197.2</ele>
        <time>2026-03-25T12:44:30Z</time>
      </trkpt>
      <trkpt lat="44.68941" lon="6.85872">
        <ele>2197.2</ele>
        <time>2026-03-25T12:44:31Z</time>
      </trkpt>
      <trkpt lat="44.68941" lon="6.85872">
        <ele>2197.2</ele>
        <time>2026-03-25T12:44:32Z</time>
      </trkpt>
      <trkpt lat="44.68941" lon="6.85872">
        <ele>2197.2</ele>
        <time>2026-03-25T12:44:33Z</time>
      </trkpt>
      <trkpt lat="44.68941" lon="6.85872">
        <ele>2197.2</ele>
        <time>2026-03-25T12:44:34Z</time>
      </trkpt>
      <trkpt lat="44.68941" lon="6.85872">
        <ele>2197.2</ele>
        <time>2026-03-25T12:44:35Z</time>
      </trkpt>
      <trkpt lat="44.68941" lon="6.85872">
        <ele>2197.2</ele>
        <time>2026-03-25T12:44:36Z</time>
      </trkpt>
      <trkpt lat="44.68941" lon="6.85872">
        <ele>2197.2</ele>
        <time>2026-03-25T12:44:37Z</time>
      </trkpt>
      <trkpt lat="44.68941" lon="6.85872">
        <ele>2197.2</ele>
        <time>2026-03-25T12:44:38Z</time>
      </trkpt>
      <trkpt lat="44.68941" lon="6.85872">
        <ele>2197.2</ele>
        <time>2026-03-25T12:44:39Z</time>
      </trkpt>
      <trkpt lat="44.68941" lon="6.85872">
        <ele>2197.2</ele>
        <time>2026-03-25T12:44:40Z</time>
      </trkpt>
      <trkpt lat="44.68941" lon="6.85872">
        <ele>2197.2</ele>
        <time>2026-03-25T12:44:41Z</time>
      </trkpt>
      <trkpt lat="44.68941" lon="6.85872">
        <ele>2197.2</ele>
        <time>2026-03-25T12:44:42Z</time>
      </trkpt>
      <trkpt lat="44.68941" lon="6.85872">
        <ele>2197.2</ele>
        <time>2026-03-25T12:44:43Z</time>
      </trkpt>
      <trkpt lat="44.68941" lon="6.85872">
        <ele>2197.2</ele>
        <time>2026-03-25T12:44:44Z</time>
      </trkpt>
      <trkpt lat="44.68941" lon="6.85872">
        <ele>2197.2</ele>
        <time>2026-03-25T12:44:45Z</time>
      </trkpt>
      <trkpt lat="44.68941" lon="6.85872">
        <ele>2197.2</ele>
        <time>2026-03-25T12:44:46Z</time>
      </trkpt>
      <trkpt lat="44.68941" lon="6.85872">
        <ele>2197.2</ele>
        <time>2026-03-25T12:44:47Z</time>
      </trkpt>
      <trkpt lat="44.68941" lon="6.85872">
        <ele>2197.2</ele>
        <time>2026-03-25T12:44:48Z</time>
      </trkpt>
      <trkpt lat="44.68941" lon="6.85872">
        <ele>2197.2</ele>
        <time>2026-03-25T12:44:49Z</time>
      </trkpt>
      <trkpt lat="44.68941" lon="6.85872">
        <ele>2197.2</ele>
        <time>2026-03-25T12:44:50Z</time>
      </trkpt>
      <trkpt lat="44.68941" lon="6.85872">
        <ele>2197.2</ele>
        <time>2026-03-25T12:44:51Z</time>
      </trkpt>
      <trkpt lat="44.68941" lon="6.85872">
        <ele>2197.2</ele>
        <time>2026-03-25T12:44:52Z</time>
      </trkpt>
      <trkpt lat="44.68941" lon="6.85872">
        <ele>2197.2</ele>
        <time>2026-03-25T12:44:53Z</time>
      </trkpt>
      <trkpt lat="44.68941" lon="6.85872">
        <ele>2197.2</ele>
        <time>2026-03-25T12:44:54Z</time>
      </trkpt>
      <trkpt lat="44.68941" lon="6.85872">
        <ele>2197.2</ele>
        <time>2026-03-25T12:44:55Z</time>
      </trkpt>
      <trkpt lat="44.68941" lon="6.85872">
        <ele>2197.2</ele>
        <time>2026-03-25T12:44:56Z</time>
      </trkpt>
      <trkpt lat="44.68941" lon="6.85872">
        <ele>2197.2</ele>
        <time>2026-03-25T12:44:57Z</time>
      </trkpt>
      <trkpt lat="44.68941" lon="6.85872">
        <ele>2197.2</ele>
        <time>2026-03-25T12:44:58Z</time>
      </trkpt>
      <trkpt lat="44.68941" lon="6.85872">
        <ele>2197.2</ele>
        <time>2026-03-25T12:44:59Z</time>
      </trkpt>
      <trkpt lat="44.68941" lon="6.85872">
        <ele>2197.2</ele>
        <time>2026-03-25T12:45:00Z</time>
      </trkpt>
      <trkpt lat="44.68941" lon="6.85872">
        <ele>2197.2</ele>
        <time>2026-03-25T12:45:01Z</time>
      </trkpt>
      <trkpt lat="44.68941" lon="6.85872">
        <ele>2197.2</ele>
        <time>2026-03-25T12:45:02Z</time>
      </trkpt>
      <trkpt lat="44.68941" lon="6.85872">
        <ele>2197.2</ele>
        <time>2026-03-25T12:45:03Z</time>
      </trkpt>
      <trkpt lat="44.68941" lon="6.85872">
        <ele>2197.2</ele>
        <time>2026-03-25T12:45:04Z</time>
      </trkpt>
      <trkpt lat="44.68941" lon="6.85872">
        <ele>2197.2</ele>
        <time>2026-03-25T12:45:05Z</time>
      </trkpt>
      <trkpt lat="44.68941" lon="6.85872">
        <ele>2197.2</ele>
        <time>2026-03-25T12:45:06Z</time>
      </trkpt>
      <trkpt lat="44.68941" lon="6.85872">
        <ele>2197.2</ele>
        <time>2026-03-25T12:45:07Z</time>
      </trkpt>
      <trkpt lat="44.68941" lon="6.85872">
        <ele>2197.2</ele>
        <time>2026-03-25T12:45:08Z</time>
      </trkpt>
      <trkpt lat="44.68941" lon="6.85872">
        <ele>2197.2</ele>
        <time>2026-03-25T12:45:09Z</time>
      </trkpt>
      <trkpt lat="44.68941" lon="6.85872">
        <ele>2197.2</ele>
        <time>2026-03-25T12:45:10Z</time>
      </trkpt>
      <trkpt lat="44.68941" lon="6.85872">
        <ele>2197.2</ele>
        <time>2026-03-25T12:45:11Z</time>
      </trkpt>
      <trkpt lat="44.68941" lon="6.85872">
        <ele>2197.2</ele>
        <time>2026-03-25T12:45:12Z</time>
      </trkpt>
      <trkpt lat="44.68941" lon="6.85872">
        <ele>2197.2</ele>
        <time>2026-03-25T12:45:13Z</time>
      </trkpt>
      <trkpt lat="44.68941" lon="6.85872">
        <ele>2197.2</ele>
        <time>2026-03-25T12:45:14Z</time>
      </trkpt>
      <trkpt lat="44.68941" lon="6.85872">
        <ele>2197.2</ele>
        <time>2026-03-25T12:45:15Z</time>
      </trkpt>
      <trkpt lat="44.68941" lon="6.85872">
        <ele>2197.2</ele>
        <time>2026-03-25T12:45:16Z</time>
      </trkpt>
      <trkpt lat="44.68941" lon="6.85872">
        <ele>2197.2</ele>
        <time>2026-03-25T12:45:17Z</time>
      </trkpt>
      <trkpt lat="44.68941" lon="6.85872">
        <ele>2197.2</ele>
        <time>2026-03-25T12:45:18Z</time>
      </trkpt>
      <trkpt lat="44.68941" lon="6.85872">
        <ele>2197.2</ele>
        <time>2026-03-25T12:45:19Z</time>
      </trkpt>
      <trkpt lat="44.68941" lon="6.85872">
        <ele>2197.2</ele>
        <time>2026-03-25T12:45:20Z</time>
      </trkpt>
      <trkpt lat="44.68941" lon="6.85872">
        <ele>2197.2</ele>
        <time>2026-03-25T12:45:21Z</time>
      </trkpt>
      <trkpt lat="44.68941" lon="6.85872">
        <ele>2197.2</ele>
        <time>2026-03-25T12:45:22Z</time>
      </trkpt>
      <trkpt lat="44.68941" lon="6.85872">
        <ele>2197.2</ele>
        <time>2026-03-25T12:45:23Z</time>
      </trkpt>
      <trkpt lat="44.68941" lon="6.85872">
        <ele>2197.2</ele>
        <time>2026-03-25T12:45:24Z</time>
      </trkpt>
      <trkpt lat="44.68941" lon="6.85872">
        <ele>2197.2</ele>
        <time>2026-03-25T12:45:25Z</time>
      </trkpt>
      <trkpt lat="44.68941" lon="6.85872">
        <ele>2197.2</ele>
        <time>2026-03-25T12:45:26Z</time>
      </trkpt>
      <trkpt lat="44.68941" lon="6.85872">
        <ele>2197.2</ele>
        <time>2026-03-25T12:45:27Z</time>
      </trkpt>
      <trkpt lat="44.68941" lon="6.85872">
        <ele>2197.2</ele>
        <time>2026-03-25T12:45:28Z</time>
      </trkpt>
      <trkpt lat="44.68941" lon="6.85872">
        <ele>2197.2</ele>
        <time>2026-03-25T12:45:29Z</time>
      </trkpt>
      <trkpt lat="44.68941" lon="6.85872">
        <ele>2197.2</ele>
        <time>2026-03-25T12:45:30Z</time>
      </trkpt>
      <trkpt lat="44.68941" lon="6.85872">
        <ele>2197.2</ele>
        <time>2026-03-25T12:45:31Z</time>
      </trkpt>
      <trkpt lat="44.68941" lon="6.85872">
        <ele>2197.2</ele>
        <time>2026-03-25T12:45:32Z</time>
      </trkpt>
      <trkpt lat="44.68941" lon="6.85872">
        <ele>2197.1</ele>
        <time>2026-03-25T12:45:33Z</time>
      </trkpt>
      <trkpt lat="44.68941" lon="6.85872">
        <ele>2197.1</ele>
        <time>2026-03-25T12:45:34Z</time>
      </trkpt>
      <trkpt lat="44.68941" lon="6.85872">
        <ele>2197.1</ele>
        <time>2026-03-25T12:45:35Z</time>
      </trkpt>
      <trkpt lat="44.68941" lon="6.85872">
        <ele>2197.1</ele>
        <time>2026-03-25T12:45:36Z</time>
      </trkpt>
      <trkpt lat="44.68941" lon="6.85872">
        <ele>2197.1</ele>
        <time>2026-03-25T12:45:37Z</time>
      </trkpt>
      <trkpt lat="44.68941" lon="6.85872">
        <ele>2197.1</ele>
        <time>2026-03-25T12:45:38Z</time>
      </trkpt>
      <trkpt lat="44.68941" lon="6.85872">
        <ele>2197.1</ele>
        <time>2026-03-25T12:45:39Z</time>
      </trkpt>
      <trkpt lat="44.68941" lon="6.85872">
        <ele>2197.1</ele>
        <time>2026-03-25T12:45:40Z</time>
      </trkpt>
      <trkpt lat="44.68941" lon="6.85872">
        <ele>2197.1</ele>
        <time>2026-03-25T12:45:41Z</time>
      </trkpt>
      <trkpt lat="44.68941" lon="6.85872">
        <ele>2197.1</ele>
        <time>2026-03-25T12:45:42Z</time>
      </trkpt>
      <trkpt lat="44.68941" lon="6.85872">
        <ele>2197.1</ele>
        <time>2026-03-25T12:45:43Z</time>
      </trkpt>
      <trkpt lat="44.68941" lon="6.85872">
        <ele>2197.1</ele>
        <time>2026-03-25T12:45:44Z</time>
      </trkpt>
      <trkpt lat="44.68941" lon="6.85872">
        <ele>2197.1</ele>
        <time>2026-03-25T12:45:45Z</time>
      </trkpt>
      <trkpt lat="44.68941" lon="6.85872">
        <ele>2197.1</ele>
        <time>2026-03-25T12:45:46Z</time>
      </trkpt>
      <trkpt lat="44.68941" lon="6.85872">
        <ele>2197.1</ele>
        <time>2026-03-25T12:45:47Z</time>
      </trkpt>
      <trkpt lat="44.68941" lon="6.85872">
        <ele>2197.1</ele>
        <time>2026-03-25T12:45:48Z</time>
      </trkpt>
      <trkpt lat="44.68941" lon="6.85872">
        <ele>2197.1</ele>
        <time>2026-03-25T12:45:49Z</time>
      </trkpt>
      <trkpt lat="44.68941" lon="6.85872">
        <ele>2197.1</ele>
        <time>2026-03-25T12:45:50Z</time>
      </trkpt>
      <trkpt lat="44.68941" lon="6.85872">
        <ele>2197.1</ele>
        <time>2026-03-25T12:45:51Z</time>
      </trkpt>
      <trkpt lat="44.68941" lon="6.85872">
        <ele>2197.1</ele>
        <time>2026-03-25T12:45:52Z</time>
      </trkpt>
      <trkpt lat="44.68941" lon="6.85872">
        <ele>2197.1</ele>
        <time>2026-03-25T12:45:53Z</time>
      </trkpt>
      <trkpt lat="44.68941" lon="6.85872">
        <ele>2197.1</ele>
        <time>2026-03-25T12:45:54Z</time>
      </trkpt>
      <trkpt lat="44.68941" lon="6.85872">
        <ele>2197.1</ele>
        <time>2026-03-25T12:45:55Z</time>
      </trkpt>
      <trkpt lat="44.68941" lon="6.85872">
        <ele>2197.1</ele>
        <time>2026-03-25T12:45:56Z</time>
      </trkpt>
      <trkpt lat="44.68941" lon="6.85872">
        <ele>2197.1</ele>
        <time>2026-03-25T12:45:57Z</time>
      </trkpt>
      <trkpt lat="44.68941" lon="6.85872">
        <ele>2197.1</ele>
        <time>2026-03-25T12:45:58Z</time>
      </trkpt>
      <trkpt lat="44.68941" lon="6.85872">
        <ele>2197.1</ele>
        <time>2026-03-25T12:45:59Z</time>
      </trkpt>
      <trkpt lat="44.68941" lon="6.85872">
        <ele>2197.1</ele>
        <time>2026-03-25T12:46:00Z</time>
      </trkpt>
      <trkpt lat="44.68941" lon="6.85872">
        <ele>2197.1</ele>
        <time>2026-03-25T12:46:01Z</time>
      </trkpt>
      <trkpt lat="44.68941" lon="6.85872">
        <ele>2197.1</ele>
        <time>2026-03-25T12:46:02Z</time>
      </trkpt>
      <trkpt lat="44.68941" lon="6.85872">
        <ele>2197.1</ele>
        <time>2026-03-25T12:46:03Z</time>
      </trkpt>
      <trkpt lat="44.68941" lon="6.85872">
        <ele>2197.1</ele>
        <time>2026-03-25T12:46:04Z</time>
      </trkpt>
      <trkpt lat="44.68941" lon="6.85872">
        <ele>2197.1</ele>
        <time>2026-03-25T12:46:05Z</time>
      </trkpt>
      <trkpt lat="44.68941" lon="6.85872">
        <ele>2197.1</ele>
        <time>2026-03-25T12:46:06Z</time>
      </trkpt>
      <trkpt lat="44.68941" lon="6.85872">
        <ele>2197.1</ele>
        <time>2026-03-25T12:46:07Z</time>
      </trkpt>
      <trkpt lat="44.68941" lon="6.85872">
        <ele>2197.1</ele>
        <time>2026-03-25T12:46:08Z</time>
      </trkpt>
      <trkpt lat="44.68941" lon="6.85872">
        <ele>2197.1</ele>
        <time>2026-03-25T12:46:09Z</time>
      </trkpt>
      <trkpt lat="44.68941" lon="6.85872">
        <ele>2197.1</ele>
        <time>2026-03-25T12:46:10Z</time>
      </trkpt>
      <trkpt lat="44.68941" lon="6.85872">
        <ele>2197.1</ele>
        <time>2026-03-25T12:46:11Z</time>
      </trkpt>
      <trkpt lat="44.68941" lon="6.85872">
        <ele>2197.1</ele>
        <time>2026-03-25T12:46:12Z</time>
      </trkpt>
      <trkpt lat="44.68941" lon="6.85872">
        <ele>2197.1</ele>
        <time>2026-03-25T12:46:13Z</time>
      </trkpt>
      <trkpt lat="44.68941" lon="6.85872">
        <ele>2197.1</ele>
        <time>2026-03-25T12:46:14Z</time>
      </trkpt>
      <trkpt lat="44.68941" lon="6.85871">
        <ele>2197.1</ele>
        <time>2026-03-25T12:46:15Z</time>
      </trkpt>
      <trkpt lat="44.6894" lon="6.8587">
        <ele>2197.1</ele>
        <time>2026-03-25T12:46:16Z</time>
      </trkpt>
      <trkpt lat="44.68939" lon="6.85869">
        <ele>2197</ele>
        <time>2026-03-25T12:46:17Z</time>
      </trkpt>
      <trkpt lat="44.68938" lon="6.85867">
        <ele>2196.9</ele>
        <time>2026-03-25T12:46:18Z</time>
      </trkpt>
      <trkpt lat="44.68938" lon="6.85866">
        <ele>2196.8</ele>
        <time>2026-03-25T12:46:19Z</time>
      </trkpt>
      <trkpt lat="44.68937" lon="6.85865">
        <ele>2196.8</ele>
        <time>2026-03-25T12:46:20Z</time>
      </trkpt>
      <trkpt lat="44.68938" lon="6.85863">
        <ele>2196.6</ele>
        <time>2026-03-25T12:46:21Z</time>
      </trkpt>
      <trkpt lat="44.68938" lon="6.85861">
        <ele>2196.5</ele>
        <time>2026-03-25T12:46:22Z</time>
      </trkpt>
      <trkpt lat="44.68939" lon="6.8586">
        <ele>2196.5</ele>
        <time>2026-03-25T12:46:23Z</time>
      </trkpt>
      <trkpt lat="44.6894" lon="6.85859">
        <ele>2196.4</ele>
        <time>2026-03-25T12:46:24Z</time>
      </trkpt>
      <trkpt lat="44.68941" lon="6.85858">
        <ele>2196.3</ele>
        <time>2026-03-25T12:46:25Z</time>
      </trkpt>
      <trkpt lat="44.68941" lon="6.85857">
        <ele>2196.3</ele>
        <time>2026-03-25T12:46:26Z</time>
      </trkpt>
      <trkpt lat="44.68941" lon="6.85857">
        <ele>2196.3</ele>
        <time>2026-03-25T12:46:27Z</time>
      </trkpt>
      <trkpt lat="44.68941" lon="6.85856">
        <ele>2196.2</ele>
        <time>2026-03-25T12:46:28Z</time>
      </trkpt>
      <trkpt lat="44.68941" lon="6.85856">
        <ele>2196.2</ele>
        <time>2026-03-25T12:46:29Z</time>
      </trkpt>
      <trkpt lat="44.68941" lon="6.85856">
        <ele>2196.2</ele>
        <time>2026-03-25T12:46:30Z</time>
      </trkpt>
      <trkpt lat="44.68941" lon="6.85855">
        <ele>2196.2</ele>
        <time>2026-03-25T12:46:31Z</time>
      </trkpt>
      <trkpt lat="44.68941" lon="6.85855">
        <ele>2196.2</ele>
        <time>2026-03-25T12:46:32Z</time>
      </trkpt>
      <trkpt lat="44.68941" lon="6.85855">
        <ele>2196.1</ele>
        <time>2026-03-25T12:46:33Z</time>
      </trkpt>
      <trkpt lat="44.68941" lon="6.85854">
        <ele>2196.1</ele>
        <time>2026-03-25T12:46:34Z</time>
      </trkpt>
      <trkpt lat="44.68941" lon="6.85854">
        <ele>2196.1</ele>
        <time>2026-03-25T12:46:35Z</time>
      </trkpt>
      <trkpt lat="44.68941" lon="6.85854">
        <ele>2196.1</ele>
        <time>2026-03-25T12:46:36Z</time>
      </trkpt>
      <trkpt lat="44.68941" lon="6.85853">
        <ele>2196.1</ele>
        <time>2026-03-25T12:46:37Z</time>
      </trkpt>
      <trkpt lat="44.68941" lon="6.85853">
        <ele>2196</ele>
        <time>2026-03-25T12:46:38Z</time>
      </trkpt>
      <trkpt lat="44.68941" lon="6.85853">
        <ele>2196</ele>
        <time>2026-03-25T12:46:39Z</time>
      </trkpt>
      <trkpt lat="44.68941" lon="6.85852">
        <ele>2196</ele>
        <time>2026-03-25T12:46:40Z</time>
      </trkpt>
      <trkpt lat="44.68941" lon="6.85852">
        <ele>2196</ele>
        <time>2026-03-25T12:46:41Z</time>
      </trkpt>
      <trkpt lat="44.68941" lon="6.85852">
        <ele>2196</ele>
        <time>2026-03-25T12:46:42Z</time>
      </trkpt>
      <trkpt lat="44.68941" lon="6.85851">
        <ele>2195.9</ele>
        <time>2026-03-25T12:46:43Z</time>
      </trkpt>
      <trkpt lat="44.68938" lon="6.85847">
        <ele>2195.5</ele>
        <time>2026-03-25T12:46:44Z</time>
      </trkpt>
      <trkpt lat="44.68934" lon="6.85846">
        <ele>2195.2</ele>
        <time>2026-03-25T12:46:45Z</time>
      </trkpt>
      <trkpt lat="44.68931" lon="6.85844">
        <ele>2194.8</ele>
        <time>2026-03-25T12:46:46Z</time>
      </trkpt>
      <trkpt lat="44.68928" lon="6.85843">
        <ele>2194.5</ele>
        <time>2026-03-25T12:46:47Z</time>
      </trkpt>
      <trkpt lat="44.68924" lon="6.8584">
        <ele>2193.9</ele>
        <time>2026-03-25T12:46:48Z</time>
      </trkpt>
      <trkpt lat="44.68923" lon="6.85839">
        <ele>2193.7</ele>
        <time>2026-03-25T12:46:49Z</time>
      </trkpt>
      <trkpt lat="44.6892" lon="6.85836">
        <ele>2193.3</ele>
        <time>2026-03-25T12:46:50Z</time>
      </trkpt>
      <trkpt lat="44.68918" lon="6.85833">
        <ele>2192.8</ele>
        <time>2026-03-25T12:46:51Z</time>
      </trkpt>
      <trkpt lat="44.68919" lon="6.85828">
        <ele>2192.3</ele>
        <time>2026-03-25T12:46:52Z</time>
      </trkpt>
      <trkpt lat="44.6892" lon="6.85827">
        <ele>2192.1</ele>
        <time>2026-03-25T12:46:53Z</time>
      </trkpt>
      <trkpt lat="44.68923" lon="6.85825">
        <ele>2191.6</ele>
        <time>2026-03-25T12:46:54Z</time>
      </trkpt>
      <trkpt lat="44.68926" lon="6.85823">
        <ele>2191.1</ele>
        <time>2026-03-25T12:46:55Z</time>
      </trkpt>
      <trkpt lat="44.68927" lon="6.85822">
        <ele>2190.9</ele>
        <time>2026-03-25T12:46:56Z</time>
      </trkpt>
      <trkpt lat="44.68929" lon="6.85821">
        <ele>2190.6</ele>
        <time>2026-03-25T12:46:57Z</time>
      </trkpt>
      <trkpt lat="44.68931" lon="6.85817">
        <ele>2190</ele>
        <time>2026-03-25T12:46:58Z</time>
      </trkpt>
      <trkpt lat="44.68931" lon="6.85814">
        <ele>2189.8</ele>
        <time>2026-03-25T12:46:59Z</time>
      </trkpt>
      <trkpt lat="44.68932" lon="6.8581">
        <ele>2189.3</ele>
        <time>2026-03-25T12:47:00Z</time>
      </trkpt>
      <trkpt lat="44.68934" lon="6.85808">
        <ele>2188.9</ele>
        <time>2026-03-25T12:47:01Z</time>
      </trkpt>
      <trkpt lat="44.68937" lon="6.85805">
        <ele>2188.2</ele>
        <time>2026-03-25T12:47:02Z</time>
      </trkpt>
      <trkpt lat="44.68937" lon="6.85799">
        <ele>2187</ele>
        <time>2026-03-25T12:47:03Z</time>
      </trkpt>
      <trkpt lat="44.68937" lon="6.85797">
        <ele>2186.6</ele>
        <time>2026-03-25T12:47:04Z</time>
      </trkpt>
      <trkpt lat="44.6894" lon="6.85795">
        <ele>2185.2</ele>
        <time>2026-03-25T12:47:05Z</time>
      </trkpt>
      <trkpt lat="44.68941" lon="6.85795">
        <ele>2185</ele>
        <time>2026-03-25T12:47:06Z</time>
      </trkpt>
      <trkpt lat="44.68942" lon="6.85795">
        <ele>2185</ele>
        <time>2026-03-25T12:47:07Z</time>
      </trkpt>
      <trkpt lat="44.68944" lon="6.85793">
        <ele>2184.8</ele>
        <time>2026-03-25T12:47:08Z</time>
      </trkpt>
      <trkpt lat="44.68942" lon="6.85788">
        <ele>2183.6</ele>
        <time>2026-03-25T12:47:09Z</time>
      </trkpt>
      <trkpt lat="44.6894" lon="6.85787">
        <ele>2182.4</ele>
        <time>2026-03-25T12:47:10Z</time>
      </trkpt>
      <trkpt lat="44.68938" lon="6.85784">
        <ele>2182.4</ele>
        <time>2026-03-25T12:47:11Z</time>
      </trkpt>
      <trkpt lat="44.68938" lon="6.8578">
        <ele>2181.2</ele>
        <time>2026-03-25T12:47:12Z</time>
      </trkpt>
      <trkpt lat="44.68939" lon="6.85778">
        <ele>2180</ele>
        <time>2026-03-25T12:47:13Z</time>
      </trkpt>
      <trkpt lat="44.68942" lon="6.85776">
        <ele>2179.9</ele>
        <time>2026-03-25T12:47:14Z</time>
      </trkpt>
      <trkpt lat="44.68943" lon="6.85774">
        <ele>2178.6</ele>
        <time>2026-03-25T12:47:15Z</time>
      </trkpt>
      <trkpt lat="44.68943" lon="6.85771">
        <ele>2178.6</ele>
        <time>2026-03-25T12:47:16Z</time>
      </trkpt>
      <trkpt lat="44.68946" lon="6.85769">
        <ele>2177.2</ele>
        <time>2026-03-25T12:47:17Z</time>
      </trkpt>
      <trkpt lat="44.68947" lon="6.85769">
        <ele>2177</ele>
        <time>2026-03-25T12:47:18Z</time>
      </trkpt>
      <trkpt lat="44.68948" lon="6.85769">
        <ele>2176.9</ele>
        <time>2026-03-25T12:47:19Z</time>
      </trkpt>
      <trkpt lat="44.68947" lon="6.85768">
        <ele>2176.9</ele>
        <time>2026-03-25T12:47:20Z</time>
      </trkpt>
      <trkpt lat="44.68946" lon="6.85768">
        <ele>2176.9</ele>
        <time>2026-03-25T12:47:21Z</time>
      </trkpt>
      <trkpt lat="44.68944" lon="6.85767">
        <ele>2176.8</ele>
        <time>2026-03-25T12:47:22Z</time>
      </trkpt>
      <trkpt lat="44.68942" lon="6.85766">
        <ele>2176.9</ele>
        <time>2026-03-25T12:47:23Z</time>
      </trkpt>
      <trkpt lat="44.68941" lon="6.85765">
        <ele>2175.6</ele>
        <time>2026-03-25T12:47:24Z</time>
      </trkpt>
      <trkpt lat="44.68938" lon="6.85764">
        <ele>2175.6</ele>
        <time>2026-03-25T12:47:25Z</time>
      </trkpt>
      <trkpt lat="44.68936" lon="6.85762">
        <ele>2175.6</ele>
        <time>2026-03-25T12:47:26Z</time>
      </trkpt>
      <trkpt lat="44.68937" lon="6.85758">
        <ele>2174.3</ele>
        <time>2026-03-25T12:47:27Z</time>
      </trkpt>
      <trkpt lat="44.68938" lon="6.85754">
        <ele>2172.7</ele>
        <time>2026-03-25T12:47:28Z</time>
      </trkpt>
      <trkpt lat="44.6894" lon="6.8575">
        <ele>2171.3</ele>
        <time>2026-03-25T12:47:29Z</time>
      </trkpt>
      <trkpt lat="44.6894" lon="6.8575">
        <ele>2171.1</ele>
        <time>2026-03-25T12:47:30Z</time>
      </trkpt>
      <trkpt lat="44.68942" lon="6.8575">
        <ele>2171.1</ele>
        <time>2026-03-25T12:47:31Z</time>
      </trkpt>
      <trkpt lat="44.68944" lon="6.8575">
        <ele>2170.9</ele>
        <time>2026-03-25T12:47:32Z</time>
      </trkpt>
      <trkpt lat="44.68947" lon="6.85747">
        <ele>2169.3</ele>
        <time>2026-03-25T12:47:33Z</time>
      </trkpt>
      <trkpt lat="44.68949" lon="6.85744">
        <ele>2168</ele>
        <time>2026-03-25T12:47:34Z</time>
      </trkpt>
      <trkpt lat="44.68952" lon="6.85741">
        <ele>2167.8</ele>
        <time>2026-03-25T12:47:35Z</time>
      </trkpt>
      <trkpt lat="44.68954" lon="6.8574">
        <ele>2166.4</ele>
        <time>2026-03-25T12:47:36Z</time>
      </trkpt>
      <trkpt lat="44.68954" lon="6.85738">
        <ele>2166.3</ele>
        <time>2026-03-25T12:47:37Z</time>
      </trkpt>
      <trkpt lat="44.68955" lon="6.85736">
        <ele>2166.2</ele>
        <time>2026-03-25T12:47:38Z</time>
      </trkpt>
      <trkpt lat="44.68955" lon="6.85736">
        <ele>2166.1</ele>
        <time>2026-03-25T12:47:39Z</time>
      </trkpt>
      <trkpt lat="44.68955" lon="6.85736">
        <ele>2166.1</ele>
        <time>2026-03-25T12:47:40Z</time>
      </trkpt>
      <trkpt lat="44.68955" lon="6.85736">
        <ele>2164.8</ele>
        <time>2026-03-25T12:47:41Z</time>
      </trkpt>
      <trkpt lat="44.68955" lon="6.85735">
        <ele>2164.7</ele>
        <time>2026-03-25T12:47:42Z</time>
      </trkpt>
      <trkpt lat="44.68956" lon="6.85734">
        <ele>2164.5</ele>
        <time>2026-03-25T12:47:43Z</time>
      </trkpt>
      <trkpt lat="44.68956" lon="6.85734">
        <ele>2164.4</ele>
        <time>2026-03-25T12:47:44Z</time>
      </trkpt>
      <trkpt lat="44.68956" lon="6.85734">
        <ele>2164.4</ele>
        <time>2026-03-25T12:47:45Z</time>
      </trkpt>
      <trkpt lat="44.68956" lon="6.85733">
        <ele>2164.3</ele>
        <time>2026-03-25T12:47:46Z</time>
      </trkpt>
      <trkpt lat="44.68957" lon="6.85733">
        <ele>2164.2</ele>
        <time>2026-03-25T12:47:47Z</time>
      </trkpt>
      <trkpt lat="44.68957" lon="6.85733">
        <ele>2164.1</ele>
        <time>2026-03-25T12:47:48Z</time>
      </trkpt>
      <trkpt lat="44.68957" lon="6.85732">
        <ele>2164.1</ele>
        <time>2026-03-25T12:47:49Z</time>
      </trkpt>
      <trkpt lat="44.68957" lon="6.85732">
        <ele>2164</ele>
        <time>2026-03-25T12:47:50Z</time>
      </trkpt>
      <trkpt lat="44.68957" lon="6.85732">
        <ele>2163.9</ele>
        <time>2026-03-25T12:47:51Z</time>
      </trkpt>
      <trkpt lat="44.68956" lon="6.85732">
        <ele>2163.8</ele>
        <time>2026-03-25T12:47:52Z</time>
      </trkpt>
      <trkpt lat="44.68956" lon="6.85732">
        <ele>2163.8</ele>
        <time>2026-03-25T12:47:53Z</time>
      </trkpt>
      <trkpt lat="44.68956" lon="6.85732">
        <ele>2163.7</ele>
        <time>2026-03-25T12:47:54Z</time>
      </trkpt>
      <trkpt lat="44.68956" lon="6.85732">
        <ele>2163.6</ele>
        <time>2026-03-25T12:47:55Z</time>
      </trkpt>
      <trkpt lat="44.68956" lon="6.85732">
        <ele>2163.5</ele>
        <time>2026-03-25T12:47:56Z</time>
      </trkpt>
      <trkpt lat="44.68956" lon="6.85732">
        <ele>2163.4</ele>
        <time>2026-03-25T12:47:57Z</time>
      </trkpt>
      <trkpt lat="44.68956" lon="6.85731">
        <ele>2162.1</ele>
        <time>2026-03-25T12:47:58Z</time>
      </trkpt>
      <trkpt lat="44.68956" lon="6.85731">
        <ele>2162.1</ele>
        <time>2026-03-25T12:47:59Z</time>
      </trkpt>
      <trkpt lat="44.68956" lon="6.85732">
        <ele>2163.2</ele>
        <time>2026-03-25T12:48:00Z</time>
      </trkpt>
      <trkpt lat="44.68956" lon="6.85732">
        <ele>2163.1</ele>
        <time>2026-03-25T12:48:01Z</time>
      </trkpt>
      <trkpt lat="44.68956" lon="6.85732">
        <ele>2163.1</ele>
        <time>2026-03-25T12:48:02Z</time>
      </trkpt>
      <trkpt lat="44.68956" lon="6.85732">
        <ele>2163</ele>
        <time>2026-03-25T12:48:03Z</time>
      </trkpt>
      <trkpt lat="44.68956" lon="6.85732">
        <ele>2162.9</ele>
        <time>2026-03-25T12:48:04Z</time>
      </trkpt>
      <trkpt lat="44.68956" lon="6.85732">
        <ele>2162.8</ele>
        <time>2026-03-25T12:48:05Z</time>
      </trkpt>
      <trkpt lat="44.68956" lon="6.85732">
        <ele>2162.8</ele>
        <time>2026-03-25T12:48:06Z</time>
      </trkpt>
      <trkpt lat="44.68956" lon="6.85732">
        <ele>2162.7</ele>
        <time>2026-03-25T12:48:07Z</time>
      </trkpt>
      <trkpt lat="44.68956" lon="6.85732">
        <ele>2162.6</ele>
        <time>2026-03-25T12:48:08Z</time>
      </trkpt>
      <trkpt lat="44.68956" lon="6.85732">
        <ele>2162.5</ele>
        <time>2026-03-25T12:48:09Z</time>
      </trkpt>
      <trkpt lat="44.68956" lon="6.85732">
        <ele>2162.5</ele>
        <time>2026-03-25T12:48:10Z</time>
      </trkpt>
      <trkpt lat="44.68956" lon="6.85732">
        <ele>2162.4</ele>
        <time>2026-03-25T12:48:11Z</time>
      </trkpt>
      <trkpt lat="44.68956" lon="6.85732">
        <ele>2162.3</ele>
        <time>2026-03-25T12:48:12Z</time>
      </trkpt>
      <trkpt lat="44.68956" lon="6.85732">
        <ele>2162.2</ele>
        <time>2026-03-25T12:48:13Z</time>
      </trkpt>
      <trkpt lat="44.68956" lon="6.85732">
        <ele>2162.2</ele>
        <time>2026-03-25T12:48:14Z</time>
      </trkpt>
      <trkpt lat="44.68956" lon="6.85732">
        <ele>2162.1</ele>
        <time>2026-03-25T12:48:15Z</time>
      </trkpt>
      <trkpt lat="44.68956" lon="6.85732">
        <ele>2162</ele>
        <time>2026-03-25T12:48:16Z</time>
      </trkpt>
      <trkpt lat="44.68956" lon="6.85732">
        <ele>2161.9</ele>
        <time>2026-03-25T12:48:17Z</time>
      </trkpt>
      <trkpt lat="44.68956" lon="6.85732">
        <ele>2161.9</ele>
        <time>2026-03-25T12:48:18Z</time>
      </trkpt>
      <trkpt lat="44.68956" lon="6.85732">
        <ele>2161.8</ele>
        <time>2026-03-25T12:48:19Z</time>
      </trkpt>
      <trkpt lat="44.68957" lon="6.85731">
        <ele>2160.5</ele>
        <time>2026-03-25T12:48:20Z</time>
      </trkpt>
      <trkpt lat="44.68957" lon="6.85731">
        <ele>2160.4</ele>
        <time>2026-03-25T12:48:21Z</time>
      </trkpt>
      <trkpt lat="44.68958" lon="6.8573">
        <ele>2160.3</ele>
        <time>2026-03-25T12:48:22Z</time>
      </trkpt>
      <trkpt lat="44.6896" lon="6.85729">
        <ele>2160.1</ele>
        <time>2026-03-25T12:48:23Z</time>
      </trkpt>
      <trkpt lat="44.68961" lon="6.85729">
        <ele>2160.1</ele>
        <time>2026-03-25T12:48:24Z</time>
      </trkpt>
      <trkpt lat="44.68963" lon="6.85726">
        <ele>2158.6</ele>
        <time>2026-03-25T12:48:25Z</time>
      </trkpt>
      <trkpt lat="44.68966" lon="6.85726">
        <ele>2158.4</ele>
        <time>2026-03-25T12:48:26Z</time>
      </trkpt>
      <trkpt lat="44.68968" lon="6.85729">
        <ele>2159.4</ele>
        <time>2026-03-25T12:48:27Z</time>
      </trkpt>
      <trkpt lat="44.68968" lon="6.8573">
        <ele>2159.4</ele>
        <time>2026-03-25T12:48:28Z</time>
      </trkpt>
      <trkpt lat="44.68971" lon="6.85731">
        <ele>2159.1</ele>
        <time>2026-03-25T12:48:29Z</time>
      </trkpt>
      <trkpt lat="44.68975" lon="6.85732">
        <ele>2160.2</ele>
        <time>2026-03-25T12:48:30Z</time>
      </trkpt>
      <trkpt lat="44.68977" lon="6.85731">
        <ele>2158.8</ele>
        <time>2026-03-25T12:48:31Z</time>
      </trkpt>
      <trkpt lat="44.68978" lon="6.85731">
        <ele>2158.6</ele>
        <time>2026-03-25T12:48:32Z</time>
      </trkpt>
      <trkpt lat="44.68981" lon="6.85728">
        <ele>2158.3</ele>
        <time>2026-03-25T12:48:33Z</time>
      </trkpt>
      <trkpt lat="44.68982" lon="6.85727">
        <ele>2156.9</ele>
        <time>2026-03-25T12:48:34Z</time>
      </trkpt>
      <trkpt lat="44.68985" lon="6.85725">
        <ele>2156.6</ele>
        <time>2026-03-25T12:48:35Z</time>
      </trkpt>
      <trkpt lat="44.68989" lon="6.85724">
        <ele>2156.3</ele>
        <time>2026-03-25T12:48:36Z</time>
      </trkpt>
      <trkpt lat="44.68992" lon="6.85722">
        <ele>2154.6</ele>
        <time>2026-03-25T12:48:37Z</time>
      </trkpt>
      <trkpt lat="44.68996" lon="6.85721">
        <ele>2154</ele>
        <time>2026-03-25T12:48:38Z</time>
      </trkpt>
      <trkpt lat="44.68999" lon="6.8572">
        <ele>2153.7</ele>
        <time>2026-03-25T12:48:39Z</time>
      </trkpt>
      <trkpt lat="44.68999" lon="6.85716">
        <ele>2152.3</ele>
        <time>2026-03-25T12:48:40Z</time>
      </trkpt>
      <trkpt lat="44.68999" lon="6.85714">
        <ele>2150.8</ele>
        <time>2026-03-25T12:48:41Z</time>
      </trkpt>
      <trkpt lat="44.69" lon="6.85709">
        <ele>2149.4</ele>
        <time>2026-03-25T12:48:42Z</time>
      </trkpt>
      <trkpt lat="44.69006" lon="6.85708">
        <ele>2148.8</ele>
        <time>2026-03-25T12:48:43Z</time>
      </trkpt>
      <trkpt lat="44.69011" lon="6.85708">
        <ele>2148.3</ele>
        <time>2026-03-25T12:48:44Z</time>
      </trkpt>
      <trkpt lat="44.69014" lon="6.85708">
        <ele>2148</ele>
        <time>2026-03-25T12:48:45Z</time>
      </trkpt>
      <trkpt lat="44.69018" lon="6.85707">
        <ele>2147.8</ele>
        <time>2026-03-25T12:48:46Z</time>
      </trkpt>
      <trkpt lat="44.69021" lon="6.85703">
        <ele>2146.2</ele>
        <time>2026-03-25T12:48:47Z</time>
      </trkpt>
      <trkpt lat="44.6902" lon="6.85699">
        <ele>2144.9</ele>
        <time>2026-03-25T12:48:48Z</time>
      </trkpt>
      <trkpt lat="44.69022" lon="6.85695">
        <ele>2143.6</ele>
        <time>2026-03-25T12:48:49Z</time>
      </trkpt>
      <trkpt lat="44.69025" lon="6.85692">
        <ele>2142.2</ele>
        <time>2026-03-25T12:48:50Z</time>
      </trkpt>
      <trkpt lat="44.69025" lon="6.85688">
        <ele>2141</ele>
        <time>2026-03-25T12:48:51Z</time>
      </trkpt>
      <trkpt lat="44.69024" lon="6.85683">
        <ele>2139.8</ele>
        <time>2026-03-25T12:48:52Z</time>
      </trkpt>
      <trkpt lat="44.69027" lon="6.85681">
        <ele>2139.5</ele>
        <time>2026-03-25T12:48:53Z</time>
      </trkpt>
      <trkpt lat="44.69031" lon="6.85679">
        <ele>2138.2</ele>
        <time>2026-03-25T12:48:54Z</time>
      </trkpt>
      <trkpt lat="44.69035" lon="6.85677">
        <ele>2138</ele>
        <time>2026-03-25T12:48:55Z</time>
      </trkpt>
      <trkpt lat="44.69038" lon="6.85675">
        <ele>2136.7</ele>
        <time>2026-03-25T12:48:56Z</time>
      </trkpt>
      <trkpt lat="44.69041" lon="6.85673">
        <ele>2136.6</ele>
        <time>2026-03-25T12:48:57Z</time>
      </trkpt>
      <trkpt lat="44.69039" lon="6.85669">
        <ele>2135.3</ele>
        <time>2026-03-25T12:48:58Z</time>
      </trkpt>
      <trkpt lat="44.69039" lon="6.85664">
        <ele>2133.9</ele>
        <time>2026-03-25T12:48:59Z</time>
      </trkpt>
      <trkpt lat="44.69042" lon="6.85658">
        <ele>2131.4</ele>
        <time>2026-03-25T12:49:00Z</time>
      </trkpt>
      <trkpt lat="44.69041" lon="6.85651">
        <ele>2130.2</ele>
        <time>2026-03-25T12:49:01Z</time>
      </trkpt>
      <trkpt lat="44.69043" lon="6.85645">
        <ele>2128.1</ele>
        <time>2026-03-25T12:49:02Z</time>
      </trkpt>
      <trkpt lat="44.69045" lon="6.8564">
        <ele>2127</ele>
        <time>2026-03-25T12:49:03Z</time>
      </trkpt>
      <trkpt lat="44.69045" lon="6.85633">
        <ele>2125.9</ele>
        <time>2026-03-25T12:49:04Z</time>
      </trkpt>
      <trkpt lat="44.69049" lon="6.85629">
        <ele>2124.8</ele>
        <time>2026-03-25T12:49:05Z</time>
      </trkpt>
      <trkpt lat="44.69053" lon="6.85627">
        <ele>2123.8</ele>
        <time>2026-03-25T12:49:06Z</time>
      </trkpt>
      <trkpt lat="44.69057" lon="6.85625">
        <ele>2124</ele>
        <time>2026-03-25T12:49:07Z</time>
      </trkpt>
      <trkpt lat="44.69057" lon="6.85621">
        <ele>2122.8</ele>
        <time>2026-03-25T12:49:08Z</time>
      </trkpt>
      <trkpt lat="44.69055" lon="6.85616">
        <ele>2121.4</ele>
        <time>2026-03-25T12:49:09Z</time>
      </trkpt>
      <trkpt lat="44.69056" lon="6.85612">
        <ele>2120.2</ele>
        <time>2026-03-25T12:49:10Z</time>
      </trkpt>
      <trkpt lat="44.69056" lon="6.85613">
        <ele>2120.1</ele>
        <time>2026-03-25T12:49:11Z</time>
      </trkpt>
      <trkpt lat="44.69056" lon="6.85612">
        <ele>2120</ele>
        <time>2026-03-25T12:49:12Z</time>
      </trkpt>
      <trkpt lat="44.69056" lon="6.85612">
        <ele>2120</ele>
        <time>2026-03-25T12:49:13Z</time>
      </trkpt>
      <trkpt lat="44.69057" lon="6.85612">
        <ele>2120</ele>
        <time>2026-03-25T12:49:14Z</time>
      </trkpt>
      <trkpt lat="44.69057" lon="6.85611">
        <ele>2118.9</ele>
        <time>2026-03-25T12:49:15Z</time>
      </trkpt>
      <trkpt lat="44.69057" lon="6.85608">
        <ele>2118.8</ele>
        <time>2026-03-25T12:49:16Z</time>
      </trkpt>
      <trkpt lat="44.69056" lon="6.85607">
        <ele>2118.7</ele>
        <time>2026-03-25T12:49:17Z</time>
      </trkpt>
      <trkpt lat="44.69056" lon="6.85606">
        <ele>2117.4</ele>
        <time>2026-03-25T12:49:18Z</time>
      </trkpt>
      <trkpt lat="44.69056" lon="6.85607">
        <ele>2117.3</ele>
        <time>2026-03-25T12:49:19Z</time>
      </trkpt>
      <trkpt lat="44.69056" lon="6.85607">
        <ele>2117.3</ele>
        <time>2026-03-25T12:49:20Z</time>
      </trkpt>
      <trkpt lat="44.69056" lon="6.85607">
        <ele>2117.2</ele>
        <time>2026-03-25T12:49:21Z</time>
      </trkpt>
      <trkpt lat="44.69055" lon="6.85607">
        <ele>2117.1</ele>
        <time>2026-03-25T12:49:22Z</time>
      </trkpt>
      <trkpt lat="44.69055" lon="6.85607">
        <ele>2118.1</ele>
        <time>2026-03-25T12:49:23Z</time>
      </trkpt>
      <trkpt lat="44.69055" lon="6.85607">
        <ele>2117</ele>
        <time>2026-03-25T12:49:24Z</time>
      </trkpt>
      <trkpt lat="44.69055" lon="6.85607">
        <ele>2116.9</ele>
        <time>2026-03-25T12:49:25Z</time>
      </trkpt>
      <trkpt lat="44.69055" lon="6.85607">
        <ele>2117.9</ele>
        <time>2026-03-25T12:49:26Z</time>
      </trkpt>
      <trkpt lat="44.69055" lon="6.85607">
        <ele>2117.8</ele>
        <time>2026-03-25T12:49:27Z</time>
      </trkpt>
      <trkpt lat="44.69055" lon="6.85608">
        <ele>2117.7</ele>
        <time>2026-03-25T12:49:28Z</time>
      </trkpt>
      <trkpt lat="44.69055" lon="6.85608">
        <ele>2117.7</ele>
        <time>2026-03-25T12:49:29Z</time>
      </trkpt>
      <trkpt lat="44.69055" lon="6.85608">
        <ele>2117.6</ele>
        <time>2026-03-25T12:49:30Z</time>
      </trkpt>
      <trkpt lat="44.69055" lon="6.85608">
        <ele>2117.5</ele>
        <time>2026-03-25T12:49:31Z</time>
      </trkpt>
      <trkpt lat="44.69055" lon="6.85608">
        <ele>2117.4</ele>
        <time>2026-03-25T12:49:32Z</time>
      </trkpt>
      <trkpt lat="44.69055" lon="6.85608">
        <ele>2117.4</ele>
        <time>2026-03-25T12:49:33Z</time>
      </trkpt>
      <trkpt lat="44.69054" lon="6.85607">
        <ele>2117.3</ele>
        <time>2026-03-25T12:49:34Z</time>
      </trkpt>
      <trkpt lat="44.69055" lon="6.85607">
        <ele>2116.1</ele>
        <time>2026-03-25T12:49:35Z</time>
      </trkpt>
      <trkpt lat="44.69055" lon="6.85606">
        <ele>2116.1</ele>
        <time>2026-03-25T12:49:36Z</time>
      </trkpt>
      <trkpt lat="44.69055" lon="6.85606">
        <ele>2116</ele>
        <time>2026-03-25T12:49:37Z</time>
      </trkpt>
      <trkpt lat="44.69055" lon="6.85606">
        <ele>2115.9</ele>
        <time>2026-03-25T12:49:38Z</time>
      </trkpt>
      <trkpt lat="44.69056" lon="6.85606">
        <ele>2115.8</ele>
        <time>2026-03-25T12:49:39Z</time>
      </trkpt>
      <trkpt lat="44.69056" lon="6.85606">
        <ele>2115.8</ele>
        <time>2026-03-25T12:49:40Z</time>
      </trkpt>
      <trkpt lat="44.69056" lon="6.85605">
        <ele>2115.7</ele>
        <time>2026-03-25T12:49:41Z</time>
      </trkpt>
      <trkpt lat="44.69056" lon="6.85605">
        <ele>2115.8</ele>
        <time>2026-03-25T12:49:42Z</time>
      </trkpt>
      <trkpt lat="44.69057" lon="6.85605">
        <ele>2115.7</ele>
        <time>2026-03-25T12:49:43Z</time>
      </trkpt>
      <trkpt lat="44.69057" lon="6.85605">
        <ele>2115.6</ele>
        <time>2026-03-25T12:49:44Z</time>
      </trkpt>
      <trkpt lat="44.69057" lon="6.85605">
        <ele>2115.5</ele>
        <time>2026-03-25T12:49:45Z</time>
      </trkpt>
      <trkpt lat="44.69057" lon="6.85604">
        <ele>2115.5</ele>
        <time>2026-03-25T12:49:46Z</time>
      </trkpt>
      <trkpt lat="44.69058" lon="6.85604">
        <ele>2115.4</ele>
        <time>2026-03-25T12:49:47Z</time>
      </trkpt>
      <trkpt lat="44.69058" lon="6.85604">
        <ele>2115.3</ele>
        <time>2026-03-25T12:49:48Z</time>
      </trkpt>
      <trkpt lat="44.69058" lon="6.85604">
        <ele>2115.2</ele>
        <time>2026-03-25T12:49:49Z</time>
      </trkpt>
      <trkpt lat="44.69058" lon="6.85604">
        <ele>2115.2</ele>
        <time>2026-03-25T12:49:50Z</time>
      </trkpt>
      <trkpt lat="44.69058" lon="6.85603">
        <ele>2115.1</ele>
        <time>2026-03-25T12:49:51Z</time>
      </trkpt>
      <trkpt lat="44.69059" lon="6.85603">
        <ele>2115</ele>
        <time>2026-03-25T12:49:52Z</time>
      </trkpt>
      <trkpt lat="44.69059" lon="6.85603">
        <ele>2114.9</ele>
        <time>2026-03-25T12:49:53Z</time>
      </trkpt>
      <trkpt lat="44.69063" lon="6.85602">
        <ele>2114.2</ele>
        <time>2026-03-25T12:49:54Z</time>
      </trkpt>
      <trkpt lat="44.69067" lon="6.85601">
        <ele>2114.3</ele>
        <time>2026-03-25T12:49:55Z</time>
      </trkpt>
      <trkpt lat="44.69068" lon="6.85596">
        <ele>2113.2</ele>
        <time>2026-03-25T12:49:56Z</time>
      </trkpt>
      <trkpt lat="44.69071" lon="6.85593">
        <ele>2112.2</ele>
        <time>2026-03-25T12:49:57Z</time>
      </trkpt>
      <trkpt lat="44.69076" lon="6.85594">
        <ele>2112.5</ele>
        <time>2026-03-25T12:49:58Z</time>
      </trkpt>
      <trkpt lat="44.6908" lon="6.85594">
        <ele>2113.7</ele>
        <time>2026-03-25T12:49:59Z</time>
      </trkpt>
      <trkpt lat="44.69084" lon="6.85595">
        <ele>2114.1</ele>
        <time>2026-03-25T12:50:00Z</time>
      </trkpt>
      <trkpt lat="44.69088" lon="6.85595">
        <ele>2114.2</ele>
        <time>2026-03-25T12:50:01Z</time>
      </trkpt>
      <trkpt lat="44.69089" lon="6.8559">
        <ele>2111.9</ele>
        <time>2026-03-25T12:50:02Z</time>
      </trkpt>
      <trkpt lat="44.69092" lon="6.85584">
        <ele>2110.8</ele>
        <time>2026-03-25T12:50:03Z</time>
      </trkpt>
      <trkpt lat="44.69094" lon="6.85581">
        <ele>2109.6</ele>
        <time>2026-03-25T12:50:04Z</time>
      </trkpt>
      <trkpt lat="44.69096" lon="6.85576">
        <ele>2108.2</ele>
        <time>2026-03-25T12:50:05Z</time>
      </trkpt>
      <trkpt lat="44.69095" lon="6.85571">
        <ele>2106.7</ele>
        <time>2026-03-25T12:50:06Z</time>
      </trkpt>
      <trkpt lat="44.69096" lon="6.85565">
        <ele>2105.3</ele>
        <time>2026-03-25T12:50:07Z</time>
      </trkpt>
      <trkpt lat="44.69093" lon="6.85561">
        <ele>2103.8</ele>
        <time>2026-03-25T12:50:08Z</time>
      </trkpt>
      <trkpt lat="44.69093" lon="6.85555">
        <ele>2101.3</ele>
        <time>2026-03-25T12:50:09Z</time>
      </trkpt>
      <trkpt lat="44.69093" lon="6.8555">
        <ele>2099.9</ele>
        <time>2026-03-25T12:50:10Z</time>
      </trkpt>
      <trkpt lat="44.69091" lon="6.85545">
        <ele>2097.4</ele>
        <time>2026-03-25T12:50:11Z</time>
      </trkpt>
      <trkpt lat="44.69092" lon="6.85541">
        <ele>2095.9</ele>
        <time>2026-03-25T12:50:12Z</time>
      </trkpt>
      <trkpt lat="44.69092" lon="6.85539">
        <ele>2095.8</ele>
        <time>2026-03-25T12:50:13Z</time>
      </trkpt>
      <trkpt lat="44.69091" lon="6.85537">
        <ele>2094.2</ele>
        <time>2026-03-25T12:50:14Z</time>
      </trkpt>
      <trkpt lat="44.69091" lon="6.85536">
        <ele>2094.1</ele>
        <time>2026-03-25T12:50:15Z</time>
      </trkpt>
      <trkpt lat="44.6909" lon="6.85536">
        <ele>2094</ele>
        <time>2026-03-25T12:50:16Z</time>
      </trkpt>
      <trkpt lat="44.69091" lon="6.85536">
        <ele>2093.9</ele>
        <time>2026-03-25T12:50:17Z</time>
      </trkpt>
      <trkpt lat="44.6909" lon="6.85537">
        <ele>2093.8</ele>
        <time>2026-03-25T12:50:18Z</time>
      </trkpt>
      <trkpt lat="44.6909" lon="6.85537">
        <ele>2093.8</ele>
        <time>2026-03-25T12:50:19Z</time>
      </trkpt>
      <trkpt lat="44.6909" lon="6.85537">
        <ele>2093.7</ele>
        <time>2026-03-25T12:50:20Z</time>
      </trkpt>
      <trkpt lat="44.6909" lon="6.85537">
        <ele>2093.6</ele>
        <time>2026-03-25T12:50:21Z</time>
      </trkpt>
      <trkpt lat="44.6909" lon="6.85537">
        <ele>2093.5</ele>
        <time>2026-03-25T12:50:22Z</time>
      </trkpt>
      <trkpt lat="44.6909" lon="6.85537">
        <ele>2093.2</ele>
        <time>2026-03-25T12:50:23Z</time>
      </trkpt>
      <trkpt lat="44.6909" lon="6.85537">
        <ele>2093.1</ele>
        <time>2026-03-25T12:50:24Z</time>
      </trkpt>
      <trkpt lat="44.6909" lon="6.85537">
        <ele>2093.1</ele>
        <time>2026-03-25T12:50:25Z</time>
      </trkpt>
      <trkpt lat="44.69089" lon="6.85537">
        <ele>2093</ele>
        <time>2026-03-25T12:50:26Z</time>
      </trkpt>
      <trkpt lat="44.69089" lon="6.85536">
        <ele>2092.9</ele>
        <time>2026-03-25T12:50:27Z</time>
      </trkpt>
      <trkpt lat="44.69089" lon="6.85536">
        <ele>2092.8</ele>
        <time>2026-03-25T12:50:28Z</time>
      </trkpt>
      <trkpt lat="44.69089" lon="6.85536">
        <ele>2092.8</ele>
        <time>2026-03-25T12:50:29Z</time>
      </trkpt>
      <trkpt lat="44.69089" lon="6.85536">
        <ele>2092.7</ele>
        <time>2026-03-25T12:50:30Z</time>
      </trkpt>
      <trkpt lat="44.69089" lon="6.85536">
        <ele>2092.6</ele>
        <time>2026-03-25T12:50:31Z</time>
      </trkpt>
      <trkpt lat="44.69089" lon="6.85536">
        <ele>2092.5</ele>
        <time>2026-03-25T12:50:32Z</time>
      </trkpt>
      <trkpt lat="44.69089" lon="6.85536">
        <ele>2092.5</ele>
        <time>2026-03-25T12:50:33Z</time>
      </trkpt>
      <trkpt lat="44.69089" lon="6.85536">
        <ele>2092.4</ele>
        <time>2026-03-25T12:50:34Z</time>
      </trkpt>
      <trkpt lat="44.69089" lon="6.85536">
        <ele>2092.3</ele>
        <time>2026-03-25T12:50:35Z</time>
      </trkpt>
      <trkpt lat="44.69089" lon="6.85536">
        <ele>2092.2</ele>
        <time>2026-03-25T12:50:36Z</time>
      </trkpt>
      <trkpt lat="44.69089" lon="6.85536">
        <ele>2092.2</ele>
        <time>2026-03-25T12:50:37Z</time>
      </trkpt>
      <trkpt lat="44.69089" lon="6.85536">
        <ele>2092.1</ele>
        <time>2026-03-25T12:50:38Z</time>
      </trkpt>
      <trkpt lat="44.69088" lon="6.85535">
        <ele>2092</ele>
        <time>2026-03-25T12:50:39Z</time>
      </trkpt>
      <trkpt lat="44.69087" lon="6.85534">
        <ele>2091.9</ele>
        <time>2026-03-25T12:50:40Z</time>
      </trkpt>
      <trkpt lat="44.69086" lon="6.8553">
        <ele>2090</ele>
        <time>2026-03-25T12:50:41Z</time>
      </trkpt>
      <trkpt lat="44.69085" lon="6.85527">
        <ele>2088.3</ele>
        <time>2026-03-25T12:50:42Z</time>
      </trkpt>
      <trkpt lat="44.69083" lon="6.85525">
        <ele>2086.5</ele>
        <time>2026-03-25T12:50:43Z</time>
      </trkpt>
      <trkpt lat="44.69082" lon="6.85524">
        <ele>2086.4</ele>
        <time>2026-03-25T12:50:44Z</time>
      </trkpt>
      <trkpt lat="44.69078" lon="6.85523">
        <ele>2086.1</ele>
        <time>2026-03-25T12:50:45Z</time>
      </trkpt>
      <trkpt lat="44.69076" lon="6.85521">
        <ele>2084.4</ele>
        <time>2026-03-25T12:50:46Z</time>
      </trkpt>
      <trkpt lat="44.69075" lon="6.85521">
        <ele>2084.3</ele>
        <time>2026-03-25T12:50:47Z</time>
      </trkpt>
      <trkpt lat="44.69073" lon="6.85521">
        <ele>2084.1</ele>
        <time>2026-03-25T12:50:48Z</time>
      </trkpt>
      <trkpt lat="44.69072" lon="6.85521">
        <ele>2085.5</ele>
        <time>2026-03-25T12:50:49Z</time>
      </trkpt>
      <trkpt lat="44.69071" lon="6.85521">
        <ele>2083.8</ele>
        <time>2026-03-25T12:50:50Z</time>
      </trkpt>
      <trkpt lat="44.6907" lon="6.8552">
        <ele>2083.7</ele>
        <time>2026-03-25T12:50:51Z</time>
      </trkpt>
      <trkpt lat="44.6907" lon="6.85519">
        <ele>2083.6</ele>
        <time>2026-03-25T12:50:52Z</time>
      </trkpt>
      <trkpt lat="44.6907" lon="6.85519">
        <ele>2083.5</ele>
        <time>2026-03-25T12:50:53Z</time>
      </trkpt>
      <trkpt lat="44.6907" lon="6.85519">
        <ele>2083.5</ele>
        <time>2026-03-25T12:50:54Z</time>
      </trkpt>
      <trkpt lat="44.69071" lon="6.85519">
        <ele>2083.4</ele>
        <time>2026-03-25T12:50:55Z</time>
      </trkpt>
      <trkpt lat="44.6907" lon="6.85519">
        <ele>2083.3</ele>
        <time>2026-03-25T12:50:56Z</time>
      </trkpt>
      <trkpt lat="44.69071" lon="6.85519">
        <ele>2083.2</ele>
        <time>2026-03-25T12:50:57Z</time>
      </trkpt>
      <trkpt lat="44.69071" lon="6.85518">
        <ele>2083.2</ele>
        <time>2026-03-25T12:50:58Z</time>
      </trkpt>
      <trkpt lat="44.69072" lon="6.85517">
        <ele>2083.3</ele>
        <time>2026-03-25T12:50:59Z</time>
      </trkpt>
      <trkpt lat="44.69073" lon="6.85516">
        <ele>2081.7</ele>
        <time>2026-03-25T12:51:00Z</time>
      </trkpt>
      <trkpt lat="44.69074" lon="6.85515">
        <ele>2081.7</ele>
        <time>2026-03-25T12:51:01Z</time>
      </trkpt>
      <trkpt lat="44.69073" lon="6.85514">
        <ele>2081.6</ele>
        <time>2026-03-25T12:51:02Z</time>
      </trkpt>
      <trkpt lat="44.69072" lon="6.85511">
        <ele>2080.1</ele>
        <time>2026-03-25T12:51:03Z</time>
      </trkpt>
      <trkpt lat="44.69072" lon="6.8551">
        <ele>2080</ele>
        <time>2026-03-25T12:51:04Z</time>
      </trkpt>
      <trkpt lat="44.69071" lon="6.85508">
        <ele>2079.8</ele>
        <time>2026-03-25T12:51:05Z</time>
      </trkpt>
      <trkpt lat="44.69072" lon="6.85505">
        <ele>2078.4</ele>
        <time>2026-03-25T12:51:06Z</time>
      </trkpt>
      <trkpt lat="44.69072" lon="6.85501">
        <ele>2076.8</ele>
        <time>2026-03-25T12:51:07Z</time>
      </trkpt>
      <trkpt lat="44.69069" lon="6.85497">
        <ele>2074.9</ele>
        <time>2026-03-25T12:51:08Z</time>
      </trkpt>
      <trkpt lat="44.69067" lon="6.85497">
        <ele>2074.6</ele>
        <time>2026-03-25T12:51:09Z</time>
      </trkpt>
      <trkpt lat="44.69066" lon="6.85494">
        <ele>2072.9</ele>
        <time>2026-03-25T12:51:10Z</time>
      </trkpt>
      <trkpt lat="44.69066" lon="6.85492">
        <ele>2072.8</ele>
        <time>2026-03-25T12:51:11Z</time>
      </trkpt>
      <trkpt lat="44.69066" lon="6.8549">
        <ele>2071.1</ele>
        <time>2026-03-25T12:51:12Z</time>
      </trkpt>
      <trkpt lat="44.69062" lon="6.85489">
        <ele>2070.7</ele>
        <time>2026-03-25T12:51:13Z</time>
      </trkpt>
      <trkpt lat="44.69061" lon="6.85489">
        <ele>2070.6</ele>
        <time>2026-03-25T12:51:14Z</time>
      </trkpt>
      <trkpt lat="44.69059" lon="6.85487">
        <ele>2070.6</ele>
        <time>2026-03-25T12:51:15Z</time>
      </trkpt>
      <trkpt lat="44.6906" lon="6.85485">
        <ele>2068.9</ele>
        <time>2026-03-25T12:51:16Z</time>
      </trkpt>
      <trkpt lat="44.6906" lon="6.85481">
        <ele>2067.2</ele>
        <time>2026-03-25T12:51:17Z</time>
      </trkpt>
      <trkpt lat="44.69059" lon="6.8548">
        <ele>2067.1</ele>
        <time>2026-03-25T12:51:18Z</time>
      </trkpt>
      <trkpt lat="44.69057" lon="6.85477">
        <ele>2065.4</ele>
        <time>2026-03-25T12:51:19Z</time>
      </trkpt>
      <trkpt lat="44.69056" lon="6.85473">
        <ele>2063.8</ele>
        <time>2026-03-25T12:51:20Z</time>
      </trkpt>
      <trkpt lat="44.69058" lon="6.85469">
        <ele>2062.9</ele>
        <time>2026-03-25T12:51:21Z</time>
      </trkpt>
      <trkpt lat="44.69061" lon="6.85467">
        <ele>2062.1</ele>
        <time>2026-03-25T12:51:22Z</time>
      </trkpt>
      <trkpt lat="44.69065" lon="6.85466">
        <ele>2061</ele>
        <time>2026-03-25T12:51:23Z</time>
      </trkpt>
      <trkpt lat="44.69069" lon="6.85464">
        <ele>2060.1</ele>
        <time>2026-03-25T12:51:24Z</time>
      </trkpt>
      <trkpt lat="44.69072" lon="6.85463">
        <ele>2059.5</ele>
        <time>2026-03-25T12:51:25Z</time>
      </trkpt>
      <trkpt lat="44.69073" lon="6.85461">
        <ele>2059.1</ele>
        <time>2026-03-25T12:51:26Z</time>
      </trkpt>
      <trkpt lat="44.69075" lon="6.8546">
        <ele>2058.7</ele>
        <time>2026-03-25T12:51:27Z</time>
      </trkpt>
      <trkpt lat="44.69077" lon="6.85458">
        <ele>2058.1</ele>
        <time>2026-03-25T12:51:28Z</time>
      </trkpt>
      <trkpt lat="44.69079" lon="6.85455">
        <ele>2057.5</ele>
        <time>2026-03-25T12:51:29Z</time>
      </trkpt>
      <trkpt lat="44.69079" lon="6.85453">
        <ele>2057.2</ele>
        <time>2026-03-25T12:51:30Z</time>
      </trkpt>
      <trkpt lat="44.69078" lon="6.85452">
        <ele>2056.8</ele>
        <time>2026-03-25T12:51:31Z</time>
      </trkpt>
      <trkpt lat="44.69075" lon="6.85451">
        <ele>2056.1</ele>
        <time>2026-03-25T12:51:32Z</time>
      </trkpt>
      <trkpt lat="44.69074" lon="6.85451">
        <ele>2055.9</ele>
        <time>2026-03-25T12:51:33Z</time>
      </trkpt>
      <trkpt lat="44.69072" lon="6.85451">
        <ele>2055.6</ele>
        <time>2026-03-25T12:51:34Z</time>
      </trkpt>
      <trkpt lat="44.69071" lon="6.85451">
        <ele>2055.3</ele>
        <time>2026-03-25T12:51:35Z</time>
      </trkpt>
      <trkpt lat="44.6907" lon="6.85452">
        <ele>2055.1</ele>
        <time>2026-03-25T12:51:36Z</time>
      </trkpt>
      <trkpt lat="44.69068" lon="6.85452">
        <ele>2054.7</ele>
        <time>2026-03-25T12:51:37Z</time>
      </trkpt>
      <trkpt lat="44.69064" lon="6.85451">
        <ele>2054</ele>
        <time>2026-03-25T12:51:38Z</time>
      </trkpt>
      <trkpt lat="44.69064" lon="6.8545">
        <ele>2053.8</ele>
        <time>2026-03-25T12:51:39Z</time>
      </trkpt>
      <trkpt lat="44.69064" lon="6.85446">
        <ele>2053.3</ele>
        <time>2026-03-25T12:51:40Z</time>
      </trkpt>
      <trkpt lat="44.69064" lon="6.85441">
        <ele>2052.6</ele>
        <time>2026-03-25T12:51:41Z</time>
      </trkpt>
      <trkpt lat="44.69063" lon="6.85439">
        <ele>2052.4</ele>
        <time>2026-03-25T12:51:42Z</time>
      </trkpt>
      <trkpt lat="44.69059" lon="6.85438">
        <ele>2051.7</ele>
        <time>2026-03-25T12:51:43Z</time>
      </trkpt>
      <trkpt lat="44.69058" lon="6.85438">
        <ele>2051.5</ele>
        <time>2026-03-25T12:51:44Z</time>
      </trkpt>
      <trkpt lat="44.69055" lon="6.85437">
        <ele>2050.9</ele>
        <time>2026-03-25T12:51:45Z</time>
      </trkpt>
      <trkpt lat="44.69054" lon="6.85435">
        <ele>2050.7</ele>
        <time>2026-03-25T12:51:46Z</time>
      </trkpt>
      <trkpt lat="44.69056" lon="6.8543">
        <ele>2050</ele>
        <time>2026-03-25T12:51:47Z</time>
      </trkpt>
      <trkpt lat="44.69057" lon="6.85428">
        <ele>2049.7</ele>
        <time>2026-03-25T12:51:48Z</time>
      </trkpt>
      <trkpt lat="44.6906" lon="6.85426">
        <ele>2049.3</ele>
        <time>2026-03-25T12:51:49Z</time>
      </trkpt>
      <trkpt lat="44.69061" lon="6.85425">
        <ele>2048.9</ele>
        <time>2026-03-25T12:51:50Z</time>
      </trkpt>
      <trkpt lat="44.69062" lon="6.85425">
        <ele>2048.8</ele>
        <time>2026-03-25T12:51:51Z</time>
      </trkpt>
      <trkpt lat="44.69063" lon="6.85424">
        <ele>2048.7</ele>
        <time>2026-03-25T12:51:52Z</time>
      </trkpt>
      <trkpt lat="44.69063" lon="6.85424">
        <ele>2048.7</ele>
        <time>2026-03-25T12:51:53Z</time>
      </trkpt>
      <trkpt lat="44.69063" lon="6.85424">
        <ele>2048.6</ele>
        <time>2026-03-25T12:51:54Z</time>
      </trkpt>
      <trkpt lat="44.69063" lon="6.85424">
        <ele>2048.6</ele>
        <time>2026-03-25T12:51:55Z</time>
      </trkpt>
      <trkpt lat="44.69063" lon="6.85423">
        <ele>2048.6</ele>
        <time>2026-03-25T12:51:56Z</time>
      </trkpt>
      <trkpt lat="44.69063" lon="6.85423">
        <ele>2048.5</ele>
        <time>2026-03-25T12:51:57Z</time>
      </trkpt>
      <trkpt lat="44.69064" lon="6.85423">
        <ele>2048.5</ele>
        <time>2026-03-25T12:51:58Z</time>
      </trkpt>
      <trkpt lat="44.69064" lon="6.85423">
        <ele>2048.4</ele>
        <time>2026-03-25T12:51:59Z</time>
      </trkpt>
      <trkpt lat="44.69064" lon="6.85423">
        <ele>2048.4</ele>
        <time>2026-03-25T12:52:00Z</time>
      </trkpt>
      <trkpt lat="44.69064" lon="6.85423">
        <ele>2048.4</ele>
        <time>2026-03-25T12:52:01Z</time>
      </trkpt>
      <trkpt lat="44.69064" lon="6.85422">
        <ele>2048.4</ele>
        <time>2026-03-25T12:52:02Z</time>
      </trkpt>
      <trkpt lat="44.69064" lon="6.85422">
        <ele>2048.3</ele>
        <time>2026-03-25T12:52:03Z</time>
      </trkpt>
      <trkpt lat="44.69064" lon="6.85422">
        <ele>2048.3</ele>
        <time>2026-03-25T12:52:04Z</time>
      </trkpt>
      <trkpt lat="44.69065" lon="6.85422">
        <ele>2048.2</ele>
        <time>2026-03-25T12:52:05Z</time>
      </trkpt>
      <trkpt lat="44.69065" lon="6.85422">
        <ele>2048.2</ele>
        <time>2026-03-25T12:52:06Z</time>
      </trkpt>
      <trkpt lat="44.69065" lon="6.85422">
        <ele>2048.2</ele>
        <time>2026-03-25T12:52:07Z</time>
      </trkpt>
      <trkpt lat="44.69065" lon="6.85421">
        <ele>2048.1</ele>
        <time>2026-03-25T12:52:08Z</time>
      </trkpt>
      <trkpt lat="44.69065" lon="6.85421">
        <ele>2048.1</ele>
        <time>2026-03-25T12:52:09Z</time>
      </trkpt>
      <trkpt lat="44.69065" lon="6.85421">
        <ele>2048.1</ele>
        <time>2026-03-25T12:52:10Z</time>
      </trkpt>
      <trkpt lat="44.69066" lon="6.85421">
        <ele>2048</ele>
        <time>2026-03-25T12:52:11Z</time>
      </trkpt>
      <trkpt lat="44.69066" lon="6.85421">
        <ele>2048</ele>
        <time>2026-03-25T12:52:12Z</time>
      </trkpt>
      <trkpt lat="44.69066" lon="6.85421">
        <ele>2048</ele>
        <time>2026-03-25T12:52:13Z</time>
      </trkpt>
      <trkpt lat="44.69066" lon="6.8542">
        <ele>2047.9</ele>
        <time>2026-03-25T12:52:14Z</time>
      </trkpt>
      <trkpt lat="44.69066" lon="6.8542">
        <ele>2047.9</ele>
        <time>2026-03-25T12:52:15Z</time>
      </trkpt>
      <trkpt lat="44.69066" lon="6.8542">
        <ele>2047.9</ele>
        <time>2026-03-25T12:52:16Z</time>
      </trkpt>
      <trkpt lat="44.69067" lon="6.8542">
        <ele>2047.8</ele>
        <time>2026-03-25T12:52:17Z</time>
      </trkpt>
      <trkpt lat="44.69067" lon="6.8542">
        <ele>2047.8</ele>
        <time>2026-03-25T12:52:18Z</time>
      </trkpt>
      <trkpt lat="44.69067" lon="6.8542">
        <ele>2047.8</ele>
        <time>2026-03-25T12:52:19Z</time>
      </trkpt>
      <trkpt lat="44.69069" lon="6.85417">
        <ele>2047.3</ele>
        <time>2026-03-25T12:52:20Z</time>
      </trkpt>
      <trkpt lat="44.69073" lon="6.85414">
        <ele>2046.4</ele>
        <time>2026-03-25T12:52:21Z</time>
      </trkpt>
      <trkpt lat="44.69077" lon="6.85412">
        <ele>2045.9</ele>
        <time>2026-03-25T12:52:22Z</time>
      </trkpt>
      <trkpt lat="44.69077" lon="6.85408">
        <ele>2045.4</ele>
        <time>2026-03-25T12:52:23Z</time>
      </trkpt>
      <trkpt lat="44.69076" lon="6.85407">
        <ele>2045.2</ele>
        <time>2026-03-25T12:52:24Z</time>
      </trkpt>
      <trkpt lat="44.69077" lon="6.85403">
        <ele>2044.8</ele>
        <time>2026-03-25T12:52:25Z</time>
      </trkpt>
      <trkpt lat="44.69077" lon="6.85403">
        <ele>2044.7</ele>
        <time>2026-03-25T12:52:26Z</time>
      </trkpt>
      <trkpt lat="44.69077" lon="6.85403">
        <ele>2044.7</ele>
        <time>2026-03-25T12:52:27Z</time>
      </trkpt>
      <trkpt lat="44.69077" lon="6.85402">
        <ele>2044.7</ele>
        <time>2026-03-25T12:52:28Z</time>
      </trkpt>
      <trkpt lat="44.69076" lon="6.85403">
        <ele>2044.6</ele>
        <time>2026-03-25T12:52:29Z</time>
      </trkpt>
      <trkpt lat="44.69077" lon="6.85402">
        <ele>2044.5</ele>
        <time>2026-03-25T12:52:30Z</time>
      </trkpt>
      <trkpt lat="44.69076" lon="6.85402">
        <ele>2044.5</ele>
        <time>2026-03-25T12:52:31Z</time>
      </trkpt>
      <trkpt lat="44.69076" lon="6.85401">
        <ele>2044.4</ele>
        <time>2026-03-25T12:52:32Z</time>
      </trkpt>
      <trkpt lat="44.69077" lon="6.85402">
        <ele>2044.4</ele>
        <time>2026-03-25T12:52:33Z</time>
      </trkpt>
      <trkpt lat="44.69077" lon="6.85402">
        <ele>2044.3</ele>
        <time>2026-03-25T12:52:34Z</time>
      </trkpt>
      <trkpt lat="44.69077" lon="6.85403">
        <ele>2044.3</ele>
        <time>2026-03-25T12:52:35Z</time>
      </trkpt>
      <trkpt lat="44.69077" lon="6.85403">
        <ele>2044.3</ele>
        <time>2026-03-25T12:52:36Z</time>
      </trkpt>
      <trkpt lat="44.69077" lon="6.85403">
        <ele>2044.2</ele>
        <time>2026-03-25T12:52:37Z</time>
      </trkpt>
      <trkpt lat="44.69077" lon="6.85403">
        <ele>2044.2</ele>
        <time>2026-03-25T12:52:38Z</time>
      </trkpt>
      <trkpt lat="44.69076" lon="6.85403">
        <ele>2044.2</ele>
        <time>2026-03-25T12:52:39Z</time>
      </trkpt>
      <trkpt lat="44.69076" lon="6.85403">
        <ele>2044.1</ele>
        <time>2026-03-25T12:52:40Z</time>
      </trkpt>
      <trkpt lat="44.69076" lon="6.85403">
        <ele>2044.1</ele>
        <time>2026-03-25T12:52:41Z</time>
      </trkpt>
      <trkpt lat="44.69076" lon="6.85403">
        <ele>2044.1</ele>
        <time>2026-03-25T12:52:42Z</time>
      </trkpt>
      <trkpt lat="44.69076" lon="6.85403">
        <ele>2044.1</ele>
        <time>2026-03-25T12:52:43Z</time>
      </trkpt>
      <trkpt lat="44.69076" lon="6.85403">
        <ele>2044.1</ele>
        <time>2026-03-25T12:52:44Z</time>
      </trkpt>
      <trkpt lat="44.69076" lon="6.85403">
        <ele>2044.1</ele>
        <time>2026-03-25T12:52:45Z</time>
      </trkpt>
      <trkpt lat="44.69076" lon="6.85403">
        <ele>2044.1</ele>
        <time>2026-03-25T12:52:46Z</time>
      </trkpt>
      <trkpt lat="44.69076" lon="6.85403">
        <ele>2044.1</ele>
        <time>2026-03-25T12:52:47Z</time>
      </trkpt>
      <trkpt lat="44.69076" lon="6.85403">
        <ele>2044.1</ele>
        <time>2026-03-25T12:52:48Z</time>
      </trkpt>
      <trkpt lat="44.69076" lon="6.85403">
        <ele>2044.1</ele>
        <time>2026-03-25T12:52:49Z</time>
      </trkpt>
      <trkpt lat="44.69076" lon="6.85403">
        <ele>2044.1</ele>
        <time>2026-03-25T12:52:50Z</time>
      </trkpt>
      <trkpt lat="44.69076" lon="6.85403">
        <ele>2044.1</ele>
        <time>2026-03-25T12:52:51Z</time>
      </trkpt>
      <trkpt lat="44.69076" lon="6.85403">
        <ele>2044.1</ele>
        <time>2026-03-25T12:52:52Z</time>
      </trkpt>
      <trkpt lat="44.69076" lon="6.85403">
        <ele>2044.1</ele>
        <time>2026-03-25T12:52:53Z</time>
      </trkpt>
      <trkpt lat="44.69076" lon="6.85403">
        <ele>2044.1</ele>
        <time>2026-03-25T12:52:54Z</time>
      </trkpt>
      <trkpt lat="44.69076" lon="6.85403">
        <ele>2044.1</ele>
        <time>2026-03-25T12:52:55Z</time>
      </trkpt>
      <trkpt lat="44.69076" lon="6.85403">
        <ele>2044.1</ele>
        <time>2026-03-25T12:52:56Z</time>
      </trkpt>
      <trkpt lat="44.69076" lon="6.85403">
        <ele>2044.1</ele>
        <time>2026-03-25T12:52:57Z</time>
      </trkpt>
      <trkpt lat="44.69076" lon="6.85403">
        <ele>2044.1</ele>
        <time>2026-03-25T12:52:58Z</time>
      </trkpt>
      <trkpt lat="44.69076" lon="6.85403">
        <ele>2044.1</ele>
        <time>2026-03-25T12:52:59Z</time>
      </trkpt>
      <trkpt lat="44.69076" lon="6.85403">
        <ele>2044.1</ele>
        <time>2026-03-25T12:53:00Z</time>
      </trkpt>
      <trkpt lat="44.69076" lon="6.85403">
        <ele>2044.1</ele>
        <time>2026-03-25T12:53:01Z</time>
      </trkpt>
      <trkpt lat="44.69076" lon="6.85403">
        <ele>2044.1</ele>
        <time>2026-03-25T12:53:02Z</time>
      </trkpt>
      <trkpt lat="44.69076" lon="6.85403">
        <ele>2044.1</ele>
        <time>2026-03-25T12:53:03Z</time>
      </trkpt>
      <trkpt lat="44.69076" lon="6.85403">
        <ele>2044.1</ele>
        <time>2026-03-25T12:53:04Z</time>
      </trkpt>
      <trkpt lat="44.69076" lon="6.85403">
        <ele>2044.1</ele>
        <time>2026-03-25T12:53:05Z</time>
      </trkpt>
      <trkpt lat="44.69076" lon="6.85403">
        <ele>2044.1</ele>
        <time>2026-03-25T12:53:06Z</time>
      </trkpt>
      <trkpt lat="44.69076" lon="6.85403">
        <ele>2044.1</ele>
        <time>2026-03-25T12:53:07Z</time>
      </trkpt>
      <trkpt lat="44.69076" lon="6.85403">
        <ele>2044</ele>
        <time>2026-03-25T12:53:08Z</time>
      </trkpt>
      <trkpt lat="44.69077" lon="6.85402">
        <ele>2043.9</ele>
        <time>2026-03-25T12:53:09Z</time>
      </trkpt>
      <trkpt lat="44.69077" lon="6.85401">
        <ele>2043.9</ele>
        <time>2026-03-25T12:53:10Z</time>
      </trkpt>
      <trkpt lat="44.69077" lon="6.85401">
        <ele>2043.8</ele>
        <time>2026-03-25T12:53:11Z</time>
      </trkpt>
      <trkpt lat="44.69077" lon="6.85401">
        <ele>2043.8</ele>
        <time>2026-03-25T12:53:12Z</time>
      </trkpt>
      <trkpt lat="44.69077" lon="6.854">
        <ele>2043.7</ele>
        <time>2026-03-25T12:53:13Z</time>
      </trkpt>
      <trkpt lat="44.69077" lon="6.85399">
        <ele>2043.6</ele>
        <time>2026-03-25T12:53:14Z</time>
      </trkpt>
      <trkpt lat="44.69077" lon="6.85398">
        <ele>2043.5</ele>
        <time>2026-03-25T12:53:15Z</time>
      </trkpt>
      <trkpt lat="44.69081" lon="6.85396">
        <ele>2042.9</ele>
        <time>2026-03-25T12:53:16Z</time>
      </trkpt>
      <trkpt lat="44.69082" lon="6.85396">
        <ele>2042.7</ele>
        <time>2026-03-25T12:53:17Z</time>
      </trkpt>
      <trkpt lat="44.69085" lon="6.85394">
        <ele>2042.1</ele>
        <time>2026-03-25T12:53:18Z</time>
      </trkpt>
      <trkpt lat="44.69087" lon="6.85394">
        <ele>2041.8</ele>
        <time>2026-03-25T12:53:19Z</time>
      </trkpt>
      <trkpt lat="44.6909" lon="6.85391">
        <ele>2041.1</ele>
        <time>2026-03-25T12:53:20Z</time>
      </trkpt>
      <trkpt lat="44.69091" lon="6.8539">
        <ele>2040.9</ele>
        <time>2026-03-25T12:53:21Z</time>
      </trkpt>
      <trkpt lat="44.69094" lon="6.85387">
        <ele>2040.1</ele>
        <time>2026-03-25T12:53:22Z</time>
      </trkpt>
      <trkpt lat="44.69095" lon="6.85386">
        <ele>2039.8</ele>
        <time>2026-03-25T12:53:23Z</time>
      </trkpt>
      <trkpt lat="44.69097" lon="6.85383">
        <ele>2039.2</ele>
        <time>2026-03-25T12:53:24Z</time>
      </trkpt>
      <trkpt lat="44.69098" lon="6.85381">
        <ele>2039</ele>
        <time>2026-03-25T12:53:25Z</time>
      </trkpt>
      <trkpt lat="44.69095" lon="6.85379">
        <ele>2038.5</ele>
        <time>2026-03-25T12:53:26Z</time>
      </trkpt>
      <trkpt lat="44.69091" lon="6.85377">
        <ele>2037.7</ele>
        <time>2026-03-25T12:53:27Z</time>
      </trkpt>
      <trkpt lat="44.6909" lon="6.85375">
        <ele>2037.3</ele>
        <time>2026-03-25T12:53:28Z</time>
      </trkpt>
      <trkpt lat="44.69091" lon="6.85374">
        <ele>2037.1</ele>
        <time>2026-03-25T12:53:29Z</time>
      </trkpt>
      <trkpt lat="44.69092" lon="6.85374">
        <ele>2036.9</ele>
        <time>2026-03-25T12:53:30Z</time>
      </trkpt>
      <trkpt lat="44.69093" lon="6.85373">
        <ele>2036.7</ele>
        <time>2026-03-25T12:53:31Z</time>
      </trkpt>
      <trkpt lat="44.69093" lon="6.85371">
        <ele>2036.4</ele>
        <time>2026-03-25T12:53:32Z</time>
      </trkpt>
      <trkpt lat="44.69094" lon="6.8537">
        <ele>2036.3</ele>
        <time>2026-03-25T12:53:33Z</time>
      </trkpt>
      <trkpt lat="44.69094" lon="6.85368">
        <ele>2036.1</ele>
        <time>2026-03-25T12:53:34Z</time>
      </trkpt>
      <trkpt lat="44.69094" lon="6.85367">
        <ele>2035.9</ele>
        <time>2026-03-25T12:53:35Z</time>
      </trkpt>
      <trkpt lat="44.69095" lon="6.85365">
        <ele>2035.7</ele>
        <time>2026-03-25T12:53:36Z</time>
      </trkpt>
      <trkpt lat="44.69096" lon="6.85363">
        <ele>2035.4</ele>
        <time>2026-03-25T12:53:37Z</time>
      </trkpt>
      <trkpt lat="44.69097" lon="6.85362">
        <ele>2035.2</ele>
        <time>2026-03-25T12:53:38Z</time>
      </trkpt>
      <trkpt lat="44.69098" lon="6.85361">
        <ele>2035</ele>
        <time>2026-03-25T12:53:39Z</time>
      </trkpt>
      <trkpt lat="44.69099" lon="6.8536">
        <ele>2034.8</ele>
        <time>2026-03-25T12:53:40Z</time>
      </trkpt>
      <trkpt lat="44.691" lon="6.85356">
        <ele>2034.3</ele>
        <time>2026-03-25T12:53:41Z</time>
      </trkpt>
      <trkpt lat="44.69101" lon="6.85354">
        <ele>2034.1</ele>
        <time>2026-03-25T12:53:42Z</time>
      </trkpt>
      <trkpt lat="44.69102" lon="6.85353">
        <ele>2033.9</ele>
        <time>2026-03-25T12:53:43Z</time>
      </trkpt>
      <trkpt lat="44.69104" lon="6.85353">
        <ele>2033.7</ele>
        <time>2026-03-25T12:53:44Z</time>
      </trkpt>
      <trkpt lat="44.69105" lon="6.85352">
        <ele>2033.5</ele>
        <time>2026-03-25T12:53:45Z</time>
      </trkpt>
      <trkpt lat="44.69107" lon="6.85351">
        <ele>2033.2</ele>
        <time>2026-03-25T12:53:46Z</time>
      </trkpt>
      <trkpt lat="44.6911" lon="6.85349">
        <ele>2032.7</ele>
        <time>2026-03-25T12:53:47Z</time>
      </trkpt>
      <trkpt lat="44.6911" lon="6.85348">
        <ele>2032.6</ele>
        <time>2026-03-25T12:53:48Z</time>
      </trkpt>
      <trkpt lat="44.69114" lon="6.85347">
        <ele>2032.1</ele>
        <time>2026-03-25T12:53:49Z</time>
      </trkpt>
      <trkpt lat="44.69117" lon="6.85344">
        <ele>2031.6</ele>
        <time>2026-03-25T12:53:50Z</time>
      </trkpt>
      <trkpt lat="44.6912" lon="6.85341">
        <ele>2031</ele>
        <time>2026-03-25T12:53:51Z</time>
      </trkpt>
      <trkpt lat="44.69121" lon="6.85339">
        <ele>2030.8</ele>
        <time>2026-03-25T12:53:52Z</time>
      </trkpt>
      <trkpt lat="44.69123" lon="6.85336">
        <ele>2030.4</ele>
        <time>2026-03-25T12:53:53Z</time>
      </trkpt>
      <trkpt lat="44.69126" lon="6.85332">
        <ele>2029.7</ele>
        <time>2026-03-25T12:53:54Z</time>
      </trkpt>
      <trkpt lat="44.69129" lon="6.85329">
        <ele>2029.2</ele>
        <time>2026-03-25T12:53:55Z</time>
      </trkpt>
      <trkpt lat="44.69131" lon="6.85327">
        <ele>2028.7</ele>
        <time>2026-03-25T12:53:56Z</time>
      </trkpt>
      <trkpt lat="44.69136" lon="6.8532">
        <ele>2027.7</ele>
        <time>2026-03-25T12:53:57Z</time>
      </trkpt>
      <trkpt lat="44.69141" lon="6.85317">
        <ele>2027</ele>
        <time>2026-03-25T12:53:58Z</time>
      </trkpt>
      <trkpt lat="44.69145" lon="6.85313">
        <ele>2026.1</ele>
        <time>2026-03-25T12:53:59Z</time>
      </trkpt>
      <trkpt lat="44.69149" lon="6.8531">
        <ele>2025.4</ele>
        <time>2026-03-25T12:54:00Z</time>
      </trkpt>
      <trkpt lat="44.69152" lon="6.85304">
        <ele>2024.4</ele>
        <time>2026-03-25T12:54:01Z</time>
      </trkpt>
      <trkpt lat="44.69156" lon="6.85301">
        <ele>2023.6</ele>
        <time>2026-03-25T12:54:02Z</time>
      </trkpt>
      <trkpt lat="44.6916" lon="6.85296">
        <ele>2022.7</ele>
        <time>2026-03-25T12:54:03Z</time>
      </trkpt>
      <trkpt lat="44.69164" lon="6.85293">
        <ele>2021.9</ele>
        <time>2026-03-25T12:54:04Z</time>
      </trkpt>
      <trkpt lat="44.69165" lon="6.85288">
        <ele>2021.2</ele>
        <time>2026-03-25T12:54:05Z</time>
      </trkpt>
      <trkpt lat="44.69165" lon="6.85287">
        <ele>2021.1</ele>
        <time>2026-03-25T12:54:06Z</time>
      </trkpt>
      <trkpt lat="44.69165" lon="6.85285">
        <ele>2020.8</ele>
        <time>2026-03-25T12:54:07Z</time>
      </trkpt>
      <trkpt lat="44.69166" lon="6.85282">
        <ele>2020.5</ele>
        <time>2026-03-25T12:54:08Z</time>
      </trkpt>
      <trkpt lat="44.69168" lon="6.85279">
        <ele>2020.1</ele>
        <time>2026-03-25T12:54:09Z</time>
      </trkpt>
      <trkpt lat="44.69171" lon="6.85277">
        <ele>2019.5</ele>
        <time>2026-03-25T12:54:10Z</time>
      </trkpt>
      <trkpt lat="44.69173" lon="6.85276">
        <ele>2019.3</ele>
        <time>2026-03-25T12:54:11Z</time>
      </trkpt>
      <trkpt lat="44.69175" lon="6.85275">
        <ele>2018.8</ele>
        <time>2026-03-25T12:54:12Z</time>
      </trkpt>
      <trkpt lat="44.69178" lon="6.85274">
        <ele>2018.4</ele>
        <time>2026-03-25T12:54:13Z</time>
      </trkpt>
      <trkpt lat="44.69182" lon="6.85273">
        <ele>2017.8</ele>
        <time>2026-03-25T12:54:14Z</time>
      </trkpt>
      <trkpt lat="44.69183" lon="6.85272">
        <ele>2017.6</ele>
        <time>2026-03-25T12:54:15Z</time>
      </trkpt>
      <trkpt lat="44.69186" lon="6.85269">
        <ele>2017</ele>
        <time>2026-03-25T12:54:16Z</time>
      </trkpt>
      <trkpt lat="44.69191" lon="6.85265">
        <ele>2016.1</ele>
        <time>2026-03-25T12:54:17Z</time>
      </trkpt>
      <trkpt lat="44.69196" lon="6.85261">
        <ele>2015.4</ele>
        <time>2026-03-25T12:54:18Z</time>
      </trkpt>
      <trkpt lat="44.692" lon="6.85258">
        <ele>2014.6</ele>
        <time>2026-03-25T12:54:19Z</time>
      </trkpt>
      <trkpt lat="44.69206" lon="6.85257">
        <ele>2013.7</ele>
        <time>2026-03-25T12:54:20Z</time>
      </trkpt>
      <trkpt lat="44.69211" lon="6.85257">
        <ele>2012.8</ele>
        <time>2026-03-25T12:54:21Z</time>
      </trkpt>
      <trkpt lat="44.69214" lon="6.85255">
        <ele>2012.3</ele>
        <time>2026-03-25T12:54:22Z</time>
      </trkpt>
      <trkpt lat="44.69214" lon="6.85254">
        <ele>2012.1</ele>
        <time>2026-03-25T12:54:23Z</time>
      </trkpt>
      <trkpt lat="44.69215" lon="6.85253">
        <ele>2011.9</ele>
        <time>2026-03-25T12:54:24Z</time>
      </trkpt>
      <trkpt lat="44.69216" lon="6.85253">
        <ele>2011.8</ele>
        <time>2026-03-25T12:54:25Z</time>
      </trkpt>
      <trkpt lat="44.69217" lon="6.85253">
        <ele>2011.6</ele>
        <time>2026-03-25T12:54:26Z</time>
      </trkpt>
      <trkpt lat="44.69217" lon="6.85252">
        <ele>2011.4</ele>
        <time>2026-03-25T12:54:27Z</time>
      </trkpt>
      <trkpt lat="44.69218" lon="6.8525">
        <ele>2011.1</ele>
        <time>2026-03-25T12:54:28Z</time>
      </trkpt>
      <trkpt lat="44.69223" lon="6.85246">
        <ele>2010.1</ele>
        <time>2026-03-25T12:54:29Z</time>
      </trkpt>
      <trkpt lat="44.69228" lon="6.85244">
        <ele>2009.1</ele>
        <time>2026-03-25T12:54:30Z</time>
      </trkpt>
      <trkpt lat="44.69232" lon="6.8524">
        <ele>2008</ele>
        <time>2026-03-25T12:54:31Z</time>
      </trkpt>
      <trkpt lat="44.69236" lon="6.85237">
        <ele>2007.1</ele>
        <time>2026-03-25T12:54:32Z</time>
      </trkpt>
      <trkpt lat="44.6924" lon="6.85234">
        <ele>2006.2</ele>
        <time>2026-03-25T12:54:33Z</time>
      </trkpt>
      <trkpt lat="44.69243" lon="6.85233">
        <ele>2005.5</ele>
        <time>2026-03-25T12:54:34Z</time>
      </trkpt>
      <trkpt lat="44.69244" lon="6.85227">
        <ele>2004.7</ele>
        <time>2026-03-25T12:54:35Z</time>
      </trkpt>
      <trkpt lat="44.69243" lon="6.85222">
        <ele>2003.8</ele>
        <time>2026-03-25T12:54:36Z</time>
      </trkpt>
      <trkpt lat="44.69242" lon="6.85216">
        <ele>2003.1</ele>
        <time>2026-03-25T12:54:37Z</time>
      </trkpt>
      <trkpt lat="44.69241" lon="6.85213">
        <ele>2002.6</ele>
        <time>2026-03-25T12:54:38Z</time>
      </trkpt>
      <trkpt lat="44.69242" lon="6.85207">
        <ele>2002</ele>
        <time>2026-03-25T12:54:39Z</time>
      </trkpt>
      <trkpt lat="44.69243" lon="6.85202">
        <ele>2001.3</ele>
        <time>2026-03-25T12:54:40Z</time>
      </trkpt>
      <trkpt lat="44.69246" lon="6.85199">
        <ele>2000.7</ele>
        <time>2026-03-25T12:54:41Z</time>
      </trkpt>
      <trkpt lat="44.69249" lon="6.85197">
        <ele>2000.2</ele>
        <time>2026-03-25T12:54:42Z</time>
      </trkpt>
      <trkpt lat="44.69253" lon="6.85197">
        <ele>1999.6</ele>
        <time>2026-03-25T12:54:43Z</time>
      </trkpt>
      <trkpt lat="44.69256" lon="6.85196">
        <ele>1999.1</ele>
        <time>2026-03-25T12:54:44Z</time>
      </trkpt>
      <trkpt lat="44.69258" lon="6.85193">
        <ele>1998.5</ele>
        <time>2026-03-25T12:54:45Z</time>
      </trkpt>
      <trkpt lat="44.69262" lon="6.8519">
        <ele>1997.8</ele>
        <time>2026-03-25T12:54:46Z</time>
      </trkpt>
      <trkpt lat="44.69265" lon="6.85188">
        <ele>1997</ele>
        <time>2026-03-25T12:54:47Z</time>
      </trkpt>
      <trkpt lat="44.69268" lon="6.85186">
        <ele>1996.4</ele>
        <time>2026-03-25T12:54:48Z</time>
      </trkpt>
      <trkpt lat="44.69271" lon="6.85185">
        <ele>1995.7</ele>
        <time>2026-03-25T12:54:49Z</time>
      </trkpt>
      <trkpt lat="44.69276" lon="6.85183">
        <ele>1994.7</ele>
        <time>2026-03-25T12:54:50Z</time>
      </trkpt>
      <trkpt lat="44.6928" lon="6.85182">
        <ele>1993.9</ele>
        <time>2026-03-25T12:54:51Z</time>
      </trkpt>
      <trkpt lat="44.69283" lon="6.85179">
        <ele>1993.2</ele>
        <time>2026-03-25T12:54:52Z</time>
      </trkpt>
      <trkpt lat="44.69289" lon="6.85179">
        <ele>1992.2</ele>
        <time>2026-03-25T12:54:53Z</time>
      </trkpt>
      <trkpt lat="44.69293" lon="6.85175">
        <ele>1991.3</ele>
        <time>2026-03-25T12:54:54Z</time>
      </trkpt>
      <trkpt lat="44.69297" lon="6.85175">
        <ele>1990.4</ele>
        <time>2026-03-25T12:54:55Z</time>
      </trkpt>
      <trkpt lat="44.69302" lon="6.85171">
        <ele>1989.4</ele>
        <time>2026-03-25T12:54:56Z</time>
      </trkpt>
      <trkpt lat="44.69308" lon="6.8517">
        <ele>1988.2</ele>
        <time>2026-03-25T12:54:57Z</time>
      </trkpt>
      <trkpt lat="44.69312" lon="6.85168">
        <ele>1987.1</ele>
        <time>2026-03-25T12:54:58Z</time>
      </trkpt>
      <trkpt lat="44.69316" lon="6.85166">
        <ele>1986.3</ele>
        <time>2026-03-25T12:54:59Z</time>
      </trkpt>
      <trkpt lat="44.6932" lon="6.85164">
        <ele>1985.4</ele>
        <time>2026-03-25T12:55:00Z</time>
      </trkpt>
      <trkpt lat="44.69323" lon="6.85163">
        <ele>1984.7</ele>
        <time>2026-03-25T12:55:01Z</time>
      </trkpt>
      <trkpt lat="44.69324" lon="6.85163">
        <ele>1984.5</ele>
        <time>2026-03-25T12:55:02Z</time>
      </trkpt>
      <trkpt lat="44.69326" lon="6.85162">
        <ele>1984.1</ele>
        <time>2026-03-25T12:55:03Z</time>
      </trkpt>
      <trkpt lat="44.69328" lon="6.85162">
        <ele>1983.8</ele>
        <time>2026-03-25T12:55:04Z</time>
      </trkpt>
      <trkpt lat="44.69329" lon="6.85161">
        <ele>1983.5</ele>
        <time>2026-03-25T12:55:05Z</time>
      </trkpt>
      <trkpt lat="44.69332" lon="6.8516">
        <ele>1982.9</ele>
        <time>2026-03-25T12:55:06Z</time>
      </trkpt>
      <trkpt lat="44.69337" lon="6.85161">
        <ele>1981.9</ele>
        <time>2026-03-25T12:55:07Z</time>
      </trkpt>
      <trkpt lat="44.69342" lon="6.85161">
        <ele>1980.8</ele>
        <time>2026-03-25T12:55:08Z</time>
      </trkpt>
      <trkpt lat="44.69346" lon="6.85161">
        <ele>1979.8</ele>
        <time>2026-03-25T12:55:09Z</time>
      </trkpt>
      <trkpt lat="44.69351" lon="6.85156">
        <ele>1978.5</ele>
        <time>2026-03-25T12:55:10Z</time>
      </trkpt>
      <trkpt lat="44.69354" lon="6.85153">
        <ele>1977.6</ele>
        <time>2026-03-25T12:55:11Z</time>
      </trkpt>
      <trkpt lat="44.6936" lon="6.85157">
        <ele>1976.3</ele>
        <time>2026-03-25T12:55:12Z</time>
      </trkpt>
      <trkpt lat="44.69365" lon="6.85156">
        <ele>1975.2</ele>
        <time>2026-03-25T12:55:13Z</time>
      </trkpt>
      <trkpt lat="44.6937" lon="6.85153">
        <ele>1974</ele>
        <time>2026-03-25T12:55:14Z</time>
      </trkpt>
      <trkpt lat="44.69376" lon="6.85154">
        <ele>1973</ele>
        <time>2026-03-25T12:55:15Z</time>
      </trkpt>
      <trkpt lat="44.6938" lon="6.85156">
        <ele>1972.1</ele>
        <time>2026-03-25T12:55:16Z</time>
      </trkpt>
      <trkpt lat="44.69384" lon="6.85153">
        <ele>1971.2</ele>
        <time>2026-03-25T12:55:17Z</time>
      </trkpt>
      <trkpt lat="44.69389" lon="6.85152">
        <ele>1970.2</ele>
        <time>2026-03-25T12:55:18Z</time>
      </trkpt>
      <trkpt lat="44.69392" lon="6.85154">
        <ele>1969.5</ele>
        <time>2026-03-25T12:55:19Z</time>
      </trkpt>
      <trkpt lat="44.69397" lon="6.85153">
        <ele>1968.5</ele>
        <time>2026-03-25T12:55:20Z</time>
      </trkpt>
      <trkpt lat="44.69401" lon="6.85155">
        <ele>1967.7</ele>
        <time>2026-03-25T12:55:21Z</time>
      </trkpt>
      <trkpt lat="44.69405" lon="6.85154">
        <ele>1966.8</ele>
        <time>2026-03-25T12:55:22Z</time>
      </trkpt>
      <trkpt lat="44.6941" lon="6.85153">
        <ele>1965.9</ele>
        <time>2026-03-25T12:55:23Z</time>
      </trkpt>
      <trkpt lat="44.69413" lon="6.85157">
        <ele>1965</ele>
        <time>2026-03-25T12:55:24Z</time>
      </trkpt>
      <trkpt lat="44.69417" lon="6.85161">
        <ele>1964.1</ele>
        <time>2026-03-25T12:55:25Z</time>
      </trkpt>
      <trkpt lat="44.69422" lon="6.8516">
        <ele>1963.2</ele>
        <time>2026-03-25T12:55:26Z</time>
      </trkpt>
      <trkpt lat="44.69427" lon="6.85158">
        <ele>1962.3</ele>
        <time>2026-03-25T12:55:27Z</time>
      </trkpt>
      <trkpt lat="44.69431" lon="6.85159">
        <ele>1961.5</ele>
        <time>2026-03-25T12:55:28Z</time>
      </trkpt>
      <trkpt lat="44.69434" lon="6.85164">
        <ele>1960.7</ele>
        <time>2026-03-25T12:55:29Z</time>
      </trkpt>
      <trkpt lat="44.69439" lon="6.85166">
        <ele>1959.9</ele>
        <time>2026-03-25T12:55:30Z</time>
      </trkpt>
      <trkpt lat="44.69443" lon="6.85165">
        <ele>1959.1</ele>
        <time>2026-03-25T12:55:31Z</time>
      </trkpt>
      <trkpt lat="44.69447" lon="6.85165">
        <ele>1958.4</ele>
        <time>2026-03-25T12:55:32Z</time>
      </trkpt>
      <trkpt lat="44.69451" lon="6.85169">
        <ele>1957.5</ele>
        <time>2026-03-25T12:55:33Z</time>
      </trkpt>
      <trkpt lat="44.69455" lon="6.85169">
        <ele>1956.8</ele>
        <time>2026-03-25T12:55:34Z</time>
      </trkpt>
      <trkpt lat="44.69459" lon="6.85167">
        <ele>1955.9</ele>
        <time>2026-03-25T12:55:35Z</time>
      </trkpt>
      <trkpt lat="44.69463" lon="6.85168">
        <ele>1955.2</ele>
        <time>2026-03-25T12:55:36Z</time>
      </trkpt>
      <trkpt lat="44.69468" lon="6.85171">
        <ele>1954.3</ele>
        <time>2026-03-25T12:55:37Z</time>
      </trkpt>
      <trkpt lat="44.69472" lon="6.85171">
        <ele>1953.5</ele>
        <time>2026-03-25T12:55:38Z</time>
      </trkpt>
      <trkpt lat="44.69476" lon="6.85173">
        <ele>1952.8</ele>
        <time>2026-03-25T12:55:39Z</time>
      </trkpt>
      <trkpt lat="44.6948" lon="6.85176">
        <ele>1952</ele>
        <time>2026-03-25T12:55:40Z</time>
      </trkpt>
      <trkpt lat="44.69483" lon="6.85179">
        <ele>1951.4</ele>
        <time>2026-03-25T12:55:41Z</time>
      </trkpt>
      <trkpt lat="44.69487" lon="6.85179">
        <ele>1950.7</ele>
        <time>2026-03-25T12:55:42Z</time>
      </trkpt>
      <trkpt lat="44.6949" lon="6.85182">
        <ele>1950</ele>
        <time>2026-03-25T12:55:43Z</time>
      </trkpt>
      <trkpt lat="44.69493" lon="6.85186">
        <ele>1949.2</ele>
        <time>2026-03-25T12:55:44Z</time>
      </trkpt>
      <trkpt lat="44.69497" lon="6.8519">
        <ele>1948.4</ele>
        <time>2026-03-25T12:55:45Z</time>
      </trkpt>
      <trkpt lat="44.69502" lon="6.85193">
        <ele>1947.4</ele>
        <time>2026-03-25T12:55:46Z</time>
      </trkpt>
      <trkpt lat="44.69506" lon="6.85194">
        <ele>1946.5</ele>
        <time>2026-03-25T12:55:47Z</time>
      </trkpt>
      <trkpt lat="44.6951" lon="6.85193">
        <ele>1945.8</ele>
        <time>2026-03-25T12:55:48Z</time>
      </trkpt>
      <trkpt lat="44.69515" lon="6.85195">
        <ele>1944.8</ele>
        <time>2026-03-25T12:55:49Z</time>
      </trkpt>
      <trkpt lat="44.6952" lon="6.85198">
        <ele>1943.7</ele>
        <time>2026-03-25T12:55:50Z</time>
      </trkpt>
      <trkpt lat="44.69524" lon="6.85197">
        <ele>1943</ele>
        <time>2026-03-25T12:55:51Z</time>
      </trkpt>
      <trkpt lat="44.69528" lon="6.85198">
        <ele>1942.2</ele>
        <time>2026-03-25T12:55:52Z</time>
      </trkpt>
      <trkpt lat="44.69532" lon="6.852">
        <ele>1941.5</ele>
        <time>2026-03-25T12:55:53Z</time>
      </trkpt>
      <trkpt lat="44.69535" lon="6.85202">
        <ele>1940.8</ele>
        <time>2026-03-25T12:55:54Z</time>
      </trkpt>
      <trkpt lat="44.6954" lon="6.85205">
        <ele>1940</ele>
        <time>2026-03-25T12:55:55Z</time>
      </trkpt>
      <trkpt lat="44.69543" lon="6.85209">
        <ele>1939.3</ele>
        <time>2026-03-25T12:55:56Z</time>
      </trkpt>
      <trkpt lat="44.69548" lon="6.85212">
        <ele>1938.3</ele>
        <time>2026-03-25T12:55:57Z</time>
      </trkpt>
      <trkpt lat="44.69553" lon="6.85215">
        <ele>1937.3</ele>
        <time>2026-03-25T12:55:58Z</time>
      </trkpt>
      <trkpt lat="44.69557" lon="6.8522">
        <ele>1936.4</ele>
        <time>2026-03-25T12:55:59Z</time>
      </trkpt>
      <trkpt lat="44.69563" lon="6.85221">
        <ele>1935.5</ele>
        <time>2026-03-25T12:56:00Z</time>
      </trkpt>
      <trkpt lat="44.69568" lon="6.85224">
        <ele>1934.6</ele>
        <time>2026-03-25T12:56:01Z</time>
      </trkpt>
      <trkpt lat="44.69573" lon="6.8523">
        <ele>1933.6</ele>
        <time>2026-03-25T12:56:02Z</time>
      </trkpt>
      <trkpt lat="44.69578" lon="6.85235">
        <ele>1932.6</ele>
        <time>2026-03-25T12:56:03Z</time>
      </trkpt>
      <trkpt lat="44.69584" lon="6.85238">
        <ele>1931.6</ele>
        <time>2026-03-25T12:56:04Z</time>
      </trkpt>
      <trkpt lat="44.69589" lon="6.85242">
        <ele>1930.5</ele>
        <time>2026-03-25T12:56:05Z</time>
      </trkpt>
      <trkpt lat="44.69594" lon="6.85246">
        <ele>1929.6</ele>
        <time>2026-03-25T12:56:06Z</time>
      </trkpt>
      <trkpt lat="44.696" lon="6.85251">
        <ele>1928.6</ele>
        <time>2026-03-25T12:56:07Z</time>
      </trkpt>
      <trkpt lat="44.69604" lon="6.85256">
        <ele>1927.7</ele>
        <time>2026-03-25T12:56:08Z</time>
      </trkpt>
      <trkpt lat="44.69609" lon="6.8526">
        <ele>1926.8</ele>
        <time>2026-03-25T12:56:09Z</time>
      </trkpt>
      <trkpt lat="44.69613" lon="6.85266">
        <ele>1925.9</ele>
        <time>2026-03-25T12:56:10Z</time>
      </trkpt>
      <trkpt lat="44.69618" lon="6.85271">
        <ele>1924.9</ele>
        <time>2026-03-25T12:56:11Z</time>
      </trkpt>
      <trkpt lat="44.69624" lon="6.85274">
        <ele>1924</ele>
        <time>2026-03-25T12:56:12Z</time>
      </trkpt>
      <trkpt lat="44.69627" lon="6.8528">
        <ele>1923.2</ele>
        <time>2026-03-25T12:56:13Z</time>
      </trkpt>
      <trkpt lat="44.6963" lon="6.85286">
        <ele>1922.4</ele>
        <time>2026-03-25T12:56:14Z</time>
      </trkpt>
      <trkpt lat="44.69634" lon="6.85289">
        <ele>1921.5</ele>
        <time>2026-03-25T12:56:15Z</time>
      </trkpt>
      <trkpt lat="44.69639" lon="6.85292">
        <ele>1920.8</ele>
        <time>2026-03-25T12:56:16Z</time>
      </trkpt>
      <trkpt lat="44.69644" lon="6.85297">
        <ele>1920</ele>
        <time>2026-03-25T12:56:17Z</time>
      </trkpt>
      <trkpt lat="44.69647" lon="6.85301">
        <ele>1919.5</ele>
        <time>2026-03-25T12:56:18Z</time>
      </trkpt>
      <trkpt lat="44.69651" lon="6.85301">
        <ele>1918.9</ele>
        <time>2026-03-25T12:56:19Z</time>
      </trkpt>
      <trkpt lat="44.69653" lon="6.853">
        <ele>1918.7</ele>
        <time>2026-03-25T12:56:20Z</time>
      </trkpt>
      <trkpt lat="44.69655" lon="6.85301">
        <ele>1918.5</ele>
        <time>2026-03-25T12:56:21Z</time>
      </trkpt>
      <trkpt lat="44.69655" lon="6.85302">
        <ele>1918.4</ele>
        <time>2026-03-25T12:56:22Z</time>
      </trkpt>
      <trkpt lat="44.69656" lon="6.85303">
        <ele>1918.4</ele>
        <time>2026-03-25T12:56:23Z</time>
      </trkpt>
      <trkpt lat="44.69656" lon="6.85303">
        <ele>1918.3</ele>
        <time>2026-03-25T12:56:24Z</time>
      </trkpt>
      <trkpt lat="44.69657" lon="6.85303">
        <ele>1918.3</ele>
        <time>2026-03-25T12:56:25Z</time>
      </trkpt>
      <trkpt lat="44.69657" lon="6.85303">
        <ele>1918.2</ele>
        <time>2026-03-25T12:56:26Z</time>
      </trkpt>
      <trkpt lat="44.69657" lon="6.85303">
        <ele>1918.2</ele>
        <time>2026-03-25T12:56:27Z</time>
      </trkpt>
      <trkpt lat="44.69657" lon="6.85303">
        <ele>1918.2</ele>
        <time>2026-03-25T12:56:28Z</time>
      </trkpt>
      <trkpt lat="44.69657" lon="6.85303">
        <ele>1918.2</ele>
        <time>2026-03-25T12:56:29Z</time>
      </trkpt>
      <trkpt lat="44.69657" lon="6.85304">
        <ele>1918.1</ele>
        <time>2026-03-25T12:56:30Z</time>
      </trkpt>
      <trkpt lat="44.69657" lon="6.85304">
        <ele>1918.1</ele>
        <time>2026-03-25T12:56:31Z</time>
      </trkpt>
      <trkpt lat="44.69657" lon="6.85304">
        <ele>1918.1</ele>
        <time>2026-03-25T12:56:32Z</time>
      </trkpt>
      <trkpt lat="44.69657" lon="6.85304">
        <ele>1918.1</ele>
        <time>2026-03-25T12:56:33Z</time>
      </trkpt>
      <trkpt lat="44.69657" lon="6.85304">
        <ele>1918.1</ele>
        <time>2026-03-25T12:56:34Z</time>
      </trkpt>
      <trkpt lat="44.69657" lon="6.85304">
        <ele>1918.1</ele>
        <time>2026-03-25T12:56:35Z</time>
      </trkpt>
      <trkpt lat="44.69657" lon="6.85304">
        <ele>1918.1</ele>
        <time>2026-03-25T12:56:36Z</time>
      </trkpt>
      <trkpt lat="44.69657" lon="6.85304">
        <ele>1918.1</ele>
        <time>2026-03-25T12:56:37Z</time>
      </trkpt>
      <trkpt lat="44.69657" lon="6.85304">
        <ele>1918.1</ele>
        <time>2026-03-25T12:56:38Z</time>
      </trkpt>
      <trkpt lat="44.69657" lon="6.85304">
        <ele>1918.1</ele>
        <time>2026-03-25T12:56:39Z</time>
      </trkpt>
      <trkpt lat="44.69657" lon="6.85304">
        <ele>1918</ele>
        <time>2026-03-25T12:56:40Z</time>
      </trkpt>
      <trkpt lat="44.69657" lon="6.85304">
        <ele>1918</ele>
        <time>2026-03-25T12:56:41Z</time>
      </trkpt>
      <trkpt lat="44.69657" lon="6.85304">
        <ele>1918</ele>
        <time>2026-03-25T12:56:42Z</time>
      </trkpt>
      <trkpt lat="44.69657" lon="6.85305">
        <ele>1918</ele>
        <time>2026-03-25T12:56:43Z</time>
      </trkpt>
      <trkpt lat="44.69657" lon="6.85305">
        <ele>1918</ele>
        <time>2026-03-25T12:56:44Z</time>
      </trkpt>
      <trkpt lat="44.69657" lon="6.85305">
        <ele>1918</ele>
        <time>2026-03-25T12:56:45Z</time>
      </trkpt>
      <trkpt lat="44.69657" lon="6.85305">
        <ele>1918</ele>
        <time>2026-03-25T12:56:46Z</time>
      </trkpt>
      <trkpt lat="44.69657" lon="6.85305">
        <ele>1918</ele>
        <time>2026-03-25T12:56:47Z</time>
      </trkpt>
      <trkpt lat="44.69657" lon="6.85305">
        <ele>1918</ele>
        <time>2026-03-25T12:56:48Z</time>
      </trkpt>
      <trkpt lat="44.69657" lon="6.85305">
        <ele>1918</ele>
        <time>2026-03-25T12:56:49Z</time>
      </trkpt>
      <trkpt lat="44.69657" lon="6.85305">
        <ele>1918</ele>
        <time>2026-03-25T12:56:50Z</time>
      </trkpt>
      <trkpt lat="44.69657" lon="6.85305">
        <ele>1918</ele>
        <time>2026-03-25T12:56:51Z</time>
      </trkpt>
      <trkpt lat="44.69657" lon="6.85305">
        <ele>1918</ele>
        <time>2026-03-25T12:56:52Z</time>
      </trkpt>
      <trkpt lat="44.69657" lon="6.85305">
        <ele>1918</ele>
        <time>2026-03-25T12:56:53Z</time>
      </trkpt>
      <trkpt lat="44.69657" lon="6.85305">
        <ele>1918</ele>
        <time>2026-03-25T12:56:54Z</time>
      </trkpt>
      <trkpt lat="44.69657" lon="6.85305">
        <ele>1918</ele>
        <time>2026-03-25T12:56:55Z</time>
      </trkpt>
      <trkpt lat="44.69657" lon="6.85305">
        <ele>1918</ele>
        <time>2026-03-25T12:56:56Z</time>
      </trkpt>
      <trkpt lat="44.69657" lon="6.85305">
        <ele>1918</ele>
        <time>2026-03-25T12:56:57Z</time>
      </trkpt>
      <trkpt lat="44.69657" lon="6.85305">
        <ele>1918</ele>
        <time>2026-03-25T12:56:58Z</time>
      </trkpt>
      <trkpt lat="44.69657" lon="6.85305">
        <ele>1918</ele>
        <time>2026-03-25T12:56:59Z</time>
      </trkpt>
      <trkpt lat="44.69657" lon="6.85305">
        <ele>1918</ele>
        <time>2026-03-25T12:57:00Z</time>
      </trkpt>
      <trkpt lat="44.69657" lon="6.85305">
        <ele>1918</ele>
        <time>2026-03-25T12:57:01Z</time>
      </trkpt>
      <trkpt lat="44.69657" lon="6.85305">
        <ele>1918</ele>
        <time>2026-03-25T12:57:02Z</time>
      </trkpt>
      <trkpt lat="44.69657" lon="6.85305">
        <ele>1918</ele>
        <time>2026-03-25T12:57:03Z</time>
      </trkpt>
      <trkpt lat="44.69657" lon="6.85305">
        <ele>1918</ele>
        <time>2026-03-25T12:57:04Z</time>
      </trkpt>
      <trkpt lat="44.69657" lon="6.85305">
        <ele>1918</ele>
        <time>2026-03-25T12:57:05Z</time>
      </trkpt>
      <trkpt lat="44.69657" lon="6.85305">
        <ele>1918</ele>
        <time>2026-03-25T12:57:06Z</time>
      </trkpt>
      <trkpt lat="44.69657" lon="6.85305">
        <ele>1918</ele>
        <time>2026-03-25T12:57:07Z</time>
      </trkpt>
      <trkpt lat="44.69657" lon="6.85305">
        <ele>1918</ele>
        <time>2026-03-25T12:57:08Z</time>
      </trkpt>
      <trkpt lat="44.69657" lon="6.85305">
        <ele>1918</ele>
        <time>2026-03-25T12:57:09Z</time>
      </trkpt>
      <trkpt lat="44.69657" lon="6.85305">
        <ele>1918</ele>
        <time>2026-03-25T12:57:10Z</time>
      </trkpt>
      <trkpt lat="44.69657" lon="6.85305">
        <ele>1918</ele>
        <time>2026-03-25T12:57:11Z</time>
      </trkpt>
      <trkpt lat="44.69657" lon="6.85305">
        <ele>1918</ele>
        <time>2026-03-25T12:57:12Z</time>
      </trkpt>
      <trkpt lat="44.69657" lon="6.85305">
        <ele>1918</ele>
        <time>2026-03-25T12:57:13Z</time>
      </trkpt>
      <trkpt lat="44.69657" lon="6.85305">
        <ele>1918</ele>
        <time>2026-03-25T12:57:14Z</time>
      </trkpt>
      <trkpt lat="44.69657" lon="6.85305">
        <ele>1918</ele>
        <time>2026-03-25T12:57:15Z</time>
      </trkpt>
      <trkpt lat="44.69657" lon="6.85305">
        <ele>1918</ele>
        <time>2026-03-25T12:57:16Z</time>
      </trkpt>
      <trkpt lat="44.69657" lon="6.85305">
        <ele>1918</ele>
        <time>2026-03-25T12:57:17Z</time>
      </trkpt>
      <trkpt lat="44.69657" lon="6.85305">
        <ele>1918</ele>
        <time>2026-03-25T12:57:18Z</time>
      </trkpt>
      <trkpt lat="44.69657" lon="6.85305">
        <ele>1918</ele>
        <time>2026-03-25T12:57:19Z</time>
      </trkpt>
      <trkpt lat="44.69657" lon="6.85305">
        <ele>1918</ele>
        <time>2026-03-25T12:57:20Z</time>
      </trkpt>
      <trkpt lat="44.69657" lon="6.85305">
        <ele>1918</ele>
        <time>2026-03-25T12:57:21Z</time>
      </trkpt>
      <trkpt lat="44.69657" lon="6.85305">
        <ele>1918</ele>
        <time>2026-03-25T12:57:22Z</time>
      </trkpt>
      <trkpt lat="44.69657" lon="6.85305">
        <ele>1918</ele>
        <time>2026-03-25T12:57:23Z</time>
      </trkpt>
      <trkpt lat="44.69657" lon="6.85305">
        <ele>1918</ele>
        <time>2026-03-25T12:57:24Z</time>
      </trkpt>
      <trkpt lat="44.69657" lon="6.85305">
        <ele>1918</ele>
        <time>2026-03-25T12:57:25Z</time>
      </trkpt>
      <trkpt lat="44.69657" lon="6.85305">
        <ele>1918</ele>
        <time>2026-03-25T12:57:26Z</time>
      </trkpt>
      <trkpt lat="44.69657" lon="6.85305">
        <ele>1918</ele>
        <time>2026-03-25T12:57:27Z</time>
      </trkpt>
      <trkpt lat="44.69657" lon="6.85305">
        <ele>1918</ele>
        <time>2026-03-25T12:57:28Z</time>
      </trkpt>
      <trkpt lat="44.69657" lon="6.85305">
        <ele>1918</ele>
        <time>2026-03-25T12:57:29Z</time>
      </trkpt>
      <trkpt lat="44.69657" lon="6.85305">
        <ele>1918</ele>
        <time>2026-03-25T12:57:30Z</time>
      </trkpt>
      <trkpt lat="44.69657" lon="6.85305">
        <ele>1918</ele>
        <time>2026-03-25T12:57:31Z</time>
      </trkpt>
      <trkpt lat="44.69657" lon="6.85305">
        <ele>1918</ele>
        <time>2026-03-25T12:57:32Z</time>
      </trkpt>
      <trkpt lat="44.69657" lon="6.85305">
        <ele>1918</ele>
        <time>2026-03-25T12:57:33Z</time>
      </trkpt>
      <trkpt lat="44.69657" lon="6.85305">
        <ele>1918</ele>
        <time>2026-03-25T12:57:34Z</time>
      </trkpt>
      <trkpt lat="44.69657" lon="6.85305">
        <ele>1918</ele>
        <time>2026-03-25T12:57:35Z</time>
      </trkpt>
      <trkpt lat="44.69657" lon="6.85305">
        <ele>1918</ele>
        <time>2026-03-25T12:57:36Z</time>
      </trkpt>
      <trkpt lat="44.69657" lon="6.85305">
        <ele>1918</ele>
        <time>2026-03-25T12:57:37Z</time>
      </trkpt>
      <trkpt lat="44.69657" lon="6.85305">
        <ele>1918</ele>
        <time>2026-03-25T12:57:38Z</time>
      </trkpt>
      <trkpt lat="44.69657" lon="6.85305">
        <ele>1918</ele>
        <time>2026-03-25T12:57:39Z</time>
      </trkpt>
      <trkpt lat="44.69657" lon="6.85305">
        <ele>1918</ele>
        <time>2026-03-25T12:57:40Z</time>
      </trkpt>
      <trkpt lat="44.69657" lon="6.85305">
        <ele>1918</ele>
        <time>2026-03-25T12:57:41Z</time>
      </trkpt>
      <trkpt lat="44.69657" lon="6.85305">
        <ele>1917.9</ele>
        <time>2026-03-25T12:57:42Z</time>
      </trkpt>
      <trkpt lat="44.69657" lon="6.85305">
        <ele>1917.9</ele>
        <time>2026-03-25T12:57:43Z</time>
      </trkpt>
      <trkpt lat="44.69657" lon="6.85305">
        <ele>1917.9</ele>
        <time>2026-03-25T12:57:44Z</time>
      </trkpt>
      <trkpt lat="44.69657" lon="6.85305">
        <ele>1917.9</ele>
        <time>2026-03-25T12:57:45Z</time>
      </trkpt>
      <trkpt lat="44.69657" lon="6.85305">
        <ele>1917.9</ele>
        <time>2026-03-25T12:57:46Z</time>
      </trkpt>
      <trkpt lat="44.69657" lon="6.85305">
        <ele>1917.9</ele>
        <time>2026-03-25T12:57:47Z</time>
      </trkpt>
      <trkpt lat="44.69657" lon="6.85305">
        <ele>1917.9</ele>
        <time>2026-03-25T12:57:48Z</time>
      </trkpt>
      <trkpt lat="44.69657" lon="6.85304">
        <ele>1917.8</ele>
        <time>2026-03-25T12:57:49Z</time>
      </trkpt>
      <trkpt lat="44.69657" lon="6.85304">
        <ele>1917.8</ele>
        <time>2026-03-25T12:57:50Z</time>
      </trkpt>
      <trkpt lat="44.69657" lon="6.85304">
        <ele>1917.8</ele>
        <time>2026-03-25T12:57:51Z</time>
      </trkpt>
      <trkpt lat="44.69657" lon="6.85305">
        <ele>1917.8</ele>
        <time>2026-03-25T12:57:52Z</time>
      </trkpt>
      <trkpt lat="44.69657" lon="6.85305">
        <ele>1917.8</ele>
        <time>2026-03-25T12:57:53Z</time>
      </trkpt>
      <trkpt lat="44.69657" lon="6.85305">
        <ele>1917.8</ele>
        <time>2026-03-25T12:57:54Z</time>
      </trkpt>
      <trkpt lat="44.69657" lon="6.85305">
        <ele>1917.8</ele>
        <time>2026-03-25T12:57:55Z</time>
      </trkpt>
      <trkpt lat="44.69657" lon="6.85305">
        <ele>1917.8</ele>
        <time>2026-03-25T12:57:56Z</time>
      </trkpt>
      <trkpt lat="44.69657" lon="6.85305">
        <ele>1917.8</ele>
        <time>2026-03-25T12:57:57Z</time>
      </trkpt>
      <trkpt lat="44.69657" lon="6.85305">
        <ele>1917.8</ele>
        <time>2026-03-25T12:57:58Z</time>
      </trkpt>
      <trkpt lat="44.69657" lon="6.85305">
        <ele>1917.8</ele>
        <time>2026-03-25T12:57:59Z</time>
      </trkpt>
      <trkpt lat="44.69657" lon="6.85305">
        <ele>1917.8</ele>
        <time>2026-03-25T12:58:00Z</time>
      </trkpt>
      <trkpt lat="44.69657" lon="6.85305">
        <ele>1917.8</ele>
        <time>2026-03-25T12:58:01Z</time>
      </trkpt>
      <trkpt lat="44.69657" lon="6.85305">
        <ele>1917.7</ele>
        <time>2026-03-25T12:58:02Z</time>
      </trkpt>
      <trkpt lat="44.69658" lon="6.85305">
        <ele>1917.7</ele>
        <time>2026-03-25T12:58:03Z</time>
      </trkpt>
      <trkpt lat="44.69658" lon="6.85304">
        <ele>1917.7</ele>
        <time>2026-03-25T12:58:04Z</time>
      </trkpt>
      <trkpt lat="44.69658" lon="6.85304">
        <ele>1917.7</ele>
        <time>2026-03-25T12:58:05Z</time>
      </trkpt>
      <trkpt lat="44.69658" lon="6.85305">
        <ele>1917.7</ele>
        <time>2026-03-25T12:58:06Z</time>
      </trkpt>
      <trkpt lat="44.69658" lon="6.85305">
        <ele>1917.6</ele>
        <time>2026-03-25T12:58:07Z</time>
      </trkpt>
      <trkpt lat="44.69658" lon="6.85305">
        <ele>1917.6</ele>
        <time>2026-03-25T12:58:08Z</time>
      </trkpt>
      <trkpt lat="44.69658" lon="6.85305">
        <ele>1917.6</ele>
        <time>2026-03-25T12:58:09Z</time>
      </trkpt>
      <trkpt lat="44.69658" lon="6.85305">
        <ele>1917.6</ele>
        <time>2026-03-25T12:58:10Z</time>
      </trkpt>
      <trkpt lat="44.69658" lon="6.85305">
        <ele>1917.6</ele>
        <time>2026-03-25T12:58:11Z</time>
      </trkpt>
      <trkpt lat="44.69657" lon="6.85304">
        <ele>1917.6</ele>
        <time>2026-03-25T12:58:12Z</time>
      </trkpt>
      <trkpt lat="44.69657" lon="6.85305">
        <ele>1917.6</ele>
        <time>2026-03-25T12:58:13Z</time>
      </trkpt>
      <trkpt lat="44.69657" lon="6.85305">
        <ele>1917.6</ele>
        <time>2026-03-25T12:58:14Z</time>
      </trkpt>
      <trkpt lat="44.69657" lon="6.85305">
        <ele>1917.5</ele>
        <time>2026-03-25T12:58:15Z</time>
      </trkpt>
      <trkpt lat="44.69657" lon="6.85305">
        <ele>1917.5</ele>
        <time>2026-03-25T12:58:16Z</time>
      </trkpt>
      <trkpt lat="44.69657" lon="6.85305">
        <ele>1917.5</ele>
        <time>2026-03-25T12:58:17Z</time>
      </trkpt>
      <trkpt lat="44.69657" lon="6.85305">
        <ele>1917.5</ele>
        <time>2026-03-25T12:58:18Z</time>
      </trkpt>
      <trkpt lat="44.69657" lon="6.85305">
        <ele>1917.5</ele>
        <time>2026-03-25T12:58:19Z</time>
      </trkpt>
      <trkpt lat="44.69657" lon="6.85305">
        <ele>1917.5</ele>
        <time>2026-03-25T12:58:20Z</time>
      </trkpt>
      <trkpt lat="44.69657" lon="6.85305">
        <ele>1917.5</ele>
        <time>2026-03-25T12:58:21Z</time>
      </trkpt>
      <trkpt lat="44.69657" lon="6.85305">
        <ele>1917.5</ele>
        <time>2026-03-25T12:58:22Z</time>
      </trkpt>
      <trkpt lat="44.69657" lon="6.85305">
        <ele>1917.5</ele>
        <time>2026-03-25T12:58:23Z</time>
      </trkpt>
      <trkpt lat="44.69657" lon="6.85305">
        <ele>1917.5</ele>
        <time>2026-03-25T12:58:24Z</time>
      </trkpt>
      <trkpt lat="44.69657" lon="6.85305">
        <ele>1917.5</ele>
        <time>2026-03-25T12:58:25Z</time>
      </trkpt>
      <trkpt lat="44.69657" lon="6.85305">
        <ele>1917.5</ele>
        <time>2026-03-25T12:58:26Z</time>
      </trkpt>
      <trkpt lat="44.69657" lon="6.85305">
        <ele>1917.5</ele>
        <time>2026-03-25T12:58:27Z</time>
      </trkpt>
      <trkpt lat="44.69657" lon="6.85305">
        <ele>1917.5</ele>
        <time>2026-03-25T12:58:28Z</time>
      </trkpt>
      <trkpt lat="44.69657" lon="6.85305">
        <ele>1917.5</ele>
        <time>2026-03-25T12:58:29Z</time>
      </trkpt>
      <trkpt lat="44.69657" lon="6.85305">
        <ele>1917.5</ele>
        <time>2026-03-25T12:58:30Z</time>
      </trkpt>
      <trkpt lat="44.69657" lon="6.85305">
        <ele>1917.5</ele>
        <time>2026-03-25T12:58:31Z</time>
      </trkpt>
      <trkpt lat="44.69657" lon="6.85306">
        <ele>1917.4</ele>
        <time>2026-03-25T12:58:32Z</time>
      </trkpt>
      <trkpt lat="44.69656" lon="6.85306">
        <ele>1917.3</ele>
        <time>2026-03-25T12:58:33Z</time>
      </trkpt>
      <trkpt lat="44.69656" lon="6.85306">
        <ele>1917.3</ele>
        <time>2026-03-25T12:58:34Z</time>
      </trkpt>
      <trkpt lat="44.69656" lon="6.85306">
        <ele>1917.3</ele>
        <time>2026-03-25T12:58:35Z</time>
      </trkpt>
      <trkpt lat="44.69656" lon="6.85306">
        <ele>1917.3</ele>
        <time>2026-03-25T12:58:36Z</time>
      </trkpt>
      <trkpt lat="44.69656" lon="6.85306">
        <ele>1917.3</ele>
        <time>2026-03-25T12:58:37Z</time>
      </trkpt>
      <trkpt lat="44.69656" lon="6.85306">
        <ele>1917.3</ele>
        <time>2026-03-25T12:58:38Z</time>
      </trkpt>
      <trkpt lat="44.69656" lon="6.85306">
        <ele>1917.2</ele>
        <time>2026-03-25T12:58:39Z</time>
      </trkpt>
      <trkpt lat="44.69656" lon="6.85306">
        <ele>1917.2</ele>
        <time>2026-03-25T12:58:40Z</time>
      </trkpt>
      <trkpt lat="44.69656" lon="6.85306">
        <ele>1917.2</ele>
        <time>2026-03-25T12:58:41Z</time>
      </trkpt>
      <trkpt lat="44.69656" lon="6.85306">
        <ele>1917.2</ele>
        <time>2026-03-25T12:58:42Z</time>
      </trkpt>
      <trkpt lat="44.69656" lon="6.85306">
        <ele>1917.2</ele>
        <time>2026-03-25T12:58:43Z</time>
      </trkpt>
      <trkpt lat="44.69656" lon="6.85306">
        <ele>1917.2</ele>
        <time>2026-03-25T12:58:44Z</time>
      </trkpt>
      <trkpt lat="44.69656" lon="6.85306">
        <ele>1917.2</ele>
        <time>2026-03-25T12:58:45Z</time>
      </trkpt>
      <trkpt lat="44.69656" lon="6.85306">
        <ele>1917.2</ele>
        <time>2026-03-25T12:58:46Z</time>
      </trkpt>
      <trkpt lat="44.69656" lon="6.85306">
        <ele>1917.2</ele>
        <time>2026-03-25T12:58:47Z</time>
      </trkpt>
      <trkpt lat="44.69656" lon="6.85306">
        <ele>1917.2</ele>
        <time>2026-03-25T12:58:48Z</time>
      </trkpt>
      <trkpt lat="44.69656" lon="6.85307">
        <ele>1917.1</ele>
        <time>2026-03-25T12:58:49Z</time>
      </trkpt>
      <trkpt lat="44.69657" lon="6.85309">
        <ele>1917</ele>
        <time>2026-03-25T12:58:50Z</time>
      </trkpt>
      <trkpt lat="44.69658" lon="6.85309">
        <ele>1916.9</ele>
        <time>2026-03-25T12:58:51Z</time>
      </trkpt>
      <trkpt lat="44.69658" lon="6.8531">
        <ele>1916.8</ele>
        <time>2026-03-25T12:58:52Z</time>
      </trkpt>
      <trkpt lat="44.69659" lon="6.85311">
        <ele>1916.7</ele>
        <time>2026-03-25T12:58:53Z</time>
      </trkpt>
      <trkpt lat="44.69659" lon="6.85312">
        <ele>1916.6</ele>
        <time>2026-03-25T12:58:54Z</time>
      </trkpt>
      <trkpt lat="44.6966" lon="6.85314">
        <ele>1916.5</ele>
        <time>2026-03-25T12:58:55Z</time>
      </trkpt>
      <trkpt lat="44.69662" lon="6.85316">
        <ele>1916.2</ele>
        <time>2026-03-25T12:58:56Z</time>
      </trkpt>
      <trkpt lat="44.69663" lon="6.85317">
        <ele>1916.1</ele>
        <time>2026-03-25T12:58:57Z</time>
      </trkpt>
      <trkpt lat="44.69663" lon="6.85317">
        <ele>1916</ele>
        <time>2026-03-25T12:58:58Z</time>
      </trkpt>
      <trkpt lat="44.69667" lon="6.85318">
        <ele>1915.6</ele>
        <time>2026-03-25T12:58:59Z</time>
      </trkpt>
      <trkpt lat="44.69668" lon="6.85319">
        <ele>1915.5</ele>
        <time>2026-03-25T12:59:00Z</time>
      </trkpt>
      <trkpt lat="44.69673" lon="6.8532">
        <ele>1914.9</ele>
        <time>2026-03-25T12:59:01Z</time>
      </trkpt>
      <trkpt lat="44.69677" lon="6.85322">
        <ele>1914.4</ele>
        <time>2026-03-25T12:59:02Z</time>
      </trkpt>
      <trkpt lat="44.69681" lon="6.85325">
        <ele>1913.9</ele>
        <time>2026-03-25T12:59:03Z</time>
      </trkpt>
      <trkpt lat="44.69686" lon="6.85325">
        <ele>1913.4</ele>
        <time>2026-03-25T12:59:04Z</time>
      </trkpt>
      <trkpt lat="44.69688" lon="6.85331">
        <ele>1912.9</ele>
        <time>2026-03-25T12:59:05Z</time>
      </trkpt>
      <trkpt lat="44.69693" lon="6.85333">
        <ele>1912.4</ele>
        <time>2026-03-25T12:59:06Z</time>
      </trkpt>
      <trkpt lat="44.69696" lon="6.85337">
        <ele>1912</ele>
        <time>2026-03-25T12:59:07Z</time>
      </trkpt>
      <trkpt lat="44.697" lon="6.85341">
        <ele>1911.6</ele>
        <time>2026-03-25T12:59:08Z</time>
      </trkpt>
      <trkpt lat="44.69703" lon="6.85343">
        <ele>1911.1</ele>
        <time>2026-03-25T12:59:09Z</time>
      </trkpt>
      <trkpt lat="44.69706" lon="6.8535">
        <ele>1910.4</ele>
        <time>2026-03-25T12:59:10Z</time>
      </trkpt>
      <trkpt lat="44.69708" lon="6.85355">
        <ele>1909.7</ele>
        <time>2026-03-25T12:59:11Z</time>
      </trkpt>
      <trkpt lat="44.69712" lon="6.85361">
        <ele>1909</ele>
        <time>2026-03-25T12:59:12Z</time>
      </trkpt>
      <trkpt lat="44.69716" lon="6.85362">
        <ele>1908.3</ele>
        <time>2026-03-25T12:59:13Z</time>
      </trkpt>
      <trkpt lat="44.6972" lon="6.85364">
        <ele>1907.7</ele>
        <time>2026-03-25T12:59:14Z</time>
      </trkpt>
      <trkpt lat="44.69722" lon="6.85368">
        <ele>1907.1</ele>
        <time>2026-03-25T12:59:15Z</time>
      </trkpt>
      <trkpt lat="44.69725" lon="6.85371">
        <ele>1906.5</ele>
        <time>2026-03-25T12:59:16Z</time>
      </trkpt>
      <trkpt lat="44.69729" lon="6.85373">
        <ele>1905.9</ele>
        <time>2026-03-25T12:59:17Z</time>
      </trkpt>
      <trkpt lat="44.69732" lon="6.85379">
        <ele>1905.5</ele>
        <time>2026-03-25T12:59:18Z</time>
      </trkpt>
      <trkpt lat="44.69734" lon="6.85384">
        <ele>1905.2</ele>
        <time>2026-03-25T12:59:19Z</time>
      </trkpt>
      <trkpt lat="44.69739" lon="6.85385">
        <ele>1904.9</ele>
        <time>2026-03-25T12:59:20Z</time>
      </trkpt>
      <trkpt lat="44.69743" lon="6.85387">
        <ele>1904.8</ele>
        <time>2026-03-25T12:59:21Z</time>
      </trkpt>
      <trkpt lat="44.69748" lon="6.85388">
        <ele>1904.4</ele>
        <time>2026-03-25T12:59:22Z</time>
      </trkpt>
      <trkpt lat="44.69753" lon="6.85389">
        <ele>1904.3</ele>
        <time>2026-03-25T12:59:23Z</time>
      </trkpt>
      <trkpt lat="44.69758" lon="6.85389">
        <ele>1904.2</ele>
        <time>2026-03-25T12:59:24Z</time>
      </trkpt>
      <trkpt lat="44.69763" lon="6.85389">
        <ele>1904.2</ele>
        <time>2026-03-25T12:59:25Z</time>
      </trkpt>
      <trkpt lat="44.69769" lon="6.85392">
        <ele>1904.2</ele>
        <time>2026-03-25T12:59:26Z</time>
      </trkpt>
      <trkpt lat="44.69774" lon="6.85395">
        <ele>1903.7</ele>
        <time>2026-03-25T12:59:27Z</time>
      </trkpt>
      <trkpt lat="44.69779" lon="6.85397">
        <ele>1903.2</ele>
        <time>2026-03-25T12:59:28Z</time>
      </trkpt>
      <trkpt lat="44.69784" lon="6.85402">
        <ele>1902.6</ele>
        <time>2026-03-25T12:59:29Z</time>
      </trkpt>
      <trkpt lat="44.69788" lon="6.85407">
        <ele>1902</ele>
        <time>2026-03-25T12:59:30Z</time>
      </trkpt>
      <trkpt lat="44.69793" lon="6.85411">
        <ele>1901.4</ele>
        <time>2026-03-25T12:59:31Z</time>
      </trkpt>
      <trkpt lat="44.69799" lon="6.85415">
        <ele>1900.7</ele>
        <time>2026-03-25T12:59:32Z</time>
      </trkpt>
      <trkpt lat="44.69805" lon="6.8542">
        <ele>1900</ele>
        <time>2026-03-25T12:59:33Z</time>
      </trkpt>
      <trkpt lat="44.69811" lon="6.85425">
        <ele>1899.3</ele>
        <time>2026-03-25T12:59:34Z</time>
      </trkpt>
      <trkpt lat="44.69817" lon="6.85429">
        <ele>1898.6</ele>
        <time>2026-03-25T12:59:35Z</time>
      </trkpt>
      <trkpt lat="44.69823" lon="6.85433">
        <ele>1898</ele>
        <time>2026-03-25T12:59:36Z</time>
      </trkpt>
      <trkpt lat="44.69828" lon="6.85436">
        <ele>1897.5</ele>
        <time>2026-03-25T12:59:37Z</time>
      </trkpt>
      <trkpt lat="44.69834" lon="6.85438">
        <ele>1897.3</ele>
        <time>2026-03-25T12:59:38Z</time>
      </trkpt>
      <trkpt lat="44.6984" lon="6.85441">
        <ele>1896.8</ele>
        <time>2026-03-25T12:59:39Z</time>
      </trkpt>
      <trkpt lat="44.69846" lon="6.85443">
        <ele>1896.4</ele>
        <time>2026-03-25T12:59:40Z</time>
      </trkpt>
      <trkpt lat="44.69853" lon="6.85445">
        <ele>1895.5</ele>
        <time>2026-03-25T12:59:41Z</time>
      </trkpt>
      <trkpt lat="44.69859" lon="6.85449">
        <ele>1894.4</ele>
        <time>2026-03-25T12:59:42Z</time>
      </trkpt>
      <trkpt lat="44.69865" lon="6.85453">
        <ele>1893.4</ele>
        <time>2026-03-25T12:59:43Z</time>
      </trkpt>
      <trkpt lat="44.69871" lon="6.85457">
        <ele>1892.3</ele>
        <time>2026-03-25T12:59:44Z</time>
      </trkpt>
      <trkpt lat="44.69877" lon="6.85461">
        <ele>1891.7</ele>
        <time>2026-03-25T12:59:45Z</time>
      </trkpt>
      <trkpt lat="44.69882" lon="6.85464">
        <ele>1891.1</ele>
        <time>2026-03-25T12:59:46Z</time>
      </trkpt>
      <trkpt lat="44.69888" lon="6.85467">
        <ele>1890</ele>
        <time>2026-03-25T12:59:47Z</time>
      </trkpt>
      <trkpt lat="44.69892" lon="6.85471">
        <ele>1889.2</ele>
        <time>2026-03-25T12:59:48Z</time>
      </trkpt>
      <trkpt lat="44.69898" lon="6.85475">
        <ele>1887.7</ele>
        <time>2026-03-25T12:59:49Z</time>
      </trkpt>
      <trkpt lat="44.69903" lon="6.85478">
        <ele>1886.2</ele>
        <time>2026-03-25T12:59:50Z</time>
      </trkpt>
      <trkpt lat="44.69909" lon="6.85482">
        <ele>1885</ele>
        <time>2026-03-25T12:59:51Z</time>
      </trkpt>
      <trkpt lat="44.69914" lon="6.85486">
        <ele>1883.2</ele>
        <time>2026-03-25T12:59:52Z</time>
      </trkpt>
      <trkpt lat="44.69918" lon="6.85491">
        <ele>1882</ele>
        <time>2026-03-25T12:59:53Z</time>
      </trkpt>
      <trkpt lat="44.69922" lon="6.85495">
        <ele>1880.8</ele>
        <time>2026-03-25T12:59:54Z</time>
      </trkpt>
      <trkpt lat="44.69926" lon="6.85499">
        <ele>1879</ele>
        <time>2026-03-25T12:59:55Z</time>
      </trkpt>
      <trkpt lat="44.6993" lon="6.85503">
        <ele>1878</ele>
        <time>2026-03-25T12:59:56Z</time>
      </trkpt>
      <trkpt lat="44.69934" lon="6.85505">
        <ele>1877</ele>
        <time>2026-03-25T12:59:57Z</time>
      </trkpt>
      <trkpt lat="44.69938" lon="6.85507">
        <ele>1875.8</ele>
        <time>2026-03-25T12:59:58Z</time>
      </trkpt>
      <trkpt lat="44.69943" lon="6.85509">
        <ele>1874.8</ele>
        <time>2026-03-25T12:59:59Z</time>
      </trkpt>
      <trkpt lat="44.69947" lon="6.85512">
        <ele>1874.3</ele>
        <time>2026-03-25T13:00:00Z</time>
      </trkpt>
      <trkpt lat="44.69951" lon="6.85514">
        <ele>1872.9</ele>
        <time>2026-03-25T13:00:01Z</time>
      </trkpt>
      <trkpt lat="44.69955" lon="6.85517">
        <ele>1872.5</ele>
        <time>2026-03-25T13:00:02Z</time>
      </trkpt>
      <trkpt lat="44.69959" lon="6.85519">
        <ele>1871.8</ele>
        <time>2026-03-25T13:00:03Z</time>
      </trkpt>
      <trkpt lat="44.69964" lon="6.85521">
        <ele>1871</ele>
        <time>2026-03-25T13:00:04Z</time>
      </trkpt>
      <trkpt lat="44.69968" lon="6.85524">
        <ele>1870.2</ele>
        <time>2026-03-25T13:00:05Z</time>
      </trkpt>
      <trkpt lat="44.69974" lon="6.85526">
        <ele>1868.9</ele>
        <time>2026-03-25T13:00:06Z</time>
      </trkpt>
      <trkpt lat="44.69979" lon="6.85529">
        <ele>1867.9</ele>
        <time>2026-03-25T13:00:07Z</time>
      </trkpt>
      <trkpt lat="44.69984" lon="6.85532">
        <ele>1866.5</ele>
        <time>2026-03-25T13:00:08Z</time>
      </trkpt>
      <trkpt lat="44.69989" lon="6.85533">
        <ele>1866.1</ele>
        <time>2026-03-25T13:00:09Z</time>
      </trkpt>
      <trkpt lat="44.69994" lon="6.85532">
        <ele>1864.8</ele>
        <time>2026-03-25T13:00:10Z</time>
      </trkpt>
      <trkpt lat="44.69998" lon="6.8553">
        <ele>1864.2</ele>
        <time>2026-03-25T13:00:11Z</time>
      </trkpt>
      <trkpt lat="44.70001" lon="6.85527">
        <ele>1864</ele>
        <time>2026-03-25T13:00:12Z</time>
      </trkpt>
      <trkpt lat="44.70003" lon="6.85524">
        <ele>1863.7</ele>
        <time>2026-03-25T13:00:13Z</time>
      </trkpt>
      <trkpt lat="44.70006" lon="6.85523">
        <ele>1863.1</ele>
        <time>2026-03-25T13:00:14Z</time>
      </trkpt>
      <trkpt lat="44.70009" lon="6.8552">
        <ele>1862.8</ele>
        <time>2026-03-25T13:00:15Z</time>
      </trkpt>
      <trkpt lat="44.70011" lon="6.85517">
        <ele>1862.8</ele>
        <time>2026-03-25T13:00:16Z</time>
      </trkpt>
      <trkpt lat="44.70014" lon="6.85515">
        <ele>1862.4</ele>
        <time>2026-03-25T13:00:17Z</time>
      </trkpt>
      <trkpt lat="44.70017" lon="6.85513">
        <ele>1861.9</ele>
        <time>2026-03-25T13:00:18Z</time>
      </trkpt>
      <trkpt lat="44.70021" lon="6.85511">
        <ele>1860.8</ele>
        <time>2026-03-25T13:00:19Z</time>
      </trkpt>
      <trkpt lat="44.70025" lon="6.8551">
        <ele>1860.1</ele>
        <time>2026-03-25T13:00:20Z</time>
      </trkpt>
      <trkpt lat="44.70029" lon="6.85508">
        <ele>1859.5</ele>
        <time>2026-03-25T13:00:21Z</time>
      </trkpt>
      <trkpt lat="44.70031" lon="6.85508">
        <ele>1858.8</ele>
        <time>2026-03-25T13:00:22Z</time>
      </trkpt>
      <trkpt lat="44.70035" lon="6.85506">
        <ele>1858.1</ele>
        <time>2026-03-25T13:00:23Z</time>
      </trkpt>
      <trkpt lat="44.70039" lon="6.85505">
        <ele>1856.8</ele>
        <time>2026-03-25T13:00:24Z</time>
      </trkpt>
      <trkpt lat="44.70044" lon="6.85504">
        <ele>1856.2</ele>
        <time>2026-03-25T13:00:25Z</time>
      </trkpt>
      <trkpt lat="44.70048" lon="6.85503">
        <ele>1854.6</ele>
        <time>2026-03-25T13:00:26Z</time>
      </trkpt>
      <trkpt lat="44.70052" lon="6.85502">
        <ele>1853.8</ele>
        <time>2026-03-25T13:00:27Z</time>
      </trkpt>
      <trkpt lat="44.70056" lon="6.85501">
        <ele>1853</ele>
        <time>2026-03-25T13:00:28Z</time>
      </trkpt>
      <trkpt lat="44.7006" lon="6.85501">
        <ele>1852.2</ele>
        <time>2026-03-25T13:00:29Z</time>
      </trkpt>
      <trkpt lat="44.70062" lon="6.855">
        <ele>1851.4</ele>
        <time>2026-03-25T13:00:30Z</time>
      </trkpt>
      <trkpt lat="44.70066" lon="6.855">
        <ele>1850.7</ele>
        <time>2026-03-25T13:00:31Z</time>
      </trkpt>
      <trkpt lat="44.70067" lon="6.855">
        <ele>1850</ele>
        <time>2026-03-25T13:00:32Z</time>
      </trkpt>
      <trkpt lat="44.70071" lon="6.85499">
        <ele>1849.3</ele>
        <time>2026-03-25T13:00:33Z</time>
      </trkpt>
      <trkpt lat="44.70073" lon="6.85499">
        <ele>1848.6</ele>
        <time>2026-03-25T13:00:34Z</time>
      </trkpt>
      <trkpt lat="44.70077" lon="6.85498">
        <ele>1848</ele>
        <time>2026-03-25T13:00:35Z</time>
      </trkpt>
      <trkpt lat="44.70082" lon="6.85497">
        <ele>1846.7</ele>
        <time>2026-03-25T13:00:36Z</time>
      </trkpt>
      <trkpt lat="44.70085" lon="6.85497">
        <ele>1846.1</ele>
        <time>2026-03-25T13:00:37Z</time>
      </trkpt>
      <trkpt lat="44.70088" lon="6.85496">
        <ele>1845.5</ele>
        <time>2026-03-25T13:00:38Z</time>
      </trkpt>
      <trkpt lat="44.70092" lon="6.85495">
        <ele>1844.8</ele>
        <time>2026-03-25T13:00:39Z</time>
      </trkpt>
      <trkpt lat="44.70093" lon="6.85495">
        <ele>1844.8</ele>
        <time>2026-03-25T13:00:40Z</time>
      </trkpt>
      <trkpt lat="44.70096" lon="6.85493">
        <ele>1844.3</ele>
        <time>2026-03-25T13:00:41Z</time>
      </trkpt>
      <trkpt lat="44.70099" lon="6.85493">
        <ele>1843.8</ele>
        <time>2026-03-25T13:00:42Z</time>
      </trkpt>
      <trkpt lat="44.70102" lon="6.85493">
        <ele>1843.3</ele>
        <time>2026-03-25T13:00:43Z</time>
      </trkpt>
      <trkpt lat="44.70106" lon="6.85492">
        <ele>1842.2</ele>
        <time>2026-03-25T13:00:44Z</time>
      </trkpt>
      <trkpt lat="44.70107" lon="6.85491">
        <ele>1842.2</ele>
        <time>2026-03-25T13:00:45Z</time>
      </trkpt>
      <trkpt lat="44.7011" lon="6.8549">
        <ele>1841.5</ele>
        <time>2026-03-25T13:00:46Z</time>
      </trkpt>
      <trkpt lat="44.70111" lon="6.8549">
        <ele>1841.6</ele>
        <time>2026-03-25T13:00:47Z</time>
      </trkpt>
      <trkpt lat="44.70115" lon="6.85489">
        <ele>1840.4</ele>
        <time>2026-03-25T13:00:48Z</time>
      </trkpt>
      <trkpt lat="44.70116" lon="6.85489">
        <ele>1840.4</ele>
        <time>2026-03-25T13:00:49Z</time>
      </trkpt>
      <trkpt lat="44.70119" lon="6.85488">
        <ele>1839.9</ele>
        <time>2026-03-25T13:00:50Z</time>
      </trkpt>
      <trkpt lat="44.7012" lon="6.85487">
        <ele>1840</ele>
        <time>2026-03-25T13:00:51Z</time>
      </trkpt>
      <trkpt lat="44.70123" lon="6.85485">
        <ele>1839.4</ele>
        <time>2026-03-25T13:00:52Z</time>
      </trkpt>
      <trkpt lat="44.70124" lon="6.85484">
        <ele>1839.5</ele>
        <time>2026-03-25T13:00:53Z</time>
      </trkpt>
      <trkpt lat="44.70127" lon="6.85482">
        <ele>1839</ele>
        <time>2026-03-25T13:00:54Z</time>
      </trkpt>
      <trkpt lat="44.70127" lon="6.85482">
        <ele>1838.6</ele>
        <time>2026-03-25T13:00:55Z</time>
      </trkpt>
      <trkpt lat="44.70128" lon="6.85481">
        <ele>1838.6</ele>
        <time>2026-03-25T13:00:56Z</time>
      </trkpt>
      <trkpt lat="44.70128" lon="6.8548">
        <ele>1838.7</ele>
        <time>2026-03-25T13:00:57Z</time>
      </trkpt>
      <trkpt lat="44.70128" lon="6.8548">
        <ele>1838.7</ele>
        <time>2026-03-25T13:00:58Z</time>
      </trkpt>
      <trkpt lat="44.70128" lon="6.8548">
        <ele>1838.7</ele>
        <time>2026-03-25T13:00:59Z</time>
      </trkpt>
      <trkpt lat="44.70128" lon="6.8548">
        <ele>1838.8</ele>
        <time>2026-03-25T13:01:00Z</time>
      </trkpt>
      <trkpt lat="44.70128" lon="6.8548">
        <ele>1838.8</ele>
        <time>2026-03-25T13:01:01Z</time>
      </trkpt>
      <trkpt lat="44.70128" lon="6.8548">
        <ele>1838.8</ele>
        <time>2026-03-25T13:01:02Z</time>
      </trkpt>
      <trkpt lat="44.70128" lon="6.8548">
        <ele>1838.9</ele>
        <time>2026-03-25T13:01:03Z</time>
      </trkpt>
      <trkpt lat="44.70128" lon="6.8548">
        <ele>1838.9</ele>
        <time>2026-03-25T13:01:04Z</time>
      </trkpt>
      <trkpt lat="44.70128" lon="6.8548">
        <ele>1838.9</ele>
        <time>2026-03-25T13:01:05Z</time>
      </trkpt>
      <trkpt lat="44.70128" lon="6.8548">
        <ele>1839</ele>
        <time>2026-03-25T13:01:06Z</time>
      </trkpt>
      <trkpt lat="44.70128" lon="6.85479">
        <ele>1839</ele>
        <time>2026-03-25T13:01:07Z</time>
      </trkpt>
      <trkpt lat="44.70129" lon="6.85479">
        <ele>1839.1</ele>
        <time>2026-03-25T13:01:08Z</time>
      </trkpt>
      <trkpt lat="44.70129" lon="6.85479">
        <ele>1839.1</ele>
        <time>2026-03-25T13:01:09Z</time>
      </trkpt>
      <trkpt lat="44.70131" lon="6.85478">
        <ele>1838.6</ele>
        <time>2026-03-25T13:01:10Z</time>
      </trkpt>
      <trkpt lat="44.70132" lon="6.85478">
        <ele>1838.6</ele>
        <time>2026-03-25T13:01:11Z</time>
      </trkpt>
      <trkpt lat="44.70136" lon="6.85477">
        <ele>1837.8</ele>
        <time>2026-03-25T13:01:12Z</time>
      </trkpt>
      <trkpt lat="44.70141" lon="6.85477">
        <ele>1837.4</ele>
        <time>2026-03-25T13:01:13Z</time>
      </trkpt>
      <trkpt lat="44.70146" lon="6.85477">
        <ele>1836.7</ele>
        <time>2026-03-25T13:01:14Z</time>
      </trkpt>
      <trkpt lat="44.70151" lon="6.85478">
        <ele>1836.4</ele>
        <time>2026-03-25T13:01:15Z</time>
      </trkpt>
      <trkpt lat="44.70156" lon="6.85479">
        <ele>1835.7</ele>
        <time>2026-03-25T13:01:16Z</time>
      </trkpt>
      <trkpt lat="44.7016" lon="6.8548">
        <ele>1835.4</ele>
        <time>2026-03-25T13:01:17Z</time>
      </trkpt>
      <trkpt lat="44.70164" lon="6.8548">
        <ele>1834.6</ele>
        <time>2026-03-25T13:01:18Z</time>
      </trkpt>
      <trkpt lat="44.70168" lon="6.85481">
        <ele>1834.2</ele>
        <time>2026-03-25T13:01:19Z</time>
      </trkpt>
      <trkpt lat="44.70171" lon="6.85481">
        <ele>1833.9</ele>
        <time>2026-03-25T13:01:20Z</time>
      </trkpt>
      <trkpt lat="44.70175" lon="6.85482">
        <ele>1833.5</ele>
        <time>2026-03-25T13:01:21Z</time>
      </trkpt>
      <trkpt lat="44.70178" lon="6.85481">
        <ele>1833.2</ele>
        <time>2026-03-25T13:01:22Z</time>
      </trkpt>
      <trkpt lat="44.70182" lon="6.8548">
        <ele>1832.9</ele>
        <time>2026-03-25T13:01:23Z</time>
      </trkpt>
      <trkpt lat="44.70185" lon="6.85479">
        <ele>1832.4</ele>
        <time>2026-03-25T13:01:24Z</time>
      </trkpt>
      <trkpt lat="44.70188" lon="6.85477">
        <ele>1832.2</ele>
        <time>2026-03-25T13:01:25Z</time>
      </trkpt>
      <trkpt lat="44.70191" lon="6.85475">
        <ele>1832.3</ele>
        <time>2026-03-25T13:01:26Z</time>
      </trkpt>
      <trkpt lat="44.70194" lon="6.85472">
        <ele>1832</ele>
        <time>2026-03-25T13:01:27Z</time>
      </trkpt>
      <trkpt lat="44.70196" lon="6.85468">
        <ele>1831.7</ele>
        <time>2026-03-25T13:01:28Z</time>
      </trkpt>
      <trkpt lat="44.70199" lon="6.85465">
        <ele>1831.4</ele>
        <time>2026-03-25T13:01:29Z</time>
      </trkpt>
      <trkpt lat="44.70204" lon="6.85461">
        <ele>1830.9</ele>
        <time>2026-03-25T13:01:30Z</time>
      </trkpt>
      <trkpt lat="44.70207" lon="6.85456">
        <ele>1830.6</ele>
        <time>2026-03-25T13:01:31Z</time>
      </trkpt>
      <trkpt lat="44.7021" lon="6.8545">
        <ele>1830.4</ele>
        <time>2026-03-25T13:01:32Z</time>
      </trkpt>
      <trkpt lat="44.70213" lon="6.85444">
        <ele>1830.2</ele>
        <time>2026-03-25T13:01:33Z</time>
      </trkpt>
      <trkpt lat="44.70216" lon="6.85439">
        <ele>1829.9</ele>
        <time>2026-03-25T13:01:34Z</time>
      </trkpt>
      <trkpt lat="44.70219" lon="6.85435">
        <ele>1829.7</ele>
        <time>2026-03-25T13:01:35Z</time>
      </trkpt>
      <trkpt lat="44.70223" lon="6.85431">
        <ele>1829.4</ele>
        <time>2026-03-25T13:01:36Z</time>
      </trkpt>
      <trkpt lat="44.70225" lon="6.85427">
        <ele>1829</ele>
        <time>2026-03-25T13:01:37Z</time>
      </trkpt>
      <trkpt lat="44.70228" lon="6.85422">
        <ele>1828.7</ele>
        <time>2026-03-25T13:01:38Z</time>
      </trkpt>
      <trkpt lat="44.70231" lon="6.85417">
        <ele>1828.4</ele>
        <time>2026-03-25T13:01:39Z</time>
      </trkpt>
      <trkpt lat="44.70235" lon="6.85411">
        <ele>1828.1</ele>
        <time>2026-03-25T13:01:40Z</time>
      </trkpt>
      <trkpt lat="44.70238" lon="6.85406">
        <ele>1827.8</ele>
        <time>2026-03-25T13:01:41Z</time>
      </trkpt>
      <trkpt lat="44.70242" lon="6.854">
        <ele>1827.3</ele>
        <time>2026-03-25T13:01:42Z</time>
      </trkpt>
      <trkpt lat="44.70244" lon="6.85394">
        <ele>1827</ele>
        <time>2026-03-25T13:01:43Z</time>
      </trkpt>
      <trkpt lat="44.70247" lon="6.8539">
        <ele>1826.6</ele>
        <time>2026-03-25T13:01:44Z</time>
      </trkpt>
      <trkpt lat="44.7025" lon="6.85387">
        <ele>1826.3</ele>
        <time>2026-03-25T13:01:45Z</time>
      </trkpt>
      <trkpt lat="44.70252" lon="6.85384">
        <ele>1826.2</ele>
        <time>2026-03-25T13:01:46Z</time>
      </trkpt>
      <trkpt lat="44.70254" lon="6.85381">
        <ele>1826</ele>
        <time>2026-03-25T13:01:47Z</time>
      </trkpt>
      <trkpt lat="44.70257" lon="6.8538">
        <ele>1825.7</ele>
        <time>2026-03-25T13:01:48Z</time>
      </trkpt>
      <trkpt lat="44.70259" lon="6.85378">
        <ele>1825.6</ele>
        <time>2026-03-25T13:01:49Z</time>
      </trkpt>
      <trkpt lat="44.70262" lon="6.85375">
        <ele>1825.4</ele>
        <time>2026-03-25T13:01:50Z</time>
      </trkpt>
      <trkpt lat="44.70265" lon="6.85374">
        <ele>1825.2</ele>
        <time>2026-03-25T13:01:51Z</time>
      </trkpt>
      <trkpt lat="44.70268" lon="6.85372">
        <ele>1825</ele>
        <time>2026-03-25T13:01:52Z</time>
      </trkpt>
      <trkpt lat="44.70272" lon="6.8537">
        <ele>1824.8</ele>
        <time>2026-03-25T13:01:53Z</time>
      </trkpt>
      <trkpt lat="44.70276" lon="6.85368">
        <ele>1824.7</ele>
        <time>2026-03-25T13:01:54Z</time>
      </trkpt>
      <trkpt lat="44.70279" lon="6.85366">
        <ele>1824.5</ele>
        <time>2026-03-25T13:01:55Z</time>
      </trkpt>
      <trkpt lat="44.70283" lon="6.85365">
        <ele>1824.3</ele>
        <time>2026-03-25T13:01:56Z</time>
      </trkpt>
      <trkpt lat="44.70287" lon="6.85363">
        <ele>1824.3</ele>
        <time>2026-03-25T13:01:57Z</time>
      </trkpt>
      <trkpt lat="44.70291" lon="6.8536">
        <ele>1824.1</ele>
        <time>2026-03-25T13:01:58Z</time>
      </trkpt>
      <trkpt lat="44.70295" lon="6.85357">
        <ele>1823.9</ele>
        <time>2026-03-25T13:01:59Z</time>
      </trkpt>
      <trkpt lat="44.70299" lon="6.85354">
        <ele>1823.6</ele>
        <time>2026-03-25T13:02:00Z</time>
      </trkpt>
      <trkpt lat="44.70303" lon="6.85349">
        <ele>1823.3</ele>
        <time>2026-03-25T13:02:01Z</time>
      </trkpt>
      <trkpt lat="44.70305" lon="6.85344">
        <ele>1822.9</ele>
        <time>2026-03-25T13:02:02Z</time>
      </trkpt>
      <trkpt lat="44.70307" lon="6.8534">
        <ele>1822.6</ele>
        <time>2026-03-25T13:02:03Z</time>
      </trkpt>
      <trkpt lat="44.70309" lon="6.85335">
        <ele>1822.4</ele>
        <time>2026-03-25T13:02:04Z</time>
      </trkpt>
      <trkpt lat="44.7031" lon="6.85331">
        <ele>1822.2</ele>
        <time>2026-03-25T13:02:05Z</time>
      </trkpt>
      <trkpt lat="44.70311" lon="6.85327">
        <ele>1821.8</ele>
        <time>2026-03-25T13:02:06Z</time>
      </trkpt>
      <trkpt lat="44.70311" lon="6.85323">
        <ele>1821.6</ele>
        <time>2026-03-25T13:02:07Z</time>
      </trkpt>
      <trkpt lat="44.7031" lon="6.85318">
        <ele>1821.5</ele>
        <time>2026-03-25T13:02:08Z</time>
      </trkpt>
      <trkpt lat="44.7031" lon="6.85316">
        <ele>1821.6</ele>
        <time>2026-03-25T13:02:09Z</time>
      </trkpt>
      <trkpt lat="44.7031" lon="6.85314">
        <ele>1821.4</ele>
        <time>2026-03-25T13:02:10Z</time>
      </trkpt>
      <trkpt lat="44.7031" lon="6.85312">
        <ele>1821.4</ele>
        <time>2026-03-25T13:02:11Z</time>
      </trkpt>
      <trkpt lat="44.7031" lon="6.8531">
        <ele>1821.3</ele>
        <time>2026-03-25T13:02:12Z</time>
      </trkpt>
      <trkpt lat="44.7031" lon="6.85309">
        <ele>1821.3</ele>
        <time>2026-03-25T13:02:13Z</time>
      </trkpt>
      <trkpt lat="44.7031" lon="6.85307">
        <ele>1821.3</ele>
        <time>2026-03-25T13:02:14Z</time>
      </trkpt>
      <trkpt lat="44.7031" lon="6.85306">
        <ele>1821.2</ele>
        <time>2026-03-25T13:02:15Z</time>
      </trkpt>
      <trkpt lat="44.7031" lon="6.85304">
        <ele>1821.2</ele>
        <time>2026-03-25T13:02:16Z</time>
      </trkpt>
      <trkpt lat="44.7031" lon="6.85303">
        <ele>1821.3</ele>
        <time>2026-03-25T13:02:17Z</time>
      </trkpt>
      <trkpt lat="44.7031" lon="6.85302">
        <ele>1821.3</ele>
        <time>2026-03-25T13:02:18Z</time>
      </trkpt>
      <trkpt lat="44.7031" lon="6.85301">
        <ele>1821.2</ele>
        <time>2026-03-25T13:02:19Z</time>
      </trkpt>
      <trkpt lat="44.70309" lon="6.853">
        <ele>1821.2</ele>
        <time>2026-03-25T13:02:20Z</time>
      </trkpt>
      <trkpt lat="44.70309" lon="6.85299">
        <ele>1821.2</ele>
        <time>2026-03-25T13:02:21Z</time>
      </trkpt>
      <trkpt lat="44.70309" lon="6.85298">
        <ele>1821.1</ele>
        <time>2026-03-25T13:02:22Z</time>
      </trkpt>
      <trkpt lat="44.70309" lon="6.85296">
        <ele>1821.2</ele>
        <time>2026-03-25T13:02:23Z</time>
      </trkpt>
      <trkpt lat="44.70309" lon="6.85295">
        <ele>1821.2</ele>
        <time>2026-03-25T13:02:24Z</time>
      </trkpt>
      <trkpt lat="44.70308" lon="6.85293">
        <ele>1821.1</ele>
        <time>2026-03-25T13:02:25Z</time>
      </trkpt>
      <trkpt lat="44.70308" lon="6.85292">
        <ele>1821.1</ele>
        <time>2026-03-25T13:02:26Z</time>
      </trkpt>
      <trkpt lat="44.70308" lon="6.85291">
        <ele>1821.2</ele>
        <time>2026-03-25T13:02:27Z</time>
      </trkpt>
      <trkpt lat="44.70307" lon="6.85289">
        <ele>1821.1</ele>
        <time>2026-03-25T13:02:28Z</time>
      </trkpt>
      <trkpt lat="44.70307" lon="6.85287">
        <ele>1821.1</ele>
        <time>2026-03-25T13:02:29Z</time>
      </trkpt>
      <trkpt lat="44.70307" lon="6.85286">
        <ele>1821.2</ele>
        <time>2026-03-25T13:02:30Z</time>
      </trkpt>
      <trkpt lat="44.70307" lon="6.85284">
        <ele>1821.1</ele>
        <time>2026-03-25T13:02:31Z</time>
      </trkpt>
      <trkpt lat="44.70307" lon="6.85281">
        <ele>1821.1</ele>
        <time>2026-03-25T13:02:32Z</time>
      </trkpt>
      <trkpt lat="44.70307" lon="6.8528">
        <ele>1821</ele>
        <time>2026-03-25T13:02:33Z</time>
      </trkpt>
      <trkpt lat="44.70307" lon="6.85279">
        <ele>1821.1</ele>
        <time>2026-03-25T13:02:34Z</time>
      </trkpt>
      <trkpt lat="44.70307" lon="6.85276">
        <ele>1821</ele>
        <time>2026-03-25T13:02:35Z</time>
      </trkpt>
      <trkpt lat="44.70308" lon="6.85274">
        <ele>1821.1</ele>
        <time>2026-03-25T13:02:36Z</time>
      </trkpt>
      <trkpt lat="44.70309" lon="6.8527">
        <ele>1821</ele>
        <time>2026-03-25T13:02:37Z</time>
      </trkpt>
      <trkpt lat="44.7031" lon="6.85268">
        <ele>1821</ele>
        <time>2026-03-25T13:02:38Z</time>
      </trkpt>
      <trkpt lat="44.70312" lon="6.85265">
        <ele>1820.8</ele>
        <time>2026-03-25T13:02:39Z</time>
      </trkpt>
      <trkpt lat="44.70315" lon="6.85261">
        <ele>1820.5</ele>
        <time>2026-03-25T13:02:40Z</time>
      </trkpt>
      <trkpt lat="44.70319" lon="6.85258">
        <ele>1820.3</ele>
        <time>2026-03-25T13:02:41Z</time>
      </trkpt>
      <trkpt lat="44.70324" lon="6.85256">
        <ele>1819.8</ele>
        <time>2026-03-25T13:02:42Z</time>
      </trkpt>
      <trkpt lat="44.70328" lon="6.85254">
        <ele>1819.4</ele>
        <time>2026-03-25T13:02:43Z</time>
      </trkpt>
      <trkpt lat="44.70332" lon="6.85252">
        <ele>1819.1</ele>
        <time>2026-03-25T13:02:44Z</time>
      </trkpt>
      <trkpt lat="44.70334" lon="6.85251">
        <ele>1818.8</ele>
        <time>2026-03-25T13:02:45Z</time>
      </trkpt>
      <trkpt lat="44.70337" lon="6.8525">
        <ele>1818.5</ele>
        <time>2026-03-25T13:02:46Z</time>
      </trkpt>
      <trkpt lat="44.7034" lon="6.85248">
        <ele>1818.3</ele>
        <time>2026-03-25T13:02:47Z</time>
      </trkpt>
      <trkpt lat="44.70344" lon="6.85246">
        <ele>1817.9</ele>
        <time>2026-03-25T13:02:48Z</time>
      </trkpt>
      <trkpt lat="44.70347" lon="6.85245">
        <ele>1817.6</ele>
        <time>2026-03-25T13:02:49Z</time>
      </trkpt>
      <trkpt lat="44.7035" lon="6.85243">
        <ele>1817.2</ele>
        <time>2026-03-25T13:02:50Z</time>
      </trkpt>
      <trkpt lat="44.70354" lon="6.85242">
        <ele>1816.9</ele>
        <time>2026-03-25T13:02:51Z</time>
      </trkpt>
      <trkpt lat="44.70357" lon="6.85242">
        <ele>1816.5</ele>
        <time>2026-03-25T13:02:52Z</time>
      </trkpt>
      <trkpt lat="44.70361" lon="6.8524">
        <ele>1816.2</ele>
        <time>2026-03-25T13:02:53Z</time>
      </trkpt>
      <trkpt lat="44.70365" lon="6.85238">
        <ele>1815.8</ele>
        <time>2026-03-25T13:02:54Z</time>
      </trkpt>
      <trkpt lat="44.70369" lon="6.85236">
        <ele>1815.4</ele>
        <time>2026-03-25T13:02:55Z</time>
      </trkpt>
      <trkpt lat="44.70373" lon="6.85234">
        <ele>1815.1</ele>
        <time>2026-03-25T13:02:56Z</time>
      </trkpt>
      <trkpt lat="44.70377" lon="6.85233">
        <ele>1814.7</ele>
        <time>2026-03-25T13:02:57Z</time>
      </trkpt>
      <trkpt lat="44.70382" lon="6.85231">
        <ele>1814.3</ele>
        <time>2026-03-25T13:02:58Z</time>
      </trkpt>
      <trkpt lat="44.70386" lon="6.8523">
        <ele>1814</ele>
        <time>2026-03-25T13:02:59Z</time>
      </trkpt>
      <trkpt lat="44.7039" lon="6.85228">
        <ele>1813.6</ele>
        <time>2026-03-25T13:03:00Z</time>
      </trkpt>
      <trkpt lat="44.70395" lon="6.85226">
        <ele>1813.3</ele>
        <time>2026-03-25T13:03:01Z</time>
      </trkpt>
      <trkpt lat="44.70399" lon="6.85224">
        <ele>1813</ele>
        <time>2026-03-25T13:03:02Z</time>
      </trkpt>
      <trkpt lat="44.70403" lon="6.85222">
        <ele>1812.7</ele>
        <time>2026-03-25T13:03:03Z</time>
      </trkpt>
      <trkpt lat="44.70406" lon="6.8522">
        <ele>1812.3</ele>
        <time>2026-03-25T13:03:04Z</time>
      </trkpt>
      <trkpt lat="44.7041" lon="6.85217">
        <ele>1812</ele>
        <time>2026-03-25T13:03:05Z</time>
      </trkpt>
      <trkpt lat="44.70414" lon="6.85214">
        <ele>1811.7</ele>
        <time>2026-03-25T13:03:06Z</time>
      </trkpt>
      <trkpt lat="44.70417" lon="6.85211">
        <ele>1811.3</ele>
        <time>2026-03-25T13:03:07Z</time>
      </trkpt>
      <trkpt lat="44.7042" lon="6.85209">
        <ele>1811</ele>
        <time>2026-03-25T13:03:08Z</time>
      </trkpt>
      <trkpt lat="44.70423" lon="6.85207">
        <ele>1810.7</ele>
        <time>2026-03-25T13:03:09Z</time>
      </trkpt>
      <trkpt lat="44.70427" lon="6.85205">
        <ele>1810.3</ele>
        <time>2026-03-25T13:03:10Z</time>
      </trkpt>
      <trkpt lat="44.70428" lon="6.85204">
        <ele>1810.2</ele>
        <time>2026-03-25T13:03:11Z</time>
      </trkpt>
      <trkpt lat="44.7043" lon="6.85202">
        <ele>1809.9</ele>
        <time>2026-03-25T13:03:12Z</time>
      </trkpt>
      <trkpt lat="44.70434" lon="6.852">
        <ele>1809.6</ele>
        <time>2026-03-25T13:03:13Z</time>
      </trkpt>
      <trkpt lat="44.70437" lon="6.85197">
        <ele>1809.2</ele>
        <time>2026-03-25T13:03:14Z</time>
      </trkpt>
      <trkpt lat="44.70441" lon="6.85195">
        <ele>1808.8</ele>
        <time>2026-03-25T13:03:15Z</time>
      </trkpt>
      <trkpt lat="44.70445" lon="6.85192">
        <ele>1808.4</ele>
        <time>2026-03-25T13:03:16Z</time>
      </trkpt>
      <trkpt lat="44.70448" lon="6.85188">
        <ele>1807.9</ele>
        <time>2026-03-25T13:03:17Z</time>
      </trkpt>
      <trkpt lat="44.70452" lon="6.85186">
        <ele>1807.5</ele>
        <time>2026-03-25T13:03:18Z</time>
      </trkpt>
      <trkpt lat="44.70456" lon="6.85183">
        <ele>1807.1</ele>
        <time>2026-03-25T13:03:19Z</time>
      </trkpt>
      <trkpt lat="44.7046" lon="6.8518">
        <ele>1806.8</ele>
        <time>2026-03-25T13:03:20Z</time>
      </trkpt>
      <trkpt lat="44.70463" lon="6.85176">
        <ele>1806.4</ele>
        <time>2026-03-25T13:03:21Z</time>
      </trkpt>
      <trkpt lat="44.70466" lon="6.85173">
        <ele>1806.1</ele>
        <time>2026-03-25T13:03:22Z</time>
      </trkpt>
      <trkpt lat="44.70469" lon="6.85169">
        <ele>1805.8</ele>
        <time>2026-03-25T13:03:23Z</time>
      </trkpt>
      <trkpt lat="44.70471" lon="6.85166">
        <ele>1805.5</ele>
        <time>2026-03-25T13:03:24Z</time>
      </trkpt>
      <trkpt lat="44.70473" lon="6.85162">
        <ele>1805.2</ele>
        <time>2026-03-25T13:03:25Z</time>
      </trkpt>
      <trkpt lat="44.70475" lon="6.85159">
        <ele>1804.9</ele>
        <time>2026-03-25T13:03:26Z</time>
      </trkpt>
      <trkpt lat="44.70477" lon="6.85156">
        <ele>1804.7</ele>
        <time>2026-03-25T13:03:27Z</time>
      </trkpt>
      <trkpt lat="44.70479" lon="6.85151">
        <ele>1804.4</ele>
        <time>2026-03-25T13:03:28Z</time>
      </trkpt>
      <trkpt lat="44.7048" lon="6.8515">
        <ele>1804.3</ele>
        <time>2026-03-25T13:03:29Z</time>
      </trkpt>
      <trkpt lat="44.70482" lon="6.85145">
        <ele>1803.9</ele>
        <time>2026-03-25T13:03:30Z</time>
      </trkpt>
      <trkpt lat="44.70483" lon="6.85143">
        <ele>1803.8</ele>
        <time>2026-03-25T13:03:31Z</time>
      </trkpt>
      <trkpt lat="44.70485" lon="6.8514">
        <ele>1803.6</ele>
        <time>2026-03-25T13:03:32Z</time>
      </trkpt>
      <trkpt lat="44.70487" lon="6.85137">
        <ele>1803.3</ele>
        <time>2026-03-25T13:03:33Z</time>
      </trkpt>
      <trkpt lat="44.7049" lon="6.85134">
        <ele>1803</ele>
        <time>2026-03-25T13:03:34Z</time>
      </trkpt>
      <trkpt lat="44.70491" lon="6.85133">
        <ele>1802.9</ele>
        <time>2026-03-25T13:03:35Z</time>
      </trkpt>
      <trkpt lat="44.70494" lon="6.85131">
        <ele>1802.6</ele>
        <time>2026-03-25T13:03:36Z</time>
      </trkpt>
      <trkpt lat="44.70495" lon="6.85131">
        <ele>1802.5</ele>
        <time>2026-03-25T13:03:37Z</time>
      </trkpt>
      <trkpt lat="44.70498" lon="6.85129">
        <ele>1802.2</ele>
        <time>2026-03-25T13:03:38Z</time>
      </trkpt>
      <trkpt lat="44.70499" lon="6.85129">
        <ele>1802.1</ele>
        <time>2026-03-25T13:03:39Z</time>
      </trkpt>
      <trkpt lat="44.70502" lon="6.85127">
        <ele>1801.9</ele>
        <time>2026-03-25T13:03:40Z</time>
      </trkpt>
      <trkpt lat="44.70503" lon="6.85127">
        <ele>1801.8</ele>
        <time>2026-03-25T13:03:41Z</time>
      </trkpt>
      <trkpt lat="44.70506" lon="6.85126">
        <ele>1801.5</ele>
        <time>2026-03-25T13:03:42Z</time>
      </trkpt>
      <trkpt lat="44.70506" lon="6.85125">
        <ele>1801.4</ele>
        <time>2026-03-25T13:03:43Z</time>
      </trkpt>
      <trkpt lat="44.70509" lon="6.85124">
        <ele>1801.2</ele>
        <time>2026-03-25T13:03:44Z</time>
      </trkpt>
      <trkpt lat="44.7051" lon="6.85124">
        <ele>1801.1</ele>
        <time>2026-03-25T13:03:45Z</time>
      </trkpt>
      <trkpt lat="44.70514" lon="6.85121">
        <ele>1800.7</ele>
        <time>2026-03-25T13:03:46Z</time>
      </trkpt>
      <trkpt lat="44.70515" lon="6.85121">
        <ele>1800.6</ele>
        <time>2026-03-25T13:03:47Z</time>
      </trkpt>
      <trkpt lat="44.70518" lon="6.85119">
        <ele>1800.3</ele>
        <time>2026-03-25T13:03:48Z</time>
      </trkpt>
      <trkpt lat="44.70522" lon="6.85118">
        <ele>1799.9</ele>
        <time>2026-03-25T13:03:49Z</time>
      </trkpt>
      <trkpt lat="44.70526" lon="6.85116">
        <ele>1799.6</ele>
        <time>2026-03-25T13:03:50Z</time>
      </trkpt>
      <trkpt lat="44.70529" lon="6.85115">
        <ele>1799.3</ele>
        <time>2026-03-25T13:03:51Z</time>
      </trkpt>
      <trkpt lat="44.70532" lon="6.85113">
        <ele>1799</ele>
        <time>2026-03-25T13:03:52Z</time>
      </trkpt>
      <trkpt lat="44.70536" lon="6.85111">
        <ele>1798.6</ele>
        <time>2026-03-25T13:03:53Z</time>
      </trkpt>
      <trkpt lat="44.70539" lon="6.85109">
        <ele>1798.3</ele>
        <time>2026-03-25T13:03:54Z</time>
      </trkpt>
      <trkpt lat="44.70542" lon="6.85107">
        <ele>1798.1</ele>
        <time>2026-03-25T13:03:55Z</time>
      </trkpt>
      <trkpt lat="44.70544" lon="6.85105">
        <ele>1797.8</ele>
        <time>2026-03-25T13:03:56Z</time>
      </trkpt>
      <trkpt lat="44.70547" lon="6.85102">
        <ele>1797.6</ele>
        <time>2026-03-25T13:03:57Z</time>
      </trkpt>
      <trkpt lat="44.7055" lon="6.851">
        <ele>1797.3</ele>
        <time>2026-03-25T13:03:58Z</time>
      </trkpt>
      <trkpt lat="44.70552" lon="6.85099">
        <ele>1797.1</ele>
        <time>2026-03-25T13:03:59Z</time>
      </trkpt>
      <trkpt lat="44.70555" lon="6.85097">
        <ele>1796.8</ele>
        <time>2026-03-25T13:04:00Z</time>
      </trkpt>
      <trkpt lat="44.70558" lon="6.85096">
        <ele>1796.5</ele>
        <time>2026-03-25T13:04:01Z</time>
      </trkpt>
      <trkpt lat="44.70561" lon="6.85095">
        <ele>1796.3</ele>
        <time>2026-03-25T13:04:02Z</time>
      </trkpt>
      <trkpt lat="44.70564" lon="6.85092">
        <ele>1795.9</ele>
        <time>2026-03-25T13:04:03Z</time>
      </trkpt>
      <trkpt lat="44.70565" lon="6.85091">
        <ele>1795.8</ele>
        <time>2026-03-25T13:04:04Z</time>
      </trkpt>
      <trkpt lat="44.70568" lon="6.85089">
        <ele>1795.4</ele>
        <time>2026-03-25T13:04:05Z</time>
      </trkpt>
      <trkpt lat="44.70569" lon="6.85088">
        <ele>1795.3</ele>
        <time>2026-03-25T13:04:06Z</time>
      </trkpt>
      <trkpt lat="44.70572" lon="6.85084">
        <ele>1794.9</ele>
        <time>2026-03-25T13:04:07Z</time>
      </trkpt>
      <trkpt lat="44.70575" lon="6.8508">
        <ele>1794.5</ele>
        <time>2026-03-25T13:04:08Z</time>
      </trkpt>
      <trkpt lat="44.70578" lon="6.85076">
        <ele>1794</ele>
        <time>2026-03-25T13:04:09Z</time>
      </trkpt>
      <trkpt lat="44.70582" lon="6.8507">
        <ele>1793.4</ele>
        <time>2026-03-25T13:04:10Z</time>
      </trkpt>
      <trkpt lat="44.70586" lon="6.85066">
        <ele>1793.1</ele>
        <time>2026-03-25T13:04:11Z</time>
      </trkpt>
      <trkpt lat="44.7059" lon="6.85064">
        <ele>1792.8</ele>
        <time>2026-03-25T13:04:12Z</time>
      </trkpt>
      <trkpt lat="44.70593" lon="6.85059">
        <ele>1792.4</ele>
        <time>2026-03-25T13:04:13Z</time>
      </trkpt>
      <trkpt lat="44.70596" lon="6.85057">
        <ele>1792.2</ele>
        <time>2026-03-25T13:04:14Z</time>
      </trkpt>
      <trkpt lat="44.706" lon="6.85055">
        <ele>1791.9</ele>
        <time>2026-03-25T13:04:15Z</time>
      </trkpt>
      <trkpt lat="44.70604" lon="6.85052">
        <ele>1791.6</ele>
        <time>2026-03-25T13:04:16Z</time>
      </trkpt>
      <trkpt lat="44.70608" lon="6.85049">
        <ele>1791.3</ele>
        <time>2026-03-25T13:04:17Z</time>
      </trkpt>
      <trkpt lat="44.70612" lon="6.85046">
        <ele>1791</ele>
        <time>2026-03-25T13:04:18Z</time>
      </trkpt>
      <trkpt lat="44.70615" lon="6.85042">
        <ele>1790.7</ele>
        <time>2026-03-25T13:04:19Z</time>
      </trkpt>
      <trkpt lat="44.7062" lon="6.85038">
        <ele>1790.3</ele>
        <time>2026-03-25T13:04:20Z</time>
      </trkpt>
      <trkpt lat="44.70624" lon="6.85034">
        <ele>1790</ele>
        <time>2026-03-25T13:04:21Z</time>
      </trkpt>
      <trkpt lat="44.7063" lon="6.85032">
        <ele>1789.6</ele>
        <time>2026-03-25T13:04:22Z</time>
      </trkpt>
      <trkpt lat="44.70634" lon="6.85028">
        <ele>1789.3</ele>
        <time>2026-03-25T13:04:23Z</time>
      </trkpt>
      <trkpt lat="44.70639" lon="6.85025">
        <ele>1789</ele>
        <time>2026-03-25T13:04:24Z</time>
      </trkpt>
      <trkpt lat="44.70643" lon="6.85022">
        <ele>1788.7</ele>
        <time>2026-03-25T13:04:25Z</time>
      </trkpt>
      <trkpt lat="44.70648" lon="6.85019">
        <ele>1788.4</ele>
        <time>2026-03-25T13:04:26Z</time>
      </trkpt>
      <trkpt lat="44.70654" lon="6.85015">
        <ele>1788</ele>
        <time>2026-03-25T13:04:27Z</time>
      </trkpt>
      <trkpt lat="44.70658" lon="6.85011">
        <ele>1787.7</ele>
        <time>2026-03-25T13:04:28Z</time>
      </trkpt>
      <trkpt lat="44.70662" lon="6.85008">
        <ele>1787.5</ele>
        <time>2026-03-25T13:04:29Z</time>
      </trkpt>
      <trkpt lat="44.70666" lon="6.85004">
        <ele>1787.2</ele>
        <time>2026-03-25T13:04:30Z</time>
      </trkpt>
      <trkpt lat="44.7067" lon="6.85001">
        <ele>1787.1</ele>
        <time>2026-03-25T13:04:31Z</time>
      </trkpt>
      <trkpt lat="44.70674" lon="6.84998">
        <ele>1786.9</ele>
        <time>2026-03-25T13:04:32Z</time>
      </trkpt>
      <trkpt lat="44.70677" lon="6.84996">
        <ele>1786.8</ele>
        <time>2026-03-25T13:04:33Z</time>
      </trkpt>
      <trkpt lat="44.7068" lon="6.84993">
        <ele>1786.7</ele>
        <time>2026-03-25T13:04:34Z</time>
      </trkpt>
      <trkpt lat="44.70683" lon="6.84991">
        <ele>1786.6</ele>
        <time>2026-03-25T13:04:35Z</time>
      </trkpt>
      <trkpt lat="44.70684" lon="6.8499">
        <ele>1786.6</ele>
        <time>2026-03-25T13:04:36Z</time>
      </trkpt>
      <trkpt lat="44.70686" lon="6.84987">
        <ele>1786.5</ele>
        <time>2026-03-25T13:04:37Z</time>
      </trkpt>
      <trkpt lat="44.70687" lon="6.84986">
        <ele>1786.5</ele>
        <time>2026-03-25T13:04:38Z</time>
      </trkpt>
      <trkpt lat="44.70689" lon="6.84985">
        <ele>1786.4</ele>
        <time>2026-03-25T13:04:39Z</time>
      </trkpt>
      <trkpt lat="44.7069" lon="6.84983">
        <ele>1786.3</ele>
        <time>2026-03-25T13:04:40Z</time>
      </trkpt>
      <trkpt lat="44.70691" lon="6.84982">
        <ele>1786.3</ele>
        <time>2026-03-25T13:04:41Z</time>
      </trkpt>
      <trkpt lat="44.70693" lon="6.8498">
        <ele>1786.2</ele>
        <time>2026-03-25T13:04:42Z</time>
      </trkpt>
      <trkpt lat="44.70696" lon="6.84978">
        <ele>1786.1</ele>
        <time>2026-03-25T13:04:43Z</time>
      </trkpt>
      <trkpt lat="44.70696" lon="6.84977">
        <ele>1786.1</ele>
        <time>2026-03-25T13:04:44Z</time>
      </trkpt>
      <trkpt lat="44.707" lon="6.84975">
        <ele>1785.9</ele>
        <time>2026-03-25T13:04:45Z</time>
      </trkpt>
      <trkpt lat="44.70701" lon="6.84974">
        <ele>1785.9</ele>
        <time>2026-03-25T13:04:46Z</time>
      </trkpt>
      <trkpt lat="44.70703" lon="6.84972">
        <ele>1785.7</ele>
        <time>2026-03-25T13:04:47Z</time>
      </trkpt>
      <trkpt lat="44.70707" lon="6.84968">
        <ele>1785.6</ele>
        <time>2026-03-25T13:04:48Z</time>
      </trkpt>
      <trkpt lat="44.70708" lon="6.84967">
        <ele>1785.5</ele>
        <time>2026-03-25T13:04:49Z</time>
      </trkpt>
      <trkpt lat="44.70711" lon="6.84965">
        <ele>1785.3</ele>
        <time>2026-03-25T13:04:50Z</time>
      </trkpt>
      <trkpt lat="44.70713" lon="6.84963">
        <ele>1785.2</ele>
        <time>2026-03-25T13:04:51Z</time>
      </trkpt>
      <trkpt lat="44.70716" lon="6.84961">
        <ele>1785.1</ele>
        <time>2026-03-25T13:04:52Z</time>
      </trkpt>
      <trkpt lat="44.70719" lon="6.84959">
        <ele>1784.9</ele>
        <time>2026-03-25T13:04:53Z</time>
      </trkpt>
      <trkpt lat="44.7072" lon="6.84958">
        <ele>1784.8</ele>
        <time>2026-03-25T13:04:54Z</time>
      </trkpt>
      <trkpt lat="44.70724" lon="6.84955">
        <ele>1784.6</ele>
        <time>2026-03-25T13:04:55Z</time>
      </trkpt>
      <trkpt lat="44.70726" lon="6.84954">
        <ele>1784.5</ele>
        <time>2026-03-25T13:04:56Z</time>
      </trkpt>
      <trkpt lat="44.70729" lon="6.84951">
        <ele>1784.3</ele>
        <time>2026-03-25T13:04:57Z</time>
      </trkpt>
      <trkpt lat="44.70731" lon="6.8495">
        <ele>1784.2</ele>
        <time>2026-03-25T13:04:58Z</time>
      </trkpt>
      <trkpt lat="44.70734" lon="6.84948">
        <ele>1784</ele>
        <time>2026-03-25T13:04:59Z</time>
      </trkpt>
      <trkpt lat="44.70737" lon="6.84946">
        <ele>1783.9</ele>
        <time>2026-03-25T13:05:00Z</time>
      </trkpt>
      <trkpt lat="44.70739" lon="6.84945">
        <ele>1783.7</ele>
        <time>2026-03-25T13:05:01Z</time>
      </trkpt>
      <trkpt lat="44.70741" lon="6.84945">
        <ele>1783.6</ele>
        <time>2026-03-25T13:05:02Z</time>
      </trkpt>
      <trkpt lat="44.70742" lon="6.84945">
        <ele>1783.6</ele>
        <time>2026-03-25T13:05:03Z</time>
      </trkpt>
      <trkpt lat="44.70744" lon="6.84945">
        <ele>1783.4</ele>
        <time>2026-03-25T13:05:04Z</time>
      </trkpt>
      <trkpt lat="44.70745" lon="6.84944">
        <ele>1783.4</ele>
        <time>2026-03-25T13:05:05Z</time>
      </trkpt>
      <trkpt lat="44.70746" lon="6.84944">
        <ele>1783.3</ele>
        <time>2026-03-25T13:05:06Z</time>
      </trkpt>
      <trkpt lat="44.70748" lon="6.84943">
        <ele>1783.2</ele>
        <time>2026-03-25T13:05:07Z</time>
      </trkpt>
      <trkpt lat="44.7075" lon="6.84942">
        <ele>1783.2</ele>
        <time>2026-03-25T13:05:08Z</time>
      </trkpt>
      <trkpt lat="44.70751" lon="6.84941">
        <ele>1783.1</ele>
        <time>2026-03-25T13:05:09Z</time>
      </trkpt>
      <trkpt lat="44.70752" lon="6.8494">
        <ele>1783</ele>
        <time>2026-03-25T13:05:10Z</time>
      </trkpt>
      <trkpt lat="44.70755" lon="6.84939">
        <ele>1782.9</ele>
        <time>2026-03-25T13:05:11Z</time>
      </trkpt>
      <trkpt lat="44.70757" lon="6.84939">
        <ele>1782.8</ele>
        <time>2026-03-25T13:05:12Z</time>
      </trkpt>
      <trkpt lat="44.70761" lon="6.84938">
        <ele>1782.6</ele>
        <time>2026-03-25T13:05:13Z</time>
      </trkpt>
      <trkpt lat="44.70762" lon="6.84937">
        <ele>1782.5</ele>
        <time>2026-03-25T13:05:14Z</time>
      </trkpt>
      <trkpt lat="44.70766" lon="6.84937">
        <ele>1782.3</ele>
        <time>2026-03-25T13:05:15Z</time>
      </trkpt>
      <trkpt lat="44.70767" lon="6.84937">
        <ele>1782.3</ele>
        <time>2026-03-25T13:05:16Z</time>
      </trkpt>
      <trkpt lat="44.70771" lon="6.84936">
        <ele>1782.1</ele>
        <time>2026-03-25T13:05:17Z</time>
      </trkpt>
      <trkpt lat="44.70773" lon="6.84936">
        <ele>1782</ele>
        <time>2026-03-25T13:05:18Z</time>
      </trkpt>
      <trkpt lat="44.70776" lon="6.84935">
        <ele>1781.9</ele>
        <time>2026-03-25T13:05:19Z</time>
      </trkpt>
      <trkpt lat="44.70779" lon="6.84935">
        <ele>1781.8</ele>
        <time>2026-03-25T13:05:20Z</time>
      </trkpt>
      <trkpt lat="44.70783" lon="6.84933">
        <ele>1781.6</ele>
        <time>2026-03-25T13:05:21Z</time>
      </trkpt>
      <trkpt lat="44.70784" lon="6.84933">
        <ele>1781.5</ele>
        <time>2026-03-25T13:05:22Z</time>
      </trkpt>
      <trkpt lat="44.70787" lon="6.84932">
        <ele>1781.4</ele>
        <time>2026-03-25T13:05:23Z</time>
      </trkpt>
      <trkpt lat="44.70788" lon="6.84932">
        <ele>1781.3</ele>
        <time>2026-03-25T13:05:24Z</time>
      </trkpt>
      <trkpt lat="44.70792" lon="6.8493">
        <ele>1781.2</ele>
        <time>2026-03-25T13:05:25Z</time>
      </trkpt>
      <trkpt lat="44.70793" lon="6.8493">
        <ele>1781.1</ele>
        <time>2026-03-25T13:05:26Z</time>
      </trkpt>
      <trkpt lat="44.70796" lon="6.84929">
        <ele>1781</ele>
        <time>2026-03-25T13:05:27Z</time>
      </trkpt>
      <trkpt lat="44.70799" lon="6.84928">
        <ele>1780.9</ele>
        <time>2026-03-25T13:05:28Z</time>
      </trkpt>
      <trkpt lat="44.708" lon="6.84927">
        <ele>1780.8</ele>
        <time>2026-03-25T13:05:29Z</time>
      </trkpt>
      <trkpt lat="44.70803" lon="6.84926">
        <ele>1780.7</ele>
        <time>2026-03-25T13:05:30Z</time>
      </trkpt>
      <trkpt lat="44.70806" lon="6.84925">
        <ele>1780.6</ele>
        <time>2026-03-25T13:05:31Z</time>
      </trkpt>
      <trkpt lat="44.70809" lon="6.84925">
        <ele>1780.5</ele>
        <time>2026-03-25T13:05:32Z</time>
      </trkpt>
      <trkpt lat="44.70813" lon="6.84923">
        <ele>1780.3</ele>
        <time>2026-03-25T13:05:33Z</time>
      </trkpt>
      <trkpt lat="44.70814" lon="6.84922">
        <ele>1780.3</ele>
        <time>2026-03-25T13:05:34Z</time>
      </trkpt>
      <trkpt lat="44.70817" lon="6.84921">
        <ele>1780.1</ele>
        <time>2026-03-25T13:05:35Z</time>
      </trkpt>
      <trkpt lat="44.70818" lon="6.84921">
        <ele>1780.1</ele>
        <time>2026-03-25T13:05:36Z</time>
      </trkpt>
      <trkpt lat="44.7082" lon="6.84919">
        <ele>1779.9</ele>
        <time>2026-03-25T13:05:37Z</time>
      </trkpt>
      <trkpt lat="44.70822" lon="6.84918">
        <ele>1779.8</ele>
        <time>2026-03-25T13:05:38Z</time>
      </trkpt>
      <trkpt lat="44.70824" lon="6.84917">
        <ele>1779.7</ele>
        <time>2026-03-25T13:05:39Z</time>
      </trkpt>
      <trkpt lat="44.70828" lon="6.84915">
        <ele>1779.4</ele>
        <time>2026-03-25T13:05:40Z</time>
      </trkpt>
      <trkpt lat="44.7083" lon="6.84915">
        <ele>1779.3</ele>
        <time>2026-03-25T13:05:41Z</time>
      </trkpt>
      <trkpt lat="44.70834" lon="6.84913">
        <ele>1779.1</ele>
        <time>2026-03-25T13:05:42Z</time>
      </trkpt>
      <trkpt lat="44.70835" lon="6.84913">
        <ele>1779</ele>
        <time>2026-03-25T13:05:43Z</time>
      </trkpt>
      <trkpt lat="44.70838" lon="6.84912">
        <ele>1778.8</ele>
        <time>2026-03-25T13:05:44Z</time>
      </trkpt>
      <trkpt lat="44.70841" lon="6.84909">
        <ele>1778.6</ele>
        <time>2026-03-25T13:05:45Z</time>
      </trkpt>
      <trkpt lat="44.70844" lon="6.84905">
        <ele>1778.4</ele>
        <time>2026-03-25T13:05:46Z</time>
      </trkpt>
      <trkpt lat="44.70847" lon="6.84902">
        <ele>1778.2</ele>
        <time>2026-03-25T13:05:47Z</time>
      </trkpt>
      <trkpt lat="44.70851" lon="6.84899">
        <ele>1778.1</ele>
        <time>2026-03-25T13:05:48Z</time>
      </trkpt>
      <trkpt lat="44.70855" lon="6.84896">
        <ele>1777.9</ele>
        <time>2026-03-25T13:05:49Z</time>
      </trkpt>
      <trkpt lat="44.70858" lon="6.84893">
        <ele>1777.8</ele>
        <time>2026-03-25T13:05:50Z</time>
      </trkpt>
      <trkpt lat="44.70861" lon="6.84891">
        <ele>1777.6</ele>
        <time>2026-03-25T13:05:51Z</time>
      </trkpt>
      <trkpt lat="44.70864" lon="6.84888">
        <ele>1777.5</ele>
        <time>2026-03-25T13:05:52Z</time>
      </trkpt>
      <trkpt lat="44.70867" lon="6.84885">
        <ele>1777.4</ele>
        <time>2026-03-25T13:05:53Z</time>
      </trkpt>
      <trkpt lat="44.7087" lon="6.84882">
        <ele>1777.2</ele>
        <time>2026-03-25T13:05:54Z</time>
      </trkpt>
      <trkpt lat="44.70873" lon="6.8488">
        <ele>1777.1</ele>
        <time>2026-03-25T13:05:55Z</time>
      </trkpt>
      <trkpt lat="44.70876" lon="6.84878">
        <ele>1777</ele>
        <time>2026-03-25T13:05:56Z</time>
      </trkpt>
      <trkpt lat="44.70879" lon="6.84876">
        <ele>1776.9</ele>
        <time>2026-03-25T13:05:57Z</time>
      </trkpt>
      <trkpt lat="44.70882" lon="6.84874">
        <ele>1776.8</ele>
        <time>2026-03-25T13:05:58Z</time>
      </trkpt>
      <trkpt lat="44.70884" lon="6.84871">
        <ele>1776.6</ele>
        <time>2026-03-25T13:05:59Z</time>
      </trkpt>
      <trkpt lat="44.70887" lon="6.84868">
        <ele>1776.5</ele>
        <time>2026-03-25T13:06:00Z</time>
      </trkpt>
      <trkpt lat="44.7089" lon="6.84865">
        <ele>1776.4</ele>
        <time>2026-03-25T13:06:01Z</time>
      </trkpt>
      <trkpt lat="44.70893" lon="6.84862">
        <ele>1776.2</ele>
        <time>2026-03-25T13:06:02Z</time>
      </trkpt>
      <trkpt lat="44.70896" lon="6.84859">
        <ele>1776.1</ele>
        <time>2026-03-25T13:06:03Z</time>
      </trkpt>
      <trkpt lat="44.70899" lon="6.84856">
        <ele>1775.9</ele>
        <time>2026-03-25T13:06:04Z</time>
      </trkpt>
      <trkpt lat="44.70902" lon="6.84853">
        <ele>1775.7</ele>
        <time>2026-03-25T13:06:05Z</time>
      </trkpt>
      <trkpt lat="44.70903" lon="6.84852">
        <ele>1775.7</ele>
        <time>2026-03-25T13:06:06Z</time>
      </trkpt>
      <trkpt lat="44.70906" lon="6.8485">
        <ele>1775.5</ele>
        <time>2026-03-25T13:06:07Z</time>
      </trkpt>
      <trkpt lat="44.70909" lon="6.84848">
        <ele>1775.4</ele>
        <time>2026-03-25T13:06:08Z</time>
      </trkpt>
      <trkpt lat="44.70912" lon="6.84846">
        <ele>1775.2</ele>
        <time>2026-03-25T13:06:09Z</time>
      </trkpt>
      <trkpt lat="44.70916" lon="6.84844">
        <ele>1775.1</ele>
        <time>2026-03-25T13:06:10Z</time>
      </trkpt>
      <trkpt lat="44.70919" lon="6.84843">
        <ele>1775</ele>
        <time>2026-03-25T13:06:11Z</time>
      </trkpt>
      <trkpt lat="44.70922" lon="6.84842">
        <ele>1774.9</ele>
        <time>2026-03-25T13:06:12Z</time>
      </trkpt>
      <trkpt lat="44.70925" lon="6.84841">
        <ele>1774.8</ele>
        <time>2026-03-25T13:06:13Z</time>
      </trkpt>
      <trkpt lat="44.70929" lon="6.84841">
        <ele>1774.7</ele>
        <time>2026-03-25T13:06:14Z</time>
      </trkpt>
      <trkpt lat="44.7093" lon="6.84841">
        <ele>1774.6</ele>
        <time>2026-03-25T13:06:15Z</time>
      </trkpt>
      <trkpt lat="44.70933" lon="6.84841">
        <ele>1774.5</ele>
        <time>2026-03-25T13:06:16Z</time>
      </trkpt>
      <trkpt lat="44.70937" lon="6.84841">
        <ele>1774.3</ele>
        <time>2026-03-25T13:06:17Z</time>
      </trkpt>
      <trkpt lat="44.70938" lon="6.84841">
        <ele>1774.3</ele>
        <time>2026-03-25T13:06:18Z</time>
      </trkpt>
      <trkpt lat="44.70941" lon="6.84842">
        <ele>1774.1</ele>
        <time>2026-03-25T13:06:19Z</time>
      </trkpt>
      <trkpt lat="44.70942" lon="6.84842">
        <ele>1774.1</ele>
        <time>2026-03-25T13:06:20Z</time>
      </trkpt>
      <trkpt lat="44.70945" lon="6.84843">
        <ele>1774</ele>
        <time>2026-03-25T13:06:21Z</time>
      </trkpt>
      <trkpt lat="44.70948" lon="6.84843">
        <ele>1773.8</ele>
        <time>2026-03-25T13:06:22Z</time>
      </trkpt>
      <trkpt lat="44.70951" lon="6.84844">
        <ele>1773.7</ele>
        <time>2026-03-25T13:06:23Z</time>
      </trkpt>
      <trkpt lat="44.70955" lon="6.84845">
        <ele>1773.5</ele>
        <time>2026-03-25T13:06:24Z</time>
      </trkpt>
      <trkpt lat="44.70958" lon="6.84846">
        <ele>1773.4</ele>
        <time>2026-03-25T13:06:25Z</time>
      </trkpt>
      <trkpt lat="44.70961" lon="6.84847">
        <ele>1773.2</ele>
        <time>2026-03-25T13:06:26Z</time>
      </trkpt>
      <trkpt lat="44.70964" lon="6.84848">
        <ele>1773.1</ele>
        <time>2026-03-25T13:06:27Z</time>
      </trkpt>
      <trkpt lat="44.70967" lon="6.8485">
        <ele>1772.9</ele>
        <time>2026-03-25T13:06:28Z</time>
      </trkpt>
      <trkpt lat="44.7097" lon="6.84851">
        <ele>1772.8</ele>
        <time>2026-03-25T13:06:29Z</time>
      </trkpt>
      <trkpt lat="44.70973" lon="6.84853">
        <ele>1772.6</ele>
        <time>2026-03-25T13:06:30Z</time>
      </trkpt>
      <trkpt lat="44.70976" lon="6.84854">
        <ele>1772.5</ele>
        <time>2026-03-25T13:06:31Z</time>
      </trkpt>
      <trkpt lat="44.70979" lon="6.84855">
        <ele>1772.4</ele>
        <time>2026-03-25T13:06:32Z</time>
      </trkpt>
      <trkpt lat="44.70981" lon="6.84857">
        <ele>1772.3</ele>
        <time>2026-03-25T13:06:33Z</time>
      </trkpt>
      <trkpt lat="44.70984" lon="6.84858">
        <ele>1772.2</ele>
        <time>2026-03-25T13:06:34Z</time>
      </trkpt>
      <trkpt lat="44.70987" lon="6.8486">
        <ele>1772.1</ele>
        <time>2026-03-25T13:06:35Z</time>
      </trkpt>
      <trkpt lat="44.7099" lon="6.84861">
        <ele>1772</ele>
        <time>2026-03-25T13:06:36Z</time>
      </trkpt>
      <trkpt lat="44.70993" lon="6.84863">
        <ele>1771.9</ele>
        <time>2026-03-25T13:06:37Z</time>
      </trkpt>
      <trkpt lat="44.70996" lon="6.84865">
        <ele>1771.8</ele>
        <time>2026-03-25T13:06:38Z</time>
      </trkpt>
      <trkpt lat="44.70997" lon="6.84865">
        <ele>1771.7</ele>
        <time>2026-03-25T13:06:39Z</time>
      </trkpt>
      <trkpt lat="44.71" lon="6.84866">
        <ele>1771.6</ele>
        <time>2026-03-25T13:06:40Z</time>
      </trkpt>
      <trkpt lat="44.71003" lon="6.84867">
        <ele>1771.5</ele>
        <time>2026-03-25T13:06:41Z</time>
      </trkpt>
      <trkpt lat="44.71006" lon="6.84868">
        <ele>1771.4</ele>
        <time>2026-03-25T13:06:42Z</time>
      </trkpt>
      <trkpt lat="44.71007" lon="6.84869">
        <ele>1771.3</ele>
        <time>2026-03-25T13:06:43Z</time>
      </trkpt>
      <trkpt lat="44.71011" lon="6.84869">
        <ele>1771.2</ele>
        <time>2026-03-25T13:06:44Z</time>
      </trkpt>
      <trkpt lat="44.71013" lon="6.84869">
        <ele>1771.1</ele>
        <time>2026-03-25T13:06:45Z</time>
      </trkpt>
      <trkpt lat="44.71017" lon="6.8487">
        <ele>1771</ele>
        <time>2026-03-25T13:06:46Z</time>
      </trkpt>
      <trkpt lat="44.71018" lon="6.84871">
        <ele>1770.9</ele>
        <time>2026-03-25T13:06:47Z</time>
      </trkpt>
      <trkpt lat="44.71021" lon="6.84871">
        <ele>1770.8</ele>
        <time>2026-03-25T13:06:48Z</time>
      </trkpt>
      <trkpt lat="44.71025" lon="6.84871">
        <ele>1770.7</ele>
        <time>2026-03-25T13:06:49Z</time>
      </trkpt>
      <trkpt lat="44.71026" lon="6.84871">
        <ele>1770.7</ele>
        <time>2026-03-25T13:06:50Z</time>
      </trkpt>
      <trkpt lat="44.71029" lon="6.8487">
        <ele>1770.6</ele>
        <time>2026-03-25T13:06:51Z</time>
      </trkpt>
      <trkpt lat="44.71032" lon="6.84869">
        <ele>1770.5</ele>
        <time>2026-03-25T13:06:52Z</time>
      </trkpt>
      <trkpt lat="44.71033" lon="6.84869">
        <ele>1770.5</ele>
        <time>2026-03-25T13:06:53Z</time>
      </trkpt>
      <trkpt lat="44.71037" lon="6.84868">
        <ele>1770.4</ele>
        <time>2026-03-25T13:06:54Z</time>
      </trkpt>
      <trkpt lat="44.71038" lon="6.84867">
        <ele>1770.3</ele>
        <time>2026-03-25T13:06:55Z</time>
      </trkpt>
      <trkpt lat="44.7104" lon="6.84866">
        <ele>1770.3</ele>
        <time>2026-03-25T13:06:56Z</time>
      </trkpt>
      <trkpt lat="44.71041" lon="6.84866">
        <ele>1770.3</ele>
        <time>2026-03-25T13:06:57Z</time>
      </trkpt>
      <trkpt lat="44.71043" lon="6.84865">
        <ele>1770.2</ele>
        <time>2026-03-25T13:06:58Z</time>
      </trkpt>
      <trkpt lat="44.71044" lon="6.84864">
        <ele>1770.2</ele>
        <time>2026-03-25T13:06:59Z</time>
      </trkpt>
      <trkpt lat="44.71047" lon="6.84862">
        <ele>1770.1</ele>
        <time>2026-03-25T13:07:00Z</time>
      </trkpt>
      <trkpt lat="44.71048" lon="6.84861">
        <ele>1770.1</ele>
        <time>2026-03-25T13:07:01Z</time>
      </trkpt>
      <trkpt lat="44.71051" lon="6.84859">
        <ele>1770.1</ele>
        <time>2026-03-25T13:07:02Z</time>
      </trkpt>
      <trkpt lat="44.71052" lon="6.84858">
        <ele>1770</ele>
        <time>2026-03-25T13:07:03Z</time>
      </trkpt>
      <trkpt lat="44.71055" lon="6.84855">
        <ele>1770</ele>
        <time>2026-03-25T13:07:04Z</time>
      </trkpt>
      <trkpt lat="44.71056" lon="6.84854">
        <ele>1770</ele>
        <time>2026-03-25T13:07:05Z</time>
      </trkpt>
      <trkpt lat="44.71059" lon="6.84852">
        <ele>1770</ele>
        <time>2026-03-25T13:07:06Z</time>
      </trkpt>
      <trkpt lat="44.71059" lon="6.84851">
        <ele>1770</ele>
        <time>2026-03-25T13:07:07Z</time>
      </trkpt>
      <trkpt lat="44.71062" lon="6.84849">
        <ele>1770</ele>
        <time>2026-03-25T13:07:08Z</time>
      </trkpt>
      <trkpt lat="44.71063" lon="6.84848">
        <ele>1770</ele>
        <time>2026-03-25T13:07:09Z</time>
      </trkpt>
      <trkpt lat="44.71066" lon="6.84845">
        <ele>1770</ele>
        <time>2026-03-25T13:07:10Z</time>
      </trkpt>
      <trkpt lat="44.71067" lon="6.84844">
        <ele>1770</ele>
        <time>2026-03-25T13:07:11Z</time>
      </trkpt>
      <trkpt lat="44.7107" lon="6.84841">
        <ele>1770</ele>
        <time>2026-03-25T13:07:12Z</time>
      </trkpt>
      <trkpt lat="44.71071" lon="6.8484">
        <ele>1770</ele>
        <time>2026-03-25T13:07:13Z</time>
      </trkpt>
      <trkpt lat="44.71072" lon="6.84839">
        <ele>1770</ele>
        <time>2026-03-25T13:07:14Z</time>
      </trkpt>
      <trkpt lat="44.71074" lon="6.84838">
        <ele>1770</ele>
        <time>2026-03-25T13:07:15Z</time>
      </trkpt>
      <trkpt lat="44.71075" lon="6.84836">
        <ele>1770</ele>
        <time>2026-03-25T13:07:16Z</time>
      </trkpt>
      <trkpt lat="44.71077" lon="6.84835">
        <ele>1770</ele>
        <time>2026-03-25T13:07:17Z</time>
      </trkpt>
      <trkpt lat="44.71078" lon="6.84834">
        <ele>1769.9</ele>
        <time>2026-03-25T13:07:18Z</time>
      </trkpt>
      <trkpt lat="44.71079" lon="6.84832">
        <ele>1769.9</ele>
        <time>2026-03-25T13:07:19Z</time>
      </trkpt>
      <trkpt lat="44.7108" lon="6.84831">
        <ele>1769.9</ele>
        <time>2026-03-25T13:07:20Z</time>
      </trkpt>
      <trkpt lat="44.71082" lon="6.84831">
        <ele>1769.9</ele>
        <time>2026-03-25T13:07:21Z</time>
      </trkpt>
      <trkpt lat="44.71082" lon="6.8483">
        <ele>1769.9</ele>
        <time>2026-03-25T13:07:22Z</time>
      </trkpt>
      <trkpt lat="44.71084" lon="6.84829">
        <ele>1769.9</ele>
        <time>2026-03-25T13:07:23Z</time>
      </trkpt>
      <trkpt lat="44.71084" lon="6.84829">
        <ele>1769.9</ele>
        <time>2026-03-25T13:07:24Z</time>
      </trkpt>
      <trkpt lat="44.71085" lon="6.84828">
        <ele>1769.9</ele>
        <time>2026-03-25T13:07:25Z</time>
      </trkpt>
      <trkpt lat="44.71086" lon="6.84828">
        <ele>1769.9</ele>
        <time>2026-03-25T13:07:26Z</time>
      </trkpt>
      <trkpt lat="44.71086" lon="6.84828">
        <ele>1769.9</ele>
        <time>2026-03-25T13:07:27Z</time>
      </trkpt>
      <trkpt lat="44.71087" lon="6.84827">
        <ele>1769.9</ele>
        <time>2026-03-25T13:07:28Z</time>
      </trkpt>
      <trkpt lat="44.71088" lon="6.84827">
        <ele>1769.8</ele>
        <time>2026-03-25T13:07:29Z</time>
      </trkpt>
      <trkpt lat="44.71089" lon="6.84827">
        <ele>1769.8</ele>
        <time>2026-03-25T13:07:30Z</time>
      </trkpt>
      <trkpt lat="44.7109" lon="6.84827">
        <ele>1769.8</ele>
        <time>2026-03-25T13:07:31Z</time>
      </trkpt>
      <trkpt lat="44.71091" lon="6.84827">
        <ele>1769.8</ele>
        <time>2026-03-25T13:07:32Z</time>
      </trkpt>
      <trkpt lat="44.71093" lon="6.84827">
        <ele>1769.8</ele>
        <time>2026-03-25T13:07:33Z</time>
      </trkpt>
      <trkpt lat="44.71094" lon="6.84827">
        <ele>1769.8</ele>
        <time>2026-03-25T13:07:34Z</time>
      </trkpt>
      <trkpt lat="44.71094" lon="6.84827">
        <ele>1769.8</ele>
        <time>2026-03-25T13:07:35Z</time>
      </trkpt>
      <trkpt lat="44.71096" lon="6.84827">
        <ele>1769.7</ele>
        <time>2026-03-25T13:07:36Z</time>
      </trkpt>
      <trkpt lat="44.71097" lon="6.84827">
        <ele>1769.7</ele>
        <time>2026-03-25T13:07:37Z</time>
      </trkpt>
      <trkpt lat="44.71098" lon="6.84827">
        <ele>1769.7</ele>
        <time>2026-03-25T13:07:38Z</time>
      </trkpt>
      <trkpt lat="44.71099" lon="6.84828">
        <ele>1769.7</ele>
        <time>2026-03-25T13:07:39Z</time>
      </trkpt>
      <trkpt lat="44.711" lon="6.84828">
        <ele>1769.7</ele>
        <time>2026-03-25T13:07:40Z</time>
      </trkpt>
      <trkpt lat="44.71101" lon="6.84829">
        <ele>1769.6</ele>
        <time>2026-03-25T13:07:41Z</time>
      </trkpt>
      <trkpt lat="44.71101" lon="6.84829">
        <ele>1769.6</ele>
        <time>2026-03-25T13:07:42Z</time>
      </trkpt>
      <trkpt lat="44.71102" lon="6.84829">
        <ele>1769.6</ele>
        <time>2026-03-25T13:07:43Z</time>
      </trkpt>
      <trkpt lat="44.71103" lon="6.84829">
        <ele>1769.6</ele>
        <time>2026-03-25T13:07:44Z</time>
      </trkpt>
      <trkpt lat="44.71104" lon="6.8483">
        <ele>1769.6</ele>
        <time>2026-03-25T13:07:45Z</time>
      </trkpt>
      <trkpt lat="44.71105" lon="6.8483">
        <ele>1769.5</ele>
        <time>2026-03-25T13:07:46Z</time>
      </trkpt>
      <trkpt lat="44.71105" lon="6.8483">
        <ele>1769.5</ele>
        <time>2026-03-25T13:07:47Z</time>
      </trkpt>
      <trkpt lat="44.71106" lon="6.8483">
        <ele>1769.5</ele>
        <time>2026-03-25T13:07:48Z</time>
      </trkpt>
      <trkpt lat="44.71107" lon="6.84831">
        <ele>1769.5</ele>
        <time>2026-03-25T13:07:49Z</time>
      </trkpt>
      <trkpt lat="44.71107" lon="6.84831">
        <ele>1769.5</ele>
        <time>2026-03-25T13:07:50Z</time>
      </trkpt>
      <trkpt lat="44.71108" lon="6.84832">
        <ele>1769.5</ele>
        <time>2026-03-25T13:07:51Z</time>
      </trkpt>
      <trkpt lat="44.71108" lon="6.84832">
        <ele>1769.4</ele>
        <time>2026-03-25T13:07:52Z</time>
      </trkpt>
      <trkpt lat="44.71109" lon="6.84833">
        <ele>1769.4</ele>
        <time>2026-03-25T13:07:53Z</time>
      </trkpt>
      <trkpt lat="44.7111" lon="6.84833">
        <ele>1769.4</ele>
        <time>2026-03-25T13:07:54Z</time>
      </trkpt>
      <trkpt lat="44.71111" lon="6.84834">
        <ele>1769.4</ele>
        <time>2026-03-25T13:07:55Z</time>
      </trkpt>
      <trkpt lat="44.71112" lon="6.84835">
        <ele>1769.4</ele>
        <time>2026-03-25T13:07:56Z</time>
      </trkpt>
      <trkpt lat="44.71114" lon="6.84837">
        <ele>1769.4</ele>
        <time>2026-03-25T13:07:57Z</time>
      </trkpt>
      <trkpt lat="44.71115" lon="6.84837">
        <ele>1769.4</ele>
        <time>2026-03-25T13:07:58Z</time>
      </trkpt>
      <trkpt lat="44.71116" lon="6.84838">
        <ele>1769.4</ele>
        <time>2026-03-25T13:07:59Z</time>
      </trkpt>
      <trkpt lat="44.71117" lon="6.84839">
        <ele>1769.4</ele>
        <time>2026-03-25T13:08:00Z</time>
      </trkpt>
      <trkpt lat="44.71118" lon="6.84839">
        <ele>1769.4</ele>
        <time>2026-03-25T13:08:01Z</time>
      </trkpt>
      <trkpt lat="44.71119" lon="6.8484">
        <ele>1769.4</ele>
        <time>2026-03-25T13:08:02Z</time>
      </trkpt>
      <trkpt lat="44.71119" lon="6.84841">
        <ele>1769.4</ele>
        <time>2026-03-25T13:08:03Z</time>
      </trkpt>
      <trkpt lat="44.7112" lon="6.84841">
        <ele>1769.3</ele>
        <time>2026-03-25T13:08:04Z</time>
      </trkpt>
      <trkpt lat="44.7112" lon="6.84842">
        <ele>1769.3</ele>
        <time>2026-03-25T13:08:05Z</time>
      </trkpt>
      <trkpt lat="44.71121" lon="6.84843">
        <ele>1769.3</ele>
        <time>2026-03-25T13:08:06Z</time>
      </trkpt>
      <trkpt lat="44.71121" lon="6.84844">
        <ele>1769.3</ele>
        <time>2026-03-25T13:08:07Z</time>
      </trkpt>
      <trkpt lat="44.71122" lon="6.84845">
        <ele>1769.3</ele>
        <time>2026-03-25T13:08:08Z</time>
      </trkpt>
      <trkpt lat="44.71122" lon="6.84846">
        <ele>1769.3</ele>
        <time>2026-03-25T13:08:09Z</time>
      </trkpt>
      <trkpt lat="44.71122" lon="6.84847">
        <ele>1769.3</ele>
        <time>2026-03-25T13:08:10Z</time>
      </trkpt>
      <trkpt lat="44.71122" lon="6.84848">
        <ele>1769.3</ele>
        <time>2026-03-25T13:08:11Z</time>
      </trkpt>
      <trkpt lat="44.71122" lon="6.84848">
        <ele>1769.3</ele>
        <time>2026-03-25T13:08:12Z</time>
      </trkpt>
      <trkpt lat="44.71122" lon="6.84849">
        <ele>1769.3</ele>
        <time>2026-03-25T13:08:13Z</time>
      </trkpt>
      <trkpt lat="44.71123" lon="6.8485">
        <ele>1769.3</ele>
        <time>2026-03-25T13:08:14Z</time>
      </trkpt>
      <trkpt lat="44.71123" lon="6.84851">
        <ele>1769.3</ele>
        <time>2026-03-25T13:08:15Z</time>
      </trkpt>
      <trkpt lat="44.71123" lon="6.84852">
        <ele>1769.3</ele>
        <time>2026-03-25T13:08:16Z</time>
      </trkpt>
      <trkpt lat="44.71123" lon="6.84853">
        <ele>1769.3</ele>
        <time>2026-03-25T13:08:17Z</time>
      </trkpt>
      <trkpt lat="44.71123" lon="6.84854">
        <ele>1769.3</ele>
        <time>2026-03-25T13:08:18Z</time>
      </trkpt>
      <trkpt lat="44.71123" lon="6.84855">
        <ele>1769.3</ele>
        <time>2026-03-25T13:08:19Z</time>
      </trkpt>
      <trkpt lat="44.71123" lon="6.84856">
        <ele>1769.3</ele>
        <time>2026-03-25T13:08:20Z</time>
      </trkpt>
      <trkpt lat="44.71123" lon="6.84857">
        <ele>1769.3</ele>
        <time>2026-03-25T13:08:21Z</time>
      </trkpt>
      <trkpt lat="44.71123" lon="6.84859">
        <ele>1769.3</ele>
        <time>2026-03-25T13:08:22Z</time>
      </trkpt>
      <trkpt lat="44.71123" lon="6.8486">
        <ele>1769.3</ele>
        <time>2026-03-25T13:08:23Z</time>
      </trkpt>
      <trkpt lat="44.71123" lon="6.84861">
        <ele>1769.3</ele>
        <time>2026-03-25T13:08:24Z</time>
      </trkpt>
      <trkpt lat="44.71123" lon="6.84862">
        <ele>1769.3</ele>
        <time>2026-03-25T13:08:25Z</time>
      </trkpt>
      <trkpt lat="44.71123" lon="6.84862">
        <ele>1769.3</ele>
        <time>2026-03-25T13:08:26Z</time>
      </trkpt>
      <trkpt lat="44.71123" lon="6.84863">
        <ele>1769.3</ele>
        <time>2026-03-25T13:08:27Z</time>
      </trkpt>
      <trkpt lat="44.71123" lon="6.84864">
        <ele>1769.3</ele>
        <time>2026-03-25T13:08:28Z</time>
      </trkpt>
      <trkpt lat="44.71123" lon="6.84865">
        <ele>1769.2</ele>
        <time>2026-03-25T13:08:29Z</time>
      </trkpt>
      <trkpt lat="44.71123" lon="6.84866">
        <ele>1769.2</ele>
        <time>2026-03-25T13:08:30Z</time>
      </trkpt>
      <trkpt lat="44.71124" lon="6.84867">
        <ele>1769.2</ele>
        <time>2026-03-25T13:08:31Z</time>
      </trkpt>
      <trkpt lat="44.71124" lon="6.84868">
        <ele>1769.2</ele>
        <time>2026-03-25T13:08:32Z</time>
      </trkpt>
      <trkpt lat="44.71125" lon="6.84869">
        <ele>1769.2</ele>
        <time>2026-03-25T13:08:33Z</time>
      </trkpt>
      <trkpt lat="44.71125" lon="6.8487">
        <ele>1769.2</ele>
        <time>2026-03-25T13:08:34Z</time>
      </trkpt>
      <trkpt lat="44.71125" lon="6.84871">
        <ele>1769.2</ele>
        <time>2026-03-25T13:08:35Z</time>
      </trkpt>
      <trkpt lat="44.71126" lon="6.84871">
        <ele>1769.2</ele>
        <time>2026-03-25T13:08:36Z</time>
      </trkpt>
      <trkpt lat="44.71128" lon="6.84872">
        <ele>1769.2</ele>
        <time>2026-03-25T13:08:37Z</time>
      </trkpt>
      <trkpt lat="44.71129" lon="6.84873">
        <ele>1769.2</ele>
        <time>2026-03-25T13:08:38Z</time>
      </trkpt>
      <trkpt lat="44.7113" lon="6.84873">
        <ele>1769.2</ele>
        <time>2026-03-25T13:08:39Z</time>
      </trkpt>
      <trkpt lat="44.71131" lon="6.84873">
        <ele>1769.2</ele>
        <time>2026-03-25T13:08:40Z</time>
      </trkpt>
      <trkpt lat="44.71132" lon="6.84872">
        <ele>1769.2</ele>
        <time>2026-03-25T13:08:41Z</time>
      </trkpt>
      <trkpt lat="44.71132" lon="6.84873">
        <ele>1769.2</ele>
        <time>2026-03-25T13:08:42Z</time>
      </trkpt>
      <trkpt lat="44.71132" lon="6.84873">
        <ele>1769.2</ele>
        <time>2026-03-25T13:08:43Z</time>
      </trkpt>
      <trkpt lat="44.71133" lon="6.84873">
        <ele>1769.2</ele>
        <time>2026-03-25T13:08:44Z</time>
      </trkpt>
      <trkpt lat="44.71133" lon="6.84874">
        <ele>1769.1</ele>
        <time>2026-03-25T13:08:45Z</time>
      </trkpt>
      <trkpt lat="44.71134" lon="6.84875">
        <ele>1769.1</ele>
        <time>2026-03-25T13:08:46Z</time>
      </trkpt>
      <trkpt lat="44.71135" lon="6.84876">
        <ele>1769.1</ele>
        <time>2026-03-25T13:08:47Z</time>
      </trkpt>
      <trkpt lat="44.71135" lon="6.84877">
        <ele>1769.1</ele>
        <time>2026-03-25T13:08:48Z</time>
      </trkpt>
      <trkpt lat="44.71135" lon="6.84878">
        <ele>1769.1</ele>
        <time>2026-03-25T13:08:49Z</time>
      </trkpt>
      <trkpt lat="44.71136" lon="6.84879">
        <ele>1769.1</ele>
        <time>2026-03-25T13:08:50Z</time>
      </trkpt>
      <trkpt lat="44.71136" lon="6.8488">
        <ele>1769.1</ele>
        <time>2026-03-25T13:08:51Z</time>
      </trkpt>
      <trkpt lat="44.71137" lon="6.84882">
        <ele>1769</ele>
        <time>2026-03-25T13:08:52Z</time>
      </trkpt>
      <trkpt lat="44.71138" lon="6.84883">
        <ele>1769</ele>
        <time>2026-03-25T13:08:53Z</time>
      </trkpt>
      <trkpt lat="44.71138" lon="6.84883">
        <ele>1769</ele>
        <time>2026-03-25T13:08:54Z</time>
      </trkpt>
      <trkpt lat="44.71138" lon="6.84883">
        <ele>1769</ele>
        <time>2026-03-25T13:08:55Z</time>
      </trkpt>
      <trkpt lat="44.71138" lon="6.84883">
        <ele>1769</ele>
        <time>2026-03-25T13:08:56Z</time>
      </trkpt>
      <trkpt lat="44.71138" lon="6.84883">
        <ele>1769</ele>
        <time>2026-03-25T13:08:57Z</time>
      </trkpt>
      <trkpt lat="44.71138" lon="6.84883">
        <ele>1769</ele>
        <time>2026-03-25T13:08:58Z</time>
      </trkpt>
      <trkpt lat="44.71138" lon="6.84883">
        <ele>1769</ele>
        <time>2026-03-25T13:08:59Z</time>
      </trkpt>
      <trkpt lat="44.71138" lon="6.84883">
        <ele>1769</ele>
        <time>2026-03-25T13:09:00Z</time>
      </trkpt>
      <trkpt lat="44.71138" lon="6.84883">
        <ele>1769</ele>
        <time>2026-03-25T13:09:01Z</time>
      </trkpt>
      <trkpt lat="44.71138" lon="6.84883">
        <ele>1769</ele>
        <time>2026-03-25T13:09:02Z</time>
      </trkpt>
      <trkpt lat="44.71138" lon="6.84883">
        <ele>1769</ele>
        <time>2026-03-25T13:09:03Z</time>
      </trkpt>
      <trkpt lat="44.71138" lon="6.84883">
        <ele>1769</ele>
        <time>2026-03-25T13:09:04Z</time>
      </trkpt>
      <trkpt lat="44.71138" lon="6.84883">
        <ele>1769</ele>
        <time>2026-03-25T13:09:05Z</time>
      </trkpt>
      <trkpt lat="44.71137" lon="6.84883">
        <ele>1769</ele>
        <time>2026-03-25T13:09:06Z</time>
      </trkpt>
      <trkpt lat="44.71137" lon="6.84883">
        <ele>1769</ele>
        <time>2026-03-25T13:09:07Z</time>
      </trkpt>
      <trkpt lat="44.71138" lon="6.84883">
        <ele>1769</ele>
        <time>2026-03-25T13:09:08Z</time>
      </trkpt>
      <trkpt lat="44.71137" lon="6.84883">
        <ele>1769</ele>
        <time>2026-03-25T13:09:09Z</time>
      </trkpt>
      <trkpt lat="44.71137" lon="6.84883">
        <ele>1769</ele>
        <time>2026-03-25T13:09:10Z</time>
      </trkpt>
      <trkpt lat="44.71137" lon="6.84883">
        <ele>1769</ele>
        <time>2026-03-25T13:09:11Z</time>
      </trkpt>
      <trkpt lat="44.71137" lon="6.84883">
        <ele>1769</ele>
        <time>2026-03-25T13:09:12Z</time>
      </trkpt>
      <trkpt lat="44.71137" lon="6.84883">
        <ele>1769</ele>
        <time>2026-03-25T13:09:13Z</time>
      </trkpt>
      <trkpt lat="44.71137" lon="6.84883">
        <ele>1769</ele>
        <time>2026-03-25T13:09:14Z</time>
      </trkpt>
      <trkpt lat="44.71137" lon="6.84883">
        <ele>1769</ele>
        <time>2026-03-25T13:09:15Z</time>
      </trkpt>
      <trkpt lat="44.71137" lon="6.84883">
        <ele>1769</ele>
        <time>2026-03-25T13:09:16Z</time>
      </trkpt>
      <trkpt lat="44.71137" lon="6.84883">
        <ele>1769</ele>
        <time>2026-03-25T13:09:17Z</time>
      </trkpt>
      <trkpt lat="44.71137" lon="6.84883">
        <ele>1769</ele>
        <time>2026-03-25T13:09:18Z</time>
      </trkpt>
      <trkpt lat="44.71137" lon="6.84883">
        <ele>1769</ele>
        <time>2026-03-25T13:09:19Z</time>
      </trkpt>
      <trkpt lat="44.71137" lon="6.84883">
        <ele>1769</ele>
        <time>2026-03-25T13:09:20Z</time>
      </trkpt>
      <trkpt lat="44.71137" lon="6.84883">
        <ele>1769</ele>
        <time>2026-03-25T13:09:21Z</time>
      </trkpt>
      <trkpt lat="44.71137" lon="6.84883">
        <ele>1769</ele>
        <time>2026-03-25T13:09:22Z</time>
      </trkpt>
      <trkpt lat="44.71137" lon="6.84883">
        <ele>1769</ele>
        <time>2026-03-25T13:09:23Z</time>
      </trkpt>
      <trkpt lat="44.71137" lon="6.84883">
        <ele>1769</ele>
        <time>2026-03-25T13:09:24Z</time>
      </trkpt>
      <trkpt lat="44.71137" lon="6.84883">
        <ele>1769</ele>
        <time>2026-03-25T13:09:25Z</time>
      </trkpt>
      <trkpt lat="44.71137" lon="6.84883">
        <ele>1769</ele>
        <time>2026-03-25T13:09:26Z</time>
      </trkpt>
      <trkpt lat="44.71137" lon="6.84883">
        <ele>1769</ele>
        <time>2026-03-25T13:09:27Z</time>
      </trkpt>
      <trkpt lat="44.71137" lon="6.84883">
        <ele>1769</ele>
        <time>2026-03-25T13:09:28Z</time>
      </trkpt>
      <trkpt lat="44.71137" lon="6.84883">
        <ele>1769</ele>
        <time>2026-03-25T13:09:29Z</time>
      </trkpt>
      <trkpt lat="44.71137" lon="6.84883">
        <ele>1769</ele>
        <time>2026-03-25T13:09:30Z</time>
      </trkpt>
      <trkpt lat="44.71137" lon="6.84883">
        <ele>1769</ele>
        <time>2026-03-25T13:09:31Z</time>
      </trkpt>
      <trkpt lat="44.71137" lon="6.84883">
        <ele>1769</ele>
        <time>2026-03-25T13:09:32Z</time>
      </trkpt>
      <trkpt lat="44.71137" lon="6.84883">
        <ele>1769</ele>
        <time>2026-03-25T13:09:33Z</time>
      </trkpt>
      <trkpt lat="44.71137" lon="6.84883">
        <ele>1769</ele>
        <time>2026-03-25T13:09:34Z</time>
      </trkpt>
      <trkpt lat="44.71137" lon="6.84883">
        <ele>1769</ele>
        <time>2026-03-25T13:09:35Z</time>
      </trkpt>
      <trkpt lat="44.71137" lon="6.84883">
        <ele>1769</ele>
        <time>2026-03-25T13:09:36Z</time>
      </trkpt>
      <trkpt lat="44.71137" lon="6.84883">
        <ele>1769</ele>
        <time>2026-03-25T13:09:37Z</time>
      </trkpt>
      <trkpt lat="44.71137" lon="6.84883">
        <ele>1769</ele>
        <time>2026-03-25T13:09:38Z</time>
      </trkpt>
      <trkpt lat="44.71137" lon="6.84883">
        <ele>1769</ele>
        <time>2026-03-25T13:09:39Z</time>
      </trkpt>
      <trkpt lat="44.71137" lon="6.84883">
        <ele>1769</ele>
        <time>2026-03-25T13:09:40Z</time>
      </trkpt>
      <trkpt lat="44.71137" lon="6.84883">
        <ele>1769</ele>
        <time>2026-03-25T13:09:41Z</time>
      </trkpt>
      <trkpt lat="44.71137" lon="6.84883">
        <ele>1769</ele>
        <time>2026-03-25T13:09:42Z</time>
      </trkpt>
      <trkpt lat="44.71137" lon="6.84883">
        <ele>1769</ele>
        <time>2026-03-25T13:09:43Z</time>
      </trkpt>
      <trkpt lat="44.71138" lon="6.84883">
        <ele>1769</ele>
        <time>2026-03-25T13:09:44Z</time>
      </trkpt>
      <trkpt lat="44.71138" lon="6.84883">
        <ele>1769</ele>
        <time>2026-03-25T13:09:45Z</time>
      </trkpt>
      <trkpt lat="44.71138" lon="6.84883">
        <ele>1769</ele>
        <time>2026-03-25T13:09:46Z</time>
      </trkpt>
      <trkpt lat="44.71137" lon="6.84883">
        <ele>1769</ele>
        <time>2026-03-25T13:09:47Z</time>
      </trkpt>
      <trkpt lat="44.71138" lon="6.84883">
        <ele>1769</ele>
        <time>2026-03-25T13:09:48Z</time>
      </trkpt>
      <trkpt lat="44.71138" lon="6.84883">
        <ele>1769</ele>
        <time>2026-03-25T13:09:49Z</time>
      </trkpt>
      <trkpt lat="44.71138" lon="6.84883">
        <ele>1769</ele>
        <time>2026-03-25T13:09:50Z</time>
      </trkpt>
      <trkpt lat="44.71138" lon="6.84883">
        <ele>1769</ele>
        <time>2026-03-25T13:09:51Z</time>
      </trkpt>
      <trkpt lat="44.71138" lon="6.84883">
        <ele>1769</ele>
        <time>2026-03-25T13:09:52Z</time>
      </trkpt>
      <trkpt lat="44.71138" lon="6.84883">
        <ele>1769</ele>
        <time>2026-03-25T13:09:53Z</time>
      </trkpt>
      <trkpt lat="44.71138" lon="6.84883">
        <ele>1769</ele>
        <time>2026-03-25T13:09:54Z</time>
      </trkpt>
      <trkpt lat="44.71138" lon="6.84883">
        <ele>1769</ele>
        <time>2026-03-25T13:09:55Z</time>
      </trkpt>
      <trkpt lat="44.71138" lon="6.84883">
        <ele>1769</ele>
        <time>2026-03-25T13:09:56Z</time>
      </trkpt>
      <trkpt lat="44.71138" lon="6.84883">
        <ele>1769</ele>
        <time>2026-03-25T13:09:57Z</time>
      </trkpt>
    </trkseg>
  </trk>
</gpx>